﻿<?xml version="1.0" encoding="utf-8"?><gpx creator="Garmin Desktop App" version="1.1" xsi:schemaLocation="http://www.topografix.com/GPX/1/1 http://www.topografix.com/GPX/1/1/gpx.xsd http://www.garmin.com/xmlschemas/WaypointExtension/v1 http://www8.garmin.com/xmlschemas/WaypointExtensionv1.xsd http://www.garmin.com/xmlschemas/TrackPointExtension/v1 http://www.garmin.com/xmlschemas/TrackPointExtensionv1.xsd http://www.garmin.com/xmlschemas/GpxExtensions/v3 http://www8.garmin.com/xmlschemas/GpxExtensionsv3.xsd http://www.garmin.com/xmlschemas/ActivityExtension/v1 http://www8.garmin.com/xmlschemas/ActivityExtensionv1.xsd http://www.garmin.com/xmlschemas/AdventuresExtensions/v1 http://www8.garmin.com/xmlschemas/AdventuresExtensionv1.xsd http://www.garmin.com/xmlschemas/PressureExtension/v1 http://www.garmin.com/xmlschemas/PressureExtensionv1.xsd http://www.garmin.com/xmlschemas/TripExtensions/v1 http://www.garmin.com/xmlschemas/TripExtensionsv1.xsd http://www.garmin.com/xmlschemas/TripMetaDataExtensions/v1 http://www.garmin.com/xmlschemas/TripMetaDataExtensionsv1.xsd http://www.garmin.com/xmlschemas/ViaPointTransportationModeExtensions/v1 http://www.garmin.com/xmlschemas/ViaPointTransportationModeExtensionsv1.xsd http://www.garmin.com/xmlschemas/CreationTimeExtension/v1 http://www.garmin.com/xmlschemas/CreationTimeExtensionsv1.xsd http://www.garmin.com/xmlschemas/AccelerationExtension/v1 http://www.garmin.com/xmlschemas/AccelerationExtensionv1.xsd http://www.garmin.com/xmlschemas/PowerExtension/v1 http://www.garmin.com/xmlschemas/PowerExtensionv1.xsd http://www.garmin.com/xmlschemas/VideoExtension/v1 http://www.garmin.com/xmlschemas/VideoExtensionv1.xsd" xmlns="http://www.topografix.com/GPX/1/1" xmlns:xsi="http://www.w3.org/2001/XMLSchema-instance" xmlns:wptx1="http://www.garmin.com/xmlschemas/WaypointExtension/v1" xmlns:gpxtrx="http://www.garmin.com/xmlschemas/GpxExtensions/v3" xmlns:gpxtpx="http://www.garmin.com/xmlschemas/TrackPointExtension/v1" xmlns:gpxx="http://www.garmin.com/xmlschemas/GpxExtensions/v3" xmlns:trp="http://www.garmin.com/xmlschemas/TripExtensions/v1" xmlns:adv="http://www.garmin.com/xmlschemas/AdventuresExtensions/v1" xmlns:prs="http://www.garmin.com/xmlschemas/PressureExtension/v1" xmlns:tmd="http://www.garmin.com/xmlschemas/TripMetaDataExtensions/v1" xmlns:vptm="http://www.garmin.com/xmlschemas/ViaPointTransportationModeExtensions/v1" xmlns:ctx="http://www.garmin.com/xmlschemas/CreationTimeExtension/v1" xmlns:gpxacc="http://www.garmin.com/xmlschemas/AccelerationExtension/v1" xmlns:gpxpx="http://www.garmin.com/xmlschemas/PowerExtension/v1" xmlns:vidx1="http://www.garmin.com/xmlschemas/VideoExtension/v1">

  <metadata>
    <link href="http://www.garmin.com">
      <text>Garmin International</text>
    </link>
    <time>2017-06-22T20:03:07Z</time>
    <bounds maxlat="66.756217991933227" maxlon="13.685193993151188" minlat="64.819653024896979" minlon="11.319908006116748" />
  </metadata>

  <trk>
    <name>Track vom: 22 JUN 2017 08:15</name>
    <extensions>
      <gpxx:TrackExtension>
        <gpxx:DisplayColor>DarkGray</gpxx:DisplayColor>
      </gpxx:TrackExtension>
    </extensions>
    <trkseg>
      <trkpt lat="64.819671967998147" lon="11.329531017690897">
        <ele>12.15</ele>
        <time>2017-06-22T06:15:37Z</time>
      </trkpt>
      <trkpt lat="64.819665011018515" lon="11.329517019912601">
        <ele>11.67</ele>
        <time>2017-06-22T06:16:33Z</time>
      </trkpt>
      <trkpt lat="64.819653024896979" lon="11.329566976055503">
        <ele>11.19</ele>
        <time>2017-06-22T06:16:35Z</time>
      </trkpt>
      <trkpt lat="64.819682026281953" lon="11.329895965754986">
        <ele>13.119999999999999</ele>
        <time>2017-06-22T06:16:39Z</time>
      </trkpt>
      <trkpt lat="64.819867014884949" lon="11.330475993454456">
        <ele>11.67</ele>
        <time>2017-06-22T06:16:47Z</time>
      </trkpt>
      <trkpt lat="64.819952007383108" lon="11.330723008140922">
        <ele>10.710000000000001</ele>
        <time>2017-06-22T06:16:50Z</time>
      </trkpt>
      <trkpt lat="64.819973967969418" lon="11.330824010074139">
        <ele>10.710000000000001</ele>
        <time>2017-06-22T06:16:51Z</time>
      </trkpt>
      <trkpt lat="64.820071030408144" lon="11.331270011141896">
        <ele>12.15</ele>
        <time>2017-06-22T06:16:55Z</time>
      </trkpt>
      <trkpt lat="64.820282002910972" lon="11.331777032464743">
        <ele>12.15</ele>
        <time>2017-06-22T06:17:03Z</time>
      </trkpt>
      <trkpt lat="64.820308992639184" lon="11.33177300915122">
        <ele>12.15</ele>
        <time>2017-06-22T06:17:04Z</time>
      </trkpt>
      <trkpt lat="64.82034302316606" lon="11.331724980846047">
        <ele>11.67</ele>
        <time>2017-06-22T06:17:05Z</time>
      </trkpt>
      <trkpt lat="64.820376969873905" lon="11.331631019711494">
        <ele>11.67</ele>
        <time>2017-06-22T06:17:06Z</time>
      </trkpt>
      <trkpt lat="64.820416029542685" lon="11.331507973372936">
        <ele>11.67</ele>
        <time>2017-06-22T06:17:07Z</time>
      </trkpt>
      <trkpt lat="64.820521976798773" lon="11.331226006150246">
        <ele>11.19</ele>
        <time>2017-06-22T06:17:09Z</time>
      </trkpt>
      <trkpt lat="64.820584002882242" lon="11.331090973690152">
        <ele>11.67</ele>
        <time>2017-06-22T06:17:10Z</time>
      </trkpt>
      <trkpt lat="64.820654997602105" lon="11.330963987857103">
        <ele>11.19</ele>
        <time>2017-06-22T06:17:11Z</time>
      </trkpt>
      <trkpt lat="64.820734038949013" lon="11.330853011459112">
        <ele>10.710000000000001</ele>
        <time>2017-06-22T06:17:12Z</time>
      </trkpt>
      <trkpt lat="64.82081601396203" lon="11.330771036446095">
        <ele>10.23</ele>
        <time>2017-06-22T06:17:13Z</time>
      </trkpt>
      <trkpt lat="64.820904023945332" lon="11.330717978999019">
        <ele>9.27</ele>
        <time>2017-06-22T06:17:14Z</time>
      </trkpt>
      <trkpt lat="64.820999996736646" lon="11.330691995099187">
        <ele>8.789999999999999</ele>
        <time>2017-06-22T06:17:15Z</time>
      </trkpt>
      <trkpt lat="64.821105021983385" lon="11.330689983442426">
        <ele>7.83</ele>
        <time>2017-06-22T06:17:16Z</time>
      </trkpt>
      <trkpt lat="64.821205018088222" lon="11.330705992877483">
        <ele>7.35</ele>
        <time>2017-06-22T06:17:17Z</time>
      </trkpt>
      <trkpt lat="64.82130903750658" lon="11.330756032839417">
        <ele>5.91</ele>
        <time>2017-06-22T06:17:18Z</time>
      </trkpt>
      <trkpt lat="64.822772014886141" lon="11.331496993079782">
        <ele>4.46</ele>
        <time>2017-06-22T06:17:30Z</time>
      </trkpt>
      <trkpt lat="64.822901012375951" lon="11.331492969766259">
        <ele>3.98</ele>
        <time>2017-06-22T06:17:31Z</time>
      </trkpt>
      <trkpt lat="64.823026992380619" lon="11.331457011401653">
        <ele>3.5</ele>
        <time>2017-06-22T06:17:32Z</time>
      </trkpt>
      <trkpt lat="64.823150038719177" lon="11.331392973661423">
        <ele>3.5</ele>
        <time>2017-06-22T06:17:33Z</time>
      </trkpt>
      <trkpt lat="64.823269983753562" lon="11.331298006698489">
        <ele>3.98</ele>
        <time>2017-06-22T06:17:34Z</time>
      </trkpt>
      <trkpt lat="64.823381965979934" lon="11.331188958138227">
        <ele>3.98</ele>
        <time>2017-06-22T06:17:35Z</time>
      </trkpt>
      <trkpt lat="64.823687989264727" lon="11.330780005082488">
        <ele>5.91</ele>
        <time>2017-06-22T06:17:38Z</time>
      </trkpt>
      <trkpt lat="64.823765018954873" lon="11.33059199899435">
        <ele>6.39</ele>
        <time>2017-06-22T06:17:39Z</time>
      </trkpt>
      <trkpt lat="64.823824027553201" lon="11.330367028713226">
        <ele>6.87</ele>
        <time>2017-06-22T06:17:40Z</time>
      </trkpt>
      <trkpt lat="64.823867026716471" lon="11.330113979056478">
        <ele>7.83</ele>
        <time>2017-06-22T06:17:41Z</time>
      </trkpt>
      <trkpt lat="64.823892004787922" lon="11.3298399746418">
        <ele>7.83</ele>
        <time>2017-06-22T06:17:42Z</time>
      </trkpt>
      <trkpt lat="64.823900973424315" lon="11.329551972448826">
        <ele>8.310000000000001</ele>
        <time>2017-06-22T06:17:43Z</time>
      </trkpt>
      <trkpt lat="64.823898039758205" lon="11.329239998012781">
        <ele>8.310000000000001</ele>
        <time>2017-06-22T06:17:44Z</time>
      </trkpt>
      <trkpt lat="64.823884963989258" lon="11.328931041061878">
        <ele>7.83</ele>
        <time>2017-06-22T06:17:45Z</time>
      </trkpt>
      <trkpt lat="64.823867026716471" lon="11.328652007505298">
        <ele>7.83</ele>
        <time>2017-06-22T06:17:46Z</time>
      </trkpt>
      <trkpt lat="64.823714978992939" lon="11.327022984623909">
        <ele>3.98</ele>
        <time>2017-06-22T06:17:54Z</time>
      </trkpt>
      <trkpt lat="64.823613977059722" lon="11.32590601220727">
        <ele>3.5</ele>
        <time>2017-06-22T06:18:05Z</time>
      </trkpt>
      <trkpt lat="64.823548011481762" lon="11.325274016708136">
        <ele>4.94</ele>
        <time>2017-06-22T06:18:13Z</time>
      </trkpt>
      <trkpt lat="64.823422031477094" lon="11.323188012465835">
        <ele>5.91</ele>
        <time>2017-06-22T06:18:24Z</time>
      </trkpt>
      <trkpt lat="64.82371598482132" lon="11.320863962173462">
        <ele>7.35</ele>
        <time>2017-06-22T06:18:36Z</time>
      </trkpt>
      <trkpt lat="64.823853028938174" lon="11.320128031075001">
        <ele>7.83</ele>
        <time>2017-06-22T06:18:41Z</time>
      </trkpt>
      <trkpt lat="64.823885969817638" lon="11.320044966414571">
        <ele>7.83</ele>
        <time>2017-06-22T06:18:42Z</time>
      </trkpt>
      <trkpt lat="64.82393198646605" lon="11.319963997229934">
        <ele>6.87</ele>
        <time>2017-06-22T06:18:43Z</time>
      </trkpt>
      <trkpt lat="64.823987977579236" lon="11.319913035258651">
        <ele>5.42</ele>
        <time>2017-06-22T06:18:44Z</time>
      </trkpt>
      <trkpt lat="64.824053021147847" lon="11.319908006116748">
        <ele>4.94</ele>
        <time>2017-06-22T06:18:45Z</time>
      </trkpt>
      <trkpt lat="64.824136001989245" lon="11.319940024986863">
        <ele>8.310000000000001</ele>
        <time>2017-06-22T06:18:46Z</time>
      </trkpt>
      <trkpt lat="64.824212025851011" lon="11.320000039413571">
        <ele>8.789999999999999</ele>
        <time>2017-06-22T06:18:47Z</time>
      </trkpt>
      <trkpt lat="64.824289977550507" lon="11.320072961971164">
        <ele>9.27</ele>
        <time>2017-06-22T06:18:48Z</time>
      </trkpt>
      <trkpt lat="64.825200000777841" lon="11.320848958566785">
        <ele>12.630000000000001</ele>
        <time>2017-06-22T06:18:57Z</time>
      </trkpt>
      <trkpt lat="64.827331015840173" lon="11.322661964222789">
        <ele>17.440000000000001</ele>
        <time>2017-06-22T06:19:15Z</time>
      </trkpt>
      <trkpt lat="64.828860964626074" lon="11.32418998517096">
        <ele>18.879999999999999</ele>
        <time>2017-06-22T06:19:26Z</time>
      </trkpt>
      <trkpt lat="64.831041013821959" lon="11.327051986008883">
        <ele>20.32</ele>
        <time>2017-06-22T06:19:41Z</time>
      </trkpt>
      <trkpt lat="64.833164988085628" lon="11.329544009640813">
        <ele>23.690000000000001</ele>
        <time>2017-06-22T06:19:56Z</time>
      </trkpt>
      <trkpt lat="64.835342019796371" lon="11.33084999397397">
        <ele>25.129999999999999</ele>
        <time>2017-06-22T06:20:10Z</time>
      </trkpt>
      <trkpt lat="64.837830020114779" lon="11.332828961312771">
        <ele>16.960000000000001</ele>
        <time>2017-06-22T06:20:26Z</time>
      </trkpt>
      <trkpt lat="64.837963962927461" lon="11.333044040948153">
        <ele>16</ele>
        <time>2017-06-22T06:20:27Z</time>
      </trkpt>
      <trkpt lat="64.838087009266019" lon="11.333311004564166">
        <ele>15.52</ele>
        <time>2017-06-22T06:20:28Z</time>
      </trkpt>
      <trkpt lat="64.838194968178868" lon="11.333616022020578">
        <ele>16</ele>
        <time>2017-06-22T06:20:29Z</time>
      </trkpt>
      <trkpt lat="64.838291024789214" lon="11.333932019770145">
        <ele>16.48</ele>
        <time>2017-06-22T06:20:30Z</time>
      </trkpt>
      <trkpt lat="64.840283989906311" lon="11.340585993602872">
        <ele>21.77</ele>
        <time>2017-06-22T06:20:51Z</time>
      </trkpt>
      <trkpt lat="64.841258972883224" lon="11.344763031229377">
        <ele>16.960000000000001</ele>
        <time>2017-06-22T06:21:03Z</time>
      </trkpt>
      <trkpt lat="64.841352012008429" lon="11.344998981803656">
        <ele>16.48</ele>
        <time>2017-06-22T06:21:04Z</time>
      </trkpt>
      <trkpt lat="64.841451002284884" lon="11.345187993720174">
        <ele>16</ele>
        <time>2017-06-22T06:21:05Z</time>
      </trkpt>
      <trkpt lat="64.841562984511256" lon="11.345326965674758">
        <ele>15.039999999999999</ele>
        <time>2017-06-22T06:21:06Z</time>
      </trkpt>
      <trkpt lat="64.841687958687544" lon="11.345418998971581">
        <ele>14.56</ele>
        <time>2017-06-22T06:21:07Z</time>
      </trkpt>
      <trkpt lat="64.841825002804399" lon="11.345457974821329">
        <ele>13.6</ele>
        <time>2017-06-22T06:21:08Z</time>
      </trkpt>
      <trkpt lat="64.841967998072505" lon="11.345449006184936">
        <ele>12.630000000000001</ele>
        <time>2017-06-22T06:21:09Z</time>
      </trkpt>
      <trkpt lat="64.842116022482514" lon="11.345391003414989">
        <ele>12.15</ele>
        <time>2017-06-22T06:21:10Z</time>
      </trkpt>
      <trkpt lat="64.842260023579001" lon="11.345277009531856">
        <ele>11.67</ele>
        <time>2017-06-22T06:21:11Z</time>
      </trkpt>
      <trkpt lat="64.842396983876824" lon="11.34509596042335">
        <ele>12.15</ele>
        <time>2017-06-22T06:21:12Z</time>
      </trkpt>
      <trkpt lat="64.842521036043763" lon="11.344871995970607">
        <ele>12.15</ele>
        <time>2017-06-22T06:21:13Z</time>
      </trkpt>
      <trkpt lat="64.842636035755277" lon="11.344629004597664">
        <ele>12.630000000000001</ele>
        <time>2017-06-22T06:21:14Z</time>
      </trkpt>
      <trkpt lat="64.842747012153268" lon="11.344368997961283">
        <ele>13.119999999999999</ele>
        <time>2017-06-22T06:21:15Z</time>
      </trkpt>
      <trkpt lat="64.843906983733177" lon="11.341538010165095">
        <ele>20.32</ele>
        <time>2017-06-22T06:21:26Z</time>
      </trkpt>
      <trkpt lat="64.844574015587568" lon="11.33989398367703">
        <ele>21.289999999999999</ele>
        <time>2017-06-22T06:21:32Z</time>
      </trkpt>
      <trkpt lat="64.84470896422863" lon="11.339736990630627">
        <ele>21.289999999999999</ele>
        <time>2017-06-22T06:21:33Z</time>
      </trkpt>
      <trkpt lat="64.844852965325117" lon="11.339648980647326">
        <ele>20.809999999999999</ele>
        <time>2017-06-22T06:21:34Z</time>
      </trkpt>
      <trkpt lat="64.844999983906746" lon="11.339632971212268">
        <ele>21.289999999999999</ele>
        <time>2017-06-22T06:21:35Z</time>
      </trkpt>
      <trkpt lat="64.845145996659994" lon="11.339630037546158">
        <ele>21.289999999999999</ele>
        <time>2017-06-22T06:21:36Z</time>
      </trkpt>
      <trkpt lat="64.846294987946749" lon="11.339728021994233">
        <ele>25.129999999999999</ele>
        <time>2017-06-22T06:21:45Z</time>
      </trkpt>
      <trkpt lat="64.846377968788147" lon="11.339771021157503">
        <ele>25.129999999999999</ele>
        <time>2017-06-22T06:21:46Z</time>
      </trkpt>
      <trkpt lat="64.846443012356758" lon="11.339830029755831">
        <ele>25.609999999999999</ele>
        <time>2017-06-22T06:21:47Z</time>
      </trkpt>
      <trkpt lat="64.846495985984802" lon="11.339899012818933">
        <ele>25.609999999999999</ele>
        <time>2017-06-22T06:21:48Z</time>
      </trkpt>
      <trkpt lat="64.846542002633214" lon="11.339972019195557">
        <ele>25.609999999999999</ele>
        <time>2017-06-22T06:21:49Z</time>
      </trkpt>
      <trkpt lat="64.8465789668262" lon="11.340081989765167">
        <ele>25.609999999999999</ele>
        <time>2017-06-22T06:21:50Z</time>
      </trkpt>
      <trkpt lat="64.846603022888303" lon="11.340223979204893">
        <ele>25.129999999999999</ele>
        <time>2017-06-22T06:21:51Z</time>
      </trkpt>
      <trkpt lat="64.846606962382793" lon="11.340392036363482">
        <ele>25.129999999999999</ele>
        <time>2017-06-22T06:21:52Z</time>
      </trkpt>
      <trkpt lat="64.846592964604497" lon="11.340592028573155">
        <ele>25.129999999999999</ele>
        <time>2017-06-22T06:21:53Z</time>
      </trkpt>
      <trkpt lat="64.846574021503329" lon="11.340810963883996">
        <ele>25.129999999999999</ele>
        <time>2017-06-22T06:21:54Z</time>
      </trkpt>
      <trkpt lat="64.846519958227873" lon="11.343034012243152">
        <ele>25.609999999999999</ele>
        <time>2017-06-22T06:22:01Z</time>
      </trkpt>
      <trkpt lat="64.846545020118356" lon="11.347943963482976">
        <ele>28.02</ele>
        <time>2017-06-22T06:22:12Z</time>
      </trkpt>
      <trkpt lat="64.846649039536715" lon="11.357936030253768">
        <ele>29.940000000000001</ele>
        <time>2017-06-22T06:22:32Z</time>
      </trkpt>
      <trkpt lat="64.847066039219499" lon="11.361824981868267">
        <ele>28.02</ele>
        <time>2017-06-22T06:22:40Z</time>
      </trkpt>
      <trkpt lat="64.847424030303955" lon="11.366484984755516">
        <ele>23.690000000000001</ele>
        <time>2017-06-22T06:22:50Z</time>
      </trkpt>
      <trkpt lat="64.847112977877259" lon="11.370705021545291">
        <ele>22.73</ele>
        <time>2017-06-22T06:22:59Z</time>
      </trkpt>
      <trkpt lat="64.847038965672255" lon="11.375261005014181">
        <ele>22.73</ele>
        <time>2017-06-22T06:23:08Z</time>
      </trkpt>
      <trkpt lat="64.847470968961716" lon="11.380555015057325">
        <ele>28.5</ele>
        <time>2017-06-22T06:23:19Z</time>
      </trkpt>
      <trkpt lat="64.848463973030448" lon="11.387974005192518">
        <ele>33.780000000000001</ele>
        <time>2017-06-22T06:23:35Z</time>
      </trkpt>
      <trkpt lat="64.849242987111211" lon="11.395296016708016">
        <ele>36.670000000000002</ele>
        <time>2017-06-22T06:23:50Z</time>
      </trkpt>
      <trkpt lat="64.849568037316203" lon="11.400514002889395">
        <ele>37.149999999999999</ele>
        <time>2017-06-22T06:24:00Z</time>
      </trkpt>
      <trkpt lat="64.849815974012017" lon="11.404604036360979">
        <ele>37.149999999999999</ele>
        <time>2017-06-22T06:24:08Z</time>
      </trkpt>
      <trkpt lat="64.850526005029678" lon="11.412199968472123">
        <ele>30.899999999999999</ele>
        <time>2017-06-22T06:24:23Z</time>
      </trkpt>
      <trkpt lat="64.85050798393786" lon="11.418902976438403">
        <ele>27.530000000000001</ele>
        <time>2017-06-22T06:24:36Z</time>
      </trkpt>
      <trkpt lat="64.850369011983275" lon="11.431018011644483">
        <ele>19.359999999999999</ele>
        <time>2017-06-22T06:24:59Z</time>
      </trkpt>
      <trkpt lat="64.850514018908143" lon="11.438362989574671">
        <ele>16</ele>
        <time>2017-06-22T06:25:13Z</time>
      </trkpt>
      <trkpt lat="64.851091029122472" lon="11.442983010783792">
        <ele>13.6</ele>
        <time>2017-06-22T06:25:22Z</time>
      </trkpt>
      <trkpt lat="64.851367967203259" lon="11.448895018547773">
        <ele>11.19</ele>
        <time>2017-06-22T06:25:33Z</time>
      </trkpt>
      <trkpt lat="64.851955035701394" lon="11.456762021407485">
        <ele>11.67</ele>
        <time>2017-06-22T06:25:48Z</time>
      </trkpt>
      <trkpt lat="64.852848965674639" lon="11.466632969677448">
        <ele>19.84</ele>
        <time>2017-06-22T06:26:08Z</time>
      </trkpt>
      <trkpt lat="64.853059016168118" lon="11.471659010276198">
        <ele>22.25</ele>
        <time>2017-06-22T06:26:18Z</time>
      </trkpt>
      <trkpt lat="64.852910991758108" lon="11.478467965498567">
        <ele>26.09</ele>
        <time>2017-06-22T06:26:32Z</time>
      </trkpt>
      <trkpt lat="64.852780988439918" lon="11.482747010886669">
        <ele>24.170000000000002</ele>
        <time>2017-06-22T06:26:42Z</time>
      </trkpt>
      <trkpt lat="64.85280797816813" lon="11.483108019456267">
        <ele>23.210000000000001</ele>
        <time>2017-06-22T06:26:43Z</time>
      </trkpt>
      <trkpt lat="64.852862963452935" lon="11.483448995277286">
        <ele>23.210000000000001</ele>
        <time>2017-06-22T06:26:44Z</time>
      </trkpt>
      <trkpt lat="64.85293697565794" lon="11.483773961663246">
        <ele>22.73</ele>
        <time>2017-06-22T06:26:45Z</time>
      </trkpt>
      <trkpt lat="64.85302004031837" lon="11.484085014089942">
        <ele>22.25</ele>
        <time>2017-06-22T06:26:46Z</time>
      </trkpt>
      <trkpt lat="64.853179967030883" lon="11.48474701680243">
        <ele>20.809999999999999</ele>
        <time>2017-06-22T06:26:48Z</time>
      </trkpt>
      <trkpt lat="64.853232018649578" lon="11.485097967088223">
        <ele>19.84</ele>
        <time>2017-06-22T06:26:49Z</time>
      </trkpt>
      <trkpt lat="64.85325800254941" lon="11.485458975657821">
        <ele>19.359999999999999</ele>
        <time>2017-06-22T06:26:50Z</time>
      </trkpt>
      <trkpt lat="64.853265965357423" lon="11.485834987834096">
        <ele>19.359999999999999</ele>
        <time>2017-06-22T06:26:51Z</time>
      </trkpt>
      <trkpt lat="64.85325900837779" lon="11.48620898835361">
        <ele>18.879999999999999</ele>
        <time>2017-06-22T06:26:52Z</time>
      </trkpt>
      <trkpt lat="64.853275017812848" lon="11.488128025084734">
        <ele>15.52</ele>
        <time>2017-06-22T06:26:57Z</time>
      </trkpt>
      <trkpt lat="64.853327991440892" lon="11.488494984805584">
        <ele>15.52</ele>
        <time>2017-06-22T06:26:58Z</time>
      </trkpt>
      <trkpt lat="64.85340803861618" lon="11.488831015303731">
        <ele>15.039999999999999</ele>
        <time>2017-06-22T06:26:59Z</time>
      </trkpt>
      <trkpt lat="64.853501999750733" lon="11.48913100361824">
        <ele>15.039999999999999</ele>
        <time>2017-06-22T06:27:00Z</time>
      </trkpt>
      <trkpt lat="64.853593027219176" lon="11.48941095918417">
        <ele>15.039999999999999</ele>
        <time>2017-06-22T06:27:01Z</time>
      </trkpt>
      <trkpt lat="64.853723030537367" lon="11.489893002435565">
        <ele>15.52</ele>
        <time>2017-06-22T06:27:03Z</time>
      </trkpt>
      <trkpt lat="64.853763012215495" lon="11.490092994645238">
        <ele>16</ele>
        <time>2017-06-22T06:27:04Z</time>
      </trkpt>
      <trkpt lat="64.853992005810142" lon="11.491547003388405">
        <ele>13.6</ele>
        <time>2017-06-22T06:27:12Z</time>
      </trkpt>
      <trkpt lat="64.854001980274916" lon="11.491778008639812">
        <ele>13.119999999999999</ele>
        <time>2017-06-22T06:27:13Z</time>
      </trkpt>
      <trkpt lat="64.853998040780425" lon="11.492023011669517">
        <ele>12.630000000000001</ele>
        <time>2017-06-22T06:27:14Z</time>
      </trkpt>
      <trkpt lat="64.853983959183097" lon="11.49228704161942">
        <ele>12.15</ele>
        <time>2017-06-22T06:27:15Z</time>
      </trkpt>
      <trkpt lat="64.853958981111646" lon="11.49254797026515">
        <ele>11.67</ele>
        <time>2017-06-22T06:27:16Z</time>
      </trkpt>
      <trkpt lat="64.853824032470584" lon="11.495827976614237">
        <ele>9.75</ele>
        <time>2017-06-22T06:27:28Z</time>
      </trkpt>
      <trkpt lat="64.853850016370416" lon="11.496083959937096">
        <ele>9.75</ele>
        <time>2017-06-22T06:27:29Z</time>
      </trkpt>
      <trkpt lat="64.853884968906641" lon="11.496344972401857">
        <ele>9.27</ele>
        <time>2017-06-22T06:27:30Z</time>
      </trkpt>
      <trkpt lat="64.854466002434492" lon="11.499573010951281">
        <ele>5.42</ele>
        <time>2017-06-22T06:27:41Z</time>
      </trkpt>
      <trkpt lat="64.854884007945657" lon="11.504181968048215">
        <ele>4.94</ele>
        <time>2017-06-22T06:27:55Z</time>
      </trkpt>
      <trkpt lat="64.854961037635803" lon="11.509684016928077">
        <ele>4.94</ele>
        <time>2017-06-22T06:28:10Z</time>
      </trkpt>
      <trkpt lat="64.855261025950313" lon="11.51312998495996">
        <ele>4.46</ele>
        <time>2017-06-22T06:28:21Z</time>
      </trkpt>
      <trkpt lat="64.855697974562645" lon="11.514938967302442">
        <ele>4.46</ele>
        <time>2017-06-22T06:28:27Z</time>
      </trkpt>
      <trkpt lat="64.855808028951287" lon="11.515195034444332">
        <ele>4.46</ele>
        <time>2017-06-22T06:28:28Z</time>
      </trkpt>
      <trkpt lat="64.855934008955956" lon="11.515410030260682">
        <ele>4.46</ele>
        <time>2017-06-22T06:28:29Z</time>
      </trkpt>
      <trkpt lat="64.856075998395681" lon="11.515596024692059">
        <ele>4.46</ele>
        <time>2017-06-22T06:28:30Z</time>
      </trkpt>
      <trkpt lat="64.856221005320549" lon="11.51577397249639">
        <ele>4.46</ele>
        <time>2017-06-22T06:28:31Z</time>
      </trkpt>
      <trkpt lat="64.857328003272414" lon="11.517822006717324">
        <ele>3.5</ele>
        <time>2017-06-22T06:28:39Z</time>
      </trkpt>
      <trkpt lat="64.857887998223305" lon="11.519899964332581">
        <ele>2.54</ele>
        <time>2017-06-22T06:28:45Z</time>
      </trkpt>
      <trkpt lat="64.857927979901433" lon="11.520291985943913">
        <ele>2.06</ele>
        <time>2017-06-22T06:28:46Z</time>
      </trkpt>
      <trkpt lat="64.857951030135155" lon="11.520699011161923">
        <ele>2.54</ele>
        <time>2017-06-22T06:28:47Z</time>
      </trkpt>
      <trkpt lat="64.857957987114787" lon="11.521115005016327">
        <ele>2.54</ele>
        <time>2017-06-22T06:28:48Z</time>
      </trkpt>
      <trkpt lat="64.857957987114787" lon="11.521533010527492">
        <ele>2.54</ele>
        <time>2017-06-22T06:28:49Z</time>
      </trkpt>
      <trkpt lat="64.858097964897752" lon="11.526744039729238">
        <ele>3.5</ele>
        <time>2017-06-22T06:29:01Z</time>
      </trkpt>
      <trkpt lat="64.858162002637982" lon="11.527132038027048">
        <ele>3.98</ele>
        <time>2017-06-22T06:29:02Z</time>
      </trkpt>
      <trkpt lat="64.858252024278045" lon="11.527486005797982">
        <ele>3.98</ele>
        <time>2017-06-22T06:29:03Z</time>
      </trkpt>
      <trkpt lat="64.858358977362514" lon="11.527808038517833">
        <ele>3.5</ele>
        <time>2017-06-22T06:29:04Z</time>
      </trkpt>
      <trkpt lat="64.858461990952492" lon="11.528130993247032">
        <ele>3.5</ele>
        <time>2017-06-22T06:29:05Z</time>
      </trkpt>
      <trkpt lat="64.858547989279032" lon="11.528482027351856">
        <ele>3.02</ele>
        <time>2017-06-22T06:29:06Z</time>
      </trkpt>
      <trkpt lat="64.858612027019262" lon="11.528866002336144">
        <ele>3.02</ele>
        <time>2017-06-22T06:29:07Z</time>
      </trkpt>
      <trkpt lat="64.85865100286901" lon="11.529263975098729">
        <ele>3.02</ele>
        <time>2017-06-22T06:29:08Z</time>
      </trkpt>
      <trkpt lat="64.858675980940461" lon="11.529677035287023">
        <ele>3.5</ele>
        <time>2017-06-22T06:29:09Z</time>
      </trkpt>
      <trkpt lat="64.858688972890377" lon="11.530096968635917">
        <ele>3.5</ele>
        <time>2017-06-22T06:29:10Z</time>
      </trkpt>
      <trkpt lat="64.858689978718758" lon="11.530511034652591">
        <ele>3.5</ele>
        <time>2017-06-22T06:29:11Z</time>
      </trkpt>
      <trkpt lat="64.858945962041616" lon="11.534265037626028">
        <ele>3.5</ele>
        <time>2017-06-22T06:29:20Z</time>
      </trkpt>
      <trkpt lat="64.859027015045285" lon="11.534653035923839">
        <ele>3.02</ele>
        <time>2017-06-22T06:29:21Z</time>
      </trkpt>
      <trkpt lat="64.85912399366498" lon="11.535024018958211">
        <ele>3.02</ele>
        <time>2017-06-22T06:29:22Z</time>
      </trkpt>
      <trkpt lat="64.859236981719732" lon="11.535377986729145">
        <ele>3.5</ele>
        <time>2017-06-22T06:29:23Z</time>
      </trkpt>
      <trkpt lat="64.859569994732738" lon="11.536474004387856">
        <ele>3.5</ele>
        <time>2017-06-22T06:29:26Z</time>
      </trkpt>
      <trkpt lat="64.859659010544419" lon="11.536881029605865">
        <ele>3.5</ele>
        <time>2017-06-22T06:29:27Z</time>
      </trkpt>
      <trkpt lat="64.859744003042579" lon="11.537282019853592">
        <ele>3.98</ele>
        <time>2017-06-22T06:29:28Z</time>
      </trkpt>
      <trkpt lat="64.859847016632557" lon="11.537651997059584">
        <ele>3.5</ele>
        <time>2017-06-22T06:29:29Z</time>
      </trkpt>
      <trkpt lat="64.859970984980464" lon="11.537989033386111">
        <ele>3.5</ele>
        <time>2017-06-22T06:29:30Z</time>
      </trkpt>
      <trkpt lat="64.860114986076951" lon="11.538292961195111">
        <ele>3.5</ele>
        <time>2017-06-22T06:29:31Z</time>
      </trkpt>
      <trkpt lat="64.860270973294973" lon="11.538569983094931">
        <ele>3.5</ele>
        <time>2017-06-22T06:29:32Z</time>
      </trkpt>
      <trkpt lat="64.860432995483279" lon="11.538838036358356">
        <ele>3.02</ele>
        <time>2017-06-22T06:29:33Z</time>
      </trkpt>
      <trkpt lat="64.860742036253214" lon="11.539364000782371">
        <ele>3.02</ele>
        <time>2017-06-22T06:29:35Z</time>
      </trkpt>
      <trkpt lat="64.860866004601121" lon="11.539681004360318">
        <ele>2.54</ele>
        <time>2017-06-22T06:29:36Z</time>
      </trkpt>
      <trkpt lat="64.860962983220816" lon="11.540044024586678">
        <ele>3.02</ele>
        <time>2017-06-22T06:29:37Z</time>
      </trkpt>
      <trkpt lat="64.861709978431463" lon="11.542667979374528">
        <ele>3.5</ele>
        <time>2017-06-22T06:29:44Z</time>
      </trkpt>
      <trkpt lat="64.86183101311326" lon="11.543033011257648">
        <ele>3.5</ele>
        <time>2017-06-22T06:29:45Z</time>
      </trkpt>
      <trkpt lat="64.861924974247813" lon="11.543416986241937">
        <ele>3.5</ele>
        <time>2017-06-22T06:29:46Z</time>
      </trkpt>
      <trkpt lat="64.861992029473186" lon="11.54382904060185">
        <ele>3.5</ele>
        <time>2017-06-22T06:29:47Z</time>
      </trkpt>
      <trkpt lat="64.862029999494553" lon="11.544257020577788">
        <ele>3.5</ele>
        <time>2017-06-22T06:29:48Z</time>
      </trkpt>
      <trkpt lat="64.862057995051146" lon="11.544688018038869">
        <ele>3.98</ele>
        <time>2017-06-22T06:29:49Z</time>
      </trkpt>
      <trkpt lat="64.862099988386035" lon="11.545110968872905">
        <ele>3.98</ele>
        <time>2017-06-22T06:29:50Z</time>
      </trkpt>
      <trkpt lat="64.862166037783027" lon="11.545515982434154">
        <ele>3.98</ele>
        <time>2017-06-22T06:29:51Z</time>
      </trkpt>
      <trkpt lat="64.862617990002036" lon="11.547497967258096">
        <ele>4.46</ele>
        <time>2017-06-22T06:29:56Z</time>
      </trkpt>
      <trkpt lat="64.862739024683833" lon="11.547843972221017">
        <ele>4.46</ele>
        <time>2017-06-22T06:29:57Z</time>
      </trkpt>
      <trkpt lat="64.863379988819361" lon="11.549559999257326">
        <ele>2.54</ele>
        <time>2017-06-22T06:30:02Z</time>
      </trkpt>
      <trkpt lat="64.863476967439055" lon="11.549961995333433">
        <ele>2.54</ele>
        <time>2017-06-22T06:30:03Z</time>
      </trkpt>
      <trkpt lat="64.863557014614344" lon="11.550381006672978">
        <ele>2.06</ele>
        <time>2017-06-22T06:30:04Z</time>
      </trkpt>
      <trkpt lat="64.864217005670071" lon="11.55547603033483">
        <ele>2.54</ele>
        <time>2017-06-22T06:30:16Z</time>
      </trkpt>
      <trkpt lat="64.864422027021646" lon="11.558930967003107">
        <ele>2.06</ele>
        <time>2017-06-22T06:30:24Z</time>
      </trkpt>
      <trkpt lat="64.864405011758208" lon="11.559406975284219">
        <ele>2.06</ele>
        <time>2017-06-22T06:30:25Z</time>
      </trkpt>
      <trkpt lat="64.864079039543867" lon="11.563876960426569">
        <ele>3.02</ele>
        <time>2017-06-22T06:30:35Z</time>
      </trkpt>
      <trkpt lat="64.864050960168242" lon="11.564655974507332">
        <ele>3.02</ele>
        <time>2017-06-22T06:30:37Z</time>
      </trkpt>
      <trkpt lat="64.86406403593719" lon="11.565029975026846">
        <ele>3.02</ele>
        <time>2017-06-22T06:30:38Z</time>
      </trkpt>
      <trkpt lat="64.864093959331512" lon="11.565397018566728">
        <ele>3.5</ele>
        <time>2017-06-22T06:30:39Z</time>
      </trkpt>
      <trkpt lat="64.864139975979924" lon="11.565761966630816">
        <ele>3.5</ele>
        <time>2017-06-22T06:30:40Z</time>
      </trkpt>
      <trkpt lat="64.864199990406632" lon="11.566133033484221">
        <ele>3.5</ele>
        <time>2017-06-22T06:30:41Z</time>
      </trkpt>
      <trkpt lat="64.864270985126495" lon="11.56649999320507">
        <ele>3.02</ele>
        <time>2017-06-22T06:30:42Z</time>
      </trkpt>
      <trkpt lat="64.865555008873343" lon="11.572822965681553">
        <ele>8.789999999999999</ele>
        <time>2017-06-22T06:30:58Z</time>
      </trkpt>
      <trkpt lat="64.866676004603505" lon="11.578871011734009">
        <ele>17.440000000000001</ele>
        <time>2017-06-22T06:31:12Z</time>
      </trkpt>
      <trkpt lat="64.867038019001484" lon="11.582414964213967">
        <ele>24.170000000000002</ele>
        <time>2017-06-22T06:31:21Z</time>
      </trkpt>
      <trkpt lat="64.867531964555383" lon="11.585847018286586">
        <ele>32.82</ele>
        <time>2017-06-22T06:31:33Z</time>
      </trkpt>
      <trkpt lat="64.867596002295613" lon="11.588833993300796">
        <ele>37.149999999999999</ele>
        <time>2017-06-22T06:31:42Z</time>
      </trkpt>
      <trkpt lat="64.867243962362409" lon="11.591599015519023">
        <ele>38.109999999999999</ele>
        <time>2017-06-22T06:31:50Z</time>
      </trkpt>
      <trkpt lat="64.866628982126713" lon="11.59475103020668">
        <ele>44.359999999999999</ele>
        <time>2017-06-22T06:32:01Z</time>
      </trkpt>
      <trkpt lat="64.866549018770456" lon="11.595003996044397">
        <ele>44.840000000000003</ele>
        <time>2017-06-22T06:32:02Z</time>
      </trkpt>
      <trkpt lat="64.866455979645252" lon="11.595230977982283">
        <ele>45.32</ele>
        <time>2017-06-22T06:32:03Z</time>
      </trkpt>
      <trkpt lat="64.866349026560783" lon="11.595448991283774">
        <ele>45.799999999999997</ele>
        <time>2017-06-22T06:32:04Z</time>
      </trkpt>
      <trkpt lat="64.866239978000522" lon="11.595661975443363">
        <ele>46.759999999999998</ele>
        <time>2017-06-22T06:32:05Z</time>
      </trkpt>
      <trkpt lat="64.865121999755502" lon="11.598004968836904">
        <ele>54.450000000000003</ele>
        <time>2017-06-22T06:32:16Z</time>
      </trkpt>
      <trkpt lat="64.865057040005922" lon="11.598299006000161">
        <ele>55.409999999999997</ele>
        <time>2017-06-22T06:32:17Z</time>
      </trkpt>
      <trkpt lat="64.864999037235975" lon="11.598602011799812">
        <ele>55.890000000000001</ele>
        <time>2017-06-22T06:32:18Z</time>
      </trkpt>
      <trkpt lat="64.864958971738815" lon="11.598921027034521">
        <ele>56.859999999999999</ele>
        <time>2017-06-22T06:32:19Z</time>
      </trkpt>
      <trkpt lat="64.864931982010603" lon="11.599251022562385">
        <ele>57.82</ele>
        <time>2017-06-22T06:32:20Z</time>
      </trkpt>
      <trkpt lat="64.864923013374209" lon="11.5995869692415">
        <ele>58.780000000000001</ele>
        <time>2017-06-22T06:32:21Z</time>
      </trkpt>
      <trkpt lat="64.864929970353842" lon="11.599919982254505">
        <ele>59.740000000000002</ele>
        <time>2017-06-22T06:32:22Z</time>
      </trkpt>
      <trkpt lat="64.86494698561728" lon="11.600255006924272">
        <ele>60.700000000000003</ele>
        <time>2017-06-22T06:32:23Z</time>
      </trkpt>
      <trkpt lat="64.864973975345492" lon="11.600583996623755">
        <ele>61.18</ele>
        <time>2017-06-22T06:32:24Z</time>
      </trkpt>
      <trkpt lat="64.865224007517099" lon="11.602418962866068">
        <ele>64.549999999999997</ele>
        <time>2017-06-22T06:32:30Z</time>
      </trkpt>
      <trkpt lat="64.865296008065343" lon="11.602689027786255">
        <ele>65.030000000000001</ele>
        <time>2017-06-22T06:32:31Z</time>
      </trkpt>
      <trkpt lat="64.865375971421599" lon="11.602946016937494">
        <ele>65.030000000000001</ele>
        <time>2017-06-22T06:32:32Z</time>
      </trkpt>
      <trkpt lat="64.865463981404901" lon="11.603185990825295">
        <ele>65.510000000000005</ele>
        <time>2017-06-22T06:32:33Z</time>
      </trkpt>
      <trkpt lat="64.865562971681356" lon="11.603412972763181">
        <ele>65.510000000000005</ele>
        <time>2017-06-22T06:32:34Z</time>
      </trkpt>
      <trkpt lat="64.865673026069999" lon="11.603622017428279">
        <ele>65.989999999999995</ele>
        <time>2017-06-22T06:32:35Z</time>
      </trkpt>
      <trkpt lat="64.865789031609893" lon="11.603799965232611">
        <ele>65.989999999999995</ele>
        <time>2017-06-22T06:32:36Z</time>
      </trkpt>
      <trkpt lat="64.8659129999578" lon="11.603950001299381">
        <ele>66.469999999999999</ele>
        <time>2017-06-22T06:32:37Z</time>
      </trkpt>
      <trkpt lat="64.866045014932752" lon="11.604069024324417">
        <ele>66.950000000000003</ele>
        <time>2017-06-22T06:32:38Z</time>
      </trkpt>
      <trkpt lat="64.866179041564465" lon="11.604175977408886">
        <ele>67.430000000000007</ele>
        <time>2017-06-22T06:32:39Z</time>
      </trkpt>
      <trkpt lat="64.867044975981116" lon="11.604782994836569">
        <ele>73.200000000000003</ele>
        <time>2017-06-22T06:32:47Z</time>
      </trkpt>
      <trkpt lat="64.867140026763082" lon="11.604856001213193">
        <ele>74.640000000000001</ele>
        <time>2017-06-22T06:32:49Z</time>
      </trkpt>
      <trkpt lat="64.867189982905984" lon="11.604844015091658">
        <ele>75.120000000000005</ele>
        <time>2017-06-22T06:32:50Z</time>
      </trkpt>
      <trkpt lat="64.867240022867918" lon="11.604808978736401">
        <ele>75.599999999999994</ele>
        <time>2017-06-22T06:32:51Z</time>
      </trkpt>
      <trkpt lat="64.867330966517329" lon="11.604795986786485">
        <ele>75.599999999999994</ele>
        <time>2017-06-22T06:32:53Z</time>
      </trkpt>
      <trkpt lat="64.867366002872586" lon="11.604842003434896">
        <ele>76.079999999999998</ele>
        <time>2017-06-22T06:32:54Z</time>
      </trkpt>
      <trkpt lat="64.867390980944037" lon="11.604881985113025">
        <ele>76.079999999999998</ele>
        <time>2017-06-22T06:32:55Z</time>
      </trkpt>
      <trkpt lat="64.867465998977423" lon="11.605067979544401">
        <ele>74.159999999999997</ele>
        <time>2017-06-22T06:33:05Z</time>
      </trkpt>
      <trkpt lat="64.867470022290945" lon="11.605162024497986">
        <ele>73.200000000000003</ele>
        <time>2017-06-22T06:33:38Z</time>
      </trkpt>
      <trkpt lat="64.8674619756639" lon="11.605109972879291">
        <ele>73.200000000000003</ele>
        <time>2017-06-22T06:34:04Z</time>
      </trkpt>
      <trkpt lat="64.867479996755719" lon="11.605037972331047">
        <ele>72.719999999999999</ele>
        <time>2017-06-22T06:34:37Z</time>
      </trkpt>
      <trkpt lat="64.867500029504299" lon="11.60545002669096">
        <ele>57.82</ele>
        <time>2017-06-22T06:57:55Z</time>
      </trkpt>
      <trkpt lat="64.867558032274246" lon="11.605390012264252">
        <ele>72.719999999999999</ele>
        <time>2017-06-22T06:59:36Z</time>
      </trkpt>
      <trkpt lat="64.867559038102627" lon="11.605391018092632">
        <ele>73.200000000000003</ele>
        <time>2017-06-22T06:59:52Z</time>
      </trkpt>
      <trkpt lat="64.867502963170409" lon="11.605567960068583">
        <ele>75.120000000000005</ele>
        <time>2017-06-22T06:59:56Z</time>
      </trkpt>
      <trkpt lat="64.867471028119326" lon="11.60564498975873">
        <ele>76.079999999999998</ele>
        <time>2017-06-22T06:59:58Z</time>
      </trkpt>
      <trkpt lat="64.867470022290945" lon="11.605793014168739">
        <ele>76.560000000000002</ele>
        <time>2017-06-22T07:00:00Z</time>
      </trkpt>
      <trkpt lat="64.867486031726003" lon="11.605910025537014">
        <ele>77.040000000000006</ele>
        <time>2017-06-22T07:00:01Z</time>
      </trkpt>
      <trkpt lat="64.867635983973742" lon="11.606728015467525">
        <ele>79.930000000000007</ele>
        <time>2017-06-22T07:00:06Z</time>
      </trkpt>
      <trkpt lat="64.867852991446853" lon="11.608984004706144">
        <ele>86.180000000000007</ele>
        <time>2017-06-22T07:00:16Z</time>
      </trkpt>
      <trkpt lat="64.867894984781742" lon="11.609202018007636">
        <ele>86.659999999999997</ele>
        <time>2017-06-22T07:00:17Z</time>
      </trkpt>
      <trkpt lat="64.867947036400437" lon="11.609416007995605">
        <ele>87.140000000000001</ele>
        <time>2017-06-22T07:00:18Z</time>
      </trkpt>
      <trkpt lat="64.868005961179733" lon="11.609621029347181">
        <ele>87.620000000000005</ele>
        <time>2017-06-22T07:00:19Z</time>
      </trkpt>
      <trkpt lat="64.868077039718628" lon="11.609821021556854">
        <ele>88.099999999999994</ele>
        <time>2017-06-22T07:00:20Z</time>
      </trkpt>
      <trkpt lat="64.868151973932981" lon="11.610007015988231">
        <ele>89.060000000000002</ele>
        <time>2017-06-22T07:00:21Z</time>
      </trkpt>
      <trkpt lat="64.868234032765031" lon="11.610185969620943">
        <ele>89.540000000000006</ele>
        <time>2017-06-22T07:00:22Z</time>
      </trkpt>
      <trkpt lat="64.868327993899584" lon="11.610362995415926">
        <ele>90.019999999999996</ele>
        <time>2017-06-22T07:00:23Z</time>
      </trkpt>
      <trkpt lat="64.869400961324573" lon="11.612249007448554">
        <ele>96.269999999999996</ele>
        <time>2017-06-22T07:00:33Z</time>
      </trkpt>
      <trkpt lat="64.869917035102844" lon="11.614164020866156">
        <ele>101.56</ele>
        <time>2017-06-22T07:00:40Z</time>
      </trkpt>
      <trkpt lat="64.87038298510015" lon="11.615903014317155">
        <ele>103</ele>
        <time>2017-06-22T07:00:46Z</time>
      </trkpt>
      <trkpt lat="64.870496978983283" lon="11.616167966276407">
        <ele>103</ele>
        <time>2017-06-22T07:00:47Z</time>
      </trkpt>
      <trkpt lat="64.871570030227304" lon="11.618789993226528">
        <ele>98.670000000000002</ele>
        <time>2017-06-22T07:00:56Z</time>
      </trkpt>
      <trkpt lat="64.871652005240321" lon="11.619171034544706">
        <ele>97.709999999999994</ele>
        <time>2017-06-22T07:00:57Z</time>
      </trkpt>
      <trkpt lat="64.871715037152171" lon="11.619569007307291">
        <ele>97.709999999999994</ele>
        <time>2017-06-22T07:00:58Z</time>
      </trkpt>
      <trkpt lat="64.871760969981551" lon="11.619986006990075">
        <ele>97.709999999999994</ele>
        <time>2017-06-22T07:00:59Z</time>
      </trkpt>
      <trkpt lat="64.871787959709764" lon="11.620415998622775">
        <ele>97.230000000000004</ele>
        <time>2017-06-22T07:01:00Z</time>
      </trkpt>
      <trkpt lat="64.871795000508428" lon="11.62085403688252">
        <ele>97.230000000000004</ele>
        <time>2017-06-22T07:01:01Z</time>
      </trkpt>
      <trkpt lat="64.871786031872034" lon="11.621295008808374">
        <ele>96.75</ele>
        <time>2017-06-22T07:01:02Z</time>
      </trkpt>
      <trkpt lat="64.871755018830299" lon="11.621727012097836">
        <ele>96.269999999999996</ele>
        <time>2017-06-22T07:01:03Z</time>
      </trkpt>
      <trkpt lat="64.87171302549541" lon="11.622149040922523">
        <ele>96.269999999999996</ele>
        <time>2017-06-22T07:01:04Z</time>
      </trkpt>
      <trkpt lat="64.87164999358356" lon="11.623002989217639">
        <ele>95.790000000000006</ele>
        <time>2017-06-22T07:01:06Z</time>
      </trkpt>
      <trkpt lat="64.871645970270038" lon="11.623429963365197">
        <ele>95.790000000000006</ele>
        <time>2017-06-22T07:01:07Z</time>
      </trkpt>
      <trkpt lat="64.871671032160521" lon="11.623839000239968">
        <ele>96.269999999999996</ele>
        <time>2017-06-22T07:01:08Z</time>
      </trkpt>
      <trkpt lat="64.871714031323791" lon="11.624230016022921">
        <ele>96.269999999999996</ele>
        <time>2017-06-22T07:01:09Z</time>
      </trkpt>
      <trkpt lat="64.871790977194905" lon="11.624608039855957">
        <ele>96.75</ele>
        <time>2017-06-22T07:01:10Z</time>
      </trkpt>
      <trkpt lat="64.871877981349826" lon="11.624956978484988">
        <ele>96.75</ele>
        <time>2017-06-22T07:01:11Z</time>
      </trkpt>
      <trkpt lat="64.871977977454662" lon="11.625294014811516">
        <ele>97.709999999999994</ele>
        <time>2017-06-22T07:01:12Z</time>
      </trkpt>
      <trkpt lat="64.872087026014924" lon="11.625617975369096">
        <ele>98.189999999999998</ele>
        <time>2017-06-22T07:01:13Z</time>
      </trkpt>
      <trkpt lat="64.874131958931684" lon="11.630763961002231">
        <ele>114.53</ele>
        <time>2017-06-22T07:01:30Z</time>
      </trkpt>
      <trkpt lat="64.87577497959137" lon="11.63417799398303">
        <ele>122.70999999999999</ele>
        <time>2017-06-22T07:01:41Z</time>
      </trkpt>
      <trkpt lat="64.876475036144257" lon="11.636805972084403">
        <ele>120.3</ele>
        <time>2017-06-22T07:01:47Z</time>
      </trkpt>
      <trkpt lat="64.87682799808681" lon="11.638084966689348">
        <ele>116.94</ele>
        <time>2017-06-22T07:01:50Z</time>
      </trkpt>
      <trkpt lat="64.876980967819691" lon="11.638445975258946">
        <ele>115.5</ele>
        <time>2017-06-22T07:01:51Z</time>
      </trkpt>
      <trkpt lat="64.877150030806661" lon="11.638770019635558">
        <ele>114.05</ele>
        <time>2017-06-22T07:01:52Z</time>
      </trkpt>
      <trkpt lat="64.877324961125851" lon="11.639064978808165">
        <ele>112.61</ele>
        <time>2017-06-22T07:01:53Z</time>
      </trkpt>
      <trkpt lat="64.877499975264072" lon="11.639331020414829">
        <ele>111.65000000000001</ele>
        <time>2017-06-22T07:01:54Z</time>
      </trkpt>
      <trkpt lat="64.878141023218632" lon="11.640528962016106">
        <ele>105.40000000000001</ele>
        <time>2017-06-22T07:01:58Z</time>
      </trkpt>
      <trkpt lat="64.878272032365203" lon="11.64090103469789">
        <ele>103.95999999999999</ele>
        <time>2017-06-22T07:01:59Z</time>
      </trkpt>
      <trkpt lat="64.878377979621291" lon="11.641316022723913">
        <ele>102.52</ele>
        <time>2017-06-22T07:02:00Z</time>
      </trkpt>
      <trkpt lat="64.878452997654676" lon="11.641744002699852">
        <ele>100.59999999999999</ele>
        <time>2017-06-22T07:02:01Z</time>
      </trkpt>
      <trkpt lat="64.878499014303088" lon="11.642183968797326">
        <ele>99.629999999999995</ele>
        <time>2017-06-22T07:02:02Z</time>
      </trkpt>
      <trkpt lat="64.878514017909765" lon="11.642642039805651">
        <ele>98.189999999999998</ele>
        <time>2017-06-22T07:02:03Z</time>
      </trkpt>
      <trkpt lat="64.878500020131469" lon="11.64311301894486">
        <ele>96.75</ele>
        <time>2017-06-22T07:02:04Z</time>
      </trkpt>
      <trkpt lat="64.878458026796579" lon="11.643583998084068">
        <ele>95.790000000000006</ele>
        <time>2017-06-22T07:02:05Z</time>
      </trkpt>
      <trkpt lat="64.878390971571207" lon="11.644048020243645">
        <ele>94.349999999999994</ele>
        <time>2017-06-22T07:02:06Z</time>
      </trkpt>
      <trkpt lat="64.878299022093415" lon="11.644487986341119">
        <ele>93.390000000000001</ele>
        <time>2017-06-22T07:02:07Z</time>
      </trkpt>
      <trkpt lat="64.878179999068379" lon="11.644898029044271">
        <ele>91.939999999999998</ele>
        <time>2017-06-22T07:02:08Z</time>
      </trkpt>
      <trkpt lat="64.878030968829989" lon="11.645264988765121">
        <ele>91.459999999999994</ele>
        <time>2017-06-22T07:02:09Z</time>
      </trkpt>
      <trkpt lat="64.877862995490432" lon="11.645589033141732">
        <ele>90.5</ele>
        <time>2017-06-22T07:02:10Z</time>
      </trkpt>
      <trkpt lat="64.877683036029339" lon="11.645878963172436">
        <ele>90.5</ele>
        <time>2017-06-22T07:02:11Z</time>
      </trkpt>
      <trkpt lat="64.877495029941201" lon="11.646146010607481">
        <ele>90.019999999999996</ele>
        <time>2017-06-22T07:02:12Z</time>
      </trkpt>
      <trkpt lat="64.876959007233381" lon="11.646943967789412">
        <ele>85.689999999999998</ele>
        <time>2017-06-22T07:02:15Z</time>
      </trkpt>
      <trkpt lat="64.876808971166611" lon="11.64728200994432">
        <ele>84.25</ele>
        <time>2017-06-22T07:02:16Z</time>
      </trkpt>
      <trkpt lat="64.876680979505181" lon="11.647671014070511">
        <ele>82.329999999999998</ele>
        <time>2017-06-22T07:02:17Z</time>
      </trkpt>
      <trkpt lat="64.876579977571964" lon="11.648101005703211">
        <ele>80.890000000000001</ele>
        <time>2017-06-22T07:02:18Z</time>
      </trkpt>
      <trkpt lat="64.876512000337243" lon="11.648562010377645">
        <ele>79.450000000000003</ele>
        <time>2017-06-22T07:02:19Z</time>
      </trkpt>
      <trkpt lat="64.876478975638747" lon="11.649037012830377">
        <ele>77.519999999999996</ele>
        <time>2017-06-22T07:02:20Z</time>
      </trkpt>
      <trkpt lat="64.876478975638747" lon="11.649521989747882">
        <ele>76.079999999999998</ele>
        <time>2017-06-22T07:02:21Z</time>
      </trkpt>
      <trkpt lat="64.876499008387327" lon="11.650019958615303">
        <ele>75.120000000000005</ele>
        <time>2017-06-22T07:02:22Z</time>
      </trkpt>
      <trkpt lat="64.876536978408694" lon="11.650521028786898">
        <ele>73.680000000000007</ele>
        <time>2017-06-22T07:02:23Z</time>
      </trkpt>
      <trkpt lat="64.876585006713867" lon="11.651028972119093">
        <ele>72.239999999999995</ele>
        <time>2017-06-22T07:02:24Z</time>
      </trkpt>
      <trkpt lat="64.87721499055624" lon="11.657518995925784">
        <ele>54.93</ele>
        <time>2017-06-22T07:02:37Z</time>
      </trkpt>
      <trkpt lat="64.877838017418981" lon="11.660018982365727">
        <ele>47.719999999999999</ele>
        <time>2017-06-22T07:02:43Z</time>
      </trkpt>
      <trkpt lat="64.879046017304063" lon="11.662122001871467">
        <ele>38.109999999999999</ele>
        <time>2017-06-22T07:02:50Z</time>
      </trkpt>
      <trkpt lat="64.881826965138316" lon="11.66574097238481">
        <ele>37.630000000000003</ele>
        <time>2017-06-22T07:03:05Z</time>
      </trkpt>
      <trkpt lat="64.884038027375937" lon="11.669216025620699">
        <ele>30.899999999999999</ele>
        <time>2017-06-22T07:03:17Z</time>
      </trkpt>
      <trkpt lat="64.885425986722112" lon="11.670787967741489">
        <ele>30.420000000000002</ele>
        <time>2017-06-22T07:03:24Z</time>
      </trkpt>
      <trkpt lat="64.887821031734347" lon="11.673374036327004">
        <ele>21.289999999999999</ele>
        <time>2017-06-22T07:03:36Z</time>
      </trkpt>
      <trkpt lat="64.888441963121295" lon="11.673820037394762">
        <ele>17.440000000000001</ele>
        <time>2017-06-22T07:03:39Z</time>
      </trkpt>
      <trkpt lat="64.888657964766026" lon="11.673880973830819">
        <ele>16.48</ele>
        <time>2017-06-22T07:03:40Z</time>
      </trkpt>
      <trkpt lat="64.888875978067517" lon="11.673880973830819">
        <ele>15.52</ele>
        <time>2017-06-22T07:03:41Z</time>
      </trkpt>
      <trkpt lat="64.889751970767975" lon="11.673836968839169">
        <ele>11.19</ele>
        <time>2017-06-22T07:03:45Z</time>
      </trkpt>
      <trkpt lat="64.889970989897847" lon="11.673897989094257">
        <ele>10.23</ele>
        <time>2017-06-22T07:03:46Z</time>
      </trkpt>
      <trkpt lat="64.890185985714197" lon="11.673997985199094">
        <ele>9.75</ele>
        <time>2017-06-22T07:03:47Z</time>
      </trkpt>
      <trkpt lat="64.890396958217025" lon="11.674133017659187">
        <ele>8.789999999999999</ele>
        <time>2017-06-22T07:03:48Z</time>
      </trkpt>
      <trkpt lat="64.890607008710504" lon="11.674304008483887">
        <ele>8.310000000000001</ele>
        <time>2017-06-22T07:03:49Z</time>
      </trkpt>
      <trkpt lat="64.890807000920177" lon="11.674495032057166">
        <ele>7.83</ele>
        <time>2017-06-22T07:03:50Z</time>
      </trkpt>
      <trkpt lat="64.893612004816532" lon="11.677668001502752">
        <ele>2.06</ele>
        <time>2017-06-22T07:04:04Z</time>
      </trkpt>
      <trkpt lat="64.894822016358376" lon="11.679950980469584">
        <ele>1.1</ele>
        <time>2017-06-22T07:04:11Z</time>
      </trkpt>
      <trkpt lat="64.895847961306572" lon="11.683651003986597">
        <ele>3.5</ele>
        <time>2017-06-22T07:04:19Z</time>
      </trkpt>
      <trkpt lat="64.896497977897525" lon="11.687208032235503">
        <ele>6.39</ele>
        <time>2017-06-22T07:04:26Z</time>
      </trkpt>
      <trkpt lat="64.897085968405008" lon="11.692851986736059">
        <ele>16</ele>
        <time>2017-06-22T07:04:37Z</time>
      </trkpt>
      <trkpt lat="64.897871017456055" lon="11.698035020381212">
        <ele>23.210000000000001</ele>
        <time>2017-06-22T07:04:47Z</time>
      </trkpt>
      <trkpt lat="64.898696970194578" lon="11.703129960224032">
        <ele>28.5</ele>
        <time>2017-06-22T07:04:57Z</time>
      </trkpt>
      <trkpt lat="64.899793993681669" lon="11.706064967438579">
        <ele>29.460000000000001</ele>
        <time>2017-06-22T07:05:04Z</time>
      </trkpt>
      <trkpt lat="64.901045998558402" lon="11.710055004805326">
        <ele>23.690000000000001</ele>
        <time>2017-06-22T07:05:13Z</time>
      </trkpt>
      <trkpt lat="64.902453990653157" lon="11.71766803599894">
        <ele>26.09</ele>
        <time>2017-06-22T07:05:28Z</time>
      </trkpt>
      <trkpt lat="64.90304097533226" lon="11.721689002588391">
        <ele>16.960000000000001</ele>
        <time>2017-06-22T07:05:36Z</time>
      </trkpt>
      <trkpt lat="64.903225963935256" lon="11.722529036924243">
        <ele>15.52</ele>
        <time>2017-06-22T07:05:38Z</time>
      </trkpt>
      <trkpt lat="64.903345992788672" lon="11.722908988595009">
        <ele>15.039999999999999</ele>
        <time>2017-06-22T07:05:39Z</time>
      </trkpt>
      <trkpt lat="64.903483036905527" lon="11.723272008821368">
        <ele>14.56</ele>
        <time>2017-06-22T07:05:40Z</time>
      </trkpt>
      <trkpt lat="64.903630977496505" lon="11.723603010177612">
        <ele>14.08</ele>
        <time>2017-06-22T07:05:41Z</time>
      </trkpt>
      <trkpt lat="64.903783025220037" lon="11.723929988220334">
        <ele>14.08</ele>
        <time>2017-06-22T07:05:42Z</time>
      </trkpt>
      <trkpt lat="64.90585302002728" lon="11.728798029944301">
        <ele>25.129999999999999</ele>
        <time>2017-06-22T07:05:56Z</time>
      </trkpt>
      <trkpt lat="64.907248020172119" lon="11.734249033033848">
        <ele>18.879999999999999</ele>
        <time>2017-06-22T07:06:09Z</time>
      </trkpt>
      <trkpt lat="64.907668037340045" lon="11.735631041228771">
        <ele>16</ele>
        <time>2017-06-22T07:06:15Z</time>
      </trkpt>
      <trkpt lat="64.907721010968089" lon="11.735678985714912">
        <ele>15.52</ele>
        <time>2017-06-22T07:06:16Z</time>
      </trkpt>
      <trkpt lat="64.907778007909656" lon="11.735645961016417">
        <ele>15.039999999999999</ele>
        <time>2017-06-22T07:06:17Z</time>
      </trkpt>
      <trkpt lat="64.907841039821506" lon="11.735561974346638">
        <ele>15.52</ele>
        <time>2017-06-22T07:06:18Z</time>
      </trkpt>
      <trkpt lat="64.907907005399466" lon="11.735426019877195">
        <ele>15.52</ele>
        <time>2017-06-22T07:06:19Z</time>
      </trkpt>
      <trkpt lat="64.907973976805806" lon="11.735248994082212">
        <ele>16</ele>
        <time>2017-06-22T07:06:20Z</time>
      </trkpt>
      <trkpt lat="64.908037008717656" lon="11.73502997495234">
        <ele>16.48</ele>
        <time>2017-06-22T07:06:21Z</time>
      </trkpt>
      <trkpt lat="64.908094005659223" lon="11.734762005507946">
        <ele>16.48</ele>
        <time>2017-06-22T07:06:22Z</time>
      </trkpt>
      <trkpt lat="64.90813298150897" lon="11.734466962516308">
        <ele>16.48</ele>
        <time>2017-06-22T07:06:23Z</time>
      </trkpt>
      <trkpt lat="64.908151002600789" lon="11.734151970595121">
        <ele>16.48</ele>
        <time>2017-06-22T07:06:24Z</time>
      </trkpt>
      <trkpt lat="64.90815200842917" lon="11.733820969238877">
        <ele>16.960000000000001</ele>
        <time>2017-06-22T07:06:25Z</time>
      </trkpt>
      <trkpt lat="64.908137004822493" lon="11.733488040044904">
        <ele>16.960000000000001</ele>
        <time>2017-06-22T07:06:26Z</time>
      </trkpt>
      <trkpt lat="64.908112026751041" lon="11.733163995668292">
        <ele>16.48</ele>
        <time>2017-06-22T07:06:27Z</time>
      </trkpt>
      <trkpt lat="64.908053018152714" lon="11.732176020741463">
        <ele>14.56</ele>
        <time>2017-06-22T07:06:30Z</time>
      </trkpt>
      <trkpt lat="64.908061986789107" lon="11.731863040477037">
        <ele>14.08</ele>
        <time>2017-06-22T07:06:31Z</time>
      </trkpt>
      <trkpt lat="64.908097023144364" lon="11.731572020798922">
        <ele>13.119999999999999</ele>
        <time>2017-06-22T07:06:32Z</time>
      </trkpt>
      <trkpt lat="64.908162988722324" lon="11.73131100833416">
        <ele>12.15</ele>
        <time>2017-06-22T07:06:33Z</time>
      </trkpt>
      <trkpt lat="64.90825803950429" lon="11.731078997254372">
        <ele>11.19</ele>
        <time>2017-06-22T07:06:34Z</time>
      </trkpt>
      <trkpt lat="64.908373039215803" lon="11.730901971459389">
        <ele>10.23</ele>
        <time>2017-06-22T07:06:35Z</time>
      </trkpt>
      <trkpt lat="64.908502958714962" lon="11.73077498562634">
        <ele>9.27</ele>
        <time>2017-06-22T07:06:36Z</time>
      </trkpt>
      <trkpt lat="64.908631034195423" lon="11.730644982308149">
        <ele>7.83</ele>
        <time>2017-06-22T07:06:37Z</time>
      </trkpt>
      <trkpt lat="64.908747039735317" lon="11.730484971776605">
        <ele>6.87</ele>
        <time>2017-06-22T07:06:38Z</time>
      </trkpt>
      <trkpt lat="64.90883999504149" lon="11.730266958475113">
        <ele>5.42</ele>
        <time>2017-06-22T07:06:39Z</time>
      </trkpt>
      <trkpt lat="64.908909983932972" lon="11.730017010122538">
        <ele>4.46</ele>
        <time>2017-06-22T07:06:40Z</time>
      </trkpt>
      <trkpt lat="64.908958012238145" lon="11.729740994051099">
        <ele>3.5</ele>
        <time>2017-06-22T07:06:41Z</time>
      </trkpt>
      <trkpt lat="64.908973015844822" lon="11.729447040706873">
        <ele>1.58</ele>
        <time>2017-06-22T07:06:42Z</time>
      </trkpt>
      <trkpt lat="64.908959018066525" lon="11.729130037128925">
        <ele>-0.34</ele>
        <time>2017-06-22T07:06:43Z</time>
      </trkpt>
      <trkpt lat="64.908919958397746" lon="11.728806998580694">
        <ele>-2.27</ele>
        <time>2017-06-22T07:06:44Z</time>
      </trkpt>
      <trkpt lat="64.908854998648167" lon="11.72849502414465">
        <ele>-3.23</ele>
        <time>2017-06-22T07:06:45Z</time>
      </trkpt>
      <trkpt lat="64.908778974786401" lon="11.72817500308156">
        <ele>-4.19</ele>
        <time>2017-06-22T07:06:46Z</time>
      </trkpt>
      <trkpt lat="64.908219985663891" lon="11.724834982305765">
        <ele>-6.59</ele>
        <time>2017-06-22T07:06:55Z</time>
      </trkpt>
      <trkpt lat="64.907685974612832" lon="11.71927903778851">
        <ele>0.14</ele>
        <time>2017-06-22T07:07:09Z</time>
      </trkpt>
      <trkpt lat="64.907729979604483" lon="11.718846028670669">
        <ele>-1.3</ele>
        <time>2017-06-22T07:07:10Z</time>
      </trkpt>
      <trkpt lat="64.907870963215828" lon="11.717514982447028">
        <ele>-4.19</ele>
        <time>2017-06-22T07:07:13Z</time>
      </trkpt>
      <trkpt lat="64.907892001792789" lon="11.717058001086116">
        <ele>-4.67</ele>
        <time>2017-06-22T07:07:14Z</time>
      </trkpt>
      <trkpt lat="64.907900970429182" lon="11.716586016118526">
        <ele>-4.67</ele>
        <time>2017-06-22T07:07:15Z</time>
      </trkpt>
      <trkpt lat="64.907898036763072" lon="11.712693041190505">
        <ele>-2.27</ele>
        <time>2017-06-22T07:07:23Z</time>
      </trkpt>
      <trkpt lat="64.907855037599802" lon="11.712224995717406">
        <ele>-1.3</ele>
        <time>2017-06-22T07:07:24Z</time>
      </trkpt>
      <trkpt lat="64.907784964889288" lon="11.711788969114423">
        <ele>-0.34</ele>
        <time>2017-06-22T07:07:25Z</time>
      </trkpt>
      <trkpt lat="64.907688992097974" lon="11.71137498691678">
        <ele>0.62</ele>
        <time>2017-06-22T07:07:26Z</time>
      </trkpt>
      <trkpt lat="64.907581033185124" lon="11.710970979183912">
        <ele>1.58</ele>
        <time>2017-06-22T07:07:27Z</time>
      </trkpt>
      <trkpt lat="64.907135032117367" lon="11.708812974393368">
        <ele>3.02</ele>
        <time>2017-06-22T07:07:32Z</time>
      </trkpt>
      <trkpt lat="64.907089015468955" lon="11.708321962505579">
        <ele>3.02</ele>
        <time>2017-06-22T07:07:33Z</time>
      </trkpt>
      <trkpt lat="64.907060014083982" lon="11.707816030830145">
        <ele>3.5</ele>
        <time>2017-06-22T07:07:34Z</time>
      </trkpt>
      <trkpt lat="64.907050039619207" lon="11.707306997850537">
        <ele>3.98</ele>
        <time>2017-06-22T07:07:35Z</time>
      </trkpt>
      <trkpt lat="64.907052973285317" lon="11.70679897069931">
        <ele>4.94</ele>
        <time>2017-06-22T07:07:36Z</time>
      </trkpt>
      <trkpt lat="64.907323960214853" lon="11.703331964090466">
        <ele>16.48</ele>
        <time>2017-06-22T07:07:43Z</time>
      </trkpt>
      <trkpt lat="64.907537028193474" lon="11.702010976150632">
        <ele>21.77</ele>
        <time>2017-06-22T07:07:46Z</time>
      </trkpt>
      <trkpt lat="64.907631995156407" lon="11.701622977852821">
        <ele>23.210000000000001</ele>
        <time>2017-06-22T07:07:47Z</time>
      </trkpt>
      <trkpt lat="64.908355018123984" lon="11.699583996087313">
        <ele>21.289999999999999</ele>
        <time>2017-06-22T07:07:53Z</time>
      </trkpt>
      <trkpt lat="64.908502036705613" lon="11.69936497695744">
        <ele>20.32</ele>
        <time>2017-06-22T07:07:54Z</time>
      </trkpt>
      <trkpt lat="64.908664980903268" lon="11.699203038588166">
        <ele>18.879999999999999</ele>
        <time>2017-06-22T07:07:55Z</time>
      </trkpt>
      <trkpt lat="64.908837983384728" lon="11.699114022776484">
        <ele>17.920000000000002</ele>
        <time>2017-06-22T07:07:56Z</time>
      </trkpt>
      <trkpt lat="64.909015009179711" lon="11.699117040261626">
        <ele>16</ele>
        <time>2017-06-22T07:07:57Z</time>
      </trkpt>
      <trkpt lat="64.909191029146314" lon="11.699190968647599">
        <ele>14.56</ele>
        <time>2017-06-22T07:07:58Z</time>
      </trkpt>
      <trkpt lat="64.909365959465504" lon="11.699294988065958">
        <ele>13.119999999999999</ele>
        <time>2017-06-22T07:07:59Z</time>
      </trkpt>
      <trkpt lat="64.909709030762315" lon="11.699430020526052">
        <ele>10.710000000000001</ele>
        <time>2017-06-22T07:08:01Z</time>
      </trkpt>
      <trkpt lat="64.909863006323576" lon="11.69942700304091">
        <ele>10.23</ele>
        <time>2017-06-22T07:08:02Z</time>
      </trkpt>
      <trkpt lat="64.910218985751271" lon="11.699400013312697">
        <ele>8.789999999999999</ele>
        <time>2017-06-22T07:08:05Z</time>
      </trkpt>
      <trkpt lat="64.910304984077811" lon="11.699482994154096">
        <ele>8.789999999999999</ele>
        <time>2017-06-22T07:08:06Z</time>
      </trkpt>
      <trkpt lat="64.910377990454435" lon="11.699644010514021">
        <ele>9.27</ele>
        <time>2017-06-22T07:08:07Z</time>
      </trkpt>
      <trkpt lat="64.910436999052763" lon="11.699868980795145">
        <ele>9.27</ele>
        <time>2017-06-22T07:08:08Z</time>
      </trkpt>
      <trkpt lat="64.910493995994329" lon="11.700129993259907">
        <ele>9.27</ele>
        <time>2017-06-22T07:08:09Z</time>
      </trkpt>
      <trkpt lat="64.911085003986955" lon="11.702415989711881">
        <ele>8.310000000000001</ele>
        <time>2017-06-22T07:08:16Z</time>
      </trkpt>
      <trkpt lat="64.912209017202258" lon="11.705735977739096">
        <ele>7.83</ele>
        <time>2017-06-22T07:08:25Z</time>
      </trkpt>
      <trkpt lat="64.914179015904665" lon="11.710445014759898">
        <ele>11.19</ele>
        <time>2017-06-22T07:08:38Z</time>
      </trkpt>
      <trkpt lat="64.916131999343634" lon="11.714433962479234">
        <ele>13.6</ele>
        <time>2017-06-22T07:08:51Z</time>
      </trkpt>
      <trkpt lat="64.916260996833444" lon="11.714651975780725">
        <ele>14.08</ele>
        <time>2017-06-22T07:08:52Z</time>
      </trkpt>
      <trkpt lat="64.916409021243453" lon="11.714821960777044">
        <ele>14.56</ele>
        <time>2017-06-22T07:08:53Z</time>
      </trkpt>
      <trkpt lat="64.916576994583011" lon="11.714952969923615">
        <ele>15.52</ele>
        <time>2017-06-22T07:08:54Z</time>
      </trkpt>
      <trkpt lat="64.917300017550588" lon="11.715560993179679">
        <ele>17.440000000000001</ele>
        <time>2017-06-22T07:08:58Z</time>
      </trkpt>
      <trkpt lat="64.919272027909756" lon="11.71826901845634">
        <ele>15.039999999999999</ele>
        <time>2017-06-22T07:09:09Z</time>
      </trkpt>
      <trkpt lat="64.920307025313377" lon="11.720256032422185">
        <ele>14.56</ele>
        <time>2017-06-22T07:09:15Z</time>
      </trkpt>
      <trkpt lat="64.92104203440249" lon="11.722358968108892">
        <ele>19.84</ele>
        <time>2017-06-22T07:09:21Z</time>
      </trkpt>
      <trkpt lat="64.921183018013835" lon="11.722585028037429">
        <ele>20.809999999999999</ele>
        <time>2017-06-22T07:09:22Z</time>
      </trkpt>
      <trkpt lat="64.921345040202141" lon="11.72276197001338">
        <ele>21.289999999999999</ele>
        <time>2017-06-22T07:09:23Z</time>
      </trkpt>
      <trkpt lat="64.921520976349711" lon="11.722895996645093">
        <ele>21.77</ele>
        <time>2017-06-22T07:09:24Z</time>
      </trkpt>
      <trkpt lat="64.921703031286597" lon="11.723016025498509">
        <ele>21.77</ele>
        <time>2017-06-22T07:09:25Z</time>
      </trkpt>
      <trkpt lat="64.921880979090929" lon="11.723177963867784">
        <ele>20.809999999999999</ele>
        <time>2017-06-22T07:09:26Z</time>
      </trkpt>
      <trkpt lat="64.922049958258867" lon="11.723392037674785">
        <ele>19.84</ele>
        <time>2017-06-22T07:09:27Z</time>
      </trkpt>
      <trkpt lat="64.922208040952682" lon="11.723667969927192">
        <ele>18.879999999999999</ele>
        <time>2017-06-22T07:09:28Z</time>
      </trkpt>
      <trkpt lat="64.922351958230138" lon="11.724005006253719">
        <ele>18.399999999999999</ele>
        <time>2017-06-22T07:09:29Z</time>
      </trkpt>
      <trkpt lat="64.922479027882218" lon="11.724401973187923">
        <ele>17.440000000000001</ele>
        <time>2017-06-22T07:09:30Z</time>
      </trkpt>
      <trkpt lat="64.922597967088223" lon="11.724828025326133">
        <ele>16.960000000000001</ele>
        <time>2017-06-22T07:09:31Z</time>
      </trkpt>
      <trkpt lat="64.923829017207026" lon="11.729744011536241">
        <ele>16.960000000000001</ele>
        <time>2017-06-22T07:09:42Z</time>
      </trkpt>
      <trkpt lat="64.924255991354585" lon="11.732875993475318">
        <ele>22.73</ele>
        <time>2017-06-22T07:09:49Z</time>
      </trkpt>
      <trkpt lat="64.924322962760925" lon="11.73328603617847">
        <ele>24.170000000000002</ele>
        <time>2017-06-22T07:09:50Z</time>
      </trkpt>
      <trkpt lat="64.925417974591255" lon="11.737989960238338">
        <ele>34.740000000000002</ele>
        <time>2017-06-22T07:10:02Z</time>
      </trkpt>
      <trkpt lat="64.925647974014282" lon="11.738623967394233">
        <ele>34.740000000000002</ele>
        <time>2017-06-22T07:10:04Z</time>
      </trkpt>
      <trkpt lat="64.925782000645995" lon="11.738921022042632">
        <ele>34.259999999999998</ele>
        <time>2017-06-22T07:10:05Z</time>
      </trkpt>
      <trkpt lat="64.926203023642302" lon="11.739899022504687">
        <ele>32.340000000000003</ele>
        <time>2017-06-22T07:10:08Z</time>
      </trkpt>
      <trkpt lat="64.926321040838957" lon="11.740290960296988">
        <ele>31.379999999999999</ele>
        <time>2017-06-22T07:10:09Z</time>
      </trkpt>
      <trkpt lat="64.926422964781523" lon="11.740724975243211">
        <ele>30.899999999999999</ele>
        <time>2017-06-22T07:10:10Z</time>
      </trkpt>
      <trkpt lat="64.927142970263958" lon="11.744747031480074">
        <ele>31.379999999999999</ele>
        <time>2017-06-22T07:10:19Z</time>
      </trkpt>
      <trkpt lat="64.92789700627327" lon="11.74738297238946">
        <ele>28.02</ele>
        <time>2017-06-22T07:10:26Z</time>
      </trkpt>
      <trkpt lat="64.928449960425496" lon="11.748704966157675">
        <ele>24.649999999999999</ele>
        <time>2017-06-22T07:10:30Z</time>
      </trkpt>
      <trkpt lat="64.928610976785421" lon="11.748971007764339">
        <ele>24.170000000000002</ele>
        <time>2017-06-22T07:10:31Z</time>
      </trkpt>
      <trkpt lat="64.930078983306885" lon="11.751690013334155">
        <ele>23.690000000000001</ele>
        <time>2017-06-22T07:10:41Z</time>
      </trkpt>
      <trkpt lat="64.930909965187311" lon="11.75395698286593">
        <ele>25.129999999999999</ele>
        <time>2017-06-22T07:10:48Z</time>
      </trkpt>
      <trkpt lat="64.931497033685446" lon="11.755453990772367">
        <ele>26.09</ele>
        <time>2017-06-22T07:10:54Z</time>
      </trkpt>
      <trkpt lat="64.932644013315439" lon="11.757611995562911">
        <ele>28.98</ele>
        <time>2017-06-22T07:11:03Z</time>
      </trkpt>
      <trkpt lat="64.933392014354467" lon="11.760322032496333">
        <ele>34.259999999999998</ele>
        <time>2017-06-22T07:11:11Z</time>
      </trkpt>
      <trkpt lat="64.934217967092991" lon="11.763392994180322">
        <ele>38.590000000000003</ele>
        <time>2017-06-22T07:11:20Z</time>
      </trkpt>
      <trkpt lat="64.934334978461266" lon="11.763639003038406">
        <ele>38.590000000000003</ele>
        <time>2017-06-22T07:11:21Z</time>
      </trkpt>
      <trkpt lat="64.934469005092978" lon="11.763832960277796">
        <ele>39.07</ele>
        <time>2017-06-22T07:11:22Z</time>
      </trkpt>
      <trkpt lat="64.934613006189466" lon="11.763993976637721">
        <ele>39.549999999999997</ele>
        <time>2017-06-22T07:11:23Z</time>
      </trkpt>
      <trkpt lat="64.934753989800811" lon="11.764143006876111">
        <ele>39.549999999999997</ele>
        <time>2017-06-22T07:11:24Z</time>
      </trkpt>
      <trkpt lat="64.934895979240537" lon="11.764319026842713">
        <ele>39.549999999999997</ele>
        <time>2017-06-22T07:11:25Z</time>
      </trkpt>
      <trkpt lat="64.935024976730347" lon="11.764543997123837">
        <ele>39.549999999999997</ele>
        <time>2017-06-22T07:11:26Z</time>
      </trkpt>
      <trkpt lat="64.935143999755383" lon="11.764810960739851">
        <ele>39.549999999999997</ele>
        <time>2017-06-22T07:11:27Z</time>
      </trkpt>
      <trkpt lat="64.935248019173741" lon="11.765124024823308">
        <ele>40.030000000000001</ele>
        <time>2017-06-22T07:11:28Z</time>
      </trkpt>
      <trkpt lat="64.935336029157043" lon="11.765455026179552">
        <ele>40.509999999999998</ele>
        <time>2017-06-22T07:11:29Z</time>
      </trkpt>
      <trkpt lat="64.93552696891129" lon="11.76603002473712">
        <ele>40.509999999999998</ele>
        <time>2017-06-22T07:11:31Z</time>
      </trkpt>
      <trkpt lat="64.935643980279565" lon="11.766256000846624">
        <ele>40.509999999999998</ele>
        <time>2017-06-22T07:11:32Z</time>
      </trkpt>
      <trkpt lat="64.935779012739658" lon="11.766419028863311">
        <ele>40.509999999999998</ele>
        <time>2017-06-22T07:11:33Z</time>
      </trkpt>
      <trkpt lat="64.935930976644158" lon="11.766532016918063">
        <ele>40.990000000000002</ele>
        <time>2017-06-22T07:11:34Z</time>
      </trkpt>
      <trkpt lat="64.936088975518942" lon="11.766595970839262">
        <ele>40.990000000000002</ele>
        <time>2017-06-22T07:11:35Z</time>
      </trkpt>
      <trkpt lat="64.936254015192389" lon="11.766660008579493">
        <ele>40.509999999999998</ele>
        <time>2017-06-22T07:11:36Z</time>
      </trkpt>
      <trkpt lat="64.938651993870735" lon="11.76749300211668">
        <ele>33.299999999999997</ele>
        <time>2017-06-22T07:11:49Z</time>
      </trkpt>
      <trkpt lat="64.941164972260594" lon="11.768230022862554">
        <ele>38.590000000000003</ele>
        <time>2017-06-22T07:12:02Z</time>
      </trkpt>
      <trkpt lat="64.941362030804157" lon="11.768147964030504">
        <ele>37.630000000000003</ele>
        <time>2017-06-22T07:12:03Z</time>
      </trkpt>
      <trkpt lat="64.943156009539962" lon="11.767327962443233">
        <ele>37.630000000000003</ele>
        <time>2017-06-22T07:12:12Z</time>
      </trkpt>
      <trkpt lat="64.943349966779351" lon="11.76738303154707">
        <ele>38.590000000000003</ele>
        <time>2017-06-22T07:12:13Z</time>
      </trkpt>
      <trkpt lat="64.943536967039108" lon="11.767479004338384">
        <ele>40.509999999999998</ele>
        <time>2017-06-22T07:12:14Z</time>
      </trkpt>
      <trkpt lat="64.944826019927859" lon="11.768018966540694">
        <ele>50.609999999999999</ele>
        <time>2017-06-22T07:12:21Z</time>
      </trkpt>
      <trkpt lat="64.945002039894462" lon="11.768003040924668">
        <ele>51.090000000000003</ele>
        <time>2017-06-22T07:12:22Z</time>
      </trkpt>
      <trkpt lat="64.945359025150537" lon="11.767976973205805">
        <ele>50.609999999999999</ele>
        <time>2017-06-22T07:12:24Z</time>
      </trkpt>
      <trkpt lat="64.94553898461163" lon="11.768034975975752">
        <ele>50.130000000000003</ele>
        <time>2017-06-22T07:12:25Z</time>
      </trkpt>
      <trkpt lat="64.945711987093091" lon="11.768163973465562">
        <ele>50.130000000000003</ele>
        <time>2017-06-22T07:12:26Z</time>
      </trkpt>
      <trkpt lat="64.945869985967875" lon="11.768362037837505">
        <ele>50.130000000000003</ele>
        <time>2017-06-22T07:12:27Z</time>
      </trkpt>
      <trkpt lat="64.946013987064362" lon="11.768608968704939">
        <ele>50.609999999999999</ele>
        <time>2017-06-22T07:12:28Z</time>
      </trkpt>
      <trkpt lat="64.946143990382552" lon="11.768907029181719">
        <ele>51.090000000000003</ele>
        <time>2017-06-22T07:12:29Z</time>
      </trkpt>
      <trkpt lat="64.946264019235969" lon="11.769242975860834">
        <ele>51.090000000000003</ele>
        <time>2017-06-22T07:12:30Z</time>
      </trkpt>
      <trkpt lat="64.946378013119102" lon="11.769595015794039">
        <ele>51.57</ele>
        <time>2017-06-22T07:12:31Z</time>
      </trkpt>
      <trkpt lat="64.946656040847301" lon="11.770704025402665">
        <ele>50.609999999999999</ele>
        <time>2017-06-22T07:12:34Z</time>
      </trkpt>
      <trkpt lat="64.9467199947685" lon="11.771109038963914">
        <ele>50.130000000000003</ele>
        <time>2017-06-22T07:12:35Z</time>
      </trkpt>
      <trkpt lat="64.946834994480014" lon="11.771974973380566">
        <ele>49.159999999999997</ele>
        <time>2017-06-22T07:12:37Z</time>
      </trkpt>
      <trkpt lat="64.946925016120076" lon="11.772381998598576">
        <ele>49.159999999999997</ele>
        <time>2017-06-22T07:12:38Z</time>
      </trkpt>
      <trkpt lat="64.947033980861306" lon="11.772764967754483">
        <ele>49.649999999999999</ele>
        <time>2017-06-22T07:12:39Z</time>
      </trkpt>
      <trkpt lat="64.94811499491334" lon="11.776144970208406">
        <ele>57.82</ele>
        <time>2017-06-22T07:12:48Z</time>
      </trkpt>
      <trkpt lat="64.94826402515173" lon="11.776443030685186">
        <ele>56.859999999999999</ele>
        <time>2017-06-22T07:12:49Z</time>
      </trkpt>
      <trkpt lat="64.948434010148048" lon="11.77673002704978">
        <ele>56.369999999999997</ele>
        <time>2017-06-22T07:12:50Z</time>
      </trkpt>
      <trkpt lat="64.950106032192707" lon="11.779189025983214">
        <ele>48.200000000000003</ele>
        <time>2017-06-22T07:12:59Z</time>
      </trkpt>
      <trkpt lat="64.950311975553632" lon="11.779345013201237">
        <ele>48.200000000000003</ele>
        <time>2017-06-22T07:13:00Z</time>
      </trkpt>
      <trkpt lat="64.950524959713221" lon="11.779455989599228">
        <ele>48.200000000000003</ele>
        <time>2017-06-22T07:13:01Z</time>
      </trkpt>
      <trkpt lat="64.951344961300492" lon="11.779987988993526">
        <ele>49.159999999999997</ele>
        <time>2017-06-22T07:13:05Z</time>
      </trkpt>
      <trkpt lat="64.951541014015675" lon="11.780225029215217">
        <ele>49.159999999999997</ele>
        <time>2017-06-22T07:13:06Z</time>
      </trkpt>
      <trkpt lat="64.951731031760573" lon="11.78051202557981">
        <ele>49.159999999999997</ele>
        <time>2017-06-22T07:13:07Z</time>
      </trkpt>
      <trkpt lat="64.953056965023279" lon="11.782801039516926">
        <ele>52.049999999999997</ele>
        <time>2017-06-22T07:13:15Z</time>
      </trkpt>
      <trkpt lat="64.953210018575191" lon="11.783010000362992">
        <ele>52.049999999999997</ele>
        <time>2017-06-22T07:13:16Z</time>
      </trkpt>
      <trkpt lat="64.953363994136453" lon="11.783170010894537">
        <ele>51.57</ele>
        <time>2017-06-22T07:13:17Z</time>
      </trkpt>
      <trkpt lat="64.953519981354475" lon="11.783271012827754">
        <ele>51.090000000000003</ele>
        <time>2017-06-22T07:13:18Z</time>
      </trkpt>
      <trkpt lat="64.953664988279343" lon="11.783287022262812">
        <ele>51.090000000000003</ele>
        <time>2017-06-22T07:13:19Z</time>
      </trkpt>
      <trkpt lat="64.953793985769153" lon="11.783215021714568">
        <ele>51.090000000000003</ele>
        <time>2017-06-22T07:13:20Z</time>
      </trkpt>
      <trkpt lat="64.953903034329414" lon="11.783071020618081">
        <ele>50.609999999999999</ele>
        <time>2017-06-22T07:13:21Z</time>
      </trkpt>
      <trkpt lat="64.953992972150445" lon="11.782838003709912">
        <ele>50.609999999999999</ele>
        <time>2017-06-22T07:13:22Z</time>
      </trkpt>
      <trkpt lat="64.954062961041927" lon="11.782519994303584">
        <ele>50.130000000000003</ele>
        <time>2017-06-22T07:13:23Z</time>
      </trkpt>
      <trkpt lat="64.9541109893471" lon="11.78216602653265">
        <ele>50.130000000000003</ele>
        <time>2017-06-22T07:13:24Z</time>
      </trkpt>
      <trkpt lat="64.954150971025229" lon="11.781780039891601">
        <ele>50.130000000000003</ele>
        <time>2017-06-22T07:13:25Z</time>
      </trkpt>
      <trkpt lat="64.954245015978813" lon="11.780997002497315">
        <ele>49.649999999999999</ele>
        <time>2017-06-22T07:13:27Z</time>
      </trkpt>
      <trkpt lat="64.954317016527057" lon="11.780664995312691">
        <ele>48.68</ele>
        <time>2017-06-22T07:13:28Z</time>
      </trkpt>
      <trkpt lat="64.95441097766161" lon="11.78040498867631">
        <ele>48.200000000000003</ele>
        <time>2017-06-22T07:13:29Z</time>
      </trkpt>
      <trkpt lat="64.954522959887981" lon="11.780249001458287">
        <ele>48.200000000000003</ele>
        <time>2017-06-22T07:13:30Z</time>
      </trkpt>
      <trkpt lat="64.954652041196823" lon="11.780179012566805">
        <ele>48.200000000000003</ele>
        <time>2017-06-22T07:13:31Z</time>
      </trkpt>
      <trkpt lat="64.954785984009504" lon="11.780169038102031">
        <ele>48.200000000000003</ele>
        <time>2017-06-22T07:13:32Z</time>
      </trkpt>
      <trkpt lat="64.954934008419514" lon="11.78021396510303">
        <ele>48.68</ele>
        <time>2017-06-22T07:13:33Z</time>
      </trkpt>
      <trkpt lat="64.955085972324014" lon="11.780258975923061">
        <ele>48.68</ele>
        <time>2017-06-22T07:13:34Z</time>
      </trkpt>
      <trkpt lat="64.956292966380715" lon="11.780893988907337">
        <ele>52.530000000000001</ele>
        <time>2017-06-22T07:13:41Z</time>
      </trkpt>
      <trkpt lat="64.958242010325193" lon="11.782466014847159">
        <ele>51.090000000000003</ele>
        <time>2017-06-22T07:13:52Z</time>
      </trkpt>
      <trkpt lat="64.958422975614667" lon="11.782685033977032">
        <ele>51.090000000000003</ele>
        <time>2017-06-22T07:13:53Z</time>
      </trkpt>
      <trkpt lat="64.958605030551553" lon="11.7829629778862">
        <ele>51.090000000000003</ele>
        <time>2017-06-22T07:13:54Z</time>
      </trkpt>
      <trkpt lat="64.959858041256666" lon="11.785243023186922">
        <ele>52.530000000000001</ele>
        <time>2017-06-22T07:14:01Z</time>
      </trkpt>
      <trkpt lat="64.960016962140799" lon="11.785494983196259">
        <ele>52.530000000000001</ele>
        <time>2017-06-22T07:14:02Z</time>
      </trkpt>
      <trkpt lat="64.960179990157485" lon="11.785687012597919">
        <ele>52.049999999999997</ele>
        <time>2017-06-22T07:14:03Z</time>
      </trkpt>
      <trkpt lat="64.960357015952468" lon="11.785821039229631">
        <ele>52.049999999999997</ele>
        <time>2017-06-22T07:14:04Z</time>
      </trkpt>
      <trkpt lat="64.960544016212225" lon="11.785922963172197">
        <ele>52.049999999999997</ele>
        <time>2017-06-22T07:14:05Z</time>
      </trkpt>
      <trkpt lat="64.960735039785504" lon="11.786024970933795">
        <ele>52.049999999999997</ele>
        <time>2017-06-22T07:14:06Z</time>
      </trkpt>
      <trkpt lat="64.961115997284651" lon="11.786315990611911">
        <ele>52.530000000000001</ele>
        <time>2017-06-22T07:14:08Z</time>
      </trkpt>
      <trkpt lat="64.961296040564775" lon="11.786539033055305">
        <ele>53.009999999999998</ele>
        <time>2017-06-22T07:14:09Z</time>
      </trkpt>
      <trkpt lat="64.961468037217855" lon="11.786811025813222">
        <ele>53.490000000000002</ele>
        <time>2017-06-22T07:14:10Z</time>
      </trkpt>
      <trkpt lat="64.961626958101988" lon="11.787121994420886">
        <ele>54.450000000000003</ele>
        <time>2017-06-22T07:14:11Z</time>
      </trkpt>
      <trkpt lat="64.961775988340378" lon="11.787464981898665">
        <ele>54.93</ele>
        <time>2017-06-22T07:14:12Z</time>
      </trkpt>
      <trkpt lat="64.962819032371044" lon="11.790178036317229">
        <ele>57.340000000000003</ele>
        <time>2017-06-22T07:14:20Z</time>
      </trkpt>
      <trkpt lat="64.962900001555681" lon="11.790575003251433">
        <ele>56.859999999999999</ele>
        <time>2017-06-22T07:14:21Z</time>
      </trkpt>
      <trkpt lat="64.962952975183725" lon="11.790992002934217">
        <ele>57.340000000000003</ele>
        <time>2017-06-22T07:14:22Z</time>
      </trkpt>
      <trkpt lat="64.962982982397079" lon="11.791404979303479">
        <ele>57.340000000000003</ele>
        <time>2017-06-22T07:14:23Z</time>
      </trkpt>
      <trkpt lat="64.963018018752337" lon="11.791795995086432">
        <ele>57.82</ele>
        <time>2017-06-22T07:14:24Z</time>
      </trkpt>
      <trkpt lat="64.963075015693903" lon="11.792187010869384">
        <ele>57.82</ele>
        <time>2017-06-22T07:14:25Z</time>
      </trkpt>
      <trkpt lat="64.963161014020443" lon="11.792548019438982">
        <ele>57.82</ele>
        <time>2017-06-22T07:14:26Z</time>
      </trkpt>
      <trkpt lat="64.963261010125279" lon="11.79290902800858">
        <ele>57.82</ele>
        <time>2017-06-22T07:14:27Z</time>
      </trkpt>
      <trkpt lat="64.963729977607727" lon="11.794762015342712">
        <ele>59.259999999999998</ele>
        <time>2017-06-22T07:14:32Z</time>
      </trkpt>
      <trkpt lat="64.96384103782475" lon="11.795083964243531">
        <ele>59.740000000000002</ele>
        <time>2017-06-22T07:14:33Z</time>
      </trkpt>
      <trkpt lat="64.963967017829418" lon="11.795375989750028">
        <ele>60.219999999999999</ele>
        <time>2017-06-22T07:14:34Z</time>
      </trkpt>
      <trkpt lat="64.964886009693146" lon="11.797691993415356">
        <ele>63.100000000000001</ele>
        <time>2017-06-22T07:14:41Z</time>
      </trkpt>
      <trkpt lat="64.965146016329527" lon="11.798405963927507">
        <ele>63.100000000000001</ele>
        <time>2017-06-22T07:14:43Z</time>
      </trkpt>
      <trkpt lat="64.965254981070757" lon="11.798807037994266">
        <ele>64.069999999999993</ele>
        <time>2017-06-22T07:14:44Z</time>
      </trkpt>
      <trkpt lat="64.9653460085392" lon="11.799236023798585">
        <ele>65.030000000000001</ele>
        <time>2017-06-22T07:14:45Z</time>
      </trkpt>
      <trkpt lat="64.966429034247994" lon="11.804051008075476">
        <ele>70.310000000000002</ele>
        <time>2017-06-22T07:14:56Z</time>
      </trkpt>
      <trkpt lat="64.96785999275744" lon="11.809850027784705">
        <ele>75.120000000000005</ele>
        <time>2017-06-22T07:15:10Z</time>
      </trkpt>
      <trkpt lat="64.967983961105347" lon="11.810138029977679">
        <ele>74.159999999999997</ele>
        <time>2017-06-22T07:15:11Z</time>
      </trkpt>
      <trkpt lat="64.968128968030214" lon="11.810367023572326">
        <ele>72.719999999999999</ele>
        <time>2017-06-22T07:15:12Z</time>
      </trkpt>
      <trkpt lat="64.968298031017184" lon="11.810547988861799">
        <ele>71.760000000000005</ele>
        <time>2017-06-22T07:15:13Z</time>
      </trkpt>
      <trkpt lat="64.968476984649897" lon="11.810672041028738">
        <ele>70.310000000000002</ele>
        <time>2017-06-22T07:15:14Z</time>
      </trkpt>
      <trkpt lat="64.968658033758402" lon="11.810774970799685">
        <ele>69.349999999999994</ele>
        <time>2017-06-22T07:15:15Z</time>
      </trkpt>
      <trkpt lat="64.969479963183403" lon="11.81115098297596">
        <ele>64.549999999999997</ele>
        <time>2017-06-22T07:15:20Z</time>
      </trkpt>
      <trkpt lat="64.969611978158355" lon="11.811117958277464">
        <ele>64.069999999999993</ele>
        <time>2017-06-22T07:15:21Z</time>
      </trkpt>
      <trkpt lat="64.969728989526629" lon="11.811005976051092">
        <ele>63.100000000000001</ele>
        <time>2017-06-22T07:15:22Z</time>
      </trkpt>
      <trkpt lat="64.969834014773369" lon="11.810831967741251">
        <ele>62.140000000000001</ele>
        <time>2017-06-22T07:15:23Z</time>
      </trkpt>
      <trkpt lat="64.969919007271528" lon="11.810577996075153">
        <ele>61.18</ele>
        <time>2017-06-22T07:15:24Z</time>
      </trkpt>
      <trkpt lat="64.969980027526617" lon="11.810266021639109">
        <ele>60.700000000000003</ele>
        <time>2017-06-22T07:15:25Z</time>
      </trkpt>
      <trkpt lat="64.970021015033126" lon="11.809910964220762">
        <ele>60.219999999999999</ele>
        <time>2017-06-22T07:15:26Z</time>
      </trkpt>
      <trkpt lat="64.970040963962674" lon="11.80951802060008">
        <ele>59.259999999999998</ele>
        <time>2017-06-22T07:15:27Z</time>
      </trkpt>
      <trkpt lat="64.970054961740971" lon="11.809110995382071">
        <ele>58.299999999999997</ele>
        <time>2017-06-22T07:15:28Z</time>
      </trkpt>
      <trkpt lat="64.970083041116595" lon="11.808685027062893">
        <ele>56.859999999999999</ele>
        <time>2017-06-22T07:15:29Z</time>
      </trkpt>
      <trkpt lat="64.970128973945975" lon="11.808266015723348">
        <ele>56.369999999999997</ele>
        <time>2017-06-22T07:15:30Z</time>
      </trkpt>
      <trkpt lat="64.970209021121264" lon="11.807868964970112">
        <ele>55.409999999999997</ele>
        <time>2017-06-22T07:15:31Z</time>
      </trkpt>
      <trkpt lat="64.970311028882861" lon="11.807494964450598">
        <ele>54.450000000000003</ele>
        <time>2017-06-22T07:15:32Z</time>
      </trkpt>
      <trkpt lat="64.970434997230768" lon="11.807148037478328">
        <ele>53.969999999999999</ele>
        <time>2017-06-22T07:15:33Z</time>
      </trkpt>
      <trkpt lat="64.970578998327255" lon="11.806851988658309">
        <ele>53.490000000000002</ele>
        <time>2017-06-22T07:15:34Z</time>
      </trkpt>
      <trkpt lat="64.970738003030419" lon="11.806602962315083">
        <ele>52.530000000000001</ele>
        <time>2017-06-22T07:15:35Z</time>
      </trkpt>
      <trkpt lat="64.970905976369977" lon="11.806384027004242">
        <ele>51.57</ele>
        <time>2017-06-22T07:15:36Z</time>
      </trkpt>
      <trkpt lat="64.97108300216496" lon="11.80618797428906">
        <ele>50.130000000000003</ele>
        <time>2017-06-22T07:15:37Z</time>
      </trkpt>
      <trkpt lat="64.971266984939575" lon="11.806018995121121">
        <ele>48.68</ele>
        <time>2017-06-22T07:15:38Z</time>
      </trkpt>
      <trkpt lat="64.971459014341235" lon="11.805873988196254">
        <ele>47.719999999999999</ele>
        <time>2017-06-22T07:15:39Z</time>
      </trkpt>
      <trkpt lat="64.971993025392294" lon="11.805424969643354">
        <ele>43.880000000000003</ele>
        <time>2017-06-22T07:15:42Z</time>
      </trkpt>
      <trkpt lat="64.97215798124671" lon="11.80519899353385">
        <ele>42.920000000000002</ele>
        <time>2017-06-22T07:15:43Z</time>
      </trkpt>
      <trkpt lat="64.972312962636352" lon="11.804932029917836">
        <ele>41.950000000000003</ele>
        <time>2017-06-22T07:15:44Z</time>
      </trkpt>
      <trkpt lat="64.97245998121798" lon="11.804622989147902">
        <ele>41.469999999999999</ele>
        <time>2017-06-22T07:15:45Z</time>
      </trkpt>
      <trkpt lat="64.972603982314467" lon="11.804292993620038">
        <ele>40.990000000000002</ele>
        <time>2017-06-22T07:15:46Z</time>
      </trkpt>
      <trkpt lat="64.973802007734776" lon="11.802057959139347">
        <ele>34.740000000000002</ele>
        <time>2017-06-22T07:15:54Z</time>
      </trkpt>
      <trkpt lat="64.973922958597541" lon="11.801800969988108">
        <ele>33.299999999999997</ele>
        <time>2017-06-22T07:15:55Z</time>
      </trkpt>
      <trkpt lat="64.974014991894364" lon="11.801501987501979">
        <ele>32.340000000000003</ele>
        <time>2017-06-22T07:15:56Z</time>
      </trkpt>
      <trkpt lat="64.974081041291356" lon="11.801171991974115">
        <ele>31.379999999999999</ele>
        <time>2017-06-22T07:15:57Z</time>
      </trkpt>
      <trkpt lat="64.974123034626245" lon="11.800807965919375">
        <ele>30.899999999999999</ele>
        <time>2017-06-22T07:15:58Z</time>
      </trkpt>
      <trkpt lat="64.974153963848948" lon="11.800415022298694">
        <ele>29.940000000000001</ele>
        <time>2017-06-22T07:15:59Z</time>
      </trkpt>
      <trkpt lat="64.974179025739431" lon="11.800002967938781">
        <ele>28.98</ele>
        <time>2017-06-22T07:16:00Z</time>
      </trkpt>
      <trkpt lat="64.974288996309042" lon="11.798864034935832">
        <ele>26.09</ele>
        <time>2017-06-22T07:16:03Z</time>
      </trkpt>
      <trkpt lat="64.974360996857285" lon="11.798543008044362">
        <ele>25.129999999999999</ele>
        <time>2017-06-22T07:16:04Z</time>
      </trkpt>
      <trkpt lat="64.97445797547698" lon="11.798308985307813">
        <ele>22.73</ele>
        <time>2017-06-22T07:16:05Z</time>
      </trkpt>
      <trkpt lat="64.974561994895339" lon="11.798180993646383">
        <ele>19.359999999999999</ele>
        <time>2017-06-22T07:16:06Z</time>
      </trkpt>
      <trkpt lat="64.974670959636569" lon="11.798094995319843">
        <ele>16.960000000000001</ele>
        <time>2017-06-22T07:16:07Z</time>
      </trkpt>
      <trkpt lat="64.974952004849911" lon="11.7980039678514">
        <ele>16</ele>
        <time>2017-06-22T07:16:09Z</time>
      </trkpt>
      <trkpt lat="64.976386986672878" lon="11.79791403003037">
        <ele>12.630000000000001</ele>
        <time>2017-06-22T07:16:18Z</time>
      </trkpt>
      <trkpt lat="64.977417038753629" lon="11.798874009400606">
        <ele>8.789999999999999</ele>
        <time>2017-06-22T07:16:25Z</time>
      </trkpt>
      <trkpt lat="64.977838983759284" lon="11.79935303516686">
        <ele>7.35</ele>
        <time>2017-06-22T07:16:30Z</time>
      </trkpt>
      <trkpt lat="64.978566030040383" lon="11.799711026251316">
        <ele>7.35</ele>
        <time>2017-06-22T07:16:36Z</time>
      </trkpt>
      <trkpt lat="64.980023978278041" lon="11.799760982394218">
        <ele>5.42</ele>
        <time>2017-06-22T07:16:46Z</time>
      </trkpt>
      <trkpt lat="64.980156999081373" lon="11.7998499982059">
        <ele>4.94</ele>
        <time>2017-06-22T07:16:47Z</time>
      </trkpt>
      <trkpt lat="64.980554971843958" lon="11.800116961821914">
        <ele>3.98</ele>
        <time>2017-06-22T07:16:50Z</time>
      </trkpt>
      <trkpt lat="64.980697967112064" lon="11.80012702010572">
        <ele>3.98</ele>
        <time>2017-06-22T07:16:51Z</time>
      </trkpt>
      <trkpt lat="64.980841968208551" lon="11.800058959051967">
        <ele>3.98</ele>
        <time>2017-06-22T07:16:52Z</time>
      </trkpt>
      <trkpt lat="64.980972977355123" lon="11.799916969612241">
        <ele>4.46</ele>
        <time>2017-06-22T07:16:53Z</time>
      </trkpt>
      <trkpt lat="64.981088982895017" lon="11.799708008766174">
        <ele>4.46</ele>
        <time>2017-06-22T07:16:54Z</time>
      </trkpt>
      <trkpt lat="64.981193002313375" lon="11.799444984644651">
        <ele>4.94</ele>
        <time>2017-06-22T07:16:55Z</time>
      </trkpt>
      <trkpt lat="64.981285035610199" lon="11.799155976623297">
        <ele>4.94</ele>
        <time>2017-06-22T07:16:56Z</time>
      </trkpt>
      <trkpt lat="64.98137203976512" lon="11.798852970823646">
        <ele>4.94</ele>
        <time>2017-06-22T07:16:57Z</time>
      </trkpt>
      <trkpt lat="64.981655012816191" lon="11.798031041398644">
        <ele>4.94</ele>
        <time>2017-06-22T07:17:00Z</time>
      </trkpt>
      <trkpt lat="64.981765989214182" lon="11.797805987298489">
        <ele>5.42</ele>
        <time>2017-06-22T07:17:01Z</time>
      </trkpt>
      <trkpt lat="64.981885012239218" lon="11.79761697538197">
        <ele>5.42</ele>
        <time>2017-06-22T07:17:02Z</time>
      </trkpt>
      <trkpt lat="64.982007974758744" lon="11.797457970678806">
        <ele>5.91</ele>
        <time>2017-06-22T07:17:03Z</time>
      </trkpt>
      <trkpt lat="64.982119034975767" lon="11.797334002330899">
        <ele>5.91</ele>
        <time>2017-06-22T07:17:04Z</time>
      </trkpt>
      <trkpt lat="64.982273010537028" lon="11.797134010121226">
        <ele>6.39</ele>
        <time>2017-06-22T07:17:06Z</time>
      </trkpt>
      <trkpt lat="64.982333024963737" lon="11.797008030116558">
        <ele>6.87</ele>
        <time>2017-06-22T07:17:07Z</time>
      </trkpt>
      <trkpt lat="64.982560006901622" lon="11.796305039897561">
        <ele>7.35</ele>
        <time>2017-06-22T07:17:11Z</time>
      </trkpt>
      <trkpt lat="64.982606023550034" lon="11.796070011332631">
        <ele>7.35</ele>
        <time>2017-06-22T07:17:12Z</time>
      </trkpt>
      <trkpt lat="64.982638964429498" lon="11.795805981382728">
        <ele>7.35</ele>
        <time>2017-06-22T07:17:13Z</time>
      </trkpt>
      <trkpt lat="64.982655979692936" lon="11.795499958097935">
        <ele>7.83</ele>
        <time>2017-06-22T07:17:14Z</time>
      </trkpt>
      <trkpt lat="64.982654973864555" lon="11.795179015025496">
        <ele>7.83</ele>
        <time>2017-06-22T07:17:15Z</time>
      </trkpt>
      <trkpt lat="64.982636030763388" lon="11.794833010062575">
        <ele>7.83</ele>
        <time>2017-06-22T07:17:16Z</time>
      </trkpt>
      <trkpt lat="64.982600994408131" lon="11.794466972351074">
        <ele>7.83</ele>
        <time>2017-06-22T07:17:17Z</time>
      </trkpt>
      <trkpt lat="64.982294971123338" lon="11.791636990383267">
        <ele>7.83</ele>
        <time>2017-06-22T07:17:24Z</time>
      </trkpt>
      <trkpt lat="64.98221199028194" lon="11.791224014014006">
        <ele>7.35</ele>
        <time>2017-06-22T07:17:25Z</time>
      </trkpt>
      <trkpt lat="64.981821980327368" lon="11.789118982851505">
        <ele>5.42</ele>
        <time>2017-06-22T07:17:30Z</time>
      </trkpt>
      <trkpt lat="64.981784010306001" lon="11.788681028410792">
        <ele>5.91</ele>
        <time>2017-06-22T07:17:31Z</time>
      </trkpt>
      <trkpt lat="64.981763977557421" lon="11.788233015686274">
        <ele>6.87</ele>
        <time>2017-06-22T07:17:32Z</time>
      </trkpt>
      <trkpt lat="64.981754003092647" lon="11.787794977426529">
        <ele>8.310000000000001</ele>
        <time>2017-06-22T07:17:33Z</time>
      </trkpt>
      <trkpt lat="64.981756014749408" lon="11.787371020764112">
        <ele>9.75</ele>
        <time>2017-06-22T07:17:34Z</time>
      </trkpt>
      <trkpt lat="64.981730030849576" lon="11.784451017156243">
        <ele>14.56</ele>
        <time>2017-06-22T07:17:41Z</time>
      </trkpt>
      <trkpt lat="64.981690971180797" lon="11.784044997766614">
        <ele>14.08</ele>
        <time>2017-06-22T07:17:42Z</time>
      </trkpt>
      <trkpt lat="64.981629028916359" lon="11.783649958670139">
        <ele>13.119999999999999</ele>
        <time>2017-06-22T07:17:43Z</time>
      </trkpt>
      <trkpt lat="64.981545964255929" lon="11.783257015049458">
        <ele>12.630000000000001</ele>
        <time>2017-06-22T07:17:44Z</time>
      </trkpt>
      <trkpt lat="64.981454014778137" lon="11.782865999266505">
        <ele>11.19</ele>
        <time>2017-06-22T07:17:45Z</time>
      </trkpt>
      <trkpt lat="64.980964008718729" lon="11.78055502474308">
        <ele>4.94</ele>
        <time>2017-06-22T07:17:52Z</time>
      </trkpt>
      <trkpt lat="64.980480037629604" lon="11.777710961177945">
        <ele>-1.79</ele>
        <time>2017-06-22T07:17:59Z</time>
      </trkpt>
      <trkpt lat="64.979934962466359" lon="11.772791035473347">
        <ele>-8.51</ele>
        <time>2017-06-22T07:18:09Z</time>
      </trkpt>
      <trkpt lat="64.979940997436643" lon="11.772322990000248">
        <ele>-8.51</ele>
        <time>2017-06-22T07:18:10Z</time>
      </trkpt>
      <trkpt lat="64.979975027963519" lon="11.771873971447349">
        <ele>-8.029999999999999</ele>
        <time>2017-06-22T07:18:11Z</time>
      </trkpt>
      <trkpt lat="64.980035964399576" lon="11.771454038098454">
        <ele>-8.029999999999999</ele>
        <time>2017-06-22T07:18:12Z</time>
      </trkpt>
      <trkpt lat="64.980120034888387" lon="11.77105899900198">
        <ele>-8.029999999999999</ele>
        <time>2017-06-22T07:18:13Z</time>
      </trkpt>
      <trkpt lat="64.980224976316094" lon="11.770687010139227">
        <ele>-7.55</ele>
        <time>2017-06-22T07:18:14Z</time>
      </trkpt>
      <trkpt lat="64.980339976027608" lon="11.770332036539912">
        <ele>-7.07</ele>
        <time>2017-06-22T07:18:15Z</time>
      </trkpt>
      <trkpt lat="64.981126030907035" lon="11.768127009272575">
        <ele>-3.23</ele>
        <time>2017-06-22T07:18:22Z</time>
      </trkpt>
      <trkpt lat="64.981244970113039" lon="11.767926011234522">
        <ele>-2.75</ele>
        <time>2017-06-22T07:18:23Z</time>
      </trkpt>
      <trkpt lat="64.981366004794836" lon="11.767754014581442">
        <ele>-2.27</ele>
        <time>2017-06-22T07:18:24Z</time>
      </trkpt>
      <trkpt lat="64.982163961976767" lon="11.76665598526597">
        <ele>-6.11</ele>
        <time>2017-06-22T07:18:30Z</time>
      </trkpt>
      <trkpt lat="64.982289019972086" lon="11.766398996114731">
        <ele>-6.59</ele>
        <time>2017-06-22T07:18:31Z</time>
      </trkpt>
      <trkpt lat="64.982404019683599" lon="11.766104958951473">
        <ele>-7.07</ele>
        <time>2017-06-22T07:18:32Z</time>
      </trkpt>
      <trkpt lat="64.982507033273578" lon="11.765783010050654">
        <ele>-7.55</ele>
        <time>2017-06-22T07:18:33Z</time>
      </trkpt>
      <trkpt lat="64.982600994408131" lon="11.765440022572875">
        <ele>-7.55</ele>
        <time>2017-06-22T07:18:34Z</time>
      </trkpt>
      <trkpt lat="64.98358896933496" lon="11.761635979637504">
        <ele>-3.23</ele>
        <time>2017-06-22T07:18:45Z</time>
      </trkpt>
      <trkpt lat="64.983797008171678" lon="11.760927038267255">
        <ele>-0.82</ele>
        <time>2017-06-22T07:18:48Z</time>
      </trkpt>
      <trkpt lat="64.983854005113244" lon="11.760615985840559">
        <ele>-0.34</ele>
        <time>2017-06-22T07:18:49Z</time>
      </trkpt>
      <trkpt lat="64.983902033418417" lon="11.760281966999173">
        <ele>0.62</ele>
        <time>2017-06-22T07:18:50Z</time>
      </trkpt>
      <trkpt lat="64.984037987887859" lon="11.759341014549136">
        <ele>3.02</ele>
        <time>2017-06-22T07:18:53Z</time>
      </trkpt>
      <trkpt lat="64.984106970950961" lon="11.759095005691051">
        <ele>3.5</ele>
        <time>2017-06-22T07:18:54Z</time>
      </trkpt>
      <trkpt lat="64.984194980934262" lon="11.758896019309759">
        <ele>4.46</ele>
        <time>2017-06-22T07:18:55Z</time>
      </trkpt>
      <trkpt lat="64.984303023666143" lon="11.758743971586227">
        <ele>5.91</ele>
        <time>2017-06-22T07:18:56Z</time>
      </trkpt>
      <trkpt lat="64.984432021155953" lon="11.758636012673378">
        <ele>6.39</ele>
        <time>2017-06-22T07:18:57Z</time>
      </trkpt>
      <trkpt lat="64.98457602225244" lon="11.758569041267037">
        <ele>7.83</ele>
        <time>2017-06-22T07:18:58Z</time>
      </trkpt>
      <trkpt lat="64.984732009470463" lon="11.758521012961864">
        <ele>9.27</ele>
        <time>2017-06-22T07:18:59Z</time>
      </trkpt>
      <trkpt lat="64.984892020002007" lon="11.758509026840329">
        <ele>10.23</ele>
        <time>2017-06-22T07:19:00Z</time>
      </trkpt>
      <trkpt lat="64.985060999169946" lon="11.758526964113116">
        <ele>11.19</ele>
        <time>2017-06-22T07:19:01Z</time>
      </trkpt>
      <trkpt lat="64.985238024964929" lon="11.758552026003599">
        <ele>12.630000000000001</ele>
        <time>2017-06-22T07:19:02Z</time>
      </trkpt>
      <trkpt lat="64.98606096021831" lon="11.75855403766036">
        <ele>18.879999999999999</ele>
        <time>2017-06-22T07:19:07Z</time>
      </trkpt>
      <trkpt lat="64.986213007941842" lon="11.758643975481391">
        <ele>19.84</ele>
        <time>2017-06-22T07:19:08Z</time>
      </trkpt>
      <trkpt lat="64.986347034573555" lon="11.758822007104754">
        <ele>21.289999999999999</ele>
        <time>2017-06-22T07:19:09Z</time>
      </trkpt>
      <trkpt lat="64.986469997093081" lon="11.759067010134459">
        <ele>22.73</ele>
        <time>2017-06-22T07:19:10Z</time>
      </trkpt>
      <trkpt lat="64.986577033996582" lon="11.759358029812574">
        <ele>24.170000000000002</ele>
        <time>2017-06-22T07:19:11Z</time>
      </trkpt>
      <trkpt lat="64.986665965989232" lon="11.759696993976831">
        <ele>25.609999999999999</ele>
        <time>2017-06-22T07:19:12Z</time>
      </trkpt>
      <trkpt lat="64.986736960709095" lon="11.760073006153107">
        <ele>27.050000000000001</ele>
        <time>2017-06-22T07:19:13Z</time>
      </trkpt>
      <trkpt lat="64.986783983185887" lon="11.760475002229214">
        <ele>28.5</ele>
        <time>2017-06-22T07:19:14Z</time>
      </trkpt>
      <trkpt lat="64.986814996227622" lon="11.760894013568759">
        <ele>29.940000000000001</ele>
        <time>2017-06-22T07:19:15Z</time>
      </trkpt>
      <trkpt lat="64.986836034804583" lon="11.761336997151375">
        <ele>31.379999999999999</ele>
        <time>2017-06-22T07:19:16Z</time>
      </trkpt>
      <trkpt lat="64.987036027014256" lon="11.76379800774157">
        <ele>37.630000000000003</ele>
        <time>2017-06-22T07:19:22Z</time>
      </trkpt>
      <trkpt lat="64.987110961228609" lon="11.764125991612673">
        <ele>38.109999999999999</ele>
        <time>2017-06-22T07:19:23Z</time>
      </trkpt>
      <trkpt lat="64.987211041152477" lon="11.764407036826015">
        <ele>39.07</ele>
        <time>2017-06-22T07:19:24Z</time>
      </trkpt>
      <trkpt lat="64.987331992015243" lon="11.764633012935519">
        <ele>40.030000000000001</ele>
        <time>2017-06-22T07:19:25Z</time>
      </trkpt>
      <trkpt lat="64.987469036132097" lon="11.76480601541698">
        <ele>41.469999999999999</ele>
        <time>2017-06-22T07:19:26Z</time>
      </trkpt>
      <trkpt lat="64.987613959237933" lon="11.764964014291763">
        <ele>42.439999999999998</ele>
        <time>2017-06-22T07:19:27Z</time>
      </trkpt>
      <trkpt lat="64.987892992794514" lon="11.765317982062697">
        <ele>44.359999999999999</ele>
        <time>2017-06-22T07:19:29Z</time>
      </trkpt>
      <trkpt lat="64.988020984455943" lon="11.765539012849331">
        <ele>45.32</ele>
        <time>2017-06-22T07:19:30Z</time>
      </trkpt>
      <trkpt lat="64.988133972510695" lon="11.765791978687048">
        <ele>46.759999999999998</ele>
        <time>2017-06-22T07:19:31Z</time>
      </trkpt>
      <trkpt lat="64.988233968615532" lon="11.766089033335447">
        <ele>48.200000000000003</ele>
        <time>2017-06-22T07:19:32Z</time>
      </trkpt>
      <trkpt lat="64.988323990255594" lon="11.766403019428253">
        <ele>49.649999999999999</ele>
        <time>2017-06-22T07:19:33Z</time>
      </trkpt>
      <trkpt lat="64.988407976925373" lon="11.766731003299356">
        <ele>50.609999999999999</ele>
        <time>2017-06-22T07:19:34Z</time>
      </trkpt>
      <trkpt lat="64.989425959065557" lon="11.770980963483453">
        <ele>62.140000000000001</ele>
        <time>2017-06-22T07:19:46Z</time>
      </trkpt>
      <trkpt lat="64.990151999518275" lon="11.774758016690612">
        <ele>68.390000000000001</ele>
        <time>2017-06-22T07:19:56Z</time>
      </trkpt>
      <trkpt lat="64.991007959470153" lon="11.77950200624764">
        <ele>67.909999999999997</ele>
        <time>2017-06-22T07:20:07Z</time>
      </trkpt>
      <trkpt lat="64.991041989997029" lon="11.779920011758804">
        <ele>66.469999999999999</ele>
        <time>2017-06-22T07:20:08Z</time>
      </trkpt>
      <trkpt lat="64.99104299582541" lon="11.780325025320053">
        <ele>65.030000000000001</ele>
        <time>2017-06-22T07:20:09Z</time>
      </trkpt>
      <trkpt lat="64.991011982783675" lon="11.780719980597496">
        <ele>63.579999999999998</ele>
        <time>2017-06-22T07:20:10Z</time>
      </trkpt>
      <trkpt lat="64.990964038297534" lon="11.781109990552068">
        <ele>61.659999999999997</ele>
        <time>2017-06-22T07:20:11Z</time>
      </trkpt>
      <trkpt lat="64.990907041355968" lon="11.781492037698627">
        <ele>60.219999999999999</ele>
        <time>2017-06-22T07:20:12Z</time>
      </trkpt>
      <trkpt lat="64.990736972540617" lon="11.783376960083842">
        <ele>54.450000000000003</ele>
        <time>2017-06-22T07:20:17Z</time>
      </trkpt>
      <trkpt lat="64.990677963942289" lon="11.783770993351936">
        <ele>53.490000000000002</ele>
        <time>2017-06-22T07:20:18Z</time>
      </trkpt>
      <trkpt lat="64.990535974502563" lon="11.784612033516169">
        <ele>50.130000000000003</ele>
        <time>2017-06-22T07:20:20Z</time>
      </trkpt>
      <trkpt lat="64.9904840067029" lon="11.785059040412307">
        <ele>48.68</ele>
        <time>2017-06-22T07:20:21Z</time>
      </trkpt>
      <trkpt lat="64.990332964807749" lon="11.787138003855944">
        <ele>42.439999999999998</ele>
        <time>2017-06-22T07:20:26Z</time>
      </trkpt>
      <trkpt lat="64.990349980071187" lon="11.787530025467277">
        <ele>41.469999999999999</ele>
        <time>2017-06-22T07:20:27Z</time>
      </trkpt>
      <trkpt lat="64.990402031689882" lon="11.787914000451565">
        <ele>40.509999999999998</ele>
        <time>2017-06-22T07:20:28Z</time>
      </trkpt>
      <trkpt lat="64.990476965904236" lon="11.788276014849544">
        <ele>39.549999999999997</ele>
        <time>2017-06-22T07:20:29Z</time>
      </trkpt>
      <trkpt lat="64.990571010857821" lon="11.788615984842181">
        <ele>38.109999999999999</ele>
        <time>2017-06-22T07:20:30Z</time>
      </trkpt>
      <trkpt lat="64.990688022226095" lon="11.788918990641832">
        <ele>37.149999999999999</ele>
        <time>2017-06-22T07:20:31Z</time>
      </trkpt>
      <trkpt lat="64.990821965038776" lon="11.789201041683555">
        <ele>36.189999999999998</ele>
        <time>2017-06-22T07:20:32Z</time>
      </trkpt>
      <trkpt lat="64.991626041010022" lon="11.790936011821032">
        <ele>28.5</ele>
        <time>2017-06-22T07:20:38Z</time>
      </trkpt>
      <trkpt lat="64.992235992103815" lon="11.792370993643999">
        <ele>23.690000000000001</ele>
        <time>2017-06-22T07:20:43Z</time>
      </trkpt>
      <trkpt lat="64.992325007915497" lon="11.792687997221947">
        <ele>23.210000000000001</ele>
        <time>2017-06-22T07:20:44Z</time>
      </trkpt>
      <trkpt lat="64.992402959614992" lon="11.793032996356487">
        <ele>22.25</ele>
        <time>2017-06-22T07:20:45Z</time>
      </trkpt>
      <trkpt lat="64.992564981803298" lon="11.79372601211071">
        <ele>21.289999999999999</ele>
        <time>2017-06-22T07:20:47Z</time>
      </trkpt>
      <trkpt lat="64.992669001221657" lon="11.79402600042522">
        <ele>21.289999999999999</ele>
        <time>2017-06-22T07:20:48Z</time>
      </trkpt>
      <trkpt lat="64.992786012589931" lon="11.794274020940065">
        <ele>20.809999999999999</ele>
        <time>2017-06-22T07:20:49Z</time>
      </trkpt>
      <trkpt lat="64.992925990372896" lon="11.794465966522694">
        <ele>20.809999999999999</ele>
        <time>2017-06-22T07:20:50Z</time>
      </trkpt>
      <trkpt lat="64.993082983419299" lon="11.794614996761084">
        <ele>20.809999999999999</ele>
        <time>2017-06-22T07:20:51Z</time>
      </trkpt>
      <trkpt lat="64.993240982294083" lon="11.794736031442881">
        <ele>21.289999999999999</ele>
        <time>2017-06-22T07:20:52Z</time>
      </trkpt>
      <trkpt lat="64.994398020207882" lon="11.796094989404082">
        <ele>18.879999999999999</ele>
        <time>2017-06-22T07:20:59Z</time>
      </trkpt>
      <trkpt lat="64.996086973696947" lon="11.798401018604636">
        <ele>16.48</ele>
        <time>2017-06-22T07:21:09Z</time>
      </trkpt>
      <trkpt lat="64.996844027191401" lon="11.798951039090753">
        <ele>12.630000000000001</ele>
        <time>2017-06-22T07:21:13Z</time>
      </trkpt>
      <trkpt lat="64.997043013572693" lon="11.799015998840332">
        <ele>11.67</ele>
        <time>2017-06-22T07:21:14Z</time>
      </trkpt>
      <trkpt lat="64.999006977304816" lon="11.799002001062036">
        <ele>-0.34</ele>
        <time>2017-06-22T07:21:24Z</time>
      </trkpt>
      <trkpt lat="65.000657038763165" lon="11.797626027837396">
        <ele>4.46</ele>
        <time>2017-06-22T07:21:32Z</time>
      </trkpt>
      <trkpt lat="65.001030033454299" lon="11.797326961532235">
        <ele>7.83</ele>
        <time>2017-06-22T07:21:34Z</time>
      </trkpt>
      <trkpt lat="65.001204963773489" lon="11.797264013439417">
        <ele>8.789999999999999</ele>
        <time>2017-06-22T07:21:35Z</time>
      </trkpt>
      <trkpt lat="65.001348964869976" lon="11.797277005389333">
        <ele>9.27</ele>
        <time>2017-06-22T07:21:36Z</time>
      </trkpt>
      <trkpt lat="65.001445021480322" lon="11.797389993444085">
        <ele>9.75</ele>
        <time>2017-06-22T07:21:37Z</time>
      </trkpt>
      <trkpt lat="65.001522973179817" lon="11.797499964013696">
        <ele>10.23</ele>
        <time>2017-06-22T07:21:38Z</time>
      </trkpt>
      <trkpt lat="65.001546023413539" lon="11.797519996762276">
        <ele>9.75</ele>
        <time>2017-06-22T07:21:39Z</time>
      </trkpt>
      <trkpt lat="65.00154702924192" lon="11.797539023682475">
        <ele>9.27</ele>
        <time>2017-06-22T07:21:54Z</time>
      </trkpt>
      <trkpt lat="65.001544011756778" lon="11.797538017854095">
        <ele>9.27</ele>
        <time>2017-06-22T07:23:12Z</time>
      </trkpt>
      <trkpt lat="65.001539988443255" lon="11.797540029510856">
        <ele>9.27</ele>
        <time>2017-06-22T07:24:50Z</time>
      </trkpt>
      <trkpt lat="65.001459019258618" lon="11.797363003715873">
        <ele>12.630000000000001</ele>
        <time>2017-06-22T07:36:59Z</time>
      </trkpt>
      <trkpt lat="65.001443009823561" lon="11.797344982624054">
        <ele>15.52</ele>
        <time>2017-06-22T07:37:36Z</time>
      </trkpt>
      <trkpt lat="65.00144200399518" lon="11.797344982624054">
        <ele>15.52</ele>
        <time>2017-06-22T07:37:44Z</time>
      </trkpt>
      <trkpt lat="65.001366985961795" lon="11.797301983460784">
        <ele>15.039999999999999</ele>
        <time>2017-06-22T07:37:58Z</time>
      </trkpt>
      <trkpt lat="65.001405961811543" lon="11.797427041456103">
        <ele>15.52</ele>
        <time>2017-06-22T07:38:03Z</time>
      </trkpt>
      <trkpt lat="65.001835031434894" lon="11.798006985336542">
        <ele>19.359999999999999</ele>
        <time>2017-06-22T07:38:10Z</time>
      </trkpt>
      <trkpt lat="65.002252031117678" lon="11.798530016094446">
        <ele>20.32</ele>
        <time>2017-06-22T07:38:15Z</time>
      </trkpt>
      <trkpt lat="65.002354960888624" lon="11.798579972237349">
        <ele>20.809999999999999</ele>
        <time>2017-06-22T07:38:16Z</time>
      </trkpt>
      <trkpt lat="65.002457974478602" lon="11.798586007207632">
        <ele>21.289999999999999</ele>
        <time>2017-06-22T07:38:17Z</time>
      </trkpt>
      <trkpt lat="65.002566017210484" lon="11.798545019701123">
        <ele>21.77</ele>
        <time>2017-06-22T07:38:18Z</time>
      </trkpt>
      <trkpt lat="65.002669030800462" lon="11.798466984182596">
        <ele>22.25</ele>
        <time>2017-06-22T07:38:19Z</time>
      </trkpt>
      <trkpt lat="65.002768021076918" lon="11.798341004177928">
        <ele>24.649999999999999</ele>
        <time>2017-06-22T07:38:20Z</time>
      </trkpt>
      <trkpt lat="65.002863993868232" lon="11.79821896366775">
        <ele>25.129999999999999</ele>
        <time>2017-06-22T07:38:21Z</time>
      </trkpt>
      <trkpt lat="65.003390964120626" lon="11.797685036435723">
        <ele>31.379999999999999</ele>
        <time>2017-06-22T07:38:26Z</time>
      </trkpt>
      <trkpt lat="65.003831014037132" lon="11.797451013699174">
        <ele>34.740000000000002</ele>
        <time>2017-06-22T07:38:30Z</time>
      </trkpt>
      <trkpt lat="65.003936961293221" lon="11.797446990385652">
        <ele>35.229999999999997</ele>
        <time>2017-06-22T07:38:31Z</time>
      </trkpt>
      <trkpt lat="65.004047015681863" lon="11.797494012862444">
        <ele>35.710000000000001</ele>
        <time>2017-06-22T07:38:32Z</time>
      </trkpt>
      <trkpt lat="65.004156986251473" lon="11.797586968168616">
        <ele>35.710000000000001</ele>
        <time>2017-06-22T07:38:33Z</time>
      </trkpt>
      <trkpt lat="65.004265028983355" lon="11.797720994800329">
        <ele>36.189999999999998</ele>
        <time>2017-06-22T07:38:34Z</time>
      </trkpt>
      <trkpt lat="65.004366030916572" lon="11.797887040302157">
        <ele>36.189999999999998</ele>
        <time>2017-06-22T07:38:35Z</time>
      </trkpt>
      <trkpt lat="65.004465021193027" lon="11.798085020855069">
        <ele>36.670000000000002</ele>
        <time>2017-06-22T07:38:36Z</time>
      </trkpt>
      <trkpt lat="65.004566023126245" lon="11.79828098975122">
        <ele>36.189999999999998</ele>
        <time>2017-06-22T07:38:37Z</time>
      </trkpt>
      <trkpt lat="65.00492300838232" lon="11.798686003312469">
        <ele>43.399999999999999</ele>
        <time>2017-06-22T07:38:40Z</time>
      </trkpt>
      <trkpt lat="65.006021959707141" lon="11.800567992031574">
        <ele>44.359999999999999</ele>
        <time>2017-06-22T07:38:49Z</time>
      </trkpt>
      <trkpt lat="65.007724994793534" lon="11.803684970363975">
        <ele>26.57</ele>
        <time>2017-06-22T07:39:02Z</time>
      </trkpt>
      <trkpt lat="65.009473962709308" lon="11.805963004007936">
        <ele>9.75</ele>
        <time>2017-06-22T07:39:13Z</time>
      </trkpt>
      <trkpt lat="65.01024903729558" lon="11.806645039469004">
        <ele>7.35</ele>
        <time>2017-06-22T07:39:18Z</time>
      </trkpt>
      <trkpt lat="65.010376023128629" lon="11.806835979223251">
        <ele>6.87</ele>
        <time>2017-06-22T07:39:19Z</time>
      </trkpt>
      <trkpt lat="65.01048699952662" lon="11.807079976424575">
        <ele>6.39</ele>
        <time>2017-06-22T07:39:20Z</time>
      </trkpt>
      <trkpt lat="65.010580960661173" lon="11.807374013587832">
        <ele>5.91</ele>
        <time>2017-06-22T07:39:21Z</time>
      </trkpt>
      <trkpt lat="65.010648015886545" lon="11.807706020772457">
        <ele>4.94</ele>
        <time>2017-06-22T07:39:22Z</time>
      </trkpt>
      <trkpt lat="65.010718004778028" lon="11.808062000200152">
        <ele>4.46</ele>
        <time>2017-06-22T07:39:23Z</time>
      </trkpt>
      <trkpt lat="65.011606989428401" lon="11.812173994258046">
        <ele>5.42</ele>
        <time>2017-06-22T07:39:34Z</time>
      </trkpt>
      <trkpt lat="65.012625977396965" lon="11.81531704030931">
        <ele>8.789999999999999</ele>
        <time>2017-06-22T07:39:43Z</time>
      </trkpt>
      <trkpt lat="65.013041971251369" lon="11.816754033789039">
        <ele>4.46</ele>
        <time>2017-06-22T07:39:47Z</time>
      </trkpt>
      <trkpt lat="65.013170968741179" lon="11.817058967426419">
        <ele>3.5</ele>
        <time>2017-06-22T07:39:48Z</time>
      </trkpt>
      <trkpt lat="65.013313964009285" lon="11.817332971841097">
        <ele>2.54</ele>
        <time>2017-06-22T07:39:49Z</time>
      </trkpt>
      <trkpt lat="65.01420303247869" lon="11.818897034972906">
        <ele>1.58</ele>
        <time>2017-06-22T07:39:55Z</time>
      </trkpt>
      <trkpt lat="65.014314008876681" lon="11.819222001358867">
        <ele>1.1</ele>
        <time>2017-06-22T07:39:56Z</time>
      </trkpt>
      <trkpt lat="65.014408975839615" lon="11.819575969129801">
        <ele>1.1</ele>
        <time>2017-06-22T07:39:57Z</time>
      </trkpt>
      <trkpt lat="65.015294020995498" lon="11.822836026549339">
        <ele>0.62</ele>
        <time>2017-06-22T07:40:06Z</time>
      </trkpt>
      <trkpt lat="65.015996005386114" lon="11.824755985289812">
        <ele>9.27</ele>
        <time>2017-06-22T07:40:12Z</time>
      </trkpt>
      <trkpt lat="65.016089966520667" lon="11.825107019394636">
        <ele>9.75</ele>
        <time>2017-06-22T07:40:13Z</time>
      </trkpt>
      <trkpt lat="65.016679968684912" lon="11.827220013365149">
        <ele>14.56</ele>
        <time>2017-06-22T07:40:19Z</time>
      </trkpt>
      <trkpt lat="65.01725303940475" lon="11.828708974644542">
        <ele>19.359999999999999</ele>
        <time>2017-06-22T07:40:24Z</time>
      </trkpt>
      <trkpt lat="65.017327973619103" lon="11.829030001536012">
        <ele>19.84</ele>
        <time>2017-06-22T07:40:25Z</time>
      </trkpt>
      <trkpt lat="65.017369966953993" lon="11.829390004277229">
        <ele>19.84</ele>
        <time>2017-06-22T07:40:26Z</time>
      </trkpt>
      <trkpt lat="65.017396034672856" lon="11.829766016453505">
        <ele>19.359999999999999</ele>
        <time>2017-06-22T07:40:27Z</time>
      </trkpt>
      <trkpt lat="65.017410032451153" lon="11.830163989216089">
        <ele>18.399999999999999</ele>
        <time>2017-06-22T07:40:28Z</time>
      </trkpt>
      <trkpt lat="65.017421012744308" lon="11.830575037747622">
        <ele>16.960000000000001</ele>
        <time>2017-06-22T07:40:29Z</time>
      </trkpt>
      <trkpt lat="65.01768303103745" lon="11.834000973030925">
        <ele>10.710000000000001</ele>
        <time>2017-06-22T07:40:37Z</time>
      </trkpt>
      <trkpt lat="65.01850001513958" lon="11.836930029094219">
        <ele>12.15</ele>
        <time>2017-06-22T07:40:45Z</time>
      </trkpt>
      <trkpt lat="65.02009098418057" lon="11.840835995972157">
        <ele>9.27</ele>
        <time>2017-06-22T07:40:57Z</time>
      </trkpt>
      <trkpt lat="65.021136961877346" lon="11.842592004686594">
        <ele>16.48</ele>
        <time>2017-06-22T07:41:04Z</time>
      </trkpt>
      <trkpt lat="65.022541014477611" lon="11.844931980594993">
        <ele>30.899999999999999</ele>
        <time>2017-06-22T07:41:14Z</time>
      </trkpt>
      <trkpt lat="65.024322001263499" lon="11.848478028550744">
        <ele>23.210000000000001</ele>
        <time>2017-06-22T07:41:26Z</time>
      </trkpt>
      <trkpt lat="65.027142008766532" lon="11.853876980021596">
        <ele>19.84</ele>
        <time>2017-06-22T07:41:44Z</time>
      </trkpt>
      <trkpt lat="65.029644006863236" lon="11.858736975118518">
        <ele>15.52</ele>
        <time>2017-06-22T07:41:59Z</time>
      </trkpt>
      <trkpt lat="65.033164992928505" lon="11.865692026913166">
        <ele>11.19</ele>
        <time>2017-06-22T07:42:20Z</time>
      </trkpt>
      <trkpt lat="65.035012029111385" lon="11.86976102180779">
        <ele>17.920000000000002</ele>
        <time>2017-06-22T07:42:32Z</time>
      </trkpt>
      <trkpt lat="65.036005033180118" lon="11.873475965112448">
        <ele>21.289999999999999</ele>
        <time>2017-06-22T07:42:41Z</time>
      </trkpt>
      <trkpt lat="65.038419021293521" lon="11.879776977002621">
        <ele>31.859999999999999</ele>
        <time>2017-06-22T07:42:58Z</time>
      </trkpt>
      <trkpt lat="65.040335962548852" lon="11.884757000952959">
        <ele>26.57</ele>
        <time>2017-06-22T07:43:12Z</time>
      </trkpt>
      <trkpt lat="65.042263967916369" lon="11.889581037685275">
        <ele>25.609999999999999</ele>
        <time>2017-06-22T07:43:26Z</time>
      </trkpt>
      <trkpt lat="65.043550003319979" lon="11.892137015238404">
        <ele>30.420000000000002</ele>
        <time>2017-06-22T07:43:35Z</time>
      </trkpt>
      <trkpt lat="65.043888967484236" lon="11.893042009323835">
        <ele>31.859999999999999</ele>
        <time>2017-06-22T07:43:38Z</time>
      </trkpt>
      <trkpt lat="65.044015031307936" lon="11.893269997090101">
        <ele>32.82</ele>
        <time>2017-06-22T07:43:39Z</time>
      </trkpt>
      <trkpt lat="65.044156014919281" lon="11.893431013450027">
        <ele>34.259999999999998</ele>
        <time>2017-06-22T07:43:40Z</time>
      </trkpt>
      <trkpt lat="65.04430403932929" lon="11.893519023433328">
        <ele>35.710000000000001</ele>
        <time>2017-06-22T07:43:41Z</time>
      </trkpt>
      <trkpt lat="65.044458014890552" lon="11.893545007333159">
        <ele>36.670000000000002</ele>
        <time>2017-06-22T07:43:42Z</time>
      </trkpt>
      <trkpt lat="65.044620037078857" lon="11.893507037311792">
        <ele>38.109999999999999</ele>
        <time>2017-06-22T07:43:43Z</time>
      </trkpt>
      <trkpt lat="65.044782981276512" lon="11.893432019278407">
        <ele>39.07</ele>
        <time>2017-06-22T07:43:44Z</time>
      </trkpt>
      <trkpt lat="65.044947015121579" lon="11.893352977931499">
        <ele>39.07</ele>
        <time>2017-06-22T07:43:45Z</time>
      </trkpt>
      <trkpt lat="65.045446995645761" lon="11.893150974065065">
        <ele>38.109999999999999</ele>
        <time>2017-06-22T07:43:48Z</time>
      </trkpt>
      <trkpt lat="65.04561698064208" lon="11.893121972680092">
        <ele>37.149999999999999</ele>
        <time>2017-06-22T07:43:49Z</time>
      </trkpt>
      <trkpt lat="65.045785959810019" lon="11.893131025135517">
        <ele>36.189999999999998</ele>
        <time>2017-06-22T07:43:50Z</time>
      </trkpt>
      <trkpt lat="65.045948987826705" lon="11.893172012642026">
        <ele>35.229999999999997</ele>
        <time>2017-06-22T07:43:51Z</time>
      </trkpt>
      <trkpt lat="65.046102041378617" lon="11.893276032060385">
        <ele>32.82</ele>
        <time>2017-06-22T07:43:52Z</time>
      </trkpt>
      <trkpt lat="65.046243024989963" lon="11.893413998186588">
        <ele>30.899999999999999</ele>
        <time>2017-06-22T07:43:53Z</time>
      </trkpt>
      <trkpt lat="65.046370010823011" lon="11.893594963476062">
        <ele>29.940000000000001</ele>
        <time>2017-06-22T07:43:54Z</time>
      </trkpt>
      <trkpt lat="65.046490961685777" lon="11.893824962899089">
        <ele>28.02</ele>
        <time>2017-06-22T07:43:55Z</time>
      </trkpt>
      <trkpt lat="65.046600010246038" lon="11.894098967313766">
        <ele>26.57</ele>
        <time>2017-06-22T07:43:56Z</time>
      </trkpt>
      <trkpt lat="65.046705035492778" lon="11.894409013912082">
        <ele>25.129999999999999</ele>
        <time>2017-06-22T07:43:57Z</time>
      </trkpt>
      <trkpt lat="65.048011019825935" lon="11.898417994379997">
        <ele>9.75</ele>
        <time>2017-06-22T07:44:09Z</time>
      </trkpt>
      <trkpt lat="65.049136038869619" lon="11.902596959844232">
        <ele>7.83</ele>
        <time>2017-06-22T07:44:21Z</time>
      </trkpt>
      <trkpt lat="65.050646038725972" lon="11.908362032845616">
        <ele>11.19</ele>
        <time>2017-06-22T07:44:37Z</time>
      </trkpt>
      <trkpt lat="65.051599983125925" lon="11.910724975168705">
        <ele>12.630000000000001</ele>
        <time>2017-06-22T07:44:45Z</time>
      </trkpt>
      <trkpt lat="65.053153987973928" lon="11.913897022604942">
        <ele>17.440000000000001</ele>
        <time>2017-06-22T07:44:57Z</time>
      </trkpt>
      <trkpt lat="65.053986981511116" lon="11.915938016027212">
        <ele>18.879999999999999</ele>
        <time>2017-06-22T07:45:04Z</time>
      </trkpt>
      <trkpt lat="65.054784016683698" lon="11.918642017990351">
        <ele>26.09</ele>
        <time>2017-06-22T07:45:12Z</time>
      </trkpt>
      <trkpt lat="65.056039039045572" lon="11.921604014933109">
        <ele>40.990000000000002</ele>
        <time>2017-06-22T07:45:23Z</time>
      </trkpt>
      <trkpt lat="65.056468024849892" lon="11.922580003738403">
        <ele>45.799999999999997</ele>
        <time>2017-06-22T07:45:27Z</time>
      </trkpt>
      <trkpt lat="65.056542037054896" lon="11.92283196374774">
        <ele>46.280000000000001</ele>
        <time>2017-06-22T07:45:28Z</time>
      </trkpt>
      <trkpt lat="65.056600961834192" lon="11.923112003132701">
        <ele>46.759999999999998</ele>
        <time>2017-06-22T07:45:29Z</time>
      </trkpt>
      <trkpt lat="65.056641027331352" lon="11.923407968133688">
        <ele>46.280000000000001</ele>
        <time>2017-06-22T07:45:30Z</time>
      </trkpt>
      <trkpt lat="65.056657958775759" lon="11.923706028610468">
        <ele>45.799999999999997</ele>
        <time>2017-06-22T07:45:31Z</time>
      </trkpt>
      <trkpt lat="65.056658964604139" lon="11.92401397973299">
        <ele>44.840000000000003</ele>
        <time>2017-06-22T07:45:32Z</time>
      </trkpt>
      <trkpt lat="65.056644966825843" lon="11.924328971654177">
        <ele>44.359999999999999</ele>
        <time>2017-06-22T07:45:33Z</time>
      </trkpt>
      <trkpt lat="65.05661403760314" lon="11.924665002152324">
        <ele>43.399999999999999</ele>
        <time>2017-06-22T07:45:34Z</time>
      </trkpt>
      <trkpt lat="65.056575983762741" lon="11.925010001286864">
        <ele>42.920000000000002</ele>
        <time>2017-06-22T07:45:35Z</time>
      </trkpt>
      <trkpt lat="65.056384038180113" lon="11.928753023967147">
        <ele>32.340000000000003</ele>
        <time>2017-06-22T07:45:45Z</time>
      </trkpt>
      <trkpt lat="65.056453021243215" lon="11.931359963491559">
        <ele>24.170000000000002</ele>
        <time>2017-06-22T07:45:52Z</time>
      </trkpt>
      <trkpt lat="65.056498032063246" lon="11.931723989546299">
        <ele>23.210000000000001</ele>
        <time>2017-06-22T07:45:53Z</time>
      </trkpt>
      <trkpt lat="65.056559974327683" lon="11.932081980630755">
        <ele>22.25</ele>
        <time>2017-06-22T07:45:54Z</time>
      </trkpt>
      <trkpt lat="65.056629041209817" lon="11.932429997250438">
        <ele>21.289999999999999</ele>
        <time>2017-06-22T07:45:55Z</time>
      </trkpt>
      <trkpt lat="65.056707998737693" lon="11.932764016091824">
        <ele>20.809999999999999</ele>
        <time>2017-06-22T07:45:56Z</time>
      </trkpt>
      <trkpt lat="65.057420041412115" lon="11.935385037213564">
        <ele>13.6</ele>
        <time>2017-06-22T07:46:04Z</time>
      </trkpt>
      <trkpt lat="65.057538980618119" lon="11.935667004436255">
        <ele>13.119999999999999</ele>
        <time>2017-06-22T07:46:05Z</time>
      </trkpt>
      <trkpt lat="65.057665966451168" lon="11.935927011072636">
        <ele>12.630000000000001</ele>
        <time>2017-06-22T07:46:06Z</time>
      </trkpt>
      <trkpt lat="65.058474987745285" lon="11.937323017045856">
        <ele>12.630000000000001</ele>
        <time>2017-06-22T07:46:12Z</time>
      </trkpt>
      <trkpt lat="65.058589987456799" lon="11.937604984268546">
        <ele>12.630000000000001</ele>
        <time>2017-06-22T07:46:13Z</time>
      </trkpt>
      <trkpt lat="65.058689983561635" lon="11.937917964532971">
        <ele>13.119999999999999</ele>
        <time>2017-06-22T07:46:14Z</time>
      </trkpt>
      <trkpt lat="65.058771036565304" lon="11.938259024173021">
        <ele>13.6</ele>
        <time>2017-06-22T07:46:15Z</time>
      </trkpt>
      <trkpt lat="65.058825016021729" lon="11.938633024692535">
        <ele>13.6</ele>
        <time>2017-06-22T07:46:16Z</time>
      </trkpt>
      <trkpt lat="65.058858040720224" lon="11.939032003283501">
        <ele>14.08</ele>
        <time>2017-06-22T07:46:17Z</time>
      </trkpt>
      <trkpt lat="65.058882012963295" lon="11.939431987702847">
        <ele>13.6</ele>
        <time>2017-06-22T07:46:18Z</time>
      </trkpt>
      <trkpt lat="65.059144031256437" lon="11.945398980751634">
        <ele>15.52</ele>
        <time>2017-06-22T07:46:33Z</time>
      </trkpt>
      <trkpt lat="65.059113018214703" lon="11.945789996534586">
        <ele>15.039999999999999</ele>
        <time>2017-06-22T07:46:34Z</time>
      </trkpt>
      <trkpt lat="65.05906498990953" lon="11.946177994832397">
        <ele>14.08</ele>
        <time>2017-06-22T07:46:35Z</time>
      </trkpt>
      <trkpt lat="65.058817975223064" lon="11.948528029024601">
        <ele>10.23</ele>
        <time>2017-06-22T07:46:41Z</time>
      </trkpt>
      <trkpt lat="65.058824010193348" lon="11.94893597625196">
        <ele>9.75</ele>
        <time>2017-06-22T07:46:42Z</time>
      </trkpt>
      <trkpt lat="65.058848988264799" lon="11.949339983984828">
        <ele>9.75</ele>
        <time>2017-06-22T07:46:43Z</time>
      </trkpt>
      <trkpt lat="65.058891987428069" lon="11.949723958969116">
        <ele>9.27</ele>
        <time>2017-06-22T07:46:44Z</time>
      </trkpt>
      <trkpt lat="65.058954013511539" lon="11.950103994458914">
        <ele>9.27</ele>
        <time>2017-06-22T07:46:45Z</time>
      </trkpt>
      <trkpt lat="65.059030959382653" lon="11.950463997200131">
        <ele>9.75</ele>
        <time>2017-06-22T07:46:46Z</time>
      </trkpt>
      <trkpt lat="65.059125004336238" lon="11.950806984677911">
        <ele>9.75</ele>
        <time>2017-06-22T07:46:47Z</time>
      </trkpt>
      <trkpt lat="65.059235980734229" lon="11.951123988255858">
        <ele>9.75</ele>
        <time>2017-06-22T07:46:48Z</time>
      </trkpt>
      <trkpt lat="65.059358021244407" lon="11.951422970741987">
        <ele>9.75</ele>
        <time>2017-06-22T07:46:49Z</time>
      </trkpt>
      <trkpt lat="65.059490036219358" lon="11.951702004298568">
        <ele>8.789999999999999</ele>
        <time>2017-06-22T07:46:50Z</time>
      </trkpt>
      <trkpt lat="65.059626996517181" lon="11.95196402259171">
        <ele>8.310000000000001</ele>
        <time>2017-06-22T07:46:51Z</time>
      </trkpt>
      <trkpt lat="65.060910014435649" lon="11.953530013561249">
        <ele>6.39</ele>
        <time>2017-06-22T07:46:59Z</time>
      </trkpt>
      <trkpt lat="65.062874983996153" lon="11.954514971002936">
        <ele>6.39</ele>
        <time>2017-06-22T07:47:10Z</time>
      </trkpt>
      <trkpt lat="65.064299991354346" lon="11.954137030988932">
        <ele>8.310000000000001</ele>
        <time>2017-06-22T07:47:18Z</time>
      </trkpt>
      <trkpt lat="65.066586993634701" lon="11.952252024784684">
        <ele>12.15</ele>
        <time>2017-06-22T07:47:31Z</time>
      </trkpt>
      <trkpt lat="65.069169038906693" lon="11.950384033843875">
        <ele>13.6</ele>
        <time>2017-06-22T07:47:46Z</time>
      </trkpt>
      <trkpt lat="65.070573007687926" lon="11.950252018868923">
        <ele>15.039999999999999</ele>
        <time>2017-06-22T07:47:54Z</time>
      </trkpt>
      <trkpt lat="65.070724971592426" lon="11.950348997488618">
        <ele>16.48</ele>
        <time>2017-06-22T07:47:55Z</time>
      </trkpt>
      <trkpt lat="65.070874001830816" lon="11.950486963614821">
        <ele>17.440000000000001</ele>
        <time>2017-06-22T07:47:56Z</time>
      </trkpt>
      <trkpt lat="65.071018002927303" lon="11.950658038258553">
        <ele>17.920000000000002</ele>
        <time>2017-06-22T07:47:57Z</time>
      </trkpt>
      <trkpt lat="65.071157980710268" lon="11.950874039903283">
        <ele>18.399999999999999</ele>
        <time>2017-06-22T07:47:58Z</time>
      </trkpt>
      <trkpt lat="65.071299970149994" lon="11.951122982427478">
        <ele>18.399999999999999</ele>
        <time>2017-06-22T07:47:59Z</time>
      </trkpt>
      <trkpt lat="65.072053000330925" lon="11.952274991199374">
        <ele>13.119999999999999</ele>
        <time>2017-06-22T07:48:04Z</time>
      </trkpt>
      <trkpt lat="65.072218962013721" lon="11.95239401422441">
        <ele>12.630000000000001</ele>
        <time>2017-06-22T07:48:05Z</time>
      </trkpt>
      <trkpt lat="65.072387019172311" lon="11.952471965923905">
        <ele>12.630000000000001</ele>
        <time>2017-06-22T07:48:06Z</time>
      </trkpt>
      <trkpt lat="65.074293985962868" lon="11.953730005770922">
        <ele>13.6</ele>
        <time>2017-06-22T07:48:17Z</time>
      </trkpt>
      <trkpt lat="65.074439998716116" lon="11.953958999365568">
        <ele>14.56</ele>
        <time>2017-06-22T07:48:18Z</time>
      </trkpt>
      <trkpt lat="65.074566984549165" lon="11.954224035143852">
        <ele>16</ele>
        <time>2017-06-22T07:48:19Z</time>
      </trkpt>
      <trkpt lat="65.074677038937807" lon="11.95452100597322">
        <ele>16.960000000000001</ele>
        <time>2017-06-22T07:48:20Z</time>
      </trkpt>
      <trkpt lat="65.074773011729121" lon="11.95484597235918">
        <ele>18.399999999999999</ele>
        <time>2017-06-22T07:48:21Z</time>
      </trkpt>
      <trkpt lat="65.074853980913758" lon="11.955192983150482">
        <ele>20.809999999999999</ele>
        <time>2017-06-22T07:48:22Z</time>
      </trkpt>
      <trkpt lat="65.074911983683705" lon="11.955557009205222">
        <ele>22.25</ele>
        <time>2017-06-22T07:48:23Z</time>
      </trkpt>
      <trkpt lat="65.074952971190214" lon="11.955926986411214">
        <ele>24.170000000000002</ele>
        <time>2017-06-22T07:48:24Z</time>
      </trkpt>
      <trkpt lat="65.074976021423936" lon="11.956280032172799">
        <ele>25.129999999999999</ele>
        <time>2017-06-22T07:48:25Z</time>
      </trkpt>
      <trkpt lat="65.074991025030613" lon="11.956610027700663">
        <ele>26.09</ele>
        <time>2017-06-22T07:48:26Z</time>
      </trkpt>
      <trkpt lat="65.075123962014914" lon="11.959202969446778">
        <ele>28.98</ele>
        <time>2017-06-22T07:48:34Z</time>
      </trkpt>
      <trkpt lat="65.075184982270002" lon="11.959561966359615">
        <ele>28.98</ele>
        <time>2017-06-22T07:48:35Z</time>
      </trkpt>
      <trkpt lat="65.075254971161485" lon="11.959919035434723">
        <ele>28.98</ele>
        <time>2017-06-22T07:48:36Z</time>
      </trkpt>
      <trkpt lat="65.075336024165154" lon="11.960270991548896">
        <ele>29.460000000000001</ele>
        <time>2017-06-22T07:48:37Z</time>
      </trkpt>
      <trkpt lat="65.075424034148455" lon="11.960614984855056">
        <ele>29.940000000000001</ele>
        <time>2017-06-22T07:48:38Z</time>
      </trkpt>
      <trkpt lat="65.07674602791667" lon="11.965057980269194">
        <ele>43.399999999999999</ele>
        <time>2017-06-22T07:48:51Z</time>
      </trkpt>
      <trkpt lat="65.077634006738663" lon="11.968610985204577">
        <ele>49.649999999999999</ele>
        <time>2017-06-22T07:49:01Z</time>
      </trkpt>
      <trkpt lat="65.078803030773997" lon="11.97439600713551">
        <ele>56.859999999999999</ele>
        <time>2017-06-22T07:49:16Z</time>
      </trkpt>
      <trkpt lat="65.080242035910487" lon="11.981495982035995">
        <ele>71.760000000000005</ele>
        <time>2017-06-22T07:49:34Z</time>
      </trkpt>
      <trkpt lat="65.081485994160175" lon="11.987615022808313">
        <ele>57.340000000000003</ele>
        <time>2017-06-22T07:49:49Z</time>
      </trkpt>
      <trkpt lat="65.083162039518356" lon="11.995863988995552">
        <ele>58.780000000000001</ele>
        <time>2017-06-22T07:50:08Z</time>
      </trkpt>
      <trkpt lat="65.084788966923952" lon="12.003837022930384">
        <ele>56.369999999999997</ele>
        <time>2017-06-22T07:50:26Z</time>
      </trkpt>
      <trkpt lat="65.086666010320187" lon="12.013132972642779">
        <ele>63.579999999999998</ele>
        <time>2017-06-22T07:50:47Z</time>
      </trkpt>
      <trkpt lat="65.087251989170909" lon="12.016982026398182">
        <ele>58.780000000000001</ele>
        <time>2017-06-22T07:50:56Z</time>
      </trkpt>
      <trkpt lat="65.087226005271077" lon="12.020123982802033">
        <ele>53.009999999999998</ele>
        <time>2017-06-22T07:51:03Z</time>
      </trkpt>
      <trkpt lat="65.086727030575275" lon="12.023678999394178">
        <ele>45.32</ele>
        <time>2017-06-22T07:51:11Z</time>
      </trkpt>
      <trkpt lat="65.085767973214388" lon="12.029813965782523">
        <ele>28.5</ele>
        <time>2017-06-22T07:51:25Z</time>
      </trkpt>
      <trkpt lat="65.085439989343286" lon="12.031302005052567">
        <ele>27.530000000000001</ele>
        <time>2017-06-22T07:51:29Z</time>
      </trkpt>
      <trkpt lat="65.085330018773675" lon="12.031624959781766">
        <ele>27.050000000000001</ele>
        <time>2017-06-22T07:51:30Z</time>
      </trkpt>
      <trkpt lat="65.085200015455484" lon="12.03193299472332">
        <ele>26.57</ele>
        <time>2017-06-22T07:51:31Z</time>
      </trkpt>
      <trkpt lat="65.085056014358997" lon="12.032228037714958">
        <ele>26.57</ele>
        <time>2017-06-22T07:51:32Z</time>
      </trkpt>
      <trkpt lat="65.084904972463846" lon="12.032508999109268">
        <ele>27.050000000000001</ele>
        <time>2017-06-22T07:51:33Z</time>
      </trkpt>
      <trkpt lat="65.084749991074204" lon="12.032766994088888">
        <ele>27.530000000000001</ele>
        <time>2017-06-22T07:51:34Z</time>
      </trkpt>
      <trkpt lat="65.08459098637104" lon="12.032990036532283">
        <ele>28.02</ele>
        <time>2017-06-22T07:51:35Z</time>
      </trkpt>
      <trkpt lat="65.084425024688244" lon="12.033187011256814">
        <ele>28.02</ele>
        <time>2017-06-22T07:51:36Z</time>
      </trkpt>
      <trkpt lat="65.083395978435874" lon="12.033891007304192">
        <ele>24.649999999999999</ele>
        <time>2017-06-22T07:51:42Z</time>
      </trkpt>
      <trkpt lat="65.081149041652679" lon="12.034793989732862">
        <ele>12.630000000000001</ele>
        <time>2017-06-22T07:51:54Z</time>
      </trkpt>
      <trkpt lat="65.079868035390973" lon="12.035676017403603">
        <ele>4.46</ele>
        <time>2017-06-22T07:52:02Z</time>
      </trkpt>
      <trkpt lat="65.079078041017056" lon="12.037334963679314">
        <ele>6.87</ele>
        <time>2017-06-22T07:52:08Z</time>
      </trkpt>
      <trkpt lat="65.078419977799058" lon="12.0384840387851">
        <ele>9.27</ele>
        <time>2017-06-22T07:52:13Z</time>
      </trkpt>
      <trkpt lat="65.07827203720808" lon="12.038597026839852">
        <ele>9.27</ele>
        <time>2017-06-22T07:52:14Z</time>
      </trkpt>
      <trkpt lat="65.078116971999407" lon="12.03867900185287">
        <ele>9.75</ele>
        <time>2017-06-22T07:52:15Z</time>
      </trkpt>
      <trkpt lat="65.077939024195075" lon="12.038732981309295">
        <ele>9.75</ele>
        <time>2017-06-22T07:52:16Z</time>
      </trkpt>
      <trkpt lat="65.077770967036486" lon="12.038751002401114">
        <ele>10.23</ele>
        <time>2017-06-22T07:52:17Z</time>
      </trkpt>
      <trkpt lat="65.077587990090251" lon="12.038767011836171">
        <ele>9.75</ele>
        <time>2017-06-22T07:52:18Z</time>
      </trkpt>
      <trkpt lat="65.077398978173733" lon="12.038806993514299">
        <ele>10.23</ele>
        <time>2017-06-22T07:52:19Z</time>
      </trkpt>
      <trkpt lat="65.07636297494173" lon="12.039080997928977">
        <ele>14.08</ele>
        <time>2017-06-22T07:52:25Z</time>
      </trkpt>
      <trkpt lat="65.076226014643908" lon="12.039211001247168">
        <ele>14.56</ele>
        <time>2017-06-22T07:52:26Z</time>
      </trkpt>
      <trkpt lat="65.07610104046762" lon="12.039398001506925">
        <ele>15.039999999999999</ele>
        <time>2017-06-22T07:52:27Z</time>
      </trkpt>
      <trkpt lat="65.075987968593836" lon="12.039634035900235">
        <ele>15.52</ele>
        <time>2017-06-22T07:52:28Z</time>
      </trkpt>
      <trkpt lat="65.075889984145761" lon="12.039920026436448">
        <ele>15.52</ele>
        <time>2017-06-22T07:52:29Z</time>
      </trkpt>
      <trkpt lat="65.075810020789504" lon="12.040245998650789">
        <ele>15.52</ele>
        <time>2017-06-22T07:52:30Z</time>
      </trkpt>
      <trkpt lat="65.075744977220893" lon="12.040604995563626">
        <ele>14.56</ele>
        <time>2017-06-22T07:52:31Z</time>
      </trkpt>
      <trkpt lat="65.075697032734752" lon="12.040974972769618">
        <ele>14.56</ele>
        <time>2017-06-22T07:52:32Z</time>
      </trkpt>
      <trkpt lat="65.075655961409211" lon="12.041366994380951">
        <ele>13.119999999999999</ele>
        <time>2017-06-22T07:52:33Z</time>
      </trkpt>
      <trkpt lat="65.075462004169822" lon="12.043701019138098">
        <ele>6.87</ele>
        <time>2017-06-22T07:52:39Z</time>
      </trkpt>
      <trkpt lat="65.075465021654963" lon="12.044091029092669">
        <ele>6.39</ele>
        <time>2017-06-22T07:52:40Z</time>
      </trkpt>
      <trkpt lat="65.075640035793185" lon="12.047631964087486">
        <ele>1.1</ele>
        <time>2017-06-22T07:52:50Z</time>
      </trkpt>
      <trkpt lat="65.075634000822902" lon="12.047844026237726">
        <ele>1.1</ele>
        <time>2017-06-22T07:52:51Z</time>
      </trkpt>
      <trkpt lat="65.075613968074322" lon="12.048018034547567">
        <ele>0.62</ele>
        <time>2017-06-22T07:52:52Z</time>
      </trkpt>
      <trkpt lat="65.075575998052955" lon="12.048150971531868">
        <ele>0.62</ele>
        <time>2017-06-22T07:52:53Z</time>
      </trkpt>
      <trkpt lat="65.075530987232924" lon="12.048257002606988">
        <ele>0.62</ele>
        <time>2017-06-22T07:52:54Z</time>
      </trkpt>
      <trkpt lat="65.075492011383176" lon="12.048335038125515">
        <ele>0.62</ele>
        <time>2017-06-22T07:52:55Z</time>
      </trkpt>
      <trkpt lat="65.075464015826583" lon="12.048396980389953">
        <ele>0.14</ele>
        <time>2017-06-22T07:52:56Z</time>
      </trkpt>
      <trkpt lat="65.075443983078003" lon="12.048491025343537">
        <ele>0.62</ele>
        <time>2017-06-22T07:52:57Z</time>
      </trkpt>
      <trkpt lat="65.075439959764481" lon="12.048620022833347">
        <ele>0.14</ele>
        <time>2017-06-22T07:52:58Z</time>
      </trkpt>
      <trkpt lat="65.075463009998202" lon="12.048765029758215">
        <ele>0.14</ele>
        <time>2017-06-22T07:52:59Z</time>
      </trkpt>
      <trkpt lat="65.075497040525079" lon="12.04892797395587">
        <ele>0.14</ele>
        <time>2017-06-22T07:53:00Z</time>
      </trkpt>
      <trkpt lat="65.075774984434247" lon="12.050983970984817">
        <ele>1.1</ele>
        <time>2017-06-22T07:53:08Z</time>
      </trkpt>
      <trkpt lat="65.075861988589168" lon="12.054018974304199">
        <ele>2.54</ele>
        <time>2017-06-22T07:53:16Z</time>
      </trkpt>
      <trkpt lat="65.076044965535402" lon="12.060459963977337">
        <ele>6.87</ele>
        <time>2017-06-22T07:53:31Z</time>
      </trkpt>
      <trkpt lat="65.07657503709197" lon="12.063677022233605">
        <ele>6.87</ele>
        <time>2017-06-22T07:53:39Z</time>
      </trkpt>
      <trkpt lat="65.077318008989096" lon="12.067027017474174">
        <ele>6.87</ele>
        <time>2017-06-22T07:53:48Z</time>
      </trkpt>
      <trkpt lat="65.077885966747999" lon="12.071315031498671">
        <ele>8.310000000000001</ele>
        <time>2017-06-22T07:53:59Z</time>
      </trkpt>
      <trkpt lat="65.077869035303593" lon="12.072136960923672">
        <ele>7.83</ele>
        <time>2017-06-22T07:54:01Z</time>
      </trkpt>
      <trkpt lat="65.077845985069871" lon="12.072545997798443">
        <ele>8.789999999999999</ele>
        <time>2017-06-22T07:54:02Z</time>
      </trkpt>
      <trkpt lat="65.07780198007822" lon="12.072951011359692">
        <ele>9.27</ele>
        <time>2017-06-22T07:54:03Z</time>
      </trkpt>
      <trkpt lat="65.077743977308273" lon="12.073354013264179">
        <ele>9.27</ele>
        <time>2017-06-22T07:54:04Z</time>
      </trkpt>
      <trkpt lat="65.07767197676003" lon="12.073752991855145">
        <ele>9.27</ele>
        <time>2017-06-22T07:54:05Z</time>
      </trkpt>
      <trkpt lat="65.077591007575393" lon="12.074150964617729">
        <ele>9.27</ele>
        <time>2017-06-22T07:54:06Z</time>
      </trkpt>
      <trkpt lat="65.076634967699647" lon="12.078257007524371">
        <ele>16.960000000000001</ele>
        <time>2017-06-22T07:54:16Z</time>
      </trkpt>
      <trkpt lat="65.0762730371207" lon="12.08184496499598">
        <ele>24.170000000000002</ele>
        <time>2017-06-22T07:54:24Z</time>
      </trkpt>
      <trkpt lat="65.075851008296013" lon="12.085891999304295">
        <ele>25.609999999999999</ele>
        <time>2017-06-22T07:54:33Z</time>
      </trkpt>
      <trkpt lat="65.075851008296013" lon="12.086346969008446">
        <ele>26.09</ele>
        <time>2017-06-22T07:54:34Z</time>
      </trkpt>
      <trkpt lat="65.075880009680986" lon="12.086779978126287">
        <ele>26.57</ele>
        <time>2017-06-22T07:54:35Z</time>
      </trkpt>
      <trkpt lat="65.075927032157779" lon="12.08717099390924">
        <ele>27.050000000000001</ele>
        <time>2017-06-22T07:54:36Z</time>
      </trkpt>
      <trkpt lat="65.075990986078978" lon="12.08753501996398">
        <ele>28.5</ele>
        <time>2017-06-22T07:54:37Z</time>
      </trkpt>
      <trkpt lat="65.076070027425885" lon="12.087868032976985">
        <ele>29.460000000000001</ele>
        <time>2017-06-22T07:54:38Z</time>
      </trkpt>
      <trkpt lat="65.076154014095664" lon="12.088191993534565">
        <ele>30.420000000000002</ele>
        <time>2017-06-22T07:54:39Z</time>
      </trkpt>
      <trkpt lat="65.077146012336016" lon="12.091740975156426">
        <ele>39.549999999999997</ele>
        <time>2017-06-22T07:54:50Z</time>
      </trkpt>
      <trkpt lat="65.077383974567056" lon="12.092217989265919">
        <ele>41.950000000000003</ele>
        <time>2017-06-22T07:54:52Z</time>
      </trkpt>
      <trkpt lat="65.077519007027149" lon="12.09241203032434">
        <ele>42.920000000000002</ele>
        <time>2017-06-22T07:54:53Z</time>
      </trkpt>
      <trkpt lat="65.077669965103269" lon="12.09256500005722">
        <ele>45.32</ele>
        <time>2017-06-22T07:54:54Z</time>
      </trkpt>
      <trkpt lat="65.077823018655181" lon="12.092690980061889">
        <ele>46.759999999999998</ele>
        <time>2017-06-22T07:54:55Z</time>
      </trkpt>
      <trkpt lat="65.077978000044823" lon="12.092770021408796">
        <ele>48.200000000000003</ele>
        <time>2017-06-22T07:54:56Z</time>
      </trkpt>
      <trkpt lat="65.07814303971827" lon="12.092805979773402">
        <ele>49.159999999999997</ele>
        <time>2017-06-22T07:54:57Z</time>
      </trkpt>
      <trkpt lat="65.078313024714589" lon="12.092794999480247">
        <ele>51.090000000000003</ele>
        <time>2017-06-22T07:54:58Z</time>
      </trkpt>
      <trkpt lat="65.078484015539289" lon="12.092750994488597">
        <ele>53.009999999999998</ele>
        <time>2017-06-22T07:54:59Z</time>
      </trkpt>
      <trkpt lat="65.078656012192369" lon="12.092662984505296">
        <ele>54.93</ele>
        <time>2017-06-22T07:55:00Z</time>
      </trkpt>
      <trkpt lat="65.078822979703546" lon="12.092547984793782">
        <ele>56.369999999999997</ele>
        <time>2017-06-22T07:55:01Z</time>
      </trkpt>
      <trkpt lat="65.078991036862135" lon="12.092420998960733">
        <ele>57.82</ele>
        <time>2017-06-22T07:55:02Z</time>
      </trkpt>
      <trkpt lat="65.080904960632324" lon="12.090385034680367">
        <ele>69.349999999999994</ele>
        <time>2017-06-22T07:55:14Z</time>
      </trkpt>
      <trkpt lat="65.081813978031278" lon="12.089046025648713">
        <ele>76.079999999999998</ele>
        <time>2017-06-22T07:55:20Z</time>
      </trkpt>
      <trkpt lat="65.081984968855977" lon="12.088919039815664">
        <ele>77.519999999999996</ele>
        <time>2017-06-22T07:55:21Z</time>
      </trkpt>
      <trkpt lat="65.08216199465096" lon="12.088839998468757">
        <ele>78.969999999999999</ele>
        <time>2017-06-22T07:55:22Z</time>
      </trkpt>
      <trkpt lat="65.082341032102704" lon="12.088800016790628">
        <ele>80.409999999999997</ele>
        <time>2017-06-22T07:55:23Z</time>
      </trkpt>
      <trkpt lat="65.0825260207057" lon="12.088808985427022">
        <ele>81.849999999999994</ele>
        <time>2017-06-22T07:55:24Z</time>
      </trkpt>
      <trkpt lat="65.082712015137076" lon="12.088834969326854">
        <ele>83.290000000000006</ele>
        <time>2017-06-22T07:55:25Z</time>
      </trkpt>
      <trkpt lat="65.083737038075924" lon="12.088847039267421">
        <ele>89.540000000000006</ele>
        <time>2017-06-22T07:55:31Z</time>
      </trkpt>
      <trkpt lat="65.083891013637185" lon="12.08876296877861">
        <ele>90.019999999999996</ele>
        <time>2017-06-22T07:55:32Z</time>
      </trkpt>
      <trkpt lat="65.084033003076911" lon="12.088649980723858">
        <ele>89.540000000000006</ele>
        <time>2017-06-22T07:55:33Z</time>
      </trkpt>
      <trkpt lat="65.084171975031495" lon="12.088500028476119">
        <ele>89.540000000000006</ele>
        <time>2017-06-22T07:55:34Z</time>
      </trkpt>
      <trkpt lat="65.084315976127982" lon="12.088316967710853">
        <ele>89.540000000000006</ele>
        <time>2017-06-22T07:55:35Z</time>
      </trkpt>
      <trkpt lat="65.085270004346967" lon="12.087081978097558">
        <ele>93.870000000000005</ele>
        <time>2017-06-22T07:55:41Z</time>
      </trkpt>
      <trkpt lat="65.086387982591987" lon="12.086177989840508">
        <ele>97.230000000000004</ele>
        <time>2017-06-22T07:55:47Z</time>
      </trkpt>
      <trkpt lat="65.086542963981628" lon="12.085930975154042">
        <ele>97.709999999999994</ele>
        <time>2017-06-22T07:55:48Z</time>
      </trkpt>
      <trkpt lat="65.086683025583625" lon="12.085630986839533">
        <ele>98.189999999999998</ele>
        <time>2017-06-22T07:55:49Z</time>
      </trkpt>
      <trkpt lat="65.086807999759912" lon="12.085310965776443">
        <ele>98.670000000000002</ele>
        <time>2017-06-22T07:55:50Z</time>
      </trkpt>
      <trkpt lat="65.086927022784948" lon="12.084974013268948">
        <ele>99.150000000000006</ele>
        <time>2017-06-22T07:55:51Z</time>
      </trkpt>
      <trkpt lat="65.087472014129162" lon="12.083771964535117">
        <ele>100.11</ele>
        <time>2017-06-22T07:55:55Z</time>
      </trkpt>
      <trkpt lat="65.087639987468719" lon="12.083549005910754">
        <ele>99.629999999999995</ele>
        <time>2017-06-22T07:55:56Z</time>
      </trkpt>
      <trkpt lat="65.087817013263702" lon="12.083372985944152">
        <ele>100.11</ele>
        <time>2017-06-22T07:55:57Z</time>
      </trkpt>
      <trkpt lat="65.087996972724795" lon="12.08323803730309">
        <ele>99.150000000000006</ele>
        <time>2017-06-22T07:55:58Z</time>
      </trkpt>
      <trkpt lat="65.088175004348159" lon="12.083142986521125">
        <ele>100.11</ele>
        <time>2017-06-22T07:55:59Z</time>
      </trkpt>
      <trkpt lat="65.088357981294394" lon="12.08308800123632">
        <ele>101.56</ele>
        <time>2017-06-22T07:56:00Z</time>
      </trkpt>
      <trkpt lat="65.08854397572577" lon="12.083078026771545">
        <ele>103</ele>
        <time>2017-06-22T07:56:01Z</time>
      </trkpt>
      <trkpt lat="65.088725024834275" lon="12.083094958215952">
        <ele>103.95999999999999</ele>
        <time>2017-06-22T07:56:02Z</time>
      </trkpt>
      <trkpt lat="65.088906995952129" lon="12.083156984299421">
        <ele>104.92</ele>
        <time>2017-06-22T07:56:03Z</time>
      </trkpt>
      <trkpt lat="65.089088967069983" lon="12.083258992061019">
        <ele>106.36</ele>
        <time>2017-06-22T07:56:04Z</time>
      </trkpt>
      <trkpt lat="65.089263981208205" lon="12.083386983722448">
        <ele>107.31999999999999</ele>
        <time>2017-06-22T07:56:05Z</time>
      </trkpt>
      <trkpt lat="65.090661998838186" lon="12.085088007152081">
        <ele>109.25</ele>
        <time>2017-06-22T07:56:13Z</time>
      </trkpt>
      <trkpt lat="65.092125982046127" lon="12.086359960958362">
        <ele>113.56999999999999</ele>
        <time>2017-06-22T07:56:21Z</time>
      </trkpt>
      <trkpt lat="65.094087012112141" lon="12.086916016414762">
        <ele>113.09</ele>
        <time>2017-06-22T07:56:31Z</time>
      </trkpt>
      <trkpt lat="65.097296023741364" lon="12.087709028273821">
        <ele>112.61</ele>
        <time>2017-06-22T07:56:47Z</time>
      </trkpt>
      <trkpt lat="65.097482018172741" lon="12.087892005220056">
        <ele>112.61</ele>
        <time>2017-06-22T07:56:48Z</time>
      </trkpt>
      <trkpt lat="65.097657032310963" lon="12.088128039613366">
        <ele>112.13</ele>
        <time>2017-06-22T07:56:49Z</time>
      </trkpt>
      <trkpt lat="65.097821988165379" lon="12.088400032371283">
        <ele>111.65000000000001</ele>
        <time>2017-06-22T07:56:50Z</time>
      </trkpt>
      <trkpt lat="65.097975041717291" lon="12.088706977665424">
        <ele>111.65000000000001</ele>
        <time>2017-06-22T07:56:51Z</time>
      </trkpt>
      <trkpt lat="65.098119964823127" lon="12.08903999067843">
        <ele>111.17</ele>
        <time>2017-06-22T07:56:52Z</time>
      </trkpt>
      <trkpt lat="65.099411029368639" lon="12.091423971578479">
        <ele>108.77</ele>
        <time>2017-06-22T07:57:00Z</time>
      </trkpt>
      <trkpt lat="65.100677032023668" lon="12.092529963701963">
        <ele>105.88</ele>
        <time>2017-06-22T07:57:07Z</time>
      </trkpt>
      <trkpt lat="65.10328397154808" lon="12.092776978388429">
        <ele>100.59999999999999</ele>
        <time>2017-06-22T07:57:20Z</time>
      </trkpt>
      <trkpt lat="65.104061979800463" lon="12.092662984505296">
        <ele>101.56</ele>
        <time>2017-06-22T07:57:24Z</time>
      </trkpt>
      <trkpt lat="65.104245962575078" lon="12.092545973137021">
        <ele>102.52</ele>
        <time>2017-06-22T07:57:25Z</time>
      </trkpt>
      <trkpt lat="65.10442198254168" lon="12.092381017282605">
        <ele>103.48</ele>
        <time>2017-06-22T07:57:26Z</time>
      </trkpt>
      <trkpt lat="65.104589033871889" lon="12.092160992324352">
        <ele>104.44</ele>
        <time>2017-06-22T07:57:27Z</time>
      </trkpt>
      <trkpt lat="65.104740997776389" lon="12.091899979859591">
        <ele>105.40000000000001</ele>
        <time>2017-06-22T07:57:28Z</time>
      </trkpt>
      <trkpt lat="65.104882987216115" lon="12.091606026515365">
        <ele>105.88</ele>
        <time>2017-06-22T07:57:29Z</time>
      </trkpt>
      <trkpt lat="65.105019025504589" lon="12.091297991573811">
        <ele>106.84</ele>
        <time>2017-06-22T07:57:30Z</time>
      </trkpt>
      <trkpt lat="65.105452034622431" lon="12.090482013300061">
        <ele>108.77</ele>
        <time>2017-06-22T07:57:33Z</time>
      </trkpt>
      <trkpt lat="65.105611961334944" lon="12.090295013040304">
        <ele>108.77</ele>
        <time>2017-06-22T07:57:34Z</time>
      </trkpt>
      <trkpt lat="65.105777001008391" lon="12.090159980580211">
        <ele>109.25</ele>
        <time>2017-06-22T07:57:35Z</time>
      </trkpt>
      <trkpt lat="65.105942040681839" lon="12.090110024437308">
        <ele>109.25</ele>
        <time>2017-06-22T07:57:36Z</time>
      </trkpt>
      <trkpt lat="65.106106996536255" lon="12.090130979195237">
        <ele>109.25</ele>
        <time>2017-06-22T07:57:37Z</time>
      </trkpt>
      <trkpt lat="65.106259966269135" lon="12.090219995006919">
        <ele>109.25</ele>
        <time>2017-06-22T07:57:38Z</time>
      </trkpt>
      <trkpt lat="65.106398016214371" lon="12.090366007760167">
        <ele>108.77</ele>
        <time>2017-06-22T07:57:39Z</time>
      </trkpt>
      <trkpt lat="65.106520978733897" lon="12.090563988313079">
        <ele>108.77</ele>
        <time>2017-06-22T07:57:40Z</time>
      </trkpt>
      <trkpt lat="65.106632960960269" lon="12.090820977464318">
        <ele>107.81</ele>
        <time>2017-06-22T07:57:41Z</time>
      </trkpt>
      <trkpt lat="65.106726000085473" lon="12.091115014627576">
        <ele>107.31999999999999</ele>
        <time>2017-06-22T07:57:42Z</time>
      </trkpt>
      <trkpt lat="65.106813004240394" lon="12.091444004327059">
        <ele>106.36</ele>
        <time>2017-06-22T07:57:43Z</time>
      </trkpt>
      <trkpt lat="65.10689296759665" lon="12.091796966269612">
        <ele>105.40000000000001</ele>
        <time>2017-06-22T07:57:44Z</time>
      </trkpt>
      <trkpt lat="65.106969997286797" lon="12.092171972617507">
        <ele>103.95999999999999</ele>
        <time>2017-06-22T07:57:45Z</time>
      </trkpt>
      <trkpt lat="65.107551030814648" lon="12.096159998327494">
        <ele>92.420000000000002</ele>
        <time>2017-06-22T07:57:54Z</time>
      </trkpt>
      <trkpt lat="65.107817994430661" lon="12.098540039733052">
        <ele>85.209999999999994</ele>
        <time>2017-06-22T07:57:59Z</time>
      </trkpt>
      <trkpt lat="65.107908016070724" lon="12.098933989182115">
        <ele>84.25</ele>
        <time>2017-06-22T07:58:00Z</time>
      </trkpt>
      <trkpt lat="65.108013041317463" lon="12.099302960559726">
        <ele>82.329999999999998</ele>
        <time>2017-06-22T07:58:01Z</time>
      </trkpt>
      <trkpt lat="65.108140027150512" lon="12.099645026028156">
        <ele>80.890000000000001</ele>
        <time>2017-06-22T07:58:02Z</time>
      </trkpt>
      <trkpt lat="65.108277993276715" lon="12.0999760273844">
        <ele>79.450000000000003</ele>
        <time>2017-06-22T07:58:03Z</time>
      </trkpt>
      <trkpt lat="65.108428029343486" lon="12.100293030962348">
        <ele>78.480000000000004</ele>
        <time>2017-06-22T07:58:04Z</time>
      </trkpt>
      <trkpt lat="65.109998965635896" lon="12.103144973516464">
        <ele>65.030000000000001</ele>
        <time>2017-06-22T07:58:14Z</time>
      </trkpt>
      <trkpt lat="65.111494967713952" lon="12.105143973603845">
        <ele>52.049999999999997</ele>
        <time>2017-06-22T07:58:23Z</time>
      </trkpt>
      <trkpt lat="65.113028017804027" lon="12.107746973633766">
        <ele>37.630000000000003</ele>
        <time>2017-06-22T07:58:32Z</time>
      </trkpt>
      <trkpt lat="65.114803975448012" lon="12.111988971009851">
        <ele>22.25</ele>
        <time>2017-06-22T07:58:44Z</time>
      </trkpt>
      <trkpt lat="65.115842996165156" lon="12.116214958950877">
        <ele>10.23</ele>
        <time>2017-06-22T07:58:54Z</time>
      </trkpt>
      <trkpt lat="65.11647499166429" lon="12.119723036885262">
        <ele>16.48</ele>
        <time>2017-06-22T07:59:02Z</time>
      </trkpt>
      <trkpt lat="65.116642965003848" lon="12.122646979987621">
        <ele>23.690000000000001</ele>
        <time>2017-06-22T07:59:09Z</time>
      </trkpt>
      <trkpt lat="65.116606000810862" lon="12.123464969918132">
        <ele>25.609999999999999</ele>
        <time>2017-06-22T07:59:11Z</time>
      </trkpt>
      <trkpt lat="65.120105026289821" lon="12.134754974395037">
        <ele>11.67</ele>
        <time>2017-06-22T07:59:50Z</time>
      </trkpt>
      <trkpt lat="65.120998034253716" lon="12.137453025206923">
        <ele>25.129999999999999</ele>
        <time>2017-06-22T07:59:57Z</time>
      </trkpt>
      <trkpt lat="65.122054992243648" lon="12.14204203337431">
        <ele>24.649999999999999</ele>
        <time>2017-06-22T08:00:08Z</time>
      </trkpt>
      <trkpt lat="65.122092962265015" lon="12.144464990124106">
        <ele>18.879999999999999</ele>
        <time>2017-06-22T08:00:14Z</time>
      </trkpt>
      <trkpt lat="65.121802026405931" lon="12.147236969321966">
        <ele>10.23</ele>
        <time>2017-06-22T08:00:20Z</time>
      </trkpt>
      <trkpt lat="65.121708987280726" lon="12.148227039724588">
        <ele>7.83</ele>
        <time>2017-06-22T08:00:22Z</time>
      </trkpt>
      <trkpt lat="65.121695995330811" lon="12.148716039955616">
        <ele>6.87</ele>
        <time>2017-06-22T08:00:23Z</time>
      </trkpt>
      <trkpt lat="65.121716028079391" lon="12.149201016873121">
        <ele>6.87</ele>
        <time>2017-06-22T08:00:24Z</time>
      </trkpt>
      <trkpt lat="65.121755003929138" lon="12.149668978527188">
        <ele>6.87</ele>
        <time>2017-06-22T08:00:25Z</time>
      </trkpt>
      <trkpt lat="65.12180102057755" lon="12.150133000686765">
        <ele>6.87</ele>
        <time>2017-06-22T08:00:26Z</time>
      </trkpt>
      <trkpt lat="65.121894981712103" lon="12.1535590197891">
        <ele>5.91</ele>
        <time>2017-06-22T08:00:33Z</time>
      </trkpt>
      <trkpt lat="65.121760033071041" lon="12.161008017137647">
        <ele>9.75</ele>
        <time>2017-06-22T08:00:48Z</time>
      </trkpt>
      <trkpt lat="65.12152299284935" lon="12.164228009060025">
        <ele>5.42</ele>
        <time>2017-06-22T08:00:55Z</time>
      </trkpt>
      <trkpt lat="65.120873982086778" lon="12.167276004329324">
        <ele>5.91</ele>
        <time>2017-06-22T08:01:03Z</time>
      </trkpt>
      <trkpt lat="65.120845986530185" lon="12.167645981535316">
        <ele>5.91</ele>
        <time>2017-06-22T08:01:04Z</time>
      </trkpt>
      <trkpt lat="65.120841041207314" lon="12.168010007590055">
        <ele>5.42</ele>
        <time>2017-06-22T08:01:05Z</time>
      </trkpt>
      <trkpt lat="65.120860990136862" lon="12.168373027816415">
        <ele>4.94</ele>
        <time>2017-06-22T08:01:06Z</time>
      </trkpt>
      <trkpt lat="65.120910024270415" lon="12.168715009465814">
        <ele>4.46</ele>
        <time>2017-06-22T08:01:07Z</time>
      </trkpt>
      <trkpt lat="65.120980013161898" lon="12.169033018872142">
        <ele>4.46</ele>
        <time>2017-06-22T08:01:08Z</time>
      </trkpt>
      <trkpt lat="65.121073974296451" lon="12.169314986094832">
        <ele>4.46</ele>
        <time>2017-06-22T08:01:09Z</time>
      </trkpt>
      <trkpt lat="65.121188974007964" lon="12.169542973861098">
        <ele>3.98</ele>
        <time>2017-06-22T08:01:10Z</time>
      </trkpt>
      <trkpt lat="65.121315959841013" lon="12.169719999656081">
        <ele>4.46</ele>
        <time>2017-06-22T08:01:11Z</time>
      </trkpt>
      <trkpt lat="65.12145702727139" lon="12.169830976054072">
        <ele>4.46</ele>
        <time>2017-06-22T08:01:12Z</time>
      </trkpt>
      <trkpt lat="65.121601028367877" lon="12.169890990480781">
        <ele>4.46</ele>
        <time>2017-06-22T08:01:13Z</time>
      </trkpt>
      <trkpt lat="65.121749974787235" lon="12.169890990480781">
        <ele>4.46</ele>
        <time>2017-06-22T08:01:14Z</time>
      </trkpt>
      <trkpt lat="65.121900010854006" lon="12.169828964397311">
        <ele>4.46</ele>
        <time>2017-06-22T08:01:15Z</time>
      </trkpt>
      <trkpt lat="65.122045017778873" lon="12.169701978564262">
        <ele>4.46</ele>
        <time>2017-06-22T08:01:16Z</time>
      </trkpt>
      <trkpt lat="65.122179966419935" lon="12.169515984132886">
        <ele>4.94</ele>
        <time>2017-06-22T08:01:17Z</time>
      </trkpt>
      <trkpt lat="65.122309969738126" lon="12.169278021901846">
        <ele>4.94</ele>
        <time>2017-06-22T08:01:18Z</time>
      </trkpt>
      <trkpt lat="65.122436033561826" lon="12.169003011658788">
        <ele>4.94</ele>
        <time>2017-06-22T08:01:19Z</time>
      </trkpt>
      <trkpt lat="65.122564025223255" lon="12.168720038607717">
        <ele>5.42</ele>
        <time>2017-06-22T08:01:20Z</time>
      </trkpt>
      <trkpt lat="65.123760960996151" lon="12.166719026863575">
        <ele>3.98</ele>
        <time>2017-06-22T08:01:28Z</time>
      </trkpt>
      <trkpt lat="65.124838035553694" lon="12.165690986439586">
        <ele>3.5</ele>
        <time>2017-06-22T08:01:34Z</time>
      </trkpt>
      <trkpt lat="65.124987987801433" lon="12.165427040308714">
        <ele>4.46</ele>
        <time>2017-06-22T08:01:35Z</time>
      </trkpt>
      <trkpt lat="65.12511296197772" lon="12.165123028680682">
        <ele>4.94</ele>
        <time>2017-06-22T08:01:36Z</time>
      </trkpt>
      <trkpt lat="65.125209018588066" lon="12.164774006232619">
        <ele>5.42</ele>
        <time>2017-06-22T08:01:37Z</time>
      </trkpt>
      <trkpt lat="65.125291999429464" lon="12.164397994056344">
        <ele>6.39</ele>
        <time>2017-06-22T08:01:38Z</time>
      </trkpt>
      <trkpt lat="65.125356959179044" lon="12.164000021293759">
        <ele>7.83</ele>
        <time>2017-06-22T08:01:39Z</time>
      </trkpt>
      <trkpt lat="65.12541001662612" lon="12.163584027439356">
        <ele>8.789999999999999</ele>
        <time>2017-06-22T08:01:40Z</time>
      </trkpt>
      <trkpt lat="65.125460978597403" lon="12.163185970857739">
        <ele>10.23</ele>
        <time>2017-06-22T08:01:41Z</time>
      </trkpt>
      <trkpt lat="65.12564797885716" lon="12.162082996219397">
        <ele>12.630000000000001</ele>
        <time>2017-06-22T08:01:44Z</time>
      </trkpt>
      <trkpt lat="65.1257339771837" lon="12.161755012348294">
        <ele>13.119999999999999</ele>
        <time>2017-06-22T08:01:45Z</time>
      </trkpt>
      <trkpt lat="65.125828022137284" lon="12.161453012377024">
        <ele>13.6</ele>
        <time>2017-06-22T08:01:46Z</time>
      </trkpt>
      <trkpt lat="65.125932041555643" lon="12.161176996305585">
        <ele>14.08</ele>
        <time>2017-06-22T08:01:47Z</time>
      </trkpt>
      <trkpt lat="65.126041006296873" lon="12.160925036296248">
        <ele>14.08</ele>
        <time>2017-06-22T08:01:48Z</time>
      </trkpt>
      <trkpt lat="65.127655025571585" lon="12.159895990043879">
        <ele>16.960000000000001</ele>
        <time>2017-06-22T08:01:58Z</time>
      </trkpt>
      <trkpt lat="65.127768013626337" lon="12.159787025302649">
        <ele>16.960000000000001</ele>
        <time>2017-06-22T08:01:59Z</time>
      </trkpt>
      <trkpt lat="65.127872033044696" lon="12.159600025042892">
        <ele>16.960000000000001</ele>
        <time>2017-06-22T08:02:00Z</time>
      </trkpt>
      <trkpt lat="65.12796800583601" lon="12.159295007586479">
        <ele>16.960000000000001</ele>
        <time>2017-06-22T08:02:01Z</time>
      </trkpt>
      <trkpt lat="65.128077976405621" lon="12.159012034535408">
        <ele>16.48</ele>
        <time>2017-06-22T08:02:02Z</time>
      </trkpt>
      <trkpt lat="65.128180989995599" lon="12.158676004037261">
        <ele>15.52</ele>
        <time>2017-06-22T08:02:03Z</time>
      </trkpt>
      <trkpt lat="65.128271011635661" lon="12.158338967710733">
        <ele>15.039999999999999</ele>
        <time>2017-06-22T08:02:04Z</time>
      </trkpt>
      <trkpt lat="65.12856999412179" lon="12.156942039728165">
        <ele>11.67</ele>
        <time>2017-06-22T08:02:08Z</time>
      </trkpt>
      <trkpt lat="65.128578040748835" lon="12.156562004238367">
        <ele>11.67</ele>
        <time>2017-06-22T08:02:09Z</time>
      </trkpt>
      <trkpt lat="65.128563037142158" lon="12.156195966526866">
        <ele>9.75</ele>
        <time>2017-06-22T08:02:10Z</time>
      </trkpt>
      <trkpt lat="65.128535963594913" lon="12.155787013471127">
        <ele>9.75</ele>
        <time>2017-06-22T08:02:11Z</time>
      </trkpt>
      <trkpt lat="65.128508973866701" lon="12.155348975211382">
        <ele>9.75</ele>
        <time>2017-06-22T08:02:12Z</time>
      </trkpt>
      <trkpt lat="65.128448037430644" lon="12.154940022155643">
        <ele>9.75</ele>
        <time>2017-06-22T08:02:13Z</time>
      </trkpt>
      <trkpt lat="65.128370001912117" lon="12.154540959745646">
        <ele>9.75</ele>
        <time>2017-06-22T08:02:14Z</time>
      </trkpt>
      <trkpt lat="65.128282997757196" lon="12.154158996418118">
        <ele>9.75</ele>
        <time>2017-06-22T08:02:15Z</time>
      </trkpt>
      <trkpt lat="65.127414967864752" lon="12.149634025990963">
        <ele>11.19</ele>
        <time>2017-06-22T08:02:26Z</time>
      </trkpt>
      <trkpt lat="65.126693034544587" lon="12.145324973389506">
        <ele>13.6</ele>
        <time>2017-06-22T08:02:36Z</time>
      </trkpt>
      <trkpt lat="65.12564797885716" lon="12.139773974195123">
        <ele>19.84</ele>
        <time>2017-06-22T08:02:49Z</time>
      </trkpt>
      <trkpt lat="65.125344973057508" lon="12.134089032188058">
        <ele>24.170000000000002</ele>
        <time>2017-06-22T08:03:01Z</time>
      </trkpt>
      <trkpt lat="65.124952029436827" lon="12.131048999726772">
        <ele>31.859999999999999</ele>
        <time>2017-06-22T08:03:08Z</time>
      </trkpt>
      <trkpt lat="65.12463603168726" lon="12.127480991184711">
        <ele>40.030000000000001</ele>
        <time>2017-06-22T08:03:16Z</time>
      </trkpt>
      <trkpt lat="65.124441990628839" lon="12.12184801697731">
        <ele>40.990000000000002</ele>
        <time>2017-06-22T08:03:28Z</time>
      </trkpt>
      <trkpt lat="65.124267982318997" lon="12.12023600935936">
        <ele>43.399999999999999</ele>
        <time>2017-06-22T08:03:32Z</time>
      </trkpt>
      <trkpt lat="65.124253984540701" lon="12.119838958606124">
        <ele>43.880000000000003</ele>
        <time>2017-06-22T08:03:33Z</time>
      </trkpt>
      <trkpt lat="65.124263959005475" lon="12.119424976408482">
        <ele>44.359999999999999</ele>
        <time>2017-06-22T08:03:34Z</time>
      </trkpt>
      <trkpt lat="65.124296983703971" lon="12.119022980332375">
        <ele>44.840000000000003</ele>
        <time>2017-06-22T08:03:35Z</time>
      </trkpt>
      <trkpt lat="65.124350041151047" lon="12.118649985641241">
        <ele>45.799999999999997</ele>
        <time>2017-06-22T08:03:36Z</time>
      </trkpt>
      <trkpt lat="65.124416006729007" lon="12.118309009820223">
        <ele>46.280000000000001</ele>
        <time>2017-06-22T08:03:37Z</time>
      </trkpt>
      <trkpt lat="65.124500999227166" lon="12.117986977100372">
        <ele>46.759999999999998</ele>
        <time>2017-06-22T08:03:38Z</time>
      </trkpt>
      <trkpt lat="65.124598983675241" lon="12.117687994614244">
        <ele>47.240000000000002</ele>
        <time>2017-06-22T08:03:39Z</time>
      </trkpt>
      <trkpt lat="65.124708032235503" lon="12.117408961057663">
        <ele>47.719999999999999</ele>
        <time>2017-06-22T08:03:40Z</time>
      </trkpt>
      <trkpt lat="65.124833006411791" lon="12.117178039625287">
        <ele>48.200000000000003</ele>
        <time>2017-06-22T08:03:41Z</time>
      </trkpt>
      <trkpt lat="65.127956019714475" lon="12.116128038614988">
        <ele>35.710000000000001</ele>
        <time>2017-06-22T08:04:00Z</time>
      </trkpt>
      <trkpt lat="65.128120975568891" lon="12.116156034171581">
        <ele>32.340000000000003</ele>
        <time>2017-06-22T08:04:01Z</time>
      </trkpt>
      <trkpt lat="65.12831199914217" lon="12.116264998912811">
        <ele>31.859999999999999</ele>
        <time>2017-06-22T08:04:02Z</time>
      </trkpt>
      <trkpt lat="65.128491036593914" lon="12.116382010281086">
        <ele>30.899999999999999</ele>
        <time>2017-06-22T08:04:03Z</time>
      </trkpt>
      <trkpt lat="65.128673007711768" lon="12.116585019975901">
        <ele>30.420000000000002</ele>
        <time>2017-06-22T08:04:04Z</time>
      </trkpt>
      <trkpt lat="65.128855984658003" lon="12.116783000528812">
        <ele>29.940000000000001</ele>
        <time>2017-06-22T08:04:05Z</time>
      </trkpt>
      <trkpt lat="65.130464974790812" lon="12.118227034807205">
        <ele>35.229999999999997</ele>
        <time>2017-06-22T08:04:13Z</time>
      </trkpt>
      <trkpt lat="65.131932981312275" lon="12.118115974590182">
        <ele>31.379999999999999</ele>
        <time>2017-06-22T08:04:20Z</time>
      </trkpt>
      <trkpt lat="65.136157963424921" lon="12.117015011608601">
        <ele>24.649999999999999</ele>
        <time>2017-06-22T08:04:40Z</time>
      </trkpt>
      <trkpt lat="65.138555020093918" lon="12.117006964981556">
        <ele>24.170000000000002</ele>
        <time>2017-06-22T08:04:51Z</time>
      </trkpt>
      <trkpt lat="65.14238697476685" lon="12.118027964606881">
        <ele>8.310000000000001</ele>
        <time>2017-06-22T08:05:08Z</time>
      </trkpt>
      <trkpt lat="65.143682984635234" lon="12.117264959961176">
        <ele>6.87</ele>
        <time>2017-06-22T08:05:14Z</time>
      </trkpt>
      <trkpt lat="65.146084986627102" lon="12.116019995883107">
        <ele>13.119999999999999</ele>
        <time>2017-06-22T08:05:25Z</time>
      </trkpt>
      <trkpt lat="65.14990696683526" lon="12.115685977041721">
        <ele>5.91</ele>
        <time>2017-06-22T08:05:42Z</time>
      </trkpt>
      <trkpt lat="65.151356030255556" lon="12.116810996085405">
        <ele>6.87</ele>
        <time>2017-06-22T08:05:49Z</time>
      </trkpt>
      <trkpt lat="65.153541024774313" lon="12.119014011695981">
        <ele>11.19</ele>
        <time>2017-06-22T08:06:00Z</time>
      </trkpt>
      <trkpt lat="65.154663026332855" lon="12.120276996865869">
        <ele>8.310000000000001</ele>
        <time>2017-06-22T08:06:06Z</time>
      </trkpt>
      <trkpt lat="65.154867963865399" lon="12.120425021275878">
        <ele>7.83</ele>
        <time>2017-06-22T08:06:07Z</time>
      </trkpt>
      <trkpt lat="65.155078014358878" lon="12.120533986017108">
        <ele>7.35</ele>
        <time>2017-06-22T08:06:08Z</time>
      </trkpt>
      <trkpt lat="65.157829960808158" lon="12.121265977621078">
        <ele>9.75</ele>
        <time>2017-06-22T08:06:21Z</time>
      </trkpt>
      <trkpt lat="65.159006025642157" lon="12.120407000184059">
        <ele>9.75</ele>
        <time>2017-06-22T08:06:27Z</time>
      </trkpt>
      <trkpt lat="65.160750970244408" lon="12.118745036423206">
        <ele>9.75</ele>
        <time>2017-06-22T08:06:36Z</time>
      </trkpt>
      <trkpt lat="65.163066973909736" lon="12.118467008695006">
        <ele>10.23</ele>
        <time>2017-06-22T08:06:47Z</time>
      </trkpt>
      <trkpt lat="65.166066018864512" lon="12.117858985438943">
        <ele>8.310000000000001</ele>
        <time>2017-06-22T08:07:02Z</time>
      </trkpt>
      <trkpt lat="65.167820015922189" lon="12.117061028257012">
        <ele>8.789999999999999</ele>
        <time>2017-06-22T08:07:11Z</time>
      </trkpt>
      <trkpt lat="65.168628031387925" lon="12.117045018821955">
        <ele>7.35</ele>
        <time>2017-06-22T08:07:15Z</time>
      </trkpt>
      <trkpt lat="65.168827017769217" lon="12.116967989131808">
        <ele>6.87</ele>
        <time>2017-06-22T08:07:16Z</time>
      </trkpt>
      <trkpt lat="65.169019969180226" lon="12.116849971935153">
        <ele>6.87</ele>
        <time>2017-06-22T08:07:17Z</time>
      </trkpt>
      <trkpt lat="65.169210992753506" lon="12.116705970838666">
        <ele>6.87</ele>
        <time>2017-06-22T08:07:18Z</time>
      </trkpt>
      <trkpt lat="65.169396987184882" lon="12.11654101498425">
        <ele>6.39</ele>
        <time>2017-06-22T08:07:19Z</time>
      </trkpt>
      <trkpt lat="65.170300975441933" lon="12.115822015330195">
        <ele>6.87</ele>
        <time>2017-06-22T08:07:24Z</time>
      </trkpt>
      <trkpt lat="65.170484958216548" lon="12.115791002288461">
        <ele>7.35</ele>
        <time>2017-06-22T08:07:25Z</time>
      </trkpt>
      <trkpt lat="65.170676987618208" lon="12.115794019773602">
        <ele>7.35</ele>
        <time>2017-06-22T08:07:26Z</time>
      </trkpt>
      <trkpt lat="65.172484964132309" lon="12.115815980359912">
        <ele>6.87</ele>
        <time>2017-06-22T08:07:35Z</time>
      </trkpt>
      <trkpt lat="65.173453995957971" lon="12.115655969828367">
        <ele>8.789999999999999</ele>
        <time>2017-06-22T08:07:40Z</time>
      </trkpt>
      <trkpt lat="65.173644013702869" lon="12.11572595871985">
        <ele>8.789999999999999</ele>
        <time>2017-06-22T08:07:41Z</time>
      </trkpt>
      <trkpt lat="65.173833025619388" lon="12.11585302837193">
        <ele>8.310000000000001</ele>
        <time>2017-06-22T08:07:42Z</time>
      </trkpt>
      <trkpt lat="65.174018014222383" lon="12.116013960912824">
        <ele>8.310000000000001</ele>
        <time>2017-06-22T08:07:43Z</time>
      </trkpt>
      <trkpt lat="65.174203002825379" lon="12.116200961172581">
        <ele>7.83</ele>
        <time>2017-06-22T08:07:44Z</time>
      </trkpt>
      <trkpt lat="65.177356023341417" lon="12.119643995538354">
        <ele>12.15</ele>
        <time>2017-06-22T08:08:01Z</time>
      </trkpt>
      <trkpt lat="65.18116501159966" lon="12.123765964061022">
        <ele>19.359999999999999</ele>
        <time>2017-06-22T08:08:22Z</time>
      </trkpt>
      <trkpt lat="65.182610973715782" lon="12.124459985643625">
        <ele>21.289999999999999</ele>
        <time>2017-06-22T08:08:30Z</time>
      </trkpt>
      <trkpt lat="65.183563996106386" lon="12.124021025374532">
        <ele>18.879999999999999</ele>
        <time>2017-06-22T08:08:36Z</time>
      </trkpt>
      <trkpt lat="65.18385099247098" lon="12.123684994876385">
        <ele>17.440000000000001</ele>
        <time>2017-06-22T08:08:38Z</time>
      </trkpt>
      <trkpt lat="65.183983007445931" lon="12.123462958261371">
        <ele>16.960000000000001</ele>
        <time>2017-06-22T08:08:39Z</time>
      </trkpt>
      <trkpt lat="65.184100018814206" lon="12.123205969110131">
        <ele>16</ele>
        <time>2017-06-22T08:08:40Z</time>
      </trkpt>
      <trkpt lat="65.184209989383817" lon="12.122918972745538">
        <ele>15.52</ele>
        <time>2017-06-22T08:08:41Z</time>
      </trkpt>
      <trkpt lat="65.184306968003511" lon="12.122606998309493">
        <ele>14.56</ele>
        <time>2017-06-22T08:08:42Z</time>
      </trkpt>
      <trkpt lat="65.184391038492322" lon="12.122283959761262">
        <ele>13.6</ele>
        <time>2017-06-22T08:08:43Z</time>
      </trkpt>
      <trkpt lat="65.184457004070282" lon="12.121936026960611">
        <ele>12.630000000000001</ele>
        <time>2017-06-22T08:08:44Z</time>
      </trkpt>
      <trkpt lat="65.184504026547074" lon="12.121574012562633">
        <ele>12.15</ele>
        <time>2017-06-22T08:08:45Z</time>
      </trkpt>
      <trkpt lat="65.184535961598158" lon="12.121204035356641">
        <ele>10.710000000000001</ele>
        <time>2017-06-22T08:08:46Z</time>
      </trkpt>
      <trkpt lat="65.184548031538725" lon="12.120827017351985">
        <ele>9.75</ele>
        <time>2017-06-22T08:08:47Z</time>
      </trkpt>
      <trkpt lat="65.184543002396822" lon="12.120439019054174">
        <ele>8.789999999999999</ele>
        <time>2017-06-22T08:08:48Z</time>
      </trkpt>
      <trkpt lat="65.184522969648242" lon="12.120042974129319">
        <ele>7.83</ele>
        <time>2017-06-22T08:08:49Z</time>
      </trkpt>
      <trkpt lat="65.184492040425539" lon="12.119653970003128">
        <ele>7.35</ele>
        <time>2017-06-22T08:08:50Z</time>
      </trkpt>
      <trkpt lat="65.184448035433888" lon="12.119261026382446">
        <ele>7.35</ele>
        <time>2017-06-22T08:08:51Z</time>
      </trkpt>
      <trkpt lat="65.184390032663941" lon="12.118877973407507">
        <ele>6.87</ele>
        <time>2017-06-22T08:08:52Z</time>
      </trkpt>
      <trkpt lat="65.183906983584166" lon="12.115950006991625">
        <ele>6.87</ele>
        <time>2017-06-22T08:09:01Z</time>
      </trkpt>
      <trkpt lat="65.183425024151802" lon="12.11424102075398">
        <ele>6.39</ele>
        <time>2017-06-22T08:09:09Z</time>
      </trkpt>
      <trkpt lat="65.183052029460669" lon="12.113520009443164">
        <ele>5.91</ele>
        <time>2017-06-22T08:09:17Z</time>
      </trkpt>
      <trkpt lat="65.18294801004231" lon="12.113358993083239">
        <ele>4.94</ele>
        <time>2017-06-22T08:09:31Z</time>
      </trkpt>
      <trkpt lat="65.182939041405916" lon="12.113353963941336">
        <ele>4.46</ele>
        <time>2017-06-22T08:10:03Z</time>
      </trkpt>
      <trkpt lat="65.182938035577536" lon="12.113356981426477">
        <ele>4.46</ele>
        <time>2017-06-22T08:12:29Z</time>
      </trkpt>
      <trkpt lat="65.182936023920774" lon="12.113352036103606">
        <ele>4.46</ele>
        <time>2017-06-22T08:14:40Z</time>
      </trkpt>
      <trkpt lat="65.182934012264013" lon="12.113353963941336">
        <ele>4.46</ele>
        <time>2017-06-22T08:16:47Z</time>
      </trkpt>
      <trkpt lat="65.215972037985921" lon="12.040734998881817">
        <ele>14.08</ele>
        <time>2017-06-22T09:27:56Z</time>
      </trkpt>
      <trkpt lat="65.216030040755868" lon="12.040693005546927">
        <ele>13.6</ele>
        <time>2017-06-22T09:28:35Z</time>
      </trkpt>
      <trkpt lat="65.216212011873722" lon="12.040688982233405">
        <ele>13.119999999999999</ele>
        <time>2017-06-22T09:28:50Z</time>
      </trkpt>
      <trkpt lat="65.216280994936824" lon="12.040776992216706">
        <ele>12.15</ele>
        <time>2017-06-22T09:28:52Z</time>
      </trkpt>
      <trkpt lat="65.216300021857023" lon="12.040871037170291">
        <ele>11.19</ele>
        <time>2017-06-22T09:28:53Z</time>
      </trkpt>
      <trkpt lat="65.216299016028643" lon="12.040975978597999">
        <ele>10.23</ele>
        <time>2017-06-22T09:28:54Z</time>
      </trkpt>
      <trkpt lat="65.216286024078727" lon="12.041086032986641">
        <ele>9.27</ele>
        <time>2017-06-22T09:28:55Z</time>
      </trkpt>
      <trkpt lat="65.216268002986908" lon="12.041197009384632">
        <ele>8.789999999999999</ele>
        <time>2017-06-22T09:28:56Z</time>
      </trkpt>
      <trkpt lat="65.216242019087076" lon="12.041319971904159">
        <ele>8.310000000000001</ele>
        <time>2017-06-22T09:28:57Z</time>
      </trkpt>
      <trkpt lat="65.216210000216961" lon="12.041453998535872">
        <ele>7.83</ele>
        <time>2017-06-22T09:28:58Z</time>
      </trkpt>
      <trkpt lat="65.216134982183576" lon="12.041878961026669">
        <ele>6.39</ele>
        <time>2017-06-22T09:29:01Z</time>
      </trkpt>
      <trkpt lat="65.21612199023366" lon="12.042022040113807">
        <ele>5.91</ele>
        <time>2017-06-22T09:29:02Z</time>
      </trkpt>
      <trkpt lat="65.216113021597266" lon="12.042185990139842">
        <ele>5.91</ele>
        <time>2017-06-22T09:29:03Z</time>
      </trkpt>
      <trkpt lat="65.216112015768886" lon="12.042372990399599">
        <ele>5.91</ele>
        <time>2017-06-22T09:29:04Z</time>
      </trkpt>
      <trkpt lat="65.216119978576899" lon="12.04256996512413">
        <ele>5.42</ele>
        <time>2017-06-22T09:29:05Z</time>
      </trkpt>
      <trkpt lat="65.216129031032324" lon="12.042772974818945">
        <ele>4.46</ele>
        <time>2017-06-22T09:29:06Z</time>
      </trkpt>
      <trkpt lat="65.216149985790253" lon="12.042966010048985">
        <ele>3.98</ele>
        <time>2017-06-22T09:29:07Z</time>
      </trkpt>
      <trkpt lat="65.216173036023974" lon="12.043139012530446">
        <ele>3.98</ele>
        <time>2017-06-22T09:29:08Z</time>
      </trkpt>
      <trkpt lat="65.216202959418297" lon="12.043302040547132">
        <ele>3.98</ele>
        <time>2017-06-22T09:29:09Z</time>
      </trkpt>
      <trkpt lat="65.216241013258696" lon="12.043450986966491">
        <ele>3.98</ele>
        <time>2017-06-22T09:29:10Z</time>
      </trkpt>
      <trkpt lat="65.216278983280063" lon="12.04357797279954">
        <ele>3.98</ele>
        <time>2017-06-22T09:29:11Z</time>
      </trkpt>
      <trkpt lat="65.216882983222604" lon="12.044715983793139">
        <ele>5.91</ele>
        <time>2017-06-22T09:29:21Z</time>
      </trkpt>
      <trkpt lat="65.217864001169801" lon="12.04632899723947">
        <ele>4.46</ele>
        <time>2017-06-22T09:29:32Z</time>
      </trkpt>
      <trkpt lat="65.218520974740386" lon="12.049015983939171">
        <ele>2.54</ele>
        <time>2017-06-22T09:29:43Z</time>
      </trkpt>
      <trkpt lat="65.218762960284948" lon="12.04976599663496">
        <ele>3.5</ele>
        <time>2017-06-22T09:29:46Z</time>
      </trkpt>
      <trkpt lat="65.21887200884521" lon="12.049983004108071">
        <ele>3.98</ele>
        <time>2017-06-22T09:29:47Z</time>
      </trkpt>
      <trkpt lat="65.218988014385104" lon="12.05017201602459">
        <ele>3.98</ele>
        <time>2017-06-22T09:29:48Z</time>
      </trkpt>
      <trkpt lat="65.219111982733011" lon="12.050339989364147">
        <ele>3.98</ele>
        <time>2017-06-22T09:29:49Z</time>
      </trkpt>
      <trkpt lat="65.219245003536344" lon="12.050492959097028">
        <ele>3.5</ele>
        <time>2017-06-22T09:29:50Z</time>
      </trkpt>
      <trkpt lat="65.220400029793382" lon="12.051315978169441">
        <ele>3.02</ele>
        <time>2017-06-22T09:29:58Z</time>
      </trkpt>
      <trkpt lat="65.220510000362992" lon="12.051437012851238">
        <ele>3.02</ele>
        <time>2017-06-22T09:29:59Z</time>
      </trkpt>
      <trkpt lat="65.220607984811068" lon="12.051584031432867">
        <ele>3.02</ele>
        <time>2017-06-22T09:30:00Z</time>
      </trkpt>
      <trkpt lat="65.220690965652466" lon="12.051754016429186">
        <ele>3.02</ele>
        <time>2017-06-22T09:30:01Z</time>
      </trkpt>
      <trkpt lat="65.220760032534599" lon="12.051940010860562">
        <ele>2.54</ele>
        <time>2017-06-22T09:30:02Z</time>
      </trkpt>
      <trkpt lat="65.220814011991024" lon="12.052149977535009">
        <ele>3.02</ele>
        <time>2017-06-22T09:30:03Z</time>
      </trkpt>
      <trkpt lat="65.220859022811055" lon="12.052388023585081">
        <ele>3.5</ele>
        <time>2017-06-22T09:30:04Z</time>
      </trkpt>
      <trkpt lat="65.22089104168117" lon="12.052655993029475">
        <ele>3.5</ele>
        <time>2017-06-22T09:30:05Z</time>
      </trkpt>
      <trkpt lat="65.220911996439099" lon="12.052948018535972">
        <ele>3.02</ele>
        <time>2017-06-22T09:30:06Z</time>
      </trkpt>
      <trkpt lat="65.220929011702538" lon="12.053259992972016">
        <ele>2.54</ele>
        <time>2017-06-22T09:30:07Z</time>
      </trkpt>
      <trkpt lat="65.221202010288835" lon="12.0568129979074">
        <ele>1.1</ele>
        <time>2017-06-22T09:30:17Z</time>
      </trkpt>
      <trkpt lat="65.221897037699819" lon="12.062765993177891">
        <ele>0.62</ele>
        <time>2017-06-22T09:30:33Z</time>
      </trkpt>
      <trkpt lat="65.222649984061718" lon="12.065002033486962">
        <ele>-0.34</ele>
        <time>2017-06-22T09:30:40Z</time>
      </trkpt>
      <trkpt lat="65.22275903262198" lon="12.065178975462914">
        <ele>-0.34</ele>
        <time>2017-06-22T09:30:41Z</time>
      </trkpt>
      <trkpt lat="65.222876965999603" lon="12.065311996266246">
        <ele>-0.34</ele>
        <time>2017-06-22T09:30:42Z</time>
      </trkpt>
      <trkpt lat="65.223007975146174" lon="12.065393971279263">
        <ele>-0.34</ele>
        <time>2017-06-22T09:30:43Z</time>
      </trkpt>
      <trkpt lat="65.223148036748171" lon="12.065449040383101">
        <ele>-0.82</ele>
        <time>2017-06-22T09:30:44Z</time>
      </trkpt>
      <trkpt lat="65.223303018137813" lon="12.065476030111313">
        <ele>-0.82</ele>
        <time>2017-06-22T09:30:45Z</time>
      </trkpt>
      <trkpt lat="65.223463028669357" lon="12.065492039546371">
        <ele>-0.34</ele>
        <time>2017-06-22T09:30:46Z</time>
      </trkpt>
      <trkpt lat="65.224538007751107" lon="12.06583603285253">
        <ele>0.14</ele>
        <time>2017-06-22T09:30:53Z</time>
      </trkpt>
      <trkpt lat="65.224670022726059" lon="12.065980033949018">
        <ele>0.14</ele>
        <time>2017-06-22T09:30:54Z</time>
      </trkpt>
      <trkpt lat="65.224799020215869" lon="12.066163010895252">
        <ele>-0.34</ele>
        <time>2017-06-22T09:30:55Z</time>
      </trkpt>
      <trkpt lat="65.224921982735395" lon="12.066375995054841">
        <ele>-0.34</ele>
        <time>2017-06-22T09:30:56Z</time>
      </trkpt>
      <trkpt lat="65.225046034902334" lon="12.066614963114262">
        <ele>-0.34</ele>
        <time>2017-06-22T09:30:57Z</time>
      </trkpt>
      <trkpt lat="65.226718978956342" lon="12.070077024400234">
        <ele>4.94</ele>
        <time>2017-06-22T09:31:10Z</time>
      </trkpt>
      <trkpt lat="65.228311037644744" lon="12.073876960203052">
        <ele>12.15</ele>
        <time>2017-06-22T09:31:23Z</time>
      </trkpt>
      <trkpt lat="65.228802971541882" lon="12.075302973389626">
        <ele>15.039999999999999</ele>
        <time>2017-06-22T09:31:28Z</time>
      </trkpt>
      <trkpt lat="65.22890598513186" lon="12.075475975871086">
        <ele>14.08</ele>
        <time>2017-06-22T09:31:29Z</time>
      </trkpt>
      <trkpt lat="65.229026013985276" lon="12.075602961704135">
        <ele>12.630000000000001</ele>
        <time>2017-06-22T09:31:30Z</time>
      </trkpt>
      <trkpt lat="65.229159034788609" lon="12.075705975294113">
        <ele>11.19</ele>
        <time>2017-06-22T09:31:31Z</time>
      </trkpt>
      <trkpt lat="65.229303035885096" lon="12.075809994712472">
        <ele>10.23</ele>
        <time>2017-06-22T09:31:32Z</time>
      </trkpt>
      <trkpt lat="65.23036502301693" lon="12.076709037646651">
        <ele>2.54</ele>
        <time>2017-06-22T09:31:39Z</time>
      </trkpt>
      <trkpt lat="65.230484968051314" lon="12.076919004321098">
        <ele>2.06</ele>
        <time>2017-06-22T09:31:40Z</time>
      </trkpt>
      <trkpt lat="65.230582030490041" lon="12.077151015400887">
        <ele>2.06</ele>
        <time>2017-06-22T09:31:41Z</time>
      </trkpt>
      <trkpt lat="65.230660988017917" lon="12.077400963753462">
        <ele>2.54</ele>
        <time>2017-06-22T09:31:42Z</time>
      </trkpt>
      <trkpt lat="65.230722008273005" lon="12.077665999531746">
        <ele>2.54</ele>
        <time>2017-06-22T09:31:43Z</time>
      </trkpt>
      <trkpt lat="65.230766013264656" lon="12.077944027259946">
        <ele>2.54</ele>
        <time>2017-06-22T09:31:44Z</time>
      </trkpt>
      <trkpt lat="65.230794008821249" lon="12.078246027231216">
        <ele>3.02</ele>
        <time>2017-06-22T09:31:45Z</time>
      </trkpt>
      <trkpt lat="65.230814963579178" lon="12.078563030809164">
        <ele>2.54</ele>
        <time>2017-06-22T09:31:46Z</time>
      </trkpt>
      <trkpt lat="65.23109600879252" lon="12.083222027868032">
        <ele>3.5</ele>
        <time>2017-06-22T09:32:00Z</time>
      </trkpt>
      <trkpt lat="65.231344029307365" lon="12.086421987041831">
        <ele>9.75</ele>
        <time>2017-06-22T09:32:09Z</time>
      </trkpt>
      <trkpt lat="65.231403959915042" lon="12.086734967306256">
        <ele>10.23</ele>
        <time>2017-06-22T09:32:10Z</time>
      </trkpt>
      <trkpt lat="65.231477972120047" lon="12.087027998641133">
        <ele>10.710000000000001</ele>
        <time>2017-06-22T09:32:11Z</time>
      </trkpt>
      <trkpt lat="65.232270983979106" lon="12.089950013905764">
        <ele>3.98</ele>
        <time>2017-06-22T09:32:20Z</time>
      </trkpt>
      <trkpt lat="65.232478016987443" lon="12.090578991919756">
        <ele>3.98</ele>
        <time>2017-06-22T09:32:22Z</time>
      </trkpt>
      <trkpt lat="65.232600979506969" lon="12.090861964970827">
        <ele>3.98</ele>
        <time>2017-06-22T09:32:23Z</time>
      </trkpt>
      <trkpt lat="65.233926996588707" lon="12.092943023890257">
        <ele>2.54</ele>
        <time>2017-06-22T09:32:32Z</time>
      </trkpt>
      <trkpt lat="65.234843976795673" lon="12.094612028449774">
        <ele>2.06</ele>
        <time>2017-06-22T09:32:39Z</time>
      </trkpt>
      <trkpt lat="65.235403971746564" lon="12.097300020977855">
        <ele>3.98</ele>
        <time>2017-06-22T09:32:46Z</time>
      </trkpt>
      <trkpt lat="65.235894983634353" lon="12.101948959752917">
        <ele>1.1</ele>
        <time>2017-06-22T09:32:57Z</time>
      </trkpt>
      <trkpt lat="65.235950974747539" lon="12.102308040484786">
        <ele>1.1</ele>
        <time>2017-06-22T09:32:58Z</time>
      </trkpt>
      <trkpt lat="65.236033033579588" lon="12.102615991607308">
        <ele>1.1</ele>
        <time>2017-06-22T09:32:59Z</time>
      </trkpt>
      <trkpt lat="65.236140992492437" lon="12.102867029607296">
        <ele>1.1</ele>
        <time>2017-06-22T09:33:00Z</time>
      </trkpt>
      <trkpt lat="65.236266972497106" lon="12.103056041523814">
        <ele>1.1</ele>
        <time>2017-06-22T09:33:01Z</time>
      </trkpt>
      <trkpt lat="65.236413991078734" lon="12.103191995993257">
        <ele>1.1</ele>
        <time>2017-06-22T09:33:02Z</time>
      </trkpt>
      <trkpt lat="65.236572995781898" lon="12.103309007361531">
        <ele>1.1</ele>
        <time>2017-06-22T09:33:03Z</time>
      </trkpt>
      <trkpt lat="65.237561976537108" lon="12.104093972593546">
        <ele>1.1</ele>
        <time>2017-06-22T09:33:09Z</time>
      </trkpt>
      <trkpt lat="65.237702960148454" lon="12.104317015036941">
        <ele>1.58</ele>
        <time>2017-06-22T09:33:10Z</time>
      </trkpt>
      <trkpt lat="65.23782298900187" lon="12.104581966996193">
        <ele>1.58</ele>
        <time>2017-06-22T09:33:11Z</time>
      </trkpt>
      <trkpt lat="65.23792902007699" lon="12.104880027472973">
        <ele>1.58</ele>
        <time>2017-06-22T09:33:12Z</time>
      </trkpt>
      <trkpt lat="65.238023987039924" lon="12.105205999687314">
        <ele>2.06</ele>
        <time>2017-06-22T09:33:13Z</time>
      </trkpt>
      <trkpt lat="65.238109985366464" lon="12.105554016306996">
        <ele>2.06</ele>
        <time>2017-06-22T09:33:14Z</time>
      </trkpt>
      <trkpt lat="65.23818701505661" lon="12.105917958542705">
        <ele>2.54</ele>
        <time>2017-06-22T09:33:15Z</time>
      </trkpt>
      <trkpt lat="65.238626981154084" lon="12.109374990686774">
        <ele>6.87</ele>
        <time>2017-06-22T09:33:24Z</time>
      </trkpt>
      <trkpt lat="65.238812975585461" lon="12.113731987774372">
        <ele>7.83</ele>
        <time>2017-06-22T09:33:34Z</time>
      </trkpt>
      <trkpt lat="65.238840971142054" lon="12.114144964143634">
        <ele>6.87</ele>
        <time>2017-06-22T09:33:35Z</time>
      </trkpt>
      <trkpt lat="65.238896040245891" lon="12.114535979926586">
        <ele>5.91</ele>
        <time>2017-06-22T09:33:36Z</time>
      </trkpt>
      <trkpt lat="65.238977009430528" lon="12.114901011809707">
        <ele>4.94</ele>
        <time>2017-06-22T09:33:37Z</time>
      </trkpt>
      <trkpt lat="65.239081028848886" lon="12.115222960710526">
        <ele>3.98</ele>
        <time>2017-06-22T09:33:38Z</time>
      </trkpt>
      <trkpt lat="65.239207008853555" lon="12.115501994267106">
        <ele>3.98</ele>
        <time>2017-06-22T09:33:39Z</time>
      </trkpt>
      <trkpt lat="65.239346986636519" lon="12.115760995075107">
        <ele>3.5</ele>
        <time>2017-06-22T09:33:40Z</time>
      </trkpt>
      <trkpt lat="65.23949702270329" lon="12.116021001711488">
        <ele>3.5</ele>
        <time>2017-06-22T09:33:41Z</time>
      </trkpt>
      <trkpt lat="65.241747982800007" lon="12.119888998568058">
        <ele>2.54</ele>
        <time>2017-06-22T09:33:55Z</time>
      </trkpt>
      <trkpt lat="65.243454035371542" lon="12.122113974764943">
        <ele>2.54</ele>
        <time>2017-06-22T09:34:05Z</time>
      </trkpt>
      <trkpt lat="65.244787009432912" lon="12.12253600358963">
        <ele>0.62</ele>
        <time>2017-06-22T09:34:12Z</time>
      </trkpt>
      <trkpt lat="65.248041031882167" lon="12.122877985239029">
        <ele>1.58</ele>
        <time>2017-06-22T09:34:28Z</time>
      </trkpt>
      <trkpt lat="65.24983299896121" lon="12.12210601195693">
        <ele>6.87</ele>
        <time>2017-06-22T09:34:37Z</time>
      </trkpt>
      <trkpt lat="65.250367010012269" lon="12.121967962011695">
        <ele>4.94</ele>
        <time>2017-06-22T09:34:40Z</time>
      </trkpt>
      <trkpt lat="65.250555016100407" lon="12.122015990316868">
        <ele>3.98</ele>
        <time>2017-06-22T09:34:41Z</time>
      </trkpt>
      <trkpt lat="65.250740004703403" lon="12.122110035270452">
        <ele>3.98</ele>
        <time>2017-06-22T09:34:42Z</time>
      </trkpt>
      <trkpt lat="65.25092700496316" lon="12.122229980304837">
        <ele>3.98</ele>
        <time>2017-06-22T09:34:43Z</time>
      </trkpt>
      <trkpt lat="65.251111993566155" lon="12.12238697335124">
        <ele>3.5</ele>
        <time>2017-06-22T09:34:44Z</time>
      </trkpt>
      <trkpt lat="65.251296982169151" lon="12.122569028288126">
        <ele>3.5</ele>
        <time>2017-06-22T09:34:45Z</time>
      </trkpt>
      <trkpt lat="65.251474007964134" lon="12.122775977477431">
        <ele>3.5</ele>
        <time>2017-06-22T09:34:46Z</time>
      </trkpt>
      <trkpt lat="65.253315009176731" lon="12.125376965850592">
        <ele>1.1</ele>
        <time>2017-06-22T09:34:57Z</time>
      </trkpt>
      <trkpt lat="65.254979990422726" lon="12.126944968476892">
        <ele>3.02</ele>
        <time>2017-06-22T09:35:06Z</time>
      </trkpt>
      <trkpt lat="65.255108987912536" lon="12.12719701230526">
        <ele>4.46</ele>
        <time>2017-06-22T09:35:07Z</time>
      </trkpt>
      <trkpt lat="65.255216024816036" lon="12.127503035590053">
        <ele>5.42</ele>
        <time>2017-06-22T09:35:08Z</time>
      </trkpt>
      <trkpt lat="65.255303028970957" lon="12.127855997532606">
        <ele>6.39</ele>
        <time>2017-06-22T09:35:09Z</time>
      </trkpt>
      <trkpt lat="65.255367988720536" lon="12.128245001658797">
        <ele>7.35</ele>
        <time>2017-06-22T09:35:10Z</time>
      </trkpt>
      <trkpt lat="65.25542096234858" lon="12.128666024655104">
        <ele>7.35</ele>
        <time>2017-06-22T09:35:11Z</time>
      </trkpt>
      <trkpt lat="65.255468990653753" lon="12.129102973267436">
        <ele>7.35</ele>
        <time>2017-06-22T09:35:12Z</time>
      </trkpt>
      <trkpt lat="65.256169969215989" lon="12.135429969057441">
        <ele>6.39</ele>
        <time>2017-06-22T09:35:26Z</time>
      </trkpt>
      <trkpt lat="65.256389994174242" lon="12.136694965884089">
        <ele>4.46</ele>
        <time>2017-06-22T09:35:29Z</time>
      </trkpt>
      <trkpt lat="65.25649300776422" lon="12.137052034959197">
        <ele>3.98</ele>
        <time>2017-06-22T09:35:30Z</time>
      </trkpt>
      <trkpt lat="65.256611024960876" lon="12.137368032708764">
        <ele>3.5</ele>
        <time>2017-06-22T09:35:31Z</time>
      </trkpt>
      <trkpt lat="65.256752008572221" lon="12.137640025466681">
        <ele>3.5</ele>
        <time>2017-06-22T09:35:32Z</time>
      </trkpt>
      <trkpt lat="65.256906989961863" lon="12.137861978262663">
        <ele>2.54</ele>
        <time>2017-06-22T09:35:33Z</time>
      </trkpt>
      <trkpt lat="65.257083009928465" lon="12.138041015714407">
        <ele>2.06</ele>
        <time>2017-06-22T09:35:34Z</time>
      </trkpt>
      <trkpt lat="65.257271016016603" lon="12.138206977397203">
        <ele>1.1</ele>
        <time>2017-06-22T09:35:35Z</time>
      </trkpt>
      <trkpt lat="65.259685004130006" lon="12.140546031296253">
        <ele>0.62</ele>
        <time>2017-06-22T09:35:47Z</time>
      </trkpt>
      <trkpt lat="65.262074014171958" lon="12.143775997683406">
        <ele>3.98</ele>
        <time>2017-06-22T09:36:00Z</time>
      </trkpt>
      <trkpt lat="65.26371099986136" lon="12.145163035020232">
        <ele>9.27</ele>
        <time>2017-06-22T09:36:09Z</time>
      </trkpt>
      <trkpt lat="65.265873027965426" lon="12.145453970879316">
        <ele>15.52</ele>
        <time>2017-06-22T09:36:20Z</time>
      </trkpt>
      <trkpt lat="65.269565004855394" lon="12.14582403190434">
        <ele>20.32</ele>
        <time>2017-06-22T09:36:39Z</time>
      </trkpt>
      <trkpt lat="65.27159602381289" lon="12.145231012254953">
        <ele>11.67</ele>
        <time>2017-06-22T09:36:49Z</time>
      </trkpt>
      <trkpt lat="65.273144999518991" lon="12.145412983372808">
        <ele>11.19</ele>
        <time>2017-06-22T09:36:56Z</time>
      </trkpt>
      <trkpt lat="65.275179035961628" lon="12.146495003253222">
        <ele>6.87</ele>
        <time>2017-06-22T09:37:06Z</time>
      </trkpt>
      <trkpt lat="65.280070966109633" lon="12.14891703799367">
        <ele>1.1</ele>
        <time>2017-06-22T09:37:30Z</time>
      </trkpt>
      <trkpt lat="65.282960962504148" lon="12.150454027578235">
        <ele>7.35</ele>
        <time>2017-06-22T09:37:45Z</time>
      </trkpt>
      <trkpt lat="65.285024000331759" lon="12.151962015777826">
        <ele>8.789999999999999</ele>
        <time>2017-06-22T09:37:56Z</time>
      </trkpt>
      <trkpt lat="65.285581983625889" lon="12.152383960783482">
        <ele>7.83</ele>
        <time>2017-06-22T09:38:02Z</time>
      </trkpt>
      <trkpt lat="65.286121023818851" lon="12.152780005708337">
        <ele>7.83</ele>
        <time>2017-06-22T09:38:12Z</time>
      </trkpt>
      <trkpt lat="65.286428974941373" lon="12.152901962399483">
        <ele>7.35</ele>
        <time>2017-06-22T09:38:20Z</time>
      </trkpt>
      <trkpt lat="65.286442972719669" lon="12.152915960177779">
        <ele>7.35</ele>
        <time>2017-06-22T09:38:36Z</time>
      </trkpt>
      <trkpt lat="65.286525031551719" lon="12.153029032051563">
        <ele>7.35</ele>
        <time>2017-06-22T09:39:23Z</time>
      </trkpt>
      <trkpt lat="65.286604994907975" lon="12.153105977922678">
        <ele>7.35</ele>
        <time>2017-06-22T09:39:24Z</time>
      </trkpt>
      <trkpt lat="65.287499008700252" lon="12.153789019212127">
        <ele>7.35</ele>
        <time>2017-06-22T09:39:31Z</time>
      </trkpt>
      <trkpt lat="65.289547964930534" lon="12.155255014076829">
        <ele>9.27</ele>
        <time>2017-06-22T09:39:43Z</time>
      </trkpt>
      <trkpt lat="65.292656980454922" lon="12.157546961680055">
        <ele>12.15</ele>
        <time>2017-06-22T09:39:59Z</time>
      </trkpt>
      <trkpt lat="65.296767968684435" lon="12.160583976656199">
        <ele>18.399999999999999</ele>
        <time>2017-06-22T09:40:19Z</time>
      </trkpt>
      <trkpt lat="65.300177978351712" lon="12.162724966183305">
        <ele>12.630000000000001</ele>
        <time>2017-06-22T09:40:34Z</time>
      </trkpt>
      <trkpt lat="65.303164031356573" lon="12.164621958509088">
        <ele>13.119999999999999</ele>
        <time>2017-06-22T09:40:48Z</time>
      </trkpt>
      <trkpt lat="65.305526973679662" lon="12.166105974465609">
        <ele>13.6</ele>
        <time>2017-06-22T09:41:00Z</time>
      </trkpt>
      <trkpt lat="65.307036973536015" lon="12.167027983814478">
        <ele>11.19</ele>
        <time>2017-06-22T09:41:10Z</time>
      </trkpt>
      <trkpt lat="65.308133997023106" lon="12.167345993220806">
        <ele>8.789999999999999</ele>
        <time>2017-06-22T09:41:20Z</time>
      </trkpt>
      <trkpt lat="65.310079017654061" lon="12.16739502735436">
        <ele>6.39</ele>
        <time>2017-06-22T09:41:37Z</time>
      </trkpt>
      <trkpt lat="65.311085013672709" lon="12.16739896684885">
        <ele>5.91</ele>
        <time>2017-06-22T09:41:47Z</time>
      </trkpt>
      <trkpt lat="65.312767010182142" lon="12.167431991547346">
        <ele>4.94</ele>
        <time>2017-06-22T09:42:04Z</time>
      </trkpt>
      <trkpt lat="65.313896974548697" lon="12.167789982631803">
        <ele>3.5</ele>
        <time>2017-06-22T09:42:15Z</time>
      </trkpt>
      <trkpt lat="65.315006989985704" lon="12.168318964540958">
        <ele>4.46</ele>
        <time>2017-06-22T09:42:26Z</time>
      </trkpt>
      <trkpt lat="65.316256983205676" lon="12.169059002771974">
        <ele>6.87</ele>
        <time>2017-06-22T09:42:34Z</time>
      </trkpt>
      <trkpt lat="65.319190984591842" lon="12.17100796289742">
        <ele>10.23</ele>
        <time>2017-06-22T09:42:50Z</time>
      </trkpt>
      <trkpt lat="65.320845991373062" lon="12.172046983614564">
        <ele>11.19</ele>
        <time>2017-06-22T09:42:58Z</time>
      </trkpt>
      <trkpt lat="65.323079014196992" lon="12.173736020922661">
        <ele>12.630000000000001</ele>
        <time>2017-06-22T09:43:09Z</time>
      </trkpt>
      <trkpt lat="65.326992021873593" lon="12.177116023376584">
        <ele>13.6</ele>
        <time>2017-06-22T09:43:30Z</time>
      </trkpt>
      <trkpt lat="65.3293920122087" lon="12.179788006469607">
        <ele>15.52</ele>
        <time>2017-06-22T09:43:43Z</time>
      </trkpt>
      <trkpt lat="65.332847032696009" lon="12.185789030045271">
        <ele>14.08</ele>
        <time>2017-06-22T09:44:04Z</time>
      </trkpt>
      <trkpt lat="65.33534400165081" lon="12.190027004107833">
        <ele>14.56</ele>
        <time>2017-06-22T09:44:20Z</time>
      </trkpt>
      <trkpt lat="65.336692985147238" lon="12.191480007022619">
        <ele>13.6</ele>
        <time>2017-06-22T09:44:29Z</time>
      </trkpt>
      <trkpt lat="65.337973991408944" lon="12.192946001887321">
        <ele>8.789999999999999</ele>
        <time>2017-06-22T09:44:37Z</time>
      </trkpt>
      <trkpt lat="65.340076005086303" lon="12.195781012997031">
        <ele>4.94</ele>
        <time>2017-06-22T09:44:49Z</time>
      </trkpt>
      <trkpt lat="65.34097496420145" lon="12.197421016171575">
        <ele>3.5</ele>
        <time>2017-06-22T09:44:55Z</time>
      </trkpt>
      <trkpt lat="65.341089963912964" lon="12.197774983942509">
        <ele>3.5</ele>
        <time>2017-06-22T09:44:56Z</time>
      </trkpt>
      <trkpt lat="65.341185014694929" lon="12.198153007775545">
        <ele>3.02</ele>
        <time>2017-06-22T09:44:57Z</time>
      </trkpt>
      <trkpt lat="65.341253997758031" lon="12.198547041043639">
        <ele>2.54</ele>
        <time>2017-06-22T09:44:58Z</time>
      </trkpt>
      <trkpt lat="65.341298002749681" lon="12.198943002149463">
        <ele>3.02</ele>
        <time>2017-06-22T09:44:59Z</time>
      </trkpt>
      <trkpt lat="65.341310994699597" lon="12.199351033195853">
        <ele>3.02</ele>
        <time>2017-06-22T09:45:00Z</time>
      </trkpt>
      <trkpt lat="65.341301020234823" lon="12.19975302927196">
        <ele>3.02</ele>
        <time>2017-06-22T09:45:01Z</time>
      </trkpt>
      <trkpt lat="65.341271013021469" lon="12.200167011469603">
        <ele>3.5</ele>
        <time>2017-06-22T09:45:02Z</time>
      </trkpt>
      <trkpt lat="65.341217033565044" lon="12.200581999495625">
        <ele>3.5</ele>
        <time>2017-06-22T09:45:03Z</time>
      </trkpt>
      <trkpt lat="65.341155007481575" lon="12.201010985299945">
        <ele>3.5</ele>
        <time>2017-06-22T09:45:04Z</time>
      </trkpt>
      <trkpt lat="65.340053038671613" lon="12.208848986774683">
        <ele>7.83</ele>
        <time>2017-06-22T09:45:22Z</time>
      </trkpt>
      <trkpt lat="65.339698987081647" lon="12.211648039519787">
        <ele>6.87</ele>
        <time>2017-06-22T09:45:29Z</time>
      </trkpt>
      <trkpt lat="65.339700998738408" lon="12.212011981755495">
        <ele>6.87</ele>
        <time>2017-06-22T09:45:30Z</time>
      </trkpt>
      <trkpt lat="65.339725976809859" lon="12.212355975061655">
        <ele>6.87</ele>
        <time>2017-06-22T09:45:31Z</time>
      </trkpt>
      <trkpt lat="65.339772999286652" lon="12.212682031095028">
        <ele>6.87</ele>
        <time>2017-06-22T09:45:32Z</time>
      </trkpt>
      <trkpt lat="65.339839970692992" lon="12.212990988045931">
        <ele>6.87</ele>
        <time>2017-06-22T09:45:33Z</time>
      </trkpt>
      <trkpt lat="65.339928986504674" lon="12.213273961097002">
        <ele>6.39</ele>
        <time>2017-06-22T09:45:34Z</time>
      </trkpt>
      <trkpt lat="65.340032000094652" lon="12.213540002703667">
        <ele>6.39</ele>
        <time>2017-06-22T09:45:35Z</time>
      </trkpt>
      <trkpt lat="65.340139959007502" lon="12.213805038481951">
        <ele>6.39</ele>
        <time>2017-06-22T09:45:36Z</time>
      </trkpt>
      <trkpt lat="65.341544011607766" lon="12.217167019844055">
        <ele>3.02</ele>
        <time>2017-06-22T09:45:47Z</time>
      </trkpt>
      <trkpt lat="65.343836965039372" lon="12.22265699878335">
        <ele>0.62</ele>
        <time>2017-06-22T09:46:02Z</time>
      </trkpt>
      <trkpt lat="65.345109002664685" lon="12.22411897033453">
        <ele>4.46</ele>
        <time>2017-06-22T09:46:09Z</time>
      </trkpt>
      <trkpt lat="65.348328994587064" lon="12.226833030581474">
        <ele>3.02</ele>
        <time>2017-06-22T09:46:26Z</time>
      </trkpt>
      <trkpt lat="65.348722022026777" lon="12.226955993101001">
        <ele>3.02</ele>
        <time>2017-06-22T09:46:28Z</time>
      </trkpt>
      <trkpt lat="65.348926959559321" lon="12.226959010586143">
        <ele>3.02</ele>
        <time>2017-06-22T09:46:29Z</time>
      </trkpt>
      <trkpt lat="65.350556988269091" lon="12.226242022588849">
        <ele>3.98</ele>
        <time>2017-06-22T09:46:37Z</time>
      </trkpt>
      <trkpt lat="65.35158796235919" lon="12.224939977750182">
        <ele>2.06</ele>
        <time>2017-06-22T09:46:43Z</time>
      </trkpt>
      <trkpt lat="65.352308973670006" lon="12.222673008218408">
        <ele>4.46</ele>
        <time>2017-06-22T09:46:49Z</time>
      </trkpt>
      <trkpt lat="65.354127008467913" lon="12.215484017506242">
        <ele>6.87</ele>
        <time>2017-06-22T09:47:07Z</time>
      </trkpt>
      <trkpt lat="65.355759970843792" lon="12.212772974744439">
        <ele>7.83</ele>
        <time>2017-06-22T09:47:17Z</time>
      </trkpt>
      <trkpt lat="65.356877027079463" lon="12.212198982015252">
        <ele>7.83</ele>
        <time>2017-06-22T09:47:23Z</time>
      </trkpt>
      <trkpt lat="65.358795979991555" lon="12.212299983948469">
        <ele>3.98</ele>
        <time>2017-06-22T09:47:33Z</time>
      </trkpt>
      <trkpt lat="65.35897602327168" lon="12.212179033085704">
        <ele>3.98</ele>
        <time>2017-06-22T09:47:34Z</time>
      </trkpt>
      <trkpt lat="65.359154976904392" lon="12.212006030604243">
        <ele>3.98</ele>
        <time>2017-06-22T09:47:35Z</time>
      </trkpt>
      <trkpt lat="65.359328985214233" lon="12.211788017302752">
        <ele>3.5</ele>
        <time>2017-06-22T09:47:36Z</time>
      </trkpt>
      <trkpt lat="65.359505005180836" lon="12.21155097708106">
        <ele>3.5</ele>
        <time>2017-06-22T09:47:37Z</time>
      </trkpt>
      <trkpt lat="65.361284986138344" lon="12.208571964874864">
        <ele>4.46</ele>
        <time>2017-06-22T09:47:48Z</time>
      </trkpt>
      <trkpt lat="65.363161023706198" lon="12.204688964411616">
        <ele>8.789999999999999</ele>
        <time>2017-06-22T09:48:01Z</time>
      </trkpt>
      <trkpt lat="65.365311987698078" lon="12.199799967929721">
        <ele>5.42</ele>
        <time>2017-06-22T09:48:17Z</time>
      </trkpt>
      <trkpt lat="65.365456994622946" lon="12.19958296045661">
        <ele>5.42</ele>
        <time>2017-06-22T09:48:18Z</time>
      </trkpt>
      <trkpt lat="65.365606024861336" lon="12.19940803013742">
        <ele>4.46</ele>
        <time>2017-06-22T09:48:19Z</time>
      </trkpt>
      <trkpt lat="65.36576896905899" lon="12.199257994070649">
        <ele>5.42</ele>
        <time>2017-06-22T09:48:20Z</time>
      </trkpt>
      <trkpt lat="65.365925040096045" lon="12.19915104098618">
        <ele>4.46</ele>
        <time>2017-06-22T09:48:21Z</time>
      </trkpt>
      <trkpt lat="65.366083960980177" lon="12.199060013517737">
        <ele>3.98</ele>
        <time>2017-06-22T09:48:22Z</time>
      </trkpt>
      <trkpt lat="65.367348035797477" lon="12.198053011670709">
        <ele>1.1</ele>
        <time>2017-06-22T09:48:31Z</time>
      </trkpt>
      <trkpt lat="65.368243977427483" lon="12.197121027857065">
        <ele>3.5</ele>
        <time>2017-06-22T09:48:38Z</time>
      </trkpt>
      <trkpt lat="65.368372974917293" lon="12.197081968188286">
        <ele>3.5</ele>
        <time>2017-06-22T09:48:39Z</time>
      </trkpt>
      <trkpt lat="65.368496021255851" lon="12.197086997330189">
        <ele>2.54</ele>
        <time>2017-06-22T09:48:40Z</time>
      </trkpt>
      <trkpt lat="65.368628036230803" lon="12.197133013978601">
        <ele>2.54</ele>
        <time>2017-06-22T09:48:41Z</time>
      </trkpt>
      <trkpt lat="65.36875301040709" lon="12.197220018133521">
        <ele>3.02</ele>
        <time>2017-06-22T09:48:42Z</time>
      </trkpt>
      <trkpt lat="65.36888100206852" lon="12.197321020066738">
        <ele>3.02</ele>
        <time>2017-06-22T09:48:43Z</time>
      </trkpt>
      <trkpt lat="65.370728960260749" lon="12.198996981605887">
        <ele>4.94</ele>
        <time>2017-06-22T09:48:56Z</time>
      </trkpt>
      <trkpt lat="65.373650975525379" lon="12.202041037380695">
        <ele>5.91</ele>
        <time>2017-06-22T09:49:15Z</time>
      </trkpt>
      <trkpt lat="65.375560959801078" lon="12.20357702113688">
        <ele>4.46</ele>
        <time>2017-06-22T09:49:27Z</time>
      </trkpt>
      <trkpt lat="65.377444960176945" lon="12.203959990292788">
        <ele>4.94</ele>
        <time>2017-06-22T09:49:39Z</time>
      </trkpt>
      <trkpt lat="65.377589967101812" lon="12.203895030543208">
        <ele>5.42</ele>
        <time>2017-06-22T09:49:40Z</time>
      </trkpt>
      <trkpt lat="65.377731034532189" lon="12.203794028609991">
        <ele>4.94</ele>
        <time>2017-06-22T09:49:41Z</time>
      </trkpt>
      <trkpt lat="65.377870006486773" lon="12.203655978664756">
        <ele>4.94</ele>
        <time>2017-06-22T09:49:42Z</time>
      </trkpt>
      <trkpt lat="65.378008978441358" lon="12.203494040295482">
        <ele>4.94</ele>
        <time>2017-06-22T09:49:43Z</time>
      </trkpt>
      <trkpt lat="65.378137975931168" lon="12.203292958438396">
        <ele>4.94</ele>
        <time>2017-06-22T09:49:44Z</time>
      </trkpt>
      <trkpt lat="65.378256998956203" lon="12.203057007864118">
        <ele>4.94</ele>
        <time>2017-06-22T09:49:45Z</time>
      </trkpt>
      <trkpt lat="65.378370992839336" lon="12.202788032591343">
        <ele>4.94</ele>
        <time>2017-06-22T09:49:46Z</time>
      </trkpt>
      <trkpt lat="65.378478029742837" lon="12.202493995428085">
        <ele>4.94</ele>
        <time>2017-06-22T09:49:47Z</time>
      </trkpt>
      <trkpt lat="65.378579031676054" lon="12.202183026820421">
        <ele>4.94</ele>
        <time>2017-06-22T09:49:48Z</time>
      </trkpt>
      <trkpt lat="65.37992600351572" lon="12.197652021422982">
        <ele>8.789999999999999</ele>
        <time>2017-06-22T09:50:01Z</time>
      </trkpt>
      <trkpt lat="65.381502974778414" lon="12.192274024710059">
        <ele>10.710000000000001</ele>
        <time>2017-06-22T09:50:15Z</time>
      </trkpt>
      <trkpt lat="65.38377002812922" lon="12.185116969048977">
        <ele>15.039999999999999</ele>
        <time>2017-06-22T09:50:34Z</time>
      </trkpt>
      <trkpt lat="65.385115994140506" lon="12.182707004249096">
        <ele>19.359999999999999</ele>
        <time>2017-06-22T09:50:43Z</time>
      </trkpt>
      <trkpt lat="65.387697033584118" lon="12.178813023492694">
        <ele>15.52</ele>
        <time>2017-06-22T09:50:59Z</time>
      </trkpt>
      <trkpt lat="65.390534978359938" lon="12.1754539757967">
        <ele>12.15</ele>
        <time>2017-06-22T09:51:17Z</time>
      </trkpt>
      <trkpt lat="65.390877965837717" lon="12.175220958888531">
        <ele>11.67</ele>
        <time>2017-06-22T09:51:19Z</time>
      </trkpt>
      <trkpt lat="65.391049962490797" lon="12.175172008574009">
        <ele>11.67</ele>
        <time>2017-06-22T09:51:20Z</time>
      </trkpt>
      <trkpt lat="65.391222964972258" lon="12.175180977210402">
        <ele>11.19</ele>
        <time>2017-06-22T09:51:21Z</time>
      </trkpt>
      <trkpt lat="65.391400996595621" lon="12.175245014950633">
        <ele>11.19</ele>
        <time>2017-06-22T09:51:22Z</time>
      </trkpt>
      <trkpt lat="65.391581039875746" lon="12.175356997177005">
        <ele>10.710000000000001</ele>
        <time>2017-06-22T09:51:23Z</time>
      </trkpt>
      <trkpt lat="65.391765022650361" lon="12.175488006323576">
        <ele>11.19</ele>
        <time>2017-06-22T09:51:24Z</time>
      </trkpt>
      <trkpt lat="65.394560974091291" lon="12.177665960043669">
        <ele>11.19</ele>
        <time>2017-06-22T09:51:38Z</time>
      </trkpt>
      <trkpt lat="65.399062978103757" lon="12.181055014953017">
        <ele>9.27</ele>
        <time>2017-06-22T09:52:00Z</time>
      </trkpt>
      <trkpt lat="65.402516992762685" lon="12.183926990255713">
        <ele>5.91</ele>
        <time>2017-06-22T09:52:17Z</time>
      </trkpt>
      <trkpt lat="65.405390979722142" lon="12.186014000326395">
        <ele>5.91</ele>
        <time>2017-06-22T09:52:31Z</time>
      </trkpt>
      <trkpt lat="65.407347986474633" lon="12.187853995710611">
        <ele>5.91</ele>
        <time>2017-06-22T09:52:41Z</time>
      </trkpt>
      <trkpt lat="65.410007983446121" lon="12.192495977506042">
        <ele>7.35</ele>
        <time>2017-06-22T09:52:57Z</time>
      </trkpt>
      <trkpt lat="65.410828990861773" lon="12.195357978343964">
        <ele>6.39</ele>
        <time>2017-06-22T09:53:04Z</time>
      </trkpt>
      <trkpt lat="65.412269001826644" lon="12.200833959504962">
        <ele>3.98</ele>
        <time>2017-06-22T09:53:17Z</time>
      </trkpt>
      <trkpt lat="65.414634961634874" lon="12.208415977656841">
        <ele>8.310000000000001</ele>
        <time>2017-06-22T09:53:36Z</time>
      </trkpt>
      <trkpt lat="65.414801007136703" lon="12.208703979849815">
        <ele>9.27</ele>
        <time>2017-06-22T09:53:37Z</time>
      </trkpt>
      <trkpt lat="65.416950965300202" lon="12.211624989286065">
        <ele>9.75</ele>
        <time>2017-06-22T09:53:49Z</time>
      </trkpt>
      <trkpt lat="65.418433975428343" lon="12.214209968224168">
        <ele>11.67</ele>
        <time>2017-06-22T09:53:58Z</time>
      </trkpt>
      <trkpt lat="65.41993098333478" lon="12.216751025989652">
        <ele>16.48</ele>
        <time>2017-06-22T09:54:07Z</time>
      </trkpt>
      <trkpt lat="65.421882038936019" lon="12.220404027029872">
        <ele>11.19</ele>
        <time>2017-06-22T09:54:19Z</time>
      </trkpt>
      <trkpt lat="65.423676017671824" lon="12.223895005881786">
        <ele>7.83</ele>
        <time>2017-06-22T09:54:31Z</time>
      </trkpt>
      <trkpt lat="65.424312958493829" lon="12.225212976336479">
        <ele>3.98</ele>
        <time>2017-06-22T09:54:39Z</time>
      </trkpt>
      <trkpt lat="65.425157016143203" lon="12.22699798643589">
        <ele>4.46</ele>
        <time>2017-06-22T09:54:48Z</time>
      </trkpt>
      <trkpt lat="65.426714038476348" lon="12.230311017483473">
        <ele>4.46</ele>
        <time>2017-06-22T09:55:01Z</time>
      </trkpt>
      <trkpt lat="65.427738977596164" lon="12.23318399861455">
        <ele>2.54</ele>
        <time>2017-06-22T09:55:10Z</time>
      </trkpt>
      <trkpt lat="65.428468035534024" lon="12.235347032546997">
        <ele>2.06</ele>
        <time>2017-06-22T09:55:17Z</time>
      </trkpt>
      <trkpt lat="65.428756037726998" lon="12.236499041318893">
        <ele>0.62</ele>
        <time>2017-06-22T09:55:23Z</time>
      </trkpt>
      <trkpt lat="65.428776992484927" lon="12.236733986064792">
        <ele>-0.34</ele>
        <time>2017-06-22T09:55:30Z</time>
      </trkpt>
      <trkpt lat="65.428789984434843" lon="12.236804980784655">
        <ele>-0.34</ele>
        <time>2017-06-22T09:55:57Z</time>
      </trkpt>
      <trkpt lat="65.42904001660645" lon="12.238037958741188">
        <ele>1.1</ele>
        <time>2017-06-22T09:56:03Z</time>
      </trkpt>
      <trkpt lat="65.429620966315269" lon="12.241107998415828">
        <ele>4.46</ele>
        <time>2017-06-22T09:56:12Z</time>
      </trkpt>
      <trkpt lat="65.430523026734591" lon="12.244745995849371">
        <ele>9.75</ele>
        <time>2017-06-22T09:56:21Z</time>
      </trkpt>
      <trkpt lat="65.431369012221694" lon="12.248240998014808">
        <ele>11.67</ele>
        <time>2017-06-22T09:56:29Z</time>
      </trkpt>
      <trkpt lat="65.432518003508449" lon="12.255492014810443">
        <ele>6.87</ele>
        <time>2017-06-22T09:56:43Z</time>
      </trkpt>
      <trkpt lat="65.433678980916739" lon="12.261556992307305">
        <ele>12.15</ele>
        <time>2017-06-22T09:56:56Z</time>
      </trkpt>
      <trkpt lat="65.435010027140379" lon="12.269003977999091">
        <ele>13.6</ele>
        <time>2017-06-22T09:57:11Z</time>
      </trkpt>
      <trkpt lat="65.436527989804745" lon="12.276235967874527">
        <ele>7.83</ele>
        <time>2017-06-22T09:57:26Z</time>
      </trkpt>
      <trkpt lat="65.437513031065464" lon="12.28367599658668">
        <ele>13.119999999999999</ele>
        <time>2017-06-22T09:57:41Z</time>
      </trkpt>
      <trkpt lat="65.438766963779926" lon="12.288258969783783">
        <ele>17.440000000000001</ele>
        <time>2017-06-22T09:57:52Z</time>
      </trkpt>
      <trkpt lat="65.440596984699368" lon="12.294872039929032">
        <ele>13.6</ele>
        <time>2017-06-22T09:58:08Z</time>
      </trkpt>
      <trkpt lat="65.442580981180072" lon="12.302169995382428">
        <ele>7.83</ele>
        <time>2017-06-22T09:58:24Z</time>
      </trkpt>
      <trkpt lat="65.443854024633765" lon="12.306089960038662">
        <ele>13.6</ele>
        <time>2017-06-22T09:58:34Z</time>
      </trkpt>
      <trkpt lat="65.447049960494041" lon="12.313319016247988">
        <ele>15.52</ele>
        <time>2017-06-22T09:58:55Z</time>
      </trkpt>
      <trkpt lat="65.447729984298348" lon="12.31588396243751">
        <ele>16.960000000000001</ele>
        <time>2017-06-22T09:59:01Z</time>
      </trkpt>
      <trkpt lat="65.448537999764085" lon="12.318862974643707">
        <ele>20.32</ele>
        <time>2017-06-22T09:59:08Z</time>
      </trkpt>
      <trkpt lat="65.450690975412726" lon="12.324233008548617">
        <ele>23.210000000000001</ele>
        <time>2017-06-22T09:59:22Z</time>
      </trkpt>
      <trkpt lat="65.45207298360765" lon="12.326889988034964">
        <ele>21.289999999999999</ele>
        <time>2017-06-22T09:59:30Z</time>
      </trkpt>
      <trkpt lat="65.454462999477983" lon="12.331264000386">
        <ele>16.960000000000001</ele>
        <time>2017-06-22T09:59:43Z</time>
      </trkpt>
      <trkpt lat="65.456851003691554" lon="12.336773006245494">
        <ele>10.23</ele>
        <time>2017-06-22T09:59:57Z</time>
      </trkpt>
      <trkpt lat="65.46002103947103" lon="12.344041960313916">
        <ele>0.62</ele>
        <time>2017-06-22T10:00:16Z</time>
      </trkpt>
      <trkpt lat="65.461338004097342" lon="12.345995027571917">
        <ele>1.58</ele>
        <time>2017-06-22T10:00:23Z</time>
      </trkpt>
      <trkpt lat="65.463476981967688" lon="12.348702969029546">
        <ele>4.46</ele>
        <time>2017-06-22T10:00:34Z</time>
      </trkpt>
      <trkpt lat="65.465722996741533" lon="12.3524060100317">
        <ele>3.98</ele>
        <time>2017-06-22T10:00:46Z</time>
      </trkpt>
      <trkpt lat="65.46694197691977" lon="12.354496037587523">
        <ele>4.46</ele>
        <time>2017-06-22T10:00:53Z</time>
      </trkpt>
      <trkpt lat="65.46723903156817" lon="12.354975985363126">
        <ele>4.94</ele>
        <time>2017-06-22T10:00:55Z</time>
      </trkpt>
      <trkpt lat="65.467394012957811" lon="12.355150999501348">
        <ele>4.46</ele>
        <time>2017-06-22T10:00:56Z</time>
      </trkpt>
      <trkpt lat="65.467556035146117" lon="12.355283014476299">
        <ele>3.98</ele>
        <time>2017-06-22T10:00:57Z</time>
      </trkpt>
      <trkpt lat="65.467720991000533" lon="12.355361972004175">
        <ele>3.5</ele>
        <time>2017-06-22T10:00:58Z</time>
      </trkpt>
      <trkpt lat="65.467892987653613" lon="12.35537395812571">
        <ele>2.54</ele>
        <time>2017-06-22T10:00:59Z</time>
      </trkpt>
      <trkpt lat="65.468070013448596" lon="12.355319978669286">
        <ele>1.58</ele>
        <time>2017-06-22T10:01:00Z</time>
      </trkpt>
      <trkpt lat="65.468255002051592" lon="12.355206990614533">
        <ele>1.58</ele>
        <time>2017-06-22T10:01:01Z</time>
      </trkpt>
      <trkpt lat="65.468440996482968" lon="12.355085033923388">
        <ele>0.62</ele>
        <time>2017-06-22T10:01:02Z</time>
      </trkpt>
      <trkpt lat="65.470963027328253" lon="12.353545026853681">
        <ele>0.14</ele>
        <time>2017-06-22T10:01:16Z</time>
      </trkpt>
      <trkpt lat="65.472686011344194" lon="12.352495025843382">
        <ele>5.42</ele>
        <time>2017-06-22T10:01:27Z</time>
      </trkpt>
      <trkpt lat="65.47450203448534" lon="12.351212007924914">
        <ele>11.67</ele>
        <time>2017-06-22T10:01:38Z</time>
      </trkpt>
      <trkpt lat="65.474637988954782" lon="12.350983014330268">
        <ele>11.67</ele>
        <time>2017-06-22T10:01:39Z</time>
      </trkpt>
      <trkpt lat="65.474752988666296" lon="12.350701969116926">
        <ele>12.630000000000001</ele>
        <time>2017-06-22T10:01:40Z</time>
      </trkpt>
      <trkpt lat="65.474856002256274" lon="12.350383959710598">
        <ele>13.119999999999999</ele>
        <time>2017-06-22T10:01:41Z</time>
      </trkpt>
      <trkpt lat="65.474958010017872" lon="12.350049018859863">
        <ele>13.119999999999999</ele>
        <time>2017-06-22T10:01:42Z</time>
      </trkpt>
      <trkpt lat="65.475912038236856" lon="12.346898010000587">
        <ele>15.039999999999999</ele>
        <time>2017-06-22T10:01:51Z</time>
      </trkpt>
      <trkpt lat="65.476153017953038" lon="12.34589796513319">
        <ele>17.440000000000001</ele>
        <time>2017-06-22T10:01:54Z</time>
      </trkpt>
      <trkpt lat="65.476209009066224" lon="12.345534022897482">
        <ele>17.920000000000002</ele>
        <time>2017-06-22T10:01:55Z</time>
      </trkpt>
      <trkpt lat="65.476257959380746" lon="12.345136972144246">
        <ele>18.879999999999999</ele>
        <time>2017-06-22T10:01:56Z</time>
      </trkpt>
      <trkpt lat="65.476685017347336" lon="12.340829009190202">
        <ele>18.879999999999999</ele>
        <time>2017-06-22T10:02:06Z</time>
      </trkpt>
      <trkpt lat="65.476882997900248" lon="12.33930098824203">
        <ele>19.359999999999999</ele>
        <time>2017-06-22T10:02:10Z</time>
      </trkpt>
      <trkpt lat="65.476963967084885" lon="12.338966969400644">
        <ele>19.84</ele>
        <time>2017-06-22T10:02:11Z</time>
      </trkpt>
      <trkpt lat="65.477064969018102" lon="12.33865600079298">
        <ele>19.84</ele>
        <time>2017-06-22T10:02:12Z</time>
      </trkpt>
      <trkpt lat="65.477182986214757" lon="12.338371016085148">
        <ele>19.359999999999999</ele>
        <time>2017-06-22T10:02:13Z</time>
      </trkpt>
      <trkpt lat="65.477319024503231" lon="12.338114026933908">
        <ele>19.359999999999999</ele>
        <time>2017-06-22T10:02:14Z</time>
      </trkpt>
      <trkpt lat="65.477467970922589" lon="12.337889978662133">
        <ele>18.879999999999999</ele>
        <time>2017-06-22T10:02:15Z</time>
      </trkpt>
      <trkpt lat="65.477630998939276" lon="12.337708007544279">
        <ele>17.920000000000002</ele>
        <time>2017-06-22T10:02:16Z</time>
      </trkpt>
      <trkpt lat="65.477807018905878" lon="12.337575992569327">
        <ele>17.440000000000001</ele>
        <time>2017-06-22T10:02:17Z</time>
      </trkpt>
      <trkpt lat="65.477989995852113" lon="12.337491000071168">
        <ele>16.960000000000001</ele>
        <time>2017-06-22T10:02:18Z</time>
      </trkpt>
      <trkpt lat="65.478174984455109" lon="12.337440960109234">
        <ele>16.48</ele>
        <time>2017-06-22T10:02:19Z</time>
      </trkpt>
      <trkpt lat="65.478357961401343" lon="12.33741195872426">
        <ele>16</ele>
        <time>2017-06-22T10:02:20Z</time>
      </trkpt>
      <trkpt lat="65.479619018733501" lon="12.337896013632417">
        <ele>12.630000000000001</ele>
        <time>2017-06-22T10:02:27Z</time>
      </trkpt>
      <trkpt lat="65.482095032930374" lon="12.339490000158548">
        <ele>12.630000000000001</ele>
        <time>2017-06-22T10:02:41Z</time>
      </trkpt>
    </trkseg>
  </trk>

  <trk>
    <name>Track vom: 22 JUN 2017 12:02</name>
    <extensions>
      <gpxx:TrackExtension>
        <gpxx:DisplayColor>DarkGray</gpxx:DisplayColor>
      </gpxx:TrackExtension>
    </extensions>
    <trkseg>
      <trkpt lat="65.483170012012124" lon="12.340422989800572">
        <ele>12.630000000000001</ele>
        <time>2017-06-22T10:02:47Z</time>
      </trkpt>
      <trkpt lat="65.486076017841697" lon="12.342847036197782">
        <ele>12.630000000000001</ele>
        <time>2017-06-22T10:03:04Z</time>
      </trkpt>
      <trkpt lat="65.486241979524493" lon="12.342878971248865">
        <ele>11.67</ele>
        <time>2017-06-22T10:03:05Z</time>
      </trkpt>
      <trkpt lat="65.48640500754118" lon="12.342860028147697">
        <ele>11.19</ele>
        <time>2017-06-22T10:03:06Z</time>
      </trkpt>
      <trkpt lat="65.486560994759202" lon="12.342811999842525">
        <ele>11.19</ele>
        <time>2017-06-22T10:03:07Z</time>
      </trkpt>
      <trkpt lat="65.486974976956844" lon="12.342657018452883">
        <ele>10.710000000000001</ele>
        <time>2017-06-22T10:03:11Z</time>
      </trkpt>
      <trkpt lat="65.487052006646991" lon="12.34258602373302">
        <ele>10.710000000000001</ele>
        <time>2017-06-22T10:03:17Z</time>
      </trkpt>
    </trkseg>
  </trk>

  <trk>
    <name>Track vom: 22 JUN 2017 12:03</name>
    <extensions>
      <gpxx:TrackExtension>
        <gpxx:DisplayColor>DarkGray</gpxx:DisplayColor>
      </gpxx:TrackExtension>
    </extensions>
    <trkseg>
      <trkpt lat="65.48705100081861" lon="12.342585017904639">
        <ele>10.710000000000001</ele>
        <time>2017-06-22T10:03:30Z</time>
      </trkpt>
      <trkpt lat="65.487277982756495" lon="12.342461971566081">
        <ele>10.23</ele>
        <time>2017-06-22T10:03:39Z</time>
      </trkpt>
      <trkpt lat="65.487365992739797" lon="12.342464989051223">
        <ele>10.23</ele>
        <time>2017-06-22T10:03:40Z</time>
      </trkpt>
      <trkpt lat="65.48745802603662" lon="12.342489967122674">
        <ele>9.27</ele>
        <time>2017-06-22T10:03:41Z</time>
      </trkpt>
      <trkpt lat="65.487561961635947" lon="12.34254403039813">
        <ele>8.789999999999999</ele>
        <time>2017-06-22T10:03:42Z</time>
      </trkpt>
      <trkpt lat="65.487662963569164" lon="12.342636985704303">
        <ele>8.310000000000001</ele>
        <time>2017-06-22T10:03:43Z</time>
      </trkpt>
      <trkpt lat="65.487761031836271" lon="12.342742010951042">
        <ele>7.83</ele>
        <time>2017-06-22T10:03:44Z</time>
      </trkpt>
      <trkpt lat="65.487852981314063" lon="12.342858016490936">
        <ele>7.83</ele>
        <time>2017-06-22T10:03:45Z</time>
      </trkpt>
      <trkpt lat="65.487938979640603" lon="12.342983996495605">
        <ele>7.35</ele>
        <time>2017-06-22T10:03:46Z</time>
      </trkpt>
      <trkpt lat="65.488022966310382" lon="12.343133026733994">
        <ele>6.87</ele>
        <time>2017-06-22T10:03:47Z</time>
      </trkpt>
      <trkpt lat="65.488914968445897" lon="12.34436902217567">
        <ele>4.46</ele>
        <time>2017-06-22T10:03:57Z</time>
      </trkpt>
      <trkpt lat="65.488981017842889" lon="12.344468012452126">
        <ele>4.46</ele>
        <time>2017-06-22T10:03:58Z</time>
      </trkpt>
      <trkpt lat="65.489023011177778" lon="12.344603966921568">
        <ele>4.46</ele>
        <time>2017-06-22T10:03:59Z</time>
      </trkpt>
      <trkpt lat="65.489046983420849" lon="12.344783004373312">
        <ele>4.46</ele>
        <time>2017-06-22T10:04:00Z</time>
      </trkpt>
      <trkpt lat="65.489046983420849" lon="12.345003029331565">
        <ele>4.94</ele>
        <time>2017-06-22T10:04:01Z</time>
      </trkpt>
      <trkpt lat="65.48902602866292" lon="12.345243003219366">
        <ele>5.42</ele>
        <time>2017-06-22T10:04:02Z</time>
      </trkpt>
      <trkpt lat="65.488990992307663" lon="12.345500998198986">
        <ele>5.91</ele>
        <time>2017-06-22T10:04:03Z</time>
      </trkpt>
      <trkpt lat="65.488953022286296" lon="12.345772990956903">
        <ele>6.87</ele>
        <time>2017-06-22T10:04:04Z</time>
      </trkpt>
      <trkpt lat="65.48857600428164" lon="12.34883900731802">
        <ele>18.399999999999999</ele>
        <time>2017-06-22T10:04:13Z</time>
      </trkpt>
      <trkpt lat="65.488525964319706" lon="12.34961399808526">
        <ele>20.809999999999999</ele>
        <time>2017-06-22T10:04:15Z</time>
      </trkpt>
      <trkpt lat="65.488526970148087" lon="12.35002102330327">
        <ele>22.25</ele>
        <time>2017-06-22T10:04:16Z</time>
      </trkpt>
      <trkpt lat="65.488539040088654" lon="12.35042997635901">
        <ele>23.210000000000001</ele>
        <time>2017-06-22T10:04:17Z</time>
      </trkpt>
      <trkpt lat="65.488568041473627" lon="12.350843036547303">
        <ele>24.649999999999999</ele>
        <time>2017-06-22T10:04:18Z</time>
      </trkpt>
      <trkpt lat="65.488605005666614" lon="12.351258024573326">
        <ele>25.609999999999999</ele>
        <time>2017-06-22T10:04:19Z</time>
      </trkpt>
      <trkpt lat="65.489230966195464" lon="12.355658020824194">
        <ele>30.899999999999999</ele>
        <time>2017-06-22T10:04:29Z</time>
      </trkpt>
      <trkpt lat="65.490356991067529" lon="12.359779989346862">
        <ele>36.670000000000002</ele>
        <time>2017-06-22T10:04:39Z</time>
      </trkpt>
      <trkpt lat="65.491944020614028" lon="12.363253030925989">
        <ele>43.880000000000003</ele>
        <time>2017-06-22T10:04:50Z</time>
      </trkpt>
      <trkpt lat="65.493181021884084" lon="12.365094032138586">
        <ele>46.280000000000001</ele>
        <time>2017-06-22T10:04:57Z</time>
      </trkpt>
      <trkpt lat="65.495359981432557" lon="12.368731023743749">
        <ele>48.68</ele>
        <time>2017-06-22T10:05:09Z</time>
      </trkpt>
      <trkpt lat="65.49755796790123" lon="12.372805969789624">
        <ele>67.430000000000007</ele>
        <time>2017-06-22T10:05:23Z</time>
      </trkpt>
      <trkpt lat="65.497656958177686" lon="12.373076034709811">
        <ele>68.390000000000001</ele>
        <time>2017-06-22T10:05:24Z</time>
      </trkpt>
      <trkpt lat="65.497732982039452" lon="12.373370993882418">
        <ele>69.829999999999998</ele>
        <time>2017-06-22T10:05:25Z</time>
      </trkpt>
      <trkpt lat="65.497784027829766" lon="12.373695960268378">
        <ele>71.269999999999996</ele>
        <time>2017-06-22T10:05:26Z</time>
      </trkpt>
      <trkpt lat="65.497815040871501" lon="12.374049006029963">
        <ele>73.200000000000003</ele>
        <time>2017-06-22T10:05:27Z</time>
      </trkpt>
      <trkpt lat="65.497829960659146" lon="12.374397022649646">
        <ele>74.640000000000001</ele>
        <time>2017-06-22T10:05:28Z</time>
      </trkpt>
      <trkpt lat="65.497830966487527" lon="12.374732969328761">
        <ele>76.560000000000002</ele>
        <time>2017-06-22T10:05:29Z</time>
      </trkpt>
      <trkpt lat="65.497827026993036" lon="12.375057013705373">
        <ele>78</ele>
        <time>2017-06-22T10:05:30Z</time>
      </trkpt>
      <trkpt lat="65.497829960659146" lon="12.375655984506011">
        <ele>80.409999999999997</ele>
        <time>2017-06-22T10:05:32Z</time>
      </trkpt>
      <trkpt lat="65.497846975922585" lon="12.375937029719353">
        <ele>81.370000000000005</ele>
        <time>2017-06-22T10:05:33Z</time>
      </trkpt>
      <trkpt lat="65.497886035591364" lon="12.37621396780014">
        <ele>82.810000000000002</ele>
        <time>2017-06-22T10:05:34Z</time>
      </trkpt>
      <trkpt lat="65.497938003391027" lon="12.376487972214818">
        <ele>83.769999999999996</ele>
        <time>2017-06-22T10:05:35Z</time>
      </trkpt>
      <trkpt lat="65.498002963140607" lon="12.376784021034837">
        <ele>84.730000000000004</ele>
        <time>2017-06-22T10:05:36Z</time>
      </trkpt>
      <trkpt lat="65.498821036890149" lon="12.380113983526826">
        <ele>93.870000000000005</ele>
        <time>2017-06-22T10:05:46Z</time>
      </trkpt>
      <trkpt lat="65.499827032908797" lon="12.383397007361054">
        <ele>103</ele>
        <time>2017-06-22T10:05:55Z</time>
      </trkpt>
      <trkpt lat="65.50009198486805" lon="12.384471986442804">
        <ele>105.88</ele>
        <time>2017-06-22T10:05:58Z</time>
      </trkpt>
      <trkpt lat="65.500151999294758" lon="12.384866019710898">
        <ele>106.36</ele>
        <time>2017-06-22T10:05:59Z</time>
      </trkpt>
      <trkpt lat="65.500194998458028" lon="12.385266004130244">
        <ele>107.31999999999999</ele>
        <time>2017-06-22T10:06:00Z</time>
      </trkpt>
      <trkpt lat="65.500222994014621" lon="12.38566498272121">
        <ele>108.29000000000001</ele>
        <time>2017-06-22T10:06:01Z</time>
      </trkpt>
      <trkpt lat="65.500233974307775" lon="12.386071002110839">
        <ele>109.25</ele>
        <time>2017-06-22T10:06:02Z</time>
      </trkpt>
      <trkpt lat="65.500229028984904" lon="12.386467969045043">
        <ele>109.73</ele>
        <time>2017-06-22T10:06:03Z</time>
      </trkpt>
      <trkpt lat="65.500213019549847" lon="12.386850016191602">
        <ele>110.20999999999999</ele>
        <time>2017-06-22T10:06:04Z</time>
      </trkpt>
      <trkpt lat="65.500193992629647" lon="12.387215970084071">
        <ele>111.17</ele>
        <time>2017-06-22T10:06:05Z</time>
      </trkpt>
      <trkpt lat="65.500175971537828" lon="12.387953996658325">
        <ele>113.09</ele>
        <time>2017-06-22T10:06:07Z</time>
      </trkpt>
      <trkpt lat="65.500190975144506" lon="12.388325985521078">
        <ele>113.56999999999999</ele>
        <time>2017-06-22T10:06:08Z</time>
      </trkpt>
      <trkpt lat="65.500217964872718" lon="12.388700991868973">
        <ele>114.53</ele>
        <time>2017-06-22T10:06:09Z</time>
      </trkpt>
      <trkpt lat="65.500257024541497" lon="12.389074992388487">
        <ele>115.01000000000001</ele>
        <time>2017-06-22T10:06:10Z</time>
      </trkpt>
      <trkpt lat="65.500308992341161" lon="12.389426026493311">
        <ele>115.5</ele>
        <time>2017-06-22T10:06:11Z</time>
      </trkpt>
      <trkpt lat="65.500374035909772" lon="12.38976901397109">
        <ele>115.5</ele>
        <time>2017-06-22T10:06:12Z</time>
      </trkpt>
      <trkpt lat="65.500458022579551" lon="12.390093980357051">
        <ele>115.5</ele>
        <time>2017-06-22T10:06:13Z</time>
      </trkpt>
      <trkpt lat="65.500555001199245" lon="12.39041400142014">
        <ele>115.5</ele>
        <time>2017-06-22T10:06:14Z</time>
      </trkpt>
      <trkpt lat="65.500664971768856" lon="12.390733016654849">
        <ele>115.01000000000001</ele>
        <time>2017-06-22T10:06:15Z</time>
      </trkpt>
      <trkpt lat="65.50078097730875" lon="12.391044991090894">
        <ele>114.53</ele>
        <time>2017-06-22T10:06:16Z</time>
      </trkpt>
      <trkpt lat="65.502461967989802" lon="12.394717019051313">
        <ele>107.81</ele>
        <time>2017-06-22T10:06:29Z</time>
      </trkpt>
      <trkpt lat="65.503183985128999" lon="12.396191982552409">
        <ele>104.92</ele>
        <time>2017-06-22T10:06:35Z</time>
      </trkpt>
      <trkpt lat="65.50325196236372" lon="12.396440003067255">
        <ele>104.44</ele>
        <time>2017-06-22T10:06:36Z</time>
      </trkpt>
      <trkpt lat="65.503306025639176" lon="12.396679976955056">
        <ele>103.95999999999999</ele>
        <time>2017-06-22T10:06:37Z</time>
      </trkpt>
      <trkpt lat="65.50333502702415" lon="12.39694400690496">
        <ele>103</ele>
        <time>2017-06-22T10:06:38Z</time>
      </trkpt>
      <trkpt lat="65.503349024802446" lon="12.39722304046154">
        <ele>102.04000000000001</ele>
        <time>2017-06-22T10:06:39Z</time>
      </trkpt>
      <trkpt lat="65.503338966518641" lon="12.397516993805766">
        <ele>100.59999999999999</ele>
        <time>2017-06-22T10:06:40Z</time>
      </trkpt>
      <trkpt lat="65.503309965133667" lon="12.397819999605417">
        <ele>99.629999999999995</ele>
        <time>2017-06-22T10:06:41Z</time>
      </trkpt>
      <trkpt lat="65.503257997334003" lon="12.398115964606404">
        <ele>98.670000000000002</ele>
        <time>2017-06-22T10:06:42Z</time>
      </trkpt>
      <trkpt lat="65.503184990957379" lon="12.398402038961649">
        <ele>97.230000000000004</ele>
        <time>2017-06-22T10:06:43Z</time>
      </trkpt>
      <trkpt lat="65.503097986802459" lon="12.398676965385675">
        <ele>96.269999999999996</ele>
        <time>2017-06-22T10:06:44Z</time>
      </trkpt>
      <trkpt lat="65.503000002354383" lon="12.398961028084159">
        <ele>94.829999999999998</ele>
        <time>2017-06-22T10:06:45Z</time>
      </trkpt>
      <trkpt lat="65.502794981002808" lon="12.399586988613009">
        <ele>91.459999999999994</ele>
        <time>2017-06-22T10:06:47Z</time>
      </trkpt>
      <trkpt lat="65.502706971019506" lon="12.399932993575931">
        <ele>90.019999999999996</ele>
        <time>2017-06-22T10:06:48Z</time>
      </trkpt>
      <trkpt lat="65.502057038247585" lon="12.403383990749717">
        <ele>76.560000000000002</ele>
        <time>2017-06-22T10:06:57Z</time>
      </trkpt>
      <trkpt lat="65.500884996727109" lon="12.407446028664708">
        <ele>63.100000000000001</ele>
        <time>2017-06-22T10:07:08Z</time>
      </trkpt>
      <trkpt lat="65.499912025406957" lon="12.410110970959067">
        <ele>51.090000000000003</ele>
        <time>2017-06-22T10:07:16Z</time>
      </trkpt>
      <trkpt lat="65.499823009595275" lon="12.41039402782917">
        <ele>50.130000000000003</ele>
        <time>2017-06-22T10:07:17Z</time>
      </trkpt>
      <trkpt lat="65.4997250251472" lon="12.410646993666887">
        <ele>48.68</ele>
        <time>2017-06-22T10:07:18Z</time>
      </trkpt>
      <trkpt lat="65.499451020732522" lon="12.411406980827451">
        <ele>45.32</ele>
        <time>2017-06-22T10:07:21Z</time>
      </trkpt>
      <trkpt lat="65.499382959678769" lon="12.411688026040792">
        <ele>43.880000000000003</ele>
        <time>2017-06-22T10:07:22Z</time>
      </trkpt>
      <trkpt lat="65.499331997707486" lon="12.411989020183682">
        <ele>43.399999999999999</ele>
        <time>2017-06-22T10:07:23Z</time>
      </trkpt>
      <trkpt lat="65.499127982184291" lon="12.413202971220016">
        <ele>40.990000000000002</ele>
        <time>2017-06-22T10:07:27Z</time>
      </trkpt>
      <trkpt lat="65.499043995514512" lon="12.413474963977933">
        <ele>40.509999999999998</ele>
        <time>2017-06-22T10:07:28Z</time>
      </trkpt>
      <trkpt lat="65.498942993581295" lon="12.413715021684766">
        <ele>39.549999999999997</ele>
        <time>2017-06-22T10:07:29Z</time>
      </trkpt>
      <trkpt lat="65.498823970556259" lon="12.413958013057709">
        <ele>39.07</ele>
        <time>2017-06-22T10:07:30Z</time>
      </trkpt>
      <trkpt lat="65.498694973066449" lon="12.414195975288749">
        <ele>38.109999999999999</ele>
        <time>2017-06-22T10:07:31Z</time>
      </trkpt>
      <trkpt lat="65.497451014816761" lon="12.416350040584803">
        <ele>27.530000000000001</ele>
        <time>2017-06-22T10:07:39Z</time>
      </trkpt>
      <trkpt lat="65.495048006996512" lon="12.420909041538835">
        <ele>8.789999999999999</ele>
        <time>2017-06-22T10:07:53Z</time>
      </trkpt>
      <trkpt lat="65.491599021479487" lon="12.42758103646338">
        <ele>5.42</ele>
        <time>2017-06-22T10:08:14Z</time>
      </trkpt>
      <trkpt lat="65.489151002839208" lon="12.432621996849775">
        <ele>2.54</ele>
        <time>2017-06-22T10:08:29Z</time>
      </trkpt>
      <trkpt lat="65.48728502355516" lon="12.436912022531033">
        <ele>6.39</ele>
        <time>2017-06-22T10:08:41Z</time>
      </trkpt>
      <trkpt lat="65.484724016860127" lon="12.441739998757839">
        <ele>3.98</ele>
        <time>2017-06-22T10:08:56Z</time>
      </trkpt>
      <trkpt lat="65.48455998301506" lon="12.441968992352486">
        <ele>4.46</ele>
        <time>2017-06-22T10:08:57Z</time>
      </trkpt>
      <trkpt lat="65.484392009675503" lon="12.442152975127101">
        <ele>4.94</ele>
        <time>2017-06-22T10:08:58Z</time>
      </trkpt>
      <trkpt lat="65.484212972223759" lon="12.44227996096015">
        <ele>4.94</ele>
        <time>2017-06-22T10:08:59Z</time>
      </trkpt>
      <trkpt lat="65.484031001105905" lon="12.442345004528761">
        <ele>4.94</ele>
        <time>2017-06-22T10:09:00Z</time>
      </trkpt>
      <trkpt lat="65.483838971704245" lon="12.442381968721747">
        <ele>4.46</ele>
        <time>2017-06-22T10:09:01Z</time>
      </trkpt>
      <trkpt lat="65.483640991151333" lon="12.442395966500044">
        <ele>3.98</ele>
        <time>2017-06-22T10:09:02Z</time>
      </trkpt>
      <trkpt lat="65.481360023841262" lon="12.442739037796855">
        <ele>1.58</ele>
        <time>2017-06-22T10:09:13Z</time>
      </trkpt>
      <trkpt lat="65.481167994439602" lon="12.44294498115778">
        <ele>1.1</ele>
        <time>2017-06-22T10:09:14Z</time>
      </trkpt>
      <trkpt lat="65.480986023321748" lon="12.44320398196578">
        <ele>1.1</ele>
        <time>2017-06-22T10:09:15Z</time>
      </trkpt>
      <trkpt lat="65.480816038325429" lon="12.443520985543728">
        <ele>1.58</ele>
        <time>2017-06-22T10:09:16Z</time>
      </trkpt>
      <trkpt lat="65.480658039450645" lon="12.443875959143043">
        <ele>2.54</ele>
        <time>2017-06-22T10:09:17Z</time>
      </trkpt>
      <trkpt lat="65.480510015040636" lon="12.44425498880446">
        <ele>3.5</ele>
        <time>2017-06-22T10:09:18Z</time>
      </trkpt>
      <trkpt lat="65.480365008115768" lon="12.444639969617128">
        <ele>4.94</ele>
        <time>2017-06-22T10:09:19Z</time>
      </trkpt>
      <trkpt lat="65.478919968008995" lon="12.447763988748193">
        <ele>15.039999999999999</ele>
        <time>2017-06-22T10:09:28Z</time>
      </trkpt>
      <trkpt lat="65.477566039189696" lon="12.451273994520307">
        <ele>14.08</ele>
        <time>2017-06-22T10:09:38Z</time>
      </trkpt>
      <trkpt lat="65.477421032264829" lon="12.451547998934984">
        <ele>13.119999999999999</ele>
        <time>2017-06-22T10:09:39Z</time>
      </trkpt>
      <trkpt lat="65.477255992591381" lon="12.451733993366361">
        <ele>12.630000000000001</ele>
        <time>2017-06-22T10:09:40Z</time>
      </trkpt>
      <trkpt lat="65.477077960968018" lon="12.451845975592732">
        <ele>12.15</ele>
        <time>2017-06-22T10:09:41Z</time>
      </trkpt>
      <trkpt lat="65.476890038698912" lon="12.451928034424782">
        <ele>12.15</ele>
        <time>2017-06-22T10:09:42Z</time>
      </trkpt>
      <trkpt lat="65.476689040660858" lon="12.451991988345981">
        <ele>12.15</ele>
        <time>2017-06-22T10:09:43Z</time>
      </trkpt>
      <trkpt lat="65.475546000525355" lon="12.452488029375672">
        <ele>10.710000000000001</ele>
        <time>2017-06-22T10:09:49Z</time>
      </trkpt>
      <trkpt lat="65.475226985290647" lon="12.452574027702212">
        <ele>9.75</ele>
        <time>2017-06-22T10:09:51Z</time>
      </trkpt>
      <trkpt lat="65.475094970315695" lon="12.452730014920235">
        <ele>9.27</ele>
        <time>2017-06-22T10:09:52Z</time>
      </trkpt>
      <trkpt lat="65.474987011402845" lon="12.452954985201359">
        <ele>9.27</ele>
        <time>2017-06-22T10:09:53Z</time>
      </trkpt>
      <trkpt lat="65.47491098754108" lon="12.453208034858108">
        <ele>9.75</ele>
        <time>2017-06-22T10:09:54Z</time>
      </trkpt>
      <trkpt lat="65.474851978942752" lon="12.453488996252418">
        <ele>10.23</ele>
        <time>2017-06-22T10:09:55Z</time>
      </trkpt>
      <trkpt lat="65.474791964516044" lon="12.453764006495476">
        <ele>10.710000000000001</ele>
        <time>2017-06-22T10:09:56Z</time>
      </trkpt>
      <trkpt lat="65.474722981452942" lon="12.454003980383277">
        <ele>11.19</ele>
        <time>2017-06-22T10:09:57Z</time>
      </trkpt>
      <trkpt lat="65.474634971469641" lon="12.454175977036357">
        <ele>11.19</ele>
        <time>2017-06-22T10:09:58Z</time>
      </trkpt>
      <trkpt lat="65.474519971758127" lon="12.454293994233012">
        <ele>10.710000000000001</ele>
        <time>2017-06-22T10:09:59Z</time>
      </trkpt>
      <trkpt lat="65.474387034773827" lon="12.454350991174579">
        <ele>10.710000000000001</ele>
        <time>2017-06-22T10:10:00Z</time>
      </trkpt>
      <trkpt lat="65.474234987050295" lon="12.454363983124495">
        <ele>10.710000000000001</ele>
        <time>2017-06-22T10:10:01Z</time>
      </trkpt>
      <trkpt lat="65.47407497651875" lon="12.45435300283134">
        <ele>10.710000000000001</ele>
        <time>2017-06-22T10:10:02Z</time>
      </trkpt>
      <trkpt lat="65.472674025222659" lon="12.453878000378609">
        <ele>13.119999999999999</ele>
        <time>2017-06-22T10:10:10Z</time>
      </trkpt>
      <trkpt lat="65.472516026347876" lon="12.453698962926865">
        <ele>14.08</ele>
        <time>2017-06-22T10:10:11Z</time>
      </trkpt>
      <trkpt lat="65.472373031079769" lon="12.45347298681736">
        <ele>14.56</ele>
        <time>2017-06-22T10:10:12Z</time>
      </trkpt>
      <trkpt lat="65.472242021933198" lon="12.453203005716205">
        <ele>15.52</ele>
        <time>2017-06-22T10:10:13Z</time>
      </trkpt>
      <trkpt lat="65.472117969766259" lon="12.452908968552947">
        <ele>15.52</ele>
        <time>2017-06-22T10:10:14Z</time>
      </trkpt>
      <trkpt lat="65.471883025020361" lon="12.452432038262486">
        <ele>15.52</ele>
        <time>2017-06-22T10:10:16Z</time>
      </trkpt>
      <trkpt lat="65.471767019480467" lon="12.452314021065831">
        <ele>15.52</ele>
        <time>2017-06-22T10:10:17Z</time>
      </trkpt>
      <trkpt lat="65.471638021990657" lon="12.452300023287535">
        <ele>16</ele>
        <time>2017-06-22T10:10:18Z</time>
      </trkpt>
      <trkpt lat="65.471511036157608" lon="12.452346039935946">
        <ele>16.960000000000001</ele>
        <time>2017-06-22T10:10:19Z</time>
      </trkpt>
      <trkpt lat="65.47138899564743" lon="12.452413011342287">
        <ele>17.440000000000001</ele>
        <time>2017-06-22T10:10:20Z</time>
      </trkpt>
      <trkpt lat="65.471266033127904" lon="12.452426003292203">
        <ele>17.440000000000001</ele>
        <time>2017-06-22T10:10:21Z</time>
      </trkpt>
      <trkpt lat="65.471139969304204" lon="12.452370012179017">
        <ele>17.920000000000002</ele>
        <time>2017-06-22T10:10:22Z</time>
      </trkpt>
      <trkpt lat="65.471009965986013" lon="12.452268004417419">
        <ele>19.359999999999999</ele>
        <time>2017-06-22T10:10:23Z</time>
      </trkpt>
      <trkpt lat="65.470879962667823" lon="12.452131966128945">
        <ele>19.84</ele>
        <time>2017-06-22T10:10:24Z</time>
      </trkpt>
      <trkpt lat="65.47074300237" lon="12.451967010274529">
        <ele>20.32</ele>
        <time>2017-06-22T10:10:25Z</time>
      </trkpt>
      <trkpt lat="65.470207985490561" lon="12.451446997001767">
        <ele>20.809999999999999</ele>
        <time>2017-06-22T10:10:29Z</time>
      </trkpt>
      <trkpt lat="65.470086028799415" lon="12.451462000608444">
        <ele>21.77</ele>
        <time>2017-06-22T10:10:30Z</time>
      </trkpt>
      <trkpt lat="65.469973040744662" lon="12.451568031683564">
        <ele>22.73</ele>
        <time>2017-06-22T10:10:31Z</time>
      </trkpt>
      <trkpt lat="65.469382032752037" lon="12.452303962782025">
        <ele>19.359999999999999</ele>
        <time>2017-06-22T10:10:36Z</time>
      </trkpt>
      <trkpt lat="65.469248006120324" lon="12.452388033270836">
        <ele>18.879999999999999</ele>
        <time>2017-06-22T10:10:37Z</time>
      </trkpt>
      <trkpt lat="65.46911196783185" lon="12.452392978593707">
        <ele>17.920000000000002</ele>
        <time>2017-06-22T10:10:38Z</time>
      </trkpt>
      <trkpt lat="65.468976013362408" lon="12.452323995530605">
        <ele>17.920000000000002</ele>
        <time>2017-06-22T10:10:39Z</time>
      </trkpt>
      <trkpt lat="65.46883100643754" lon="12.452214024960995">
        <ele>17.440000000000001</ele>
        <time>2017-06-22T10:10:40Z</time>
      </trkpt>
      <trkpt lat="65.468679964542389" lon="12.452104976400733">
        <ele>15.52</ele>
        <time>2017-06-22T10:10:41Z</time>
      </trkpt>
      <trkpt lat="65.46850997954607" lon="12.452045967802405">
        <ele>15.039999999999999</ele>
        <time>2017-06-22T10:10:42Z</time>
      </trkpt>
      <trkpt lat="65.46833798289299" lon="12.452043034136295">
        <ele>14.08</ele>
        <time>2017-06-22T10:10:43Z</time>
      </trkpt>
      <trkpt lat="65.467989966273308" lon="12.452002968639135">
        <ele>11.67</ele>
        <time>2017-06-22T10:10:45Z</time>
      </trkpt>
      <trkpt lat="65.467818975448608" lon="12.451924011111259">
        <ele>11.19</ele>
        <time>2017-06-22T10:10:46Z</time>
      </trkpt>
      <trkpt lat="65.467657959088683" lon="12.451780010014772">
        <ele>10.23</ele>
        <time>2017-06-22T10:10:47Z</time>
      </trkpt>
      <trkpt lat="65.467508006840944" lon="12.451583035290241">
        <ele>9.75</ele>
        <time>2017-06-22T10:10:48Z</time>
      </trkpt>
      <trkpt lat="65.467360988259315" lon="12.451391005888581">
        <ele>8.789999999999999</ele>
        <time>2017-06-22T10:10:49Z</time>
      </trkpt>
      <trkpt lat="65.467213969677687" lon="12.451238036155701">
        <ele>7.35</ele>
        <time>2017-06-22T10:10:50Z</time>
      </trkpt>
      <trkpt lat="65.467059994116426" lon="12.451143991202116">
        <ele>6.87</ele>
        <time>2017-06-22T10:10:51Z</time>
      </trkpt>
      <trkpt lat="65.466900989413261" lon="12.451095962896943">
        <ele>6.39</ele>
        <time>2017-06-22T10:10:52Z</time>
      </trkpt>
      <trkpt lat="65.466748019680381" lon="12.451083976775408">
        <ele>6.87</ele>
        <time>2017-06-22T10:10:53Z</time>
      </trkpt>
      <trkpt lat="65.466602006927133" lon="12.451132005080581">
        <ele>6.87</ele>
        <time>2017-06-22T10:10:54Z</time>
      </trkpt>
      <trkpt lat="65.466449037194252" lon="12.451287992298603">
        <ele>8.310000000000001</ele>
        <time>2017-06-22T10:10:55Z</time>
      </trkpt>
      <trkpt lat="65.466320039704442" lon="12.451467029750347">
        <ele>8.310000000000001</ele>
        <time>2017-06-22T10:10:56Z</time>
      </trkpt>
      <trkpt lat="65.466217026114464" lon="12.451716978102922">
        <ele>9.75</ele>
        <time>2017-06-22T10:10:57Z</time>
      </trkpt>
      <trkpt lat="65.466129016131163" lon="12.451998023316264">
        <ele>10.710000000000001</ele>
        <time>2017-06-22T10:10:58Z</time>
      </trkpt>
      <trkpt lat="65.466045029461384" lon="12.452273033559322">
        <ele>11.19</ele>
        <time>2017-06-22T10:10:59Z</time>
      </trkpt>
      <trkpt lat="65.465944027528167" lon="12.452516024932265">
        <ele>11.67</ele>
        <time>2017-06-22T10:11:00Z</time>
      </trkpt>
      <trkpt lat="65.465834978967905" lon="12.452686009928584">
        <ele>11.67</ele>
        <time>2017-06-22T10:11:01Z</time>
      </trkpt>
      <trkpt lat="65.465744035318494" lon="12.452778965234756">
        <ele>12.15</ele>
        <time>2017-06-22T10:11:02Z</time>
      </trkpt>
      <trkpt lat="65.46567396260798" lon="12.452803021296859">
        <ele>12.15</ele>
        <time>2017-06-22T10:11:03Z</time>
      </trkpt>
      <trkpt lat="65.465630041435361" lon="12.452772008255124">
        <ele>11.67</ele>
        <time>2017-06-22T10:11:04Z</time>
      </trkpt>
      <trkpt lat="65.46558897010982" lon="12.452724985778332">
        <ele>11.19</ele>
        <time>2017-06-22T10:11:05Z</time>
      </trkpt>
      <trkpt lat="65.465515041723847" lon="12.452666983008385">
        <ele>13.6</ele>
        <time>2017-06-22T10:11:15Z</time>
      </trkpt>
      <trkpt lat="65.465513030067086" lon="12.452668994665146">
        <ele>13.6</ele>
        <time>2017-06-22T10:13:44Z</time>
      </trkpt>
      <trkpt lat="65.465476987883449" lon="12.452668994665146">
        <ele>14.08</ele>
        <time>2017-06-22T10:15:11Z</time>
      </trkpt>
      <trkpt lat="65.465420996770263" lon="12.45263596996665">
        <ele>14.56</ele>
        <time>2017-06-22T10:15:12Z</time>
      </trkpt>
      <trkpt lat="65.465345978736877" lon="12.452547037974">
        <ele>15.039999999999999</ele>
        <time>2017-06-22T10:15:13Z</time>
      </trkpt>
      <trkpt lat="65.46526500955224" lon="12.45241804048419">
        <ele>15.039999999999999</ele>
        <time>2017-06-22T10:15:14Z</time>
      </trkpt>
      <trkpt lat="65.465189991518855" lon="12.452271021902561">
        <ele>15.52</ele>
        <time>2017-06-22T10:15:15Z</time>
      </trkpt>
      <trkpt lat="65.46511497348547" lon="12.452103970572352">
        <ele>16.48</ele>
        <time>2017-06-22T10:15:16Z</time>
      </trkpt>
      <trkpt lat="65.464425981044769" lon="12.450414011254907">
        <ele>23.690000000000001</ele>
        <time>2017-06-22T10:15:23Z</time>
      </trkpt>
      <trkpt lat="65.464288014918566" lon="12.450201027095318">
        <ele>24.649999999999999</ele>
        <time>2017-06-22T10:15:24Z</time>
      </trkpt>
      <trkpt lat="65.464139990508556" lon="12.450007991865277">
        <ele>25.609999999999999</ele>
        <time>2017-06-22T10:15:25Z</time>
      </trkpt>
      <trkpt lat="65.463856011629105" lon="12.44962896220386">
        <ele>27.050000000000001</ele>
        <time>2017-06-22T10:15:27Z</time>
      </trkpt>
      <trkpt lat="65.463730031624436" lon="12.449400974437594">
        <ele>27.530000000000001</ele>
        <time>2017-06-22T10:15:28Z</time>
      </trkpt>
      <trkpt lat="65.463618971407413" lon="12.449139039963484">
        <ele>28.02</ele>
        <time>2017-06-22T10:15:29Z</time>
      </trkpt>
      <trkpt lat="65.463522998616099" lon="12.448834022507071">
        <ele>28.98</ele>
        <time>2017-06-22T10:15:30Z</time>
      </trkpt>
      <trkpt lat="65.463444041088223" lon="12.44848701171577">
        <ele>29.940000000000001</ele>
        <time>2017-06-22T10:15:31Z</time>
      </trkpt>
      <trkpt lat="65.463376985862851" lon="12.448116028681397">
        <ele>30.899999999999999</ele>
        <time>2017-06-22T10:15:32Z</time>
      </trkpt>
      <trkpt lat="65.463312026113272" lon="12.447729036211967">
        <ele>31.859999999999999</ele>
        <time>2017-06-22T10:15:33Z</time>
      </trkpt>
      <trkpt lat="65.462663015350699" lon="12.444089027121663">
        <ele>36.670000000000002</ele>
        <time>2017-06-22T10:15:42Z</time>
      </trkpt>
      <trkpt lat="65.462581962347031" lon="12.443678984418511">
        <ele>37.630000000000003</ele>
        <time>2017-06-22T10:15:43Z</time>
      </trkpt>
      <trkpt lat="65.462481966242194" lon="12.443298026919365">
        <ele>39.07</ele>
        <time>2017-06-22T10:15:44Z</time>
      </trkpt>
      <trkpt lat="65.462370989844203" lon="12.442935006693006">
        <ele>40.509999999999998</ele>
        <time>2017-06-22T10:15:45Z</time>
      </trkpt>
      <trkpt lat="65.461387960240245" lon="12.440267968922853">
        <ele>48.68</ele>
        <time>2017-06-22T10:15:53Z</time>
      </trkpt>
      <trkpt lat="65.459591969847679" lon="12.437083013355732">
        <ele>40.990000000000002</ele>
        <time>2017-06-22T10:16:05Z</time>
      </trkpt>
      <trkpt lat="65.459277983754873" lon="12.436774978414178">
        <ele>38.590000000000003</ele>
        <time>2017-06-22T10:16:07Z</time>
      </trkpt>
      <trkpt lat="65.459123002365232" lon="12.436694009229541">
        <ele>37.630000000000003</ele>
        <time>2017-06-22T10:16:08Z</time>
      </trkpt>
      <trkpt lat="65.458959974348545" lon="12.436679005622864">
        <ele>36.670000000000002</ele>
        <time>2017-06-22T10:16:09Z</time>
      </trkpt>
      <trkpt lat="65.458792001008987" lon="12.436711024492979">
        <ele>35.710000000000001</ele>
        <time>2017-06-22T10:16:10Z</time>
      </trkpt>
      <trkpt lat="65.458617992699146" lon="12.436769027262926">
        <ele>35.229999999999997</ele>
        <time>2017-06-22T10:16:11Z</time>
      </trkpt>
      <trkpt lat="65.458444990217686" lon="12.436813032254577">
        <ele>34.259999999999998</ele>
        <time>2017-06-22T10:16:12Z</time>
      </trkpt>
      <trkpt lat="65.458268970251083" lon="12.436802973970771">
        <ele>33.299999999999997</ele>
        <time>2017-06-22T10:16:13Z</time>
      </trkpt>
      <trkpt lat="65.458096973598003" lon="12.436738014221191">
        <ele>32.340000000000003</ele>
        <time>2017-06-22T10:16:14Z</time>
      </trkpt>
      <trkpt lat="65.457931011915207" lon="12.436615973711014">
        <ele>31.379999999999999</ele>
        <time>2017-06-22T10:16:15Z</time>
      </trkpt>
      <trkpt lat="65.457768989726901" lon="12.436432996764779">
        <ele>30.899999999999999</ele>
        <time>2017-06-22T10:16:16Z</time>
      </trkpt>
      <trkpt lat="65.457607973366976" lon="12.436201991513371">
        <ele>30.420000000000002</ele>
        <time>2017-06-22T10:16:17Z</time>
      </trkpt>
      <trkpt lat="65.457448968663812" lon="12.435968974605203">
        <ele>30.420000000000002</ele>
        <time>2017-06-22T10:16:18Z</time>
      </trkpt>
      <trkpt lat="65.456135021522641" lon="12.43471696972847">
        <ele>28.5</ele>
        <time>2017-06-22T10:16:25Z</time>
      </trkpt>
      <trkpt lat="65.454532988369465" lon="12.433894034475088">
        <ele>26.57</ele>
        <time>2017-06-22T10:16:33Z</time>
      </trkpt>
      <trkpt lat="65.454334001988173" lon="12.433760007843375">
        <ele>26.57</ele>
        <time>2017-06-22T10:16:34Z</time>
      </trkpt>
      <trkpt lat="65.454142978414893" lon="12.433583987876773">
        <ele>26.57</ele>
        <time>2017-06-22T10:16:35Z</time>
      </trkpt>
      <trkpt lat="65.4539630189538" lon="12.433364968746901">
        <ele>26.57</ele>
        <time>2017-06-22T10:16:36Z</time>
      </trkpt>
      <trkpt lat="65.45379001647234" lon="12.433117032051086">
        <ele>26.57</ele>
        <time>2017-06-22T10:16:37Z</time>
      </trkpt>
      <trkpt lat="65.453620031476021" lon="12.432834981009364">
        <ele>26.57</ele>
        <time>2017-06-22T10:16:38Z</time>
      </trkpt>
      <trkpt lat="65.45310202986002" lon="12.432096032425761">
        <ele>25.129999999999999</ele>
        <time>2017-06-22T10:16:41Z</time>
      </trkpt>
      <trkpt lat="65.452918969094753" lon="12.431929986923933">
        <ele>24.649999999999999</ele>
        <time>2017-06-22T10:16:42Z</time>
      </trkpt>
      <trkpt lat="65.452726017683744" lon="12.431806018576026">
        <ele>24.649999999999999</ele>
        <time>2017-06-22T10:16:43Z</time>
      </trkpt>
      <trkpt lat="65.452529964968562" lon="12.431724965572357">
        <ele>24.170000000000002</ele>
        <time>2017-06-22T10:16:44Z</time>
      </trkpt>
      <trkpt lat="65.45233198441565" lon="12.43168699555099">
        <ele>23.210000000000001</ele>
        <time>2017-06-22T10:16:45Z</time>
      </trkpt>
      <trkpt lat="65.452131992205977" lon="12.4316640291363">
        <ele>21.77</ele>
        <time>2017-06-22T10:16:46Z</time>
      </trkpt>
      <trkpt lat="65.450162999331951" lon="12.431740975007415">
        <ele>20.809999999999999</ele>
        <time>2017-06-22T10:16:56Z</time>
      </trkpt>
      <trkpt lat="65.450008017942309" lon="12.431884976103902">
        <ele>20.32</ele>
        <time>2017-06-22T10:16:57Z</time>
      </trkpt>
      <trkpt lat="65.449866028502584" lon="12.432089997455478">
        <ele>19.84</ele>
        <time>2017-06-22T10:16:58Z</time>
      </trkpt>
      <trkpt lat="65.449733007699251" lon="12.432353021577001">
        <ele>19.359999999999999</ele>
        <time>2017-06-22T10:16:59Z</time>
      </trkpt>
      <trkpt lat="65.449615996330976" lon="12.432672958821058">
        <ele>18.879999999999999</ele>
        <time>2017-06-22T10:17:00Z</time>
      </trkpt>
      <trkpt lat="65.449513988569379" lon="12.433031033724546">
        <ele>18.399999999999999</ele>
        <time>2017-06-22T10:17:01Z</time>
      </trkpt>
      <trkpt lat="65.449421033263206" lon="12.433408973738551">
        <ele>18.399999999999999</ele>
        <time>2017-06-22T10:17:02Z</time>
      </trkpt>
      <trkpt lat="65.449029011651874" lon="12.434928026050329">
        <ele>17.920000000000002</ele>
        <time>2017-06-22T10:17:06Z</time>
      </trkpt>
      <trkpt lat="65.448910994455218" lon="12.435193983837962">
        <ele>17.440000000000001</ele>
        <time>2017-06-22T10:17:07Z</time>
      </trkpt>
      <trkpt lat="65.448790965601802" lon="12.435392970219254">
        <ele>17.440000000000001</ele>
        <time>2017-06-22T10:17:08Z</time>
      </trkpt>
      <trkpt lat="65.448665991425514" lon="12.43553202599287">
        <ele>17.440000000000001</ele>
        <time>2017-06-22T10:17:09Z</time>
      </trkpt>
      <trkpt lat="65.448534982278943" lon="12.435611989349127">
        <ele>16.960000000000001</ele>
        <time>2017-06-22T10:17:10Z</time>
      </trkpt>
      <trkpt lat="65.448395004495978" lon="12.435644008219242">
        <ele>16</ele>
        <time>2017-06-22T10:17:11Z</time>
      </trkpt>
      <trkpt lat="65.448240023106337" lon="12.435637973248959">
        <ele>15.039999999999999</ele>
        <time>2017-06-22T10:17:12Z</time>
      </trkpt>
      <trkpt lat="65.448079006746411" lon="12.435601009055972">
        <ele>14.08</ele>
        <time>2017-06-22T10:17:13Z</time>
      </trkpt>
      <trkpt lat="65.447908015921712" lon="12.435568990185857">
        <ele>13.6</ele>
        <time>2017-06-22T10:17:14Z</time>
      </trkpt>
      <trkpt lat="65.44648602604866" lon="12.434875974431634">
        <ele>7.35</ele>
        <time>2017-06-22T10:17:22Z</time>
      </trkpt>
      <trkpt lat="65.446326015517116" lon="12.43471403606236">
        <ele>6.87</ele>
        <time>2017-06-22T10:17:23Z</time>
      </trkpt>
      <trkpt lat="65.446020998060703" lon="12.434423016384244">
        <ele>5.42</ele>
        <time>2017-06-22T10:17:25Z</time>
      </trkpt>
      <trkpt lat="65.445869034156203" lon="12.434381023049355">
        <ele>4.94</ele>
        <time>2017-06-22T10:17:26Z</time>
      </trkpt>
      <trkpt lat="65.44571103528142" lon="12.434449000284076">
        <ele>5.91</ele>
        <time>2017-06-22T10:17:27Z</time>
      </trkpt>
      <trkpt lat="65.445568040013313" lon="12.434612028300762">
        <ele>5.91</ele>
        <time>2017-06-22T10:17:28Z</time>
      </trkpt>
      <trkpt lat="65.445440970361233" lon="12.434807997196913">
        <ele>6.87</ele>
        <time>2017-06-22T10:17:29Z</time>
      </trkpt>
      <trkpt lat="65.445337034761906" lon="12.435030033811927">
        <ele>7.35</ele>
        <time>2017-06-22T10:17:30Z</time>
      </trkpt>
      <trkpt lat="65.445257993414998" lon="12.435278976336122">
        <ele>8.310000000000001</ele>
        <time>2017-06-22T10:17:31Z</time>
      </trkpt>
      <trkpt lat="65.445203008130193" lon="12.435561027377844">
        <ele>8.789999999999999</ele>
        <time>2017-06-22T10:17:32Z</time>
      </trkpt>
      <trkpt lat="65.445162020623684" lon="12.43587601929903">
        <ele>9.27</ele>
        <time>2017-06-22T10:17:33Z</time>
      </trkpt>
      <trkpt lat="65.445122960954905" lon="12.436193022876978">
        <ele>9.75</ele>
        <time>2017-06-22T10:17:34Z</time>
      </trkpt>
      <trkpt lat="65.445066969841719" lon="12.436515977606177">
        <ele>10.710000000000001</ele>
        <time>2017-06-22T10:17:35Z</time>
      </trkpt>
      <trkpt lat="65.444996980950236" lon="12.436829041689634">
        <ele>11.67</ele>
        <time>2017-06-22T10:17:36Z</time>
      </trkpt>
      <trkpt lat="65.444908970966935" lon="12.437116960063577">
        <ele>11.67</ele>
        <time>2017-06-22T10:17:37Z</time>
      </trkpt>
      <trkpt lat="65.444812998175621" lon="12.437390964478254">
        <ele>12.15</ele>
        <time>2017-06-22T10:17:38Z</time>
      </trkpt>
      <trkpt lat="65.444715013727546" lon="12.437624987214804">
        <ele>12.630000000000001</ele>
        <time>2017-06-22T10:17:39Z</time>
      </trkpt>
      <trkpt lat="65.444584004580975" lon="12.437798995524645">
        <ele>12.15</ele>
        <time>2017-06-22T10:17:40Z</time>
      </trkpt>
      <trkpt lat="65.4444479662925" lon="12.437920030206442">
        <ele>12.15</ele>
        <time>2017-06-22T10:17:41Z</time>
      </trkpt>
      <trkpt lat="65.444300025701523" lon="12.43798297829926">
        <ele>12.630000000000001</ele>
        <time>2017-06-22T10:17:42Z</time>
      </trkpt>
      <trkpt lat="65.444139009341598" lon="12.437987001612782">
        <ele>12.15</ele>
        <time>2017-06-22T10:17:43Z</time>
      </trkpt>
      <trkpt lat="65.443965001031756" lon="12.437993958592415">
        <ele>11.67</ele>
        <time>2017-06-22T10:17:44Z</time>
      </trkpt>
      <trkpt lat="65.442235982045531" lon="12.438079034909606">
        <ele>9.75</ele>
        <time>2017-06-22T10:17:53Z</time>
      </trkpt>
      <trkpt lat="65.440226001664996" lon="12.438315991312265">
        <ele>7.35</ele>
        <time>2017-06-22T10:18:03Z</time>
      </trkpt>
      <trkpt lat="65.440047970041633" lon="12.438413975760341">
        <ele>6.87</ele>
        <time>2017-06-22T10:18:04Z</time>
      </trkpt>
      <trkpt lat="65.439871028065681" lon="12.438538027927279">
        <ele>5.42</ele>
        <time>2017-06-22T10:18:05Z</time>
      </trkpt>
      <trkpt lat="65.439705988392234" lon="12.438700972124934">
        <ele>3.98</ele>
        <time>2017-06-22T10:18:06Z</time>
      </trkpt>
      <trkpt lat="65.439542960375547" lon="12.438875986263156">
        <ele>3.02</ele>
        <time>2017-06-22T10:18:07Z</time>
      </trkpt>
      <trkpt lat="65.437894994392991" lon="12.440951010212302">
        <ele>6.39</ele>
        <time>2017-06-22T10:18:17Z</time>
      </trkpt>
      <trkpt lat="65.436942977830768" lon="12.441887017339468">
        <ele>7.35</ele>
        <time>2017-06-22T10:18:22Z</time>
      </trkpt>
      <trkpt lat="65.436739968135953" lon="12.44195700623095">
        <ele>6.39</ele>
        <time>2017-06-22T10:18:23Z</time>
      </trkpt>
      <trkpt lat="65.436534024775028" lon="12.441965974867344">
        <ele>5.42</ele>
        <time>2017-06-22T10:18:24Z</time>
      </trkpt>
      <trkpt lat="65.436333026736975" lon="12.441930016502738">
        <ele>4.94</ele>
        <time>2017-06-22T10:18:25Z</time>
      </trkpt>
      <trkpt lat="65.436131022870541" lon="12.441846029832959">
        <ele>3.98</ele>
        <time>2017-06-22T10:18:26Z</time>
      </trkpt>
      <trkpt lat="65.435932958498597" lon="12.44171803817153">
        <ele>3.98</ele>
        <time>2017-06-22T10:18:27Z</time>
      </trkpt>
      <trkpt lat="65.435733972117305" lon="12.441551992669702">
        <ele>3.98</ele>
        <time>2017-06-22T10:18:28Z</time>
      </trkpt>
      <trkpt lat="65.435544960200787" lon="12.441363986581564">
        <ele>3.5</ele>
        <time>2017-06-22T10:18:29Z</time>
      </trkpt>
      <trkpt lat="65.434823026880622" lon="12.440692009404302">
        <ele>1.1</ele>
        <time>2017-06-22T10:18:33Z</time>
      </trkpt>
      <trkpt lat="65.434638960286975" lon="12.440641969442368">
        <ele>1.1</ele>
        <time>2017-06-22T10:18:34Z</time>
      </trkpt>
      <trkpt lat="65.434461012482643" lon="12.440668037161231">
        <ele>1.1</ele>
        <time>2017-06-22T10:18:35Z</time>
      </trkpt>
      <trkpt lat="65.434276023879647" lon="12.440761998295784">
        <ele>1.1</ele>
        <time>2017-06-22T10:18:36Z</time>
      </trkpt>
      <trkpt lat="65.434093968942761" lon="12.440913040190935">
        <ele>0.62</ele>
        <time>2017-06-22T10:18:37Z</time>
      </trkpt>
      <trkpt lat="65.433905962854624" lon="12.441110014915466">
        <ele>1.1</ele>
        <time>2017-06-22T10:18:38Z</time>
      </trkpt>
      <trkpt lat="65.432362016290426" lon="12.442682040855289">
        <ele>3.02</ele>
        <time>2017-06-22T10:18:46Z</time>
      </trkpt>
      <trkpt lat="65.432160012423992" lon="12.442752029746771">
        <ele>3.02</ele>
        <time>2017-06-22T10:18:47Z</time>
      </trkpt>
      <trkpt lat="65.431954991072416" lon="12.442777007818222">
        <ele>3.5</ele>
        <time>2017-06-22T10:18:48Z</time>
      </trkpt>
      <trkpt lat="65.43174896389246" lon="12.442759992554784">
        <ele>3.02</ele>
        <time>2017-06-22T10:18:49Z</time>
      </trkpt>
      <trkpt lat="65.431546960026026" lon="12.442731996998191">
        <ele>2.54</ele>
        <time>2017-06-22T10:18:50Z</time>
      </trkpt>
      <trkpt lat="65.429760022088885" lon="12.442994015291333">
        <ele>2.54</ele>
        <time>2017-06-22T10:18:59Z</time>
      </trkpt>
      <trkpt lat="65.42861002497375" lon="12.443479998037219">
        <ele>3.5</ele>
        <time>2017-06-22T10:19:05Z</time>
      </trkpt>
      <trkpt lat="65.428425036370754" lon="12.443431969732046">
        <ele>3.98</ele>
        <time>2017-06-22T10:19:06Z</time>
      </trkpt>
      <trkpt lat="65.42824599891901" lon="12.443311018869281">
        <ele>4.46</ele>
        <time>2017-06-22T10:19:07Z</time>
      </trkpt>
      <trkpt lat="65.428066961467266" lon="12.443143967539072">
        <ele>4.94</ele>
        <time>2017-06-22T10:19:08Z</time>
      </trkpt>
      <trkpt lat="65.427893958985806" lon="12.442939030006528">
        <ele>5.42</ele>
        <time>2017-06-22T10:19:09Z</time>
      </trkpt>
      <trkpt lat="65.427717017009854" lon="12.442722022533417">
        <ele>6.39</ele>
        <time>2017-06-22T10:19:10Z</time>
      </trkpt>
      <trkpt lat="65.425621038302779" lon="12.440269980579615">
        <ele>14.56</ele>
        <time>2017-06-22T10:19:22Z</time>
      </trkpt>
      <trkpt lat="65.425438983365893" lon="12.440146012231708">
        <ele>15.039999999999999</ele>
        <time>2017-06-22T10:19:23Z</time>
      </trkpt>
      <trkpt lat="65.425255000591278" lon="12.440079962834716">
        <ele>16</ele>
        <time>2017-06-22T10:19:24Z</time>
      </trkpt>
      <trkpt lat="65.42506699450314" lon="12.440050039440393">
        <ele>16.960000000000001</ele>
        <time>2017-06-22T10:19:25Z</time>
      </trkpt>
      <trkpt lat="65.422855010256171" lon="12.439892962574959">
        <ele>18.879999999999999</ele>
        <time>2017-06-22T10:19:36Z</time>
      </trkpt>
      <trkpt lat="65.422447985038161" lon="12.439740998670459">
        <ele>18.399999999999999</ele>
        <time>2017-06-22T10:19:38Z</time>
      </trkpt>
      <trkpt lat="65.422261990606785" lon="12.439623987302184">
        <ele>16.960000000000001</ele>
        <time>2017-06-22T10:19:39Z</time>
      </trkpt>
      <trkpt lat="65.42207901366055" lon="12.439443022012711">
        <ele>15.52</ele>
        <time>2017-06-22T10:19:40Z</time>
      </trkpt>
      <trkpt lat="65.421897964552045" lon="12.439211010932922">
        <ele>14.08</ele>
        <time>2017-06-22T10:19:41Z</time>
      </trkpt>
      <trkpt lat="65.421724040061235" lon="12.43894899263978">
        <ele>11.67</ele>
        <time>2017-06-22T10:19:42Z</time>
      </trkpt>
      <trkpt lat="65.421547014266253" lon="12.438671970739961">
        <ele>9.75</ele>
        <time>2017-06-22T10:19:43Z</time>
      </trkpt>
      <trkpt lat="65.420669009909034" lon="12.437426000833511">
        <ele>5.42</ele>
        <time>2017-06-22T10:19:48Z</time>
      </trkpt>
      <trkpt lat="65.420495001599193" lon="12.437302032485604">
        <ele>4.94</ele>
        <time>2017-06-22T10:19:49Z</time>
      </trkpt>
      <trkpt lat="65.420319987460971" lon="12.437244029715657">
        <ele>3.98</ele>
        <time>2017-06-22T10:19:50Z</time>
      </trkpt>
      <trkpt lat="65.420142039656639" lon="12.437256015837193">
        <ele>3.98</ele>
        <time>2017-06-22T10:19:51Z</time>
      </trkpt>
      <trkpt lat="65.419963002204895" lon="12.437332961708307">
        <ele>3.98</ele>
        <time>2017-06-22T10:19:52Z</time>
      </trkpt>
      <trkpt lat="65.419788993895054" lon="12.437467994168401">
        <ele>3.98</ele>
        <time>2017-06-22T10:19:53Z</time>
      </trkpt>
      <trkpt lat="65.419623032212257" lon="12.437643008306623">
        <ele>4.46</ele>
        <time>2017-06-22T10:19:54Z</time>
      </trkpt>
      <trkpt lat="65.419454975053668" lon="12.437825985252857">
        <ele>4.94</ele>
        <time>2017-06-22T10:19:55Z</time>
      </trkpt>
      <trkpt lat="65.417595030739903" lon="12.439637985080481">
        <ele>1.1</ele>
        <time>2017-06-22T10:20:05Z</time>
      </trkpt>
      <trkpt lat="65.417071999981999" lon="12.440012991428375">
        <ele>2.54</ele>
        <time>2017-06-22T10:20:08Z</time>
      </trkpt>
      <trkpt lat="65.416926993057132" lon="12.440237961709499">
        <ele>3.5</ele>
        <time>2017-06-22T10:20:09Z</time>
      </trkpt>
      <trkpt lat="65.416800007224083" lon="12.440510038286448">
        <ele>4.46</ele>
        <time>2017-06-22T10:20:10Z</time>
      </trkpt>
      <trkpt lat="65.416685007512569" lon="12.440832993015647">
        <ele>5.42</ele>
        <time>2017-06-22T10:20:11Z</time>
      </trkpt>
      <trkpt lat="65.416594985872507" lon="12.441186960786581">
        <ele>5.91</ele>
        <time>2017-06-22T10:20:12Z</time>
      </trkpt>
      <trkpt lat="65.416524996981025" lon="12.441566996276379">
        <ele>6.87</ele>
        <time>2017-06-22T10:20:13Z</time>
      </trkpt>
      <trkpt lat="65.416470011696219" lon="12.441967986524105">
        <ele>7.83</ele>
        <time>2017-06-22T10:20:14Z</time>
      </trkpt>
      <trkpt lat="65.416421983391047" lon="12.442378029227257">
        <ele>8.789999999999999</ele>
        <time>2017-06-22T10:20:15Z</time>
      </trkpt>
      <trkpt lat="65.416179997846484" lon="12.444996032863855">
        <ele>6.39</ele>
        <time>2017-06-22T10:20:21Z</time>
      </trkpt>
      <trkpt lat="65.416182009503245" lon="12.445439016446471">
        <ele>6.87</ele>
        <time>2017-06-22T10:20:22Z</time>
      </trkpt>
      <trkpt lat="65.416204975917935" lon="12.445883005857468">
        <ele>7.35</ele>
        <time>2017-06-22T10:20:23Z</time>
      </trkpt>
      <trkpt lat="65.41625602170825" lon="12.446319032460451">
        <ele>8.789999999999999</ele>
        <time>2017-06-22T10:20:24Z</time>
      </trkpt>
      <trkpt lat="65.416330033913255" lon="12.446734020486474">
        <ele>10.23</ele>
        <time>2017-06-22T10:20:25Z</time>
      </trkpt>
      <trkpt lat="65.416414020583034" lon="12.44713400490582">
        <ele>11.67</ele>
        <time>2017-06-22T10:20:26Z</time>
      </trkpt>
      <trkpt lat="65.416555004194379" lon="12.447931040078402">
        <ele>14.56</ele>
        <time>2017-06-22T10:20:28Z</time>
      </trkpt>
      <trkpt lat="65.416588028892875" lon="12.448319960385561">
        <ele>15.52</ele>
        <time>2017-06-22T10:20:29Z</time>
      </trkpt>
      <trkpt lat="65.416598003357649" lon="12.448713993653655">
        <ele>16.960000000000001</ele>
        <time>2017-06-22T10:20:30Z</time>
      </trkpt>
      <trkpt lat="65.416578976437449" lon="12.449099980294704">
        <ele>17.920000000000002</ele>
        <time>2017-06-22T10:20:31Z</time>
      </trkpt>
      <trkpt lat="65.416532959789038" lon="12.449480015784502">
        <ele>19.84</ele>
        <time>2017-06-22T10:20:32Z</time>
      </trkpt>
      <trkpt lat="65.416464982554317" lon="12.449838006868958">
        <ele>21.289999999999999</ele>
        <time>2017-06-22T10:20:33Z</time>
      </trkpt>
      <trkpt lat="65.416386025026441" lon="12.450190968811512">
        <ele>22.25</ele>
        <time>2017-06-22T10:20:34Z</time>
      </trkpt>
      <trkpt lat="65.41600096039474" lon="12.452025013044477">
        <ele>25.609999999999999</ele>
        <time>2017-06-22T10:20:39Z</time>
      </trkpt>
      <trkpt lat="65.415960978716612" lon="12.452414017170668">
        <ele>25.609999999999999</ele>
        <time>2017-06-22T10:20:40Z</time>
      </trkpt>
      <trkpt lat="65.415947986766696" lon="12.452821964398026">
        <ele>26.09</ele>
        <time>2017-06-22T10:20:41Z</time>
      </trkpt>
      <trkpt lat="65.415956033393741" lon="12.453229995444417">
        <ele>26.09</ele>
        <time>2017-06-22T10:20:42Z</time>
      </trkpt>
      <trkpt lat="65.415980005636811" lon="12.45364598929882">
        <ele>25.609999999999999</ele>
        <time>2017-06-22T10:20:43Z</time>
      </trkpt>
      <trkpt lat="65.416017975658178" lon="12.454069023951888">
        <ele>25.609999999999999</ele>
        <time>2017-06-22T10:20:44Z</time>
      </trkpt>
      <trkpt lat="65.416066003963351" lon="12.454486023634672">
        <ele>25.609999999999999</ele>
        <time>2017-06-22T10:20:45Z</time>
      </trkpt>
      <trkpt lat="65.416120989248157" lon="12.454900005832314">
        <ele>25.129999999999999</ele>
        <time>2017-06-22T10:20:46Z</time>
      </trkpt>
      <trkpt lat="65.416891034692526" lon="12.459489013999701">
        <ele>17.440000000000001</ele>
        <time>2017-06-22T10:20:57Z</time>
      </trkpt>
      <trkpt lat="65.416992036625743" lon="12.460457039996982">
        <ele>15.52</ele>
        <time>2017-06-22T10:20:59Z</time>
      </trkpt>
      <trkpt lat="65.417013997212052" lon="12.460955008864403">
        <ele>14.56</ele>
        <time>2017-06-22T10:21:00Z</time>
      </trkpt>
      <trkpt lat="65.417021960020065" lon="12.46146596968174">
        <ele>14.08</ele>
        <time>2017-06-22T10:21:01Z</time>
      </trkpt>
      <trkpt lat="65.416974015533924" lon="12.463966039940715">
        <ele>14.08</ele>
        <time>2017-06-22T10:21:06Z</time>
      </trkpt>
      <trkpt lat="65.416931016370654" lon="12.464438024908304">
        <ele>13.6</ele>
        <time>2017-06-22T10:21:07Z</time>
      </trkpt>
      <trkpt lat="65.416869996115565" lon="12.464906992390752">
        <ele>13.119999999999999</ele>
        <time>2017-06-22T10:21:08Z</time>
      </trkpt>
      <trkpt lat="65.416787015274167" lon="12.465363973751664">
        <ele>12.15</ele>
        <time>2017-06-22T10:21:09Z</time>
      </trkpt>
      <trkpt lat="65.416693976148963" lon="12.465810980647802">
        <ele>11.19</ele>
        <time>2017-06-22T10:21:10Z</time>
      </trkpt>
      <trkpt lat="65.415489999577403" lon="12.471080012619495">
        <ele>5.42</ele>
        <time>2017-06-22T10:21:22Z</time>
      </trkpt>
      <trkpt lat="65.415362007915974" lon="12.471418976783752">
        <ele>5.42</ele>
        <time>2017-06-22T10:21:23Z</time>
      </trkpt>
      <trkpt lat="65.415219012647867" lon="12.471722988411784">
        <ele>5.42</ele>
        <time>2017-06-22T10:21:24Z</time>
      </trkpt>
      <trkpt lat="65.415062019601464" lon="12.471985006704926">
        <ele>5.42</ele>
        <time>2017-06-22T10:21:25Z</time>
      </trkpt>
      <trkpt lat="65.413575991988182" lon="12.473588967695832">
        <ele>1.1</ele>
        <time>2017-06-22T10:21:33Z</time>
      </trkpt>
      <trkpt lat="65.412827990949154" lon="12.4741639662534">
        <ele>0.14</ele>
        <time>2017-06-22T10:21:37Z</time>
      </trkpt>
      <trkpt lat="65.412667980417609" lon="12.474392037838697">
        <ele>0.14</ele>
        <time>2017-06-22T10:21:38Z</time>
      </trkpt>
      <trkpt lat="65.41252096183598" lon="12.474675010889769">
        <ele>0.14</ele>
        <time>2017-06-22T10:21:39Z</time>
      </trkpt>
      <trkpt lat="65.412385007366538" lon="12.474997965618968">
        <ele>1.1</ele>
        <time>2017-06-22T10:21:40Z</time>
      </trkpt>
      <trkpt lat="65.412253998219967" lon="12.475329972803593">
        <ele>1.58</ele>
        <time>2017-06-22T10:21:41Z</time>
      </trkpt>
      <trkpt lat="65.411454029381275" lon="12.47747004032135">
        <ele>2.06</ele>
        <time>2017-06-22T10:21:47Z</time>
      </trkpt>
      <trkpt lat="65.411352021619678" lon="12.477889973670244">
        <ele>1.1</ele>
        <time>2017-06-22T10:21:48Z</time>
      </trkpt>
      <trkpt lat="65.411269040778279" lon="12.478343015536666">
        <ele>1.1</ele>
        <time>2017-06-22T10:21:49Z</time>
      </trkpt>
      <trkpt lat="65.41120802052319" lon="12.478828998282552">
        <ele>1.58</ele>
        <time>2017-06-22T10:21:50Z</time>
      </trkpt>
      <trkpt lat="65.41116401553154" lon="12.479328978806734">
        <ele>2.06</ele>
        <time>2017-06-22T10:21:51Z</time>
      </trkpt>
      <trkpt lat="65.410513998940587" lon="12.485323967412114">
        <ele>4.46</ele>
        <time>2017-06-22T10:22:03Z</time>
      </trkpt>
      <trkpt lat="65.410406040027738" lon="12.485738033428788">
        <ele>3.98</ele>
        <time>2017-06-22T10:22:04Z</time>
      </trkpt>
      <trkpt lat="65.410274025052786" lon="12.486102981492877">
        <ele>3.98</ele>
        <time>2017-06-22T10:22:05Z</time>
      </trkpt>
      <trkpt lat="65.410129018127918" lon="12.486433982849121">
        <ele>3.5</ele>
        <time>2017-06-22T10:22:06Z</time>
      </trkpt>
      <trkpt lat="65.409961966797709" lon="12.486712010577321">
        <ele>3.5</ele>
        <time>2017-06-22T10:22:07Z</time>
      </trkpt>
      <trkpt lat="65.409783013164997" lon="12.486931029707193">
        <ele>3.02</ele>
        <time>2017-06-22T10:22:08Z</time>
      </trkpt>
      <trkpt lat="65.40959601290524" lon="12.487080981954932">
        <ele>2.54</ele>
        <time>2017-06-22T10:22:09Z</time>
      </trkpt>
      <trkpt lat="65.409401971846819" lon="12.487191958352923">
        <ele>2.06</ele>
        <time>2017-06-22T10:22:10Z</time>
      </trkpt>
      <trkpt lat="65.409200973808765" lon="12.487278962507844">
        <ele>2.06</ele>
        <time>2017-06-22T10:22:11Z</time>
      </trkpt>
      <trkpt lat="65.408990001305938" lon="12.487336965277791">
        <ele>2.06</ele>
        <time>2017-06-22T10:22:12Z</time>
      </trkpt>
      <trkpt lat="65.407474972307682" lon="12.487178966403008">
        <ele>4.46</ele>
        <time>2017-06-22T10:22:19Z</time>
      </trkpt>
      <trkpt lat="65.407271040603518" lon="12.487023985013366">
        <ele>5.42</ele>
        <time>2017-06-22T10:22:20Z</time>
      </trkpt>
      <trkpt lat="65.405979976058006" lon="12.485525971278548">
        <ele>6.39</ele>
        <time>2017-06-22T10:22:27Z</time>
      </trkpt>
      <trkpt lat="65.405830023810267" lon="12.485233023762703">
        <ele>6.39</ele>
        <time>2017-06-22T10:22:28Z</time>
      </trkpt>
      <trkpt lat="65.405690968036652" lon="12.484909985214472">
        <ele>5.91</ele>
        <time>2017-06-22T10:22:29Z</time>
      </trkpt>
      <trkpt lat="65.405558031052351" lon="12.484558029100299">
        <ele>5.42</ele>
        <time>2017-06-22T10:22:30Z</time>
      </trkpt>
      <trkpt lat="65.405439008027315" lon="12.484187968075275">
        <ele>5.42</ele>
        <time>2017-06-22T10:22:31Z</time>
      </trkpt>
      <trkpt lat="65.405070958659053" lon="12.4831229634583">
        <ele>5.42</ele>
        <time>2017-06-22T10:22:34Z</time>
      </trkpt>
      <trkpt lat="65.404926035553217" lon="12.482824986800551">
        <ele>5.42</ele>
        <time>2017-06-22T10:22:35Z</time>
      </trkpt>
      <trkpt lat="65.404765019193292" lon="12.482553999871016">
        <ele>4.94</ele>
        <time>2017-06-22T10:22:36Z</time>
      </trkpt>
      <trkpt lat="65.404592016711831" lon="12.482311008498073">
        <ele>4.46</ele>
        <time>2017-06-22T10:22:37Z</time>
      </trkpt>
      <trkpt lat="65.404407028108835" lon="12.482092995196581">
        <ele>3.02</ele>
        <time>2017-06-22T10:22:38Z</time>
      </trkpt>
      <trkpt lat="65.404214998707175" lon="12.481924016028643">
        <ele>3.02</ele>
        <time>2017-06-22T10:22:39Z</time>
      </trkpt>
      <trkpt lat="65.404020035639405" lon="12.481786971911788">
        <ele>3.02</ele>
        <time>2017-06-22T10:22:40Z</time>
      </trkpt>
      <trkpt lat="65.403820965439081" lon="12.481701979413629">
        <ele>3.5</ele>
        <time>2017-06-22T10:22:41Z</time>
      </trkpt>
      <trkpt lat="65.403621979057789" lon="12.481658980250359">
        <ele>3.98</ele>
        <time>2017-06-22T10:22:42Z</time>
      </trkpt>
      <trkpt lat="65.403427015990019" lon="12.481669038534164">
        <ele>4.46</ele>
        <time>2017-06-22T10:22:43Z</time>
      </trkpt>
      <trkpt lat="65.403234986588359" lon="12.481716983020306">
        <ele>4.94</ele>
        <time>2017-06-22T10:22:44Z</time>
      </trkpt>
      <trkpt lat="65.403043041005731" lon="12.481798036023974">
        <ele>5.42</ele>
        <time>2017-06-22T10:22:45Z</time>
      </trkpt>
      <trkpt lat="65.402855034917593" lon="12.481920998543501">
        <ele>5.42</ele>
        <time>2017-06-22T10:22:46Z</time>
      </trkpt>
      <trkpt lat="65.402671974152327" lon="12.482075979933143">
        <ele>5.42</ele>
        <time>2017-06-22T10:22:47Z</time>
      </trkpt>
      <trkpt lat="65.402493020519614" lon="12.482282007113099">
        <ele>5.42</ele>
        <time>2017-06-22T10:22:48Z</time>
      </trkpt>
      <trkpt lat="65.402320018038154" lon="12.482495997101068">
        <ele>5.42</ele>
        <time>2017-06-22T10:22:49Z</time>
      </trkpt>
      <trkpt lat="65.40199002251029" lon="12.483006035909057">
        <ele>5.91</ele>
        <time>2017-06-22T10:22:51Z</time>
      </trkpt>
      <trkpt lat="65.401841998100281" lon="12.483324967324734">
        <ele>6.87</ele>
        <time>2017-06-22T10:22:52Z</time>
      </trkpt>
      <trkpt lat="65.401709983125329" lon="12.4836790189147">
        <ele>7.35</ele>
        <time>2017-06-22T10:22:53Z</time>
      </trkpt>
      <trkpt lat="65.401590960100293" lon="12.484051007777452">
        <ele>8.310000000000001</ele>
        <time>2017-06-22T10:22:54Z</time>
      </trkpt>
      <trkpt lat="65.401481995359063" lon="12.484445041045547">
        <ele>9.27</ele>
        <time>2017-06-22T10:22:55Z</time>
      </trkpt>
      <trkpt lat="65.401395997032523" lon="12.484867991879582">
        <ele>9.75</ele>
        <time>2017-06-22T10:22:56Z</time>
      </trkpt>
      <trkpt lat="65.401322990655899" lon="12.485302006825805">
        <ele>10.23</ele>
        <time>2017-06-22T10:22:57Z</time>
      </trkpt>
      <trkpt lat="65.401265993714333" lon="12.485760999843478">
        <ele>11.19</ele>
        <time>2017-06-22T10:22:58Z</time>
      </trkpt>
      <trkpt lat="65.401225006207824" lon="12.486226027831435">
        <ele>11.67</ele>
        <time>2017-06-22T10:22:59Z</time>
      </trkpt>
      <trkpt lat="65.401202039793134" lon="12.486701030284166">
        <ele>12.15</ele>
        <time>2017-06-22T10:23:00Z</time>
      </trkpt>
      <trkpt lat="65.401202961802483" lon="12.487179972231388">
        <ele>12.630000000000001</ele>
        <time>2017-06-22T10:23:01Z</time>
      </trkpt>
      <trkpt lat="65.401224000379443" lon="12.487662015482783">
        <ele>12.630000000000001</ele>
        <time>2017-06-22T10:23:02Z</time>
      </trkpt>
      <trkpt lat="65.401262976229191" lon="12.488153027370572">
        <ele>12.15</ele>
        <time>2017-06-22T10:23:03Z</time>
      </trkpt>
      <trkpt lat="65.401311004534364" lon="12.488650996237993">
        <ele>11.67</ele>
        <time>2017-06-22T10:23:04Z</time>
      </trkpt>
      <trkpt lat="65.40160202421248" lon="12.493292978033423">
        <ele>9.75</ele>
        <time>2017-06-22T10:23:13Z</time>
      </trkpt>
      <trkpt lat="65.401362972334027" lon="12.501616962254047">
        <ele>3.5</ele>
        <time>2017-06-22T10:23:29Z</time>
      </trkpt>
      <trkpt lat="65.400814963504672" lon="12.504999982193112">
        <ele>6.39</ele>
        <time>2017-06-22T10:23:36Z</time>
      </trkpt>
      <trkpt lat="65.399830006062984" lon="12.507716976106167">
        <ele>11.19</ele>
        <time>2017-06-22T10:23:43Z</time>
      </trkpt>
      <trkpt lat="65.398572972044349" lon="12.509511960670352">
        <ele>16.48</ele>
        <time>2017-06-22T10:23:50Z</time>
      </trkpt>
      <trkpt lat="65.397103959694505" lon="12.510239006951451">
        <ele>22.25</ele>
        <time>2017-06-22T10:23:57Z</time>
      </trkpt>
      <trkpt lat="65.395219037309289" lon="12.50991596840322">
        <ele>26.09</ele>
        <time>2017-06-22T10:24:05Z</time>
      </trkpt>
      <trkpt lat="65.394548987969756" lon="12.509961985051632">
        <ele>24.649999999999999</ele>
        <time>2017-06-22T10:24:08Z</time>
      </trkpt>
      <trkpt lat="65.394347989931703" lon="12.510083019733429">
        <ele>24.170000000000002</ele>
        <time>2017-06-22T10:24:09Z</time>
      </trkpt>
      <trkpt lat="65.394155038520694" lon="12.510265996679664">
        <ele>22.73</ele>
        <time>2017-06-22T10:24:10Z</time>
      </trkpt>
      <trkpt lat="65.393965020775795" lon="12.510513011366129">
        <ele>21.77</ele>
        <time>2017-06-22T10:24:11Z</time>
      </trkpt>
      <trkpt lat="65.393791012465954" lon="12.510808976367116">
        <ele>19.84</ele>
        <time>2017-06-22T10:24:12Z</time>
      </trkpt>
      <trkpt lat="65.393629996106029" lon="12.511147018522024">
        <ele>18.399999999999999</ele>
        <time>2017-06-22T10:24:13Z</time>
      </trkpt>
      <trkpt lat="65.39348398335278" lon="12.511536022648215">
        <ele>17.440000000000001</ele>
        <time>2017-06-22T10:24:14Z</time>
      </trkpt>
      <trkpt lat="65.393356997519732" lon="12.511962996795774">
        <ele>16</ele>
        <time>2017-06-22T10:24:15Z</time>
      </trkpt>
      <trkpt lat="65.393248032778502" lon="12.51242701895535">
        <ele>14.08</ele>
        <time>2017-06-22T10:24:16Z</time>
      </trkpt>
      <trkpt lat="65.393146025016904" lon="12.512897998094559">
        <ele>12.630000000000001</ele>
        <time>2017-06-22T10:24:17Z</time>
      </trkpt>
      <trkpt lat="65.392728019505739" lon="12.515061032027006">
        <ele>9.75</ele>
        <time>2017-06-22T10:24:22Z</time>
      </trkpt>
      <trkpt lat="65.392694994807243" lon="12.515447018668056">
        <ele>9.27</ele>
        <time>2017-06-22T10:24:23Z</time>
      </trkpt>
      <trkpt lat="65.39268996566534" lon="12.515847003087401">
        <ele>8.310000000000001</ele>
        <time>2017-06-22T10:24:24Z</time>
      </trkpt>
      <trkpt lat="65.392711004242301" lon="12.516246987506747">
        <ele>7.83</ele>
        <time>2017-06-22T10:24:25Z</time>
      </trkpt>
      <trkpt lat="65.392766995355487" lon="12.516620988026261">
        <ele>7.35</ele>
        <time>2017-06-22T10:24:26Z</time>
      </trkpt>
      <trkpt lat="65.392856011167169" lon="12.516967998817563">
        <ele>6.87</ele>
        <time>2017-06-22T10:24:27Z</time>
      </trkpt>
      <trkpt lat="65.39296698756516" lon="12.517303023487329">
        <ele>6.39</ele>
        <time>2017-06-22T10:24:28Z</time>
      </trkpt>
      <trkpt lat="65.393097996711731" lon="12.517630001530051">
        <ele>5.91</ele>
        <time>2017-06-22T10:24:29Z</time>
      </trkpt>
      <trkpt lat="65.393239986151457" lon="12.517968965694308">
        <ele>4.94</ele>
        <time>2017-06-22T10:24:30Z</time>
      </trkpt>
      <trkpt lat="65.394183034077287" lon="12.521033976227045">
        <ele>3.02</ele>
        <time>2017-06-22T10:24:37Z</time>
      </trkpt>
      <trkpt lat="65.395346023142338" lon="12.526257997378707">
        <ele>13.6</ele>
        <time>2017-06-22T10:24:48Z</time>
      </trkpt>
      <trkpt lat="65.396064016968012" lon="12.53202298656106">
        <ele>27.050000000000001</ele>
        <time>2017-06-22T10:25:00Z</time>
      </trkpt>
      <trkpt lat="65.396174993366003" lon="12.53243101760745">
        <ele>26.57</ele>
        <time>2017-06-22T10:25:01Z</time>
      </trkpt>
      <trkpt lat="65.396300973370671" lon="12.532812980934978">
        <ele>26.57</ele>
        <time>2017-06-22T10:25:02Z</time>
      </trkpt>
      <trkpt lat="65.396439023315907" lon="12.533168960362673">
        <ele>27.050000000000001</ele>
        <time>2017-06-22T10:25:03Z</time>
      </trkpt>
      <trkpt lat="65.396589981392026" lon="12.533500967547297">
        <ele>28.5</ele>
        <time>2017-06-22T10:25:04Z</time>
      </trkpt>
      <trkpt lat="65.39674898609519" lon="12.533785030245781">
        <ele>29.460000000000001</ele>
        <time>2017-06-22T10:25:05Z</time>
      </trkpt>
      <trkpt lat="65.39692098274827" lon="12.534031961113214">
        <ele>30.420000000000002</ele>
        <time>2017-06-22T10:25:06Z</time>
      </trkpt>
      <trkpt lat="65.397103959694505" lon="12.534230025485158">
        <ele>31.379999999999999</ele>
        <time>2017-06-22T10:25:07Z</time>
      </trkpt>
      <trkpt lat="65.397294983267784" lon="12.534392969682813">
        <ele>31.859999999999999</ele>
        <time>2017-06-22T10:25:08Z</time>
      </trkpt>
      <trkpt lat="65.397491035982966" lon="12.534543005749583">
        <ele>32.340000000000003</ele>
        <time>2017-06-22T10:25:09Z</time>
      </trkpt>
      <trkpt lat="65.399651974439621" lon="12.536014029756188">
        <ele>22.25</ele>
        <time>2017-06-22T10:25:19Z</time>
      </trkpt>
      <trkpt lat="65.401418041437864" lon="12.538178991526365">
        <ele>24.649999999999999</ele>
        <time>2017-06-22T10:25:28Z</time>
      </trkpt>
      <trkpt lat="65.402583964169025" lon="12.53999300301075">
        <ele>18.399999999999999</ele>
        <time>2017-06-22T10:25:35Z</time>
      </trkpt>
      <trkpt lat="65.403461968526244" lon="12.542793983593583">
        <ele>10.23</ele>
        <time>2017-06-22T10:25:42Z</time>
      </trkpt>
      <trkpt lat="65.403551990166306" lon="12.54317200742662">
        <ele>9.75</ele>
        <time>2017-06-22T10:25:43Z</time>
      </trkpt>
      <trkpt lat="65.403620973229408" lon="12.54353896714747">
        <ele>8.310000000000001</ele>
        <time>2017-06-22T10:25:44Z</time>
      </trkpt>
      <trkpt lat="65.403671013191342" lon="12.543896036222577">
        <ele>7.83</ele>
        <time>2017-06-22T10:25:45Z</time>
      </trkpt>
      <trkpt lat="65.403701020404696" lon="12.544248998165131">
        <ele>7.83</ele>
        <time>2017-06-22T10:25:46Z</time>
      </trkpt>
      <trkpt lat="65.403714012354612" lon="12.544600032269955">
        <ele>7.83</ele>
        <time>2017-06-22T10:25:47Z</time>
      </trkpt>
      <trkpt lat="65.403706971555948" lon="12.544951988384128">
        <ele>8.310000000000001</ele>
        <time>2017-06-22T10:25:48Z</time>
      </trkpt>
      <trkpt lat="65.403690040111542" lon="12.545298999175429">
        <ele>8.310000000000001</ele>
        <time>2017-06-22T10:25:49Z</time>
      </trkpt>
      <trkpt lat="65.403659027069807" lon="12.545635029673576">
        <ele>8.310000000000001</ele>
        <time>2017-06-22T10:25:50Z</time>
      </trkpt>
      <trkpt lat="65.403610998764634" lon="12.54596896469593">
        <ele>8.310000000000001</ele>
        <time>2017-06-22T10:25:51Z</time>
      </trkpt>
      <trkpt lat="65.403545033186674" lon="12.546287979930639">
        <ele>8.310000000000001</ele>
        <time>2017-06-22T10:25:52Z</time>
      </trkpt>
      <trkpt lat="65.403463980183005" lon="12.546598026528955">
        <ele>8.310000000000001</ele>
        <time>2017-06-22T10:25:53Z</time>
      </trkpt>
      <trkpt lat="65.403370019048452" lon="12.546879993751645">
        <ele>7.83</ele>
        <time>2017-06-22T10:25:54Z</time>
      </trkpt>
      <trkpt lat="65.403264993801713" lon="12.547159027308226">
        <ele>7.83</ele>
        <time>2017-06-22T10:25:55Z</time>
      </trkpt>
      <trkpt lat="65.403148988261819" lon="12.547449041157961">
        <ele>7.35</ele>
        <time>2017-06-22T10:25:56Z</time>
      </trkpt>
      <trkpt lat="65.402581030502915" lon="12.549770995974541">
        <ele>4.46</ele>
        <time>2017-06-22T10:26:03Z</time>
      </trkpt>
      <trkpt lat="65.402552029117942" lon="12.550132004544139">
        <ele>4.94</ele>
        <time>2017-06-22T10:26:04Z</time>
      </trkpt>
      <trkpt lat="65.402538031339645" lon="12.550511034205556">
        <ele>4.94</ele>
        <time>2017-06-22T10:26:05Z</time>
      </trkpt>
      <trkpt lat="65.402539037168026" lon="12.550892997533083">
        <ele>5.91</ele>
        <time>2017-06-22T10:26:06Z</time>
      </trkpt>
      <trkpt lat="65.402554040774703" lon="12.55127496086061">
        <ele>6.39</ele>
        <time>2017-06-22T10:26:07Z</time>
      </trkpt>
      <trkpt lat="65.402581030502915" lon="12.551653990522027">
        <ele>7.35</ele>
        <time>2017-06-22T10:26:08Z</time>
      </trkpt>
      <trkpt lat="65.40261497721076" lon="12.552036959677935">
        <ele>8.310000000000001</ele>
        <time>2017-06-22T10:26:09Z</time>
      </trkpt>
      <trkpt lat="65.402796026319265" lon="12.555748969316483">
        <ele>15.52</ele>
        <time>2017-06-22T10:26:18Z</time>
      </trkpt>
      <trkpt lat="65.402367040514946" lon="12.558844992890954">
        <ele>17.440000000000001</ele>
        <time>2017-06-22T10:26:25Z</time>
      </trkpt>
      <trkpt lat="65.401960015296936" lon="12.560463035479188">
        <ele>14.08</ele>
        <time>2017-06-22T10:26:29Z</time>
      </trkpt>
      <trkpt lat="65.40188399143517" lon="12.560903001576662">
        <ele>12.630000000000001</ele>
        <time>2017-06-22T10:26:30Z</time>
      </trkpt>
      <trkpt lat="65.401832023635507" lon="12.561374986544251">
        <ele>12.15</ele>
        <time>2017-06-22T10:26:31Z</time>
      </trkpt>
      <trkpt lat="65.401807967573404" lon="12.561869015917182">
        <ele>12.15</ele>
        <time>2017-06-22T10:26:32Z</time>
      </trkpt>
      <trkpt lat="65.401804028078914" lon="12.562365978956223">
        <ele>11.67</ele>
        <time>2017-06-22T10:26:33Z</time>
      </trkpt>
      <trkpt lat="65.401811990886927" lon="12.562862019985914">
        <ele>11.19</ele>
        <time>2017-06-22T10:26:34Z</time>
      </trkpt>
      <trkpt lat="65.401807967573404" lon="12.564783990383148">
        <ele>11.67</ele>
        <time>2017-06-22T10:26:38Z</time>
      </trkpt>
      <trkpt lat="65.401763962581754" lon="12.565219011157751">
        <ele>11.67</ele>
        <time>2017-06-22T10:26:39Z</time>
      </trkpt>
      <trkpt lat="65.401695985347033" lon="12.565628970041871">
        <ele>12.15</ele>
        <time>2017-06-22T10:26:40Z</time>
      </trkpt>
      <trkpt lat="65.401605041697621" lon="12.56601202301681">
        <ele>12.630000000000001</ele>
        <time>2017-06-22T10:26:41Z</time>
      </trkpt>
      <trkpt lat="65.401503033936024" lon="12.566344030201435">
        <ele>13.119999999999999</ele>
        <time>2017-06-22T10:26:42Z</time>
      </trkpt>
      <trkpt lat="65.401389040052891" lon="12.566630020737648">
        <ele>13.6</ele>
        <time>2017-06-22T10:26:43Z</time>
      </trkpt>
      <trkpt lat="65.401257025077939" lon="12.566866977140307">
        <ele>14.08</ele>
        <time>2017-06-22T10:26:44Z</time>
      </trkpt>
      <trkpt lat="65.40111000649631" lon="12.567058000713587">
        <ele>13.6</ele>
        <time>2017-06-22T10:26:45Z</time>
      </trkpt>
      <trkpt lat="65.40095703676343" lon="12.567220022901893">
        <ele>13.119999999999999</ele>
        <time>2017-06-22T10:26:46Z</time>
      </trkpt>
      <trkpt lat="65.400794008746743" lon="12.567346002906561">
        <ele>12.630000000000001</ele>
        <time>2017-06-22T10:26:47Z</time>
      </trkpt>
      <trkpt lat="65.400620000436902" lon="12.56745396181941">
        <ele>11.19</ele>
        <time>2017-06-22T10:26:48Z</time>
      </trkpt>
      <trkpt lat="65.398809006437659" lon="12.568374965339899">
        <ele>7.83</ele>
        <time>2017-06-22T10:26:57Z</time>
      </trkpt>
      <trkpt lat="65.398427965119481" lon="12.56873999722302">
        <ele>7.35</ele>
        <time>2017-06-22T10:26:59Z</time>
      </trkpt>
      <trkpt lat="65.398254962638021" lon="12.568983994424343">
        <ele>7.35</ele>
        <time>2017-06-22T10:27:00Z</time>
      </trkpt>
      <trkpt lat="65.398093024268746" lon="12.569278031587601">
        <ele>6.87</ele>
        <time>2017-06-22T10:27:01Z</time>
      </trkpt>
      <trkpt lat="65.397949023172259" lon="12.569624036550522">
        <ele>6.39</ele>
        <time>2017-06-22T10:27:02Z</time>
      </trkpt>
      <trkpt lat="65.39782103151083" lon="12.569999964907765">
        <ele>6.39</ele>
        <time>2017-06-22T10:27:03Z</time>
      </trkpt>
      <trkpt lat="65.397707037627697" lon="12.570405984297395">
        <ele>6.39</ele>
        <time>2017-06-22T10:27:04Z</time>
      </trkpt>
      <trkpt lat="65.397600000724196" lon="12.570820972323418">
        <ele>6.87</ele>
        <time>2017-06-22T10:27:05Z</time>
      </trkpt>
      <trkpt lat="65.397375030443072" lon="12.571632005274296">
        <ele>7.83</ele>
        <time>2017-06-22T10:27:07Z</time>
      </trkpt>
      <trkpt lat="65.397233963012695" lon="12.571994019672275">
        <ele>9.27</ele>
        <time>2017-06-22T10:27:08Z</time>
      </trkpt>
      <trkpt lat="65.397074958309531" lon="12.572317980229855">
        <ele>10.710000000000001</ele>
        <time>2017-06-22T10:27:09Z</time>
      </trkpt>
      <trkpt lat="65.396902961656451" lon="12.57260799407959">
        <ele>11.67</ele>
        <time>2017-06-22T10:27:10Z</time>
      </trkpt>
      <trkpt lat="65.396723002195358" lon="12.572871018201113">
        <ele>12.15</ele>
        <time>2017-06-22T10:27:11Z</time>
      </trkpt>
      <trkpt lat="65.395848015323281" lon="12.5744120310992">
        <ele>14.08</ele>
        <time>2017-06-22T10:27:16Z</time>
      </trkpt>
      <trkpt lat="65.395705020055175" lon="12.574811009690166">
        <ele>14.56</ele>
        <time>2017-06-22T10:27:17Z</time>
      </trkpt>
      <trkpt lat="65.395577028393745" lon="12.575242007151246">
        <ele>14.56</ele>
        <time>2017-06-22T10:27:18Z</time>
      </trkpt>
      <trkpt lat="65.39545901119709" lon="12.575691025704145">
        <ele>14.56</ele>
        <time>2017-06-22T10:27:19Z</time>
      </trkpt>
      <trkpt lat="65.395355997607112" lon="12.5761510245502">
        <ele>14.08</ele>
        <time>2017-06-22T10:27:20Z</time>
      </trkpt>
      <trkpt lat="65.395267987623811" lon="12.576636001467705">
        <ele>14.08</ele>
        <time>2017-06-22T10:27:21Z</time>
      </trkpt>
      <trkpt lat="65.39520101621747" lon="12.577142016962171">
        <ele>14.56</ele>
        <time>2017-06-22T10:27:22Z</time>
      </trkpt>
      <trkpt lat="65.395153993740678" lon="12.577651971951127">
        <ele>14.56</ele>
        <time>2017-06-22T10:27:23Z</time>
      </trkpt>
      <trkpt lat="65.395132033154368" lon="12.578167961910367">
        <ele>14.56</ele>
        <time>2017-06-22T10:27:24Z</time>
      </trkpt>
      <trkpt lat="65.395123986527324" lon="12.578687975183129">
        <ele>14.56</ele>
        <time>2017-06-22T10:27:25Z</time>
      </trkpt>
      <trkpt lat="65.395130021497607" lon="12.579203965142369">
        <ele>15.039999999999999</ele>
        <time>2017-06-22T10:27:26Z</time>
      </trkpt>
      <trkpt lat="65.395148964598775" lon="12.579708974808455">
        <ele>15.039999999999999</ele>
        <time>2017-06-22T10:27:27Z</time>
      </trkpt>
      <trkpt lat="65.395186012610793" lon="12.580201998353004">
        <ele>15.039999999999999</ele>
        <time>2017-06-22T10:27:28Z</time>
      </trkpt>
      <trkpt lat="65.395240997895598" lon="12.580692004412413">
        <ele>15.039999999999999</ele>
        <time>2017-06-22T10:27:29Z</time>
      </trkpt>
      <trkpt lat="65.395303023979068" lon="12.581168012693524">
        <ele>15.039999999999999</ele>
        <time>2017-06-22T10:27:30Z</time>
      </trkpt>
      <trkpt lat="65.395675012841821" lon="12.584816990420222">
        <ele>13.6</ele>
        <time>2017-06-22T10:27:38Z</time>
      </trkpt>
      <trkpt lat="65.395661015063524" lon="12.585272965952754">
        <ele>13.119999999999999</ele>
        <time>2017-06-22T10:27:39Z</time>
      </trkpt>
      <trkpt lat="65.395628996193409" lon="12.585734976455569">
        <ele>11.67</ele>
        <time>2017-06-22T10:27:40Z</time>
      </trkpt>
      <trkpt lat="65.395580967888236" lon="12.586202016100287">
        <ele>11.19</ele>
        <time>2017-06-22T10:27:41Z</time>
      </trkpt>
      <trkpt lat="65.395518019795418" lon="12.586663020774722">
        <ele>9.75</ele>
        <time>2017-06-22T10:27:42Z</time>
      </trkpt>
      <trkpt lat="65.39543797262013" lon="12.587112039327621">
        <ele>9.27</ele>
        <time>2017-06-22T10:27:43Z</time>
      </trkpt>
      <trkpt lat="65.395348034799099" lon="12.587528033182025">
        <ele>8.310000000000001</ele>
        <time>2017-06-22T10:27:44Z</time>
      </trkpt>
      <trkpt lat="65.395246027037501" lon="12.587912008166313">
        <ele>7.83</ele>
        <time>2017-06-22T10:27:45Z</time>
      </trkpt>
      <trkpt lat="65.395132033154368" lon="12.588272010907531">
        <ele>7.35</ele>
        <time>2017-06-22T10:27:46Z</time>
      </trkpt>
      <trkpt lat="65.395000018179417" lon="12.58859395980835">
        <ele>6.87</ele>
        <time>2017-06-22T10:27:47Z</time>
      </trkpt>
      <trkpt lat="65.394860040396452" lon="12.588903000578284">
        <ele>6.39</ele>
        <time>2017-06-22T10:27:48Z</time>
      </trkpt>
      <trkpt lat="65.39470799267292" lon="12.589186979457736">
        <ele>5.42</ele>
        <time>2017-06-22T10:27:49Z</time>
      </trkpt>
      <trkpt lat="65.394293004646897" lon="12.590142013505101">
        <ele>3.98</ele>
        <time>2017-06-22T10:27:52Z</time>
      </trkpt>
      <trkpt lat="65.394183034077287" lon="12.590503022074699">
        <ele>3.98</ele>
        <time>2017-06-22T10:27:53Z</time>
      </trkpt>
      <trkpt lat="65.394091000780463" lon="12.590877022594213">
        <ele>3.5</ele>
        <time>2017-06-22T10:27:54Z</time>
      </trkpt>
      <trkpt lat="65.394023023545742" lon="12.591264015063643">
        <ele>3.02</ele>
        <time>2017-06-22T10:27:55Z</time>
      </trkpt>
      <trkpt lat="65.39397600106895" lon="12.591670034453273">
        <ele>2.06</ele>
        <time>2017-06-22T10:27:56Z</time>
      </trkpt>
      <trkpt lat="65.393939958885312" lon="12.592088961973786">
        <ele>1.58</ele>
        <time>2017-06-22T10:27:57Z</time>
      </trkpt>
      <trkpt lat="65.393929984420538" lon="12.592519037425518">
        <ele>1.58</ele>
        <time>2017-06-22T10:27:58Z</time>
      </trkpt>
      <trkpt lat="65.393938031047583" lon="12.592917010188103">
        <ele>1.58</ele>
        <time>2017-06-22T10:27:59Z</time>
      </trkpt>
      <trkpt lat="65.393957979977131" lon="12.593306014314294">
        <ele>1.58</ele>
        <time>2017-06-22T10:28:00Z</time>
      </trkpt>
      <trkpt lat="65.393993016332388" lon="12.59368403814733">
        <ele>2.06</ele>
        <time>2017-06-22T10:28:01Z</time>
      </trkpt>
      <trkpt lat="65.394038027152419" lon="12.594052003696561">
        <ele>2.06</ele>
        <time>2017-06-22T10:28:02Z</time>
      </trkpt>
      <trkpt lat="65.394086977466941" lon="12.594788018614054">
        <ele>2.06</ele>
        <time>2017-06-22T10:28:04Z</time>
      </trkpt>
      <trkpt lat="65.39408303797245" lon="12.595184985548258">
        <ele>2.06</ele>
        <time>2017-06-22T10:28:05Z</time>
      </trkpt>
      <trkpt lat="65.39404196664691" lon="12.598247984424233">
        <ele>3.5</ele>
        <time>2017-06-22T10:28:12Z</time>
      </trkpt>
      <trkpt lat="65.393997961655259" lon="12.598672024905682">
        <ele>3.5</ele>
        <time>2017-06-22T10:28:13Z</time>
      </trkpt>
      <trkpt lat="65.393926966935396" lon="12.59907896630466">
        <ele>4.46</ele>
        <time>2017-06-22T10:28:14Z</time>
      </trkpt>
      <trkpt lat="65.393836023285985" lon="12.599456990137696">
        <ele>4.94</ele>
        <time>2017-06-22T10:28:15Z</time>
      </trkpt>
      <trkpt lat="65.393729992210865" lon="12.599834008142352">
        <ele>5.91</ele>
        <time>2017-06-22T10:28:16Z</time>
      </trkpt>
      <trkpt lat="65.392768001183867" lon="12.603157013654709">
        <ele>2.54</ele>
        <time>2017-06-22T10:28:24Z</time>
      </trkpt>
      <trkpt lat="65.39229903370142" lon="12.604744965210557">
        <ele>5.42</ele>
        <time>2017-06-22T10:28:28Z</time>
      </trkpt>
      <trkpt lat="65.392234995961189" lon="12.605167999863625">
        <ele>6.39</ele>
        <time>2017-06-22T10:28:29Z</time>
      </trkpt>
      <trkpt lat="65.392114967107773" lon="12.60595103725791">
        <ele>6.87</ele>
        <time>2017-06-22T10:28:31Z</time>
      </trkpt>
      <trkpt lat="65.392031986266375" lon="12.606293018907309">
        <ele>6.87</ele>
        <time>2017-06-22T10:28:32Z</time>
      </trkpt>
      <trkpt lat="65.391922015696764" lon="12.606605999171734">
        <ele>5.91</ele>
        <time>2017-06-22T10:28:33Z</time>
      </trkpt>
      <trkpt lat="65.391787989065051" lon="12.606914034113288">
        <ele>5.91</ele>
        <time>2017-06-22T10:28:34Z</time>
      </trkpt>
      <trkpt lat="65.391642982140183" lon="12.607219973579049">
        <ele>4.94</ele>
        <time>2017-06-22T10:28:35Z</time>
      </trkpt>
      <trkpt lat="65.390885006636381" lon="12.609495995566249">
        <ele>2.54</ele>
        <time>2017-06-22T10:28:41Z</time>
      </trkpt>
      <trkpt lat="65.389773985370994" lon="12.615029979497194">
        <ele>2.54</ele>
        <time>2017-06-22T10:28:53Z</time>
      </trkpt>
      <trkpt lat="65.389493023976684" lon="12.615751996636391">
        <ele>1.58</ele>
        <time>2017-06-22T10:28:55Z</time>
      </trkpt>
      <trkpt lat="65.389333013445139" lon="12.616074029356241">
        <ele>2.54</ele>
        <time>2017-06-22T10:28:56Z</time>
      </trkpt>
      <trkpt lat="65.38916202262044" lon="12.616359014064074">
        <ele>2.54</ele>
        <time>2017-06-22T10:28:57Z</time>
      </trkpt>
      <trkpt lat="65.388386026024818" lon="12.617830960080028">
        <ele>2.54</ele>
        <time>2017-06-22T10:29:02Z</time>
      </trkpt>
      <trkpt lat="65.388291981071234" lon="12.618181994184852">
        <ele>3.5</ele>
        <time>2017-06-22T10:29:03Z</time>
      </trkpt>
      <trkpt lat="65.388220986351371" lon="12.618579966947436">
        <ele>3.98</ele>
        <time>2017-06-22T10:29:04Z</time>
      </trkpt>
      <trkpt lat="65.387983024120331" lon="12.619871031492949">
        <ele>3.5</ele>
        <time>2017-06-22T10:29:07Z</time>
      </trkpt>
      <trkpt lat="65.387865006923676" lon="12.620277972891927">
        <ele>3.5</ele>
        <time>2017-06-22T10:29:08Z</time>
      </trkpt>
      <trkpt lat="65.387733997777104" lon="12.620651973411441">
        <ele>3.5</ele>
        <time>2017-06-22T10:29:09Z</time>
      </trkpt>
      <trkpt lat="65.387588990852237" lon="12.620984986424446">
        <ele>3.5</ele>
        <time>2017-06-22T10:29:10Z</time>
      </trkpt>
      <trkpt lat="65.387435015290976" lon="12.621282963082194">
        <ele>3.02</ele>
        <time>2017-06-22T10:29:11Z</time>
      </trkpt>
      <trkpt lat="65.387270981445909" lon="12.621560990810394">
        <ele>3.02</ele>
        <time>2017-06-22T10:29:12Z</time>
      </trkpt>
      <trkpt lat="65.387094039469957" lon="12.621827032417059">
        <ele>3.02</ele>
        <time>2017-06-22T10:29:13Z</time>
      </trkpt>
      <trkpt lat="65.385760981589556" lon="12.62369804084301">
        <ele>2.54</ele>
        <time>2017-06-22T10:29:20Z</time>
      </trkpt>
      <trkpt lat="65.384246958419681" lon="12.625944977626204">
        <ele>3.02</ele>
        <time>2017-06-22T10:29:28Z</time>
      </trkpt>
      <trkpt lat="65.383360991254449" lon="12.627280969172716">
        <ele>3.02</ele>
        <time>2017-06-22T10:29:33Z</time>
      </trkpt>
      <trkpt lat="65.383195029571652" lon="12.627425976097584">
        <ele>2.06</ele>
        <time>2017-06-22T10:29:34Z</time>
      </trkpt>
      <trkpt lat="65.383027978241444" lon="12.627510968595743">
        <ele>2.54</ele>
        <time>2017-06-22T10:29:35Z</time>
      </trkpt>
      <trkpt lat="65.38284701295197" lon="12.627539969980717">
        <ele>3.02</ele>
        <time>2017-06-22T10:29:36Z</time>
      </trkpt>
      <trkpt lat="65.382666969671845" lon="12.627539969980717">
        <ele>3.02</ele>
        <time>2017-06-22T10:29:37Z</time>
      </trkpt>
      <trkpt lat="65.382480975240469" lon="12.627527983859181">
        <ele>3.5</ele>
        <time>2017-06-22T10:29:38Z</time>
      </trkpt>
      <trkpt lat="65.38211602717638" lon="12.627586992457509">
        <ele>3.02</ele>
        <time>2017-06-22T10:29:40Z</time>
      </trkpt>
      <trkpt lat="65.381936989724636" lon="12.627713978290558">
        <ele>3.02</ele>
        <time>2017-06-22T10:29:41Z</time>
      </trkpt>
      <trkpt lat="65.381761975586414" lon="12.627879017964005">
        <ele>3.02</ele>
        <time>2017-06-22T10:29:42Z</time>
      </trkpt>
      <trkpt lat="65.381591990590096" lon="12.628101976588368">
        <ele>2.54</ele>
        <time>2017-06-22T10:29:43Z</time>
      </trkpt>
      <trkpt lat="65.38142703473568" lon="12.628378998488188">
        <ele>2.54</ele>
        <time>2017-06-22T10:29:44Z</time>
      </trkpt>
      <trkpt lat="65.381259983405471" lon="12.628673035651445">
        <ele>2.06</ele>
        <time>2017-06-22T10:29:45Z</time>
      </trkpt>
      <trkpt lat="65.380622958764434" lon="12.630007015541196">
        <ele>-0.34</ele>
        <time>2017-06-22T10:29:49Z</time>
      </trkpt>
      <trkpt lat="65.379768004640937" lon="12.63283297419548">
        <ele>-1.3</ele>
        <time>2017-06-22T10:29:56Z</time>
      </trkpt>
      <trkpt lat="65.379616040736437" lon="12.63313296250999">
        <ele>-0.82</ele>
        <time>2017-06-22T10:29:57Z</time>
      </trkpt>
      <trkpt lat="65.379179008305073" lon="12.63392698019743">
        <ele>-1.3</ele>
        <time>2017-06-22T10:30:00Z</time>
      </trkpt>
      <trkpt lat="65.379058979451656" lon="12.634239038452506">
        <ele>-1.3</ele>
        <time>2017-06-22T10:30:01Z</time>
      </trkpt>
      <trkpt lat="65.378638040274382" lon="12.635568995028734">
        <ele>-2.27</ele>
        <time>2017-06-22T10:30:05Z</time>
      </trkpt>
      <trkpt lat="65.378576014190912" lon="12.635938972234726">
        <ele>-1.79</ele>
        <time>2017-06-22T10:30:06Z</time>
      </trkpt>
      <trkpt lat="65.378536032512784" lon="12.636353960260749">
        <ele>-1.79</ele>
        <time>2017-06-22T10:30:07Z</time>
      </trkpt>
      <trkpt lat="65.378122972324491" lon="12.639852985739708">
        <ele>0.14</ele>
        <time>2017-06-22T10:30:15Z</time>
      </trkpt>
      <trkpt lat="65.378038985654712" lon="12.640209970995784">
        <ele>0.14</ele>
        <time>2017-06-22T10:30:16Z</time>
      </trkpt>
      <trkpt lat="65.377936977893114" lon="12.640558993443847">
        <ele>0.14</ele>
        <time>2017-06-22T10:30:17Z</time>
      </trkpt>
      <trkpt lat="65.377656016498804" lon="12.641690969467163">
        <ele>-0.82</ele>
        <time>2017-06-22T10:30:20Z</time>
      </trkpt>
      <trkpt lat="65.377600025385618" lon="12.64211199246347">
        <ele>-0.82</ele>
        <time>2017-06-22T10:30:21Z</time>
      </trkpt>
      <trkpt lat="65.377209009602666" lon="12.645329972729087">
        <ele>-0.82</ele>
        <time>2017-06-22T10:30:28Z</time>
      </trkpt>
      <trkpt lat="65.376343997195363" lon="12.648679967969656">
        <ele>-0.34</ele>
        <time>2017-06-22T10:30:36Z</time>
      </trkpt>
      <trkpt lat="65.37620603106916" lon="12.649028990417719">
        <ele>-0.34</ele>
        <time>2017-06-22T10:30:37Z</time>
      </trkpt>
      <trkpt lat="65.376052977517247" lon="12.649343982338905">
        <ele>-0.82</ele>
        <time>2017-06-22T10:30:38Z</time>
      </trkpt>
      <trkpt lat="65.375888021662831" lon="12.64963299036026">
        <ele>-0.82</ele>
        <time>2017-06-22T10:30:39Z</time>
      </trkpt>
      <trkpt lat="65.374677004292607" lon="12.65118196606636">
        <ele>-1.3</ele>
        <time>2017-06-22T10:30:46Z</time>
      </trkpt>
      <trkpt lat="65.374136958271265" lon="12.651473991572857">
        <ele>-0.34</ele>
        <time>2017-06-22T10:30:49Z</time>
      </trkpt>
      <trkpt lat="65.373964039608836" lon="12.651468962430954">
        <ele>0.14</ele>
        <time>2017-06-22T10:30:50Z</time>
      </trkpt>
      <trkpt lat="65.373792964965105" lon="12.651404002681375">
        <ele>0.62</ele>
        <time>2017-06-22T10:30:51Z</time>
      </trkpt>
      <trkpt lat="65.37362901493907" lon="12.651254972442985">
        <ele>2.06</ele>
        <time>2017-06-22T10:30:52Z</time>
      </trkpt>
      <trkpt lat="65.373477973043919" lon="12.651065960526466">
        <ele>3.02</ele>
        <time>2017-06-22T10:30:53Z</time>
      </trkpt>
      <trkpt lat="65.37333196029067" lon="12.650854988023639">
        <ele>3.98</ele>
        <time>2017-06-22T10:30:54Z</time>
      </trkpt>
      <trkpt lat="65.373025014996529" lon="12.650495991110802">
        <ele>5.91</ele>
        <time>2017-06-22T10:30:56Z</time>
      </trkpt>
      <trkpt lat="65.37285796366632" lon="12.650381997227669">
        <ele>6.39</ele>
        <time>2017-06-22T10:30:57Z</time>
      </trkpt>
      <trkpt lat="65.372682027518749" lon="12.650327011942863">
        <ele>7.35</ele>
        <time>2017-06-22T10:30:58Z</time>
      </trkpt>
      <trkpt lat="65.372500978410244" lon="12.650337992236018">
        <ele>7.83</ele>
        <time>2017-06-22T10:30:59Z</time>
      </trkpt>
      <trkpt lat="65.372316995635629" lon="12.650407981127501">
        <ele>8.789999999999999</ele>
        <time>2017-06-22T10:31:00Z</time>
      </trkpt>
      <trkpt lat="65.372136030346155" lon="12.65053597278893">
        <ele>8.789999999999999</ele>
        <time>2017-06-22T10:31:01Z</time>
      </trkpt>
      <trkpt lat="65.371959004551172" lon="12.650692965835333">
        <ele>9.75</ele>
        <time>2017-06-22T10:31:02Z</time>
      </trkpt>
      <trkpt lat="65.371629009023309" lon="12.650949032977223">
        <ele>11.19</ele>
        <time>2017-06-22T10:31:04Z</time>
      </trkpt>
      <trkpt lat="65.371476039290428" lon="12.650995971634984">
        <ele>12.15</ele>
        <time>2017-06-22T10:31:05Z</time>
      </trkpt>
      <trkpt lat="65.371334971860051" lon="12.650979962199926">
        <ele>13.119999999999999</ele>
        <time>2017-06-22T10:31:06Z</time>
      </trkpt>
      <trkpt lat="65.371204968541861" lon="12.650897987186909">
        <ele>14.08</ele>
        <time>2017-06-22T10:31:07Z</time>
      </trkpt>
      <trkpt lat="65.371073037385941" lon="12.650768989697099">
        <ele>14.56</ele>
        <time>2017-06-22T10:31:08Z</time>
      </trkpt>
      <trkpt lat="65.370936999097466" lon="12.650605961680412">
        <ele>15.039999999999999</ele>
        <time>2017-06-22T10:31:09Z</time>
      </trkpt>
      <trkpt lat="65.370786041021347" lon="12.650463972240686">
        <ele>15.52</ele>
        <time>2017-06-22T10:31:10Z</time>
      </trkpt>
      <trkpt lat="65.370623013004661" lon="12.650372022762895">
        <ele>16.960000000000001</ele>
        <time>2017-06-22T10:31:11Z</time>
      </trkpt>
      <trkpt lat="65.3704500105232" lon="12.650344027206302">
        <ele>17.920000000000002</ele>
        <time>2017-06-22T10:31:12Z</time>
      </trkpt>
      <trkpt lat="65.370274996384978" lon="12.650370011106133">
        <ele>18.879999999999999</ele>
        <time>2017-06-22T10:31:13Z</time>
      </trkpt>
      <trkpt lat="65.370094031095505" lon="12.650422984734178">
        <ele>19.84</ele>
        <time>2017-06-22T10:31:14Z</time>
      </trkpt>
      <trkpt lat="65.368335004895926" lon="12.650477970018983">
        <ele>30.420000000000002</ele>
        <time>2017-06-22T10:31:23Z</time>
      </trkpt>
      <trkpt lat="65.367089034989476" lon="12.650058958679438">
        <ele>39.549999999999997</ele>
        <time>2017-06-22T10:31:29Z</time>
      </trkpt>
      <trkpt lat="65.366875967010856" lon="12.65012601390481">
        <ele>40.990000000000002</ele>
        <time>2017-06-22T10:31:30Z</time>
      </trkpt>
      <trkpt lat="65.366664994508028" lon="12.650246964767575">
        <ele>41.950000000000003</ele>
        <time>2017-06-22T10:31:31Z</time>
      </trkpt>
      <trkpt lat="65.364765990525484" lon="12.651696028187871">
        <ele>50.130000000000003</ele>
        <time>2017-06-22T10:31:40Z</time>
      </trkpt>
      <trkpt lat="65.364585025236011" lon="12.651985958218575">
        <ele>50.609999999999999</ele>
        <time>2017-06-22T10:31:41Z</time>
      </trkpt>
      <trkpt lat="65.364415040239692" lon="12.652302961796522">
        <ele>51.57</ele>
        <time>2017-06-22T10:31:42Z</time>
      </trkpt>
      <trkpt lat="65.363915981724858" lon="12.653140984475613">
        <ele>54.450000000000003</ele>
        <time>2017-06-22T10:31:45Z</time>
      </trkpt>
      <trkpt lat="65.363741973415017" lon="12.653321027755737">
        <ele>55.409999999999997</ele>
        <time>2017-06-22T10:31:46Z</time>
      </trkpt>
      <trkpt lat="65.363457994535565" lon="12.653682958334684">
        <ele>60.700000000000003</ele>
        <time>2017-06-22T10:31:48Z</time>
      </trkpt>
      <trkpt lat="65.363352969288826" lon="12.653924021869898">
        <ele>61.659999999999997</ele>
        <time>2017-06-22T10:31:49Z</time>
      </trkpt>
      <trkpt lat="65.363283986225724" lon="12.654224010184407">
        <ele>63.100000000000001</ele>
        <time>2017-06-22T10:31:50Z</time>
      </trkpt>
      <trkpt lat="65.363250039517879" lon="12.654571020975709">
        <ele>64.549999999999997</ele>
        <time>2017-06-22T10:31:51Z</time>
      </trkpt>
      <trkpt lat="65.363237969577312" lon="12.654921971261501">
        <ele>65.510000000000005</ele>
        <time>2017-06-22T10:31:52Z</time>
      </trkpt>
      <trkpt lat="65.363232018426061" lon="12.655262025073171">
        <ele>65.989999999999995</ele>
        <time>2017-06-22T10:31:53Z</time>
      </trkpt>
      <trkpt lat="65.363217014819384" lon="12.655566036701202">
        <ele>66.469999999999999</ele>
        <time>2017-06-22T10:31:54Z</time>
      </trkpt>
      <trkpt lat="65.363164041191339" lon="12.655824031680822">
        <ele>67.430000000000007</ele>
        <time>2017-06-22T10:31:55Z</time>
      </trkpt>
      <trkpt lat="65.363087011501193" lon="12.656018994748592">
        <ele>68.870000000000005</ele>
        <time>2017-06-22T10:31:56Z</time>
      </trkpt>
      <trkpt lat="65.362978968769312" lon="12.656150003895164">
        <ele>69.349999999999994</ele>
        <time>2017-06-22T10:31:57Z</time>
      </trkpt>
      <trkpt lat="65.362856006249785" lon="12.65625">
        <ele>70.310000000000002</ele>
        <time>2017-06-22T10:31:58Z</time>
      </trkpt>
      <trkpt lat="65.362726002931595" lon="12.65633599832654">
        <ele>71.269999999999996</ele>
        <time>2017-06-22T10:31:59Z</time>
      </trkpt>
      <trkpt lat="65.361563013866544" lon="12.656736988574266">
        <ele>77.519999999999996</ele>
        <time>2017-06-22T10:32:06Z</time>
      </trkpt>
      <trkpt lat="65.361016010865569" lon="12.656998001039028">
        <ele>79.930000000000007</ele>
        <time>2017-06-22T10:32:09Z</time>
      </trkpt>
      <trkpt lat="65.360829010605812" lon="12.657006969675422">
        <ele>80.890000000000001</ele>
        <time>2017-06-22T10:32:10Z</time>
      </trkpt>
      <trkpt lat="65.359286991879344" lon="12.656415039673448">
        <ele>85.689999999999998</ele>
        <time>2017-06-22T10:32:18Z</time>
      </trkpt>
      <trkpt lat="65.359096974134445" lon="12.656360976397991">
        <ele>87.140000000000001</ele>
        <time>2017-06-22T10:32:19Z</time>
      </trkpt>
      <trkpt lat="65.358908968046308" lon="12.656364999711514">
        <ele>88.099999999999994</ele>
        <time>2017-06-22T10:32:20Z</time>
      </trkpt>
      <trkpt lat="65.358332041651011" lon="12.656471030786633">
        <ele>91.459999999999994</ele>
        <time>2017-06-22T10:32:23Z</time>
      </trkpt>
      <trkpt lat="65.358147975057364" lon="12.656435994431376">
        <ele>92.900000000000006</ele>
        <time>2017-06-22T10:32:24Z</time>
      </trkpt>
      <trkpt lat="65.357264019548893" lon="12.65635603107512">
        <ele>91.459999999999994</ele>
        <time>2017-06-22T10:32:29Z</time>
      </trkpt>
      <trkpt lat="65.357101997360587" lon="12.656472036615014">
        <ele>90.5</ele>
        <time>2017-06-22T10:32:30Z</time>
      </trkpt>
      <trkpt lat="65.356940981000662" lon="12.656649984419346">
        <ele>90.019999999999996</ele>
        <time>2017-06-22T10:32:31Z</time>
      </trkpt>
      <trkpt lat="65.356783987954259" lon="12.656889958307147">
        <ele>89.060000000000002</ele>
        <time>2017-06-22T10:32:32Z</time>
      </trkpt>
      <trkpt lat="65.356622971594334" lon="12.657163040712476">
        <ele>87.620000000000005</ele>
        <time>2017-06-22T10:32:33Z</time>
      </trkpt>
      <trkpt lat="65.354479970410466" lon="12.660885024815798">
        <ele>71.269999999999996</ele>
        <time>2017-06-22T10:32:45Z</time>
      </trkpt>
      <trkpt lat="65.35253101028502" lon="12.663634037598968">
        <ele>61.18</ele>
        <time>2017-06-22T10:32:55Z</time>
      </trkpt>
      <trkpt lat="65.350799979642034" lon="12.666409034281969">
        <ele>56.369999999999997</ele>
        <time>2017-06-22T10:33:05Z</time>
      </trkpt>
      <trkpt lat="65.350519018247724" lon="12.667089980095625">
        <ele>54.450000000000003</ele>
        <time>2017-06-22T10:33:07Z</time>
      </trkpt>
      <trkpt lat="65.350401001051068" lon="12.667472027242184">
        <ele>53.490000000000002</ele>
        <time>2017-06-22T10:33:08Z</time>
      </trkpt>
      <trkpt lat="65.350295975804329" lon="12.667876034975052">
        <ele>53.009999999999998</ele>
        <time>2017-06-22T10:33:09Z</time>
      </trkpt>
      <trkpt lat="65.349898003041744" lon="12.669485025107861">
        <ele>50.130000000000003</ele>
        <time>2017-06-22T10:33:13Z</time>
      </trkpt>
      <trkpt lat="65.349836982786655" lon="12.669904036447406">
        <ele>49.649999999999999</ele>
        <time>2017-06-22T10:33:14Z</time>
      </trkpt>
      <trkpt lat="65.349731035530567" lon="12.670706016942859">
        <ele>48.68</ele>
        <time>2017-06-22T10:33:16Z</time>
      </trkpt>
      <trkpt lat="65.349661968648434" lon="12.671061996370554">
        <ele>48.68</ele>
        <time>2017-06-22T10:33:17Z</time>
      </trkpt>
      <trkpt lat="65.349579993635416" lon="12.671369025483727">
        <ele>48.200000000000003</ele>
        <time>2017-06-22T10:33:18Z</time>
      </trkpt>
      <trkpt lat="65.349476980045438" lon="12.671651998534799">
        <ele>48.200000000000003</ele>
        <time>2017-06-22T10:33:19Z</time>
      </trkpt>
      <trkpt lat="65.349354017525911" lon="12.671903958544135">
        <ele>47.719999999999999</ele>
        <time>2017-06-22T10:33:20Z</time>
      </trkpt>
      <trkpt lat="65.349217979237437" lon="12.672125995159149">
        <ele>47.240000000000002</ele>
        <time>2017-06-22T10:33:21Z</time>
      </trkpt>
      <trkpt lat="65.349071966484189" lon="12.6723219640553">
        <ele>46.759999999999998</ele>
        <time>2017-06-22T10:33:22Z</time>
      </trkpt>
      <trkpt lat="65.34892201423645" lon="12.672483986243606">
        <ele>46.280000000000001</ele>
        <time>2017-06-22T10:33:23Z</time>
      </trkpt>
      <trkpt lat="65.348756974563003" lon="12.672583982348442">
        <ele>45.799999999999997</ele>
        <time>2017-06-22T10:33:24Z</time>
      </trkpt>
      <trkpt lat="65.348586989566684" lon="12.672632010653615">
        <ele>45.799999999999997</ele>
        <time>2017-06-22T10:33:25Z</time>
      </trkpt>
      <trkpt lat="65.348411975428462" lon="12.672662017866969">
        <ele>45.799999999999997</ele>
        <time>2017-06-22T10:33:26Z</time>
      </trkpt>
      <trkpt lat="65.3468800149858" lon="12.673396021127701">
        <ele>41.950000000000003</ele>
        <time>2017-06-22T10:33:34Z</time>
      </trkpt>
      <trkpt lat="65.345001965761185" lon="12.673607999458909">
        <ele>38.109999999999999</ele>
        <time>2017-06-22T10:33:43Z</time>
      </trkpt>
      <trkpt lat="65.344017008319497" lon="12.673282027244568">
        <ele>34.740000000000002</ele>
        <time>2017-06-22T10:33:49Z</time>
      </trkpt>
      <trkpt lat="65.34389303997159" lon="12.673324020579457">
        <ele>34.259999999999998</ele>
        <time>2017-06-22T10:33:50Z</time>
      </trkpt>
      <trkpt lat="65.343773011118174" lon="12.673454023897648">
        <ele>33.780000000000001</ele>
        <time>2017-06-22T10:33:51Z</time>
      </trkpt>
      <trkpt lat="65.343653988093138" lon="12.673655021935701">
        <ele>32.82</ele>
        <time>2017-06-22T10:33:52Z</time>
      </trkpt>
      <trkpt lat="65.343535970896482" lon="12.673927014693618">
        <ele>32.82</ele>
        <time>2017-06-22T10:33:53Z</time>
      </trkpt>
      <trkpt lat="65.343418037518859" lon="12.674237983301282">
        <ele>31.859999999999999</ele>
        <time>2017-06-22T10:33:54Z</time>
      </trkpt>
      <trkpt lat="65.342881008982658" lon="12.675471967086196">
        <ele>28.02</ele>
        <time>2017-06-22T10:33:58Z</time>
      </trkpt>
      <trkpt lat="65.342722004279494" lon="12.675708001479506">
        <ele>27.050000000000001</ele>
        <time>2017-06-22T10:33:59Z</time>
      </trkpt>
      <trkpt lat="65.342556964606047" lon="12.675912017002702">
        <ele>26.09</ele>
        <time>2017-06-22T10:34:00Z</time>
      </trkpt>
      <trkpt lat="65.342384967952967" lon="12.676090970635414">
        <ele>25.129999999999999</ele>
        <time>2017-06-22T10:34:01Z</time>
      </trkpt>
      <trkpt lat="65.342204002663493" lon="12.676242012530565">
        <ele>24.649999999999999</ele>
        <time>2017-06-22T10:34:02Z</time>
      </trkpt>
      <trkpt lat="65.342012979090214" lon="12.676363969221711">
        <ele>23.690000000000001</ele>
        <time>2017-06-22T10:34:03Z</time>
      </trkpt>
      <trkpt lat="65.341825978830457" lon="12.676466982811689">
        <ele>22.73</ele>
        <time>2017-06-22T10:34:04Z</time>
      </trkpt>
      <trkpt lat="65.340552013367414" lon="12.677124962210655">
        <ele>16.48</ele>
        <time>2017-06-22T10:34:11Z</time>
      </trkpt>
      <trkpt lat="65.340385967865586" lon="12.677108030766249">
        <ele>16</ele>
        <time>2017-06-22T10:34:12Z</time>
      </trkpt>
      <trkpt lat="65.340227968990803" lon="12.677035024389625">
        <ele>16</ele>
        <time>2017-06-22T10:34:13Z</time>
      </trkpt>
      <trkpt lat="65.340068964287639" lon="12.676922958344221">
        <ele>15.52</ele>
        <time>2017-06-22T10:34:14Z</time>
      </trkpt>
      <trkpt lat="65.339906020089984" lon="12.676813993602991">
        <ele>15.039999999999999</ele>
        <time>2017-06-22T10:34:15Z</time>
      </trkpt>
      <trkpt lat="65.339732011780143" lon="12.676729001104832">
        <ele>15.039999999999999</ele>
        <time>2017-06-22T10:34:16Z</time>
      </trkpt>
      <trkpt lat="65.339551968500018" lon="12.676692036911845">
        <ele>14.56</ele>
        <time>2017-06-22T10:34:17Z</time>
      </trkpt>
      <trkpt lat="65.339369997382164" lon="12.676691031083465">
        <ele>14.08</ele>
        <time>2017-06-22T10:34:18Z</time>
      </trkpt>
      <trkpt lat="65.33918802626431" lon="12.676722966134548">
        <ele>14.08</ele>
        <time>2017-06-22T10:34:19Z</time>
      </trkpt>
      <trkpt lat="65.339007982984185" lon="12.676783986389637">
        <ele>14.08</ele>
        <time>2017-06-22T10:34:20Z</time>
      </trkpt>
      <trkpt lat="65.337723959237337" lon="12.676732018589973">
        <ele>17.440000000000001</ele>
        <time>2017-06-22T10:34:27Z</time>
      </trkpt>
      <trkpt lat="65.335915982723236" lon="12.676438987255096">
        <ele>17.440000000000001</ele>
        <time>2017-06-22T10:34:37Z</time>
      </trkpt>
      <trkpt lat="65.334007004275918" lon="12.675770027562976">
        <ele>21.289999999999999</ele>
        <time>2017-06-22T10:34:48Z</time>
      </trkpt>
      <trkpt lat="65.333837019279599" lon="12.675579003989697">
        <ele>21.289999999999999</ele>
        <time>2017-06-22T10:34:49Z</time>
      </trkpt>
      <trkpt lat="65.33349797129631" lon="12.675238028168678">
        <ele>20.809999999999999</ele>
        <time>2017-06-22T10:34:51Z</time>
      </trkpt>
      <trkpt lat="65.333334021270275" lon="12.675174996256828">
        <ele>19.84</ele>
        <time>2017-06-22T10:34:52Z</time>
      </trkpt>
      <trkpt lat="65.333177028223872" lon="12.675211038440466">
        <ele>18.879999999999999</ele>
        <time>2017-06-22T10:34:53Z</time>
      </trkpt>
      <trkpt lat="65.333035038784146" lon="12.675334000959992">
        <ele>17.920000000000002</ele>
        <time>2017-06-22T10:34:54Z</time>
      </trkpt>
      <trkpt lat="65.332896988838911" lon="12.675529969856143">
        <ele>17.920000000000002</ele>
        <time>2017-06-22T10:34:55Z</time>
      </trkpt>
      <trkpt lat="65.332759022712708" lon="12.675758963450789">
        <ele>18.399999999999999</ele>
        <time>2017-06-22T10:34:56Z</time>
      </trkpt>
      <trkpt lat="65.331391012296081" lon="12.678012019023299">
        <ele>20.32</ele>
        <time>2017-06-22T10:35:05Z</time>
      </trkpt>
      <trkpt lat="65.330399014055729" lon="12.680889023467898">
        <ele>21.77</ele>
        <time>2017-06-22T10:35:13Z</time>
      </trkpt>
      <trkpt lat="65.33012199215591" lon="12.681477013975382">
        <ele>22.73</ele>
        <time>2017-06-22T10:35:15Z</time>
      </trkpt>
      <trkpt lat="65.329969022423029" lon="12.681722017005086">
        <ele>23.210000000000001</ele>
        <time>2017-06-22T10:35:16Z</time>
      </trkpt>
      <trkpt lat="65.329665010794997" lon="12.682186039164662">
        <ele>23.690000000000001</ele>
        <time>2017-06-22T10:35:18Z</time>
      </trkpt>
      <trkpt lat="65.329531989991665" lon="12.682476975023746">
        <ele>23.210000000000001</ele>
        <time>2017-06-22T10:35:19Z</time>
      </trkpt>
      <trkpt lat="65.32941497862339" lon="12.682808982208371">
        <ele>22.73</ele>
        <time>2017-06-22T10:35:20Z</time>
      </trkpt>
      <trkpt lat="65.328183006495237" lon="12.686278000473976">
        <ele>22.25</ele>
        <time>2017-06-22T10:35:30Z</time>
      </trkpt>
      <trkpt lat="65.326984981074929" lon="12.689054002985358">
        <ele>22.73</ele>
        <time>2017-06-22T10:35:39Z</time>
      </trkpt>
      <trkpt lat="65.326224993914366" lon="12.690849993377924">
        <ele>24.170000000000002</ele>
        <time>2017-06-22T10:35:45Z</time>
      </trkpt>
      <trkpt lat="65.326072024181485" lon="12.6910550147295">
        <ele>24.170000000000002</ele>
        <time>2017-06-22T10:35:46Z</time>
      </trkpt>
      <trkpt lat="65.32591100782156" lon="12.691199015825987">
        <ele>24.649999999999999</ele>
        <time>2017-06-22T10:35:47Z</time>
      </trkpt>
      <trkpt lat="65.325741022825241" lon="12.691281996667385">
        <ele>25.129999999999999</ele>
        <time>2017-06-22T10:35:48Z</time>
      </trkpt>
      <trkpt lat="65.325576988980174" lon="12.691289959475398">
        <ele>26.09</ele>
        <time>2017-06-22T10:35:49Z</time>
      </trkpt>
      <trkpt lat="65.325414966791868" lon="12.691226005554199">
        <ele>26.57</ele>
        <time>2017-06-22T10:35:50Z</time>
      </trkpt>
      <trkpt lat="65.325260991230607" lon="12.691094996407628">
        <ele>26.57</ele>
        <time>2017-06-22T10:35:51Z</time>
      </trkpt>
      <trkpt lat="65.325119001790881" lon="12.690907996147871">
        <ele>27.050000000000001</ele>
        <time>2017-06-22T10:35:52Z</time>
      </trkpt>
      <trkpt lat="65.324995033442974" lon="12.690656958147883">
        <ele>27.530000000000001</ele>
        <time>2017-06-22T10:35:53Z</time>
      </trkpt>
      <trkpt lat="65.324892019852996" lon="12.690363004803658">
        <ele>28.02</ele>
        <time>2017-06-22T10:35:54Z</time>
      </trkpt>
      <trkpt lat="65.324806021526456" lon="12.690032003447413">
        <ele>27.530000000000001</ele>
        <time>2017-06-22T10:35:55Z</time>
      </trkpt>
      <trkpt lat="65.324726980179548" lon="12.689662026241422">
        <ele>27.530000000000001</ele>
        <time>2017-06-22T10:35:56Z</time>
      </trkpt>
      <trkpt lat="65.324636958539486" lon="12.689292971044779">
        <ele>27.050000000000001</ele>
        <time>2017-06-22T10:35:57Z</time>
      </trkpt>
      <trkpt lat="65.324532017111778" lon="12.688957024365664">
        <ele>27.050000000000001</ele>
        <time>2017-06-22T10:35:58Z</time>
      </trkpt>
      <trkpt lat="65.324398996308446" lon="12.688656030222774">
        <ele>26.57</ele>
        <time>2017-06-22T10:35:59Z</time>
      </trkpt>
      <trkpt lat="65.324244014918804" lon="12.688410021364689">
        <ele>25.609999999999999</ele>
        <time>2017-06-22T10:36:00Z</time>
      </trkpt>
      <trkpt lat="65.324071012437344" lon="12.688212962821126">
        <ele>24.649999999999999</ele>
        <time>2017-06-22T10:36:01Z</time>
      </trkpt>
      <trkpt lat="65.323882000520825" lon="12.688051024451852">
        <ele>24.170000000000002</ele>
        <time>2017-06-22T10:36:02Z</time>
      </trkpt>
      <trkpt lat="65.323687037453055" lon="12.687922026962042">
        <ele>23.690000000000001</ele>
        <time>2017-06-22T10:36:03Z</time>
      </trkpt>
      <trkpt lat="65.322507033124566" lon="12.687103031203151">
        <ele>20.32</ele>
        <time>2017-06-22T10:36:09Z</time>
      </trkpt>
      <trkpt lat="65.322331013157964" lon="12.68688996322453">
        <ele>20.32</ele>
        <time>2017-06-22T10:36:10Z</time>
      </trkpt>
      <trkpt lat="65.322163039818406" lon="12.686639009043574">
        <ele>19.359999999999999</ele>
        <time>2017-06-22T10:36:11Z</time>
      </trkpt>
      <trkpt lat="65.322007974609733" lon="12.686374979093671">
        <ele>18.879999999999999</ele>
        <time>2017-06-22T10:36:12Z</time>
      </trkpt>
      <trkpt lat="65.321869002655149" lon="12.686089994385839">
        <ele>18.879999999999999</ele>
        <time>2017-06-22T10:36:13Z</time>
      </trkpt>
      <trkpt lat="65.32174302265048" lon="12.685784976929426">
        <ele>18.399999999999999</ele>
        <time>2017-06-22T10:36:14Z</time>
      </trkpt>
      <trkpt lat="65.321639003232121" lon="12.685454981401563">
        <ele>18.399999999999999</ele>
        <time>2017-06-22T10:36:15Z</time>
      </trkpt>
      <trkpt lat="65.321556022390723" lon="12.68510302528739">
        <ele>18.399999999999999</ele>
        <time>2017-06-22T10:36:16Z</time>
      </trkpt>
      <trkpt lat="65.321497013792396" lon="12.684733970090747">
        <ele>18.399999999999999</ele>
        <time>2017-06-22T10:36:17Z</time>
      </trkpt>
      <trkpt lat="65.321458959951997" lon="12.684377990663052">
        <ele>18.879999999999999</ele>
        <time>2017-06-22T10:36:18Z</time>
      </trkpt>
      <trkpt lat="65.321438005194068" lon="12.684023017063737">
        <ele>19.359999999999999</ele>
        <time>2017-06-22T10:36:19Z</time>
      </trkpt>
      <trkpt lat="65.321429036557674" lon="12.683652034029365">
        <ele>19.84</ele>
        <time>2017-06-22T10:36:20Z</time>
      </trkpt>
      <trkpt lat="65.321431970223784" lon="12.683271998539567">
        <ele>19.84</ele>
        <time>2017-06-22T10:36:21Z</time>
      </trkpt>
      <trkpt lat="65.32161695882678" lon="12.679945975542068">
        <ele>20.32</ele>
        <time>2017-06-22T10:36:30Z</time>
      </trkpt>
      <trkpt lat="65.321761965751648" lon="12.67837998457253">
        <ele>22.25</ele>
        <time>2017-06-22T10:36:34Z</time>
      </trkpt>
      <trkpt lat="65.321824997663498" lon="12.678024005144835">
        <ele>22.73</ele>
        <time>2017-06-22T10:36:35Z</time>
      </trkpt>
      <trkpt lat="65.322158010676503" lon="12.676362041383982">
        <ele>24.649999999999999</ele>
        <time>2017-06-22T10:36:40Z</time>
      </trkpt>
      <trkpt lat="65.322189023718238" lon="12.676048977300525">
        <ele>25.129999999999999</ele>
        <time>2017-06-22T10:36:41Z</time>
      </trkpt>
      <trkpt lat="65.322201009839773" lon="12.675756029784679">
        <ele>25.609999999999999</ele>
        <time>2017-06-22T10:36:42Z</time>
      </trkpt>
      <trkpt lat="65.322185000404716" lon="12.675470039248466">
        <ele>25.129999999999999</ele>
        <time>2017-06-22T10:36:43Z</time>
      </trkpt>
      <trkpt lat="65.322134960442781" lon="12.675211960449815">
        <ele>24.649999999999999</ele>
        <time>2017-06-22T10:36:44Z</time>
      </trkpt>
      <trkpt lat="65.322061032056808" lon="12.674980033189058">
        <ele>24.649999999999999</ele>
        <time>2017-06-22T10:36:45Z</time>
      </trkpt>
      <trkpt lat="65.321961035951972" lon="12.674778029322624">
        <ele>24.170000000000002</ele>
        <time>2017-06-22T10:36:46Z</time>
      </trkpt>
      <trkpt lat="65.321840001270175" lon="12.674591029062867">
        <ele>23.690000000000001</ele>
        <time>2017-06-22T10:36:47Z</time>
      </trkpt>
      <trkpt lat="65.321717038750648" lon="12.674412997439504">
        <ele>23.210000000000001</ele>
        <time>2017-06-22T10:36:48Z</time>
      </trkpt>
      <trkpt lat="65.321597009897232" lon="12.674219962209463">
        <ele>22.73</ele>
        <time>2017-06-22T10:36:49Z</time>
      </trkpt>
      <trkpt lat="65.32148402184248" lon="12.673986023291945">
        <ele>22.25</ele>
        <time>2017-06-22T10:36:50Z</time>
      </trkpt>
      <trkpt lat="65.321384025737643" lon="12.673700032755733">
        <ele>21.77</ele>
        <time>2017-06-22T10:36:51Z</time>
      </trkpt>
      <trkpt lat="65.321300961077213" lon="12.673370959237218">
        <ele>21.77</ele>
        <time>2017-06-22T10:36:52Z</time>
      </trkpt>
      <trkpt lat="65.321233989670873" lon="12.673011040315032">
        <ele>21.77</ele>
        <time>2017-06-22T10:36:53Z</time>
      </trkpt>
      <trkpt lat="65.32118403352797" lon="12.67262396402657">
        <ele>21.77</ele>
        <time>2017-06-22T10:36:54Z</time>
      </trkpt>
      <trkpt lat="65.321146985515952" lon="12.672222973778844">
        <ele>22.25</ele>
        <time>2017-06-22T10:36:55Z</time>
      </trkpt>
      <trkpt lat="65.321126030758023" lon="12.671817960217595">
        <ele>22.73</ele>
        <time>2017-06-22T10:36:56Z</time>
      </trkpt>
      <trkpt lat="65.321015976369381" lon="12.670229002833366">
        <ele>23.690000000000001</ele>
        <time>2017-06-22T10:37:00Z</time>
      </trkpt>
      <trkpt lat="65.320958979427814" lon="12.669834969565272">
        <ele>23.690000000000001</ele>
        <time>2017-06-22T10:37:01Z</time>
      </trkpt>
      <trkpt lat="65.3208820335567" lon="12.66944102011621">
        <ele>23.210000000000001</ele>
        <time>2017-06-22T10:37:02Z</time>
      </trkpt>
      <trkpt lat="65.320795029401779" lon="12.669050004333258">
        <ele>23.210000000000001</ele>
        <time>2017-06-22T10:37:03Z</time>
      </trkpt>
      <trkpt lat="65.320694027468562" lon="12.668653037399054">
        <ele>23.210000000000001</ele>
        <time>2017-06-22T10:37:04Z</time>
      </trkpt>
      <trkpt lat="65.319632040336728" lon="12.664104010909796">
        <ele>24.170000000000002</ele>
        <time>2017-06-22T10:37:15Z</time>
      </trkpt>
      <trkpt lat="65.319297015666962" lon="12.661817008629441">
        <ele>26.09</ele>
        <time>2017-06-22T10:37:20Z</time>
      </trkpt>
      <trkpt lat="65.319274971261621" lon="12.661333037540317">
        <ele>27.050000000000001</ele>
        <time>2017-06-22T10:37:21Z</time>
      </trkpt>
      <trkpt lat="65.31927203759551" lon="12.660838002339005">
        <ele>27.530000000000001</ele>
        <time>2017-06-22T10:37:22Z</time>
      </trkpt>
      <trkpt lat="65.319281006231904" lon="12.660338021814823">
        <ele>28.5</ele>
        <time>2017-06-22T10:37:23Z</time>
      </trkpt>
      <trkpt lat="65.319300033152103" lon="12.659818008542061">
        <ele>29.460000000000001</ele>
        <time>2017-06-22T10:37:24Z</time>
      </trkpt>
      <trkpt lat="65.319630028679967" lon="12.654454009607434">
        <ele>37.149999999999999</ele>
        <time>2017-06-22T10:37:35Z</time>
      </trkpt>
      <trkpt lat="65.319623993709683" lon="12.653506016358733">
        <ele>37.630000000000003</ele>
        <time>2017-06-22T10:37:37Z</time>
      </trkpt>
      <trkpt lat="65.319590969011188" lon="12.653050040826201">
        <ele>37.630000000000003</ele>
        <time>2017-06-22T10:37:38Z</time>
      </trkpt>
      <trkpt lat="65.319539001211524" lon="12.652599010616541">
        <ele>37.149999999999999</ele>
        <time>2017-06-22T10:37:39Z</time>
      </trkpt>
      <trkpt lat="65.319157037883997" lon="12.650423990562558">
        <ele>36.670000000000002</ele>
        <time>2017-06-22T10:37:44Z</time>
      </trkpt>
      <trkpt lat="65.319052012637258" lon="12.650044038891792">
        <ele>36.670000000000002</ele>
        <time>2017-06-22T10:37:45Z</time>
      </trkpt>
      <trkpt lat="65.318930977955461" lon="12.649724017828703">
        <ele>36.670000000000002</ele>
        <time>2017-06-22T10:37:46Z</time>
      </trkpt>
      <trkpt lat="65.318793011829257" lon="12.649469962343574">
        <ele>37.149999999999999</ele>
        <time>2017-06-22T10:37:47Z</time>
      </trkpt>
      <trkpt lat="65.318633001297712" lon="12.649269970133901">
        <ele>37.149999999999999</ele>
        <time>2017-06-22T10:37:48Z</time>
      </trkpt>
      <trkpt lat="65.318463016301394" lon="12.649100990965962">
        <ele>37.630000000000003</ele>
        <time>2017-06-22T10:37:49Z</time>
      </trkpt>
      <trkpt lat="65.318283978849649" lon="12.648935029283166">
        <ele>37.630000000000003</ele>
        <time>2017-06-22T10:37:50Z</time>
      </trkpt>
      <trkpt lat="65.318116005510092" lon="12.648735959082842">
        <ele>37.630000000000003</ele>
        <time>2017-06-22T10:37:51Z</time>
      </trkpt>
      <trkpt lat="65.317968986928463" lon="12.648488022387028">
        <ele>38.590000000000003</ele>
        <time>2017-06-22T10:37:52Z</time>
      </trkpt>
      <trkpt lat="65.317843006923795" lon="12.648179987445474">
        <ele>38.590000000000003</ele>
        <time>2017-06-22T10:37:53Z</time>
      </trkpt>
      <trkpt lat="65.317727001383901" lon="12.647830964997411">
        <ele>39.07</ele>
        <time>2017-06-22T10:37:54Z</time>
      </trkpt>
      <trkpt lat="65.317618036642671" lon="12.64746299944818">
        <ele>39.07</ele>
        <time>2017-06-22T10:37:55Z</time>
      </trkpt>
      <trkpt lat="65.316250026226044" lon="12.642882959917188">
        <ele>44.359999999999999</ele>
        <time>2017-06-22T10:38:07Z</time>
      </trkpt>
      <trkpt lat="65.316133014857769" lon="12.642634017392993">
        <ele>44.359999999999999</ele>
        <time>2017-06-22T10:38:08Z</time>
      </trkpt>
      <trkpt lat="65.315996976569295" lon="12.642426984384656">
        <ele>44.359999999999999</ele>
        <time>2017-06-22T10:38:09Z</time>
      </trkpt>
      <trkpt lat="65.315846018493176" lon="12.642269991338253">
        <ele>44.840000000000003</ele>
        <time>2017-06-22T10:38:10Z</time>
      </trkpt>
      <trkpt lat="65.31568399630487" lon="12.642153985798359">
        <ele>44.840000000000003</ele>
        <time>2017-06-22T10:38:11Z</time>
      </trkpt>
      <trkpt lat="65.315514011308551" lon="12.64204703271389">
        <ele>45.32</ele>
        <time>2017-06-22T10:38:12Z</time>
      </trkpt>
      <trkpt lat="65.315162977203727" lon="12.641787026077509">
        <ele>46.280000000000001</ele>
        <time>2017-06-22T10:38:14Z</time>
      </trkpt>
      <trkpt lat="65.314987041056156" lon="12.641606982797384">
        <ele>47.240000000000002</ele>
        <time>2017-06-22T10:38:15Z</time>
      </trkpt>
      <trkpt lat="65.313327005133033" lon="12.6399000082165">
        <ele>49.159999999999997</ele>
        <time>2017-06-22T10:38:24Z</time>
      </trkpt>
      <trkpt lat="65.313142016530037" lon="12.639827001839876">
        <ele>49.159999999999997</ele>
        <time>2017-06-22T10:38:25Z</time>
      </trkpt>
      <trkpt lat="65.312958033755422" lon="12.639832030981779">
        <ele>48.68</ele>
        <time>2017-06-22T10:38:26Z</time>
      </trkpt>
      <trkpt lat="65.312770027667284" lon="12.6399000082165">
        <ele>48.68</ele>
        <time>2017-06-22T10:38:27Z</time>
      </trkpt>
      <trkpt lat="65.312579004094005" lon="12.640020037069917">
        <ele>48.200000000000003</ele>
        <time>2017-06-22T10:38:28Z</time>
      </trkpt>
      <trkpt lat="65.312389992177486" lon="12.640174012631178">
        <ele>48.200000000000003</ele>
        <time>2017-06-22T10:38:29Z</time>
      </trkpt>
      <trkpt lat="65.310084968805313" lon="12.641654005274177">
        <ele>43.880000000000003</ele>
        <time>2017-06-22T10:38:40Z</time>
      </trkpt>
      <trkpt lat="65.308570023626089" lon="12.642019959166646">
        <ele>43.399999999999999</ele>
        <time>2017-06-22T10:38:47Z</time>
      </trkpt>
      <trkpt lat="65.308383023366332" lon="12.641968997195363">
        <ele>43.880000000000003</ele>
        <time>2017-06-22T10:38:48Z</time>
      </trkpt>
      <trkpt lat="65.308203985914588" lon="12.641857014968991">
        <ele>44.840000000000003</ele>
        <time>2017-06-22T10:38:49Z</time>
      </trkpt>
      <trkpt lat="65.30803601257503" lon="12.641684012487531">
        <ele>45.799999999999997</ele>
        <time>2017-06-22T10:38:50Z</time>
      </trkpt>
      <trkpt lat="65.307877007871866" lon="12.64146700501442">
        <ele>47.240000000000002</ele>
        <time>2017-06-22T10:38:51Z</time>
      </trkpt>
      <trkpt lat="65.307722026482224" lon="12.641218984499574">
        <ele>48.68</ele>
        <time>2017-06-22T10:38:52Z</time>
      </trkpt>
      <trkpt lat="65.307395970448852" lon="12.640770971775055">
        <ele>51.090000000000003</ele>
        <time>2017-06-22T10:38:54Z</time>
      </trkpt>
      <trkpt lat="65.307220034301281" lon="12.640627976506948">
        <ele>52.049999999999997</ele>
        <time>2017-06-22T10:38:55Z</time>
      </trkpt>
      <trkpt lat="65.307036973536015" lon="12.640549018979073">
        <ele>53.490000000000002</ele>
        <time>2017-06-22T10:38:56Z</time>
      </trkpt>
      <trkpt lat="65.306852990761399" lon="12.640533009544015">
        <ele>54.450000000000003</ele>
        <time>2017-06-22T10:38:57Z</time>
      </trkpt>
      <trkpt lat="65.306668002158403" lon="12.640576008707285">
        <ele>54.93</ele>
        <time>2017-06-22T10:38:58Z</time>
      </trkpt>
      <trkpt lat="65.306486031040549" lon="12.640684973448515">
        <ele>54.93</ele>
        <time>2017-06-22T10:38:59Z</time>
      </trkpt>
      <trkpt lat="65.306312022730708" lon="12.640849007293582">
        <ele>54.93</ele>
        <time>2017-06-22T10:39:00Z</time>
      </trkpt>
      <trkpt lat="65.30614597722888" lon="12.641074983403087">
        <ele>54.93</ele>
        <time>2017-06-22T10:39:01Z</time>
      </trkpt>
      <trkpt lat="65.305987978354096" lon="12.641343036666512">
        <ele>54.93</ele>
        <time>2017-06-22T10:39:02Z</time>
      </trkpt>
      <trkpt lat="65.305834002792835" lon="12.64164000749588">
        <ele>54.93</ele>
        <time>2017-06-22T10:39:03Z</time>
      </trkpt>
      <trkpt lat="65.304206991568208" lon="12.644012002274394">
        <ele>49.159999999999997</ele>
        <time>2017-06-22T10:39:12Z</time>
      </trkpt>
      <trkpt lat="65.302841998636723" lon="12.64552996493876">
        <ele>44.840000000000003</ele>
        <time>2017-06-22T10:39:19Z</time>
      </trkpt>
      <trkpt lat="65.301421014592052" lon="12.647831970825791">
        <ele>42.920000000000002</ele>
        <time>2017-06-22T10:39:27Z</time>
      </trkpt>
      <trkpt lat="65.300621967762709" lon="12.64937499538064">
        <ele>44.359999999999999</ele>
        <time>2017-06-22T10:39:32Z</time>
      </trkpt>
      <trkpt lat="65.300464974716306" lon="12.649584962055087">
        <ele>44.359999999999999</ele>
        <time>2017-06-22T10:39:33Z</time>
      </trkpt>
      <trkpt lat="65.300306975841522" lon="12.649731980636716">
        <ele>44.359999999999999</ele>
        <time>2017-06-22T10:39:34Z</time>
      </trkpt>
      <trkpt lat="65.30015199445188" lon="12.649801969528198">
        <ele>43.880000000000003</ele>
        <time>2017-06-22T10:39:35Z</time>
      </trkpt>
      <trkpt lat="65.300001036375761" lon="12.649793000891805">
        <ele>44.359999999999999</ele>
        <time>2017-06-22T10:39:36Z</time>
      </trkpt>
      <trkpt lat="65.299852006137371" lon="12.649726029485464">
        <ele>44.840000000000003</ele>
        <time>2017-06-22T10:39:37Z</time>
      </trkpt>
      <trkpt lat="65.299711022526026" lon="12.649643970653415">
        <ele>44.840000000000003</ele>
        <time>2017-06-22T10:39:38Z</time>
      </trkpt>
      <trkpt lat="65.299560986459255" lon="12.649593008682132">
        <ele>45.799999999999997</ele>
        <time>2017-06-22T10:39:39Z</time>
      </trkpt>
      <trkpt lat="65.299403993412852" lon="12.649598037824035">
        <ele>46.759999999999998</ele>
        <time>2017-06-22T10:39:40Z</time>
      </trkpt>
      <trkpt lat="65.29924800619483" lon="12.649652017280459">
        <ele>47.719999999999999</ele>
        <time>2017-06-22T10:39:41Z</time>
      </trkpt>
      <trkpt lat="65.299095958471298" lon="12.649760982021689">
        <ele>48.200000000000003</ele>
        <time>2017-06-22T10:39:42Z</time>
      </trkpt>
      <trkpt lat="65.298949023708701" lon="12.649926021695137">
        <ele>49.159999999999997</ele>
        <time>2017-06-22T10:39:43Z</time>
      </trkpt>
      <trkpt lat="65.298804016783834" lon="12.650138000026345">
        <ele>49.159999999999997</ele>
        <time>2017-06-22T10:39:44Z</time>
      </trkpt>
      <trkpt lat="65.298663033172488" lon="12.650392977520823">
        <ele>49.649999999999999</ele>
        <time>2017-06-22T10:39:45Z</time>
      </trkpt>
      <trkpt lat="65.298520037904382" lon="12.650674022734165">
        <ele>49.159999999999997</ele>
        <time>2017-06-22T10:39:46Z</time>
      </trkpt>
      <trkpt lat="65.297862980514765" lon="12.651770040392876">
        <ele>48.68</ele>
        <time>2017-06-22T10:39:50Z</time>
      </trkpt>
      <trkpt lat="65.297666005790234" lon="12.651966009289026">
        <ele>49.159999999999997</ele>
        <time>2017-06-22T10:39:51Z</time>
      </trkpt>
      <trkpt lat="65.295861968770623" lon="12.653679018840194">
        <ele>54.450000000000003</ele>
        <time>2017-06-22T10:40:00Z</time>
      </trkpt>
      <trkpt lat="65.293799014762044" lon="12.655667038634419">
        <ele>49.159999999999997</ele>
        <time>2017-06-22T10:40:10Z</time>
      </trkpt>
      <trkpt lat="65.292754964902997" lon="12.655961997807026">
        <ele>48.68</ele>
        <time>2017-06-22T10:40:15Z</time>
      </trkpt>
      <trkpt lat="65.291081015020609" lon="12.655844986438751">
        <ele>55.890000000000001</ele>
        <time>2017-06-22T10:40:23Z</time>
      </trkpt>
      <trkpt lat="65.289595993235707" lon="12.65639903023839">
        <ele>58.780000000000001</ele>
        <time>2017-06-22T10:40:31Z</time>
      </trkpt>
      <trkpt lat="65.28945098631084" lon="12.656524004414678">
        <ele>59.259999999999998</ele>
        <time>2017-06-22T10:40:32Z</time>
      </trkpt>
      <trkpt lat="65.289314026013017" lon="12.656698012724519">
        <ele>60.219999999999999</ele>
        <time>2017-06-22T10:40:33Z</time>
      </trkpt>
      <trkpt lat="65.289178993552923" lon="12.656902028247714">
        <ele>61.659999999999997</ele>
        <time>2017-06-22T10:40:34Z</time>
      </trkpt>
      <trkpt lat="65.289045972749591" lon="12.657122975215316">
        <ele>63.100000000000001</ele>
        <time>2017-06-22T10:40:35Z</time>
      </trkpt>
      <trkpt lat="65.287886001169682" lon="12.658927012234926">
        <ele>71.760000000000005</ele>
        <time>2017-06-22T10:40:43Z</time>
      </trkpt>
      <trkpt lat="65.287664970383048" lon="12.659434033557773">
        <ele>72.719999999999999</ele>
        <time>2017-06-22T10:40:45Z</time>
      </trkpt>
      <trkpt lat="65.28758299537003" lon="12.65970703214407">
        <ele>73.200000000000003</ele>
        <time>2017-06-22T10:40:46Z</time>
      </trkpt>
      <trkpt lat="65.287520969286561" lon="12.659981958568096">
        <ele>74.159999999999997</ele>
        <time>2017-06-22T10:40:47Z</time>
      </trkpt>
      <trkpt lat="65.287408987060189" lon="12.660518987104297">
        <ele>75.599999999999994</ele>
        <time>2017-06-22T10:40:49Z</time>
      </trkpt>
      <trkpt lat="65.287338998168707" lon="12.660768013447523">
        <ele>76.560000000000002</ele>
        <time>2017-06-22T10:40:50Z</time>
      </trkpt>
      <trkpt lat="65.287248976528645" lon="12.660982003435493">
        <ele>77.519999999999996</ele>
        <time>2017-06-22T10:40:51Z</time>
      </trkpt>
      <trkpt lat="65.287145040929317" lon="12.661159029230475">
        <ele>78</ele>
        <time>2017-06-22T10:40:52Z</time>
      </trkpt>
      <trkpt lat="65.287029035389423" lon="12.661296995356679">
        <ele>78.969999999999999</ele>
        <time>2017-06-22T10:40:53Z</time>
      </trkpt>
      <trkpt lat="65.286905989050865" lon="12.661393973976374">
        <ele>79.450000000000003</ele>
        <time>2017-06-22T10:40:54Z</time>
      </trkpt>
      <trkpt lat="65.286772968247533" lon="12.661443008109927">
        <ele>80.409999999999997</ele>
        <time>2017-06-22T10:40:55Z</time>
      </trkpt>
      <trkpt lat="65.286631984636188" lon="12.661451976746321">
        <ele>81.370000000000005</ele>
        <time>2017-06-22T10:40:56Z</time>
      </trkpt>
      <trkpt lat="65.286483960226178" lon="12.661444013938308">
        <ele>82.329999999999998</ele>
        <time>2017-06-22T10:40:57Z</time>
      </trkpt>
      <trkpt lat="65.284879999235272" lon="12.660927018150687">
        <ele>89.060000000000002</ele>
        <time>2017-06-22T10:41:07Z</time>
      </trkpt>
      <trkpt lat="65.283644003793597" lon="12.661367990076542">
        <ele>86.659999999999997</ele>
        <time>2017-06-22T10:41:14Z</time>
      </trkpt>
      <trkpt lat="65.280883004888892" lon="12.662732983008027">
        <ele>83.769999999999996</ele>
        <time>2017-06-22T10:41:29Z</time>
      </trkpt>
      <trkpt lat="65.280746966600418" lon="12.662895005196333">
        <ele>83.290000000000006</ele>
        <time>2017-06-22T10:41:30Z</time>
      </trkpt>
      <trkpt lat="65.280627021566033" lon="12.663071025162935">
        <ele>83.769999999999996</ele>
        <time>2017-06-22T10:41:31Z</time>
      </trkpt>
      <trkpt lat="65.280518978834152" lon="12.663263976573944">
        <ele>83.769999999999996</ele>
        <time>2017-06-22T10:41:32Z</time>
      </trkpt>
      <trkpt lat="65.280420994386077" lon="12.663447959348559">
        <ele>83.769999999999996</ele>
        <time>2017-06-22T10:41:33Z</time>
      </trkpt>
      <trkpt lat="65.28032099828124" lon="12.663615010678768">
        <ele>83.769999999999996</ele>
        <time>2017-06-22T10:41:34Z</time>
      </trkpt>
      <trkpt lat="65.28021203354001" lon="12.663758005946875">
        <ele>83.290000000000006</ele>
        <time>2017-06-22T10:41:35Z</time>
      </trkpt>
      <trkpt lat="65.280088987201452" lon="12.663860013708472">
        <ele>83.290000000000006</ele>
        <time>2017-06-22T10:41:36Z</time>
      </trkpt>
      <trkpt lat="65.27995403856039" lon="12.663930002599955">
        <ele>82.329999999999998</ele>
        <time>2017-06-22T10:41:37Z</time>
      </trkpt>
      <trkpt lat="65.279810037463903" lon="12.663990017026663">
        <ele>81.370000000000005</ele>
        <time>2017-06-22T10:41:38Z</time>
      </trkpt>
      <trkpt lat="65.279522035270929" lon="12.664142986759543">
        <ele>79.450000000000003</ele>
        <time>2017-06-22T10:41:40Z</time>
      </trkpt>
      <trkpt lat="65.279385996982455" lon="12.664257986471057">
        <ele>78.480000000000004</ele>
        <time>2017-06-22T10:41:41Z</time>
      </trkpt>
      <trkpt lat="65.278427023440599" lon="12.665106989443302">
        <ele>71.760000000000005</ele>
        <time>2017-06-22T10:41:48Z</time>
      </trkpt>
      <trkpt lat="65.278300037607551" lon="12.665286026895046">
        <ele>70.790000000000006</ele>
        <time>2017-06-22T10:41:49Z</time>
      </trkpt>
      <trkpt lat="65.278176991268992" lon="12.665492976084352">
        <ele>69.829999999999998</ele>
        <time>2017-06-22T10:41:50Z</time>
      </trkpt>
      <trkpt lat="65.277680028229952" lon="12.666346002370119">
        <ele>68.870000000000005</ele>
        <time>2017-06-22T10:41:54Z</time>
      </trkpt>
      <trkpt lat="65.277546001598239" lon="12.666470976546407">
        <ele>68.870000000000005</ele>
        <time>2017-06-22T10:41:55Z</time>
      </trkpt>
      <trkpt lat="65.277406023815274" lon="12.666559992358088">
        <ele>68.870000000000005</ele>
        <time>2017-06-22T10:41:56Z</time>
      </trkpt>
      <trkpt lat="65.276077995076776" lon="12.66714395955205">
        <ele>65.030000000000001</ele>
        <time>2017-06-22T10:42:04Z</time>
      </trkpt>
      <trkpt lat="65.274660028517246" lon="12.669035000726581">
        <ele>63.100000000000001</ele>
        <time>2017-06-22T10:42:13Z</time>
      </trkpt>
      <trkpt lat="65.273974975571036" lon="12.670001015067101">
        <ele>61.659999999999997</ele>
        <time>2017-06-22T10:42:18Z</time>
      </trkpt>
      <trkpt lat="65.273866010829806" lon="12.670219028368592">
        <ele>61.18</ele>
        <time>2017-06-22T10:42:19Z</time>
      </trkpt>
      <trkpt lat="65.273761991411448" lon="12.670468976721168">
        <ele>60.700000000000003</ele>
        <time>2017-06-22T10:42:20Z</time>
      </trkpt>
      <trkpt lat="65.272891027852893" lon="12.672972986474633">
        <ele>58.780000000000001</ele>
        <time>2017-06-22T10:42:28Z</time>
      </trkpt>
      <trkpt lat="65.27269103564322" lon="12.673516971990466">
        <ele>59.259999999999998</ele>
        <time>2017-06-22T10:42:30Z</time>
      </trkpt>
      <trkpt lat="65.272622974589467" lon="12.673807991668582">
        <ele>59.740000000000002</ele>
        <time>2017-06-22T10:42:31Z</time>
      </trkpt>
      <trkpt lat="65.272577963769436" lon="12.674118960276246">
        <ele>59.740000000000002</ele>
        <time>2017-06-22T10:42:32Z</time>
      </trkpt>
      <trkpt lat="65.272561032325029" lon="12.674432024359703">
        <ele>60.219999999999999</ele>
        <time>2017-06-22T10:42:33Z</time>
      </trkpt>
      <trkpt lat="65.27256203815341" lon="12.674761014059186">
        <ele>60.219999999999999</ele>
        <time>2017-06-22T10:42:34Z</time>
      </trkpt>
      <trkpt lat="65.272574024274945" lon="12.675110036507249">
        <ele>60.700000000000003</ele>
        <time>2017-06-22T10:42:35Z</time>
      </trkpt>
      <trkpt lat="65.272576035931706" lon="12.675480013713241">
        <ele>60.700000000000003</ele>
        <time>2017-06-22T10:42:36Z</time>
      </trkpt>
      <trkpt lat="65.272553991526365" lon="12.675857031717896">
        <ele>61.659999999999997</ele>
        <time>2017-06-22T10:42:37Z</time>
      </trkpt>
      <trkpt lat="65.272511998191476" lon="12.676233965903521">
        <ele>62.140000000000001</ele>
        <time>2017-06-22T10:42:38Z</time>
      </trkpt>
      <trkpt lat="65.272455001249909" lon="12.676605032756925">
        <ele>63.100000000000001</ele>
        <time>2017-06-22T10:42:39Z</time>
      </trkpt>
      <trkpt lat="65.272387024015188" lon="12.676971992477775">
        <ele>64.069999999999993</ele>
        <time>2017-06-22T10:42:40Z</time>
      </trkpt>
      <trkpt lat="65.272036995738745" lon="12.678279988467693">
        <ele>67.909999999999997</ele>
        <time>2017-06-22T10:42:44Z</time>
      </trkpt>
      <trkpt lat="65.271933982148767" lon="12.678517028689384">
        <ele>68.870000000000005</ele>
        <time>2017-06-22T10:42:45Z</time>
      </trkpt>
      <trkpt lat="65.271816970780492" lon="12.67872498370707">
        <ele>68.390000000000001</ele>
        <time>2017-06-22T10:42:46Z</time>
      </trkpt>
      <trkpt lat="65.271685961633921" lon="12.678911983966827">
        <ele>67.909999999999997</ele>
        <time>2017-06-22T10:42:47Z</time>
      </trkpt>
      <trkpt lat="65.271544978022575" lon="12.679094038903713">
        <ele>67.430000000000007</ele>
        <time>2017-06-22T10:42:48Z</time>
      </trkpt>
      <trkpt lat="65.270111002027988" lon="12.681284984573722">
        <ele>61.18</ele>
        <time>2017-06-22T10:42:57Z</time>
      </trkpt>
      <trkpt lat="65.267701037228107" lon="12.68658603541553">
        <ele>53.490000000000002</ele>
        <time>2017-06-22T10:43:13Z</time>
      </trkpt>
      <trkpt lat="65.266917999833822" lon="12.688096035271883">
        <ele>53.009999999999998</ele>
        <time>2017-06-22T10:43:18Z</time>
      </trkpt>
      <trkpt lat="65.266791014000773" lon="12.688440028578043">
        <ele>53.490000000000002</ele>
        <time>2017-06-22T10:43:19Z</time>
      </trkpt>
      <trkpt lat="65.266432017087936" lon="12.68940101377666">
        <ele>53.009999999999998</ele>
        <time>2017-06-22T10:43:22Z</time>
      </trkpt>
      <trkpt lat="65.266302013769746" lon="12.689636964350939">
        <ele>53.009999999999998</ele>
        <time>2017-06-22T10:43:23Z</time>
      </trkpt>
      <trkpt lat="65.26616002433002" lon="12.689825976267457">
        <ele>53.009999999999998</ele>
        <time>2017-06-22T10:43:24Z</time>
      </trkpt>
      <trkpt lat="65.266005964949727" lon="12.689967965707183">
        <ele>53.490000000000002</ele>
        <time>2017-06-22T10:43:25Z</time>
      </trkpt>
      <trkpt lat="65.265840003266931" lon="12.690069973468781">
        <ele>53.490000000000002</ele>
        <time>2017-06-22T10:43:26Z</time>
      </trkpt>
      <trkpt lat="65.265521993860602" lon="12.690344983711839">
        <ele>53.490000000000002</ele>
        <time>2017-06-22T10:43:28Z</time>
      </trkpt>
      <trkpt lat="65.265357960015535" lon="12.690548999235034">
        <ele>53.969999999999999</ele>
        <time>2017-06-22T10:43:29Z</time>
      </trkpt>
      <trkpt lat="65.265200966969132" lon="12.690785033628345">
        <ele>53.969999999999999</ele>
        <time>2017-06-22T10:43:30Z</time>
      </trkpt>
      <trkpt lat="65.263670012354851" lon="12.69309701398015">
        <ele>55.409999999999997</ele>
        <time>2017-06-22T10:43:39Z</time>
      </trkpt>
      <trkpt lat="65.260984031483531" lon="12.696633003652096">
        <ele>52.530000000000001</ele>
        <time>2017-06-22T10:43:53Z</time>
      </trkpt>
      <trkpt lat="65.260666022077203" lon="12.697167014703155">
        <ele>50.130000000000003</ele>
        <time>2017-06-22T10:43:55Z</time>
      </trkpt>
      <trkpt lat="65.260525960475206" lon="12.697482006624341">
        <ele>48.68</ele>
        <time>2017-06-22T10:43:56Z</time>
      </trkpt>
      <trkpt lat="65.26040400378406" lon="12.697827005758882">
        <ele>47.719999999999999</ele>
        <time>2017-06-22T10:43:57Z</time>
      </trkpt>
      <trkpt lat="65.260307025164366" lon="12.698202012106776">
        <ele>46.280000000000001</ele>
        <time>2017-06-22T10:43:58Z</time>
      </trkpt>
      <trkpt lat="65.2602310013026" lon="12.6985979732126">
        <ele>44.840000000000003</ele>
        <time>2017-06-22T10:43:59Z</time>
      </trkpt>
      <trkpt lat="65.260183978825808" lon="12.699024025350809">
        <ele>43.880000000000003</ele>
        <time>2017-06-22T10:44:00Z</time>
      </trkpt>
      <trkpt lat="65.260159000754356" lon="12.699458040297031">
        <ele>42.920000000000002</ele>
        <time>2017-06-22T10:44:01Z</time>
      </trkpt>
      <trkpt lat="65.260155983269215" lon="12.699912004172802">
        <ele>41.469999999999999</ele>
        <time>2017-06-22T10:44:02Z</time>
      </trkpt>
      <trkpt lat="65.260172998532653" lon="12.700361022725701">
        <ele>40.509999999999998</ele>
        <time>2017-06-22T10:44:03Z</time>
      </trkpt>
      <trkpt lat="65.26020803488791" lon="12.70080802962184">
        <ele>39.549999999999997</ele>
        <time>2017-06-22T10:44:04Z</time>
      </trkpt>
      <trkpt lat="65.260243993252516" lon="12.701254030689597">
        <ele>39.07</ele>
        <time>2017-06-22T10:44:05Z</time>
      </trkpt>
      <trkpt lat="65.260223960503936" lon="12.703959038481116">
        <ele>35.229999999999997</ele>
        <time>2017-06-22T10:44:11Z</time>
      </trkpt>
      <trkpt lat="65.259688021615148" lon="12.710272958502173">
        <ele>34.740000000000002</ele>
        <time>2017-06-22T10:44:25Z</time>
      </trkpt>
      <trkpt lat="65.259685004130006" lon="12.710675038397312">
        <ele>34.259999999999998</ele>
        <time>2017-06-22T10:44:26Z</time>
      </trkpt>
      <trkpt lat="65.259707970544696" lon="12.711070999503136">
        <ele>33.780000000000001</ele>
        <time>2017-06-22T10:44:27Z</time>
      </trkpt>
      <trkpt lat="65.259755998849869" lon="12.711451034992933">
        <ele>33.299999999999997</ele>
        <time>2017-06-22T10:44:28Z</time>
      </trkpt>
      <trkpt lat="65.259829005226493" lon="12.711819000542164">
        <ele>32.82</ele>
        <time>2017-06-22T10:44:29Z</time>
      </trkpt>
      <trkpt lat="65.259919026866555" lon="12.71217598579824">
        <ele>32.340000000000003</ele>
        <time>2017-06-22T10:44:30Z</time>
      </trkpt>
      <trkpt lat="65.260019022971392" lon="12.712521990761161">
        <ele>31.859999999999999</ele>
        <time>2017-06-22T10:44:31Z</time>
      </trkpt>
      <trkpt lat="65.260290009900928" lon="12.713527986779809">
        <ele>30.420000000000002</ele>
        <time>2017-06-22T10:44:34Z</time>
      </trkpt>
      <trkpt lat="65.26033996604383" lon="12.713870974257588">
        <ele>29.940000000000001</ele>
        <time>2017-06-22T10:44:35Z</time>
      </trkpt>
      <trkpt lat="65.260367961600423" lon="12.714222008362412">
        <ele>29.460000000000001</ele>
        <time>2017-06-22T10:44:36Z</time>
      </trkpt>
      <trkpt lat="65.260373996570706" lon="12.714589973911643">
        <ele>28.98</ele>
        <time>2017-06-22T10:44:37Z</time>
      </trkpt>
      <trkpt lat="65.260368967428803" lon="12.714965986087918">
        <ele>28.5</ele>
        <time>2017-06-22T10:44:38Z</time>
      </trkpt>
      <trkpt lat="65.260370979085565" lon="12.715360019356012">
        <ele>27.530000000000001</ele>
        <time>2017-06-22T10:44:39Z</time>
      </trkpt>
      <trkpt lat="65.26040299795568" lon="12.715752040967345">
        <ele>26.57</ele>
        <time>2017-06-22T10:44:40Z</time>
      </trkpt>
      <trkpt lat="65.260461000725627" lon="12.716151019558311">
        <ele>26.57</ele>
        <time>2017-06-22T10:44:41Z</time>
      </trkpt>
      <trkpt lat="65.260536018759012" lon="12.716558966785669">
        <ele>26.09</ele>
        <time>2017-06-22T10:44:42Z</time>
      </trkpt>
      <trkpt lat="65.260620005428791" lon="12.716971021145582">
        <ele>25.609999999999999</ele>
        <time>2017-06-22T10:44:43Z</time>
      </trkpt>
      <trkpt lat="65.261657014489174" lon="12.722350023686886">
        <ele>21.77</ele>
        <time>2017-06-22T10:44:55Z</time>
      </trkpt>
      <trkpt lat="65.261858012527227" lon="12.725574038922787">
        <ele>22.25</ele>
        <time>2017-06-22T10:45:02Z</time>
      </trkpt>
      <trkpt lat="65.261833034455776" lon="12.726020961999893">
        <ele>22.73</ele>
        <time>2017-06-22T10:45:03Z</time>
      </trkpt>
      <trkpt lat="65.261791041120887" lon="12.726456988602877">
        <ele>23.210000000000001</ele>
        <time>2017-06-22T10:45:04Z</time>
      </trkpt>
      <trkpt lat="65.261702025309205" lon="12.72755996324122">
        <ele>24.649999999999999</ele>
        <time>2017-06-22T10:45:07Z</time>
      </trkpt>
      <trkpt lat="65.261721974238753" lon="12.72786196321249">
        <ele>25.129999999999999</ele>
        <time>2017-06-22T10:45:08Z</time>
      </trkpt>
      <trkpt lat="65.261761033907533" lon="12.728187013417482">
        <ele>25.129999999999999</ele>
        <time>2017-06-22T10:45:09Z</time>
      </trkpt>
      <trkpt lat="65.261857006698847" lon="12.729251012206078">
        <ele>26.09</ele>
        <time>2017-06-22T10:45:12Z</time>
      </trkpt>
      <trkpt lat="65.261861030012369" lon="12.729618977755308">
        <ele>26.09</ele>
        <time>2017-06-22T10:45:13Z</time>
      </trkpt>
      <trkpt lat="65.261846026405692" lon="12.729991972446442">
        <ele>26.57</ele>
        <time>2017-06-22T10:45:14Z</time>
      </trkpt>
      <trkpt lat="65.261814007535577" lon="12.730365972965956">
        <ele>26.57</ele>
        <time>2017-06-22T10:45:15Z</time>
      </trkpt>
      <trkpt lat="65.261775031685829" lon="12.730742990970612">
        <ele>27.050000000000001</ele>
        <time>2017-06-22T10:45:16Z</time>
      </trkpt>
      <trkpt lat="65.261742006987333" lon="12.73112797178328">
        <ele>27.530000000000001</ele>
        <time>2017-06-22T10:45:17Z</time>
      </trkpt>
      <trkpt lat="65.261730020865798" lon="12.73151395842433">
        <ele>27.530000000000001</ele>
        <time>2017-06-22T10:45:18Z</time>
      </trkpt>
      <trkpt lat="65.261744018644094" lon="12.731910003349185">
        <ele>28.02</ele>
        <time>2017-06-22T10:45:19Z</time>
      </trkpt>
      <trkpt lat="65.261785006150603" lon="12.732299007475376">
        <ele>28.5</ele>
        <time>2017-06-22T10:45:20Z</time>
      </trkpt>
      <trkpt lat="65.261848038062453" lon="12.732665967196226">
        <ele>28.98</ele>
        <time>2017-06-22T10:45:21Z</time>
      </trkpt>
      <trkpt lat="65.261931018903852" lon="12.733012977987528">
        <ele>29.460000000000001</ele>
        <time>2017-06-22T10:45:22Z</time>
      </trkpt>
      <trkpt lat="65.262023974210024" lon="12.733354037627578">
        <ele>29.940000000000001</ele>
        <time>2017-06-22T10:45:23Z</time>
      </trkpt>
      <trkpt lat="65.262697041034698" lon="12.736527007073164">
        <ele>34.259999999999998</ele>
        <time>2017-06-22T10:45:31Z</time>
      </trkpt>
      <trkpt lat="65.262762000784278" lon="12.737397970631719">
        <ele>35.710000000000001</ele>
        <time>2017-06-22T10:45:33Z</time>
      </trkpt>
      <trkpt lat="65.2627660240978" lon="12.737838020548224">
        <ele>37.149999999999999</ele>
        <time>2017-06-22T10:45:34Z</time>
      </trkpt>
      <trkpt lat="65.262755965813994" lon="12.738274969160557">
        <ele>38.109999999999999</ele>
        <time>2017-06-22T10:45:35Z</time>
      </trkpt>
      <trkpt lat="65.262554967775941" lon="12.742673959583044">
        <ele>40.509999999999998</ele>
        <time>2017-06-22T10:45:45Z</time>
      </trkpt>
      <trkpt lat="65.262251039966941" lon="12.745794039219618">
        <ele>43.399999999999999</ele>
        <time>2017-06-22T10:45:52Z</time>
      </trkpt>
      <trkpt lat="65.262158000841737" lon="12.74614398367703">
        <ele>44.840000000000003</ele>
        <time>2017-06-22T10:45:53Z</time>
      </trkpt>
      <trkpt lat="65.262049036100507" lon="12.746435003355145">
        <ele>46.759999999999998</ele>
        <time>2017-06-22T10:45:54Z</time>
      </trkpt>
      <trkpt lat="65.261918026953936" lon="12.746706996113062">
        <ele>48.200000000000003</ele>
        <time>2017-06-22T10:45:55Z</time>
      </trkpt>
      <trkpt lat="65.261788023635745" lon="12.746954010799527">
        <ele>49.159999999999997</ele>
        <time>2017-06-22T10:45:56Z</time>
      </trkpt>
      <trkpt lat="65.261676041409373" lon="12.747206976637244">
        <ele>50.130000000000003</ele>
        <time>2017-06-22T10:45:57Z</time>
      </trkpt>
      <trkpt lat="65.261590965092182" lon="12.747491961345077">
        <ele>50.609999999999999</ele>
        <time>2017-06-22T10:45:58Z</time>
      </trkpt>
      <trkpt lat="65.261536985635757" lon="12.74781902320683">
        <ele>51.57</ele>
        <time>2017-06-22T10:45:59Z</time>
      </trkpt>
      <trkpt lat="65.261517958715558" lon="12.748168967664242">
        <ele>52.530000000000001</ele>
        <time>2017-06-22T10:46:00Z</time>
      </trkpt>
      <trkpt lat="65.261522987857461" lon="12.748536011204123">
        <ele>53.490000000000002</ele>
        <time>2017-06-22T10:46:01Z</time>
      </trkpt>
      <trkpt lat="65.261537991464138" lon="12.748927026987076">
        <ele>54.93</ele>
        <time>2017-06-22T10:46:02Z</time>
      </trkpt>
      <trkpt lat="65.26167101226747" lon="12.753382008522749">
        <ele>69.349999999999994</ele>
        <time>2017-06-22T10:46:12Z</time>
      </trkpt>
      <trkpt lat="65.262103015556931" lon="12.758443001657724">
        <ele>73.680000000000007</ele>
        <time>2017-06-22T10:46:22Z</time>
      </trkpt>
      <trkpt lat="65.262631997466087" lon="12.76449398137629">
        <ele>76.079999999999998</ele>
        <time>2017-06-22T10:46:34Z</time>
      </trkpt>
      <trkpt lat="65.263335993513465" lon="12.768952986225486">
        <ele>78.480000000000004</ele>
        <time>2017-06-22T10:46:44Z</time>
      </trkpt>
      <trkpt lat="65.263428026810288" lon="12.769274013116956">
        <ele>78.969999999999999</ele>
        <time>2017-06-22T10:46:45Z</time>
      </trkpt>
      <trkpt lat="65.263528022915125" lon="12.769536031410098">
        <ele>79.450000000000003</ele>
        <time>2017-06-22T10:46:46Z</time>
      </trkpt>
      <trkpt lat="65.263644028455019" lon="12.769752033054829">
        <ele>79.930000000000007</ele>
        <time>2017-06-22T10:46:47Z</time>
      </trkpt>
      <trkpt lat="65.263780988752842" lon="12.769914977252483">
        <ele>80.890000000000001</ele>
        <time>2017-06-22T10:46:48Z</time>
      </trkpt>
      <trkpt lat="65.263931024819613" lon="12.770055960863829">
        <ele>81.370000000000005</ele>
        <time>2017-06-22T10:46:49Z</time>
      </trkpt>
      <trkpt lat="65.264224978163838" lon="12.770382016897202">
        <ele>81.370000000000005</ele>
        <time>2017-06-22T10:46:51Z</time>
      </trkpt>
      <trkpt lat="65.264361016452312" lon="12.770611010491848">
        <ele>81.849999999999994</ele>
        <time>2017-06-22T10:46:52Z</time>
      </trkpt>
      <trkpt lat="65.264481967315078" lon="12.770887026563287">
        <ele>81.849999999999994</ele>
        <time>2017-06-22T10:46:53Z</time>
      </trkpt>
      <trkpt lat="65.264903996139765" lon="12.772186975926161">
        <ele>82.329999999999998</ele>
        <time>2017-06-22T10:46:57Z</time>
      </trkpt>
      <trkpt lat="65.264974990859628" lon="12.772555025294423">
        <ele>82.329999999999998</ele>
        <time>2017-06-22T10:46:58Z</time>
      </trkpt>
      <trkpt lat="65.265024024993181" lon="12.772944029420614">
        <ele>82.810000000000002</ele>
        <time>2017-06-22T10:46:59Z</time>
      </trkpt>
      <trkpt lat="65.26504497975111" lon="12.773331021890044">
        <ele>82.810000000000002</ele>
        <time>2017-06-22T10:47:00Z</time>
      </trkpt>
      <trkpt lat="65.265035005286336" lon="12.773737963289022">
        <ele>83.769999999999996</ele>
        <time>2017-06-22T10:47:01Z</time>
      </trkpt>
      <trkpt lat="65.265010027214885" lon="12.774151023477316">
        <ele>83.769999999999996</ele>
        <time>2017-06-22T10:47:02Z</time>
      </trkpt>
      <trkpt lat="65.264985971152782" lon="12.774575985968113">
        <ele>84.25</ele>
        <time>2017-06-22T10:47:03Z</time>
      </trkpt>
      <trkpt lat="65.264982031658292" lon="12.775031961500645">
        <ele>84.25</ele>
        <time>2017-06-22T10:47:04Z</time>
      </trkpt>
      <trkpt lat="65.264998963102698" lon="12.775500006973743">
        <ele>84.25</ele>
        <time>2017-06-22T10:47:05Z</time>
      </trkpt>
      <trkpt lat="65.265030981972814" lon="12.77598800137639">
        <ele>83.769999999999996</ele>
        <time>2017-06-22T10:47:06Z</time>
      </trkpt>
      <trkpt lat="65.265078004449606" lon="12.777888011187315">
        <ele>83.290000000000006</ele>
        <time>2017-06-22T10:47:10Z</time>
      </trkpt>
      <trkpt lat="65.265051014721394" lon="12.778324037790298">
        <ele>83.290000000000006</ele>
        <time>2017-06-22T10:47:11Z</time>
      </trkpt>
      <trkpt lat="65.264966022223234" lon="12.779643014073372">
        <ele>84.730000000000004</ele>
        <time>2017-06-22T10:47:14Z</time>
      </trkpt>
      <trkpt lat="65.264961998909712" lon="12.780102007091045">
        <ele>83.769999999999996</ele>
        <time>2017-06-22T10:47:15Z</time>
      </trkpt>
      <trkpt lat="65.265121003612876" lon="12.783314036205411">
        <ele>79.450000000000003</ele>
        <time>2017-06-22T10:47:22Z</time>
      </trkpt>
      <trkpt lat="65.265114968642592" lon="12.783736987039447">
        <ele>79.930000000000007</ele>
        <time>2017-06-22T10:47:23Z</time>
      </trkpt>
      <trkpt lat="65.265084961429238" lon="12.784154992550611">
        <ele>80.409999999999997</ele>
        <time>2017-06-22T10:47:24Z</time>
      </trkpt>
      <trkpt lat="65.265036011114717" lon="12.784566041082144">
        <ele>80.890000000000001</ele>
        <time>2017-06-22T10:47:25Z</time>
      </trkpt>
      <trkpt lat="65.264970967546105" lon="12.784949010238051">
        <ele>81.370000000000005</ele>
        <time>2017-06-22T10:47:26Z</time>
      </trkpt>
      <trkpt lat="65.264900978654623" lon="12.785294009372592">
        <ele>81.849999999999994</ele>
        <time>2017-06-22T10:47:27Z</time>
      </trkpt>
      <trkpt lat="65.264131017029285" lon="12.788666971027851">
        <ele>81.849999999999994</ele>
        <time>2017-06-22T10:47:36Z</time>
      </trkpt>
      <trkpt lat="65.262452038004994" lon="12.79594698920846">
        <ele>83.290000000000006</ele>
        <time>2017-06-22T10:47:52Z</time>
      </trkpt>
      <trkpt lat="65.261751981452107" lon="12.799708032980561">
        <ele>82.329999999999998</ele>
        <time>2017-06-22T10:48:01Z</time>
      </trkpt>
      <trkpt lat="65.261764973402023" lon="12.801561020314693">
        <ele>76.079999999999998</ele>
        <time>2017-06-22T10:48:05Z</time>
      </trkpt>
      <trkpt lat="65.261808978393674" lon="12.802015990018845">
        <ele>74.159999999999997</ele>
        <time>2017-06-22T10:48:06Z</time>
      </trkpt>
      <trkpt lat="65.261873016133904" lon="12.802459979429841">
        <ele>72.239999999999995</ele>
        <time>2017-06-22T10:48:07Z</time>
      </trkpt>
      <trkpt lat="65.261953985318542" lon="12.802891982719302">
        <ele>70.790000000000006</ele>
        <time>2017-06-22T10:48:08Z</time>
      </trkpt>
      <trkpt lat="65.262051969766617" lon="12.803303031250834">
        <ele>68.870000000000005</ele>
        <time>2017-06-22T10:48:09Z</time>
      </trkpt>
      <trkpt lat="65.262165041640401" lon="12.803697986528277">
        <ele>66.950000000000003</ele>
        <time>2017-06-22T10:48:10Z</time>
      </trkpt>
      <trkpt lat="65.262294039130211" lon="12.804070981219411">
        <ele>65.510000000000005</ele>
        <time>2017-06-22T10:48:11Z</time>
      </trkpt>
      <trkpt lat="65.262436028569937" lon="12.804420003667474">
        <ele>63.579999999999998</ele>
        <time>2017-06-22T10:48:12Z</time>
      </trkpt>
      <trkpt lat="65.262588998302817" lon="12.804742958396673">
        <ele>61.659999999999997</ele>
        <time>2017-06-22T10:48:13Z</time>
      </trkpt>
      <trkpt lat="65.262754959985614" lon="12.805032972246408">
        <ele>59.740000000000002</ele>
        <time>2017-06-22T10:48:14Z</time>
      </trkpt>
      <trkpt lat="65.262929974123836" lon="12.805294990539551">
        <ele>58.299999999999997</ele>
        <time>2017-06-22T10:48:15Z</time>
      </trkpt>
      <trkpt lat="65.263112029060721" lon="12.805539993569255">
        <ele>56.369999999999997</ele>
        <time>2017-06-22T10:48:16Z</time>
      </trkpt>
      <trkpt lat="65.264622028917074" lon="12.808256987482309">
        <ele>38.590000000000003</ele>
        <time>2017-06-22T10:48:25Z</time>
      </trkpt>
      <trkpt lat="65.265440018847585" lon="12.811281010508537">
        <ele>26.09</ele>
        <time>2017-06-22T10:48:32Z</time>
      </trkpt>
      <trkpt lat="65.265875039622188" lon="12.812940962612629">
        <ele>21.289999999999999</ele>
        <time>2017-06-22T10:48:36Z</time>
      </trkpt>
      <trkpt lat="65.266005964949727" lon="12.813285961747169">
        <ele>19.359999999999999</ele>
        <time>2017-06-22T10:48:37Z</time>
      </trkpt>
      <trkpt lat="65.266156001016498" lon="12.813592990860343">
        <ele>18.399999999999999</ele>
        <time>2017-06-22T10:48:38Z</time>
      </trkpt>
      <trkpt lat="65.266317017376423" lon="12.813857020810246">
        <ele>16.48</ele>
        <time>2017-06-22T10:48:39Z</time>
      </trkpt>
      <trkpt lat="65.266487002372742" lon="12.814103029668331">
        <ele>15.039999999999999</ele>
        <time>2017-06-22T10:48:40Z</time>
      </trkpt>
      <trkpt lat="65.268905013799667" lon="12.82293101772666">
        <ele>7.35</ele>
        <time>2017-06-22T10:49:01Z</time>
      </trkpt>
      <trkpt lat="65.269044991582632" lon="12.823242992162704">
        <ele>9.27</ele>
        <time>2017-06-22T10:49:02Z</time>
      </trkpt>
      <trkpt lat="65.269172983244061" lon="12.823536023497581">
        <ele>7.83</ele>
        <time>2017-06-22T10:49:03Z</time>
      </trkpt>
      <trkpt lat="65.269321007654071" lon="12.823804998770356">
        <ele>6.87</ele>
        <time>2017-06-22T10:49:04Z</time>
      </trkpt>
      <trkpt lat="65.269487975165248" lon="12.824044972658157">
        <ele>7.35</ele>
        <time>2017-06-22T10:49:05Z</time>
      </trkpt>
      <trkpt lat="65.269674975425005" lon="12.824246976524591">
        <ele>9.27</ele>
        <time>2017-06-22T10:49:06Z</time>
      </trkpt>
      <trkpt lat="65.269864993169904" lon="12.824408998712897">
        <ele>9.75</ele>
        <time>2017-06-22T10:49:07Z</time>
      </trkpt>
      <trkpt lat="65.270062973722816" lon="12.824539002031088">
        <ele>10.23</ele>
        <time>2017-06-22T10:49:08Z</time>
      </trkpt>
      <trkpt lat="65.270460024476051" lon="12.824836978688836">
        <ele>13.119999999999999</ele>
        <time>2017-06-22T10:49:10Z</time>
      </trkpt>
      <trkpt lat="65.270646018907428" lon="12.825055997818708">
        <ele>12.630000000000001</ele>
        <time>2017-06-22T10:49:11Z</time>
      </trkpt>
      <trkpt lat="65.270833019167185" lon="12.825320027768612">
        <ele>13.6</ele>
        <time>2017-06-22T10:49:12Z</time>
      </trkpt>
      <trkpt lat="65.271559981629252" lon="12.826392995193601">
        <ele>16.960000000000001</ele>
        <time>2017-06-22T10:49:16Z</time>
      </trkpt>
      <trkpt lat="65.271746981889009" lon="12.826544959098101">
        <ele>16.48</ele>
        <time>2017-06-22T10:49:17Z</time>
      </trkpt>
      <trkpt lat="65.271944962441921" lon="12.826636992394924">
        <ele>16</ele>
        <time>2017-06-22T10:49:18Z</time>
      </trkpt>
      <trkpt lat="65.272150989621878" lon="12.826658030971885">
        <ele>15.039999999999999</ele>
        <time>2017-06-22T10:49:19Z</time>
      </trkpt>
      <trkpt lat="65.272361040115356" lon="12.826632969081402">
        <ele>13.119999999999999</ele>
        <time>2017-06-22T10:49:20Z</time>
      </trkpt>
      <trkpt lat="65.272573018446565" lon="12.826598016545177">
        <ele>13.119999999999999</ele>
        <time>2017-06-22T10:49:21Z</time>
      </trkpt>
      <trkpt lat="65.272784996777773" lon="12.826594999060035">
        <ele>13.119999999999999</ele>
        <time>2017-06-22T10:49:22Z</time>
      </trkpt>
      <trkpt lat="65.272998986765742" lon="12.826644033193588">
        <ele>14.08</ele>
        <time>2017-06-22T10:49:23Z</time>
      </trkpt>
      <trkpt lat="65.274601019918919" lon="12.827146025374532">
        <ele>6.87</ele>
        <time>2017-06-22T10:49:30Z</time>
      </trkpt>
      <trkpt lat="65.276239011436701" lon="12.828543959185481">
        <ele>0.14</ele>
        <time>2017-06-22T10:49:37Z</time>
      </trkpt>
      <trkpt lat="65.278444038704038" lon="12.831105971708894">
        <ele>6.39</ele>
        <time>2017-06-22T10:49:47Z</time>
      </trkpt>
      <trkpt lat="65.280009023845196" lon="12.832225039601326">
        <ele>0.14</ele>
        <time>2017-06-22T10:49:55Z</time>
      </trkpt>
      <trkpt lat="65.280118994414806" lon="12.832361999899149">
        <ele>-0.34</ele>
        <time>2017-06-22T10:49:56Z</time>
      </trkpt>
      <trkpt lat="65.280204992741346" lon="12.832542965188622">
        <ele>-0.82</ele>
        <time>2017-06-22T10:49:57Z</time>
      </trkpt>
      <trkpt lat="65.280267018824816" lon="12.83277103677392">
        <ele>-0.82</ele>
        <time>2017-06-22T10:49:58Z</time>
      </trkpt>
      <trkpt lat="65.280295014381409" lon="12.833034982904792">
        <ele>-0.82</ele>
        <time>2017-06-22T10:49:59Z</time>
      </trkpt>
      <trkpt lat="65.280295014381409" lon="12.833315022289753">
        <ele>-0.34</ele>
        <time>2017-06-22T10:50:00Z</time>
      </trkpt>
      <trkpt lat="65.280256038531661" lon="12.833606963977218">
        <ele>-0.34</ele>
        <time>2017-06-22T10:50:01Z</time>
      </trkpt>
      <trkpt lat="65.28019099496305" lon="12.833880968391895">
        <ele>1.1</ele>
        <time>2017-06-22T10:50:02Z</time>
      </trkpt>
      <trkpt lat="65.280103990808129" lon="12.834160001948476">
        <ele>1.58</ele>
        <time>2017-06-22T10:50:03Z</time>
      </trkpt>
      <trkpt lat="65.280022015795112" lon="12.834443980827928">
        <ele>2.06</ele>
        <time>2017-06-22T10:50:04Z</time>
      </trkpt>
      <trkpt lat="65.27995596639812" lon="12.834741035476327">
        <ele>2.54</ele>
        <time>2017-06-22T10:50:05Z</time>
      </trkpt>
      <trkpt lat="65.279923025518656" lon="12.835043035447598">
        <ele>3.02</ele>
        <time>2017-06-22T10:50:06Z</time>
      </trkpt>
      <trkpt lat="65.279928976669908" lon="12.835346963256598">
        <ele>3.5</ele>
        <time>2017-06-22T10:50:07Z</time>
      </trkpt>
      <trkpt lat="65.279972981661558" lon="12.835646029561758">
        <ele>3.98</ele>
        <time>2017-06-22T10:50:08Z</time>
      </trkpt>
      <trkpt lat="65.280053028836846" lon="12.835904024541378">
        <ele>3.98</ele>
        <time>2017-06-22T10:50:09Z</time>
      </trkpt>
      <trkpt lat="65.280160987749696" lon="12.836117008700967">
        <ele>4.46</ele>
        <time>2017-06-22T10:50:10Z</time>
      </trkpt>
      <trkpt lat="65.280291996896267" lon="12.836298979818821">
        <ele>4.46</ele>
        <time>2017-06-22T10:50:11Z</time>
      </trkpt>
      <trkpt lat="65.280437003821135" lon="12.836463013663888">
        <ele>4.46</ele>
        <time>2017-06-22T10:50:12Z</time>
      </trkpt>
      <trkpt lat="65.28130997903645" lon="12.837502034381032">
        <ele>0.14</ele>
        <time>2017-06-22T10:50:18Z</time>
      </trkpt>
      <trkpt lat="65.281413998454809" lon="12.837638994678855">
        <ele>-0.82</ele>
        <time>2017-06-22T10:50:22Z</time>
      </trkpt>
      <trkpt lat="65.281440988183022" lon="12.837659027427435">
        <ele>-0.82</ele>
        <time>2017-06-22T10:51:01Z</time>
      </trkpt>
      <trkpt lat="65.281921019777656" lon="12.838268978521228">
        <ele>-1.3</ele>
        <time>2017-06-22T10:51:07Z</time>
      </trkpt>
      <trkpt lat="65.282110031694174" lon="12.838642979040742">
        <ele>-1.3</ele>
        <time>2017-06-22T10:51:09Z</time>
      </trkpt>
      <trkpt lat="65.282197035849094" lon="12.838883036747575">
        <ele>-1.3</ele>
        <time>2017-06-22T10:51:10Z</time>
      </trkpt>
      <trkpt lat="65.282278005033731" lon="12.839163998141885">
        <ele>-0.82</ele>
        <time>2017-06-22T10:51:11Z</time>
      </trkpt>
      <trkpt lat="65.282348999753594" lon="12.839484019204974">
        <ele>-0.82</ele>
        <time>2017-06-22T10:51:12Z</time>
      </trkpt>
      <trkpt lat="65.282414965331554" lon="12.839833041653037">
        <ele>-0.82</ele>
        <time>2017-06-22T10:51:13Z</time>
      </trkpt>
      <trkpt lat="65.283101024106145" lon="12.842949014157057">
        <ele>0.14</ele>
        <time>2017-06-22T10:51:21Z</time>
      </trkpt>
      <trkpt lat="65.284092016518116" lon="12.844917001202703">
        <ele>-1.79</ele>
        <time>2017-06-22T10:51:27Z</time>
      </trkpt>
      <trkpt lat="65.285386014729738" lon="12.846970986574888">
        <ele>-2.75</ele>
        <time>2017-06-22T10:51:34Z</time>
      </trkpt>
      <trkpt lat="65.285499002784491" lon="12.847306011244655">
        <ele>-2.75</ele>
        <time>2017-06-22T10:51:35Z</time>
      </trkpt>
      <trkpt lat="65.285581983625889" lon="12.847671965137124">
        <ele>-2.27</ele>
        <time>2017-06-22T10:51:36Z</time>
      </trkpt>
      <trkpt lat="65.285734031349421" lon="12.848405968397856">
        <ele>-0.34</ele>
        <time>2017-06-22T10:51:38Z</time>
      </trkpt>
      <trkpt lat="65.285833021625876" lon="12.848739987239242">
        <ele>0.14</ele>
        <time>2017-06-22T10:51:39Z</time>
      </trkpt>
      <trkpt lat="65.285951038822532" lon="12.849050033837557">
        <ele>0.62</ele>
        <time>2017-06-22T10:51:40Z</time>
      </trkpt>
      <trkpt lat="65.28706599958241" lon="12.851462010294199">
        <ele>-0.34</ele>
        <time>2017-06-22T10:51:48Z</time>
      </trkpt>
      <trkpt lat="65.287163984030485" lon="12.85178697668016">
        <ele>-0.34</ele>
        <time>2017-06-22T10:51:49Z</time>
      </trkpt>
      <trkpt lat="65.287231961265206" lon="12.852129964157939">
        <ele>-0.34</ele>
        <time>2017-06-22T10:51:50Z</time>
      </trkpt>
      <trkpt lat="65.287264985963702" lon="12.852486027404666">
        <ele>-0.34</ele>
        <time>2017-06-22T10:51:51Z</time>
      </trkpt>
      <trkpt lat="65.287286024540663" lon="12.852821974083781">
        <ele>0.14</ele>
        <time>2017-06-22T10:51:52Z</time>
      </trkpt>
      <trkpt lat="65.287317037582397" lon="12.853133026510477">
        <ele>0.62</ele>
        <time>2017-06-22T10:51:53Z</time>
      </trkpt>
      <trkpt lat="65.287379985675216" lon="12.853400995954871">
        <ele>1.1</ele>
        <time>2017-06-22T10:51:54Z</time>
      </trkpt>
      <trkpt lat="65.287471013143659" lon="12.853644993156195">
        <ele>1.1</ele>
        <time>2017-06-22T10:51:55Z</time>
      </trkpt>
      <trkpt lat="65.287586012855172" lon="12.853878010064363">
        <ele>1.1</ele>
        <time>2017-06-22T10:51:56Z</time>
      </trkpt>
      <trkpt lat="65.287717022001743" lon="12.854105997830629">
        <ele>1.1</ele>
        <time>2017-06-22T10:51:57Z</time>
      </trkpt>
      <trkpt lat="65.288166040554643" lon="12.854768000543118">
        <ele>0.62</ele>
        <time>2017-06-22T10:52:00Z</time>
      </trkpt>
      <trkpt lat="65.288342982530594" lon="12.854896998032928">
        <ele>0.62</ele>
        <time>2017-06-22T10:52:01Z</time>
      </trkpt>
      <trkpt lat="65.288899037986994" lon="12.855215007439256">
        <ele>-0.34</ele>
        <time>2017-06-22T10:52:04Z</time>
      </trkpt>
      <trkpt lat="65.289090983569622" lon="12.855391027405858">
        <ele>-0.34</ele>
        <time>2017-06-22T10:52:05Z</time>
      </trkpt>
      <trkpt lat="65.290924021974206" lon="12.857643999159336">
        <ele>-1.79</ele>
        <time>2017-06-22T10:52:15Z</time>
      </trkpt>
      <trkpt lat="65.291044972836971" lon="12.85790903493762">
        <ele>-2.27</ele>
        <time>2017-06-22T10:52:16Z</time>
      </trkpt>
      <trkpt lat="65.291144968941808" lon="12.858212040737271">
        <ele>-2.27</ele>
        <time>2017-06-22T10:52:17Z</time>
      </trkpt>
      <trkpt lat="65.291219986975193" lon="12.858551004901528">
        <ele>-2.27</ele>
        <time>2017-06-22T10:52:18Z</time>
      </trkpt>
      <trkpt lat="65.291285030543804" lon="12.858902961015701">
        <ele>-2.27</ele>
        <time>2017-06-22T10:52:19Z</time>
      </trkpt>
      <trkpt lat="65.291370023041964" lon="12.859248965978622">
        <ele>-1.79</ele>
        <time>2017-06-22T10:52:20Z</time>
      </trkpt>
      <trkpt lat="65.291485022753477" lon="12.859569992870092">
        <ele>-1.3</ele>
        <time>2017-06-22T10:52:21Z</time>
      </trkpt>
      <trkpt lat="65.291635980829597" lon="12.859840979799628">
        <ele>-1.3</ele>
        <time>2017-06-22T10:52:22Z</time>
      </trkpt>
      <trkpt lat="65.29181401245296" lon="12.860070979222655">
        <ele>-1.3</ele>
        <time>2017-06-22T10:52:23Z</time>
      </trkpt>
      <trkpt lat="65.292011993005872" lon="12.860277006402612">
        <ele>-1.3</ele>
        <time>2017-06-22T10:52:24Z</time>
      </trkpt>
      <trkpt lat="65.292220031842589" lon="12.860486973077059">
        <ele>-0.82</ele>
        <time>2017-06-22T10:52:25Z</time>
      </trkpt>
      <trkpt lat="65.293884007260203" lon="12.862081965431571">
        <ele>-1.3</ele>
        <time>2017-06-22T10:52:33Z</time>
      </trkpt>
      <trkpt lat="65.294046029448509" lon="12.862337026745081">
        <ele>-1.3</ele>
        <time>2017-06-22T10:52:34Z</time>
      </trkpt>
      <trkpt lat="65.294186007231474" lon="12.862614970654249">
        <ele>-1.3</ele>
        <time>2017-06-22T10:52:35Z</time>
      </trkpt>
      <trkpt lat="65.294308969751" lon="12.862904984503984">
        <ele>-0.82</ele>
        <time>2017-06-22T10:52:36Z</time>
      </trkpt>
      <trkpt lat="65.294423969462514" lon="12.863201033324003">
        <ele>-0.82</ele>
        <time>2017-06-22T10:52:37Z</time>
      </trkpt>
      <trkpt lat="65.295136012136936" lon="12.865102970972657">
        <ele>0.14</ele>
        <time>2017-06-22T10:52:43Z</time>
      </trkpt>
      <trkpt lat="65.295279007405043" lon="12.865332970395684">
        <ele>0.62</ele>
        <time>2017-06-22T10:52:44Z</time>
      </trkpt>
      <trkpt lat="65.295433988794684" lon="12.865498010069132">
        <ele>1.1</ele>
        <time>2017-06-22T10:52:45Z</time>
      </trkpt>
      <trkpt lat="65.295601962134242" lon="12.865614015609026">
        <ele>1.1</ele>
        <time>2017-06-22T10:52:46Z</time>
      </trkpt>
      <trkpt lat="65.295774964615703" lon="12.865700013935566">
        <ele>1.1</ele>
        <time>2017-06-22T10:52:47Z</time>
      </trkpt>
      <trkpt lat="65.296127004548907" lon="12.865780983120203">
        <ele>0.62</ele>
        <time>2017-06-22T10:52:49Z</time>
      </trkpt>
      <trkpt lat="65.296301012858748" lon="12.865764973685145">
        <ele>0.14</ele>
        <time>2017-06-22T10:52:50Z</time>
      </trkpt>
      <trkpt lat="65.296470997855067" lon="12.86570998840034">
        <ele>-0.34</ele>
        <time>2017-06-22T10:52:51Z</time>
      </trkpt>
      <trkpt lat="65.296772997826338" lon="12.865617033094168">
        <ele>-0.34</ele>
        <time>2017-06-22T10:52:53Z</time>
      </trkpt>
      <trkpt lat="65.296908030286431" lon="12.865642011165619">
        <ele>-0.34</ele>
        <time>2017-06-22T10:52:54Z</time>
      </trkpt>
      <trkpt lat="65.297037027776241" lon="12.865753993391991">
        <ele>0.14</ele>
        <time>2017-06-22T10:52:55Z</time>
      </trkpt>
      <trkpt lat="65.29716401360929" lon="12.865934958681464">
        <ele>1.1</ele>
        <time>2017-06-22T10:52:56Z</time>
      </trkpt>
      <trkpt lat="65.297289993613958" lon="12.866159006953239">
        <ele>1.58</ele>
        <time>2017-06-22T10:52:57Z</time>
      </trkpt>
      <trkpt lat="65.297413039952517" lon="12.866407027468085">
        <ele>2.54</ele>
        <time>2017-06-22T10:52:58Z</time>
      </trkpt>
      <trkpt lat="65.298516014590859" lon="12.869183029979467">
        <ele>8.310000000000001</ele>
        <time>2017-06-22T10:53:07Z</time>
      </trkpt>
      <trkpt lat="65.298941982910037" lon="12.869956009089947">
        <ele>7.83</ele>
        <time>2017-06-22T10:53:10Z</time>
      </trkpt>
      <trkpt lat="65.299118002876639" lon="12.870166981592774">
        <ele>7.35</ele>
        <time>2017-06-22T10:53:11Z</time>
      </trkpt>
      <trkpt lat="65.299326963722706" lon="12.870358005166054">
        <ele>6.39</ele>
        <time>2017-06-22T10:53:12Z</time>
      </trkpt>
      <trkpt lat="65.300974007695913" lon="12.872079983353615">
        <ele>-0.34</ele>
        <time>2017-06-22T10:53:19Z</time>
      </trkpt>
      <trkpt lat="65.302886003628373" lon="12.874675020575523">
        <ele>13.6</ele>
        <time>2017-06-22T10:53:28Z</time>
      </trkpt>
      <trkpt lat="65.303081972524524" lon="12.874824972823262">
        <ele>15.039999999999999</ele>
        <time>2017-06-22T10:53:29Z</time>
      </trkpt>
      <trkpt lat="65.303281964734197" lon="12.874911976978183">
        <ele>16</ele>
        <time>2017-06-22T10:53:30Z</time>
      </trkpt>
      <trkpt lat="65.303901974111795" lon="12.875192016363144">
        <ele>20.809999999999999</ele>
        <time>2017-06-22T10:53:33Z</time>
      </trkpt>
      <trkpt lat="65.30410498380661" lon="12.875368036329746">
        <ele>22.73</ele>
        <time>2017-06-22T10:53:34Z</time>
      </trkpt>
      <trkpt lat="65.304299024865031" lon="12.875601975247264">
        <ele>24.649999999999999</ele>
        <time>2017-06-22T10:53:35Z</time>
      </trkpt>
      <trkpt lat="65.304480995982885" lon="12.875887965783477">
        <ele>26.57</ele>
        <time>2017-06-22T10:53:36Z</time>
      </trkpt>
      <trkpt lat="65.304659027606249" lon="12.876201029866934">
        <ele>28.5</ele>
        <time>2017-06-22T10:53:37Z</time>
      </trkpt>
      <trkpt lat="65.324869975447655" lon="12.916277004405856">
        <ele>14.56</ele>
        <time>2017-06-22T10:55:29Z</time>
      </trkpt>
      <trkpt lat="65.325673967599869" lon="12.919171024113894">
        <ele>11.19</ele>
        <time>2017-06-22T10:55:36Z</time>
      </trkpt>
      <trkpt lat="65.326631013303995" lon="12.921393988654017">
        <ele>11.67</ele>
        <time>2017-06-22T10:55:42Z</time>
      </trkpt>
      <trkpt lat="65.328755993396044" lon="12.925380002707243">
        <ele>31.859999999999999</ele>
        <time>2017-06-22T10:55:54Z</time>
      </trkpt>
      <trkpt lat="65.330011015757918" lon="12.927454020828009">
        <ele>42.439999999999998</ele>
        <time>2017-06-22T10:56:01Z</time>
      </trkpt>
      <trkpt lat="65.330140013247728" lon="12.927799019962549">
        <ele>42.439999999999998</ele>
        <time>2017-06-22T10:56:02Z</time>
      </trkpt>
      <trkpt lat="65.330255012959242" lon="12.928185006603599">
        <ele>42.920000000000002</ele>
        <time>2017-06-22T10:56:03Z</time>
      </trkpt>
      <trkpt lat="65.330359032377601" lon="12.928595971316099">
        <ele>43.399999999999999</ele>
        <time>2017-06-22T10:56:04Z</time>
      </trkpt>
      <trkpt lat="65.330449976027012" lon="12.929033003747463">
        <ele>42.439999999999998</ele>
        <time>2017-06-22T10:56:05Z</time>
      </trkpt>
      <trkpt lat="65.330534968525171" lon="12.929504988715053">
        <ele>40.990000000000002</ele>
        <time>2017-06-22T10:56:06Z</time>
      </trkpt>
      <trkpt lat="65.331543982028961" lon="12.934213019907475">
        <ele>24.170000000000002</ele>
        <time>2017-06-22T10:56:16Z</time>
      </trkpt>
      <trkpt lat="65.332216965034604" lon="12.937167976051569">
        <ele>17.920000000000002</ele>
        <time>2017-06-22T10:56:23Z</time>
      </trkpt>
      <trkpt lat="65.332531034946442" lon="12.940480001270771">
        <ele>7.83</ele>
        <time>2017-06-22T10:56:30Z</time>
      </trkpt>
      <trkpt lat="65.33261502161622" lon="12.940926002338529">
        <ele>5.91</ele>
        <time>2017-06-22T10:56:31Z</time>
      </trkpt>
      <trkpt lat="65.332715017721057" lon="12.941364962607622">
        <ele>3.98</ele>
        <time>2017-06-22T10:56:32Z</time>
      </trkpt>
      <trkpt lat="65.332825994119048" lon="12.941793026402593">
        <ele>2.54</ele>
        <time>2017-06-22T10:56:33Z</time>
      </trkpt>
      <trkpt lat="65.332947028800845" lon="12.942202985286713">
        <ele>1.1</ele>
        <time>2017-06-22T10:56:34Z</time>
      </trkpt>
      <trkpt lat="65.33325900323689" lon="12.943381983786821">
        <ele>-1.79</ele>
        <time>2017-06-22T10:56:37Z</time>
      </trkpt>
      <trkpt lat="65.333323962986469" lon="12.943776017054915">
        <ele>-2.75</ele>
        <time>2017-06-22T10:56:38Z</time>
      </trkpt>
      <trkpt lat="65.333364028483629" lon="12.944154962897301">
        <ele>-3.23</ele>
        <time>2017-06-22T10:56:39Z</time>
      </trkpt>
      <trkpt lat="65.333380959928036" lon="12.944522006437182">
        <ele>-3.71</ele>
        <time>2017-06-22T10:56:40Z</time>
      </trkpt>
      <trkpt lat="65.333382971584797" lon="12.944872034713626">
        <ele>-3.71</ele>
        <time>2017-06-22T10:56:41Z</time>
      </trkpt>
      <trkpt lat="65.33336604014039" lon="12.945207981392741">
        <ele>-4.19</ele>
        <time>2017-06-22T10:56:42Z</time>
      </trkpt>
      <trkpt lat="65.333327986299992" lon="12.945524984970689">
        <ele>-4.19</ele>
        <time>2017-06-22T10:56:43Z</time>
      </trkpt>
      <trkpt lat="65.333280963823199" lon="12.945836959406734">
        <ele>-4.19</ele>
        <time>2017-06-22T10:56:44Z</time>
      </trkpt>
      <trkpt lat="65.333219021558762" lon="12.946130996569991">
        <ele>-3.71</ele>
        <time>2017-06-22T10:56:45Z</time>
      </trkpt>
      <trkpt lat="65.333145009353757" lon="12.946413969621062">
        <ele>-3.71</ele>
        <time>2017-06-22T10:56:46Z</time>
      </trkpt>
      <trkpt lat="65.333055993542075" lon="12.946680011227727">
        <ele>-3.71</ele>
        <time>2017-06-22T10:56:47Z</time>
      </trkpt>
      <trkpt lat="65.332968989387155" lon="12.946947980672121">
        <ele>-3.23</ele>
        <time>2017-06-22T10:56:48Z</time>
      </trkpt>
      <trkpt lat="65.332041028887033" lon="12.950120028108358">
        <ele>-3.71</ele>
        <time>2017-06-22T10:56:59Z</time>
      </trkpt>
      <trkpt lat="65.331712961196899" lon="12.952606016770005">
        <ele>-3.23</ele>
        <time>2017-06-22T10:57:05Z</time>
      </trkpt>
      <trkpt lat="65.331616988405585" lon="12.952980017289519">
        <ele>-2.75</ele>
        <time>2017-06-22T10:57:06Z</time>
      </trkpt>
      <trkpt lat="65.331511041149497" lon="12.95332501642406">
        <ele>-2.75</ele>
        <time>2017-06-22T10:57:07Z</time>
      </trkpt>
      <trkpt lat="65.331384977325797" lon="12.953629028052092">
        <ele>-2.75</ele>
        <time>2017-06-22T10:57:08Z</time>
      </trkpt>
      <trkpt lat="65.331252962350845" lon="12.953886017203331">
        <ele>-1.79</ele>
        <time>2017-06-22T10:57:09Z</time>
      </trkpt>
      <trkpt lat="65.331110972911119" lon="12.954088021069765">
        <ele>-1.79</ele>
        <time>2017-06-22T10:57:10Z</time>
      </trkpt>
      <trkpt lat="65.330954985693097" lon="12.954232022166252">
        <ele>-2.27</ele>
        <time>2017-06-22T10:57:11Z</time>
      </trkpt>
      <trkpt lat="65.330791035667062" lon="12.954341992735863">
        <ele>-1.79</ele>
        <time>2017-06-22T10:57:12Z</time>
      </trkpt>
      <trkpt lat="65.330630019307137" lon="12.954424973577261">
        <ele>-1.79</ele>
        <time>2017-06-22T10:57:13Z</time>
      </trkpt>
      <trkpt lat="65.329287992790341" lon="12.955693993717432">
        <ele>-1.3</ele>
        <time>2017-06-22T10:57:21Z</time>
      </trkpt>
      <trkpt lat="65.328398002311587" lon="12.957773040980101">
        <ele>-1.79</ele>
        <time>2017-06-22T10:57:27Z</time>
      </trkpt>
      <trkpt lat="65.32810103148222" lon="12.958445018157363">
        <ele>-1.3</ele>
        <time>2017-06-22T10:57:29Z</time>
      </trkpt>
      <trkpt lat="65.32793004065752" lon="12.958722962066531">
        <ele>-1.3</ele>
        <time>2017-06-22T10:57:30Z</time>
      </trkpt>
      <trkpt lat="65.327745974063873" lon="12.958944998681545">
        <ele>-0.82</ele>
        <time>2017-06-22T10:57:31Z</time>
      </trkpt>
      <trkpt lat="65.327548999339342" lon="12.959120012819767">
        <ele>-0.82</ele>
        <time>2017-06-22T10:57:32Z</time>
      </trkpt>
      <trkpt lat="65.327361999079585" lon="12.959272982552648">
        <ele>-0.82</ele>
        <time>2017-06-22T10:57:33Z</time>
      </trkpt>
      <trkpt lat="65.327027980238199" lon="12.959612030535936">
        <ele>-1.3</ele>
        <time>2017-06-22T10:57:35Z</time>
      </trkpt>
      <trkpt lat="65.326886996626854" lon="12.959842029958963">
        <ele>-1.3</ele>
        <time>2017-06-22T10:57:36Z</time>
      </trkpt>
      <trkpt lat="65.326766967773438" lon="12.960135983303189">
        <ele>-1.79</ele>
        <time>2017-06-22T10:57:37Z</time>
      </trkpt>
      <trkpt lat="65.326672000810504" lon="12.96048098243773">
        <ele>-1.79</ele>
        <time>2017-06-22T10:57:38Z</time>
      </trkpt>
      <trkpt lat="65.326592037454247" lon="12.960880966857076">
        <ele>-1.3</ele>
        <time>2017-06-22T10:57:39Z</time>
      </trkpt>
      <trkpt lat="65.32653596252203" lon="12.961339959874749">
        <ele>-1.79</ele>
        <time>2017-06-22T10:57:40Z</time>
      </trkpt>
      <trkpt lat="65.326496986672282" lon="12.961829965934157">
        <ele>-1.79</ele>
        <time>2017-06-22T10:57:41Z</time>
      </trkpt>
      <trkpt lat="65.32646999694407" lon="12.962341010570526">
        <ele>-1.79</ele>
        <time>2017-06-22T10:57:42Z</time>
      </trkpt>
      <trkpt lat="65.326081998646259" lon="12.969499994069338">
        <ele>2.54</ele>
        <time>2017-06-22T10:57:56Z</time>
      </trkpt>
      <trkpt lat="65.326002035290003" lon="12.969939038157463">
        <ele>3.02</ele>
        <time>2017-06-22T10:57:57Z</time>
      </trkpt>
      <trkpt lat="65.325902961194515" lon="12.970370035618544">
        <ele>3.5</ele>
        <time>2017-06-22T10:57:58Z</time>
      </trkpt>
      <trkpt lat="65.325183039531112" lon="12.974152034148574">
        <ele>6.87</ele>
        <time>2017-06-22T10:58:06Z</time>
      </trkpt>
      <trkpt lat="65.324935019016266" lon="12.976703988388181">
        <ele>10.23</ele>
        <time>2017-06-22T10:58:11Z</time>
      </trkpt>
      <trkpt lat="65.324838040396571" lon="12.977157030254602">
        <ele>11.67</ele>
        <time>2017-06-22T10:58:12Z</time>
      </trkpt>
      <trkpt lat="65.324710970744491" lon="12.977586016058922">
        <ele>12.15</ele>
        <time>2017-06-22T10:58:13Z</time>
      </trkpt>
      <trkpt lat="65.324565963819623" lon="12.977980971336365">
        <ele>13.6</ele>
        <time>2017-06-22T10:58:14Z</time>
      </trkpt>
      <trkpt lat="65.324407964944839" lon="12.978348014876246">
        <ele>14.56</ele>
        <time>2017-06-22T10:58:15Z</time>
      </trkpt>
      <trkpt lat="65.324238985776901" lon="12.978696031495929">
        <ele>15.52</ele>
        <time>2017-06-22T10:58:16Z</time>
      </trkpt>
      <trkpt lat="65.323758032172918" lon="12.97979598864913">
        <ele>19.359999999999999</ele>
        <time>2017-06-22T10:58:19Z</time>
      </trkpt>
      <trkpt lat="65.323639009147882" lon="12.980228997766972">
        <ele>20.32</ele>
        <time>2017-06-22T10:58:20Z</time>
      </trkpt>
      <trkpt lat="65.323543958365917" lon="12.980705006048083">
        <ele>21.77</ele>
        <time>2017-06-22T10:58:21Z</time>
      </trkpt>
      <trkpt lat="65.323480004444718" lon="12.981201969087124">
        <ele>23.690000000000001</ele>
        <time>2017-06-22T10:58:22Z</time>
      </trkpt>
      <trkpt lat="65.323431976139545" lon="12.98170899040997">
        <ele>25.609999999999999</ele>
        <time>2017-06-22T10:58:23Z</time>
      </trkpt>
      <trkpt lat="65.323410015553236" lon="12.982227997854352">
        <ele>26.57</ele>
        <time>2017-06-22T10:58:24Z</time>
      </trkpt>
      <trkpt lat="65.323411021381617" lon="12.982751028612256">
        <ele>28.5</ele>
        <time>2017-06-22T10:58:25Z</time>
      </trkpt>
      <trkpt lat="65.323428036645055" lon="12.98325696028769">
        <ele>29.940000000000001</ele>
        <time>2017-06-22T10:58:26Z</time>
      </trkpt>
      <trkpt lat="65.323451003059745" lon="12.983744032680988">
        <ele>31.379999999999999</ele>
        <time>2017-06-22T10:58:27Z</time>
      </trkpt>
      <trkpt lat="65.323460977524519" lon="12.984205959364772">
        <ele>32.82</ele>
        <time>2017-06-22T10:58:28Z</time>
      </trkpt>
      <trkpt lat="65.323444968089461" lon="12.984659001231194">
        <ele>34.259999999999998</ele>
        <time>2017-06-22T10:58:29Z</time>
      </trkpt>
      <trkpt lat="65.32339702360332" lon="12.985100978985429">
        <ele>35.710000000000001</ele>
        <time>2017-06-22T10:58:30Z</time>
      </trkpt>
      <trkpt lat="65.323323011398315" lon="12.985523007810116">
        <ele>37.149999999999999</ele>
        <time>2017-06-22T10:58:31Z</time>
      </trkpt>
      <trkpt lat="65.32322402112186" lon="12.985912011936307">
        <ele>38.590000000000003</ele>
        <time>2017-06-22T10:58:32Z</time>
      </trkpt>
      <trkpt lat="65.32309502363205" lon="12.98628400079906">
        <ele>39.549999999999997</ele>
        <time>2017-06-22T10:58:33Z</time>
      </trkpt>
      <trkpt lat="65.322951022535563" lon="12.986639980226755">
        <ele>40.990000000000002</ele>
        <time>2017-06-22T10:58:34Z</time>
      </trkpt>
      <trkpt lat="65.32279696315527" lon="12.986976010724902">
        <ele>41.469999999999999</ele>
        <time>2017-06-22T10:58:35Z</time>
      </trkpt>
      <trkpt lat="65.321752997115254" lon="12.989532994106412">
        <ele>50.130000000000003</ele>
        <time>2017-06-22T10:58:42Z</time>
      </trkpt>
      <trkpt lat="65.321645038202405" lon="12.989972038194537">
        <ele>52.049999999999997</ele>
        <time>2017-06-22T10:58:43Z</time>
      </trkpt>
      <trkpt lat="65.321569014340639" lon="12.990436982363462">
        <ele>53.969999999999999</ele>
        <time>2017-06-22T10:58:44Z</time>
      </trkpt>
      <trkpt lat="65.321524003520608" lon="12.990919025614858">
        <ele>55.409999999999997</ele>
        <time>2017-06-22T10:58:45Z</time>
      </trkpt>
      <trkpt lat="65.321501037105918" lon="12.991415988653898">
        <ele>56.859999999999999</ele>
        <time>2017-06-22T10:58:46Z</time>
      </trkpt>
      <trkpt lat="65.321490978822112" lon="12.991926027461886">
        <ele>58.780000000000001</ele>
        <time>2017-06-22T10:58:47Z</time>
      </trkpt>
      <trkpt lat="65.321310013532639" lon="12.997890003025532">
        <ele>79.930000000000007</ele>
        <time>2017-06-22T10:58:59Z</time>
      </trkpt>
      <trkpt lat="65.32120699994266" lon="12.998679997399449">
        <ele>82.329999999999998</ele>
        <time>2017-06-22T10:59:01Z</time>
      </trkpt>
      <trkpt lat="65.321126030758023" lon="12.999021979048848">
        <ele>82.810000000000002</ele>
        <time>2017-06-22T10:59:02Z</time>
      </trkpt>
      <trkpt lat="65.321023017168045" lon="12.999312998726964">
        <ele>83.769999999999996</ele>
        <time>2017-06-22T10:59:03Z</time>
      </trkpt>
      <trkpt lat="65.320897037163377" lon="12.999563030898571">
        <ele>84.25</ele>
        <time>2017-06-22T10:59:04Z</time>
      </trkpt>
      <trkpt lat="65.320748006924987" lon="12.999765034765005">
        <ele>85.209999999999994</ele>
        <time>2017-06-22T10:59:05Z</time>
      </trkpt>
      <trkpt lat="65.320567963644862" lon="12.999912975355983">
        <ele>85.689999999999998</ele>
        <time>2017-06-22T10:59:06Z</time>
      </trkpt>
      <trkpt lat="65.320379035547376" lon="13.000023029744625">
        <ele>86.659999999999997</ele>
        <time>2017-06-22T10:59:07Z</time>
      </trkpt>
      <trkpt lat="65.320180971175432" lon="13.000112967565656">
        <ele>87.620000000000005</ele>
        <time>2017-06-22T10:59:08Z</time>
      </trkpt>
      <trkpt lat="65.319117978215218" lon="13.000697018578649">
        <ele>90.5</ele>
        <time>2017-06-22T10:59:13Z</time>
      </trkpt>
      <trkpt lat="65.318917986005545" lon="13.00091796554625">
        <ele>90.5</ele>
        <time>2017-06-22T10:59:14Z</time>
      </trkpt>
      <trkpt lat="65.318352039903402" lon="13.001619027927518">
        <ele>90.019999999999996</ele>
        <time>2017-06-22T10:59:17Z</time>
      </trkpt>
      <trkpt lat="65.318146012723446" lon="13.001779960468411">
        <ele>90.019999999999996</ele>
        <time>2017-06-22T10:59:18Z</time>
      </trkpt>
      <trkpt lat="65.317934034392238" lon="13.001902000978589">
        <ele>90.019999999999996</ele>
        <time>2017-06-22T10:59:19Z</time>
      </trkpt>
      <trkpt lat="65.316305011510849" lon="13.002799032256007">
        <ele>92.900000000000006</ele>
        <time>2017-06-22T10:59:27Z</time>
      </trkpt>
      <trkpt lat="65.31613796018064" lon="13.00302098505199">
        <ele>92.900000000000006</ele>
        <time>2017-06-22T10:59:28Z</time>
      </trkpt>
      <trkpt lat="65.315991025418043" lon="13.003292977809906">
        <ele>93.390000000000001</ele>
        <time>2017-06-22T10:59:29Z</time>
      </trkpt>
      <trkpt lat="65.315862027928233" lon="13.003603024408221">
        <ele>93.870000000000005</ele>
        <time>2017-06-22T10:59:30Z</time>
      </trkpt>
      <trkpt lat="65.315763959661126" lon="13.003951041027904">
        <ele>94.829999999999998</ele>
        <time>2017-06-22T10:59:31Z</time>
      </trkpt>
      <trkpt lat="65.315693970769644" lon="13.004339039325714">
        <ele>96.269999999999996</ele>
        <time>2017-06-22T10:59:32Z</time>
      </trkpt>
      <trkpt lat="65.315660024061799" lon="13.004756039008498">
        <ele>97.230000000000004</ele>
        <time>2017-06-22T10:59:33Z</time>
      </trkpt>
      <trkpt lat="65.31566203571856" lon="13.005175972357392">
        <ele>98.189999999999998</ele>
        <time>2017-06-22T10:59:34Z</time>
      </trkpt>
      <trkpt lat="65.315702017396688" lon="13.005594983696938">
        <ele>99.150000000000006</ele>
        <time>2017-06-22T10:59:35Z</time>
      </trkpt>
      <trkpt lat="65.315774017944932" lon="13.005991028621793">
        <ele>100.11</ele>
        <time>2017-06-22T10:59:36Z</time>
      </trkpt>
      <trkpt lat="65.31587602570653" lon="13.00635295920074">
        <ele>101.08</ele>
        <time>2017-06-22T10:59:37Z</time>
      </trkpt>
      <trkpt lat="65.315999994054437" lon="13.006681026890874">
        <ele>102.52</ele>
        <time>2017-06-22T10:59:38Z</time>
      </trkpt>
      <trkpt lat="65.316139971837401" lon="13.006988978013396">
        <ele>103.95999999999999</ele>
        <time>2017-06-22T10:59:39Z</time>
      </trkpt>
      <trkpt lat="65.316271986812353" lon="13.007298018783331">
        <ele>104.92</ele>
        <time>2017-06-22T10:59:40Z</time>
      </trkpt>
      <trkpt lat="65.316377012059093" lon="13.007629020139575">
        <ele>105.88</ele>
        <time>2017-06-22T10:59:41Z</time>
      </trkpt>
      <trkpt lat="65.316447000950575" lon="13.007966978475451">
        <ele>106.36</ele>
        <time>2017-06-22T10:59:42Z</time>
      </trkpt>
      <trkpt lat="65.316482959315181" lon="13.008319018408656">
        <ele>107.31999999999999</ele>
        <time>2017-06-22T10:59:43Z</time>
      </trkpt>
      <trkpt lat="65.316485976800323" lon="13.008667035028338">
        <ele>108.29000000000001</ele>
        <time>2017-06-22T10:59:44Z</time>
      </trkpt>
      <trkpt lat="65.31645898707211" lon="13.009003987535834">
        <ele>109.25</ele>
        <time>2017-06-22T10:59:45Z</time>
      </trkpt>
      <trkpt lat="65.316402995958924" lon="13.009318979457021">
        <ele>109.73</ele>
        <time>2017-06-22T10:59:46Z</time>
      </trkpt>
      <trkpt lat="65.316313980147243" lon="13.009608993306756">
        <ele>109.25</ele>
        <time>2017-06-22T10:59:47Z</time>
      </trkpt>
      <trkpt lat="65.316208032891154" lon="13.009884003549814">
        <ele>110.69</ele>
        <time>2017-06-22T10:59:48Z</time>
      </trkpt>
      <trkpt lat="65.316075012087822" lon="13.010128000751138">
        <ele>112.61</ele>
        <time>2017-06-22T10:59:49Z</time>
      </trkpt>
      <trkpt lat="65.3159190248698" lon="13.010340984910727">
        <ele>114.05</ele>
        <time>2017-06-22T10:59:50Z</time>
      </trkpt>
      <trkpt lat="65.315741999074817" lon="13.010510969907045">
        <ele>115.5</ele>
        <time>2017-06-22T10:59:51Z</time>
      </trkpt>
      <trkpt lat="65.315544018521905" lon="13.010649019852281">
        <ele>117.42</ele>
        <time>2017-06-22T10:59:52Z</time>
      </trkpt>
      <trkpt lat="65.315338997170329" lon="13.010741975158453">
        <ele>118.86</ele>
        <time>2017-06-22T10:59:53Z</time>
      </trkpt>
      <trkpt lat="65.315128024667501" lon="13.0107999779284">
        <ele>120.78</ele>
        <time>2017-06-22T10:59:54Z</time>
      </trkpt>
      <trkpt lat="65.314900036901236" lon="13.010845994576812">
        <ele>122.22</ele>
        <time>2017-06-22T10:59:55Z</time>
      </trkpt>
      <trkpt lat="65.313275037333369" lon="13.011675970628858">
        <ele>127.03</ele>
        <time>2017-06-22T11:00:02Z</time>
      </trkpt>
      <trkpt lat="65.311073027551174" lon="13.012964017689228">
        <ele>127.51000000000001</ele>
        <time>2017-06-22T11:00:11Z</time>
      </trkpt>
      <trkpt lat="65.309642991051078" lon="13.014694964513183">
        <ele>127.98999999999999</ele>
        <time>2017-06-22T11:00:18Z</time>
      </trkpt>
      <trkpt lat="65.30889599584043" lon="13.017071988433599">
        <ele>128.94999999999999</ele>
        <time>2017-06-22T11:00:24Z</time>
      </trkpt>
      <trkpt lat="65.313210999593139" lon="13.139553973451257">
        <ele>336.12</ele>
        <time>2017-06-22T11:04:11Z</time>
      </trkpt>
      <trkpt lat="65.312550002709031" lon="13.143149977549911">
        <ele>366.39999999999998</ele>
        <time>2017-06-22T11:04:19Z</time>
      </trkpt>
      <trkpt lat="65.312504991889" lon="13.14366496168077">
        <ele>367.83999999999997</ele>
        <time>2017-06-22T11:04:20Z</time>
      </trkpt>
      <trkpt lat="65.312490994110703" lon="13.144177012145519">
        <ele>370.73000000000002</ele>
        <time>2017-06-22T11:04:21Z</time>
      </trkpt>
      <trkpt lat="65.31248495914042" lon="13.144689984619617">
        <ele>372.64999999999998</ele>
        <time>2017-06-22T11:04:22Z</time>
      </trkpt>
      <trkpt lat="65.312483031302691" lon="13.145213015377522">
        <ele>375.05000000000001</ele>
        <time>2017-06-22T11:04:23Z</time>
      </trkpt>
      <trkpt lat="65.312216989696026" lon="13.148887977004051">
        <ele>381.77999999999997</ele>
        <time>2017-06-22T11:04:30Z</time>
      </trkpt>
      <trkpt lat="65.311601003631949" lon="13.152831997722387">
        <ele>384.66000000000003</ele>
        <time>2017-06-22T11:04:37Z</time>
      </trkpt>
      <trkpt lat="65.310993986204267" lon="13.158841989934444">
        <ele>385.63</ele>
        <time>2017-06-22T11:04:47Z</time>
      </trkpt>
      <trkpt lat="65.310611017048359" lon="13.161589996889234">
        <ele>385.63</ele>
        <time>2017-06-22T11:04:52Z</time>
      </trkpt>
      <trkpt lat="65.310581009835005" lon="13.162144040688872">
        <ele>385.63</ele>
        <time>2017-06-22T11:04:53Z</time>
      </trkpt>
      <trkpt lat="65.310571035370231" lon="13.162706969305873">
        <ele>385.14999999999998</ele>
        <time>2017-06-22T11:04:54Z</time>
      </trkpt>
      <trkpt lat="65.310572041198611" lon="13.163277022540569">
        <ele>385.14999999999998</ele>
        <time>2017-06-22T11:04:55Z</time>
      </trkpt>
      <trkpt lat="65.310585033148527" lon="13.163844980299473">
        <ele>384.66000000000003</ele>
        <time>2017-06-22T11:04:56Z</time>
      </trkpt>
      <trkpt lat="65.310597019270062" lon="13.166157966479659">
        <ele>383.22000000000003</ele>
        <time>2017-06-22T11:05:00Z</time>
      </trkpt>
      <trkpt lat="65.310557037591934" lon="13.166722990572453">
        <ele>383.22000000000003</ele>
        <time>2017-06-22T11:05:01Z</time>
      </trkpt>
      <trkpt lat="65.310497023165226" lon="13.16727502271533">
        <ele>383.22000000000003</ele>
        <time>2017-06-22T11:05:02Z</time>
      </trkpt>
      <trkpt lat="65.310418987646699" lon="13.167809033766389">
        <ele>382.74000000000001</ele>
        <time>2017-06-22T11:05:03Z</time>
      </trkpt>
      <trkpt lat="65.310322009027004" lon="13.168325023725629">
        <ele>383.22000000000003</ele>
        <time>2017-06-22T11:05:04Z</time>
      </trkpt>
      <trkpt lat="65.310203991830349" lon="13.168806983157992">
        <ele>382.74000000000001</ele>
        <time>2017-06-22T11:05:05Z</time>
      </trkpt>
      <trkpt lat="65.310065019875765" lon="13.169261030852795">
        <ele>382.74000000000001</ele>
        <time>2017-06-22T11:05:06Z</time>
      </trkpt>
      <trkpt lat="65.309914983808994" lon="13.169691022485495">
        <ele>383.22000000000003</ele>
        <time>2017-06-22T11:05:07Z</time>
      </trkpt>
      <trkpt lat="65.309751033782959" lon="13.170085977762938">
        <ele>382.74000000000001</ele>
        <time>2017-06-22T11:05:08Z</time>
      </trkpt>
      <trkpt lat="65.309575013816357" lon="13.170456038787961">
        <ele>383.22000000000003</ele>
        <time>2017-06-22T11:05:09Z</time>
      </trkpt>
      <trkpt lat="65.309382984414697" lon="13.170785028487444">
        <ele>383.22000000000003</ele>
        <time>2017-06-22T11:05:10Z</time>
      </trkpt>
      <trkpt lat="65.309181986376643" lon="13.17110002040863">
        <ele>383.22000000000003</ele>
        <time>2017-06-22T11:05:11Z</time>
      </trkpt>
      <trkpt lat="65.308030983433127" lon="13.173473021015525">
        <ele>381.77999999999997</ele>
        <time>2017-06-22T11:05:18Z</time>
      </trkpt>
      <trkpt lat="65.307813975960016" lon="13.174373991787434">
        <ele>381.77999999999997</ele>
        <time>2017-06-22T11:05:20Z</time>
      </trkpt>
      <trkpt lat="65.307727977633476" lon="13.174880007281899">
        <ele>381.30000000000001</ele>
        <time>2017-06-22T11:05:21Z</time>
      </trkpt>
      <trkpt lat="65.307661006227136" lon="13.175422986969352">
        <ele>381.30000000000001</ele>
        <time>2017-06-22T11:05:22Z</time>
      </trkpt>
      <trkpt lat="65.307609038427472" lon="13.175991028547287">
        <ele>380.81999999999999</ele>
        <time>2017-06-22T11:05:23Z</time>
      </trkpt>
      <trkpt lat="65.307572996243834" lon="13.17657801322639">
        <ele>380.81999999999999</ele>
        <time>2017-06-22T11:05:24Z</time>
      </trkpt>
      <trkpt lat="65.307550029829144" lon="13.177184024825692">
        <ele>380.33999999999997</ele>
        <time>2017-06-22T11:05:25Z</time>
      </trkpt>
      <trkpt lat="65.307201007381082" lon="13.182110991328955">
        <ele>378.89999999999998</ele>
        <time>2017-06-22T11:05:33Z</time>
      </trkpt>
      <trkpt lat="65.30633800663054" lon="13.185832975432277">
        <ele>379.38</ele>
        <time>2017-06-22T11:05:40Z</time>
      </trkpt>
      <trkpt lat="65.305509958416224" lon="13.190168011933565">
        <ele>377.94</ele>
        <time>2017-06-22T11:05:48Z</time>
      </trkpt>
      <trkpt lat="65.30479003675282" lon="13.196510011330247">
        <ele>372.64999999999998</ele>
        <time>2017-06-22T11:05:59Z</time>
      </trkpt>
      <trkpt lat="65.304844016209245" lon="13.199635036289692">
        <ele>360.63</ele>
        <time>2017-06-22T11:06:05Z</time>
      </trkpt>
      <trkpt lat="65.304980976507068" lon="13.200497031211853">
        <ele>356.79000000000002</ele>
        <time>2017-06-22T11:06:07Z</time>
      </trkpt>
      <trkpt lat="65.305073009803891" lon="13.200849993154407">
        <ele>354.86000000000001</ele>
        <time>2017-06-22T11:06:08Z</time>
      </trkpt>
      <trkpt lat="65.305183986201882" lon="13.201132966205478">
        <ele>353.42000000000002</ele>
        <time>2017-06-22T11:06:09Z</time>
      </trkpt>
      <trkpt lat="65.305320024490356" lon="13.201373023912311">
        <ele>351.98000000000002</ele>
        <time>2017-06-22T11:06:10Z</time>
      </trkpt>
      <trkpt lat="65.305470982566476" lon="13.201580978929996">
        <ele>350.54000000000002</ele>
        <time>2017-06-22T11:06:11Z</time>
      </trkpt>
      <trkpt lat="65.305642979219556" lon="13.201747024431825">
        <ele>348.62</ele>
        <time>2017-06-22T11:06:12Z</time>
      </trkpt>
      <trkpt lat="65.305834002792835" lon="13.201880967244506">
        <ele>347.17000000000002</ele>
        <time>2017-06-22T11:06:13Z</time>
      </trkpt>
      <trkpt lat="65.30603701248765" lon="13.201989009976387">
        <ele>345.25</ele>
        <time>2017-06-22T11:06:14Z</time>
      </trkpt>
      <trkpt lat="65.307870972901583" lon="13.20268303155899">
        <ele>328.43000000000001</ele>
        <time>2017-06-22T11:06:22Z</time>
      </trkpt>
      <trkpt lat="65.308512020856142" lon="13.20304999127984">
        <ele>322.66000000000003</ele>
        <time>2017-06-22T11:06:25Z</time>
      </trkpt>
      <trkpt lat="65.308696003630757" lon="13.203260963782668">
        <ele>321.69999999999999</ele>
        <time>2017-06-22T11:06:26Z</time>
      </trkpt>
      <trkpt lat="65.308856014162302" lon="13.203516025096178">
        <ele>320.25999999999999</ele>
        <time>2017-06-22T11:06:27Z</time>
      </trkpt>
      <trkpt lat="65.308995991945267" lon="13.203826993703842">
        <ele>318.81</ele>
        <time>2017-06-22T11:06:28Z</time>
      </trkpt>
      <trkpt lat="65.309113003313541" lon="13.204184984788299">
        <ele>316.88999999999999</ele>
        <time>2017-06-22T11:06:29Z</time>
      </trkpt>
      <trkpt lat="65.309211993589997" lon="13.204583041369915">
        <ele>315.93000000000001</ele>
        <time>2017-06-22T11:06:30Z</time>
      </trkpt>
      <trkpt lat="65.309284999966621" lon="13.205012027174234">
        <ele>314.00999999999999</ele>
        <time>2017-06-22T11:06:31Z</time>
      </trkpt>
      <trkpt lat="65.309336967766285" lon="13.20547403767705">
        <ele>312.56999999999999</ele>
        <time>2017-06-22T11:06:32Z</time>
      </trkpt>
      <trkpt lat="65.309369992464781" lon="13.205973012372851">
        <ele>311.60000000000002</ele>
        <time>2017-06-22T11:06:33Z</time>
      </trkpt>
      <trkpt lat="65.309392036870122" lon="13.206493025645614">
        <ele>310.16000000000003</ele>
        <time>2017-06-22T11:06:34Z</time>
      </trkpt>
      <trkpt lat="65.309478035196662" lon="13.208031021058559">
        <ele>308.72000000000003</ele>
        <time>2017-06-22T11:06:37Z</time>
      </trkpt>
      <trkpt lat="65.309536959975958" lon="13.208507029339671">
        <ele>308.24000000000001</ele>
        <time>2017-06-22T11:06:38Z</time>
      </trkpt>
      <trkpt lat="65.309622036293149" lon="13.208955964073539">
        <ele>307.27999999999997</ele>
        <time>2017-06-22T11:06:39Z</time>
      </trkpt>
      <trkpt lat="65.309725971892476" lon="13.209371035918593">
        <ele>306.80000000000001</ele>
        <time>2017-06-22T11:06:40Z</time>
      </trkpt>
      <trkpt lat="65.309854969382286" lon="13.209742018952966">
        <ele>306.31999999999999</ele>
        <time>2017-06-22T11:06:41Z</time>
      </trkpt>
      <trkpt lat="65.310005005449057" lon="13.210076037794352">
        <ele>305.83999999999997</ele>
        <time>2017-06-22T11:06:42Z</time>
      </trkpt>
      <trkpt lat="65.310170967131853" lon="13.210356999188662">
        <ele>304.88</ele>
        <time>2017-06-22T11:06:43Z</time>
      </trkpt>
      <trkpt lat="65.310352016240358" lon="13.210604013875127">
        <ele>303.91000000000003</ele>
        <time>2017-06-22T11:06:44Z</time>
      </trkpt>
      <trkpt lat="65.31054999679327" lon="13.210833007469773">
        <ele>302.94999999999999</ele>
        <time>2017-06-22T11:06:45Z</time>
      </trkpt>
      <trkpt lat="65.311745004728436" lon="13.212474016472697">
        <ele>292.38</ele>
        <time>2017-06-22T11:06:51Z</time>
      </trkpt>
      <trkpt lat="65.31190300360322" lon="13.212863020598888">
        <ele>290.94</ele>
        <time>2017-06-22T11:06:52Z</time>
      </trkpt>
      <trkpt lat="65.312041975557804" lon="13.213283959776163">
        <ele>289.00999999999999</ele>
        <time>2017-06-22T11:06:53Z</time>
      </trkpt>
      <trkpt lat="65.312165021896362" lon="13.21374798193574">
        <ele>287.56999999999999</ele>
        <time>2017-06-22T11:06:54Z</time>
      </trkpt>
      <trkpt lat="65.312269041314721" lon="13.214226001873612">
        <ele>285.64999999999998</ele>
        <time>2017-06-22T11:06:55Z</time>
      </trkpt>
      <trkpt lat="65.312356967478991" lon="13.214712990447879">
        <ele>283.73000000000002</ele>
        <time>2017-06-22T11:06:56Z</time>
      </trkpt>
      <trkpt lat="65.312619991600513" lon="13.216082006692886">
        <ele>279.39999999999998</ele>
        <time>2017-06-22T11:06:59Z</time>
      </trkpt>
      <trkpt lat="65.312734991312027" lon="13.21647603996098">
        <ele>277.48000000000002</ele>
        <time>2017-06-22T11:07:00Z</time>
      </trkpt>
      <trkpt lat="65.312875974923372" lon="13.216850962489843">
        <ele>276.51999999999998</ele>
        <time>2017-06-22T11:07:01Z</time>
      </trkpt>
      <trkpt lat="65.313039002940059" lon="13.217195039615035">
        <ele>274.58999999999997</ele>
        <time>2017-06-22T11:07:02Z</time>
      </trkpt>
      <trkpt lat="65.313216028735042" lon="13.217531992122531">
        <ele>273.14999999999998</ele>
        <time>2017-06-22T11:07:03Z</time>
      </trkpt>
      <trkpt lat="65.314334006980062" lon="13.22013096883893">
        <ele>270.75</ele>
        <time>2017-06-22T11:07:10Z</time>
      </trkpt>
      <trkpt lat="65.314439032226801" lon="13.220584010705352">
        <ele>270.75</ele>
        <time>2017-06-22T11:07:11Z</time>
      </trkpt>
      <trkpt lat="65.314527964219451" lon="13.221055995672941">
        <ele>270.75</ele>
        <time>2017-06-22T11:07:12Z</time>
      </trkpt>
      <trkpt lat="65.314608011394739" lon="13.221553964540362">
        <ele>271.23000000000002</ele>
        <time>2017-06-22T11:07:13Z</time>
      </trkpt>
      <trkpt lat="65.314661990851164" lon="13.222061991691589">
        <ele>271.23000000000002</ele>
        <time>2017-06-22T11:07:14Z</time>
      </trkpt>
      <trkpt lat="65.314700966700912" lon="13.222570018842816">
        <ele>271.70999999999998</ele>
        <time>2017-06-22T11:07:15Z</time>
      </trkpt>
      <trkpt lat="65.314725022763014" lon="13.22309497743845">
        <ele>272.67000000000002</ele>
        <time>2017-06-22T11:07:16Z</time>
      </trkpt>
      <trkpt lat="65.314729968085885" lon="13.223624965175986">
        <ele>274.11000000000001</ele>
        <time>2017-06-22T11:07:17Z</time>
      </trkpt>
      <trkpt lat="65.31471798196435" lon="13.224153025075793">
        <ele>275.56</ele>
        <time>2017-06-22T11:07:18Z</time>
      </trkpt>
      <trkpt lat="65.314690992236137" lon="13.224673038348556">
        <ele>277</ele>
        <time>2017-06-22T11:07:19Z</time>
      </trkpt>
      <trkpt lat="65.31465302221477" lon="13.225191961973906">
        <ele>277.95999999999998</ele>
        <time>2017-06-22T11:07:20Z</time>
      </trkpt>
      <trkpt lat="65.31413896009326" lon="13.231605961918831">
        <ele>276.04000000000002</ele>
        <time>2017-06-22T11:07:32Z</time>
      </trkpt>
      <trkpt lat="65.314055979251862" lon="13.23308302089572">
        <ele>275.06999999999999</ele>
        <time>2017-06-22T11:07:35Z</time>
      </trkpt>
      <trkpt lat="65.314063020050526" lon="13.233583001419902">
        <ele>274.58999999999997</ele>
        <time>2017-06-22T11:07:36Z</time>
      </trkpt>
      <trkpt lat="65.314086992293596" lon="13.234080970287323">
        <ele>274.58999999999997</ele>
        <time>2017-06-22T11:07:37Z</time>
      </trkpt>
      <trkpt lat="65.31413896009326" lon="13.234559996053576">
        <ele>274.11000000000001</ele>
        <time>2017-06-22T11:07:38Z</time>
      </trkpt>
      <trkpt lat="65.314210960641503" lon="13.235028041526675">
        <ele>273.14999999999998</ele>
        <time>2017-06-22T11:07:39Z</time>
      </trkpt>
      <trkpt lat="65.314306011423469" lon="13.235473036766052">
        <ele>272.67000000000002</ele>
        <time>2017-06-22T11:07:40Z</time>
      </trkpt>
      <trkpt lat="65.314422016963363" lon="13.235887018963695">
        <ele>271.70999999999998</ele>
        <time>2017-06-22T11:07:41Z</time>
      </trkpt>
      <trkpt lat="65.314557971432805" lon="13.236292032524943">
        <ele>271.23000000000002</ele>
        <time>2017-06-22T11:07:42Z</time>
      </trkpt>
      <trkpt lat="65.316362008452415" lon="13.241912014782429">
        <ele>263.06</ele>
        <time>2017-06-22T11:07:55Z</time>
      </trkpt>
      <trkpt lat="65.316451024264097" lon="13.24241098947823">
        <ele>263.06</ele>
        <time>2017-06-22T11:07:56Z</time>
      </trkpt>
      <trkpt lat="65.31652101315558" lon="13.24292597360909">
        <ele>263.54000000000002</ele>
        <time>2017-06-22T11:07:57Z</time>
      </trkpt>
      <trkpt lat="65.316569963470101" lon="13.243450010195374">
        <ele>264.5</ele>
        <time>2017-06-22T11:07:58Z</time>
      </trkpt>
      <trkpt lat="65.316597959026694" lon="13.243982009589672">
        <ele>264.98000000000002</ele>
        <time>2017-06-22T11:07:59Z</time>
      </trkpt>
      <trkpt lat="65.31660701148212" lon="13.244525995105505">
        <ele>265.45999999999998</ele>
        <time>2017-06-22T11:08:00Z</time>
      </trkpt>
      <trkpt lat="65.316606005653739" lon="13.245078027248383">
        <ele>265.94</ele>
        <time>2017-06-22T11:08:01Z</time>
      </trkpt>
      <trkpt lat="65.31675604172051" lon="13.249771976843476">
        <ele>264.01999999999998</ele>
        <time>2017-06-22T11:08:10Z</time>
      </trkpt>
      <trkpt lat="65.316850002855062" lon="13.250244967639446">
        <ele>262.57999999999998</ele>
        <time>2017-06-22T11:08:11Z</time>
      </trkpt>
      <trkpt lat="65.316968020051718" lon="13.250698009505868">
        <ele>261.13999999999999</ele>
        <time>2017-06-22T11:08:12Z</time>
      </trkpt>
      <trkpt lat="65.31710397452116" lon="13.251138981431723">
        <ele>259.20999999999998</ele>
        <time>2017-06-22T11:08:13Z</time>
      </trkpt>
      <trkpt lat="65.317256022244692" lon="13.251570984721184">
        <ele>257.29000000000002</ele>
        <time>2017-06-22T11:08:14Z</time>
      </trkpt>
      <trkpt lat="65.319053018465638" lon="13.256145995110273">
        <ele>244.31</ele>
        <time>2017-06-22T11:08:25Z</time>
      </trkpt>
      <trkpt lat="65.319879977032542" lon="13.258753018453717">
        <ele>240.94999999999999</ele>
        <time>2017-06-22T11:08:31Z</time>
      </trkpt>
      <trkpt lat="65.319976033642888" lon="13.259250987321138">
        <ele>239.99000000000001</ele>
        <time>2017-06-22T11:08:32Z</time>
      </trkpt>
      <trkpt lat="65.320055996999145" lon="13.259764965623617">
        <ele>239.50999999999999</ele>
        <time>2017-06-22T11:08:33Z</time>
      </trkpt>
      <trkpt lat="65.320121962577105" lon="13.260280033573508">
        <ele>238.53999999999999</ele>
        <time>2017-06-22T11:08:34Z</time>
      </trkpt>
      <trkpt lat="65.320167979225516" lon="13.260790994390845">
        <ele>238.06</ele>
        <time>2017-06-22T11:08:35Z</time>
      </trkpt>
      <trkpt lat="65.320203015580773" lon="13.261293992400169">
        <ele>237.58000000000001</ele>
        <time>2017-06-22T11:08:36Z</time>
      </trkpt>
      <trkpt lat="65.320222964510322" lon="13.261799002066255">
        <ele>237.09999999999999</ele>
        <time>2017-06-22T11:08:37Z</time>
      </trkpt>
      <trkpt lat="65.320238973945379" lon="13.262285990640521">
        <ele>236.62</ele>
        <time>2017-06-22T11:08:38Z</time>
      </trkpt>
      <trkpt lat="65.32058103941381" lon="13.26627803966403">
        <ele>234.69999999999999</ele>
        <time>2017-06-22T11:08:46Z</time>
      </trkpt>
      <trkpt lat="65.321425013244152" lon="13.269771030172706">
        <ele>235.66</ele>
        <time>2017-06-22T11:08:54Z</time>
      </trkpt>
      <trkpt lat="65.32210897654295" lon="13.271652013063431">
        <ele>233.74000000000001</ele>
        <time>2017-06-22T11:08:59Z</time>
      </trkpt>
      <trkpt lat="65.32221500761807" lon="13.272065995261073">
        <ele>232.78</ele>
        <time>2017-06-22T11:09:00Z</time>
      </trkpt>
      <trkpt lat="65.322297988459468" lon="13.272499004378915">
        <ele>231.33000000000001</ele>
        <time>2017-06-22T11:09:01Z</time>
      </trkpt>
      <trkpt lat="65.322356997057796" lon="13.272962020710111">
        <ele>230.37</ele>
        <time>2017-06-22T11:09:02Z</time>
      </trkpt>
      <trkpt lat="65.322391027584672" lon="13.273443980142474">
        <ele>228.93000000000001</ele>
        <time>2017-06-22T11:09:03Z</time>
      </trkpt>
      <trkpt lat="65.322399996221066" lon="13.273943038657308">
        <ele>227.49000000000001</ele>
        <time>2017-06-22T11:09:04Z</time>
      </trkpt>
      <trkpt lat="65.322389015927911" lon="13.274446958675981">
        <ele>226.05000000000001</ele>
        <time>2017-06-22T11:09:05Z</time>
      </trkpt>
      <trkpt lat="65.322370994836092" lon="13.274964038282633">
        <ele>225.09</ele>
        <time>2017-06-22T11:09:06Z</time>
      </trkpt>
      <trkpt lat="65.322376023977995" lon="13.275956036522985">
        <ele>222.68000000000001</ele>
        <time>2017-06-22T11:09:08Z</time>
      </trkpt>
      <trkpt lat="65.322414999827743" lon="13.276431960985065">
        <ele>222.19999999999999</ele>
        <time>2017-06-22T11:09:09Z</time>
      </trkpt>
      <trkpt lat="65.322478031739593" lon="13.276903023943305">
        <ele>221.72</ele>
        <time>2017-06-22T11:09:10Z</time>
      </trkpt>
      <trkpt lat="65.322565035894513" lon="13.277340978384018">
        <ele>221.24000000000001</ele>
        <time>2017-06-22T11:09:11Z</time>
      </trkpt>
      <trkpt lat="65.322680035606027" lon="13.277754038572311">
        <ele>220.75999999999999</ele>
        <time>2017-06-22T11:09:12Z</time>
      </trkpt>
      <trkpt lat="65.322822025045753" lon="13.278142958879471">
        <ele>220.75999999999999</ele>
        <time>2017-06-22T11:09:13Z</time>
      </trkpt>
      <trkpt lat="65.322980023920536" lon="13.278493992984295">
        <ele>221.24000000000001</ele>
        <time>2017-06-22T11:09:14Z</time>
      </trkpt>
      <trkpt lat="65.323147997260094" lon="13.278808984905481">
        <ele>222.19999999999999</ele>
        <time>2017-06-22T11:09:15Z</time>
      </trkpt>
      <trkpt lat="65.323325023055077" lon="13.279103022068739">
        <ele>222.68000000000001</ele>
        <time>2017-06-22T11:09:16Z</time>
      </trkpt>
      <trkpt lat="65.324593037366867" lon="13.28185798600316">
        <ele>231.81</ele>
        <time>2017-06-22T11:09:24Z</time>
      </trkpt>
      <trkpt lat="65.325549999251962" lon="13.284593001008034">
        <ele>242.38999999999999</ele>
        <time>2017-06-22T11:09:31Z</time>
      </trkpt>
      <trkpt lat="65.325716966763139" lon="13.284881003201008">
        <ele>243.83000000000001</ele>
        <time>2017-06-22T11:09:32Z</time>
      </trkpt>
      <trkpt lat="65.327019011601806" lon="13.287303037941456">
        <ele>253.44</ele>
        <time>2017-06-22T11:09:40Z</time>
      </trkpt>
      <trkpt lat="65.32840495929122" lon="13.291183020919561">
        <ele>252.96000000000001</ele>
        <time>2017-06-22T11:09:50Z</time>
      </trkpt>
      <trkpt lat="65.328582990914583" lon="13.291479991748929">
        <ele>252</ele>
        <time>2017-06-22T11:09:51Z</time>
      </trkpt>
      <trkpt lat="65.328772002831101" lon="13.29173999838531">
        <ele>251.52000000000001</ele>
        <time>2017-06-22T11:09:52Z</time>
      </trkpt>
      <trkpt lat="65.328975012525916" lon="13.291959017515182">
        <ele>251.03999999999999</ele>
        <time>2017-06-22T11:09:53Z</time>
      </trkpt>
      <trkpt lat="65.329183973371983" lon="13.292141994461417">
        <ele>250.08000000000001</ele>
        <time>2017-06-22T11:09:54Z</time>
      </trkpt>
      <trkpt lat="65.329402992501855" lon="13.292305022478104">
        <ele>249.59999999999999</ele>
        <time>2017-06-22T11:09:55Z</time>
      </trkpt>
      <trkpt lat="65.330598000437021" lon="13.293779985979199">
        <ele>245.27000000000001</ele>
        <time>2017-06-22T11:10:01Z</time>
      </trkpt>
      <trkpt lat="65.330761028453708" lon="13.294149963185191">
        <ele>244.31</ele>
        <time>2017-06-22T11:10:02Z</time>
      </trkpt>
      <trkpt lat="65.330913998186588" lon="13.294550031423569">
        <ele>242.87</ele>
        <time>2017-06-22T11:10:03Z</time>
      </trkpt>
      <trkpt lat="65.332121998071671" lon="13.298476031050086">
        <ele>236.62</ele>
        <time>2017-06-22T11:10:12Z</time>
      </trkpt>
      <trkpt lat="65.332599012181163" lon="13.299492001533508">
        <ele>235.18000000000001</ele>
        <time>2017-06-22T11:10:15Z</time>
      </trkpt>
      <trkpt lat="65.332785006612539" lon="13.299776986241341">
        <ele>234.22</ele>
        <time>2017-06-22T11:10:16Z</time>
      </trkpt>
      <trkpt lat="65.332977036014199" lon="13.300036992877722">
        <ele>233.25999999999999</ele>
        <time>2017-06-22T11:10:17Z</time>
      </trkpt>
      <trkpt lat="65.334540009498596" lon="13.302303040400147">
        <ele>229.88999999999999</ele>
        <time>2017-06-22T11:10:25Z</time>
      </trkpt>
      <trkpt lat="65.337099004536867" lon="13.305348018184304">
        <ele>228.93000000000001</ele>
        <time>2017-06-22T11:10:37Z</time>
      </trkpt>
      <trkpt lat="65.339892022311687" lon="13.30860698595643">
        <ele>216.43000000000001</ele>
        <time>2017-06-22T11:10:49Z</time>
      </trkpt>
      <trkpt lat="65.34327101893723" lon="13.312733983621001">
        <ele>208.25999999999999</ele>
        <time>2017-06-22T11:11:04Z</time>
      </trkpt>
      <trkpt lat="65.345243029296398" lon="13.316396037116647">
        <ele>203.94</ele>
        <time>2017-06-22T11:11:14Z</time>
      </trkpt>
      <trkpt lat="65.348057001829147" lon="13.322590012103319">
        <ele>197.21000000000001</ele>
        <time>2017-06-22T11:11:29Z</time>
      </trkpt>
      <trkpt lat="65.349342031404376" lon="13.325241040438414">
        <ele>193.36000000000001</ele>
        <time>2017-06-22T11:11:36Z</time>
      </trkpt>
      <trkpt lat="65.352389020845294" lon="13.329884028062224">
        <ele>186.15000000000001</ele>
        <time>2017-06-22T11:11:51Z</time>
      </trkpt>
      <trkpt lat="65.354454992339015" lon="13.33137801848352">
        <ele>180.38</ele>
        <time>2017-06-22T11:12:00Z</time>
      </trkpt>
      <trkpt lat="65.356374029070139" lon="13.332229033112526">
        <ele>171.72999999999999</ele>
        <time>2017-06-22T11:12:08Z</time>
      </trkpt>
      <trkpt lat="65.358595987781882" lon="13.33490302786231">
        <ele>169.81</ele>
        <time>2017-06-22T11:12:18Z</time>
      </trkpt>
      <trkpt lat="65.360615020617843" lon="13.33675199188292">
        <ele>166.93000000000001</ele>
        <time>2017-06-22T11:12:27Z</time>
      </trkpt>
      <trkpt lat="65.362299028784037" lon="13.336813012138009">
        <ele>160.68000000000001</ele>
        <time>2017-06-22T11:12:34Z</time>
      </trkpt>
      <trkpt lat="65.362527016550303" lon="13.336876966059208">
        <ele>159.72</ele>
        <time>2017-06-22T11:12:35Z</time>
      </trkpt>
      <trkpt lat="65.362747963517904" lon="13.33698601461947">
        <ele>158.27000000000001</ele>
        <time>2017-06-22T11:12:36Z</time>
      </trkpt>
      <trkpt lat="65.362967988476157" lon="13.337126998230815">
        <ele>157.31</ele>
        <time>2017-06-22T11:12:37Z</time>
      </trkpt>
      <trkpt lat="65.363190025091171" lon="13.337311986833811">
        <ele>156.34999999999999</ele>
        <time>2017-06-22T11:12:38Z</time>
      </trkpt>
      <trkpt lat="65.364454016089439" lon="13.339036982506514">
        <ele>152.50999999999999</ele>
        <time>2017-06-22T11:12:44Z</time>
      </trkpt>
      <trkpt lat="65.365194976329803" lon="13.340574977919459">
        <ele>150.58000000000001</ele>
        <time>2017-06-22T11:12:48Z</time>
      </trkpt>
      <trkpt lat="65.365347024053335" lon="13.34102600812912">
        <ele>151.06</ele>
        <time>2017-06-22T11:12:49Z</time>
      </trkpt>
      <trkpt lat="65.366416973993182" lon="13.344062017276883">
        <ele>150.09999999999999</ele>
        <time>2017-06-22T11:12:56Z</time>
      </trkpt>
      <trkpt lat="65.367718013003469" lon="13.345403959974647">
        <ele>153.47</ele>
        <time>2017-06-22T11:13:02Z</time>
      </trkpt>
      <trkpt lat="65.370108028873801" lon="13.347860025241971">
        <ele>161.63999999999999</ele>
        <time>2017-06-22T11:13:13Z</time>
      </trkpt>
      <trkpt lat="65.372399976477027" lon="13.351603969931602">
        <ele>160.68000000000001</ele>
        <time>2017-06-22T11:13:24Z</time>
      </trkpt>
      <trkpt lat="65.374631993472576" lon="13.354864027351141">
        <ele>165.96000000000001</ele>
        <time>2017-06-22T11:13:35Z</time>
      </trkpt>
      <trkpt lat="65.374765014275908" lon="13.35516401566565">
        <ele>166.93000000000001</ele>
        <time>2017-06-22T11:13:36Z</time>
      </trkpt>
      <trkpt lat="65.374878002330661" lon="13.35550800897181">
        <ele>167.88999999999999</ele>
        <time>2017-06-22T11:13:37Z</time>
      </trkpt>
      <trkpt lat="65.374971963465214" lon="13.355896007269621">
        <ele>168.37</ele>
        <time>2017-06-22T11:13:38Z</time>
      </trkpt>
      <trkpt lat="65.375055028125644" lon="13.356325998902321">
        <ele>169.33000000000001</ele>
        <time>2017-06-22T11:13:39Z</time>
      </trkpt>
      <trkpt lat="65.375127028673887" lon="13.356787003576756">
        <ele>168.84999999999999</ele>
        <time>2017-06-22T11:13:40Z</time>
      </trkpt>
      <trkpt lat="65.375307993963361" lon="13.357628965750337">
        <ele>167.88999999999999</ele>
        <time>2017-06-22T11:13:42Z</time>
      </trkpt>
      <trkpt lat="65.375427016988397" lon="13.358004977926612">
        <ele>166.93000000000001</ele>
        <time>2017-06-22T11:13:43Z</time>
      </trkpt>
      <trkpt lat="65.375560959801078" lon="13.358363974839449">
        <ele>165.47999999999999</ele>
        <time>2017-06-22T11:13:44Z</time>
      </trkpt>
      <trkpt lat="65.376041997224092" lon="13.359727039933205">
        <ele>160.68000000000001</ele>
        <time>2017-06-22T11:13:48Z</time>
      </trkpt>
      <trkpt lat="65.376126989722252" lon="13.360111014917493">
        <ele>159.72</ele>
        <time>2017-06-22T11:13:49Z</time>
      </trkpt>
      <trkpt lat="65.376193961128592" lon="13.36051401682198">
        <ele>158.75</ele>
        <time>2017-06-22T11:13:50Z</time>
      </trkpt>
      <trkpt lat="65.376239977777004" lon="13.360918024554849">
        <ele>158.27000000000001</ele>
        <time>2017-06-22T11:13:51Z</time>
      </trkpt>
      <trkpt lat="65.376265961676836" lon="13.361322032287717">
        <ele>157.31</ele>
        <time>2017-06-22T11:13:52Z</time>
      </trkpt>
      <trkpt lat="65.376278031617403" lon="13.361718999221921">
        <ele>157.31</ele>
        <time>2017-06-22T11:13:53Z</time>
      </trkpt>
      <trkpt lat="65.3762730024755" lon="13.362114960327744">
        <ele>156.34999999999999</ele>
        <time>2017-06-22T11:13:54Z</time>
      </trkpt>
      <trkpt lat="65.376253975555301" lon="13.362496001645923">
        <ele>155.87</ele>
        <time>2017-06-22T11:13:55Z</time>
      </trkpt>
      <trkpt lat="65.376224974170327" lon="13.362849969416857">
        <ele>155.38999999999999</ele>
        <time>2017-06-22T11:13:56Z</time>
      </trkpt>
      <trkpt lat="65.376190021634102" lon="13.363160016015172">
        <ele>154.91</ele>
        <time>2017-06-22T11:13:57Z</time>
      </trkpt>
      <trkpt lat="65.376098994165659" lon="13.363943975418806">
        <ele>154.43000000000001</ele>
        <time>2017-06-22T11:14:02Z</time>
      </trkpt>
      <trkpt lat="65.376129001379013" lon="13.364041959866881">
        <ele>153.94999999999999</ele>
        <time>2017-06-22T11:14:07Z</time>
      </trkpt>
      <trkpt lat="65.376188009977341" lon="13.36412200704217">
        <ele>153.94999999999999</ele>
        <time>2017-06-22T11:14:08Z</time>
      </trkpt>
      <trkpt lat="65.376270990818739" lon="13.36418797262013">
        <ele>153.94999999999999</ele>
        <time>2017-06-22T11:14:09Z</time>
      </trkpt>
      <trkpt lat="65.376366963610053" lon="13.364236000925303">
        <ele>153.47</ele>
        <time>2017-06-22T11:14:10Z</time>
      </trkpt>
      <trkpt lat="65.376481041312218" lon="13.364281011745334">
        <ele>153.47</ele>
        <time>2017-06-22T11:14:11Z</time>
      </trkpt>
      <trkpt lat="65.377579992637038" lon="13.364663980901241">
        <ele>152.03</ele>
        <time>2017-06-22T11:14:18Z</time>
      </trkpt>
      <trkpt lat="65.379200968891382" lon="13.365598982200027">
        <ele>150.09999999999999</ele>
        <time>2017-06-22T11:14:26Z</time>
      </trkpt>
      <trkpt lat="65.381310023367405" lon="13.367057014256716">
        <ele>147.22</ele>
        <time>2017-06-22T11:14:35Z</time>
      </trkpt>
      <trkpt lat="65.382512994110584" lon="13.367521036416292">
        <ele>145.30000000000001</ele>
        <time>2017-06-22T11:14:41Z</time>
      </trkpt>
      <trkpt lat="65.383786959573627" lon="13.367405030876398">
        <ele>143.84999999999999</ele>
        <time>2017-06-22T11:14:47Z</time>
      </trkpt>
      <trkpt lat="65.38536099717021" lon="13.366232989355922">
        <ele>142.88999999999999</ele>
        <time>2017-06-22T11:14:54Z</time>
      </trkpt>
      <trkpt lat="65.387108959257603" lon="13.365658996626735">
        <ele>140.49000000000001</ele>
        <time>2017-06-22T11:15:03Z</time>
      </trkpt>
      <trkpt lat="65.388573026284575" lon="13.366318987682462">
        <ele>137.61000000000001</ele>
        <time>2017-06-22T11:15:11Z</time>
      </trkpt>
      <trkpt lat="65.389828970655799" lon="13.367875004187226">
        <ele>141.93000000000001</ele>
        <time>2017-06-22T11:15:18Z</time>
      </trkpt>
      <trkpt lat="65.391135038807988" lon="13.370349006727338">
        <ele>139.53</ele>
        <time>2017-06-22T11:15:24Z</time>
      </trkpt>
      <trkpt lat="65.392080014571548" lon="13.372590998187661">
        <ele>137.13</ele>
        <time>2017-06-22T11:15:29Z</time>
      </trkpt>
      <trkpt lat="65.393422963097692" lon="13.376169987022877">
        <ele>137.13</ele>
        <time>2017-06-22T11:15:37Z</time>
      </trkpt>
      <trkpt lat="65.394975962117314" lon="13.377815019339323">
        <ele>137.13</ele>
        <time>2017-06-22T11:15:44Z</time>
      </trkpt>
      <trkpt lat="65.396821992471814" lon="13.379347985610366">
        <ele>135.19999999999999</ele>
        <time>2017-06-22T11:15:52Z</time>
      </trkpt>
      <trkpt lat="65.400043996050954" lon="13.383731972426176">
        <ele>135.68000000000001</ele>
        <time>2017-06-22T11:16:07Z</time>
      </trkpt>
      <trkpt lat="65.40121897123754" lon="13.384445020928979">
        <ele>135.68000000000001</ele>
        <time>2017-06-22T11:16:12Z</time>
      </trkpt>
      <trkpt lat="65.402437029406428" lon="13.38399600237608">
        <ele>133.28</ele>
        <time>2017-06-22T11:16:17Z</time>
      </trkpt>
      <trkpt lat="65.404371991753578" lon="13.383253030478954">
        <ele>132.80000000000001</ele>
        <time>2017-06-22T11:16:25Z</time>
      </trkpt>
      <trkpt lat="65.406053988263011" lon="13.384239999577403">
        <ele>133.28</ele>
        <time>2017-06-22T11:16:32Z</time>
      </trkpt>
      <trkpt lat="65.40783598087728" lon="13.38640496134758">
        <ele>133.28</ele>
        <time>2017-06-22T11:16:40Z</time>
      </trkpt>
      <trkpt lat="65.409253025427461" lon="13.387602986767888">
        <ele>131.84</ele>
        <time>2017-06-22T11:16:46Z</time>
      </trkpt>
      <trkpt lat="65.413368036970496" lon="13.389707012102008">
        <ele>133.75999999999999</ele>
        <time>2017-06-22T11:17:03Z</time>
      </trkpt>
      <trkpt lat="65.414858004078269" lon="13.389650015160441">
        <ele>133.28</ele>
        <time>2017-06-22T11:17:09Z</time>
      </trkpt>
      <trkpt lat="65.417011985555291" lon="13.389622019603848">
        <ele>131.36000000000001</ele>
        <time>2017-06-22T11:17:18Z</time>
      </trkpt>
      <trkpt lat="65.418718960136175" lon="13.390096016228199">
        <ele>132.31999999999999</ele>
        <time>2017-06-22T11:17:26Z</time>
      </trkpt>
      <trkpt lat="65.418913001194596" lon="13.390029966831207">
        <ele>131.84</ele>
        <time>2017-06-22T11:17:27Z</time>
      </trkpt>
      <trkpt lat="65.41928700171411" lon="13.3899250254035">
        <ele>131.36000000000001</ele>
        <time>2017-06-22T11:17:29Z</time>
      </trkpt>
      <trkpt lat="65.419474001973867" lon="13.389951009303331">
        <ele>133.28</ele>
        <time>2017-06-22T11:17:30Z</time>
      </trkpt>
      <trkpt lat="65.41965396143496" lon="13.390032984316349">
        <ele>134.72</ele>
        <time>2017-06-22T11:17:31Z</time>
      </trkpt>
      <trkpt lat="65.420947959646583" lon="13.39093403890729">
        <ele>132.80000000000001</ele>
        <time>2017-06-22T11:17:38Z</time>
      </trkpt>
      <trkpt lat="65.421117022633553" lon="13.391145011410117">
        <ele>132.31999999999999</ele>
        <time>2017-06-22T11:17:39Z</time>
      </trkpt>
      <trkpt lat="65.422430969774723" lon="13.392619974911213">
        <ele>127.98999999999999</ele>
        <time>2017-06-22T11:17:46Z</time>
      </trkpt>
      <trkpt lat="65.423510977998376" lon="13.394258972257376">
        <ele>132.31999999999999</ele>
        <time>2017-06-22T11:17:52Z</time>
      </trkpt>
      <trkpt lat="65.423910962417722" lon="13.395265974104404">
        <ele>136.16</ele>
        <time>2017-06-22T11:17:55Z</time>
      </trkpt>
      <trkpt lat="65.424047000706196" lon="13.395502008497715">
        <ele>137.61000000000001</ele>
        <time>2017-06-22T11:17:56Z</time>
      </trkpt>
      <trkpt lat="65.424197036772966" lon="13.395686997100711">
        <ele>137.61000000000001</ele>
        <time>2017-06-22T11:17:57Z</time>
      </trkpt>
      <trkpt lat="65.424359980970621" lon="13.395833009853959">
        <ele>137.13</ele>
        <time>2017-06-22T11:17:58Z</time>
      </trkpt>
      <trkpt lat="65.424533989280462" lon="13.395945997908711">
        <ele>136.16</ele>
        <time>2017-06-22T11:17:59Z</time>
      </trkpt>
      <trkpt lat="65.424717972055078" lon="13.396026967093349">
        <ele>134.72</ele>
        <time>2017-06-22T11:18:00Z</time>
      </trkpt>
      <trkpt lat="65.424912013113499" lon="13.396076001226902">
        <ele>133.75999999999999</ele>
        <time>2017-06-22T11:18:01Z</time>
      </trkpt>
      <trkpt lat="65.425116028636694" lon="13.396091004833579">
        <ele>132.31999999999999</ele>
        <time>2017-06-22T11:18:02Z</time>
      </trkpt>
      <trkpt lat="65.42532398365438" lon="13.396069966256618">
        <ele>130.40000000000001</ele>
        <time>2017-06-22T11:18:03Z</time>
      </trkpt>
      <trkpt lat="65.425535039976239" lon="13.396025039255619">
        <ele>129.43000000000001</ele>
        <time>2017-06-22T11:18:04Z</time>
      </trkpt>
      <trkpt lat="65.426157983019948" lon="13.395994026213884">
        <ele>125.59</ele>
        <time>2017-06-22T11:18:07Z</time>
      </trkpt>
      <trkpt lat="65.427856994792819" lon="13.396689975634217">
        <ele>124.15000000000001</ele>
        <time>2017-06-22T11:18:16Z</time>
      </trkpt>
      <trkpt lat="65.42816000059247" lon="13.396775973960757">
        <ele>123.67</ele>
        <time>2017-06-22T11:18:18Z</time>
      </trkpt>
      <trkpt lat="65.429032975807786" lon="13.396982001140714">
        <ele>120.3</ele>
        <time>2017-06-22T11:18:23Z</time>
      </trkpt>
      <trkpt lat="65.429227016866207" lon="13.397114016115665">
        <ele>120.3</ele>
        <time>2017-06-22T11:18:24Z</time>
      </trkpt>
      <trkpt lat="65.429421979933977" lon="13.397300010547042">
        <ele>120.78</ele>
        <time>2017-06-22T11:18:25Z</time>
      </trkpt>
      <trkpt lat="65.430951006710529" lon="13.399166995659471">
        <ele>120.78</ele>
        <time>2017-06-22T11:18:33Z</time>
      </trkpt>
      <trkpt lat="65.432619005441666" lon="13.40056300163269">
        <ele>120.78</ele>
        <time>2017-06-22T11:18:42Z</time>
      </trkpt>
      <trkpt lat="65.434781033545732" lon="13.401899999007583">
        <ele>122.22</ele>
        <time>2017-06-22T11:18:53Z</time>
      </trkpt>
      <trkpt lat="65.436563026160002" lon="13.403013031929731">
        <ele>120.78</ele>
        <time>2017-06-22T11:19:02Z</time>
      </trkpt>
      <trkpt lat="65.438826978206635" lon="13.405244965106249">
        <ele>126.06999999999999</ele>
        <time>2017-06-22T11:19:14Z</time>
      </trkpt>
      <trkpt lat="65.440855985507369" lon="13.406830988824368">
        <ele>118.86</ele>
        <time>2017-06-22T11:19:25Z</time>
      </trkpt>
      <trkpt lat="65.442013023421168" lon="13.406718000769615">
        <ele>118.38</ele>
        <time>2017-06-22T11:19:31Z</time>
      </trkpt>
      <trkpt lat="65.44240303337574" lon="13.406441984698176">
        <ele>118.38</ele>
        <time>2017-06-22T11:19:33Z</time>
      </trkpt>
      <trkpt lat="65.442591039463878" lon="13.406236963346601">
        <ele>118.38</ele>
        <time>2017-06-22T11:19:34Z</time>
      </trkpt>
      <trkpt lat="65.444220984354615" lon="13.403920959681273">
        <ele>117.90000000000001</ele>
        <time>2017-06-22T11:19:43Z</time>
      </trkpt>
      <trkpt lat="65.444371020421386" lon="13.403584007173777">
        <ele>119.34</ele>
        <time>2017-06-22T11:19:44Z</time>
      </trkpt>
      <trkpt lat="65.444504963234067" lon="13.403216041624546">
        <ele>120.78</ele>
        <time>2017-06-22T11:19:45Z</time>
      </trkpt>
      <trkpt lat="65.44461996294558" lon="13.402828965336084">
        <ele>123.19</ele>
        <time>2017-06-22T11:19:46Z</time>
      </trkpt>
      <trkpt lat="65.445709023624659" lon="13.399026012048125">
        <ele>125.11</ele>
        <time>2017-06-22T11:19:56Z</time>
      </trkpt>
      <trkpt lat="65.445828968659043" lon="13.398738009855151">
        <ele>124.63</ele>
        <time>2017-06-22T11:19:57Z</time>
      </trkpt>
      <trkpt lat="65.445962995290756" lon="13.398502981290221">
        <ele>124.15000000000001</ele>
        <time>2017-06-22T11:19:58Z</time>
      </trkpt>
      <trkpt lat="65.446113031357527" lon="13.398336013779044">
        <ele>123.19</ele>
        <time>2017-06-22T11:19:59Z</time>
      </trkpt>
      <trkpt lat="65.446276981383562" lon="13.398243980482221">
        <ele>122.22</ele>
        <time>2017-06-22T11:20:00Z</time>
      </trkpt>
      <trkpt lat="65.446447972208261" lon="13.398219002410769">
        <ele>120.3</ele>
        <time>2017-06-22T11:20:01Z</time>
      </trkpt>
      <trkpt lat="65.446632960811257" lon="13.398227971047163">
        <ele>120.78</ele>
        <time>2017-06-22T11:20:02Z</time>
      </trkpt>
      <trkpt lat="65.446822978556156" lon="13.398266024887562">
        <ele>120.78</ele>
        <time>2017-06-22T11:20:03Z</time>
      </trkpt>
      <trkpt lat="65.448853997513652" lon="13.398691993206739">
        <ele>115.5</ele>
        <time>2017-06-22T11:20:13Z</time>
      </trkpt>
      <trkpt lat="65.449042003601789" lon="13.398676989600062">
        <ele>115.01000000000001</ele>
        <time>2017-06-22T11:20:14Z</time>
      </trkpt>
      <trkpt lat="65.449232021346688" lon="13.398615969344974">
        <ele>114.53</ele>
        <time>2017-06-22T11:20:15Z</time>
      </trkpt>
      <trkpt lat="65.451167989522219" lon="13.39755398221314">
        <ele>114.53</ele>
        <time>2017-06-22T11:20:25Z</time>
      </trkpt>
      <trkpt lat="65.451871985569596" lon="13.396707996726036">
        <ele>112.13</ele>
        <time>2017-06-22T11:20:29Z</time>
      </trkpt>
      <trkpt lat="65.452055968344212" lon="13.39656500145793">
        <ele>112.61</ele>
        <time>2017-06-22T11:20:30Z</time>
      </trkpt>
      <trkpt lat="65.452227964997292" lon="13.39650196954608">
        <ele>110.20999999999999</ele>
        <time>2017-06-22T11:20:31Z</time>
      </trkpt>
      <trkpt lat="65.452409014105797" lon="13.396508004516363">
        <ele>109.25</ele>
        <time>2017-06-22T11:20:32Z</time>
      </trkpt>
      <trkpt lat="65.452596014365554" lon="13.39658796787262">
        <ele>109.73</ele>
        <time>2017-06-22T11:20:33Z</time>
      </trkpt>
      <trkpt lat="65.452787959948182" lon="13.396720988675952">
        <ele>110.20999999999999</ele>
        <time>2017-06-22T11:20:34Z</time>
      </trkpt>
      <trkpt lat="65.452983006834984" lon="13.396857026964426">
        <ele>111.17</ele>
        <time>2017-06-22T11:20:35Z</time>
      </trkpt>
      <trkpt lat="65.454989969730377" lon="13.397676022723317">
        <ele>109.73</ele>
        <time>2017-06-22T11:20:45Z</time>
      </trkpt>
      <trkpt lat="65.455951960757375" lon="13.398085981607437">
        <ele>113.56999999999999</ele>
        <time>2017-06-22T11:20:50Z</time>
      </trkpt>
      <trkpt lat="65.456124041229486" lon="13.398287985473871">
        <ele>115.5</ele>
        <time>2017-06-22T11:20:51Z</time>
      </trkpt>
      <trkpt lat="65.456279022619128" lon="13.398542962968349">
        <ele>116.94</ele>
        <time>2017-06-22T11:20:52Z</time>
      </trkpt>
      <trkpt lat="65.456416988745332" lon="13.398849992081523">
        <ele>118.38</ele>
        <time>2017-06-22T11:20:53Z</time>
      </trkpt>
      <trkpt lat="65.456544980406761" lon="13.399187028408051">
        <ele>120.3</ele>
        <time>2017-06-22T11:20:54Z</time>
      </trkpt>
      <trkpt lat="65.457993037998676" lon="13.403477976098657">
        <ele>122.70999999999999</ele>
        <time>2017-06-22T11:21:06Z</time>
      </trkpt>
      <trkpt lat="65.458236029371619" lon="13.404051968827844">
        <ele>122.22</ele>
        <time>2017-06-22T11:21:08Z</time>
      </trkpt>
      <trkpt lat="65.458375001326203" lon="13.404282974079251">
        <ele>121.73999999999999</ele>
        <time>2017-06-22T11:21:09Z</time>
      </trkpt>
      <trkpt lat="65.45851900242269" lon="13.404468968510628">
        <ele>120.78</ele>
        <time>2017-06-22T11:21:10Z</time>
      </trkpt>
      <trkpt lat="65.458672977983952" lon="13.404606012627482">
        <ele>119.81999999999999</ele>
        <time>2017-06-22T11:21:11Z</time>
      </trkpt>
      <trkpt lat="65.458833994343877" lon="13.404680024832487">
        <ele>117.90000000000001</ele>
        <time>2017-06-22T11:21:12Z</time>
      </trkpt>
      <trkpt lat="65.459003979340196" lon="13.404696034267545">
        <ele>116.94</ele>
        <time>2017-06-22T11:21:13Z</time>
      </trkpt>
      <trkpt lat="65.459177987650037" lon="13.404655968770385">
        <ele>116.45999999999999</ele>
        <time>2017-06-22T11:21:14Z</time>
      </trkpt>
      <trkpt lat="65.459359958767891" lon="13.404580028727651">
        <ele>115.98</ele>
        <time>2017-06-22T11:21:15Z</time>
      </trkpt>
      <trkpt lat="65.459546959027648" lon="13.404481960460544">
        <ele>114.05</ele>
        <time>2017-06-22T11:21:16Z</time>
      </trkpt>
      <trkpt lat="65.461746035143733" lon="13.403353001922369">
        <ele>115.01000000000001</ele>
        <time>2017-06-22T11:21:27Z</time>
      </trkpt>
      <trkpt lat="65.462875999510288" lon="13.403431037440896">
        <ele>123.19</ele>
        <time>2017-06-22T11:21:33Z</time>
      </trkpt>
      <trkpt lat="65.463053025305271" lon="13.403588030487299">
        <ele>123.19</ele>
        <time>2017-06-22T11:21:34Z</time>
      </trkpt>
      <trkpt lat="65.463230973109603" lon="13.403791040182114">
        <ele>123.67</ele>
        <time>2017-06-22T11:21:35Z</time>
      </trkpt>
      <trkpt lat="65.463400036096573" lon="13.404040988534689">
        <ele>123.67</ele>
        <time>2017-06-22T11:21:36Z</time>
      </trkpt>
      <trkpt lat="65.463562980294228" lon="13.40434298850596">
        <ele>124.63</ele>
        <time>2017-06-22T11:21:37Z</time>
      </trkpt>
      <trkpt lat="65.463703041896224" lon="13.404699973762035">
        <ele>122.70999999999999</ele>
        <time>2017-06-22T11:21:38Z</time>
      </trkpt>
      <trkpt lat="65.463832039386034" lon="13.405099958181381">
        <ele>121.26000000000001</ele>
        <time>2017-06-22T11:21:39Z</time>
      </trkpt>
      <trkpt lat="65.463959025219083" lon="13.405513018369675">
        <ele>120.78</ele>
        <time>2017-06-22T11:21:40Z</time>
      </trkpt>
      <trkpt lat="65.464861001819372" lon="13.40758603066206">
        <ele>115.5</ele>
        <time>2017-06-22T11:21:46Z</time>
      </trkpt>
      <trkpt lat="65.465052025392652" lon="13.407821981236339">
        <ele>115.01000000000001</ele>
        <time>2017-06-22T11:21:47Z</time>
      </trkpt>
      <trkpt lat="65.465245982632041" lon="13.407999007031322">
        <ele>115.01000000000001</ele>
        <time>2017-06-22T11:21:48Z</time>
      </trkpt>
      <trkpt lat="65.465453015640378" lon="13.408136973157525">
        <ele>116.45999999999999</ele>
        <time>2017-06-22T11:21:49Z</time>
      </trkpt>
      <trkpt lat="65.465661976486444" lon="13.408240992575884">
        <ele>117.42</ele>
        <time>2017-06-22T11:21:50Z</time>
      </trkpt>
      <trkpt lat="65.465869009494781" lon="13.408298995345831">
        <ele>118.86</ele>
        <time>2017-06-22T11:21:51Z</time>
      </trkpt>
      <trkpt lat="65.466072019189596" lon="13.408312993124127">
        <ele>120.3</ele>
        <time>2017-06-22T11:21:52Z</time>
      </trkpt>
      <trkpt lat="65.466279974207282" lon="13.40829698368907">
        <ele>121.73999999999999</ele>
        <time>2017-06-22T11:21:53Z</time>
      </trkpt>
      <trkpt lat="65.466495975852013" lon="13.408249039202929">
        <ele>122.70999999999999</ele>
        <time>2017-06-22T11:21:54Z</time>
      </trkpt>
      <trkpt lat="65.466708960011601" lon="13.408172009512782">
        <ele>122.70999999999999</ele>
        <time>2017-06-22T11:21:55Z</time>
      </trkpt>
      <trkpt lat="65.467142974957824" lon="13.407906973734498">
        <ele>123.67</ele>
        <time>2017-06-22T11:21:57Z</time>
      </trkpt>
      <trkpt lat="65.467366017401218" lon="13.407699018716812">
        <ele>124.63</ele>
        <time>2017-06-22T11:21:58Z</time>
      </trkpt>
      <trkpt lat="65.469176005572081" lon="13.406095979735255">
        <ele>125.59</ele>
        <time>2017-06-22T11:22:06Z</time>
      </trkpt>
      <trkpt lat="65.471410034224391" lon="13.404447007924318">
        <ele>125.11</ele>
        <time>2017-06-22T11:22:16Z</time>
      </trkpt>
      <trkpt lat="65.473060011863708" lon="13.404737021774054">
        <ele>127.51000000000001</ele>
        <time>2017-06-22T11:22:23Z</time>
      </trkpt>
      <trkpt lat="65.47351498156786" lon="13.404736015945673">
        <ele>127.98999999999999</ele>
        <time>2017-06-22T11:22:25Z</time>
      </trkpt>
      <trkpt lat="65.474574035033584" lon="13.404553038999438">
        <ele>126.06999999999999</ele>
        <time>2017-06-22T11:22:30Z</time>
      </trkpt>
      <trkpt lat="65.474785007536411" lon="13.404629984870553">
        <ele>126.55</ele>
        <time>2017-06-22T11:22:31Z</time>
      </trkpt>
      <trkpt lat="65.474994974210858" lon="13.404745990410447">
        <ele>126.55</ele>
        <time>2017-06-22T11:22:32Z</time>
      </trkpt>
      <trkpt lat="65.475421026349068" lon="13.404960986226797">
        <ele>127.03</ele>
        <time>2017-06-22T11:22:34Z</time>
      </trkpt>
      <trkpt lat="65.475648008286953" lon="13.405004991218448">
        <ele>127.03</ele>
        <time>2017-06-22T11:22:35Z</time>
      </trkpt>
      <trkpt lat="65.475882031023502" lon="13.405008008703589">
        <ele>127.51000000000001</ele>
        <time>2017-06-22T11:22:36Z</time>
      </trkpt>
      <trkpt lat="65.478731961920857" lon="13.404281968250871">
        <ele>126.55</ele>
        <time>2017-06-22T11:22:48Z</time>
      </trkpt>
      <trkpt lat="65.480404989793897" lon="13.403906961902976">
        <ele>126.55</ele>
        <time>2017-06-22T11:22:56Z</time>
      </trkpt>
      <trkpt lat="65.481258016079664" lon="13.404367966577411">
        <ele>122.70999999999999</ele>
        <time>2017-06-22T11:23:00Z</time>
      </trkpt>
      <trkpt lat="65.481451973319054" lon="13.404583968222141">
        <ele>122.22</ele>
        <time>2017-06-22T11:23:01Z</time>
      </trkpt>
      <trkpt lat="65.481638973578811" lon="13.404839029535651">
        <ele>121.73999999999999</ele>
        <time>2017-06-22T11:23:02Z</time>
      </trkpt>
      <trkpt lat="65.481815999373794" lon="13.405139017850161">
        <ele>122.22</ele>
        <time>2017-06-22T11:23:03Z</time>
      </trkpt>
      <trkpt lat="65.481975004076958" lon="13.405474964529276">
        <ele>122.70999999999999</ele>
        <time>2017-06-22T11:23:04Z</time>
      </trkpt>
      <trkpt lat="65.482110036537051" lon="13.405833961442113">
        <ele>122.70999999999999</ele>
        <time>2017-06-22T11:23:05Z</time>
      </trkpt>
      <trkpt lat="65.482224030420184" lon="13.40619002468884">
        <ele>123.67</ele>
        <time>2017-06-22T11:23:06Z</time>
      </trkpt>
      <trkpt lat="65.482322014868259" lon="13.406558996066451">
        <ele>124.15000000000001</ele>
        <time>2017-06-22T11:23:07Z</time>
      </trkpt>
      <trkpt lat="65.482400972396135" lon="13.406959986314178">
        <ele>122.22</ele>
        <time>2017-06-22T11:23:08Z</time>
      </trkpt>
      <trkpt lat="65.482480013743043" lon="13.407381009310484">
        <ele>121.73999999999999</ele>
        <time>2017-06-22T11:23:09Z</time>
      </trkpt>
      <trkpt lat="65.48264698125422" lon="13.408169997856021">
        <ele>120.78</ele>
        <time>2017-06-22T11:23:11Z</time>
      </trkpt>
      <trkpt lat="65.482746977359056" lon="13.408513991162181">
        <ele>120.78</ele>
        <time>2017-06-22T11:23:12Z</time>
      </trkpt>
      <trkpt lat="65.482863988727331" lon="13.408822026103735">
        <ele>122.22</ele>
        <time>2017-06-22T11:23:13Z</time>
      </trkpt>
      <trkpt lat="65.482998015359044" lon="13.409081026911736">
        <ele>123.67</ele>
        <time>2017-06-22T11:23:14Z</time>
      </trkpt>
      <trkpt lat="65.483146961778402" lon="13.409276995807886">
        <ele>124.63</ele>
        <time>2017-06-22T11:23:15Z</time>
      </trkpt>
      <trkpt lat="65.48331200145185" lon="13.409432983025908">
        <ele>126.06999999999999</ele>
        <time>2017-06-22T11:23:16Z</time>
      </trkpt>
      <trkpt lat="65.483489027246833" lon="13.409548988565803">
        <ele>127.98999999999999</ele>
        <time>2017-06-22T11:23:17Z</time>
      </trkpt>
      <trkpt lat="65.483670998364687" lon="13.409619983285666">
        <ele>129.43000000000001</ele>
        <time>2017-06-22T11:23:18Z</time>
      </trkpt>
      <trkpt lat="65.483861016109586" lon="13.409646973013878">
        <ele>131.36000000000001</ele>
        <time>2017-06-22T11:23:19Z</time>
      </trkpt>
      <trkpt lat="65.484054973348975" lon="13.409645967185497">
        <ele>132.80000000000001</ele>
        <time>2017-06-22T11:23:20Z</time>
      </trkpt>
      <trkpt lat="65.485469000414014" lon="13.409624006599188">
        <ele>136.16</ele>
        <time>2017-06-22T11:23:27Z</time>
      </trkpt>
      <trkpt lat="65.48567502759397" lon="13.409734982997179">
        <ele>134.72</ele>
        <time>2017-06-22T11:23:28Z</time>
      </trkpt>
      <trkpt lat="65.485874013975263" lon="13.40990798547864">
        <ele>133.28</ele>
        <time>2017-06-22T11:23:29Z</time>
      </trkpt>
      <trkpt lat="65.486067971214652" lon="13.410129016265273">
        <ele>132.31999999999999</ele>
        <time>2017-06-22T11:23:30Z</time>
      </trkpt>
      <trkpt lat="65.48625698313117" lon="13.410377036780119">
        <ele>130.88</ele>
        <time>2017-06-22T11:23:31Z</time>
      </trkpt>
      <trkpt lat="65.487596997991204" lon="13.411665000021458">
        <ele>127.51000000000001</ele>
        <time>2017-06-22T11:23:38Z</time>
      </trkpt>
      <trkpt lat="65.489339008927345" lon="13.412989005446434">
        <ele>127.51000000000001</ele>
        <time>2017-06-22T11:23:46Z</time>
      </trkpt>
      <trkpt lat="65.489759026095271" lon="13.413268039003015">
        <ele>127.03</ele>
        <time>2017-06-22T11:23:48Z</time>
      </trkpt>
      <trkpt lat="65.489964969456196" lon="13.413332998752594">
        <ele>127.03</ele>
        <time>2017-06-22T11:23:49Z</time>
      </trkpt>
      <trkpt lat="65.490176025778055" lon="13.413358982652426">
        <ele>127.03</ele>
        <time>2017-06-22T11:23:50Z</time>
      </trkpt>
      <trkpt lat="65.491676973178983" lon="13.41272396966815">
        <ele>122.70999999999999</ele>
        <time>2017-06-22T11:23:57Z</time>
      </trkpt>
      <trkpt lat="65.492484988644719" lon="13.412060039117932">
        <ele>115.98</ele>
        <time>2017-06-22T11:24:01Z</time>
      </trkpt>
      <trkpt lat="65.492649022489786" lon="13.411836996674538">
        <ele>115.01000000000001</ele>
        <time>2017-06-22T11:24:02Z</time>
      </trkpt>
      <trkpt lat="65.492785982787609" lon="13.411559974774718">
        <ele>113.56999999999999</ele>
        <time>2017-06-22T11:24:03Z</time>
      </trkpt>
      <trkpt lat="65.492892013862729" lon="13.411201983690262">
        <ele>113.09</ele>
        <time>2017-06-22T11:24:04Z</time>
      </trkpt>
      <trkpt lat="65.492965020239353" lon="13.410799987614155">
        <ele>112.13</ele>
        <time>2017-06-22T11:24:05Z</time>
      </trkpt>
      <trkpt lat="65.493007013574243" lon="13.410360021516681">
        <ele>111.17</ele>
        <time>2017-06-22T11:24:06Z</time>
      </trkpt>
      <trkpt lat="65.493032997474074" lon="13.409891976043582">
        <ele>110.69</ele>
        <time>2017-06-22T11:24:07Z</time>
      </trkpt>
      <trkpt lat="65.493053030222654" lon="13.409411022439599">
        <ele>110.69</ele>
        <time>2017-06-22T11:24:08Z</time>
      </trkpt>
      <trkpt lat="65.493209017440677" lon="13.403693977743387">
        <ele>109.73</ele>
        <time>2017-06-22T11:24:19Z</time>
      </trkpt>
      <trkpt lat="65.493286969140172" lon="13.402832988649607">
        <ele>109.73</ele>
        <time>2017-06-22T11:24:21Z</time>
      </trkpt>
      <trkpt lat="65.493362993001938" lon="13.402448007836938">
        <ele>109.25</ele>
        <time>2017-06-22T11:24:22Z</time>
      </trkpt>
      <trkpt lat="65.493457959964871" lon="13.402081970125437">
        <ele>108.77</ele>
        <time>2017-06-22T11:24:23Z</time>
      </trkpt>
      <trkpt lat="65.493578994646668" lon="13.40174300596118">
        <ele>108.77</ele>
        <time>2017-06-22T11:24:24Z</time>
      </trkpt>
      <trkpt lat="65.493707992136478" lon="13.401418039575219">
        <ele>108.77</ele>
        <time>2017-06-22T11:24:25Z</time>
      </trkpt>
      <trkpt lat="65.494962008669972" lon="13.398841023445129">
        <ele>107.31999999999999</ele>
        <time>2017-06-22T11:24:33Z</time>
      </trkpt>
      <trkpt lat="65.495317988097668" lon="13.398389993235469">
        <ele>106.84</ele>
        <time>2017-06-22T11:24:35Z</time>
      </trkpt>
      <trkpt lat="65.495509011670947" lon="13.398255966603756">
        <ele>107.31999999999999</ele>
        <time>2017-06-22T11:24:36Z</time>
      </trkpt>
      <trkpt lat="65.495692994445562" lon="13.398182960227132">
        <ele>107.81</ele>
        <time>2017-06-22T11:24:37Z</time>
      </trkpt>
      <trkpt lat="65.495888041332364" lon="13.398155970498919">
        <ele>108.29000000000001</ele>
        <time>2017-06-22T11:24:38Z</time>
      </trkpt>
      <trkpt lat="65.496085016056895" lon="13.398131998255849">
        <ele>108.77</ele>
        <time>2017-06-22T11:24:39Z</time>
      </trkpt>
      <trkpt lat="65.497374990954995" lon="13.397291963919997">
        <ele>106.36</ele>
        <time>2017-06-22T11:24:45Z</time>
      </trkpt>
      <trkpt lat="65.498274033889174" lon="13.396443966776133">
        <ele>105.88</ele>
        <time>2017-06-22T11:24:49Z</time>
      </trkpt>
      <trkpt lat="65.498508978635073" lon="13.396331984549761">
        <ele>106.36</ele>
        <time>2017-06-22T11:24:50Z</time>
      </trkpt>
      <trkpt lat="65.501300990581512" lon="13.395732007920742">
        <ele>99.629999999999995</ele>
        <time>2017-06-22T11:25:02Z</time>
      </trkpt>
      <trkpt lat="65.503064040094614" lon="13.396229976788163">
        <ele>97.709999999999994</ele>
        <time>2017-06-22T11:25:10Z</time>
      </trkpt>
      <trkpt lat="65.504589965566993" lon="13.396164011210203">
        <ele>96.269999999999996</ele>
        <time>2017-06-22T11:25:17Z</time>
      </trkpt>
      <trkpt lat="65.506245978176594" lon="13.395349038764834">
        <ele>97.230000000000004</ele>
        <time>2017-06-22T11:25:25Z</time>
      </trkpt>
      <trkpt lat="65.507528996095061" lon="13.395234039053321">
        <ele>96.269999999999996</ele>
        <time>2017-06-22T11:25:31Z</time>
      </trkpt>
      <trkpt lat="65.507717002183199" lon="13.395119039341807">
        <ele>96.269999999999996</ele>
        <time>2017-06-22T11:25:32Z</time>
      </trkpt>
      <trkpt lat="65.507893022149801" lon="13.394948970526457">
        <ele>96.75</ele>
        <time>2017-06-22T11:25:33Z</time>
      </trkpt>
      <trkpt lat="65.508056972175837" lon="13.394728023558855">
        <ele>96.269999999999996</ele>
        <time>2017-06-22T11:25:34Z</time>
      </trkpt>
      <trkpt lat="65.508207008242607" lon="13.394459970295429">
        <ele>96.269999999999996</ele>
        <time>2017-06-22T11:25:35Z</time>
      </trkpt>
      <trkpt lat="65.508347991853952" lon="13.394152019172907">
        <ele>96.75</ele>
        <time>2017-06-22T11:25:36Z</time>
      </trkpt>
      <trkpt lat="65.508474977687001" lon="13.393814982846379">
        <ele>97.230000000000004</ele>
        <time>2017-06-22T11:25:37Z</time>
      </trkpt>
      <trkpt lat="65.508595006540418" lon="13.393465038388968">
        <ele>97.709999999999994</ele>
        <time>2017-06-22T11:25:38Z</time>
      </trkpt>
      <trkpt lat="65.509669985622168" lon="13.390535982325673">
        <ele>99.629999999999995</ele>
        <time>2017-06-22T11:25:46Z</time>
      </trkpt>
      <trkpt lat="65.509826978668571" lon="13.39024999178946">
        <ele>99.150000000000006</ele>
        <time>2017-06-22T11:25:47Z</time>
      </trkpt>
      <trkpt lat="65.509998975321651" lon="13.390004988759756">
        <ele>99.150000000000006</ele>
        <time>2017-06-22T11:25:48Z</time>
      </trkpt>
      <trkpt lat="65.510183963924646" lon="13.38979996740818">
        <ele>99.150000000000006</ele>
        <time>2017-06-22T11:25:49Z</time>
      </trkpt>
      <trkpt lat="65.510374987497926" lon="13.389656972140074">
        <ele>98.189999999999998</ele>
        <time>2017-06-22T11:25:50Z</time>
      </trkpt>
      <trkpt lat="65.510574979707599" lon="13.38958497159183">
        <ele>97.709999999999994</ele>
        <time>2017-06-22T11:25:51Z</time>
      </trkpt>
      <trkpt lat="65.510780001059175" lon="13.389571979641914">
        <ele>97.230000000000004</ele>
        <time>2017-06-22T11:25:52Z</time>
      </trkpt>
      <trkpt lat="65.510982004925609" lon="13.389630988240242">
        <ele>95.790000000000006</ele>
        <time>2017-06-22T11:25:53Z</time>
      </trkpt>
      <trkpt lat="65.511183002963662" lon="13.389749005436897">
        <ele>95.310000000000002</ele>
        <time>2017-06-22T11:25:54Z</time>
      </trkpt>
      <trkpt lat="65.51137201488018" lon="13.389942962676287">
        <ele>93.870000000000005</ele>
        <time>2017-06-22T11:25:55Z</time>
      </trkpt>
      <trkpt lat="65.511550968512893" lon="13.390178997069597">
        <ele>93.390000000000001</ele>
        <time>2017-06-22T11:25:56Z</time>
      </trkpt>
      <trkpt lat="65.511711984872818" lon="13.390474040061235">
        <ele>92.420000000000002</ele>
        <time>2017-06-22T11:25:57Z</time>
      </trkpt>
      <trkpt lat="65.511853974312544" lon="13.390825996175408">
        <ele>91.459999999999994</ele>
        <time>2017-06-22T11:25:58Z</time>
      </trkpt>
      <trkpt lat="65.511980960145593" lon="13.391221035271883">
        <ele>90.980000000000004</ele>
        <time>2017-06-22T11:25:59Z</time>
      </trkpt>
      <trkpt lat="65.512083973735571" lon="13.391667036339641">
        <ele>87.620000000000005</ele>
        <time>2017-06-22T11:26:00Z</time>
      </trkpt>
      <trkpt lat="65.51218899898231" lon="13.392115971073508">
        <ele>86.659999999999997</ele>
        <time>2017-06-22T11:26:01Z</time>
      </trkpt>
      <trkpt lat="65.513576958328485" lon="13.397944997996092">
        <ele>73.200000000000003</ele>
        <time>2017-06-22T11:26:14Z</time>
      </trkpt>
      <trkpt lat="65.513973003253341" lon="13.398916041478515">
        <ele>72.239999999999995</ele>
        <time>2017-06-22T11:26:17Z</time>
      </trkpt>
      <trkpt lat="65.514118010178208" lon="13.399123996496201">
        <ele>71.269999999999996</ele>
        <time>2017-06-22T11:26:18Z</time>
      </trkpt>
      <trkpt lat="65.514276009052992" lon="13.399250982329249">
        <ele>71.760000000000005</ele>
        <time>2017-06-22T11:26:19Z</time>
      </trkpt>
      <trkpt lat="65.514440964907408" lon="13.399299010634422">
        <ele>71.760000000000005</ele>
        <time>2017-06-22T11:26:20Z</time>
      </trkpt>
      <trkpt lat="65.514608016237617" lon="13.399264980107546">
        <ele>71.760000000000005</ele>
        <time>2017-06-22T11:26:21Z</time>
      </trkpt>
      <trkpt lat="65.514770038425922" lon="13.399149980396032">
        <ele>71.269999999999996</ele>
        <time>2017-06-22T11:26:22Z</time>
      </trkpt>
      <trkpt lat="65.514925019815564" lon="13.398954011499882">
        <ele>72.719999999999999</ele>
        <time>2017-06-22T11:26:23Z</time>
      </trkpt>
      <trkpt lat="65.515068015083671" lon="13.398711020126939">
        <ele>73.680000000000007</ele>
        <time>2017-06-22T11:26:24Z</time>
      </trkpt>
      <trkpt lat="65.515205981209874" lon="13.398449001833797">
        <ele>74.640000000000001</ele>
        <time>2017-06-22T11:26:25Z</time>
      </trkpt>
      <trkpt lat="65.516221029683948" lon="13.397282995283604">
        <ele>79.450000000000003</ele>
        <time>2017-06-22T11:26:31Z</time>
      </trkpt>
      <trkpt lat="65.516410041600466" lon="13.39721099473536">
        <ele>80.409999999999997</ele>
        <time>2017-06-22T11:26:32Z</time>
      </trkpt>
      <trkpt lat="65.516606010496616" lon="13.397172018885612">
        <ele>80.409999999999997</ele>
        <time>2017-06-22T11:26:33Z</time>
      </trkpt>
      <trkpt lat="65.517555009573698" lon="13.396942019462585">
        <ele>78.969999999999999</ele>
        <time>2017-06-22T11:26:38Z</time>
      </trkpt>
      <trkpt lat="65.517729017883539" lon="13.39680296368897">
        <ele>78.480000000000004</ele>
        <time>2017-06-22T11:26:39Z</time>
      </trkpt>
      <trkpt lat="65.517892967909575" lon="13.396629961207509">
        <ele>77.519999999999996</ele>
        <time>2017-06-22T11:26:40Z</time>
      </trkpt>
      <trkpt lat="65.518431002274156" lon="13.396120006218553">
        <ele>77.040000000000006</ele>
        <time>2017-06-22T11:26:43Z</time>
      </trkpt>
      <trkpt lat="65.518624037504196" lon="13.396054040640593">
        <ele>77.040000000000006</ele>
        <time>2017-06-22T11:26:44Z</time>
      </trkpt>
      <trkpt lat="65.518826963379979" lon="13.396054962649941">
        <ele>78</ele>
        <time>2017-06-22T11:26:45Z</time>
      </trkpt>
      <trkpt lat="65.519036008045077" lon="13.396097961813211">
        <ele>78.969999999999999</ele>
        <time>2017-06-22T11:26:46Z</time>
      </trkpt>
      <trkpt lat="65.519251003861427" lon="13.396156970411539">
        <ele>79.450000000000003</ele>
        <time>2017-06-22T11:26:47Z</time>
      </trkpt>
      <trkpt lat="65.519687030464411" lon="13.396195024251938">
        <ele>80.890000000000001</ele>
        <time>2017-06-22T11:26:49Z</time>
      </trkpt>
      <trkpt lat="65.519903032109141" lon="13.396138027310371">
        <ele>81.370000000000005</ele>
        <time>2017-06-22T11:26:50Z</time>
      </trkpt>
      <trkpt lat="65.520526980981231" lon="13.395945997908711">
        <ele>83.290000000000006</ele>
        <time>2017-06-22T11:26:53Z</time>
      </trkpt>
      <trkpt lat="65.520735019817948" lon="13.395948009565473">
        <ele>84.25</ele>
        <time>2017-06-22T11:26:54Z</time>
      </trkpt>
      <trkpt lat="65.520945992320776" lon="13.395996959879994">
        <ele>84.730000000000004</ele>
        <time>2017-06-22T11:26:55Z</time>
      </trkpt>
      <trkpt lat="65.522947004064918" lon="13.396404990926385">
        <ele>75.120000000000005</ele>
        <time>2017-06-22T11:27:05Z</time>
      </trkpt>
      <trkpt lat="65.523155964910984" lon="13.396354028955102">
        <ele>72.719999999999999</ele>
        <time>2017-06-22T11:27:06Z</time>
      </trkpt>
      <trkpt lat="65.523367021232843" lon="13.396261995658278">
        <ele>71.269999999999996</ele>
        <time>2017-06-22T11:27:07Z</time>
      </trkpt>
      <trkpt lat="65.523578999564052" lon="13.396137021481991">
        <ele>72.239999999999995</ele>
        <time>2017-06-22T11:27:08Z</time>
      </trkpt>
      <trkpt lat="65.523775974288583" lon="13.395972987636924">
        <ele>71.269999999999996</ele>
        <time>2017-06-22T11:27:09Z</time>
      </trkpt>
      <trkpt lat="65.523953000083566" lon="13.395796967670321">
        <ele>68.390000000000001</ele>
        <time>2017-06-22T11:27:10Z</time>
      </trkpt>
      <trkpt lat="65.525034014135599" lon="13.394834976643324">
        <ele>66.950000000000003</ele>
        <time>2017-06-22T11:27:17Z</time>
      </trkpt>
      <trkpt lat="65.525169968605042" lon="13.39480597525835">
        <ele>67.909999999999997</ele>
        <time>2017-06-22T11:27:18Z</time>
      </trkpt>
      <trkpt lat="65.525309024378657" lon="13.394807986915112">
        <ele>68.390000000000001</ele>
        <time>2017-06-22T11:27:19Z</time>
      </trkpt>
      <trkpt lat="65.525449002161622" lon="13.394843023270369">
        <ele>68.870000000000005</ele>
        <time>2017-06-22T11:27:20Z</time>
      </trkpt>
      <trkpt lat="65.52559501491487" lon="13.394903037697077">
        <ele>69.349999999999994</ele>
        <time>2017-06-22T11:27:21Z</time>
      </trkpt>
      <trkpt lat="65.526954978704453" lon="13.39499800466001">
        <ele>74.159999999999997</ele>
        <time>2017-06-22T11:27:30Z</time>
      </trkpt>
      <trkpt lat="65.527253961190581" lon="13.394938996061683">
        <ele>74.159999999999997</ele>
        <time>2017-06-22T11:27:32Z</time>
      </trkpt>
      <trkpt lat="65.52740097977221" lon="13.394942013546824">
        <ele>73.680000000000007</ele>
        <time>2017-06-22T11:27:33Z</time>
      </trkpt>
      <trkpt lat="65.527544980868697" lon="13.394981995224953">
        <ele>73.200000000000003</ele>
        <time>2017-06-22T11:27:34Z</time>
      </trkpt>
      <trkpt lat="65.527681019157171" lon="13.39506103657186">
        <ele>73.200000000000003</ele>
        <time>2017-06-22T11:27:35Z</time>
      </trkpt>
      <trkpt lat="65.527813034132123" lon="13.395191039890051">
        <ele>72.719999999999999</ele>
        <time>2017-06-22T11:27:36Z</time>
      </trkpt>
      <trkpt lat="65.527943037450314" lon="13.39534099213779">
        <ele>72.719999999999999</ele>
        <time>2017-06-22T11:27:37Z</time>
      </trkpt>
      <trkpt lat="65.528071029111743" lon="13.39551298879087">
        <ele>72.239999999999995</ele>
        <time>2017-06-22T11:27:38Z</time>
      </trkpt>
      <trkpt lat="65.529026985168457" lon="13.39748902246356">
        <ele>68.870000000000005</ele>
        <time>2017-06-22T11:27:46Z</time>
      </trkpt>
      <trkpt lat="65.530796991661191" lon="13.401664970442653">
        <ele>68.390000000000001</ele>
        <time>2017-06-22T11:28:00Z</time>
      </trkpt>
      <trkpt lat="65.532275978475809" lon="13.404903989285231">
        <ele>61.659999999999997</ele>
        <time>2017-06-22T11:28:13Z</time>
      </trkpt>
      <trkpt lat="65.533820008859038" lon="13.406646000221372">
        <ele>67.430000000000007</ele>
        <time>2017-06-22T11:28:24Z</time>
      </trkpt>
      <trkpt lat="65.535445008426905" lon="13.407118991017342">
        <ele>79.450000000000003</ele>
        <time>2017-06-22T11:28:33Z</time>
      </trkpt>
      <trkpt lat="65.537151983007789" lon="13.406371995806694">
        <ele>87.620000000000005</ele>
        <time>2017-06-22T11:28:42Z</time>
      </trkpt>
      <trkpt lat="65.538902962580323" lon="13.404935002326965">
        <ele>80.409999999999997</ele>
        <time>2017-06-22T11:28:52Z</time>
      </trkpt>
      <trkpt lat="65.540426960214972" lon="13.403468001633883">
        <ele>68.390000000000001</ele>
        <time>2017-06-22T11:29:00Z</time>
      </trkpt>
      <trkpt lat="65.541470004245639" lon="13.40210703201592">
        <ele>64.549999999999997</ele>
        <time>2017-06-22T11:29:06Z</time>
      </trkpt>
      <trkpt lat="65.541645018383861" lon="13.401825986802578">
        <ele>62.619999999999997</ele>
        <time>2017-06-22T11:29:07Z</time>
      </trkpt>
      <trkpt lat="65.541810980066657" lon="13.401505965739489">
        <ele>61.18</ele>
        <time>2017-06-22T11:29:08Z</time>
      </trkpt>
      <trkpt lat="65.541961016133428" lon="13.401130037382245">
        <ele>60.219999999999999</ele>
        <time>2017-06-22T11:29:09Z</time>
      </trkpt>
      <trkpt lat="65.543190976604819" lon="13.398449001833797">
        <ele>63.579999999999998</ele>
        <time>2017-06-22T11:29:17Z</time>
      </trkpt>
      <trkpt lat="65.543670002371073" lon="13.397751040756702">
        <ele>65.989999999999995</ele>
        <time>2017-06-22T11:29:20Z</time>
      </trkpt>
      <trkpt lat="65.543868988752365" lon="13.397646015509963">
        <ele>68.870000000000005</ele>
        <time>2017-06-22T11:29:21Z</time>
      </trkpt>
      <trkpt lat="65.544079039245844" lon="13.397595975548029">
        <ele>71.760000000000005</ele>
        <time>2017-06-22T11:29:22Z</time>
      </trkpt>
      <trkpt lat="65.544258998706937" lon="13.397593963891268">
        <ele>74.159999999999997</ele>
        <time>2017-06-22T11:29:23Z</time>
      </trkpt>
      <trkpt lat="65.54445999674499" lon="13.397625982761383">
        <ele>76.079999999999998</ele>
        <time>2017-06-22T11:29:24Z</time>
      </trkpt>
      <trkpt lat="65.546268979087472" lon="13.397961007431149">
        <ele>80.409999999999997</ele>
        <time>2017-06-22T11:29:33Z</time>
      </trkpt>
      <trkpt lat="65.546931987628341" lon="13.397950027137995">
        <ele>78.969999999999999</ele>
        <time>2017-06-22T11:29:37Z</time>
      </trkpt>
      <trkpt lat="65.547083029523492" lon="13.397836033254862">
        <ele>78.480000000000004</ele>
        <time>2017-06-22T11:29:38Z</time>
      </trkpt>
      <trkpt lat="65.547216972336173" lon="13.397664958611131">
        <ele>78.969999999999999</ele>
        <time>2017-06-22T11:29:39Z</time>
      </trkpt>
      <trkpt lat="65.547346975654364" lon="13.397447029128671">
        <ele>78</ele>
        <time>2017-06-22T11:29:40Z</time>
      </trkpt>
      <trkpt lat="65.547483013942838" lon="13.39723002165556">
        <ele>77.040000000000006</ele>
        <time>2017-06-22T11:29:41Z</time>
      </trkpt>
      <trkpt lat="65.547627015039325" lon="13.397070011124015">
        <ele>76.560000000000002</ele>
        <time>2017-06-22T11:29:42Z</time>
      </trkpt>
      <trkpt lat="65.547778978943825" lon="13.39697202667594">
        <ele>75.120000000000005</ele>
        <time>2017-06-22T11:29:43Z</time>
      </trkpt>
      <trkpt lat="65.547944018617272" lon="13.39693296700716">
        <ele>74.159999999999997</ele>
        <time>2017-06-22T11:29:44Z</time>
      </trkpt>
      <trkpt lat="65.548121966421604" lon="13.396945036947727">
        <ele>72.719999999999999</ele>
        <time>2017-06-22T11:29:45Z</time>
      </trkpt>
      <trkpt lat="65.548311984166503" lon="13.396977977827191">
        <ele>70.790000000000006</ele>
        <time>2017-06-22T11:29:46Z</time>
      </trkpt>
      <trkpt lat="65.5501339584589" lon="13.397045033052564">
        <ele>63.100000000000001</ele>
        <time>2017-06-22T11:29:54Z</time>
      </trkpt>
      <trkpt lat="65.554143022745848" lon="13.397036986425519">
        <ele>65.510000000000005</ele>
        <time>2017-06-22T11:30:12Z</time>
      </trkpt>
      <trkpt lat="65.556708974763751" lon="13.39667396619916">
        <ele>56.369999999999997</ele>
        <time>2017-06-22T11:30:25Z</time>
      </trkpt>
      <trkpt lat="65.558601021766663" lon="13.396534994244576">
        <ele>55.409999999999997</ele>
        <time>2017-06-22T11:30:34Z</time>
      </trkpt>
      <trkpt lat="65.559721011668444" lon="13.397268997505307">
        <ele>62.140000000000001</ele>
        <time>2017-06-22T11:30:40Z</time>
      </trkpt>
      <trkpt lat="65.55988596752286" lon="13.397474018856883">
        <ele>63.100000000000001</ele>
        <time>2017-06-22T11:30:41Z</time>
      </trkpt>
      <trkpt lat="65.560044972226024" lon="13.397724973037839">
        <ele>64.549999999999997</ele>
        <time>2017-06-22T11:30:42Z</time>
      </trkpt>
      <trkpt lat="65.560196014121175" lon="13.398015992715955">
        <ele>66.469999999999999</ele>
        <time>2017-06-22T11:30:43Z</time>
      </trkpt>
      <trkpt lat="65.560333980247378" lon="13.398325033485889">
        <ele>66.950000000000003</ele>
        <time>2017-06-22T11:30:44Z</time>
      </trkpt>
      <trkpt lat="65.56046498939395" lon="13.398642959073186">
        <ele>67.430000000000007</ele>
        <time>2017-06-22T11:30:45Z</time>
      </trkpt>
      <trkpt lat="65.560587029904127" lon="13.398981001228094">
        <ele>67.909999999999997</ele>
        <time>2017-06-22T11:30:46Z</time>
      </trkpt>
      <trkpt lat="65.560691971331835" lon="13.399347960948944">
        <ele>67.430000000000007</ele>
        <time>2017-06-22T11:30:47Z</time>
      </trkpt>
      <trkpt lat="65.560775035992265" lon="13.399747023358941">
        <ele>66.950000000000003</ele>
        <time>2017-06-22T11:30:48Z</time>
      </trkpt>
      <trkpt lat="65.560842007398605" lon="13.400162011384964">
        <ele>65.989999999999995</ele>
        <time>2017-06-22T11:30:49Z</time>
      </trkpt>
      <trkpt lat="65.560977961868048" lon="13.400856032967567">
        <ele>65.510000000000005</ele>
        <time>2017-06-22T11:30:51Z</time>
      </trkpt>
      <trkpt lat="65.561065971851349" lon="13.401116039603949">
        <ele>65.510000000000005</ele>
        <time>2017-06-22T11:30:52Z</time>
      </trkpt>
      <trkpt lat="65.561166973784566" lon="13.401317037642002">
        <ele>64.549999999999997</ele>
        <time>2017-06-22T11:30:53Z</time>
      </trkpt>
      <trkpt lat="65.561291025951505" lon="13.401458021253347">
        <ele>63.579999999999998</ele>
        <time>2017-06-22T11:30:54Z</time>
      </trkpt>
      <trkpt lat="65.561437038704753" lon="13.401537984609604">
        <ele>62.619999999999997</ele>
        <time>2017-06-22T11:30:55Z</time>
      </trkpt>
      <trkpt lat="65.561595037579536" lon="13.40157201513648">
        <ele>61.659999999999997</ele>
        <time>2017-06-22T11:30:56Z</time>
      </trkpt>
      <trkpt lat="65.561768962070346" lon="13.401580983772874">
        <ele>60.700000000000003</ele>
        <time>2017-06-22T11:30:57Z</time>
      </trkpt>
      <trkpt lat="65.563164968043566" lon="13.402104014530778">
        <ele>56.859999999999999</ele>
        <time>2017-06-22T11:31:04Z</time>
      </trkpt>
      <trkpt lat="65.565119041129947" lon="13.403353001922369">
        <ele>55.890000000000001</ele>
        <time>2017-06-22T11:31:14Z</time>
      </trkpt>
      <trkpt lat="65.567144025117159" lon="13.403900004923344">
        <ele>55.409999999999997</ele>
        <time>2017-06-22T11:31:24Z</time>
      </trkpt>
      <trkpt lat="65.570179028436542" lon="13.403187962248921">
        <ele>53.969999999999999</ele>
        <time>2017-06-22T11:31:39Z</time>
      </trkpt>
      <trkpt lat="65.570359993726015" lon="13.403062988072634">
        <ele>54.450000000000003</ele>
        <time>2017-06-22T11:31:40Z</time>
      </trkpt>
      <trkpt lat="65.570539031177759" lon="13.402886968106031">
        <ele>54.450000000000003</ele>
        <time>2017-06-22T11:31:41Z</time>
      </trkpt>
      <trkpt lat="65.57071203365922" lon="13.402669038623571">
        <ele>54.450000000000003</ele>
        <time>2017-06-22T11:31:42Z</time>
      </trkpt>
      <trkpt lat="65.570880006998777" lon="13.402422023937106">
        <ele>53.969999999999999</ele>
        <time>2017-06-22T11:31:43Z</time>
      </trkpt>
      <trkpt lat="65.571047980338335" lon="13.402141984552145">
        <ele>53.969999999999999</ele>
        <time>2017-06-22T11:31:44Z</time>
      </trkpt>
      <trkpt lat="65.57241297326982" lon="13.399908039718866">
        <ele>53.009999999999998</ele>
        <time>2017-06-22T11:31:52Z</time>
      </trkpt>
      <trkpt lat="65.574098993092775" lon="13.39824297465384">
        <ele>61.659999999999997</ele>
        <time>2017-06-22T11:32:01Z</time>
      </trkpt>
      <trkpt lat="65.575050003826618" lon="13.398137027397752">
        <ele>58.299999999999997</ele>
        <time>2017-06-22T11:32:06Z</time>
      </trkpt>
      <trkpt lat="65.575197022408247" lon="13.398205004632473">
        <ele>57.82</ele>
        <time>2017-06-22T11:32:07Z</time>
      </trkpt>
      <trkpt lat="65.575320990756154" lon="13.398324027657509">
        <ele>56.859999999999999</ele>
        <time>2017-06-22T11:32:08Z</time>
      </trkpt>
      <trkpt lat="65.575430961325765" lon="13.398529971018434">
        <ele>56.859999999999999</ele>
        <time>2017-06-22T11:32:09Z</time>
      </trkpt>
      <trkpt lat="65.575520982965827" lon="13.398800035938621">
        <ele>55.409999999999997</ele>
        <time>2017-06-22T11:32:10Z</time>
      </trkpt>
      <trkpt lat="65.575616033747792" lon="13.399128019809723">
        <ele>53.969999999999999</ele>
        <time>2017-06-22T11:32:11Z</time>
      </trkpt>
      <trkpt lat="65.575723992660642" lon="13.399419039487839">
        <ele>52.530000000000001</ele>
        <time>2017-06-22T11:32:12Z</time>
      </trkpt>
      <trkpt lat="65.575853995978832" lon="13.399674016982317">
        <ele>51.57</ele>
        <time>2017-06-22T11:32:13Z</time>
      </trkpt>
      <trkpt lat="65.576003026217222" lon="13.39987400919199">
        <ele>50.609999999999999</ele>
        <time>2017-06-22T11:32:14Z</time>
      </trkpt>
      <trkpt lat="65.576165970414877" lon="13.40002697892487">
        <ele>50.130000000000003</ele>
        <time>2017-06-22T11:32:15Z</time>
      </trkpt>
      <trkpt lat="65.576339978724718" lon="13.400152958929539">
        <ele>50.130000000000003</ele>
        <time>2017-06-22T11:32:16Z</time>
      </trkpt>
      <trkpt lat="65.576848005875945" lon="13.4004329983145">
        <ele>49.159999999999997</ele>
        <time>2017-06-22T11:32:19Z</time>
      </trkpt>
      <trkpt lat="65.577021008357406" lon="13.400448001921177">
        <ele>48.68</ele>
        <time>2017-06-22T11:32:20Z</time>
      </trkpt>
      <trkpt lat="65.577199039980769" lon="13.400397039949894">
        <ele>48.200000000000003</ele>
        <time>2017-06-22T11:32:21Z</time>
      </trkpt>
      <trkpt lat="65.57737497612834" lon="13.400287991389632">
        <ele>47.719999999999999</ele>
        <time>2017-06-22T11:32:22Z</time>
      </trkpt>
      <trkpt lat="65.577554013580084" lon="13.400136027485132">
        <ele>46.759999999999998</ele>
        <time>2017-06-22T11:32:23Z</time>
      </trkpt>
      <trkpt lat="65.578287011012435" lon="13.399680973961949">
        <ele>43.399999999999999</ele>
        <time>2017-06-22T11:32:27Z</time>
      </trkpt>
      <trkpt lat="65.578465964645147" lon="13.399670999497175">
        <ele>42.439999999999998</ele>
        <time>2017-06-22T11:32:28Z</time>
      </trkpt>
      <trkpt lat="65.578650031238794" lon="13.399704024195671">
        <ele>41.469999999999999</ele>
        <time>2017-06-22T11:32:29Z</time>
      </trkpt>
      <trkpt lat="65.579447988420725" lon="13.399806031957269">
        <ele>39.549999999999997</ele>
        <time>2017-06-22T11:32:33Z</time>
      </trkpt>
      <trkpt lat="65.579658960923553" lon="13.399770995602012">
        <ele>40.030000000000001</ele>
        <time>2017-06-22T11:32:34Z</time>
      </trkpt>
      <trkpt lat="65.579872028902173" lon="13.399704024195671">
        <ele>40.030000000000001</ele>
        <time>2017-06-22T11:32:35Z</time>
      </trkpt>
      <trkpt lat="65.580078978091478" lon="13.399598998948932">
        <ele>40.509999999999998</ele>
        <time>2017-06-22T11:32:36Z</time>
      </trkpt>
      <trkpt lat="65.580281987786293" lon="13.399453992024064">
        <ele>40.509999999999998</ele>
        <time>2017-06-22T11:32:37Z</time>
      </trkpt>
      <trkpt lat="65.580481979995966" lon="13.399273026734591">
        <ele>40.990000000000002</ele>
        <time>2017-06-22T11:32:38Z</time>
      </trkpt>
      <trkpt lat="65.580679038539529" lon="13.399040009826422">
        <ele>41.950000000000003</ele>
        <time>2017-06-22T11:32:39Z</time>
      </trkpt>
      <trkpt lat="65.580868972465396" lon="13.398780003190041">
        <ele>42.920000000000002</ele>
        <time>2017-06-22T11:32:40Z</time>
      </trkpt>
      <trkpt lat="65.581425027921796" lon="13.398080030456185">
        <ele>46.280000000000001</ele>
        <time>2017-06-22T11:32:43Z</time>
      </trkpt>
      <trkpt lat="65.581613034009933" lon="13.397932006046176">
        <ele>47.719999999999999</ele>
        <time>2017-06-22T11:32:44Z</time>
      </trkpt>
      <trkpt lat="65.582169005647302" lon="13.397498996928334">
        <ele>51.57</ele>
        <time>2017-06-22T11:32:47Z</time>
      </trkpt>
      <trkpt lat="65.58231602422893" lon="13.397232033312321">
        <ele>52.530000000000001</ele>
        <time>2017-06-22T11:32:48Z</time>
      </trkpt>
      <trkpt lat="65.582432029768825" lon="13.39688896201551">
        <ele>53.969999999999999</ele>
        <time>2017-06-22T11:32:49Z</time>
      </trkpt>
      <trkpt lat="65.582630010321736" lon="13.396180020645261">
        <ele>55.890000000000001</ele>
        <time>2017-06-22T11:32:51Z</time>
      </trkpt>
      <trkpt lat="65.582738975062966" lon="13.395855976268649">
        <ele>57.340000000000003</ele>
        <time>2017-06-22T11:32:52Z</time>
      </trkpt>
      <trkpt lat="65.5832190066576" lon="13.394711008295417">
        <ele>63.100000000000001</ele>
        <time>2017-06-22T11:32:56Z</time>
      </trkpt>
      <trkpt lat="65.583352027460933" lon="13.394498024135828">
        <ele>64.069999999999993</ele>
        <time>2017-06-22T11:32:57Z</time>
      </trkpt>
      <trkpt lat="65.58347700163722" lon="13.394324015825987">
        <ele>64.069999999999993</ele>
        <time>2017-06-22T11:32:58Z</time>
      </trkpt>
      <trkpt lat="65.583621002733707" lon="13.394208010286093">
        <ele>64.069999999999993</ele>
        <time>2017-06-22T11:32:59Z</time>
      </trkpt>
      <trkpt lat="65.583770032972097" lon="13.394123017787933">
        <ele>64.549999999999997</ele>
        <time>2017-06-22T11:33:00Z</time>
      </trkpt>
      <trkpt lat="65.583915961906314" lon="13.394059985876083">
        <ele>65.030000000000001</ele>
        <time>2017-06-22T11:33:01Z</time>
      </trkpt>
      <trkpt lat="65.585425961762667" lon="13.393566962331533">
        <ele>66.950000000000003</ele>
        <time>2017-06-22T11:33:11Z</time>
      </trkpt>
      <trkpt lat="65.586826996877789" lon="13.393080979585648">
        <ele>65.030000000000001</ele>
        <time>2017-06-22T11:33:20Z</time>
      </trkpt>
      <trkpt lat="65.586966974660754" lon="13.392930021509528">
        <ele>64.549999999999997</ele>
        <time>2017-06-22T11:33:21Z</time>
      </trkpt>
      <trkpt lat="65.587088009342551" lon="13.392717959359288">
        <ele>64.549999999999997</ele>
        <time>2017-06-22T11:33:22Z</time>
      </trkpt>
      <trkpt lat="65.587183982133865" lon="13.392436997964978">
        <ele>64.549999999999997</ele>
        <time>2017-06-22T11:33:23Z</time>
      </trkpt>
      <trkpt lat="65.587255982682109" lon="13.392114965245128">
        <ele>64.549999999999997</ele>
        <time>2017-06-22T11:33:24Z</time>
      </trkpt>
      <trkpt lat="65.587320020422339" lon="13.391779018566012">
        <ele>64.069999999999993</ele>
        <time>2017-06-22T11:33:25Z</time>
      </trkpt>
      <trkpt lat="65.587482964619994" lon="13.391097988933325">
        <ele>63.100000000000001</ele>
        <time>2017-06-22T11:33:27Z</time>
      </trkpt>
      <trkpt lat="65.587591007351875" lon="13.390770005062222">
        <ele>62.140000000000001</ele>
        <time>2017-06-22T11:33:28Z</time>
      </trkpt>
      <trkpt lat="65.588152008131146" lon="13.389281965792179">
        <ele>57.82</ele>
        <time>2017-06-22T11:33:33Z</time>
      </trkpt>
      <trkpt lat="65.588285028934479" lon="13.389032017439604">
        <ele>56.369999999999997</ele>
        <time>2017-06-22T11:33:34Z</time>
      </trkpt>
      <trkpt lat="65.588878970593214" lon="13.388280998915434">
        <ele>53.490000000000002</ele>
        <time>2017-06-22T11:33:38Z</time>
      </trkpt>
      <trkpt lat="65.589039986953139" lon="13.388169016689062">
        <ele>52.530000000000001</ele>
        <time>2017-06-22T11:33:39Z</time>
      </trkpt>
      <trkpt lat="65.589208966121078" lon="13.388093998655677">
        <ele>52.049999999999997</ele>
        <time>2017-06-22T11:33:40Z</time>
      </trkpt>
      <trkpt lat="65.589378029108047" lon="13.388048987835646">
        <ele>51.090000000000003</ele>
        <time>2017-06-22T11:33:41Z</time>
      </trkpt>
      <trkpt lat="65.589549019932747" lon="13.388042030856013">
        <ele>50.609999999999999</ele>
        <time>2017-06-22T11:33:42Z</time>
      </trkpt>
      <trkpt lat="65.589719004929066" lon="13.388084024190903">
        <ele>50.130000000000003</ele>
        <time>2017-06-22T11:33:43Z</time>
      </trkpt>
      <trkpt lat="65.589883960783482" lon="13.388162981718779">
        <ele>49.649999999999999</ele>
        <time>2017-06-22T11:33:44Z</time>
      </trkpt>
      <trkpt lat="65.590041959658265" lon="13.388311006128788">
        <ele>48.68</ele>
        <time>2017-06-22T11:33:45Z</time>
      </trkpt>
      <trkpt lat="65.590193001553416" lon="13.388502029702067">
        <ele>48.68</ele>
        <time>2017-06-22T11:33:46Z</time>
      </trkpt>
      <trkpt lat="65.590348988771439" lon="13.388703027740121">
        <ele>48.68</ele>
        <time>2017-06-22T11:33:47Z</time>
      </trkpt>
      <trkpt lat="65.590506987646222" lon="13.388869995251298">
        <ele>48.68</ele>
        <time>2017-06-22T11:33:48Z</time>
      </trkpt>
      <trkpt lat="65.59067202731967" lon="13.389004021883011">
        <ele>49.159999999999997</ele>
        <time>2017-06-22T11:33:49Z</time>
      </trkpt>
      <trkpt lat="65.592153025791049" lon="13.389470977708697">
        <ele>49.649999999999999</ele>
        <time>2017-06-22T11:33:58Z</time>
      </trkpt>
      <trkpt lat="65.59247899800539" lon="13.389486987143755">
        <ele>49.649999999999999</ele>
        <time>2017-06-22T11:34:00Z</time>
      </trkpt>
      <trkpt lat="65.59263096190989" lon="13.389424039050937">
        <ele>49.649999999999999</ele>
        <time>2017-06-22T11:34:01Z</time>
      </trkpt>
      <trkpt lat="65.592771023511887" lon="13.38928297162056">
        <ele>50.130000000000003</ele>
        <time>2017-06-22T11:34:02Z</time>
      </trkpt>
      <trkpt lat="65.592892980203032" lon="13.389056995511055">
        <ele>51.090000000000003</ele>
        <time>2017-06-22T11:34:03Z</time>
      </trkpt>
      <trkpt lat="65.592998005449772" lon="13.3887679874897">
        <ele>52.049999999999997</ele>
        <time>2017-06-22T11:34:04Z</time>
      </trkpt>
      <trkpt lat="65.593090038746595" lon="13.388448972254992">
        <ele>52.530000000000001</ele>
        <time>2017-06-22T11:34:05Z</time>
      </trkpt>
      <trkpt lat="65.593176037073135" lon="13.388135991990566">
        <ele>53.009999999999998</ele>
        <time>2017-06-22T11:34:06Z</time>
      </trkpt>
      <trkpt lat="65.593373011797667" lon="13.387561999261379">
        <ele>54.93</ele>
        <time>2017-06-22T11:34:08Z</time>
      </trkpt>
      <trkpt lat="65.593491028994322" lon="13.387322025373578">
        <ele>55.409999999999997</ele>
        <time>2017-06-22T11:34:09Z</time>
      </trkpt>
      <trkpt lat="65.593621032312512" lon="13.387110969051719">
        <ele>56.369999999999997</ele>
        <time>2017-06-22T11:34:10Z</time>
      </trkpt>
      <trkpt lat="65.594838000833988" lon="13.384866965934634">
        <ele>53.969999999999999</ele>
        <time>2017-06-22T11:34:19Z</time>
      </trkpt>
      <trkpt lat="65.595774007961154" lon="13.383376998826861">
        <ele>48.200000000000003</ele>
        <time>2017-06-22T11:34:25Z</time>
      </trkpt>
      <trkpt lat="65.595924966037273" lon="13.38305396027863">
        <ele>47.719999999999999</ele>
        <time>2017-06-22T11:34:26Z</time>
      </trkpt>
      <trkpt lat="65.59606796130538" lon="13.382681971415877">
        <ele>46.759999999999998</ele>
        <time>2017-06-22T11:34:27Z</time>
      </trkpt>
      <trkpt lat="65.596202993765473" lon="13.382274024188519">
        <ele>46.280000000000001</ele>
        <time>2017-06-22T11:34:28Z</time>
      </trkpt>
      <trkpt lat="65.596328973770142" lon="13.381844032555819">
        <ele>46.280000000000001</ele>
        <time>2017-06-22T11:34:29Z</time>
      </trkpt>
      <trkpt lat="65.596446990966797" lon="13.3813960198313">
        <ele>45.799999999999997</ele>
        <time>2017-06-22T11:34:30Z</time>
      </trkpt>
      <trkpt lat="65.59711704030633" lon="13.378078965470195">
        <ele>45.32</ele>
        <time>2017-06-22T11:34:37Z</time>
      </trkpt>
      <trkpt lat="65.597170013934374" lon="13.377562975510955">
        <ele>45.799999999999997</ele>
        <time>2017-06-22T11:34:38Z</time>
      </trkpt>
      <trkpt lat="65.597204966470599" lon="13.37703499943018">
        <ele>45.799999999999997</ele>
        <time>2017-06-22T11:34:39Z</time>
      </trkpt>
      <trkpt lat="65.597238996997476" lon="13.375024013221264">
        <ele>45.799999999999997</ele>
        <time>2017-06-22T11:34:43Z</time>
      </trkpt>
      <trkpt lat="65.597189962863922" lon="13.37452202104032">
        <ele>45.799999999999997</ele>
        <time>2017-06-22T11:34:44Z</time>
      </trkpt>
      <trkpt lat="65.597129026427865" lon="13.374014999717474">
        <ele>45.799999999999997</ele>
        <time>2017-06-22T11:34:45Z</time>
      </trkpt>
      <trkpt lat="65.596557967364788" lon="13.369092978537083">
        <ele>44.840000000000003</ele>
        <time>2017-06-22T11:34:55Z</time>
      </trkpt>
      <trkpt lat="65.596540030092001" lon="13.365079974755645">
        <ele>46.280000000000001</ele>
        <time>2017-06-22T11:35:03Z</time>
      </trkpt>
      <trkpt lat="65.596609013155103" lon="13.359166039153934">
        <ele>47.719999999999999</ele>
        <time>2017-06-22T11:35:14Z</time>
      </trkpt>
      <trkpt lat="65.596727030351758" lon="13.352325987070799">
        <ele>46.280000000000001</ele>
        <time>2017-06-22T11:35:26Z</time>
      </trkpt>
      <trkpt lat="65.597042022272944" lon="13.346830978989601">
        <ele>49.159999999999997</ele>
        <time>2017-06-22T11:35:36Z</time>
      </trkpt>
      <trkpt lat="65.597238996997476" lon="13.33814699202776">
        <ele>51.57</ele>
        <time>2017-06-22T11:35:51Z</time>
      </trkpt>
      <trkpt lat="65.597782982513309" lon="13.333966014906764">
        <ele>55.409999999999997</ele>
        <time>2017-06-22T11:35:59Z</time>
      </trkpt>
      <trkpt lat="65.59814902022481" lon="13.332698000594974">
        <ele>57.82</ele>
        <time>2017-06-22T11:36:02Z</time>
      </trkpt>
      <trkpt lat="65.598299978300929" lon="13.332336992025375">
        <ele>58.299999999999997</ele>
        <time>2017-06-22T11:36:03Z</time>
      </trkpt>
      <trkpt lat="65.59853701852262" lon="13.332077991217375">
        <ele>59.740000000000002</ele>
        <time>2017-06-22T11:36:04Z</time>
      </trkpt>
      <trkpt lat="65.598742039874196" lon="13.331802980974317">
        <ele>60.700000000000003</ele>
        <time>2017-06-22T11:36:05Z</time>
      </trkpt>
      <trkpt lat="65.598934991285205" lon="13.331540040671825">
        <ele>60.700000000000003</ele>
        <time>2017-06-22T11:36:06Z</time>
      </trkpt>
      <trkpt lat="65.59943899512291" lon="13.330921959131956">
        <ele>61.659999999999997</ele>
        <time>2017-06-22T11:36:10Z</time>
      </trkpt>
      <trkpt lat="65.600237958133221" lon="13.329799035564065">
        <ele>64.549999999999997</ele>
        <time>2017-06-22T11:36:18Z</time>
      </trkpt>
      <trkpt lat="65.601456016302109" lon="13.328583994880319">
        <ele>60.700000000000003</ele>
        <time>2017-06-22T11:36:25Z</time>
      </trkpt>
      <trkpt lat="65.6029640045017" lon="13.327389992773533">
        <ele>54.450000000000003</ele>
        <time>2017-06-22T11:36:32Z</time>
      </trkpt>
      <trkpt lat="65.604621022939682" lon="13.32489101216197">
        <ele>53.490000000000002</ele>
        <time>2017-06-22T11:36:40Z</time>
      </trkpt>
      <trkpt lat="65.606206962838769" lon="13.322515999898314">
        <ele>50.609999999999999</ele>
        <time>2017-06-22T11:36:48Z</time>
      </trkpt>
      <trkpt lat="65.607534991577268" lon="13.318893006071448">
        <ele>49.159999999999997</ele>
        <time>2017-06-22T11:36:57Z</time>
      </trkpt>
      <trkpt lat="65.608994029462337" lon="13.313084011897445">
        <ele>59.740000000000002</ele>
        <time>2017-06-22T11:37:10Z</time>
      </trkpt>
      <trkpt lat="65.609589982777834" lon="13.311604019254446">
        <ele>62.619999999999997</ele>
        <time>2017-06-22T11:37:14Z</time>
      </trkpt>
      <trkpt lat="65.60977203771472" lon="13.311315011233091">
        <ele>63.579999999999998</ele>
        <time>2017-06-22T11:37:15Z</time>
      </trkpt>
      <trkpt lat="65.609960965812206" lon="13.311050981283188">
        <ele>64.069999999999993</ele>
        <time>2017-06-22T11:37:16Z</time>
      </trkpt>
      <trkpt lat="65.61016296967864" lon="13.310815030708909">
        <ele>64.549999999999997</ele>
        <time>2017-06-22T11:37:17Z</time>
      </trkpt>
      <trkpt lat="65.6103740260005" lon="13.310621995478868">
        <ele>65.030000000000001</ele>
        <time>2017-06-22T11:37:18Z</time>
      </trkpt>
      <trkpt lat="65.610586004331708" lon="13.310454022139311">
        <ele>65.989999999999995</ele>
        <time>2017-06-22T11:37:19Z</time>
      </trkpt>
      <trkpt lat="65.610803011804819" lon="13.310329969972372">
        <ele>66.469999999999999</ele>
        <time>2017-06-22T11:37:20Z</time>
      </trkpt>
      <trkpt lat="65.611018007621169" lon="13.310219999402761">
        <ele>65.989999999999995</ele>
        <time>2017-06-22T11:37:21Z</time>
      </trkpt>
      <trkpt lat="65.612798994407058" lon="13.309852033853531">
        <ele>64.549999999999997</ele>
        <time>2017-06-22T11:37:29Z</time>
      </trkpt>
      <trkpt lat="65.614720964804292" lon="13.308653002604842">
        <ele>53.969999999999999</ele>
        <time>2017-06-22T11:37:38Z</time>
      </trkpt>
      <trkpt lat="65.616629021242261" lon="13.307298989966512">
        <ele>48.68</ele>
        <time>2017-06-22T11:37:48Z</time>
      </trkpt>
      <trkpt lat="65.616785008460283" lon="13.307197988033295">
        <ele>48.200000000000003</ele>
        <time>2017-06-22T11:37:50Z</time>
      </trkpt>
      <trkpt lat="65.616862960159779" lon="13.307081982493401">
        <ele>45.799999999999997</ele>
        <time>2017-06-22T11:37:53Z</time>
      </trkpt>
      <trkpt lat="65.61686597764492" lon="13.306979974731803">
        <ele>44.840000000000003</ele>
        <time>2017-06-22T11:37:54Z</time>
      </trkpt>
      <trkpt lat="65.616876035928726" lon="13.306792974472046">
        <ele>44.359999999999999</ele>
        <time>2017-06-22T11:37:56Z</time>
      </trkpt>
      <trkpt lat="65.616899002343416" lon="13.306703036651015">
        <ele>44.359999999999999</ele>
        <time>2017-06-22T11:37:57Z</time>
      </trkpt>
      <trkpt lat="65.616947030648589" lon="13.306630030274391">
        <ele>45.32</ele>
        <time>2017-06-22T11:37:58Z</time>
      </trkpt>
      <trkpt lat="65.617008972913027" lon="13.306583007797599">
        <ele>45.799999999999997</ele>
        <time>2017-06-22T11:37:59Z</time>
      </trkpt>
      <trkpt lat="65.61707996763289" lon="13.306573033332825">
        <ele>45.799999999999997</ele>
        <time>2017-06-22T11:38:00Z</time>
      </trkpt>
      <trkpt lat="65.617156997323036" lon="13.306569010019302">
        <ele>45.799999999999997</ele>
        <time>2017-06-22T11:38:01Z</time>
      </trkpt>
      <trkpt lat="65.618099039420485" lon="13.306377986446023">
        <ele>42.920000000000002</ele>
        <time>2017-06-22T11:38:11Z</time>
      </trkpt>
      <trkpt lat="65.618284028023481" lon="13.306363988667727">
        <ele>46.759999999999998</ele>
        <time>2017-06-22T11:38:17Z</time>
      </trkpt>
      <trkpt lat="65.61828101053834" lon="13.306357031688094">
        <ele>48.200000000000003</ele>
        <time>2017-06-22T11:39:55Z</time>
      </trkpt>
      <trkpt lat="65.618280004709959" lon="13.306360971182585">
        <ele>47.719999999999999</ele>
        <time>2017-06-22T11:41:30Z</time>
      </trkpt>
      <trkpt lat="65.618256032466888" lon="13.306364994496107">
        <ele>41.469999999999999</ele>
        <time>2017-06-22T11:45:09Z</time>
      </trkpt>
      <trkpt lat="65.618357034400105" lon="13.306399025022984">
        <ele>49.159999999999997</ele>
        <time>2017-06-22T11:45:25Z</time>
      </trkpt>
      <trkpt lat="65.618513021618128" lon="13.306675041094422">
        <ele>48.68</ele>
        <time>2017-06-22T11:45:30Z</time>
      </trkpt>
      <trkpt lat="65.61858200468123" lon="13.30669398419559">
        <ele>48.200000000000003</ele>
        <time>2017-06-22T11:45:31Z</time>
      </trkpt>
      <trkpt lat="65.618662973865867" lon="13.306697001680732">
        <ele>48.200000000000003</ele>
        <time>2017-06-22T11:45:32Z</time>
      </trkpt>
      <trkpt lat="65.619630999863148" lon="13.306494997814298">
        <ele>47.240000000000002</ele>
        <time>2017-06-22T11:45:40Z</time>
      </trkpt>
      <trkpt lat="65.621061036363244" lon="13.305679019540548">
        <ele>45.32</ele>
        <time>2017-06-22T11:45:49Z</time>
      </trkpt>
      <trkpt lat="65.622428962960839" lon="13.303885962814093">
        <ele>44.840000000000003</ele>
        <time>2017-06-22T11:45:57Z</time>
      </trkpt>
      <trkpt lat="65.62257899902761" lon="13.303546998649836">
        <ele>44.359999999999999</ele>
        <time>2017-06-22T11:45:58Z</time>
      </trkpt>
      <trkpt lat="65.623336974531412" lon="13.300525993108749">
        <ele>48.200000000000003</ele>
        <time>2017-06-22T11:46:05Z</time>
      </trkpt>
      <trkpt lat="65.624444978311658" lon="13.295716037973762">
        <ele>63.579999999999998</ele>
        <time>2017-06-22T11:46:16Z</time>
      </trkpt>
      <trkpt lat="65.625618025660515" lon="13.293534982949495">
        <ele>73.200000000000003</ele>
        <time>2017-06-22T11:46:23Z</time>
      </trkpt>
      <trkpt lat="65.628195041790605" lon="13.290313985198736">
        <ele>81.849999999999994</ele>
        <time>2017-06-22T11:46:36Z</time>
      </trkpt>
      <trkpt lat="65.629296004772186" lon="13.289610994979739">
        <ele>79.450000000000003</ele>
        <time>2017-06-22T11:46:42Z</time>
      </trkpt>
      <trkpt lat="65.630695028230548" lon="13.289662962779403">
        <ele>90.5</ele>
        <time>2017-06-22T11:46:50Z</time>
      </trkpt>
      <trkpt lat="65.632705008611083" lon="13.289921041578054">
        <ele>95.790000000000006</ele>
        <time>2017-06-22T11:47:01Z</time>
      </trkpt>
      <trkpt lat="65.633697006851435" lon="13.288975981995463">
        <ele>101.08</ele>
        <time>2017-06-22T11:47:07Z</time>
      </trkpt>
      <trkpt lat="65.634547015652061" lon="13.286923002451658">
        <ele>107.31999999999999</ele>
        <time>2017-06-22T11:47:14Z</time>
      </trkpt>
      <trkpt lat="65.635648984462023" lon="13.283180985599756">
        <ele>112.13</ele>
        <time>2017-06-22T11:47:25Z</time>
      </trkpt>
      <trkpt lat="65.636831000447273" lon="13.281075032427907">
        <ele>108.77</ele>
        <time>2017-06-22T11:47:33Z</time>
      </trkpt>
      <trkpt lat="65.638233963400126" lon="13.280041040852666">
        <ele>105.88</ele>
        <time>2017-06-22T11:47:41Z</time>
      </trkpt>
      <trkpt lat="65.639711022377014" lon="13.280144976451993">
        <ele>107.31999999999999</ele>
        <time>2017-06-22T11:47:49Z</time>
      </trkpt>
      <trkpt lat="65.641071991994977" lon="13.281304026022553">
        <ele>108.29000000000001</ele>
        <time>2017-06-22T11:47:57Z</time>
      </trkpt>
      <trkpt lat="65.642201034352183" lon="13.28192001208663">
        <ele>108.77</ele>
        <time>2017-06-22T11:48:04Z</time>
      </trkpt>
      <trkpt lat="65.644137002527714" lon="13.281583981588483">
        <ele>110.20999999999999</ele>
        <time>2017-06-22T11:48:15Z</time>
      </trkpt>
      <trkpt lat="65.64599996432662" lon="13.281266978010535">
        <ele>112.13</ele>
        <time>2017-06-22T11:48:25Z</time>
      </trkpt>
      <trkpt lat="65.647784974426031" lon="13.28093103133142">
        <ele>115.5</ele>
        <time>2017-06-22T11:48:35Z</time>
      </trkpt>
      <trkpt lat="65.649399999529123" lon="13.280275985598564">
        <ele>120.3</ele>
        <time>2017-06-22T11:48:43Z</time>
      </trkpt>
      <trkpt lat="65.652479007840157" lon="13.278583008795977">
        <ele>127.98999999999999</ele>
        <time>2017-06-22T11:48:57Z</time>
      </trkpt>
      <trkpt lat="65.655595986172557" lon="13.275845982134342">
        <ele>125.59</ele>
        <time>2017-06-22T11:49:12Z</time>
      </trkpt>
      <trkpt lat="65.658125979825854" lon="13.274110006168485">
        <ele>109.25</ele>
        <time>2017-06-22T11:49:23Z</time>
      </trkpt>
      <trkpt lat="65.659730024635792" lon="13.273356975987554">
        <ele>99.629999999999995</ele>
        <time>2017-06-22T11:49:30Z</time>
      </trkpt>
      <trkpt lat="65.66148997284472" lon="13.271595016121864">
        <ele>94.349999999999994</ele>
        <time>2017-06-22T11:49:38Z</time>
      </trkpt>
      <trkpt lat="65.663540018722415" lon="13.270327001810074">
        <ele>82.329999999999998</ele>
        <time>2017-06-22T11:49:47Z</time>
      </trkpt>
      <trkpt lat="65.665629962459207" lon="13.268224988132715">
        <ele>81.370000000000005</ele>
        <time>2017-06-22T11:49:57Z</time>
      </trkpt>
      <trkpt lat="65.667410027235746" lon="13.267743028700352">
        <ele>84.25</ele>
        <time>2017-06-22T11:50:05Z</time>
      </trkpt>
      <trkpt lat="65.669210040941834" lon="13.266836022958159">
        <ele>83.769999999999996</ele>
        <time>2017-06-22T11:50:13Z</time>
      </trkpt>
      <trkpt lat="65.670549971982837" lon="13.264742977917194">
        <ele>82.810000000000002</ele>
        <time>2017-06-22T11:50:20Z</time>
      </trkpt>
      <trkpt lat="65.672306986525655" lon="13.262332007288933">
        <ele>88.579999999999998</ele>
        <time>2017-06-22T11:50:29Z</time>
      </trkpt>
      <trkpt lat="65.67468099296093" lon="13.260689992457628">
        <ele>98.189999999999998</ele>
        <time>2017-06-22T11:50:40Z</time>
      </trkpt>
      <trkpt lat="65.678625013679266" lon="13.258099984377623">
        <ele>104.44</ele>
        <time>2017-06-22T11:50:58Z</time>
      </trkpt>
      <trkpt lat="65.680435001850128" lon="13.257616013288498">
        <ele>104.92</ele>
        <time>2017-06-22T11:51:06Z</time>
      </trkpt>
      <trkpt lat="65.683728000149131" lon="13.258039969950914">
        <ele>102.52</ele>
        <time>2017-06-22T11:51:20Z</time>
      </trkpt>
      <trkpt lat="65.687175979837775" lon="13.258085986599326">
        <ele>107.81</ele>
        <time>2017-06-22T11:51:35Z</time>
      </trkpt>
      <trkpt lat="65.689353011548519" lon="13.259105980396271">
        <ele>123.19</ele>
        <time>2017-06-22T11:51:45Z</time>
      </trkpt>
      <trkpt lat="65.691602965816855" lon="13.259329022839665">
        <ele>128.94999999999999</ele>
        <time>2017-06-22T11:51:55Z</time>
      </trkpt>
      <trkpt lat="65.693182032555342" lon="13.259934028610587">
        <ele>130.88</ele>
        <time>2017-06-22T11:52:02Z</time>
      </trkpt>
      <trkpt lat="65.694613996893167" lon="13.261820962652564">
        <ele>132.31999999999999</ele>
        <time>2017-06-22T11:52:09Z</time>
      </trkpt>
      <trkpt lat="65.696183005347848" lon="13.26288697309792">
        <ele>133.28</ele>
        <time>2017-06-22T11:52:16Z</time>
      </trkpt>
      <trkpt lat="65.698541002348065" lon="13.26483903452754">
        <ele>143.84999999999999</ele>
        <time>2017-06-22T11:52:27Z</time>
      </trkpt>
      <trkpt lat="65.699886968359351" lon="13.266952028498054">
        <ele>142.41</ele>
        <time>2017-06-22T11:52:34Z</time>
      </trkpt>
      <trkpt lat="65.701350029557943" lon="13.269972028210759">
        <ele>133.75999999999999</ele>
        <time>2017-06-22T11:52:42Z</time>
      </trkpt>
      <trkpt lat="65.70272097364068" lon="13.271213974803686">
        <ele>129.91999999999999</ele>
        <time>2017-06-22T11:52:48Z</time>
      </trkpt>
      <trkpt lat="65.704357037320733" lon="13.271231995895505">
        <ele>130.40000000000001</ele>
        <time>2017-06-22T11:52:55Z</time>
      </trkpt>
      <trkpt lat="65.706175994127989" lon="13.27042699791491">
        <ele>130.88</ele>
        <time>2017-06-22T11:53:03Z</time>
      </trkpt>
      <trkpt lat="65.707742990925908" lon="13.271149015054107">
        <ele>129.91999999999999</ele>
        <time>2017-06-22T11:53:10Z</time>
      </trkpt>
      <trkpt lat="65.709432028234005" lon="13.273195959627628">
        <ele>124.63</ele>
        <time>2017-06-22T11:53:18Z</time>
      </trkpt>
      <trkpt lat="65.710364012047648" lon="13.275671973824501">
        <ele>124.63</ele>
        <time>2017-06-22T11:53:24Z</time>
      </trkpt>
      <trkpt lat="65.711601013317704" lon="13.280371036380529">
        <ele>122.70999999999999</ele>
        <time>2017-06-22T11:53:35Z</time>
      </trkpt>
      <trkpt lat="65.711675025522709" lon="13.280837992206216">
        <ele>122.22</ele>
        <time>2017-06-22T11:53:36Z</time>
      </trkpt>
      <trkpt lat="65.711732022464275" lon="13.281330009922385">
        <ele>122.22</ele>
        <time>2017-06-22T11:53:37Z</time>
      </trkpt>
      <trkpt lat="65.711984988301992" lon="13.283362034708261">
        <ele>120.3</ele>
        <time>2017-06-22T11:53:41Z</time>
      </trkpt>
      <trkpt lat="65.712090013548732" lon="13.283827984705567">
        <ele>119.81999999999999</ele>
        <time>2017-06-22T11:53:42Z</time>
      </trkpt>
      <trkpt lat="65.712219011038542" lon="13.284256970509887">
        <ele>119.34</ele>
        <time>2017-06-22T11:53:43Z</time>
      </trkpt>
      <trkpt lat="65.712367035448551" lon="13.284644968807697">
        <ele>118.38</ele>
        <time>2017-06-22T11:53:44Z</time>
      </trkpt>
      <trkpt lat="65.712531991302967" lon="13.284990973770618">
        <ele>117.90000000000001</ele>
        <time>2017-06-22T11:53:45Z</time>
      </trkpt>
      <trkpt lat="65.712708011269569" lon="13.28531501814723">
        <ele>117.42</ele>
        <time>2017-06-22T11:53:46Z</time>
      </trkpt>
      <trkpt lat="65.712895011529326" lon="13.285620035603642">
        <ele>116.94</ele>
        <time>2017-06-22T11:53:47Z</time>
      </trkpt>
      <trkpt lat="65.714529985561967" lon="13.287403034046292">
        <ele>115.98</ele>
        <time>2017-06-22T11:53:55Z</time>
      </trkpt>
      <trkpt lat="65.719214966520667" lon="13.291124012321234">
        <ele>123.19</ele>
        <time>2017-06-22T11:54:17Z</time>
      </trkpt>
      <trkpt lat="65.720819011330605" lon="13.29107103869319">
        <ele>116.45999999999999</ele>
        <time>2017-06-22T11:54:24Z</time>
      </trkpt>
      <trkpt lat="65.722861010581255" lon="13.289935039356351">
        <ele>104.92</ele>
        <time>2017-06-22T11:54:34Z</time>
      </trkpt>
      <trkpt lat="65.723566012457013" lon="13.288948992267251">
        <ele>102.04000000000001</ele>
        <time>2017-06-22T11:54:38Z</time>
      </trkpt>
      <trkpt lat="65.723720993846655" lon="13.288614973425865">
        <ele>101.08</ele>
        <time>2017-06-22T11:54:39Z</time>
      </trkpt>
      <trkpt lat="65.72386097162962" lon="13.288232004269958">
        <ele>100.59999999999999</ele>
        <time>2017-06-22T11:54:40Z</time>
      </trkpt>
      <trkpt lat="65.723991980776191" lon="13.287810981273651">
        <ele>99.629999999999995</ele>
        <time>2017-06-22T11:54:41Z</time>
      </trkpt>
      <trkpt lat="65.724114021286368" lon="13.287371015176177">
        <ele>98.670000000000002</ele>
        <time>2017-06-22T11:54:42Z</time>
      </trkpt>
      <trkpt lat="65.72504298761487" lon="13.284025965258479">
        <ele>93.390000000000001</ele>
        <time>2017-06-22T11:54:50Z</time>
      </trkpt>
      <trkpt lat="65.726211005821824" lon="13.282183036208153">
        <ele>89.060000000000002</ele>
        <time>2017-06-22T11:54:57Z</time>
      </trkpt>
      <trkpt lat="65.727496035397053" lon="13.280143970623612">
        <ele>82.810000000000002</ele>
        <time>2017-06-22T11:55:04Z</time>
      </trkpt>
      <trkpt lat="65.72944700717926" lon="13.276944011449814">
        <ele>77.519999999999996</ele>
        <time>2017-06-22T11:55:14Z</time>
      </trkpt>
      <trkpt lat="65.73073698207736" lon="13.276238003745675">
        <ele>78.480000000000004</ele>
        <time>2017-06-22T11:55:20Z</time>
      </trkpt>
      <trkpt lat="65.732501037418842" lon="13.276365995407104">
        <ele>77.519999999999996</ele>
        <time>2017-06-22T11:55:28Z</time>
      </trkpt>
      <trkpt lat="65.733597977086902" lon="13.276300029829144">
        <ele>77.040000000000006</ele>
        <time>2017-06-22T11:55:33Z</time>
      </trkpt>
      <trkpt lat="65.733809033408761" lon="13.2763990201056">
        <ele>76.560000000000002</ele>
        <time>2017-06-22T11:55:34Z</time>
      </trkpt>
      <trkpt lat="65.734016988426447" lon="13.2765509840101">
        <ele>77.040000000000006</ele>
        <time>2017-06-22T11:55:35Z</time>
      </trkpt>
      <trkpt lat="65.734222009778023" lon="13.276747036725283">
        <ele>77.040000000000006</ele>
        <time>2017-06-22T11:55:36Z</time>
      </trkpt>
      <trkpt lat="65.734417978674173" lon="13.276977958157659">
        <ele>77.040000000000006</ele>
        <time>2017-06-22T11:55:37Z</time>
      </trkpt>
      <trkpt lat="65.734613025560975" lon="13.277249028906226">
        <ele>77.519999999999996</ele>
        <time>2017-06-22T11:55:38Z</time>
      </trkpt>
      <trkpt lat="65.735856983810663" lon="13.27951499260962">
        <ele>78.480000000000004</ele>
        <time>2017-06-22T11:55:45Z</time>
      </trkpt>
      <trkpt lat="65.735988998785615" lon="13.279937021434307">
        <ele>78.480000000000004</ele>
        <time>2017-06-22T11:55:46Z</time>
      </trkpt>
      <trkpt lat="65.736110033467412" lon="13.280394002795219">
        <ele>78.480000000000004</ele>
        <time>2017-06-22T11:55:47Z</time>
      </trkpt>
      <trkpt lat="65.73660297319293" lon="13.282165015116334">
        <ele>78.480000000000004</ele>
        <time>2017-06-22T11:55:51Z</time>
      </trkpt>
      <trkpt lat="65.736767007037997" lon="13.282517977058887">
        <ele>78.480000000000004</ele>
        <time>2017-06-22T11:55:52Z</time>
      </trkpt>
      <trkpt lat="65.7369430270046" lon="13.282831041142344">
        <ele>78.480000000000004</ele>
        <time>2017-06-22T11:55:53Z</time>
      </trkpt>
      <trkpt lat="65.737134972587228" lon="13.28308098949492">
        <ele>78.480000000000004</ele>
        <time>2017-06-22T11:55:54Z</time>
      </trkpt>
      <trkpt lat="65.737335970625281" lon="13.28327301889658">
        <ele>78.480000000000004</ele>
        <time>2017-06-22T11:55:55Z</time>
      </trkpt>
      <trkpt lat="65.737549960613251" lon="13.283406961709261">
        <ele>78.969999999999999</ele>
        <time>2017-06-22T11:55:56Z</time>
      </trkpt>
      <trkpt lat="65.737765040248632" lon="13.283478040248156">
        <ele>78.969999999999999</ele>
        <time>2017-06-22T11:55:57Z</time>
      </trkpt>
      <trkpt lat="65.737983975559473" lon="13.283492038026452">
        <ele>78.969999999999999</ele>
        <time>2017-06-22T11:55:58Z</time>
      </trkpt>
      <trkpt lat="65.738200983032584" lon="13.283448033034801">
        <ele>78.969999999999999</ele>
        <time>2017-06-22T11:55:59Z</time>
      </trkpt>
      <trkpt lat="65.738414973020554" lon="13.283348958939314">
        <ele>78.969999999999999</ele>
        <time>2017-06-22T11:56:00Z</time>
      </trkpt>
      <trkpt lat="65.738628040999174" lon="13.283203030005097">
        <ele>79.450000000000003</ele>
        <time>2017-06-22T11:56:01Z</time>
      </trkpt>
      <trkpt lat="65.738839013502002" lon="13.28301602974534">
        <ele>79.450000000000003</ele>
        <time>2017-06-22T11:56:02Z</time>
      </trkpt>
      <trkpt lat="65.739046968519688" lon="13.282796004787087">
        <ele>79.450000000000003</ele>
        <time>2017-06-22T11:56:03Z</time>
      </trkpt>
      <trkpt lat="65.739250984042883" lon="13.282556030899286">
        <ele>79.450000000000003</ele>
        <time>2017-06-22T11:56:04Z</time>
      </trkpt>
      <trkpt lat="65.740916971117258" lon="13.281029015779495">
        <ele>79.450000000000003</ele>
        <time>2017-06-22T11:56:12Z</time>
      </trkpt>
      <trkpt lat="65.741132972761989" lon="13.280981993302703">
        <ele>78.969999999999999</ele>
        <time>2017-06-22T11:56:13Z</time>
      </trkpt>
      <trkpt lat="65.741773014888167" lon="13.280809996649623">
        <ele>78</ele>
        <time>2017-06-22T11:56:16Z</time>
      </trkpt>
      <trkpt lat="65.741980969905853" lon="13.280682004988194">
        <ele>77.519999999999996</ele>
        <time>2017-06-22T11:56:17Z</time>
      </trkpt>
      <trkpt lat="65.742180040106177" lon="13.280511014163494">
        <ele>77.519999999999996</ele>
        <time>2017-06-22T11:56:18Z</time>
      </trkpt>
      <trkpt lat="65.742353964596987" lon="13.280299035832286">
        <ele>77.519999999999996</ele>
        <time>2017-06-22T11:56:19Z</time>
      </trkpt>
      <trkpt lat="65.742500983178616" lon="13.28003098256886">
        <ele>76.560000000000002</ele>
        <time>2017-06-22T11:56:20Z</time>
      </trkpt>
      <trkpt lat="65.742626963183284" lon="13.279739962890744">
        <ele>75.599999999999994</ele>
        <time>2017-06-22T11:56:21Z</time>
      </trkpt>
      <trkpt lat="65.742737017571926" lon="13.279426982626319">
        <ele>74.640000000000001</ele>
        <time>2017-06-22T11:56:22Z</time>
      </trkpt>
      <trkpt lat="65.742841036990285" lon="13.27910696156323">
        <ele>74.159999999999997</ele>
        <time>2017-06-22T11:56:23Z</time>
      </trkpt>
      <trkpt lat="65.74293801560998" lon="13.278766991570592">
        <ele>74.159999999999997</ele>
        <time>2017-06-22T11:56:24Z</time>
      </trkpt>
      <trkpt lat="65.743031976744533" lon="13.278413023799658">
        <ele>74.159999999999997</ele>
        <time>2017-06-22T11:56:25Z</time>
      </trkpt>
      <trkpt lat="65.743961026892066" lon="13.275592010468245">
        <ele>73.680000000000007</ele>
        <time>2017-06-22T11:56:33Z</time>
      </trkpt>
      <trkpt lat="65.745119992643595" lon="13.274264987558126">
        <ele>68.870000000000005</ele>
        <time>2017-06-22T11:56:39Z</time>
      </trkpt>
      <trkpt lat="65.745329959318042" lon="13.274191981181502">
        <ele>68.390000000000001</ele>
        <time>2017-06-22T11:56:40Z</time>
      </trkpt>
      <trkpt lat="65.745537998154759" lon="13.274155016988516">
        <ele>67.909999999999997</ele>
        <time>2017-06-22T11:56:41Z</time>
      </trkpt>
      <trkpt lat="65.747651997953653" lon="13.274504039436579">
        <ele>67.909999999999997</ele>
        <time>2017-06-22T11:56:51Z</time>
      </trkpt>
      <trkpt lat="65.750619024038315" lon="13.275034027174115">
        <ele>68.870000000000005</ele>
        <time>2017-06-22T11:57:04Z</time>
      </trkpt>
      <trkpt lat="65.753258988261223" lon="13.275672979652882">
        <ele>69.349999999999994</ele>
        <time>2017-06-22T11:57:15Z</time>
      </trkpt>
      <trkpt lat="65.75346996076405" lon="13.275872971862555">
        <ele>69.349999999999994</ele>
        <time>2017-06-22T11:57:16Z</time>
      </trkpt>
      <trkpt lat="65.753670036792755" lon="13.276133984327316">
        <ele>69.349999999999994</ele>
        <time>2017-06-22T11:57:17Z</time>
      </trkpt>
      <trkpt lat="65.75385301373899" lon="13.276462974026799">
        <ele>69.349999999999994</ele>
        <time>2017-06-22T11:57:18Z</time>
      </trkpt>
      <trkpt lat="65.754017969593406" lon="13.276846027001739">
        <ele>69.349999999999994</ele>
        <time>2017-06-22T11:57:19Z</time>
      </trkpt>
      <trkpt lat="65.754175968468189" lon="13.277261015027761">
        <ele>69.349999999999994</ele>
        <time>2017-06-22T11:57:20Z</time>
      </trkpt>
      <trkpt lat="65.754324998706579" lon="13.277719002217054">
        <ele>69.349999999999994</ele>
        <time>2017-06-22T11:57:21Z</time>
      </trkpt>
      <trkpt lat="65.755532998591661" lon="13.280368018895388">
        <ele>66.469999999999999</ele>
        <time>2017-06-22T11:57:28Z</time>
      </trkpt>
      <trkpt lat="65.757001005113125" lon="13.28312499448657">
        <ele>62.619999999999997</ele>
        <time>2017-06-22T11:57:36Z</time>
      </trkpt>
      <trkpt lat="65.759020959958434" lon="13.286038041114807">
        <ele>59.740000000000002</ele>
        <time>2017-06-22T11:57:46Z</time>
      </trkpt>
      <trkpt lat="65.760270031169057" lon="13.289402034133673">
        <ele>59.740000000000002</ele>
        <time>2017-06-22T11:57:54Z</time>
      </trkpt>
      <trkpt lat="65.760925998911262" lon="13.290929971262813">
        <ele>59.740000000000002</ele>
        <time>2017-06-22T11:57:58Z</time>
      </trkpt>
      <trkpt lat="65.761120961979032" lon="13.291201964020729">
        <ele>59.259999999999998</ele>
        <time>2017-06-22T11:57:59Z</time>
      </trkpt>
      <trkpt lat="65.761326989158988" lon="13.291431963443756">
        <ele>58.299999999999997</ele>
        <time>2017-06-22T11:58:00Z</time>
      </trkpt>
      <trkpt lat="65.761539973318577" lon="13.291618963703513">
        <ele>57.82</ele>
        <time>2017-06-22T11:58:01Z</time>
      </trkpt>
      <trkpt lat="65.761758992448449" lon="13.291755001991987">
        <ele>56.859999999999999</ele>
        <time>2017-06-22T11:58:02Z</time>
      </trkpt>
      <trkpt lat="65.761983040720224" lon="13.291836977005005">
        <ele>56.369999999999997</ele>
        <time>2017-06-22T11:58:03Z</time>
      </trkpt>
      <trkpt lat="65.7622139621526" lon="13.291870001703501">
        <ele>55.890000000000001</ele>
        <time>2017-06-22T11:58:04Z</time>
      </trkpt>
      <trkpt lat="65.762443961575627" lon="13.291870001703501">
        <ele>54.93</ele>
        <time>2017-06-22T11:58:05Z</time>
      </trkpt>
      <trkpt lat="65.765255000442266" lon="13.291281005367637">
        <ele>50.609999999999999</ele>
        <time>2017-06-22T11:58:17Z</time>
      </trkpt>
      <trkpt lat="65.768451020121574" lon="13.290029000490904">
        <ele>52.049999999999997</ele>
        <time>2017-06-22T11:58:31Z</time>
      </trkpt>
      <trkpt lat="65.772969033569098" lon="13.289286028593779">
        <ele>49.649999999999999</ele>
        <time>2017-06-22T11:58:51Z</time>
      </trkpt>
      <trkpt lat="65.774741973727942" lon="13.289734041318297">
        <ele>49.159999999999997</ele>
        <time>2017-06-22T11:58:59Z</time>
      </trkpt>
      <trkpt lat="65.776484990492463" lon="13.29002195969224">
        <ele>46.759999999999998</ele>
        <time>2017-06-22T11:59:07Z</time>
      </trkpt>
      <trkpt lat="65.776700992137194" lon="13.289904026314616">
        <ele>46.759999999999998</ele>
        <time>2017-06-22T11:59:08Z</time>
      </trkpt>
      <trkpt lat="65.776915987953544" lon="13.289744015783072">
        <ele>46.280000000000001</ele>
        <time>2017-06-22T11:59:09Z</time>
      </trkpt>
      <trkpt lat="65.777125032618642" lon="13.289545029401779">
        <ele>46.280000000000001</ele>
        <time>2017-06-22T11:59:10Z</time>
      </trkpt>
      <trkpt lat="65.777327958494425" lon="13.289308995008469">
        <ele>45.799999999999997</ele>
        <time>2017-06-22T11:59:11Z</time>
      </trkpt>
      <trkpt lat="65.777527028694749" lon="13.289044965058565">
        <ele>45.799999999999997</ele>
        <time>2017-06-22T11:59:12Z</time>
      </trkpt>
      <trkpt lat="65.779145993292332" lon="13.287256015464664">
        <ele>43.880000000000003</ele>
        <time>2017-06-22T11:59:20Z</time>
      </trkpt>
      <trkpt lat="65.780520038679242" lon="13.284848984330893">
        <ele>42.920000000000002</ele>
        <time>2017-06-22T11:59:28Z</time>
      </trkpt>
      <trkpt lat="65.781133007258177" lon="13.28248000703752">
        <ele>42.439999999999998</ele>
        <time>2017-06-22T11:59:34Z</time>
      </trkpt>
      <trkpt lat="65.781971029937267" lon="13.277616994455457">
        <ele>42.439999999999998</ele>
        <time>2017-06-22T11:59:46Z</time>
      </trkpt>
      <trkpt lat="65.782874012365937" lon="13.275200994685292">
        <ele>38.590000000000003</ele>
        <time>2017-06-22T11:59:53Z</time>
      </trkpt>
      <trkpt lat="65.784372026100755" lon="13.273085989058018">
        <ele>33.780000000000001</ele>
        <time>2017-06-22T12:00:01Z</time>
      </trkpt>
      <trkpt lat="65.786436991766095" lon="13.270099014043808">
        <ele>31.859999999999999</ele>
        <time>2017-06-22T12:00:12Z</time>
      </trkpt>
      <trkpt lat="65.787941962480545" lon="13.269106009975076">
        <ele>32.82</ele>
        <time>2017-06-22T12:00:19Z</time>
      </trkpt>
      <trkpt lat="65.789106963202357" lon="13.267558040097356">
        <ele>33.780000000000001</ele>
        <time>2017-06-22T12:00:25Z</time>
      </trkpt>
      <trkpt lat="65.790619980543852" lon="13.265289980918169">
        <ele>35.229999999999997</ele>
        <time>2017-06-22T12:00:33Z</time>
      </trkpt>
      <trkpt lat="65.792384035885334" lon="13.261991031467915">
        <ele>33.299999999999997</ele>
        <time>2017-06-22T12:00:43Z</time>
      </trkpt>
      <trkpt lat="65.793175036087632" lon="13.258185982704163">
        <ele>31.859999999999999</ele>
        <time>2017-06-22T12:00:51Z</time>
      </trkpt>
      <trkpt lat="65.794409019872546" lon="13.253163965418935">
        <ele>31.379999999999999</ele>
        <time>2017-06-22T12:01:02Z</time>
      </trkpt>
      <trkpt lat="65.795121984556317" lon="13.251864016056061">
        <ele>31.379999999999999</ele>
        <time>2017-06-22T12:01:06Z</time>
      </trkpt>
      <trkpt lat="65.795328011736274" lon="13.251639967784286">
        <ele>30.899999999999999</ele>
        <time>2017-06-22T12:01:07Z</time>
      </trkpt>
      <trkpt lat="65.795540995895863" lon="13.251445004716516">
        <ele>30.420000000000002</ele>
        <time>2017-06-22T12:01:08Z</time>
      </trkpt>
      <trkpt lat="65.797753985971212" lon="13.249680027365685">
        <ele>29.940000000000001</ele>
        <time>2017-06-22T12:01:18Z</time>
      </trkpt>
      <trkpt lat="65.799672016873956" lon="13.246966972947121">
        <ele>31.379999999999999</ele>
        <time>2017-06-22T12:01:28Z</time>
      </trkpt>
      <trkpt lat="65.800328990444541" lon="13.245637016370893">
        <ele>31.379999999999999</ele>
        <time>2017-06-22T12:01:32Z</time>
      </trkpt>
      <trkpt lat="65.800511967390776" lon="13.245388995856047">
        <ele>30.899999999999999</ele>
        <time>2017-06-22T12:01:33Z</time>
      </trkpt>
      <trkpt lat="65.800700979307294" lon="13.245166959241033">
        <ele>30.420000000000002</ele>
        <time>2017-06-22T12:01:34Z</time>
      </trkpt>
      <trkpt lat="65.800898959860206" lon="13.244997980073094">
        <ele>30.420000000000002</ele>
        <time>2017-06-22T12:01:35Z</time>
      </trkpt>
      <trkpt lat="65.801102975383401" lon="13.244866970926523">
        <ele>30.420000000000002</ele>
        <time>2017-06-22T12:01:36Z</time>
      </trkpt>
      <trkpt lat="65.801310008391738" lon="13.244789019227028">
        <ele>29.940000000000001</ele>
        <time>2017-06-22T12:01:37Z</time>
      </trkpt>
      <trkpt lat="65.801520980894566" lon="13.244753982871771">
        <ele>29.460000000000001</ele>
        <time>2017-06-22T12:01:38Z</time>
      </trkpt>
      <trkpt lat="65.801737988367677" lon="13.244774015620351">
        <ele>29.460000000000001</ele>
        <time>2017-06-22T12:01:39Z</time>
      </trkpt>
      <trkpt lat="65.801951978355646" lon="13.244836963713169">
        <ele>29.940000000000001</ele>
        <time>2017-06-22T12:01:40Z</time>
      </trkpt>
      <trkpt lat="65.802164040505886" lon="13.244937965646386">
        <ele>29.940000000000001</ele>
        <time>2017-06-22T12:01:41Z</time>
      </trkpt>
      <trkpt lat="65.80236897803843" lon="13.245084984228015">
        <ele>29.460000000000001</ele>
        <time>2017-06-22T12:01:42Z</time>
      </trkpt>
      <trkpt lat="65.802570981904864" lon="13.245255975052714">
        <ele>28.5</ele>
        <time>2017-06-22T12:01:43Z</time>
      </trkpt>
      <trkpt lat="65.80473099835217" lon="13.247712040320039">
        <ele>28.5</ele>
        <time>2017-06-22T12:01:54Z</time>
      </trkpt>
      <trkpt lat="65.805708998814225" lon="13.24947802349925">
        <ele>28.5</ele>
        <time>2017-06-22T12:02:01Z</time>
      </trkpt>
      <trkpt lat="65.807070974260569" lon="13.25096296146512">
        <ele>28.5</ele>
        <time>2017-06-22T12:02:10Z</time>
      </trkpt>
      <trkpt lat="65.808764034882188" lon="13.252704972401261">
        <ele>28.02</ele>
        <time>2017-06-22T12:02:19Z</time>
      </trkpt>
      <trkpt lat="65.810507973656058" lon="13.25431396253407">
        <ele>31.379999999999999</ele>
        <time>2017-06-22T12:02:28Z</time>
      </trkpt>
      <trkpt lat="65.811937004327774" lon="13.254255037754774">
        <ele>30.899999999999999</ele>
        <time>2017-06-22T12:02:35Z</time>
      </trkpt>
      <trkpt lat="65.813588993623853" lon="13.25315298512578">
        <ele>30.899999999999999</ele>
        <time>2017-06-22T12:02:43Z</time>
      </trkpt>
      <trkpt lat="65.815543988719583" lon="13.252170961350203">
        <ele>27.530000000000001</ele>
        <time>2017-06-22T12:02:52Z</time>
      </trkpt>
      <trkpt lat="65.817195978015661" lon="13.24992997571826">
        <ele>27.530000000000001</ele>
        <time>2017-06-22T12:03:01Z</time>
      </trkpt>
      <trkpt lat="65.818338012322783" lon="13.248933032155037">
        <ele>26.57</ele>
        <time>2017-06-22T12:03:07Z</time>
      </trkpt>
      <trkpt lat="65.818539010360837" lon="13.248882992193103">
        <ele>26.57</ele>
        <time>2017-06-22T12:03:08Z</time>
      </trkpt>
      <trkpt lat="65.82118702121079" lon="13.248412013053894">
        <ele>28.02</ele>
        <time>2017-06-22T12:03:21Z</time>
      </trkpt>
      <trkpt lat="65.82449602894485" lon="13.244817014783621">
        <ele>26.09</ele>
        <time>2017-06-22T12:03:38Z</time>
      </trkpt>
      <trkpt lat="65.824598036706448" lon="13.244275040924549">
        <ele>21.289999999999999</ele>
        <time>2017-06-22T12:03:39Z</time>
      </trkpt>
      <trkpt lat="65.824681017547846" lon="13.243756033480167">
        <ele>20.809999999999999</ele>
        <time>2017-06-22T12:03:40Z</time>
      </trkpt>
      <trkpt lat="65.824765004217625" lon="13.243215987458825">
        <ele>20.32</ele>
        <time>2017-06-22T12:03:41Z</time>
      </trkpt>
      <trkpt lat="65.824824012815952" lon="13.242673007771373">
        <ele>18.399999999999999</ele>
        <time>2017-06-22T12:03:42Z</time>
      </trkpt>
      <trkpt lat="65.824869023635983" lon="13.242076970636845">
        <ele>17.920000000000002</ele>
        <time>2017-06-22T12:03:43Z</time>
      </trkpt>
      <trkpt lat="65.824909005314112" lon="13.241499960422516">
        <ele>16.48</ele>
        <time>2017-06-22T12:03:44Z</time>
      </trkpt>
      <trkpt lat="65.825140010565519" lon="13.238839963451028">
        <ele>12.15</ele>
        <time>2017-06-22T12:03:49Z</time>
      </trkpt>
      <trkpt lat="65.82522701472044" lon="13.238363033160567">
        <ele>13.119999999999999</ele>
        <time>2017-06-22T12:03:50Z</time>
      </trkpt>
      <trkpt lat="65.825337991118431" lon="13.237916026264429">
        <ele>14.08</ele>
        <time>2017-06-22T12:03:51Z</time>
      </trkpt>
      <trkpt lat="65.825472017750144" lon="13.237509001046419">
        <ele>15.52</ele>
        <time>2017-06-22T12:03:52Z</time>
      </trkpt>
      <trkpt lat="65.825621969997883" lon="13.237151009961963">
        <ele>13.6</ele>
        <time>2017-06-22T12:03:53Z</time>
      </trkpt>
      <trkpt lat="65.825801007449627" lon="13.236830988898873">
        <ele>15.52</ele>
        <time>2017-06-22T12:03:54Z</time>
      </trkpt>
      <trkpt lat="65.82597803324461" lon="13.236552039161325">
        <ele>15.039999999999999</ele>
        <time>2017-06-22T12:03:55Z</time>
      </trkpt>
      <trkpt lat="65.826180037111044" lon="13.236335031688213">
        <ele>16</ele>
        <time>2017-06-22T12:03:56Z</time>
      </trkpt>
      <trkpt lat="65.826383968815207" lon="13.236188013106585">
        <ele>16.48</ele>
        <time>2017-06-22T12:03:57Z</time>
      </trkpt>
      <trkpt lat="65.826592007651925" lon="13.236095979809761">
        <ele>16</ele>
        <time>2017-06-22T12:03:58Z</time>
      </trkpt>
      <trkpt lat="65.826802980154753" lon="13.236061027273536">
        <ele>16</ele>
        <time>2017-06-22T12:03:59Z</time>
      </trkpt>
      <trkpt lat="65.827013030648232" lon="13.236069995909929">
        <ele>16.48</ele>
        <time>2017-06-22T12:04:00Z</time>
      </trkpt>
      <trkpt lat="65.827229032292962" lon="13.236092962324619">
        <ele>16.960000000000001</ele>
        <time>2017-06-22T12:04:01Z</time>
      </trkpt>
      <trkpt lat="65.82765500061214" lon="13.23611500672996">
        <ele>18.399999999999999</ele>
        <time>2017-06-22T12:04:03Z</time>
      </trkpt>
      <trkpt lat="65.827859016135335" lon="13.236068990081549">
        <ele>17.440000000000001</ele>
        <time>2017-06-22T12:04:04Z</time>
      </trkpt>
      <trkpt lat="65.82806202583015" lon="13.235948961228132">
        <ele>16.48</ele>
        <time>2017-06-22T12:04:05Z</time>
      </trkpt>
      <trkpt lat="65.828263023868203" lon="13.235772019252181">
        <ele>16</ele>
        <time>2017-06-22T12:04:06Z</time>
      </trkpt>
      <trkpt lat="65.828458992764354" lon="13.235535984858871">
        <ele>15.039999999999999</ele>
        <time>2017-06-22T12:04:07Z</time>
      </trkpt>
      <trkpt lat="65.828640963882208" lon="13.235240019857883">
        <ele>13.6</ele>
        <time>2017-06-22T12:04:08Z</time>
      </trkpt>
      <trkpt lat="65.828812960535288" lon="13.234884040430188">
        <ele>12.15</ele>
        <time>2017-06-22T12:04:09Z</time>
      </trkpt>
      <trkpt lat="65.828970959410071" lon="13.234494030475616">
        <ele>10.710000000000001</ele>
        <time>2017-06-22T12:04:10Z</time>
      </trkpt>
      <trkpt lat="65.829127030447125" lon="13.234091028571129">
        <ele>9.75</ele>
        <time>2017-06-22T12:04:11Z</time>
      </trkpt>
      <trkpt lat="65.829449985176325" lon="13.233347972854972">
        <ele>8.789999999999999</ele>
        <time>2017-06-22T12:04:13Z</time>
      </trkpt>
      <trkpt lat="65.829623993486166" lon="13.233037004247308">
        <ele>7.83</ele>
        <time>2017-06-22T12:04:14Z</time>
      </trkpt>
      <trkpt lat="65.829814011231065" lon="13.232769034802914">
        <ele>7.35</ele>
        <time>2017-06-22T12:04:15Z</time>
      </trkpt>
      <trkpt lat="65.830008974298835" lon="13.232537023723125">
        <ele>6.87</ele>
        <time>2017-06-22T12:04:16Z</time>
      </trkpt>
      <trkpt lat="65.830207960680127" lon="13.232330996543169">
        <ele>6.39</ele>
        <time>2017-06-22T12:04:17Z</time>
      </trkpt>
      <trkpt lat="65.831472035497427" lon="13.230488989502192">
        <ele>5.42</ele>
        <time>2017-06-22T12:04:24Z</time>
      </trkpt>
      <trkpt lat="65.832823030650616" lon="13.228414971381426">
        <ele>-0.82</ele>
        <time>2017-06-22T12:04:32Z</time>
      </trkpt>
      <trkpt lat="65.834398996084929" lon="13.224862972274423">
        <ele>-3.71</ele>
        <time>2017-06-22T12:04:44Z</time>
      </trkpt>
      <trkpt lat="65.834786994382739" lon="13.222165005281568">
        <ele>-5.15</ele>
        <time>2017-06-22T12:04:51Z</time>
      </trkpt>
      <trkpt lat="65.835140040144324" lon="13.21740098297596">
        <ele>-10.44</ele>
        <time>2017-06-22T12:05:03Z</time>
      </trkpt>
      <trkpt lat="65.835127970203757" lon="13.214315017685294">
        <ele>-13.32</ele>
        <time>2017-06-22T12:05:11Z</time>
      </trkpt>
      <trkpt lat="65.834962008520961" lon="13.212789008393884">
        <ele>-9.960000000000001</ele>
        <time>2017-06-22T12:05:16Z</time>
      </trkpt>
      <trkpt lat="65.834952034056187" lon="13.212620029225945">
        <ele>-9</ele>
        <time>2017-06-22T12:05:17Z</time>
      </trkpt>
      <trkpt lat="65.834951028227806" lon="13.212516009807587">
        <ele>-9</ele>
        <time>2017-06-22T12:05:18Z</time>
      </trkpt>
      <trkpt lat="65.834950022399426" lon="13.212439985945821">
        <ele>-8.51</ele>
        <time>2017-06-22T12:05:19Z</time>
      </trkpt>
      <trkpt lat="65.834955973550677" lon="13.212340995669365">
        <ele>-8.51</ele>
        <time>2017-06-22T12:05:20Z</time>
      </trkpt>
      <trkpt lat="65.834975000470877" lon="13.212207974866033">
        <ele>-8.029999999999999</ele>
        <time>2017-06-22T12:05:21Z</time>
      </trkpt>
      <trkpt lat="65.83502302877605" lon="13.212067997083068">
        <ele>-7.55</ele>
        <time>2017-06-22T12:05:22Z</time>
      </trkpt>
      <trkpt lat="65.835084971040487" lon="13.21192198432982">
        <ele>-7.55</ele>
        <time>2017-06-22T12:05:23Z</time>
      </trkpt>
      <trkpt lat="65.835244981572032" lon="13.211303986608982">
        <ele>-6.59</ele>
        <time>2017-06-22T12:05:26Z</time>
      </trkpt>
      <trkpt lat="65.835498031228781" lon="13.209887025877833">
        <ele>-6.59</ele>
        <time>2017-06-22T12:05:31Z</time>
      </trkpt>
      <trkpt lat="65.835580006241798" lon="13.209613021463156">
        <ele>-7.07</ele>
        <time>2017-06-22T12:05:32Z</time>
      </trkpt>
      <trkpt lat="65.835683019831777" lon="13.209374975413084">
        <ele>-7.07</ele>
        <time>2017-06-22T12:05:33Z</time>
      </trkpt>
      <trkpt lat="65.835801037028432" lon="13.209175989031792">
        <ele>-7.07</ele>
        <time>2017-06-22T12:05:34Z</time>
      </trkpt>
      <trkpt lat="65.835931040346622" lon="13.209028970450163">
        <ele>-8.029999999999999</ele>
        <time>2017-06-22T12:05:35Z</time>
      </trkpt>
      <trkpt lat="65.836072023957968" lon="13.208936015143991">
        <ele>-8.51</ele>
        <time>2017-06-22T12:05:36Z</time>
      </trkpt>
      <trkpt lat="65.836219964548945" lon="13.208894021809101">
        <ele>-7.55</ele>
        <time>2017-06-22T12:05:37Z</time>
      </trkpt>
      <trkpt lat="65.836372012272477" lon="13.208893015980721">
        <ele>-7.55</ele>
        <time>2017-06-22T12:05:38Z</time>
      </trkpt>
      <trkpt lat="65.836526993662119" lon="13.208916988223791">
        <ele>-7.07</ele>
        <time>2017-06-22T12:05:39Z</time>
      </trkpt>
      <trkpt lat="65.838479977101088" lon="13.209648979827762">
        <ele>-5.63</ele>
        <time>2017-06-22T12:05:51Z</time>
      </trkpt>
      <trkpt lat="65.839631985872984" lon="13.21041801944375">
        <ele>-4.67</ele>
        <time>2017-06-22T12:05:58Z</time>
      </trkpt>
      <trkpt lat="65.839788978919387" lon="13.210423970595002">
        <ele>-4.19</ele>
        <time>2017-06-22T12:05:59Z</time>
      </trkpt>
      <trkpt lat="65.839939014986157" lon="13.210382983088493">
        <ele>-4.19</ele>
        <time>2017-06-22T12:06:00Z</time>
      </trkpt>
      <trkpt lat="65.840087961405516" lon="13.21031098254025">
        <ele>-4.19</ele>
        <time>2017-06-22T12:06:01Z</time>
      </trkpt>
      <trkpt lat="65.840233974158764" lon="13.210210986435413">
        <ele>-4.19</ele>
        <time>2017-06-22T12:06:02Z</time>
      </trkpt>
      <trkpt lat="65.840379986912012" lon="13.210062962025404">
        <ele>-4.19</ele>
        <time>2017-06-22T12:06:03Z</time>
      </trkpt>
      <trkpt lat="65.840518958866596" lon="13.209885014221072">
        <ele>-4.19</ele>
        <time>2017-06-22T12:06:04Z</time>
      </trkpt>
      <trkpt lat="65.840650973841548" lon="13.209670018404722">
        <ele>-4.19</ele>
        <time>2017-06-22T12:06:05Z</time>
      </trkpt>
      <trkpt lat="65.840780977159739" lon="13.20942803286016">
        <ele>-4.19</ele>
        <time>2017-06-22T12:06:06Z</time>
      </trkpt>
      <trkpt lat="65.840902011841536" lon="13.209155034273863">
        <ele>-4.19</ele>
        <time>2017-06-22T12:06:07Z</time>
      </trkpt>
      <trkpt lat="65.841005025431514" lon="13.208850016817451">
        <ele>-4.67</ele>
        <time>2017-06-22T12:06:08Z</time>
      </trkpt>
      <trkpt lat="65.841102004051208" lon="13.208514992147684">
        <ele>-4.67</ele>
        <time>2017-06-22T12:06:09Z</time>
      </trkpt>
      <trkpt lat="65.841186996549368" lon="13.208164041861892">
        <ele>-5.15</ele>
        <time>2017-06-22T12:06:10Z</time>
      </trkpt>
      <trkpt lat="65.841811029240489" lon="13.206178033724427">
        <ele>-5.15</ele>
        <time>2017-06-22T12:06:16Z</time>
      </trkpt>
      <trkpt lat="65.841947989538312" lon="13.205923978239298">
        <ele>-5.15</ele>
        <time>2017-06-22T12:06:17Z</time>
      </trkpt>
      <trkpt lat="65.842091990634799" lon="13.205717029049993">
        <ele>-5.15</ele>
        <time>2017-06-22T12:06:18Z</time>
      </trkpt>
      <trkpt lat="65.842235991731286" lon="13.205536985769868">
        <ele>-5.63</ele>
        <time>2017-06-22T12:06:19Z</time>
      </trkpt>
      <trkpt lat="65.842382004484534" lon="13.205384016036987">
        <ele>-5.63</ele>
        <time>2017-06-22T12:06:20Z</time>
      </trkpt>
      <trkpt lat="65.843076026067138" lon="13.204568037763238">
        <ele>-5.15</ele>
        <time>2017-06-22T12:06:25Z</time>
      </trkpt>
      <trkpt lat="65.843173004686832" lon="13.204369973391294">
        <ele>-5.63</ele>
        <time>2017-06-22T12:06:26Z</time>
      </trkpt>
      <trkpt lat="65.843243999406695" lon="13.204147014766932">
        <ele>-5.15</ele>
        <time>2017-06-22T12:06:27Z</time>
      </trkpt>
      <trkpt lat="65.843296973034739" lon="13.203912992030382">
        <ele>-5.63</ele>
        <time>2017-06-22T12:06:28Z</time>
      </trkpt>
      <trkpt lat="65.843332009389997" lon="13.203682992607355">
        <ele>-5.63</ele>
        <time>2017-06-22T12:06:29Z</time>
      </trkpt>
      <trkpt lat="65.843357993289828" lon="13.203459028154612">
        <ele>-6.11</ele>
        <time>2017-06-22T12:06:30Z</time>
      </trkpt>
      <trkpt lat="65.843377020210028" lon="13.203246966004372">
        <ele>-6.11</ele>
        <time>2017-06-22T12:06:31Z</time>
      </trkpt>
      <trkpt lat="65.843390012159944" lon="13.203043034300208">
        <ele>-6.11</ele>
        <time>2017-06-22T12:06:32Z</time>
      </trkpt>
      <trkpt lat="65.843442985787988" lon="13.202369967475533">
        <ele>-7.55</ele>
        <time>2017-06-22T12:06:36Z</time>
      </trkpt>
      <trkpt lat="65.843434017151594" lon="13.202229989692569">
        <ele>-7.55</ele>
        <time>2017-06-22T12:06:37Z</time>
      </trkpt>
      <trkpt lat="65.843395041301847" lon="13.202093029394746">
        <ele>-8.029999999999999</ele>
        <time>2017-06-22T12:06:38Z</time>
      </trkpt>
      <trkpt lat="65.843337038531899" lon="13.201949028298259">
        <ele>-8.029999999999999</ele>
        <time>2017-06-22T12:06:39Z</time>
      </trkpt>
      <trkpt lat="65.843280963599682" lon="13.201808966696262">
        <ele>-8.029999999999999</ele>
        <time>2017-06-22T12:06:40Z</time>
      </trkpt>
      <trkpt lat="65.843180967494845" lon="13.201478971168399">
        <ele>-8.51</ele>
        <time>2017-06-22T12:06:42Z</time>
      </trkpt>
      <trkpt lat="65.843072002753615" lon="13.201169008389115">
        <ele>-8.51</ele>
        <time>2017-06-22T12:06:44Z</time>
      </trkpt>
      <trkpt lat="65.843006959185004" lon="13.201069012284279">
        <ele>-8.51</ele>
        <time>2017-06-22T12:06:45Z</time>
      </trkpt>
      <trkpt lat="65.842934036627412" lon="13.201022995635867">
        <ele>-8.51</ele>
        <time>2017-06-22T12:06:46Z</time>
      </trkpt>
      <trkpt lat="65.842857006937265" lon="13.201033975929022">
        <ele>-8.029999999999999</ele>
        <time>2017-06-22T12:06:47Z</time>
      </trkpt>
      <trkpt lat="65.842772014439106" lon="13.201083010062575">
        <ele>-8.51</ele>
        <time>2017-06-22T12:06:48Z</time>
      </trkpt>
      <trkpt lat="65.842687021940947" lon="13.201149981468916">
        <ele>-8.51</ele>
        <time>2017-06-22T12:06:49Z</time>
      </trkpt>
      <trkpt lat="65.842507984489202" lon="13.201260035857558">
        <ele>-9</ele>
        <time>2017-06-22T12:06:51Z</time>
      </trkpt>
      <trkpt lat="65.842419974505901" lon="13.201278978958726">
        <ele>-9</ele>
        <time>2017-06-22T12:06:52Z</time>
      </trkpt>
      <trkpt lat="65.842332970350981" lon="13.201259030029178">
        <ele>-9.48</ele>
        <time>2017-06-22T12:06:53Z</time>
      </trkpt>
      <trkpt lat="65.842246972024441" lon="13.201190968975425">
        <ele>-9.960000000000001</ele>
        <time>2017-06-22T12:06:54Z</time>
      </trkpt>
      <trkpt lat="65.842163991183043" lon="13.201074041426182">
        <ele>-10.44</ele>
        <time>2017-06-22T12:06:55Z</time>
      </trkpt>
      <trkpt lat="65.842080004513264" lon="13.200945965945721">
        <ele>-10.44</ele>
        <time>2017-06-22T12:06:56Z</time>
      </trkpt>
      <trkpt lat="65.840886002406478" lon="13.198807993903756">
        <ele>-9.48</ele>
        <time>2017-06-22T12:07:10Z</time>
      </trkpt>
      <trkpt lat="65.840436983853579" lon="13.19666700437665">
        <ele>-8.029999999999999</ele>
        <time>2017-06-22T12:07:19Z</time>
      </trkpt>
      <trkpt lat="65.840329024940729" lon="13.193797962740064">
        <ele>-7.55</ele>
        <time>2017-06-22T12:07:30Z</time>
      </trkpt>
      <trkpt lat="65.840334976091981" lon="13.191372994333506">
        <ele>-10.44</ele>
        <time>2017-06-22T12:07:41Z</time>
      </trkpt>
      <trkpt lat="65.840464979410172" lon="13.189316997304559">
        <ele>-11.4</ele>
        <time>2017-06-22T12:07:50Z</time>
      </trkpt>
      <trkpt lat="65.840463973581791" lon="13.189065959304571">
        <ele>-10.92</ele>
        <time>2017-06-22T12:07:51Z</time>
      </trkpt>
      <trkpt lat="65.840452993288636" lon="13.188833026215434">
        <ele>-11.4</ele>
        <time>2017-06-22T12:07:52Z</time>
      </trkpt>
      <trkpt lat="65.840379986912012" lon="13.187621003016829">
        <ele>-9.48</ele>
        <time>2017-06-22T12:08:00Z</time>
      </trkpt>
      <trkpt lat="65.840305974707007" lon="13.18738698028028">
        <ele>-9.960000000000001</ele>
        <time>2017-06-22T12:08:05Z</time>
      </trkpt>
      <trkpt lat="65.840288959443569" lon="13.187383040785789">
        <ele>-9.48</ele>
        <time>2017-06-22T12:08:06Z</time>
      </trkpt>
      <trkpt lat="65.840274039655924" lon="13.187417993322015">
        <ele>-8.029999999999999</ele>
        <time>2017-06-22T12:08:21Z</time>
      </trkpt>
      <trkpt lat="65.84026800468564" lon="13.187431991100311">
        <ele>-7.55</ele>
        <time>2017-06-22T12:09:36Z</time>
      </trkpt>
      <trkpt lat="65.840265993028879" lon="13.187432996928692">
        <ele>-7.07</ele>
        <time>2017-06-22T12:10:33Z</time>
      </trkpt>
      <trkpt lat="65.840275967493653" lon="13.187486976385117">
        <ele>-7.55</ele>
        <time>2017-06-22T12:10:38Z</time>
      </trkpt>
      <trkpt lat="65.840291976928711" lon="13.187527963891625">
        <ele>-8.029999999999999</ele>
        <time>2017-06-22T12:10:39Z</time>
      </trkpt>
      <trkpt lat="65.840323995798826" lon="13.187559982761741">
        <ele>-7.55</ele>
        <time>2017-06-22T12:10:40Z</time>
      </trkpt>
      <trkpt lat="65.840364983305335" lon="13.187555959448218">
        <ele>-7.55</ele>
        <time>2017-06-22T12:10:41Z</time>
      </trkpt>
      <trkpt lat="65.84041896276176" lon="13.187503991648555">
        <ele>-7.55</ele>
        <time>2017-06-22T12:10:42Z</time>
      </trkpt>
      <trkpt lat="65.840486017987132" lon="13.187438026070595">
        <ele>-7.55</ele>
        <time>2017-06-22T12:10:43Z</time>
      </trkpt>
      <trkpt lat="65.840629013255239" lon="13.187334006652236">
        <ele>-6.59</ele>
        <time>2017-06-22T12:10:45Z</time>
      </trkpt>
      <trkpt lat="65.841100998222828" lon="13.187179025262594">
        <ele>-6.11</ele>
        <time>2017-06-22T12:10:50Z</time>
      </trkpt>
      <trkpt lat="65.841209962964058" lon="13.187185982242227">
        <ele>-6.11</ele>
        <time>2017-06-22T12:10:51Z</time>
      </trkpt>
      <trkpt lat="65.841811029240489" lon="13.187369965016842">
        <ele>-7.07</ele>
        <time>2017-06-22T12:10:56Z</time>
      </trkpt>
      <trkpt lat="65.841919993981719" lon="13.187480019405484">
        <ele>-7.07</ele>
        <time>2017-06-22T12:10:57Z</time>
      </trkpt>
      <trkpt lat="65.842020995914936" lon="13.187640029937029">
        <ele>-6.59</ele>
        <time>2017-06-22T12:10:58Z</time>
      </trkpt>
      <trkpt lat="65.842110011726618" lon="13.187840022146702">
        <ele>-6.59</ele>
        <time>2017-06-22T12:10:59Z</time>
      </trkpt>
      <trkpt lat="65.842184023931623" lon="13.188083013519645">
        <ele>-6.11</ele>
        <time>2017-06-22T12:11:00Z</time>
      </trkpt>
      <trkpt lat="65.842248983681202" lon="13.188346959650517">
        <ele>-6.11</ele>
        <time>2017-06-22T12:11:01Z</time>
      </trkpt>
      <trkpt lat="65.842310003936291" lon="13.188644014298916">
        <ele>-5.63</ele>
        <time>2017-06-22T12:11:02Z</time>
      </trkpt>
      <trkpt lat="65.842369012534618" lon="13.188952971249819">
        <ele>-5.63</ele>
        <time>2017-06-22T12:11:03Z</time>
      </trkpt>
      <trkpt lat="65.843152971938252" lon="13.193063959479332">
        <ele>-3.23</ele>
        <time>2017-06-22T12:11:15Z</time>
      </trkpt>
      <trkpt lat="65.84406903013587" lon="13.197734020650387">
        <ele>-0.34</ele>
        <time>2017-06-22T12:11:30Z</time>
      </trkpt>
      <trkpt lat="65.844272961840034" lon="13.198712021112442">
        <ele>0.62</ele>
        <time>2017-06-22T12:11:36Z</time>
      </trkpt>
      <trkpt lat="65.844294000416994" lon="13.198770023882389">
        <ele>1.1</ele>
        <time>2017-06-22T12:11:37Z</time>
      </trkpt>
      <trkpt lat="65.844321995973587" lon="13.198798019438982">
        <ele>1.1</ele>
        <time>2017-06-22T12:11:38Z</time>
      </trkpt>
      <trkpt lat="65.844361977651715" lon="13.198802964761853">
        <ele>1.1</ele>
        <time>2017-06-22T12:11:39Z</time>
      </trkpt>
      <trkpt lat="65.844416040927172" lon="13.198770023882389">
        <ele>1.1</ele>
        <time>2017-06-22T12:11:40Z</time>
      </trkpt>
      <trkpt lat="65.844484018161893" lon="13.198701040819287">
        <ele>1.1</ele>
        <time>2017-06-22T12:11:41Z</time>
      </trkpt>
      <trkpt lat="65.844561969861388" lon="13.19860297255218">
        <ele>1.1</ele>
        <time>2017-06-22T12:11:42Z</time>
      </trkpt>
      <trkpt lat="65.844647968187928" lon="13.198490990325809">
        <ele>1.1</ele>
        <time>2017-06-22T12:11:43Z</time>
      </trkpt>
      <trkpt lat="65.84561800584197" lon="13.197279972955585">
        <ele>2.06</ele>
        <time>2017-06-22T12:11:51Z</time>
      </trkpt>
      <trkpt lat="65.847054999321699" lon="13.195521030575037">
        <ele>2.54</ele>
        <time>2017-06-22T12:12:02Z</time>
      </trkpt>
      <trkpt lat="65.848202984780073" lon="13.194156959652901">
        <ele>3.5</ele>
        <time>2017-06-22T12:12:13Z</time>
      </trkpt>
      <trkpt lat="65.84937795996666" lon="13.192813005298376">
        <ele>2.06</ele>
        <time>2017-06-22T12:12:24Z</time>
      </trkpt>
      <trkpt lat="65.849492959678173" lon="13.192750979214907">
        <ele>2.06</ele>
        <time>2017-06-22T12:12:25Z</time>
      </trkpt>
      <trkpt lat="65.849609971046448" lon="13.192741004750133">
        <ele>1.58</ele>
        <time>2017-06-22T12:12:26Z</time>
      </trkpt>
      <trkpt lat="65.849728994071484" lon="13.192775035277009">
        <ele>1.58</ele>
        <time>2017-06-22T12:12:27Z</time>
      </trkpt>
      <trkpt lat="65.849844999611378" lon="13.19286203943193">
        <ele>2.06</ele>
        <time>2017-06-22T12:12:28Z</time>
      </trkpt>
      <trkpt lat="65.849954970180988" lon="13.192985001951456">
        <ele>2.06</ele>
        <time>2017-06-22T12:12:29Z</time>
      </trkpt>
      <trkpt lat="65.850053038448095" lon="13.193136965855956">
        <ele>2.06</ele>
        <time>2017-06-22T12:12:30Z</time>
      </trkpt>
      <trkpt lat="65.850134007632732" lon="13.193306028842926">
        <ele>2.06</ele>
        <time>2017-06-22T12:12:31Z</time>
      </trkpt>
      <trkpt lat="65.850198967382312" lon="13.193462016060948">
        <ele>2.06</ele>
        <time>2017-06-22T12:12:32Z</time>
      </trkpt>
      <trkpt lat="65.850250013172626" lon="13.193611968308687">
        <ele>1.58</ele>
        <time>2017-06-22T12:12:33Z</time>
      </trkpt>
      <trkpt lat="65.850298041477799" lon="13.193747000768781">
        <ele>2.06</ele>
        <time>2017-06-22T12:12:34Z</time>
      </trkpt>
      <trkpt lat="65.850574979558587" lon="13.194617964327335">
        <ele>2.06</ele>
        <time>2017-06-22T12:12:42Z</time>
      </trkpt>
      <trkpt lat="65.850918972864747" lon="13.195536034181714">
        <ele>1.58</ele>
        <time>2017-06-22T12:12:47Z</time>
      </trkpt>
      <trkpt lat="65.851017041131854" lon="13.195716999471188">
        <ele>1.58</ele>
        <time>2017-06-22T12:12:48Z</time>
      </trkpt>
      <trkpt lat="65.851131035014987" lon="13.195870975032449">
        <ele>1.58</ele>
        <time>2017-06-22T12:12:49Z</time>
      </trkpt>
      <trkpt lat="65.851260032504797" lon="13.195986980572343">
        <ele>1.58</ele>
        <time>2017-06-22T12:12:50Z</time>
      </trkpt>
      <trkpt lat="65.851406967267394" lon="13.196032997220755">
        <ele>1.58</ele>
        <time>2017-06-22T12:12:51Z</time>
      </trkpt>
      <trkpt lat="65.851553985849023" lon="13.196045989170671">
        <ele>1.58</ele>
        <time>2017-06-22T12:12:52Z</time>
      </trkpt>
      <trkpt lat="65.851708967238665" lon="13.196043977513909">
        <ele>2.06</ele>
        <time>2017-06-22T12:12:53Z</time>
      </trkpt>
      <trkpt lat="65.85249200463295" lon="13.195797968655825">
        <ele>5.42</ele>
        <time>2017-06-22T12:12:58Z</time>
      </trkpt>
      <trkpt lat="65.852631982415915" lon="13.195666037499905">
        <ele>6.39</ele>
        <time>2017-06-22T12:12:59Z</time>
      </trkpt>
      <trkpt lat="65.852763997390866" lon="13.195495968684554">
        <ele>7.35</ele>
        <time>2017-06-22T12:13:00Z</time>
      </trkpt>
      <trkpt lat="65.853012017905712" lon="13.195174019783735">
        <ele>8.789999999999999</ele>
        <time>2017-06-22T12:13:02Z</time>
      </trkpt>
      <trkpt lat="65.853132968768477" lon="13.195097995921969">
        <ele>9.75</ele>
        <time>2017-06-22T12:13:03Z</time>
      </trkpt>
      <trkpt lat="65.85324302315712" lon="13.195109982043505">
        <ele>10.23</ele>
        <time>2017-06-22T12:13:04Z</time>
      </trkpt>
      <trkpt lat="65.853334972634912" lon="13.195194974541664">
        <ele>11.19</ele>
        <time>2017-06-22T12:13:05Z</time>
      </trkpt>
      <trkpt lat="65.853407979011536" lon="13.195324977859855">
        <ele>11.19</ele>
        <time>2017-06-22T12:13:06Z</time>
      </trkpt>
      <trkpt lat="65.853463970124722" lon="13.195473002269864">
        <ele>11.19</ele>
        <time>2017-06-22T12:13:07Z</time>
      </trkpt>
      <trkpt lat="65.853509986773133" lon="13.19561499170959">
        <ele>11.19</ele>
        <time>2017-06-22T12:13:08Z</time>
      </trkpt>
      <trkpt lat="65.853538988158107" lon="13.195733008906245">
        <ele>10.710000000000001</ele>
        <time>2017-06-22T12:13:09Z</time>
      </trkpt>
      <trkpt lat="65.853551980108023" lon="13.195818001404405">
        <ele>10.710000000000001</ele>
        <time>2017-06-22T12:13:10Z</time>
      </trkpt>
      <trkpt lat="65.853592967614532" lon="13.195925960317254">
        <ele>9.75</ele>
        <time>2017-06-22T12:13:20Z</time>
      </trkpt>
      <trkpt lat="65.853658011183143" lon="13.195968037471175">
        <ele>9.75</ele>
        <time>2017-06-22T12:13:21Z</time>
      </trkpt>
      <trkpt lat="65.853747026994824" lon="13.195949010550976">
        <ele>9.27</ele>
        <time>2017-06-22T12:13:22Z</time>
      </trkpt>
      <trkpt lat="65.853850040584803" lon="13.19587298668921">
        <ele>9.27</ele>
        <time>2017-06-22T12:13:23Z</time>
      </trkpt>
      <trkpt lat="65.853962022811174" lon="13.195775002241135">
        <ele>8.789999999999999</ele>
        <time>2017-06-22T12:13:24Z</time>
      </trkpt>
      <trkpt lat="65.854992996901274" lon="13.195209978148341">
        <ele>7.83</ele>
        <time>2017-06-22T12:13:31Z</time>
      </trkpt>
      <trkpt lat="65.856467038393021" lon="13.195086009800434">
        <ele>3.98</ele>
        <time>2017-06-22T12:13:41Z</time>
      </trkpt>
      <trkpt lat="65.857490971684456" lon="13.1946059782058">
        <ele>4.46</ele>
        <time>2017-06-22T12:13:49Z</time>
      </trkpt>
      <trkpt lat="65.858832998201251" lon="13.193501997739077">
        <ele>4.46</ele>
        <time>2017-06-22T12:13:58Z</time>
      </trkpt>
      <trkpt lat="65.859999004751444" lon="13.192077996209264">
        <ele>4.46</ele>
        <time>2017-06-22T12:14:08Z</time>
      </trkpt>
      <trkpt lat="65.860112998634577" lon="13.192013036459684">
        <ele>4.94</ele>
        <time>2017-06-22T12:14:09Z</time>
      </trkpt>
      <trkpt lat="65.860362024977803" lon="13.19194003008306">
        <ele>4.46</ele>
        <time>2017-06-22T12:14:11Z</time>
      </trkpt>
      <trkpt lat="65.860498985275626" lon="13.191952016204596">
        <ele>4.94</ele>
        <time>2017-06-22T12:14:12Z</time>
      </trkpt>
      <trkpt lat="65.860637035220861" lon="13.191998032853007">
        <ele>4.94</ele>
        <time>2017-06-22T12:14:13Z</time>
      </trkpt>
      <trkpt lat="65.860775001347065" lon="13.192098028957844">
        <ele>5.42</ele>
        <time>2017-06-22T12:14:14Z</time>
      </trkpt>
      <trkpt lat="65.860906010493636" lon="13.192225014790893">
        <ele>5.42</ele>
        <time>2017-06-22T12:14:15Z</time>
      </trkpt>
      <trkpt lat="65.861031990498304" lon="13.192398017272353">
        <ele>5.42</ele>
        <time>2017-06-22T12:14:16Z</time>
      </trkpt>
      <trkpt lat="65.861153025180101" lon="13.192593986168504">
        <ele>4.94</ele>
        <time>2017-06-22T12:14:17Z</time>
      </trkpt>
      <trkpt lat="65.861267019063234" lon="13.192817028611898">
        <ele>4.94</ele>
        <time>2017-06-22T12:14:18Z</time>
      </trkpt>
      <trkpt lat="65.861379001289606" lon="13.193061025813222">
        <ele>4.94</ele>
        <time>2017-06-22T12:14:19Z</time>
      </trkpt>
      <trkpt lat="65.861486038193107" lon="13.193317009136081">
        <ele>4.94</ele>
        <time>2017-06-22T12:14:20Z</time>
      </trkpt>
      <trkpt lat="65.862551964819431" lon="13.196009024977684">
        <ele>3.5</ele>
        <time>2017-06-22T12:14:31Z</time>
      </trkpt>
      <trkpt lat="65.863213967531919" lon="13.197535034269094">
        <ele>3.5</ele>
        <time>2017-06-22T12:14:39Z</time>
      </trkpt>
      <trkpt lat="65.863263001665473" lon="13.197577027603984">
        <ele>3.5</ele>
        <time>2017-06-22T12:14:40Z</time>
      </trkpt>
      <trkpt lat="65.863316981121898" lon="13.197571998462081">
        <ele>3.5</ele>
        <time>2017-06-22T12:14:41Z</time>
      </trkpt>
      <trkpt lat="65.863373978063464" lon="13.19752698764205">
        <ele>3.5</ele>
        <time>2017-06-22T12:14:42Z</time>
      </trkpt>
      <trkpt lat="65.863431980833411" lon="13.197424979880452">
        <ele>3.5</ele>
        <time>2017-06-22T12:14:43Z</time>
      </trkpt>
      <trkpt lat="65.863489983603358" lon="13.197293970733881">
        <ele>3.5</ele>
        <time>2017-06-22T12:14:44Z</time>
      </trkpt>
      <trkpt lat="65.863542035222054" lon="13.197170002385974">
        <ele>3.02</ele>
        <time>2017-06-22T12:14:45Z</time>
      </trkpt>
      <trkpt lat="65.863777985796332" lon="13.196578994393349">
        <ele>2.54</ele>
        <time>2017-06-22T12:14:51Z</time>
      </trkpt>
      <trkpt lat="65.863797012716532" lon="13.196459971368313">
        <ele>2.54</ele>
        <time>2017-06-22T12:14:52Z</time>
      </trkpt>
      <trkpt lat="65.863796006888151" lon="13.196337008848786">
        <ele>2.54</ele>
        <time>2017-06-22T12:14:53Z</time>
      </trkpt>
      <trkpt lat="65.863775974139571" lon="13.196201976388693">
        <ele>2.54</ele>
        <time>2017-06-22T12:14:54Z</time>
      </trkpt>
      <trkpt lat="65.863744039088488" lon="13.196079013869166">
        <ele>2.54</ele>
        <time>2017-06-22T12:14:55Z</time>
      </trkpt>
      <trkpt lat="65.863713026046753" lon="13.195964014157653">
        <ele>2.06</ele>
        <time>2017-06-22T12:14:56Z</time>
      </trkpt>
      <trkpt lat="65.863701961934566" lon="13.195859994739294">
        <ele>2.06</ele>
        <time>2017-06-22T12:14:57Z</time>
      </trkpt>
      <trkpt lat="65.863709002733231" lon="13.195753041654825">
        <ele>1.58</ele>
        <time>2017-06-22T12:14:58Z</time>
      </trkpt>
      <trkpt lat="65.86373096331954" lon="13.19565799087286">
        <ele>1.58</ele>
        <time>2017-06-22T12:14:59Z</time>
      </trkpt>
      <trkpt lat="65.863843029364944" lon="13.195335958153009">
        <ele>1.58</ele>
        <time>2017-06-22T12:15:04Z</time>
      </trkpt>
      <trkpt lat="65.863859038800001" lon="13.195363031700253">
        <ele>1.1</ele>
        <time>2017-06-22T12:15:19Z</time>
      </trkpt>
      <trkpt lat="65.863863984122872" lon="13.195390021428466">
        <ele>1.1</ele>
        <time>2017-06-22T12:16:00Z</time>
      </trkpt>
      <trkpt lat="65.863829031586647" lon="13.19544299505651">
        <ele>-76.290000000000006</ele>
        <time>2017-06-22T12:18:33Z</time>
      </trkpt>
      <trkpt lat="65.863832971081138" lon="13.195413993671536">
        <ele>-70.519999999999996</ele>
        <time>2017-06-22T12:20:00Z</time>
      </trkpt>
      <trkpt lat="65.863825008273125" lon="13.195393960922956">
        <ele>-69.079999999999998</ele>
        <time>2017-06-22T12:20:29Z</time>
      </trkpt>
      <trkpt lat="65.863830959424376" lon="13.195451963692904">
        <ele>-67.150000000000006</ele>
        <time>2017-06-22T12:21:21Z</time>
      </trkpt>
      <trkpt lat="65.863835988566279" lon="13.195434026420116">
        <ele>-64.269999999999996</ele>
        <time>2017-06-22T12:21:29Z</time>
      </trkpt>
      <trkpt lat="65.863747978582978" lon="13.195348028093576">
        <ele>-58.020000000000003</ele>
        <time>2017-06-22T12:21:34Z</time>
      </trkpt>
      <trkpt lat="65.863710008561611" lon="13.195393038913608">
        <ele>-54.18</ele>
        <time>2017-06-22T12:21:35Z</time>
      </trkpt>
      <trkpt lat="65.86366499774158" lon="13.195464033633471">
        <ele>-49.850000000000001</ele>
        <time>2017-06-22T12:21:36Z</time>
      </trkpt>
      <trkpt lat="65.863557038828731" lon="13.195590013638139">
        <ele>-33.030000000000001</ele>
        <time>2017-06-22T12:21:43Z</time>
      </trkpt>
      <trkpt lat="65.863537006080151" lon="13.195761004462838">
        <ele>-23.899999999999999</ele>
        <time>2017-06-22T12:21:58Z</time>
      </trkpt>
      <trkpt lat="65.863551003858447" lon="13.195896958932281">
        <ele>-22.93</ele>
        <time>2017-06-22T12:21:59Z</time>
      </trkpt>
      <trkpt lat="65.863580005243421" lon="13.19604498334229">
        <ele>-21.969999999999999</ele>
        <time>2017-06-22T12:22:00Z</time>
      </trkpt>
      <trkpt lat="65.863612024113536" lon="13.19617498666048">
        <ele>-21.010000000000002</ele>
        <time>2017-06-22T12:22:01Z</time>
      </trkpt>
      <trkpt lat="65.863634990528226" lon="13.196256961673498">
        <ele>-20.050000000000001</ele>
        <time>2017-06-22T12:22:02Z</time>
      </trkpt>
      <trkpt lat="65.863661980256438" lon="13.196317981928587">
        <ele>-15.720000000000001</ele>
        <time>2017-06-22T12:22:12Z</time>
      </trkpt>
      <trkpt lat="65.86373096331954" lon="13.196443961933255">
        <ele>-15.24</ele>
        <time>2017-06-22T12:22:16Z</time>
      </trkpt>
      <trkpt lat="65.863785026594996" lon="13.196449996903539">
        <ele>-15.24</ele>
        <time>2017-06-22T12:22:17Z</time>
      </trkpt>
      <trkpt lat="65.863849986344576" lon="13.196402974426746">
        <ele>-15.24</ele>
        <time>2017-06-22T12:22:18Z</time>
      </trkpt>
      <trkpt lat="65.863920981064439" lon="13.196329968050122">
        <ele>-15.24</ele>
        <time>2017-06-22T12:22:19Z</time>
      </trkpt>
      <trkpt lat="65.863993987441063" lon="13.196219997480512">
        <ele>-15.24</ele>
        <time>2017-06-22T12:22:20Z</time>
      </trkpt>
      <trkpt lat="65.864071017131209" lon="13.196083959192038">
        <ele>-15.24</ele>
        <time>2017-06-22T12:22:21Z</time>
      </trkpt>
      <trkpt lat="65.864854976534843" lon="13.194473041221499">
        <ele>-14.279999999999999</ele>
        <time>2017-06-22T12:22:30Z</time>
      </trkpt>
      <trkpt lat="65.865461993962526" lon="13.191881021484733">
        <ele>-13.32</ele>
        <time>2017-06-22T12:22:39Z</time>
      </trkpt>
      <trkpt lat="65.866083009168506" lon="13.188169011846185">
        <ele>-12.84</ele>
        <time>2017-06-22T12:22:49Z</time>
      </trkpt>
      <trkpt lat="65.866932012140751" lon="13.185606999322772">
        <ele>-10.44</ele>
        <time>2017-06-22T12:22:56Z</time>
      </trkpt>
      <trkpt lat="65.868342015892267" lon="13.182583982124925">
        <ele>-9.48</ele>
        <time>2017-06-22T12:23:06Z</time>
      </trkpt>
      <trkpt lat="65.87008997797966" lon="13.178828973323107">
        <ele>-9</ele>
        <time>2017-06-22T12:23:19Z</time>
      </trkpt>
      <trkpt lat="65.872277989983559" lon="13.173876022920012">
        <ele>-6.11</ele>
        <time>2017-06-22T12:23:35Z</time>
      </trkpt>
      <trkpt lat="65.873291026800871" lon="13.170009031891823">
        <ele>-3.71</ele>
        <time>2017-06-22T12:23:45Z</time>
      </trkpt>
      <trkpt lat="65.874283025041223" lon="13.168390989303589">
        <ele>-5.15</ele>
        <time>2017-06-22T12:23:51Z</time>
      </trkpt>
      <trkpt lat="65.876535996794701" lon="13.166280006989837">
        <ele>-0.82</ele>
        <time>2017-06-22T12:24:02Z</time>
      </trkpt>
      <trkpt lat="65.87851395830512" lon="13.164252005517483">
        <ele>-2.27</ele>
        <time>2017-06-22T12:24:12Z</time>
      </trkpt>
      <trkpt lat="65.87995296344161" lon="13.16385998390615">
        <ele>-1.3</ele>
        <time>2017-06-22T12:24:19Z</time>
      </trkpt>
      <trkpt lat="65.881532030180097" lon="13.162806965410709">
        <ele>1.58</ele>
        <time>2017-06-22T12:24:27Z</time>
      </trkpt>
      <trkpt lat="65.88355902582407" lon="13.160997983068228">
        <ele>11.19</ele>
        <time>2017-06-22T12:24:38Z</time>
      </trkpt>
      <trkpt lat="65.8848060015589" lon="13.16087300889194">
        <ele>15.52</ele>
        <time>2017-06-22T12:24:45Z</time>
      </trkpt>
      <trkpt lat="65.894563039764762" lon="13.15956300124526">
        <ele>4.94</ele>
        <time>2017-06-22T12:25:37Z</time>
      </trkpt>
      <trkpt lat="65.895817978307605" lon="13.161936001852155">
        <ele>6.87</ele>
        <time>2017-06-22T12:25:46Z</time>
      </trkpt>
      <trkpt lat="65.897026984021068" lon="13.16366502083838">
        <ele>9.27</ele>
        <time>2017-06-22T12:25:54Z</time>
      </trkpt>
      <trkpt lat="65.899414988234639" lon="13.165899971500039">
        <ele>8.789999999999999</ele>
        <time>2017-06-22T12:26:07Z</time>
      </trkpt>
      <trkpt lat="65.901312986388803" lon="13.167543997988105">
        <ele>5.91</ele>
        <time>2017-06-22T12:26:19Z</time>
      </trkpt>
      <trkpt lat="65.90210298076272" lon="13.167671989649534">
        <ele>2.54</ele>
        <time>2017-06-22T12:26:25Z</time>
      </trkpt>
      <trkpt lat="65.902334991842508" lon="13.167710965499282">
        <ele>2.06</ele>
        <time>2017-06-22T12:26:31Z</time>
      </trkpt>
      <trkpt lat="65.902342032641172" lon="13.167692022398114">
        <ele>3.5</ele>
        <time>2017-06-22T12:26:48Z</time>
      </trkpt>
      <trkpt lat="65.902354018762708" lon="13.167678024619818">
        <ele>3.02</ele>
        <time>2017-06-22T12:26:50Z</time>
      </trkpt>
      <trkpt lat="65.902384025976062" lon="13.167638964951038">
        <ele>3.02</ele>
        <time>2017-06-22T12:26:51Z</time>
      </trkpt>
      <trkpt lat="65.902431970462203" lon="13.167607029899955">
        <ele>3.02</ele>
        <time>2017-06-22T12:26:52Z</time>
      </trkpt>
      <trkpt lat="65.902495002374053" lon="13.167580962181091">
        <ele>2.54</ele>
        <time>2017-06-22T12:26:53Z</time>
      </trkpt>
      <trkpt lat="65.90257303789258" lon="13.167562019079924">
        <ele>3.02</ele>
        <time>2017-06-22T12:26:54Z</time>
      </trkpt>
      <trkpt lat="65.903520025312901" lon="13.167412988841534">
        <ele>5.91</ele>
        <time>2017-06-22T12:27:02Z</time>
      </trkpt>
      <trkpt lat="65.904726013541222" lon="13.167882040143013">
        <ele>6.87</ele>
        <time>2017-06-22T12:27:09Z</time>
      </trkpt>
      <trkpt lat="65.90575497597456" lon="13.169480971992016">
        <ele>8.310000000000001</ele>
        <time>2017-06-22T12:27:15Z</time>
      </trkpt>
      <trkpt lat="65.907177971675992" lon="13.171644005924463">
        <ele>8.789999999999999</ele>
        <time>2017-06-22T12:27:23Z</time>
      </trkpt>
      <trkpt lat="65.908623011782765" lon="13.172392006963491">
        <ele>7.35</ele>
        <time>2017-06-22T12:27:30Z</time>
      </trkpt>
      <trkpt lat="65.909870993345976" lon="13.172034015879035">
        <ele>5.42</ele>
        <time>2017-06-22T12:27:36Z</time>
      </trkpt>
      <trkpt lat="65.910066040232778" lon="13.171848021447659">
        <ele>4.94</ele>
        <time>2017-06-22T12:27:37Z</time>
      </trkpt>
      <trkpt lat="65.910253962501884" lon="13.171626990661025">
        <ele>4.94</ele>
        <time>2017-06-22T12:27:38Z</time>
      </trkpt>
      <trkpt lat="65.910431994125247" lon="13.171371007338166">
        <ele>4.46</ele>
        <time>2017-06-22T12:27:39Z</time>
      </trkpt>
      <trkpt lat="65.910602984949946" lon="13.171077976003289">
        <ele>4.46</ele>
        <time>2017-06-22T12:27:40Z</time>
      </trkpt>
      <trkpt lat="65.91076098382473" lon="13.170761978253722">
        <ele>3.98</ele>
        <time>2017-06-22T12:27:41Z</time>
      </trkpt>
      <trkpt lat="65.910908002406359" lon="13.17041396163404">
        <ele>3.98</ele>
        <time>2017-06-22T12:27:42Z</time>
      </trkpt>
      <trkpt lat="65.911052003502846" lon="13.170035015791655">
        <ele>3.98</ele>
        <time>2017-06-22T12:27:43Z</time>
      </trkpt>
      <trkpt lat="65.91119198128581" lon="13.169625978916883">
        <ele>3.5</ele>
        <time>2017-06-22T12:27:44Z</time>
      </trkpt>
      <trkpt lat="65.91131703928113" lon="13.169174026697874">
        <ele>3.5</ele>
        <time>2017-06-22T12:27:45Z</time>
      </trkpt>
      <trkpt lat="65.911428015679121" lon="13.168689971789718">
        <ele>3.02</ele>
        <time>2017-06-22T12:27:46Z</time>
      </trkpt>
      <trkpt lat="65.911519965156913" lon="13.168169036507607">
        <ele>3.5</ele>
        <time>2017-06-22T12:27:47Z</time>
      </trkpt>
      <trkpt lat="65.911589032039046" lon="13.167623961344361">
        <ele>3.02</ele>
        <time>2017-06-22T12:27:48Z</time>
      </trkpt>
      <trkpt lat="65.911654997617006" lon="13.1670590210706">
        <ele>3.5</ele>
        <time>2017-06-22T12:27:49Z</time>
      </trkpt>
      <trkpt lat="65.912369973957539" lon="13.161394027993083">
        <ele>2.06</ele>
        <time>2017-06-22T12:27:59Z</time>
      </trkpt>
      <trkpt lat="65.912549011409283" lon="13.156074034050107">
        <ele>0.14</ele>
        <time>2017-06-22T12:28:08Z</time>
      </trkpt>
      <trkpt lat="65.912613971158862" lon="13.155537005513906">
        <ele>0.62</ele>
        <time>2017-06-22T12:28:09Z</time>
      </trkpt>
      <trkpt lat="65.912701981142163" lon="13.155017998069525">
        <ele>1.1</ele>
        <time>2017-06-22T12:28:10Z</time>
      </trkpt>
      <trkpt lat="65.912811029702425" lon="13.154521035030484">
        <ele>1.58</ele>
        <time>2017-06-22T12:28:11Z</time>
      </trkpt>
      <trkpt lat="65.912937009707093" lon="13.154061958193779">
        <ele>2.06</ele>
        <time>2017-06-22T12:28:12Z</time>
      </trkpt>
      <trkpt lat="65.913072964176536" lon="13.153645964339375">
        <ele>2.54</ele>
        <time>2017-06-22T12:28:13Z</time>
      </trkpt>
      <trkpt lat="65.913224006071687" lon="13.153260983526707">
        <ele>2.54</ele>
        <time>2017-06-22T12:28:14Z</time>
      </trkpt>
      <trkpt lat="65.913390973582864" lon="13.152910033240914">
        <ele>2.54</ele>
        <time>2017-06-22T12:28:15Z</time>
      </trkpt>
      <trkpt lat="65.913570011034608" lon="13.152589006349444">
        <ele>2.54</ele>
        <time>2017-06-22T12:28:16Z</time>
      </trkpt>
      <trkpt lat="65.913758017122746" lon="13.15230100415647">
        <ele>2.54</ele>
        <time>2017-06-22T12:28:17Z</time>
      </trkpt>
      <trkpt lat="65.913955997675657" lon="13.152047032490373">
        <ele>2.06</ele>
        <time>2017-06-22T12:28:18Z</time>
      </trkpt>
      <trkpt lat="65.914168981835246" lon="13.151829019188881">
        <ele>2.06</ele>
        <time>2017-06-22T12:28:19Z</time>
      </trkpt>
      <trkpt lat="65.914383977651596" lon="13.151640007272363">
        <ele>1.58</ele>
        <time>2017-06-22T12:28:20Z</time>
      </trkpt>
      <trkpt lat="65.915866987779737" lon="13.150036968290806">
        <ele>2.06</ele>
        <time>2017-06-22T12:28:27Z</time>
      </trkpt>
      <trkpt lat="65.917064007371664" lon="13.147189971059561">
        <ele>0.62</ele>
        <time>2017-06-22T12:28:34Z</time>
      </trkpt>
      <trkpt lat="65.917942011728883" lon="13.143888004124165">
        <ele>3.98</ele>
        <time>2017-06-22T12:28:41Z</time>
      </trkpt>
      <trkpt lat="65.918739968910813" lon="13.139436040073633">
        <ele>6.39</ele>
        <time>2017-06-22T12:28:50Z</time>
      </trkpt>
      <trkpt lat="65.919659966602921" lon="13.136977963149548">
        <ele>1.58</ele>
        <time>2017-06-22T12:28:57Z</time>
      </trkpt>
      <trkpt lat="65.920764030888677" lon="13.135113995522261">
        <ele>3.02</ele>
        <time>2017-06-22T12:29:04Z</time>
      </trkpt>
      <trkpt lat="65.922013018280268" lon="13.13442399725318">
        <ele>4.94</ele>
        <time>2017-06-22T12:29:11Z</time>
      </trkpt>
      <trkpt lat="65.923603987321258" lon="13.13466003164649">
        <ele>7.83</ele>
        <time>2017-06-22T12:29:19Z</time>
      </trkpt>
      <trkpt lat="65.925531992688775" lon="13.135621016845107">
        <ele>6.39</ele>
        <time>2017-06-22T12:29:28Z</time>
      </trkpt>
      <trkpt lat="65.927727967500687" lon="13.136008009314537">
        <ele>4.46</ele>
        <time>2017-06-22T12:29:39Z</time>
      </trkpt>
      <trkpt lat="65.929067982360721" lon="13.135079964995384">
        <ele>11.67</ele>
        <time>2017-06-22T12:29:47Z</time>
      </trkpt>
      <trkpt lat="65.929487999528646" lon="13.134646033868194">
        <ele>13.6</ele>
        <time>2017-06-22T12:29:50Z</time>
      </trkpt>
      <trkpt lat="65.929769966751337" lon="13.134544026106596">
        <ele>15.52</ele>
        <time>2017-06-22T12:29:52Z</time>
      </trkpt>
      <trkpt lat="65.929922014474869" lon="13.134540002793074">
        <ele>16.48</ele>
        <time>2017-06-22T12:29:53Z</time>
      </trkpt>
      <trkpt lat="65.930085964500904" lon="13.134647961705923">
        <ele>16.960000000000001</ele>
        <time>2017-06-22T12:29:54Z</time>
      </trkpt>
      <trkpt lat="65.930228959769011" lon="13.134711999446154">
        <ele>17.920000000000002</ele>
        <time>2017-06-22T12:29:55Z</time>
      </trkpt>
      <trkpt lat="65.930387964472175" lon="13.134828004986048">
        <ele>18.399999999999999</ele>
        <time>2017-06-22T12:29:56Z</time>
      </trkpt>
      <trkpt lat="65.930551998317242" lon="13.135009976103902">
        <ele>19.359999999999999</ele>
        <time>2017-06-22T12:29:57Z</time>
      </trkpt>
      <trkpt lat="65.930718965828419" lon="13.135179961100221">
        <ele>19.84</ele>
        <time>2017-06-22T12:29:58Z</time>
      </trkpt>
      <trkpt lat="65.932045988738537" lon="13.136841002851725">
        <ele>25.129999999999999</ele>
        <time>2017-06-22T12:30:06Z</time>
      </trkpt>
      <trkpt lat="65.934015987440944" lon="13.13822703436017">
        <ele>25.129999999999999</ele>
        <time>2017-06-22T12:30:15Z</time>
      </trkpt>
      <trkpt lat="65.936789978295565" lon="13.139727981761098">
        <ele>13.6</ele>
        <time>2017-06-22T12:30:26Z</time>
      </trkpt>
      <trkpt lat="65.938337026163936" lon="13.141805017367005">
        <ele>21.289999999999999</ele>
        <time>2017-06-22T12:30:33Z</time>
      </trkpt>
      <trkpt lat="65.939501021057367" lon="13.144834991544485">
        <ele>30.420000000000002</ele>
        <time>2017-06-22T12:30:40Z</time>
      </trkpt>
      <trkpt lat="65.940735004842281" lon="13.149934960529208">
        <ele>37.149999999999999</ele>
        <time>2017-06-22T12:30:50Z</time>
      </trkpt>
      <trkpt lat="65.941959014162421" lon="13.153664991259575">
        <ele>39.07</ele>
        <time>2017-06-22T12:30:58Z</time>
      </trkpt>
      <trkpt lat="65.943595999851823" lon="13.156465971842408">
        <ele>38.109999999999999</ele>
        <time>2017-06-22T12:31:06Z</time>
      </trkpt>
      <trkpt lat="65.946951024234295" lon="13.161743972450495">
        <ele>39.07</ele>
        <time>2017-06-22T12:31:22Z</time>
      </trkpt>
      <trkpt lat="65.94788895919919" lon="13.165051974356174">
        <ele>43.399999999999999</ele>
        <time>2017-06-22T12:31:29Z</time>
      </trkpt>
      <trkpt lat="65.949043985456228" lon="13.169681970030069">
        <ele>52.049999999999997</ele>
        <time>2017-06-22T12:31:39Z</time>
      </trkpt>
      <trkpt lat="65.950237987563014" lon="13.172124037519097">
        <ele>57.82</ele>
        <time>2017-06-22T12:31:47Z</time>
      </trkpt>
      <trkpt lat="65.951970024034381" lon="13.174428977072239">
        <ele>59.259999999999998</ele>
        <time>2017-06-22T12:31:57Z</time>
      </trkpt>
      <trkpt lat="65.95338799059391" lon="13.177256025373936">
        <ele>58.780000000000001</ele>
        <time>2017-06-22T12:32:06Z</time>
      </trkpt>
      <trkpt lat="65.954988012090325" lon="13.197144018486142">
        <ele>59.740000000000002</ele>
        <time>2017-06-22T12:32:48Z</time>
      </trkpt>
      <trkpt lat="65.955242989584804" lon="13.201212007552385">
        <ele>59.259999999999998</ele>
        <time>2017-06-22T12:32:55Z</time>
      </trkpt>
      <trkpt lat="65.955903986468911" lon="13.205171031877398">
        <ele>60.700000000000003</ele>
        <time>2017-06-22T12:33:02Z</time>
      </trkpt>
      <trkpt lat="65.957030011340976" lon="13.208783967420459">
        <ele>59.740000000000002</ele>
        <time>2017-06-22T12:33:10Z</time>
      </trkpt>
      <trkpt lat="65.958359967917204" lon="13.211280014365911">
        <ele>57.340000000000003</ele>
        <time>2017-06-22T12:33:17Z</time>
      </trkpt>
      <trkpt lat="65.96019602380693" lon="13.21303803473711">
        <ele>50.609999999999999</ele>
        <time>2017-06-22T12:33:25Z</time>
      </trkpt>
      <trkpt lat="65.963130025193095" lon="13.214574018493295">
        <ele>40.509999999999998</ele>
        <time>2017-06-22T12:33:37Z</time>
      </trkpt>
      <trkpt lat="65.964159993454814" lon="13.215840021148324">
        <ele>41.469999999999999</ele>
        <time>2017-06-22T12:33:42Z</time>
      </trkpt>
      <trkpt lat="65.964899025857449" lon="13.217990985140204">
        <ele>44.840000000000003</ele>
        <time>2017-06-22T12:33:47Z</time>
      </trkpt>
      <trkpt lat="65.965243019163609" lon="13.221138976514339">
        <ele>48.200000000000003</ele>
        <time>2017-06-22T12:33:53Z</time>
      </trkpt>
      <trkpt lat="65.964809004217386" lon="13.228398961946368">
        <ele>53.009999999999998</ele>
        <time>2017-06-22T12:34:06Z</time>
      </trkpt>
      <trkpt lat="65.964885028079152" lon="13.228886034339666">
        <ele>50.609999999999999</ele>
        <time>2017-06-22T12:34:07Z</time>
      </trkpt>
      <trkpt lat="65.964935990050435" lon="13.229418033733964">
        <ele>49.649999999999999</ele>
        <time>2017-06-22T12:34:08Z</time>
      </trkpt>
      <trkpt lat="65.965057024732232" lon="13.229942992329597">
        <ele>49.649999999999999</ele>
        <time>2017-06-22T12:34:09Z</time>
      </trkpt>
      <trkpt lat="65.965172024443746" lon="13.230480020865798">
        <ele>47.240000000000002</ele>
        <time>2017-06-22T12:34:10Z</time>
      </trkpt>
      <trkpt lat="65.965293981134892" lon="13.230992993339896">
        <ele>47.719999999999999</ele>
        <time>2017-06-22T12:34:11Z</time>
      </trkpt>
      <trkpt lat="65.965414009988308" lon="13.23147302493453">
        <ele>48.200000000000003</ele>
        <time>2017-06-22T12:34:12Z</time>
      </trkpt>
      <trkpt lat="65.965560022741556" lon="13.231932017952204">
        <ele>48.200000000000003</ele>
        <time>2017-06-22T12:34:13Z</time>
      </trkpt>
      <trkpt lat="65.965715004131198" lon="13.23235203512013">
        <ele>48.200000000000003</ele>
        <time>2017-06-22T12:34:14Z</time>
      </trkpt>
      <trkpt lat="65.965888006612659" lon="13.232755037024617">
        <ele>48.68</ele>
        <time>2017-06-22T12:34:15Z</time>
      </trkpt>
      <trkpt lat="65.966074001044035" lon="13.233124008402228">
        <ele>48.68</ele>
        <time>2017-06-22T12:34:16Z</time>
      </trkpt>
      <trkpt lat="65.966274999082088" lon="13.233472025021911">
        <ele>48.68</ele>
        <time>2017-06-22T12:34:17Z</time>
      </trkpt>
      <trkpt lat="65.96649301238358" lon="13.233764972537756">
        <ele>49.159999999999997</ele>
        <time>2017-06-22T12:34:18Z</time>
      </trkpt>
      <trkpt lat="65.966713037341833" lon="13.234034031629562">
        <ele>49.649999999999999</ele>
        <time>2017-06-22T12:34:19Z</time>
      </trkpt>
      <trkpt lat="65.968785965815187" lon="13.236840963363647">
        <ele>55.890000000000001</ele>
        <time>2017-06-22T12:34:29Z</time>
      </trkpt>
      <trkpt lat="65.96980101428926" lon="13.239963976666331">
        <ele>50.130000000000003</ele>
        <time>2017-06-22T12:34:36Z</time>
      </trkpt>
      <trkpt lat="65.971013037487864" lon="13.242803011089563">
        <ele>46.759999999999998</ele>
        <time>2017-06-22T12:34:43Z</time>
      </trkpt>
      <trkpt lat="65.972562013193965" lon="13.244277974590659">
        <ele>51.57</ele>
        <time>2017-06-22T12:34:50Z</time>
      </trkpt>
      <trkpt lat="65.973951984196901" lon="13.246058039367199">
        <ele>58.299999999999997</ele>
        <time>2017-06-22T12:34:57Z</time>
      </trkpt>
      <trkpt lat="65.975067028775811" lon="13.249036967754364">
        <ele>60.219999999999999</ele>
        <time>2017-06-22T12:35:04Z</time>
      </trkpt>
      <trkpt lat="65.977224027737975" lon="13.256384963169694">
        <ele>69.349999999999994</ele>
        <time>2017-06-22T12:35:19Z</time>
      </trkpt>
      <trkpt lat="65.979051031172276" lon="13.261131970211864">
        <ele>77.040000000000006</ele>
        <time>2017-06-22T12:35:30Z</time>
      </trkpt>
      <trkpt lat="65.981370974332094" lon="13.265533978119493">
        <ele>72.239999999999995</ele>
        <time>2017-06-22T12:35:42Z</time>
      </trkpt>
      <trkpt lat="65.98402502015233" lon="13.269193014129996">
        <ele>54.93</ele>
        <time>2017-06-22T12:35:54Z</time>
      </trkpt>
      <trkpt lat="65.985305020585656" lon="13.271904978901148">
        <ele>45.32</ele>
        <time>2017-06-22T12:36:01Z</time>
      </trkpt>
      <trkpt lat="65.986893977969885" lon="13.27706404030323">
        <ele>30.899999999999999</ele>
        <time>2017-06-22T12:36:12Z</time>
      </trkpt>
      <trkpt lat="65.98817003890872" lon="13.280089991167188">
        <ele>21.289999999999999</ele>
        <time>2017-06-22T12:36:20Z</time>
      </trkpt>
      <trkpt lat="65.989359011873603" lon="13.281236970797181">
        <ele>21.77</ele>
        <time>2017-06-22T12:36:27Z</time>
      </trkpt>
      <trkpt lat="65.990794999524951" lon="13.282377999275923">
        <ele>23.690000000000001</ele>
        <time>2017-06-22T12:36:37Z</time>
      </trkpt>
      <trkpt lat="65.99186897277832" lon="13.284303992986679">
        <ele>27.050000000000001</ele>
        <time>2017-06-22T12:36:47Z</time>
      </trkpt>
      <trkpt lat="65.993066998198628" lon="13.286766009405255">
        <ele>33.780000000000001</ele>
        <time>2017-06-22T12:36:59Z</time>
      </trkpt>
      <trkpt lat="65.994336018338799" lon="13.287617024034262">
        <ele>41.469999999999999</ele>
        <time>2017-06-22T12:37:07Z</time>
      </trkpt>
      <trkpt lat="65.995681984350085" lon="13.287090975791216">
        <ele>48.200000000000003</ele>
        <time>2017-06-22T12:37:14Z</time>
      </trkpt>
      <trkpt lat="65.996796023100615" lon="13.28529498539865">
        <ele>55.409999999999997</ele>
        <time>2017-06-22T12:37:20Z</time>
      </trkpt>
      <trkpt lat="65.99777796305716" lon="13.282052027061582">
        <ele>64.069999999999993</ele>
        <time>2017-06-22T12:37:27Z</time>
      </trkpt>
      <trkpt lat="65.998870963230729" lon="13.279123976826668">
        <ele>69.349999999999994</ele>
        <time>2017-06-22T12:37:34Z</time>
      </trkpt>
      <trkpt lat="65.999262984842062" lon="13.278572028502822">
        <ele>69.349999999999994</ele>
        <time>2017-06-22T12:37:36Z</time>
      </trkpt>
      <trkpt lat="65.999473035335541" lon="13.278363989666104">
        <ele>69.349999999999994</ele>
        <time>2017-06-22T12:37:37Z</time>
      </trkpt>
      <trkpt lat="65.999689036980271" lon="13.278192998841405">
        <ele>69.349999999999994</ele>
        <time>2017-06-22T12:37:38Z</time>
      </trkpt>
      <trkpt lat="65.999909983947873" lon="13.278066013008356">
        <ele>68.870000000000005</ele>
        <time>2017-06-22T12:37:39Z</time>
      </trkpt>
      <trkpt lat="66.000135960057378" lon="13.2779670227319">
        <ele>68.870000000000005</ele>
        <time>2017-06-22T12:37:40Z</time>
      </trkpt>
      <trkpt lat="66.000365959480405" lon="13.277910025790334">
        <ele>68.390000000000001</ele>
        <time>2017-06-22T12:37:41Z</time>
      </trkpt>
      <trkpt lat="66.000597970560193" lon="13.277892004698515">
        <ele>67.909999999999997</ele>
        <time>2017-06-22T12:37:42Z</time>
      </trkpt>
      <trkpt lat="66.001997999846935" lon="13.27843900769949">
        <ele>65.510000000000005</ele>
        <time>2017-06-22T12:37:48Z</time>
      </trkpt>
      <trkpt lat="66.004842985421419" lon="13.280267016962171">
        <ele>57.82</ele>
        <time>2017-06-22T12:38:00Z</time>
      </trkpt>
      <trkpt lat="66.00628299638629" lon="13.279953030869365">
        <ele>53.009999999999998</ele>
        <time>2017-06-22T12:38:06Z</time>
      </trkpt>
      <trkpt lat="66.007505999878049" lon="13.278163997456431">
        <ele>48.200000000000003</ele>
        <time>2017-06-22T12:38:12Z</time>
      </trkpt>
      <trkpt lat="66.008945005014539" lon="13.275227984413505">
        <ele>35.710000000000001</ele>
        <time>2017-06-22T12:38:20Z</time>
      </trkpt>
      <trkpt lat="66.010272027924657" lon="13.274404965341091">
        <ele>25.609999999999999</ele>
        <time>2017-06-22T12:38:26Z</time>
      </trkpt>
      <trkpt lat="66.012080004438758" lon="13.274796986952424">
        <ele>27.530000000000001</ele>
        <time>2017-06-22T12:38:34Z</time>
      </trkpt>
      <trkpt lat="66.014861036092043" lon="13.275108961388469">
        <ele>39.549999999999997</ele>
        <time>2017-06-22T12:38:47Z</time>
      </trkpt>
      <trkpt lat="66.016477989032865" lon="13.274174965918064">
        <ele>46.280000000000001</ele>
        <time>2017-06-22T12:38:55Z</time>
      </trkpt>
      <trkpt lat="66.018096031621099" lon="13.272121986374259">
        <ele>51.57</ele>
        <time>2017-06-22T12:39:04Z</time>
      </trkpt>
      <trkpt lat="66.080815969035029" lon="13.087662030011415">
        <ele>15.52</ele>
        <time>2017-06-22T12:46:20Z</time>
      </trkpt>
      <trkpt lat="66.082103010267019" lon="13.083637962117791">
        <ele>7.83</ele>
        <time>2017-06-22T12:46:31Z</time>
      </trkpt>
      <trkpt lat="66.082675997167826" lon="13.080227030441165">
        <ele>9.27</ele>
        <time>2017-06-22T12:46:38Z</time>
      </trkpt>
      <trkpt lat="66.082803988829255" lon="13.075550012290478">
        <ele>20.32</ele>
        <time>2017-06-22T12:46:47Z</time>
      </trkpt>
      <trkpt lat="66.08320196159184" lon="13.072560019791126">
        <ele>30.899999999999999</ele>
        <time>2017-06-22T12:46:53Z</time>
      </trkpt>
      <trkpt lat="66.084166970103979" lon="13.068948006257415">
        <ele>42.439999999999998</ele>
        <time>2017-06-22T12:47:01Z</time>
      </trkpt>
      <trkpt lat="66.084685977548361" lon="13.065176988020539">
        <ele>43.880000000000003</ele>
        <time>2017-06-22T12:47:08Z</time>
      </trkpt>
      <trkpt lat="66.084827966988087" lon="13.059799997135997">
        <ele>40.990000000000002</ele>
        <time>2017-06-22T12:47:17Z</time>
      </trkpt>
      <trkpt lat="66.085214037448168" lon="13.053414998576045">
        <ele>37.630000000000003</ele>
        <time>2017-06-22T12:47:28Z</time>
      </trkpt>
      <trkpt lat="66.085801022127271" lon="13.051020037382841">
        <ele>37.630000000000003</ele>
        <time>2017-06-22T12:47:34Z</time>
      </trkpt>
      <trkpt lat="66.086350036785007" lon="13.048909977078438">
        <ele>38.109999999999999</ele>
        <time>2017-06-22T12:47:42Z</time>
      </trkpt>
      <trkpt lat="66.086468975991011" lon="13.04856900125742">
        <ele>38.109999999999999</ele>
        <time>2017-06-22T12:47:45Z</time>
      </trkpt>
      <trkpt lat="66.086506024003029" lon="13.048534970730543">
        <ele>38.109999999999999</ele>
        <time>2017-06-22T12:47:46Z</time>
      </trkpt>
      <trkpt lat="66.086550028994679" lon="13.048522984609008">
        <ele>38.109999999999999</ele>
        <time>2017-06-22T12:47:47Z</time>
      </trkpt>
      <trkpt lat="66.086608031764627" lon="13.048565983772278">
        <ele>39.07</ele>
        <time>2017-06-22T12:47:48Z</time>
      </trkpt>
      <trkpt lat="66.086676008999348" lon="13.048659022897482">
        <ele>40.030000000000001</ele>
        <time>2017-06-22T12:47:49Z</time>
      </trkpt>
      <trkpt lat="66.086749015375972" lon="13.048782991245389">
        <ele>40.509999999999998</ele>
        <time>2017-06-22T12:47:50Z</time>
      </trkpt>
      <trkpt lat="66.087467009201646" lon="13.049980010837317">
        <ele>46.759999999999998</ele>
        <time>2017-06-22T12:47:57Z</time>
      </trkpt>
      <trkpt lat="66.088925041258335" lon="13.052315041422844">
        <ele>58.299999999999997</ele>
        <time>2017-06-22T12:48:07Z</time>
      </trkpt>
      <trkpt lat="66.091330982744694" lon="13.056152025237679">
        <ele>59.740000000000002</ele>
        <time>2017-06-22T12:48:21Z</time>
      </trkpt>
      <trkpt lat="66.092706033959985" lon="13.057500002905726">
        <ele>58.780000000000001</ele>
        <time>2017-06-22T12:48:28Z</time>
      </trkpt>
      <trkpt lat="66.096235988661647" lon="13.059868980199099">
        <ele>59.740000000000002</ele>
        <time>2017-06-22T12:48:45Z</time>
      </trkpt>
      <trkpt lat="66.099183987826109" lon="13.061834033578634">
        <ele>56.859999999999999</ele>
        <time>2017-06-22T12:48:58Z</time>
      </trkpt>
      <trkpt lat="66.101112999022007" lon="13.063920037820935">
        <ele>54.450000000000003</ele>
        <time>2017-06-22T12:49:07Z</time>
      </trkpt>
      <trkpt lat="66.10348298214376" lon="13.067421996966004">
        <ele>51.090000000000003</ele>
        <time>2017-06-22T12:49:19Z</time>
      </trkpt>
      <trkpt lat="66.105660013854504" lon="13.070499999448657">
        <ele>63.100000000000001</ele>
        <time>2017-06-22T12:49:32Z</time>
      </trkpt>
      <trkpt lat="66.107390960678458" lon="13.07231199927628">
        <ele>60.700000000000003</ele>
        <time>2017-06-22T12:49:41Z</time>
      </trkpt>
      <trkpt lat="66.107596987858415" lon="13.072400009259582">
        <ele>61.659999999999997</ele>
        <time>2017-06-22T12:49:42Z</time>
      </trkpt>
      <trkpt lat="66.109445029869676" lon="13.072957992553711">
        <ele>74.159999999999997</ele>
        <time>2017-06-22T12:49:51Z</time>
      </trkpt>
      <trkpt lat="66.109640998765826" lon="13.073137030005455">
        <ele>75.120000000000005</ele>
        <time>2017-06-22T12:49:52Z</time>
      </trkpt>
      <trkpt lat="66.109832022339106" lon="13.073354037478566">
        <ele>76.079999999999998</ele>
        <time>2017-06-22T12:49:53Z</time>
      </trkpt>
      <trkpt lat="66.111591970548034" lon="13.07549100369215">
        <ele>70.310000000000002</ele>
        <time>2017-06-22T12:50:02Z</time>
      </trkpt>
      <trkpt lat="66.113331969827414" lon="13.076820960268378">
        <ele>73.680000000000007</ele>
        <time>2017-06-22T12:50:11Z</time>
      </trkpt>
      <trkpt lat="66.113481000065804" lon="13.076850967481732">
        <ele>74.640000000000001</ele>
        <time>2017-06-22T12:50:12Z</time>
      </trkpt>
      <trkpt lat="66.113630030304193" lon="13.076832024380565">
        <ele>75.599999999999994</ele>
        <time>2017-06-22T12:50:13Z</time>
      </trkpt>
      <trkpt lat="66.113774031400681" lon="13.07673797942698">
        <ele>76.079999999999998</ele>
        <time>2017-06-22T12:50:14Z</time>
      </trkpt>
      <trkpt lat="66.113907974213362" lon="13.076592972502112">
        <ele>77.040000000000006</ele>
        <time>2017-06-22T12:50:15Z</time>
      </trkpt>
      <trkpt lat="66.114022973924875" lon="13.076397003605962">
        <ele>78</ele>
        <time>2017-06-22T12:50:16Z</time>
      </trkpt>
      <trkpt lat="66.114121964201331" lon="13.076147977262735">
        <ele>78.480000000000004</ele>
        <time>2017-06-22T12:50:17Z</time>
      </trkpt>
      <trkpt lat="66.114201005548239" lon="13.075840026140213">
        <ele>78.969999999999999</ele>
        <time>2017-06-22T12:50:18Z</time>
      </trkpt>
      <trkpt lat="66.114261019974947" lon="13.075476000085473">
        <ele>78.969999999999999</ele>
        <time>2017-06-22T12:50:19Z</time>
      </trkpt>
      <trkpt lat="66.114299995824695" lon="13.075056988745928">
        <ele>78.480000000000004</ele>
        <time>2017-06-22T12:50:20Z</time>
      </trkpt>
      <trkpt lat="66.114321034401655" lon="13.074623979628086">
        <ele>78</ele>
        <time>2017-06-22T12:50:21Z</time>
      </trkpt>
      <trkpt lat="66.114322962239385" lon="13.07416096329689">
        <ele>77.519999999999996</ele>
        <time>2017-06-22T12:50:22Z</time>
      </trkpt>
      <trkpt lat="66.114319022744894" lon="13.073676992207766">
        <ele>76.079999999999998</ele>
        <time>2017-06-22T12:50:23Z</time>
      </trkpt>
      <trkpt lat="66.114420024678111" lon="13.071692995727062">
        <ele>68.870000000000005</ele>
        <time>2017-06-22T12:50:27Z</time>
      </trkpt>
      <trkpt lat="66.114489007741213" lon="13.071226039901376">
        <ele>67.909999999999997</ele>
        <time>2017-06-22T12:50:28Z</time>
      </trkpt>
      <trkpt lat="66.114579029381275" lon="13.070782972499728">
        <ele>67.909999999999997</ele>
        <time>2017-06-22T12:50:29Z</time>
      </trkpt>
      <trkpt lat="66.114687994122505" lon="13.070381982252002">
        <ele>67.909999999999997</ele>
        <time>2017-06-22T12:50:30Z</time>
      </trkpt>
      <trkpt lat="66.114815985783935" lon="13.070015022531152">
        <ele>67.909999999999997</ele>
        <time>2017-06-22T12:50:31Z</time>
      </trkpt>
      <trkpt lat="66.114959986880422" lon="13.069671029224992">
        <ele>67.909999999999997</ele>
        <time>2017-06-22T12:50:32Z</time>
      </trkpt>
      <trkpt lat="66.115114968270063" lon="13.069353019818664">
        <ele>67.909999999999997</ele>
        <time>2017-06-22T12:50:33Z</time>
      </trkpt>
      <trkpt lat="66.117473971098661" lon="13.064993005245924">
        <ele>68.870000000000005</ele>
        <time>2017-06-22T12:50:47Z</time>
      </trkpt>
      <trkpt lat="66.118646012619138" lon="13.063691966235638">
        <ele>73.680000000000007</ele>
        <time>2017-06-22T12:50:53Z</time>
      </trkpt>
      <trkpt lat="66.119067035615444" lon="13.063533967360854">
        <ele>78</ele>
        <time>2017-06-22T12:50:55Z</time>
      </trkpt>
      <trkpt lat="66.119278008118272" lon="13.063521981239319">
        <ele>80.409999999999997</ele>
        <time>2017-06-22T12:50:56Z</time>
      </trkpt>
      <trkpt lat="66.119493003934622" lon="13.063557017594576">
        <ele>82.810000000000002</ele>
        <time>2017-06-22T12:50:57Z</time>
      </trkpt>
      <trkpt lat="66.120942989364266" lon="13.064452959224582">
        <ele>95.310000000000002</ele>
        <time>2017-06-22T12:51:04Z</time>
      </trkpt>
      <trkpt lat="66.122468998655677" lon="13.065446969121695">
        <ele>95.790000000000006</ele>
        <time>2017-06-22T12:51:11Z</time>
      </trkpt>
      <trkpt lat="66.125597041100264" lon="13.065978968515992">
        <ele>98.189999999999998</ele>
        <time>2017-06-22T12:51:24Z</time>
      </trkpt>
      <trkpt lat="66.12814798951149" lon="13.065292993560433">
        <ele>102.52</ele>
        <time>2017-06-22T12:51:35Z</time>
      </trkpt>
      <trkpt lat="66.129946997389197" lon="13.065271032974124">
        <ele>92.900000000000006</ele>
        <time>2017-06-22T12:51:43Z</time>
      </trkpt>
      <trkpt lat="66.133135976269841" lon="13.066636025905609">
        <ele>84.730000000000004</ele>
        <time>2017-06-22T12:51:57Z</time>
      </trkpt>
      <trkpt lat="66.134698027744889" lon="13.066589003428817">
        <ele>81.370000000000005</ele>
        <time>2017-06-22T12:52:04Z</time>
      </trkpt>
      <trkpt lat="66.13547402434051" lon="13.066562013700604">
        <ele>76.560000000000002</ele>
        <time>2017-06-22T12:52:08Z</time>
      </trkpt>
      <trkpt lat="66.135659012943506" lon="13.06661800481379">
        <ele>75.599999999999994</ele>
        <time>2017-06-22T12:52:09Z</time>
      </trkpt>
      <trkpt lat="66.135836960747838" lon="13.066749013960361">
        <ele>74.159999999999997</ele>
        <time>2017-06-22T12:52:10Z</time>
      </trkpt>
      <trkpt lat="66.136002000421286" lon="13.066936014220119">
        <ele>73.200000000000003</ele>
        <time>2017-06-22T12:52:11Z</time>
      </trkpt>
      <trkpt lat="66.136150024831295" lon="13.067172970622778">
        <ele>72.239999999999995</ele>
        <time>2017-06-22T12:52:12Z</time>
      </trkpt>
      <trkpt lat="66.136282039806247" lon="13.067442029714584">
        <ele>70.310000000000002</ele>
        <time>2017-06-22T12:52:13Z</time>
      </trkpt>
      <trkpt lat="66.136411037296057" lon="13.067743023857474">
        <ele>69.349999999999994</ele>
        <time>2017-06-22T12:52:14Z</time>
      </trkpt>
      <trkpt lat="66.1365279648453" lon="13.068053992465138">
        <ele>67.909999999999997</ele>
        <time>2017-06-22T12:52:15Z</time>
      </trkpt>
      <trkpt lat="66.137692965567112" lon="13.071649996563792">
        <ele>54.93</ele>
        <time>2017-06-22T12:52:25Z</time>
      </trkpt>
      <trkpt lat="66.137767983600497" lon="13.072059033438563">
        <ele>53.490000000000002</ele>
        <time>2017-06-22T12:52:26Z</time>
      </trkpt>
      <trkpt lat="66.137826992198825" lon="13.072480978444219">
        <ele>52.049999999999997</ele>
        <time>2017-06-22T12:52:27Z</time>
      </trkpt>
      <trkpt lat="66.13787803798914" lon="13.072920022532344">
        <ele>51.090000000000003</ele>
        <time>2017-06-22T12:52:28Z</time>
      </trkpt>
      <trkpt lat="66.137919025495648" lon="13.073389995843172">
        <ele>49.649999999999999</ele>
        <time>2017-06-22T12:52:29Z</time>
      </trkpt>
      <trkpt lat="66.137950038537383" lon="13.073862986639142">
        <ele>48.200000000000003</ele>
        <time>2017-06-22T12:52:30Z</time>
      </trkpt>
      <trkpt lat="66.138300988823175" lon="13.079046020284295">
        <ele>30.899999999999999</ele>
        <time>2017-06-22T12:52:41Z</time>
      </trkpt>
      <trkpt lat="66.138372989371419" lon="13.079438041895628">
        <ele>28.98</ele>
        <time>2017-06-22T12:52:42Z</time>
      </trkpt>
      <trkpt lat="66.138469967991114" lon="13.079791003838181">
        <ele>27.530000000000001</ele>
        <time>2017-06-22T12:52:43Z</time>
      </trkpt>
      <trkpt lat="66.138591002672911" lon="13.080085041001439">
        <ele>26.09</ele>
        <time>2017-06-22T12:52:44Z</time>
      </trkpt>
      <trkpt lat="66.138724023476243" lon="13.080339012667537">
        <ele>24.649999999999999</ele>
        <time>2017-06-22T12:52:45Z</time>
      </trkpt>
      <trkpt lat="66.138872969895601" lon="13.080534981563687">
        <ele>23.690000000000001</ele>
        <time>2017-06-22T12:52:46Z</time>
      </trkpt>
      <trkpt lat="66.139027029275894" lon="13.080685017630458">
        <ele>22.73</ele>
        <time>2017-06-22T12:52:47Z</time>
      </trkpt>
      <trkpt lat="66.139190979301929" lon="13.080791970714927">
        <ele>21.77</ele>
        <time>2017-06-22T12:52:48Z</time>
      </trkpt>
      <trkpt lat="66.139361970126629" lon="13.080881992354989">
        <ele>21.289999999999999</ele>
        <time>2017-06-22T12:52:49Z</time>
      </trkpt>
      <trkpt lat="66.141229039058089" lon="13.082006005570292">
        <ele>13.6</ele>
        <time>2017-06-22T12:52:59Z</time>
      </trkpt>
      <trkpt lat="66.141582001000643" lon="13.082404984161258">
        <ele>11.19</ele>
        <time>2017-06-22T12:53:01Z</time>
      </trkpt>
      <trkpt lat="66.141742011532187" lon="13.082661973312497">
        <ele>9.75</ele>
        <time>2017-06-22T12:53:02Z</time>
      </trkpt>
      <trkpt lat="66.141894981265068" lon="13.082963973283768">
        <ele>8.310000000000001</ele>
        <time>2017-06-22T12:53:03Z</time>
      </trkpt>
      <trkpt lat="66.143270032480359" lon="13.086544973775744">
        <ele>5.91</ele>
        <time>2017-06-22T12:53:13Z</time>
      </trkpt>
      <trkpt lat="66.14417402073741" lon="13.089057030156255">
        <ele>3.02</ele>
        <time>2017-06-22T12:53:20Z</time>
      </trkpt>
      <trkpt lat="66.14432699047029" lon="13.089348971843719">
        <ele>2.06</ele>
        <time>2017-06-22T12:53:21Z</time>
      </trkpt>
      <trkpt lat="66.144508039578795" lon="13.089614007622004">
        <ele>3.02</ele>
        <time>2017-06-22T12:53:22Z</time>
      </trkpt>
      <trkpt lat="66.144680036231875" lon="13.089852975681424">
        <ele>2.06</ele>
        <time>2017-06-22T12:53:23Z</time>
      </trkpt>
      <trkpt lat="66.14486200734973" lon="13.090075012296438">
        <ele>0.62</ele>
        <time>2017-06-22T12:53:24Z</time>
      </trkpt>
      <trkpt lat="66.145053030923009" lon="13.090267963707447">
        <ele>0.14</ele>
        <time>2017-06-22T12:53:25Z</time>
      </trkpt>
      <trkpt lat="66.145254028961062" lon="13.090439960360527">
        <ele>0.14</ele>
        <time>2017-06-22T12:53:26Z</time>
      </trkpt>
      <trkpt lat="66.147886030375957" lon="13.092267969623208">
        <ele>-2.27</ele>
        <time>2017-06-22T12:53:39Z</time>
      </trkpt>
      <trkpt lat="66.149668022990227" lon="13.09328100644052">
        <ele>4.46</ele>
        <time>2017-06-22T12:53:48Z</time>
      </trkpt>
      <trkpt lat="66.150783989578485" lon="13.095153020694852">
        <ele>10.23</ele>
        <time>2017-06-22T12:53:55Z</time>
      </trkpt>
      <trkpt lat="66.152250990271568" lon="13.098202021792531">
        <ele>10.23</ele>
        <time>2017-06-22T12:54:05Z</time>
      </trkpt>
      <trkpt lat="66.152789024636149" lon="13.099374985322356">
        <ele>11.19</ele>
        <time>2017-06-22T12:54:12Z</time>
      </trkpt>
      <trkpt lat="66.153582958504558" lon="13.101345989853144">
        <ele>6.39</ele>
        <time>2017-06-22T12:54:22Z</time>
      </trkpt>
      <trkpt lat="66.153893005102873" lon="13.102074963971972">
        <ele>6.87</ele>
        <time>2017-06-22T12:54:28Z</time>
      </trkpt>
      <trkpt lat="66.15393097512424" lon="13.10208803974092">
        <ele>6.87</ele>
        <time>2017-06-22T12:54:29Z</time>
      </trkpt>
      <trkpt lat="66.153969028964639" lon="13.102060966193676">
        <ele>6.87</ele>
        <time>2017-06-22T12:54:30Z</time>
      </trkpt>
      <trkpt lat="66.153999036177993" lon="13.102005980908871">
        <ele>6.87</ele>
        <time>2017-06-22T12:54:31Z</time>
      </trkpt>
      <trkpt lat="66.154018985107541" lon="13.101946972310543">
        <ele>6.87</ele>
        <time>2017-06-22T12:54:32Z</time>
      </trkpt>
      <trkpt lat="66.154026025906205" lon="13.101897016167641">
        <ele>6.87</ele>
        <time>2017-06-22T12:54:33Z</time>
      </trkpt>
      <trkpt lat="66.154025020077825" lon="13.101878995075822">
        <ele>5.91</ele>
        <time>2017-06-22T12:54:51Z</time>
      </trkpt>
      <trkpt lat="66.154070030897856" lon="13.101470964029431">
        <ele>5.91</ele>
        <time>2017-06-22T12:55:43Z</time>
      </trkpt>
      <trkpt lat="66.154250996187329" lon="13.09923199005425">
        <ele>4.46</ele>
        <time>2017-06-22T12:55:51Z</time>
      </trkpt>
      <trkpt lat="66.154559031128883" lon="13.095082025974989">
        <ele>9.75</ele>
        <time>2017-06-22T12:56:01Z</time>
      </trkpt>
      <trkpt lat="66.154852984473109" lon="13.090535011142492">
        <ele>2.54</ele>
        <time>2017-06-22T12:56:11Z</time>
      </trkpt>
      <trkpt lat="66.15464000031352" lon="13.08754300698638">
        <ele>-2.27</ele>
        <time>2017-06-22T12:56:17Z</time>
      </trkpt>
      <trkpt lat="66.153759984299541" lon="13.08238604106009">
        <ele>-1.3</ele>
        <time>2017-06-22T12:56:28Z</time>
      </trkpt>
      <trkpt lat="66.153642972931266" lon="13.081775000318885">
        <ele>-2.27</ele>
        <time>2017-06-22T12:56:33Z</time>
      </trkpt>
      <trkpt lat="66.153574995696545" lon="13.08146595954895">
        <ele>-2.27</ele>
        <time>2017-06-22T12:56:46Z</time>
      </trkpt>
      <trkpt lat="66.153569966554642" lon="13.081464031711221">
        <ele>-2.75</ele>
        <time>2017-06-22T12:57:18Z</time>
      </trkpt>
      <trkpt lat="66.153569966554642" lon="13.081466965377331">
        <ele>-2.27</ele>
        <time>2017-06-22T12:59:04Z</time>
      </trkpt>
      <trkpt lat="66.153568960726261" lon="13.081470988690853">
        <ele>-2.75</ele>
        <time>2017-06-22T13:01:00Z</time>
      </trkpt>
      <trkpt lat="66.153568960726261" lon="13.081476017832756">
        <ele>-2.27</ele>
        <time>2017-06-22T13:03:05Z</time>
      </trkpt>
      <trkpt lat="66.153567032888532" lon="13.081480963155627">
        <ele>-2.75</ele>
        <time>2017-06-22T13:05:08Z</time>
      </trkpt>
      <trkpt lat="66.153485979884863" lon="13.081100005656481">
        <ele>-2.75</ele>
        <time>2017-06-22T13:05:29Z</time>
      </trkpt>
      <trkpt lat="66.153366034850478" lon="13.080386035144329">
        <ele>-4.19</ele>
        <time>2017-06-22T13:05:48Z</time>
      </trkpt>
      <trkpt lat="66.153341978788376" lon="13.07980801910162">
        <ele>-5.15</ele>
        <time>2017-06-22T13:06:04Z</time>
      </trkpt>
      <trkpt lat="66.153312977403402" lon="13.0792719963938">
        <ele>-6.59</ele>
        <time>2017-06-22T13:06:21Z</time>
      </trkpt>
      <trkpt lat="66.153241982683539" lon="13.079032022505999">
        <ele>-7.07</ele>
        <time>2017-06-22T13:06:34Z</time>
      </trkpt>
      <trkpt lat="66.153221027925611" lon="13.078965973109007">
        <ele>-7.07</ele>
        <time>2017-06-22T13:06:36Z</time>
      </trkpt>
      <trkpt lat="66.153127988800406" lon="13.078458029776812">
        <ele>-7.07</ele>
        <time>2017-06-22T13:06:48Z</time>
      </trkpt>
      <trkpt lat="66.153137041255832" lon="13.07843497954309">
        <ele>-6.59</ele>
        <time>2017-06-22T13:06:49Z</time>
      </trkpt>
      <trkpt lat="66.153114996850491" lon="13.078301958739758">
        <ele>-7.07</ele>
        <time>2017-06-22T13:06:55Z</time>
      </trkpt>
      <trkpt lat="66.153109967708588" lon="13.078297013416886">
        <ele>-7.07</ele>
        <time>2017-06-22T13:07:27Z</time>
      </trkpt>
      <trkpt lat="66.153033021837473" lon="13.078094003722072">
        <ele>-7.07</ele>
        <time>2017-06-22T13:08:13Z</time>
      </trkpt>
      <trkpt lat="66.153019024059176" lon="13.077931981533766">
        <ele>-10.44</ele>
        <time>2017-06-22T13:08:26Z</time>
      </trkpt>
      <trkpt lat="66.152879968285561" lon="13.077411968261003">
        <ele>-9.960000000000001</ele>
        <time>2017-06-22T13:08:44Z</time>
      </trkpt>
      <trkpt lat="66.152800004929304" lon="13.076670002192259">
        <ele>-13.800000000000001</ele>
        <time>2017-06-22T13:08:59Z</time>
      </trkpt>
    </trkseg>
  </trk>

  <trk>
    <name>Track vom: 22 JUN 2017 15:34</name>
    <extensions>
      <gpxx:TrackExtension>
        <gpxx:DisplayColor>DarkGray</gpxx:DisplayColor>
      </gpxx:TrackExtension>
    </extensions>
    <trkseg>
      <trkpt lat="66.200525974854827" lon="13.012350965291262">
        <ele>-17.649999999999999</ele>
        <time>2017-06-22T13:34:36Z</time>
      </trkpt>
      <trkpt lat="66.200523963198066" lon="13.012375021353364">
        <ele>-18.129999999999999</ele>
        <time>2017-06-22T13:34:43Z</time>
      </trkpt>
      <trkpt lat="66.200490016490221" lon="13.0126269813627">
        <ele>-16.690000000000001</ele>
        <time>2017-06-22T13:34:46Z</time>
      </trkpt>
      <trkpt lat="66.200356995686889" lon="13.013554019853473">
        <ele>-11.4</ele>
        <time>2017-06-22T13:34:58Z</time>
      </trkpt>
      <trkpt lat="66.200146023184061" lon="13.014165982604027">
        <ele>-8.029999999999999</ele>
        <time>2017-06-22T13:35:09Z</time>
      </trkpt>
      <trkpt lat="66.200032029300928" lon="13.014513999223709">
        <ele>-7.55</ele>
        <time>2017-06-22T13:35:14Z</time>
      </trkpt>
      <trkpt lat="66.200018031522632" lon="13.014608966186643">
        <ele>-8.029999999999999</ele>
        <time>2017-06-22T13:35:15Z</time>
      </trkpt>
      <trkpt lat="66.199936978518963" lon="13.015282033011317">
        <ele>-6.11</ele>
        <time>2017-06-22T13:35:26Z</time>
      </trkpt>
      <trkpt lat="66.199933039024472" lon="13.016198007389903">
        <ele>-6.59</ele>
        <time>2017-06-22T13:35:33Z</time>
      </trkpt>
      <trkpt lat="66.199950976297259" lon="13.016867972910404">
        <ele>-2.27</ele>
        <time>2017-06-22T13:35:45Z</time>
      </trkpt>
      <trkpt lat="66.19995198212564" lon="13.016856992617249">
        <ele>-4.19</ele>
        <time>2017-06-22T13:37:36Z</time>
      </trkpt>
      <trkpt lat="66.199957011267543" lon="13.016874007880688">
        <ele>-3.71</ele>
        <time>2017-06-22T13:37:41Z</time>
      </trkpt>
      <trkpt lat="66.1999730207026" lon="13.016941985115409">
        <ele>-3.71</ele>
        <time>2017-06-22T13:37:42Z</time>
      </trkpt>
      <trkpt lat="66.200027000159025" lon="13.017335012555122">
        <ele>-2.75</ele>
        <time>2017-06-22T13:37:45Z</time>
      </trkpt>
      <trkpt lat="66.200125990435481" lon="13.018408985808492">
        <ele>0.14</ele>
        <time>2017-06-22T13:37:54Z</time>
      </trkpt>
      <trkpt lat="66.2001249846071" lon="13.018562961369753">
        <ele>1.1</ele>
        <time>2017-06-22T13:37:55Z</time>
      </trkpt>
      <trkpt lat="66.200122972950339" lon="13.018712997436523">
        <ele>1.58</ele>
        <time>2017-06-22T13:37:56Z</time>
      </trkpt>
      <trkpt lat="66.200074022635818" lon="13.019251031801105">
        <ele>2.54</ele>
        <time>2017-06-22T13:38:00Z</time>
      </trkpt>
      <trkpt lat="66.199870007112622" lon="13.020292986184359">
        <ele>3.98</ele>
        <time>2017-06-22T13:38:08Z</time>
      </trkpt>
      <trkpt lat="66.199855003505945" lon="13.020447967574">
        <ele>3.98</ele>
        <time>2017-06-22T13:38:09Z</time>
      </trkpt>
      <trkpt lat="66.19984301738441" lon="13.020627005025744">
        <ele>4.46</ele>
        <time>2017-06-22T13:38:10Z</time>
      </trkpt>
      <trkpt lat="66.199838994070888" lon="13.020814005285501">
        <ele>3.98</ele>
        <time>2017-06-22T13:38:11Z</time>
      </trkpt>
      <trkpt lat="66.19984301738441" lon="13.02100301720202">
        <ele>3.98</ele>
        <time>2017-06-22T13:38:12Z</time>
      </trkpt>
      <trkpt lat="66.199850980192423" lon="13.02119798026979">
        <ele>4.46</ele>
        <time>2017-06-22T13:38:13Z</time>
      </trkpt>
      <trkpt lat="66.199870007112622" lon="13.021387998014688">
        <ele>4.46</ele>
        <time>2017-06-22T13:38:14Z</time>
      </trkpt>
      <trkpt lat="66.200177036225796" lon="13.02487101405859">
        <ele>7.35</ele>
        <time>2017-06-22T13:38:30Z</time>
      </trkpt>
      <trkpt lat="66.2002959754318" lon="13.027968965470791">
        <ele>7.83</ele>
        <time>2017-06-22T13:38:44Z</time>
      </trkpt>
      <trkpt lat="66.200318019837141" lon="13.029680969193578">
        <ele>7.35</ele>
        <time>2017-06-22T13:38:54Z</time>
      </trkpt>
      <trkpt lat="66.200473001226783" lon="13.032395029440522">
        <ele>8.310000000000001</ele>
        <time>2017-06-22T13:39:04Z</time>
      </trkpt>
      <trkpt lat="66.201112037524581" lon="13.034900967031717">
        <ele>8.310000000000001</ele>
        <time>2017-06-22T13:39:13Z</time>
      </trkpt>
      <trkpt lat="66.202281983569264" lon="13.036893010139465">
        <ele>3.02</ele>
        <time>2017-06-22T13:39:22Z</time>
      </trkpt>
      <trkpt lat="66.204683985561132" lon="13.040498988702893">
        <ele>-2.27</ele>
        <time>2017-06-22T13:39:38Z</time>
      </trkpt>
      <trkpt lat="66.206639986485243" lon="13.044007988646626">
        <ele>0.14</ele>
        <time>2017-06-22T13:39:51Z</time>
      </trkpt>
      <trkpt lat="66.20873898267746" lon="13.049432002007961">
        <ele>0.14</ele>
        <time>2017-06-22T13:40:06Z</time>
      </trkpt>
      <trkpt lat="66.209231000393629" lon="13.050962034612894">
        <ele>-0.82</ele>
        <time>2017-06-22T13:40:10Z</time>
      </trkpt>
      <trkpt lat="66.209385981783271" lon="13.051252970471978">
        <ele>-1.3</ele>
        <time>2017-06-22T13:40:11Z</time>
      </trkpt>
      <trkpt lat="66.20955303311348" lon="13.051509959623218">
        <ele>-0.82</ele>
        <time>2017-06-22T13:40:12Z</time>
      </trkpt>
      <trkpt lat="66.209729975089431" lon="13.051725961267948">
        <ele>-0.82</ele>
        <time>2017-06-22T13:40:13Z</time>
      </trkpt>
      <trkpt lat="66.209910018369555" lon="13.051932994276285">
        <ele>-0.82</ele>
        <time>2017-06-22T13:40:14Z</time>
      </trkpt>
      <trkpt lat="66.212281007319689" lon="13.054590979591012">
        <ele>2.54</ele>
        <time>2017-06-22T13:40:27Z</time>
      </trkpt>
      <trkpt lat="66.214471030980349" lon="13.057489022612572">
        <ele>1.58</ele>
        <time>2017-06-22T13:40:39Z</time>
      </trkpt>
      <trkpt lat="66.214787028729916" lon="13.058052035048604">
        <ele>1.1</ele>
        <time>2017-06-22T13:40:41Z</time>
      </trkpt>
      <trkpt lat="66.214923989027739" lon="13.058398040011525">
        <ele>1.1</ele>
        <time>2017-06-22T13:40:42Z</time>
      </trkpt>
      <trkpt lat="66.215041000396013" lon="13.058784026652575">
        <ele>1.1</ele>
        <time>2017-06-22T13:40:43Z</time>
      </trkpt>
      <trkpt lat="66.215144013985991" lon="13.059203960001469">
        <ele>1.58</ele>
        <time>2017-06-22T13:40:44Z</time>
      </trkpt>
      <trkpt lat="66.215235041454434" lon="13.059643004089594">
        <ele>1.58</ele>
        <time>2017-06-22T13:40:45Z</time>
      </trkpt>
      <trkpt lat="66.215691016986966" lon="13.061822969466448">
        <ele>-0.82</ele>
        <time>2017-06-22T13:40:50Z</time>
      </trkpt>
      <trkpt lat="66.215812973678112" lon="13.062195964157581">
        <ele>-0.82</ele>
        <time>2017-06-22T13:40:51Z</time>
      </trkpt>
      <trkpt lat="66.215954041108489" lon="13.062531994655728">
        <ele>-0.82</ele>
        <time>2017-06-22T13:40:52Z</time>
      </trkpt>
      <trkpt lat="66.216109022498131" lon="13.062837012112141">
        <ele>-1.3</ele>
        <time>2017-06-22T13:40:53Z</time>
      </trkpt>
      <trkpt lat="66.216272972524166" lon="13.063132977113128">
        <ele>-1.3</ele>
        <time>2017-06-22T13:40:54Z</time>
      </trkpt>
      <trkpt lat="66.217190958559513" lon="13.064973978325725">
        <ele>-1.79</ele>
        <time>2017-06-22T13:41:00Z</time>
      </trkpt>
      <trkpt lat="66.217314004898071" lon="13.065357031300664">
        <ele>-1.79</ele>
        <time>2017-06-22T13:41:01Z</time>
      </trkpt>
      <trkpt lat="66.218246994540095" lon="13.069178005680442">
        <ele>-2.75</ele>
        <time>2017-06-22T13:41:10Z</time>
      </trkpt>
      <trkpt lat="66.218828028067946" lon="13.072923040017486">
        <ele>-3.71</ele>
        <time>2017-06-22T13:41:18Z</time>
      </trkpt>
      <trkpt lat="66.219148971140385" lon="13.075261004269123">
        <ele>-3.23</ele>
        <time>2017-06-22T13:41:23Z</time>
      </trkpt>
      <trkpt lat="66.219260031357408" lon="13.075670963153243">
        <ele>-2.75</ele>
        <time>2017-06-22T13:41:24Z</time>
      </trkpt>
      <trkpt lat="66.219383999705315" lon="13.076067008078098">
        <ele>-2.75</ele>
        <time>2017-06-22T13:41:25Z</time>
      </trkpt>
      <trkpt lat="66.219520037993789" lon="13.076445031911135">
        <ele>-2.75</ele>
        <time>2017-06-22T13:41:26Z</time>
      </trkpt>
      <trkpt lat="66.219664039090276" lon="13.076820038259029">
        <ele>-2.75</ele>
        <time>2017-06-22T13:41:27Z</time>
      </trkpt>
      <trkpt lat="66.222136029973626" lon="13.083140999078751">
        <ele>-0.82</ele>
        <time>2017-06-22T13:41:43Z</time>
      </trkpt>
      <trkpt lat="66.223653992637992" lon="13.087224997580051">
        <ele>-0.34</ele>
        <time>2017-06-22T13:41:54Z</time>
      </trkpt>
      <trkpt lat="66.224966011941433" lon="13.090795017778873">
        <ele>3.98</ele>
        <time>2017-06-22T13:42:05Z</time>
      </trkpt>
      <trkpt lat="66.226269984617829" lon="13.093718038871884">
        <ele>7.83</ele>
        <time>2017-06-22T13:42:15Z</time>
      </trkpt>
      <trkpt lat="66.228124983608723" lon="13.096779026091099">
        <ele>11.67</ele>
        <time>2017-06-22T13:42:25Z</time>
      </trkpt>
      <trkpt lat="66.231586961075664" lon="13.102393979206681">
        <ele>21.77</ele>
        <time>2017-06-22T13:42:43Z</time>
      </trkpt>
      <trkpt lat="66.232721032574773" lon="13.105070991441607">
        <ele>22.73</ele>
        <time>2017-06-22T13:42:50Z</time>
      </trkpt>
      <trkpt lat="66.234468994662166" lon="13.107600985094905">
        <ele>20.809999999999999</ele>
        <time>2017-06-22T13:42:59Z</time>
      </trkpt>
      <trkpt lat="66.235182965174317" lon="13.108615027740598">
        <ele>19.359999999999999</ele>
        <time>2017-06-22T13:43:03Z</time>
      </trkpt>
      <trkpt lat="66.235327972099185" lon="13.108962038531899">
        <ele>18.879999999999999</ele>
        <time>2017-06-22T13:43:04Z</time>
      </trkpt>
      <trkpt lat="66.235461998730898" lon="13.109338972717524">
        <ele>18.399999999999999</ele>
        <time>2017-06-22T13:43:05Z</time>
      </trkpt>
      <trkpt lat="66.235578004270792" lon="13.109761001542211">
        <ele>17.920000000000002</ele>
        <time>2017-06-22T13:43:06Z</time>
      </trkpt>
      <trkpt lat="66.235683029517531" lon="13.110207002609968">
        <ele>17.440000000000001</ele>
        <time>2017-06-22T13:43:07Z</time>
      </trkpt>
      <trkpt lat="66.235784031450748" lon="13.110660966485739">
        <ele>16.48</ele>
        <time>2017-06-22T13:43:08Z</time>
      </trkpt>
      <trkpt lat="66.236878037452698" lon="13.11474303714931">
        <ele>16</ele>
        <time>2017-06-22T13:43:17Z</time>
      </trkpt>
      <trkpt lat="66.238750973716378" lon="13.120670970529318">
        <ele>12.630000000000001</ele>
        <time>2017-06-22T13:43:30Z</time>
      </trkpt>
      <trkpt lat="66.23982603661716" lon="13.122568968683481">
        <ele>8.789999999999999</ele>
        <time>2017-06-22T13:43:36Z</time>
      </trkpt>
      <trkpt lat="66.240565991029143" lon="13.123479997739196">
        <ele>8.789999999999999</ele>
        <time>2017-06-22T13:43:40Z</time>
      </trkpt>
      <trkpt lat="66.240707980468869" lon="13.123793983832002">
        <ele>8.789999999999999</ele>
        <time>2017-06-22T13:43:41Z</time>
      </trkpt>
      <trkpt lat="66.240830020979047" lon="13.124152980744839">
        <ele>8.789999999999999</ele>
        <time>2017-06-22T13:43:42Z</time>
      </trkpt>
      <trkpt lat="66.240933034569025" lon="13.124557994306087">
        <ele>9.27</ele>
        <time>2017-06-22T13:43:43Z</time>
      </trkpt>
      <trkpt lat="66.241020038723946" lon="13.124997960403562">
        <ele>8.789999999999999</ele>
        <time>2017-06-22T13:43:44Z</time>
      </trkpt>
      <trkpt lat="66.241921009495854" lon="13.129839012399316">
        <ele>8.310000000000001</ele>
        <time>2017-06-22T13:43:54Z</time>
      </trkpt>
      <trkpt lat="66.242519980296493" lon="13.133761994540691">
        <ele>5.91</ele>
        <time>2017-06-22T13:44:02Z</time>
      </trkpt>
      <trkpt lat="66.242640009149909" lon="13.13414596952498">
        <ele>4.46</ele>
        <time>2017-06-22T13:44:03Z</time>
      </trkpt>
      <trkpt lat="66.242783004418015" lon="13.134504966437817">
        <ele>3.5</ele>
        <time>2017-06-22T13:44:04Z</time>
      </trkpt>
      <trkpt lat="66.24294301494956" lon="13.134844014421105">
        <ele>1.58</ele>
        <time>2017-06-22T13:44:05Z</time>
      </trkpt>
      <trkpt lat="66.24311400577426" lon="13.135180966928601">
        <ele>-0.34</ele>
        <time>2017-06-22T13:44:06Z</time>
      </trkpt>
      <trkpt lat="66.244778987020254" lon="13.138959025964141">
        <ele>-3.71</ele>
        <time>2017-06-22T13:44:16Z</time>
      </trkpt>
      <trkpt lat="66.246442040428519" lon="13.142523011192679">
        <ele>-4.67</ele>
        <time>2017-06-22T13:44:26Z</time>
      </trkpt>
      <trkpt lat="66.24801498837769" lon="13.146618995815516">
        <ele>-0.34</ele>
        <time>2017-06-22T13:44:36Z</time>
      </trkpt>
      <trkpt lat="66.249638982117176" lon="13.152959989383817">
        <ele>5.42</ele>
        <time>2017-06-22T13:44:49Z</time>
      </trkpt>
      <trkpt lat="66.250615976750851" lon="13.15595299936831">
        <ele>8.789999999999999</ele>
        <time>2017-06-22T13:44:56Z</time>
      </trkpt>
      <trkpt lat="66.252583041787148" lon="13.160087037831545">
        <ele>1.58</ele>
        <time>2017-06-22T13:45:07Z</time>
      </trkpt>
      <trkpt lat="66.254906002432108" lon="13.166483016684651">
        <ele>-2.75</ele>
        <time>2017-06-22T13:45:22Z</time>
      </trkpt>
      <trkpt lat="66.257980987429619" lon="13.17496701143682">
        <ele>-1.79</ele>
        <time>2017-06-22T13:45:42Z</time>
      </trkpt>
      <trkpt lat="66.259139031171799" lon="13.177371025085449">
        <ele>-0.82</ele>
        <time>2017-06-22T13:45:50Z</time>
      </trkpt>
      <trkpt lat="66.260532019659877" lon="13.180241994559765">
        <ele>0.14</ele>
        <time>2017-06-22T13:45:59Z</time>
      </trkpt>
      <trkpt lat="66.261680005118251" lon="13.181579997763038">
        <ele>0.62</ele>
        <time>2017-06-22T13:46:06Z</time>
      </trkpt>
      <trkpt lat="66.26354799605906" lon="13.183759963139892">
        <ele>-7.55</ele>
        <time>2017-06-22T13:46:16Z</time>
      </trkpt>
      <trkpt lat="66.264963028952479" lon="13.186446027830243">
        <ele>-4.67</ele>
        <time>2017-06-22T13:46:24Z</time>
      </trkpt>
      <trkpt lat="66.266342019662261" lon="13.189712958410382">
        <ele>0.62</ele>
        <time>2017-06-22T13:46:33Z</time>
      </trkpt>
      <trkpt lat="66.267576003447175" lon="13.192374967038631">
        <ele>2.06</ele>
        <time>2017-06-22T13:46:41Z</time>
      </trkpt>
      <trkpt lat="66.268889028578997" lon="13.196390988305211">
        <ele>8.789999999999999</ele>
        <time>2017-06-22T13:46:51Z</time>
      </trkpt>
      <trkpt lat="66.269717998802662" lon="13.199089961126447">
        <ele>14.08</ele>
        <time>2017-06-22T13:46:58Z</time>
      </trkpt>
      <trkpt lat="66.270156037062407" lon="13.201186023652554">
        <ele>14.56</ele>
        <time>2017-06-22T13:47:03Z</time>
      </trkpt>
      <trkpt lat="66.270280005410314" lon="13.201520964503288">
        <ele>14.56</ele>
        <time>2017-06-22T13:47:04Z</time>
      </trkpt>
      <trkpt lat="66.270425012335181" lon="13.201831011101604">
        <ele>15.52</ele>
        <time>2017-06-22T13:47:05Z</time>
      </trkpt>
      <trkpt lat="66.272358968853951" lon="13.205482000485063">
        <ele>28.98</ele>
        <time>2017-06-22T13:47:17Z</time>
      </trkpt>
      <trkpt lat="66.272486038506031" lon="13.205763967707753">
        <ele>29.460000000000001</ele>
        <time>2017-06-22T13:47:18Z</time>
      </trkpt>
      <trkpt lat="66.272598020732403" lon="13.206068985164165">
        <ele>29.940000000000001</ele>
        <time>2017-06-22T13:47:19Z</time>
      </trkpt>
      <trkpt lat="66.272689970210195" lon="13.206413984298706">
        <ele>30.420000000000002</ele>
        <time>2017-06-22T13:47:20Z</time>
      </trkpt>
      <trkpt lat="66.272762976586819" lon="13.206795025616884">
        <ele>30.899999999999999</ele>
        <time>2017-06-22T13:47:21Z</time>
      </trkpt>
      <trkpt lat="66.272814022377133" lon="13.20719501003623">
        <ele>31.379999999999999</ele>
        <time>2017-06-22T13:47:22Z</time>
      </trkpt>
      <trkpt lat="66.272839000448585" lon="13.207628019154072">
        <ele>31.859999999999999</ele>
        <time>2017-06-22T13:47:23Z</time>
      </trkpt>
      <trkpt lat="66.272841012105346" lon="13.208068991079926">
        <ele>32.340000000000003</ele>
        <time>2017-06-22T13:47:24Z</time>
      </trkpt>
      <trkpt lat="66.272821985185146" lon="13.208520021289587">
        <ele>32.82</ele>
        <time>2017-06-22T13:47:25Z</time>
      </trkpt>
      <trkpt lat="66.272794995456934" lon="13.208985971286893">
        <ele>33.780000000000001</ele>
        <time>2017-06-22T13:47:26Z</time>
      </trkpt>
      <trkpt lat="66.27244203351438" lon="13.215103000402451">
        <ele>44.359999999999999</ele>
        <time>2017-06-22T13:47:38Z</time>
      </trkpt>
      <trkpt lat="66.272240029647946" lon="13.217924013733864">
        <ele>51.090000000000003</ele>
        <time>2017-06-22T13:47:44Z</time>
      </trkpt>
      <trkpt lat="66.272170040756464" lon="13.218351993709803">
        <ele>52.530000000000001</ele>
        <time>2017-06-22T13:47:45Z</time>
      </trkpt>
      <trkpt lat="66.272074989974499" lon="13.218748038634658">
        <ele>54.93</ele>
        <time>2017-06-22T13:47:46Z</time>
      </trkpt>
      <trkpt lat="66.271959990262985" lon="13.21911801584065">
        <ele>56.369999999999997</ele>
        <time>2017-06-22T13:47:47Z</time>
      </trkpt>
      <trkpt lat="66.271834010258317" lon="13.21946200914681">
        <ele>57.82</ele>
        <time>2017-06-22T13:47:48Z</time>
      </trkpt>
      <trkpt lat="66.271409969776869" lon="13.220704961568117">
        <ele>62.140000000000001</ele>
        <time>2017-06-22T13:47:52Z</time>
      </trkpt>
      <trkpt lat="66.271344004198909" lon="13.221012996509671">
        <ele>62.619999999999997</ele>
        <time>2017-06-22T13:47:53Z</time>
      </trkpt>
      <trkpt lat="66.271289018914104" lon="13.221327988430858">
        <ele>63.579999999999998</ele>
        <time>2017-06-22T13:47:54Z</time>
      </trkpt>
      <trkpt lat="66.271011997014284" lon="13.223635023459792">
        <ele>73.680000000000007</ele>
        <time>2017-06-22T13:48:01Z</time>
      </trkpt>
      <trkpt lat="66.271005962044001" lon="13.22397599928081">
        <ele>74.640000000000001</ele>
        <time>2017-06-22T13:48:02Z</time>
      </trkpt>
      <trkpt lat="66.271019037812948" lon="13.22433901950717">
        <ele>77.040000000000006</ele>
        <time>2017-06-22T13:48:03Z</time>
      </trkpt>
      <trkpt lat="66.271042004227638" lon="13.224689969792962">
        <ele>77.519999999999996</ele>
        <time>2017-06-22T13:48:04Z</time>
      </trkpt>
      <trkpt lat="66.271073017269373" lon="13.225042009726167">
        <ele>78</ele>
        <time>2017-06-22T13:48:05Z</time>
      </trkpt>
      <trkpt lat="66.271109981462359" lon="13.225398994982243">
        <ele>78.969999999999999</ele>
        <time>2017-06-22T13:48:06Z</time>
      </trkpt>
      <trkpt lat="66.271264962852001" lon="13.228412959724665">
        <ele>85.209999999999994</ele>
        <time>2017-06-22T13:48:15Z</time>
      </trkpt>
      <trkpt lat="66.271265968680382" lon="13.228726023808122">
        <ele>86.659999999999997</ele>
        <time>2017-06-22T13:48:16Z</time>
      </trkpt>
      <trkpt lat="66.271284995600581" lon="13.229031041264534">
        <ele>88.099999999999994</ele>
        <time>2017-06-22T13:48:17Z</time>
      </trkpt>
      <trkpt lat="66.27132598310709" lon="13.229319965466857">
        <ele>90.019999999999996</ele>
        <time>2017-06-22T13:48:18Z</time>
      </trkpt>
      <trkpt lat="66.271387003362179" lon="13.229579972103238">
        <ele>90.980000000000004</ele>
        <time>2017-06-22T13:48:19Z</time>
      </trkpt>
      <trkpt lat="66.271465960890055" lon="13.229792034253478">
        <ele>91.459999999999994</ele>
        <time>2017-06-22T13:48:20Z</time>
      </trkpt>
      <trkpt lat="66.271564029157162" lon="13.229936035349965">
        <ele>92.420000000000002</ele>
        <time>2017-06-22T13:48:21Z</time>
      </trkpt>
      <trkpt lat="66.271668970584869" lon="13.229994038119912">
        <ele>90.980000000000004</ele>
        <time>2017-06-22T13:48:22Z</time>
      </trkpt>
      <trkpt lat="66.271792016923428" lon="13.230000995099545">
        <ele>91.459999999999994</ele>
        <time>2017-06-22T13:48:23Z</time>
      </trkpt>
      <trkpt lat="66.271922020241618" lon="13.22997098788619">
        <ele>91.939999999999998</ele>
        <time>2017-06-22T13:48:24Z</time>
      </trkpt>
      <trkpt lat="66.272057974711061" lon="13.22990502230823">
        <ele>93.390000000000001</ele>
        <time>2017-06-22T13:48:25Z</time>
      </trkpt>
      <trkpt lat="66.272194012999535" lon="13.22984199039638">
        <ele>94.349999999999994</ele>
        <time>2017-06-22T13:48:26Z</time>
      </trkpt>
      <trkpt lat="66.272446978837252" lon="13.229716010391712">
        <ele>95.790000000000006</ele>
        <time>2017-06-22T13:48:28Z</time>
      </trkpt>
      <trkpt lat="66.272562984377146" lon="13.22960302233696">
        <ele>96.269999999999996</ele>
        <time>2017-06-22T13:48:29Z</time>
      </trkpt>
      <trkpt lat="66.272674966603518" lon="13.229420967400074">
        <ele>97.709999999999994</ele>
        <time>2017-06-22T13:48:30Z</time>
      </trkpt>
      <trkpt lat="66.272778986021876" lon="13.229214018210769">
        <ele>98.189999999999998</ele>
        <time>2017-06-22T13:48:31Z</time>
      </trkpt>
      <trkpt lat="66.272879987955093" lon="13.229010002687573">
        <ele>99.150000000000006</ele>
        <time>2017-06-22T13:48:32Z</time>
      </trkpt>
      <trkpt lat="66.27297998405993" lon="13.228825014084578">
        <ele>100.11</ele>
        <time>2017-06-22T13:48:33Z</time>
      </trkpt>
      <trkpt lat="66.273082997649908" lon="13.228676989674568">
        <ele>101.56</ele>
        <time>2017-06-22T13:48:34Z</time>
      </trkpt>
      <trkpt lat="66.273188022896647" lon="13.228585962206125">
        <ele>103</ele>
        <time>2017-06-22T13:48:35Z</time>
      </trkpt>
      <trkpt lat="66.273288019001484" lon="13.228553021326661">
        <ele>103.48</ele>
        <time>2017-06-22T13:48:36Z</time>
      </trkpt>
      <trkpt lat="66.273392038419843" lon="13.228574981912971">
        <ele>104.44</ele>
        <time>2017-06-22T13:48:37Z</time>
      </trkpt>
      <trkpt lat="66.273492034524679" lon="13.228679001331329">
        <ele>104.92</ele>
        <time>2017-06-22T13:48:38Z</time>
      </trkpt>
      <trkpt lat="66.273583984002471" lon="13.228858960792422">
        <ele>106.84</ele>
        <time>2017-06-22T13:48:39Z</time>
      </trkpt>
      <trkpt lat="66.273664031177759" lon="13.229098012670875">
        <ele>107.31999999999999</ele>
        <time>2017-06-22T13:48:40Z</time>
      </trkpt>
      <trkpt lat="66.273740977048874" lon="13.229395989328623">
        <ele>108.29000000000001</ele>
        <time>2017-06-22T13:48:41Z</time>
      </trkpt>
      <trkpt lat="66.273815995082259" lon="13.229740988463163">
        <ele>109.73</ele>
        <time>2017-06-22T13:48:42Z</time>
      </trkpt>
      <trkpt lat="66.274703973904252" lon="13.232816979289055">
        <ele>127.51000000000001</ele>
        <time>2017-06-22T13:48:51Z</time>
      </trkpt>
      <trkpt lat="66.274811010807753" lon="13.2330840267241">
        <ele>128.94999999999999</ele>
        <time>2017-06-22T13:48:52Z</time>
      </trkpt>
      <trkpt lat="66.274927016347647" lon="13.233296005055308">
        <ele>129.91999999999999</ele>
        <time>2017-06-22T13:48:53Z</time>
      </trkpt>
      <trkpt lat="66.275051990523934" lon="13.233445035293698">
        <ele>130.88</ele>
        <time>2017-06-22T13:48:54Z</time>
      </trkpt>
      <trkpt lat="66.275175958871841" lon="13.233556011691689">
        <ele>130.88</ele>
        <time>2017-06-22T13:48:55Z</time>
      </trkpt>
      <trkpt lat="66.275295987725258" lon="13.233655001968145">
        <ele>131.84</ele>
        <time>2017-06-22T13:48:56Z</time>
      </trkpt>
      <trkpt lat="66.275404030457139" lon="13.233778970316052">
        <ele>132.31999999999999</ele>
        <time>2017-06-22T13:48:57Z</time>
      </trkpt>
      <trkpt lat="66.275490028783679" lon="13.233947027474642">
        <ele>132.80000000000001</ele>
        <time>2017-06-22T13:48:58Z</time>
      </trkpt>
      <trkpt lat="66.275543002411723" lon="13.234145008027554">
        <ele>133.28</ele>
        <time>2017-06-22T13:48:59Z</time>
      </trkpt>
      <trkpt lat="66.275549037382007" lon="13.23435396887362">
        <ele>133.75999999999999</ele>
        <time>2017-06-22T13:49:00Z</time>
      </trkpt>
      <trkpt lat="66.275516012683511" lon="13.234550021588802">
        <ele>134.24000000000001</ele>
        <time>2017-06-22T13:49:01Z</time>
      </trkpt>
      <trkpt lat="66.2754509691149" lon="13.234699973836541">
        <ele>135.68000000000001</ele>
        <time>2017-06-22T13:49:02Z</time>
      </trkpt>
      <trkpt lat="66.27536203712225" lon="13.234801981598139">
        <ele>136.63999999999999</ele>
        <time>2017-06-22T13:49:03Z</time>
      </trkpt>
      <trkpt lat="66.275255000218749" lon="13.23486702516675">
        <ele>138.09</ele>
        <time>2017-06-22T13:49:04Z</time>
      </trkpt>
      <trkpt lat="66.275132959708571" lon="13.234911030158401">
        <ele>139.05000000000001</ele>
        <time>2017-06-22T13:49:05Z</time>
      </trkpt>
      <trkpt lat="66.274282028898597" lon="13.235200038179755">
        <ele>146.25999999999999</ele>
        <time>2017-06-22T13:49:11Z</time>
      </trkpt>
      <trkpt lat="66.274156970903277" lon="13.235324006527662">
        <ele>147.22</ele>
        <time>2017-06-22T13:49:12Z</time>
      </trkpt>
      <trkpt lat="66.274044988676906" lon="13.235507989302278">
        <ele>148.18000000000001</ele>
        <time>2017-06-22T13:49:13Z</time>
      </trkpt>
      <trkpt lat="66.27394599840045" lon="13.235741006210446">
        <ele>149.13999999999999</ele>
        <time>2017-06-22T13:49:14Z</time>
      </trkpt>
      <trkpt lat="66.273857988417149" lon="13.236020039767027">
        <ele>150.09999999999999</ele>
        <time>2017-06-22T13:49:15Z</time>
      </trkpt>
      <trkpt lat="66.273780036717653" lon="13.236336037516594">
        <ele>150.58000000000001</ele>
        <time>2017-06-22T13:49:16Z</time>
      </trkpt>
      <trkpt lat="66.273719016462564" lon="13.23667399585247">
        <ele>151.53999999999999</ele>
        <time>2017-06-22T13:49:17Z</time>
      </trkpt>
      <trkpt lat="66.273680040612817" lon="13.237042967230082">
        <ele>152.03</ele>
        <time>2017-06-22T13:49:18Z</time>
      </trkpt>
      <trkpt lat="66.273666964843869" lon="13.237429037690163">
        <ele>153.47</ele>
        <time>2017-06-22T13:49:19Z</time>
      </trkpt>
      <trkpt lat="66.27366797067225" lon="13.23783396743238">
        <ele>154.43000000000001</ele>
        <time>2017-06-22T13:49:20Z</time>
      </trkpt>
      <trkpt lat="66.273671993985772" lon="13.238235041499138">
        <ele>155.87</ele>
        <time>2017-06-22T13:49:21Z</time>
      </trkpt>
      <trkpt lat="66.273665959015489" lon="13.238618010655046">
        <ele>156.83000000000001</ele>
        <time>2017-06-22T13:49:22Z</time>
      </trkpt>
      <trkpt lat="66.273638969287276" lon="13.238982958719134">
        <ele>158.27000000000001</ele>
        <time>2017-06-22T13:49:23Z</time>
      </trkpt>
      <trkpt lat="66.273598987609148" lon="13.239330975338817">
        <ele>159.72</ele>
        <time>2017-06-22T13:49:24Z</time>
      </trkpt>
      <trkpt lat="66.273524975404143" lon="13.240061961114407">
        <ele>161.63999999999999</ele>
        <time>2017-06-22T13:49:26Z</time>
      </trkpt>
      <trkpt lat="66.27351600676775" lon="13.240444008260965">
        <ele>163.08000000000001</ele>
        <time>2017-06-22T13:49:27Z</time>
      </trkpt>
      <trkpt lat="66.273524975404143" lon="13.240838041529059">
        <ele>164.52000000000001</ele>
        <time>2017-06-22T13:49:28Z</time>
      </trkpt>
      <trkpt lat="66.273558000102639" lon="13.241244982928038">
        <ele>166.44999999999999</ele>
        <time>2017-06-22T13:49:29Z</time>
      </trkpt>
      <trkpt lat="66.273609967902303" lon="13.241662988439202">
        <ele>169.33000000000001</ele>
        <time>2017-06-22T13:49:30Z</time>
      </trkpt>
      <trkpt lat="66.273679034784436" lon="13.242089040577412">
        <ele>170.77000000000001</ele>
        <time>2017-06-22T13:49:31Z</time>
      </trkpt>
      <trkpt lat="66.273763021454215" lon="13.242522971704602">
        <ele>172.21000000000001</ele>
        <time>2017-06-22T13:49:32Z</time>
      </trkpt>
      <trkpt lat="66.273852037265897" lon="13.242953969165683">
        <ele>173.66</ele>
        <time>2017-06-22T13:49:33Z</time>
      </trkpt>
      <trkpt lat="66.27439702861011" lon="13.245577001944184">
        <ele>181.83000000000001</ele>
        <time>2017-06-22T13:49:39Z</time>
      </trkpt>
      <trkpt lat="66.27444296143949" lon="13.246031971648335">
        <ele>182.78999999999999</ele>
        <time>2017-06-22T13:49:40Z</time>
      </trkpt>
      <trkpt lat="66.274464000016451" lon="13.24649297632277">
        <ele>184.22999999999999</ele>
        <time>2017-06-22T13:49:41Z</time>
      </trkpt>
      <trkpt lat="66.274460982531309" lon="13.246962027624249">
        <ele>186.63</ele>
        <time>2017-06-22T13:49:42Z</time>
      </trkpt>
      <trkpt lat="66.274438016116619" lon="13.247426971793175">
        <ele>188.56</ele>
        <time>2017-06-22T13:49:43Z</time>
      </trkpt>
      <trkpt lat="66.274409014731646" lon="13.247883031144738">
        <ele>190.47999999999999</ele>
        <time>2017-06-22T13:49:44Z</time>
      </trkpt>
      <trkpt lat="66.274339025840163" lon="13.249016012996435">
        <ele>192.88</ele>
        <time>2017-06-22T13:49:47Z</time>
      </trkpt>
      <trkpt lat="66.274365009739995" lon="13.249293034896255">
        <ele>193.84</ele>
        <time>2017-06-22T13:49:48Z</time>
      </trkpt>
      <trkpt lat="66.274430975317955" lon="13.249505013227463">
        <ele>194.31999999999999</ele>
        <time>2017-06-22T13:49:49Z</time>
      </trkpt>
      <trkpt lat="66.27452502027154" lon="13.249630993232131">
        <ele>194.80000000000001</ele>
        <time>2017-06-22T13:49:50Z</time>
      </trkpt>
      <trkpt lat="66.27463398501277" lon="13.249648008495569">
        <ele>194.80000000000001</ele>
        <time>2017-06-22T13:49:51Z</time>
      </trkpt>
      <trkpt lat="66.274753008037806" lon="13.249596040695906">
        <ele>194.80000000000001</ele>
        <time>2017-06-22T13:49:52Z</time>
      </trkpt>
      <trkpt lat="66.274886028841138" lon="13.249483974650502">
        <ele>195.28</ele>
        <time>2017-06-22T13:49:53Z</time>
      </trkpt>
      <trkpt lat="66.275027012452483" lon="13.249367969110608">
        <ele>195.77000000000001</ele>
        <time>2017-06-22T13:49:54Z</time>
      </trkpt>
      <trkpt lat="66.275179982185364" lon="13.249269984662533">
        <ele>196.25</ele>
        <time>2017-06-22T13:49:55Z</time>
      </trkpt>
      <trkpt lat="66.275340998545289" lon="13.249207958579063">
        <ele>197.21000000000001</ele>
        <time>2017-06-22T13:49:56Z</time>
      </trkpt>
      <trkpt lat="66.276615969836712" lon="13.249376015737653">
        <ele>206.81999999999999</ele>
        <time>2017-06-22T13:50:03Z</time>
      </trkpt>
      <trkpt lat="66.276975972577929" lon="13.249578019604087">
        <ele>208.74000000000001</ele>
        <time>2017-06-22T13:50:05Z</time>
      </trkpt>
      <trkpt lat="66.277155010029674" lon="13.249596040695906">
        <ele>209.69999999999999</ele>
        <time>2017-06-22T13:50:06Z</time>
      </trkpt>
      <trkpt lat="66.277328012511134" lon="13.249524962157011">
        <ele>210.66999999999999</ele>
        <time>2017-06-22T13:50:07Z</time>
      </trkpt>
      <trkpt lat="66.27749003469944" lon="13.249385990202427">
        <ele>211.63</ele>
        <time>2017-06-22T13:50:08Z</time>
      </trkpt>
      <trkpt lat="66.277638981118798" lon="13.249166971072555">
        <ele>212.59</ele>
        <time>2017-06-22T13:50:09Z</time>
      </trkpt>
      <trkpt lat="66.277777031064034" lon="13.248877041041851">
        <ele>213.55000000000001</ele>
        <time>2017-06-22T13:50:10Z</time>
      </trkpt>
      <trkpt lat="66.277893958613276" lon="13.248547967523336">
        <ele>214.50999999999999</ele>
        <time>2017-06-22T13:50:11Z</time>
      </trkpt>
      <trkpt lat="66.2779859919101" lon="13.248176984488964">
        <ele>215.47</ele>
        <time>2017-06-22T13:50:12Z</time>
      </trkpt>
      <trkpt lat="66.278053969144821" lon="13.247769959270954">
        <ele>215.94999999999999</ele>
        <time>2017-06-22T13:50:13Z</time>
      </trkpt>
      <trkpt lat="66.278107026591897" lon="13.247343990951777">
        <ele>216.91</ele>
        <time>2017-06-22T13:50:14Z</time>
      </trkpt>
      <trkpt lat="66.278285980224609" lon="13.246243027970195">
        <ele>219.31999999999999</ele>
        <time>2017-06-22T13:50:17Z</time>
      </trkpt>
      <trkpt lat="66.278365021571517" lon="13.246000958606601">
        <ele>219.80000000000001</ele>
        <time>2017-06-22T13:50:18Z</time>
      </trkpt>
      <trkpt lat="66.278451019898057" lon="13.245865004137158">
        <ele>220.28</ele>
        <time>2017-06-22T13:50:19Z</time>
      </trkpt>
      <trkpt lat="66.278540035709739" lon="13.245829967781901">
        <ele>220.75999999999999</ele>
        <time>2017-06-22T13:50:20Z</time>
      </trkpt>
      <trkpt lat="66.278624022379518" lon="13.245888976380229">
        <ele>221.24000000000001</ele>
        <time>2017-06-22T13:50:21Z</time>
      </trkpt>
      <trkpt lat="66.278689987957478" lon="13.246034989133477">
        <ele>221.72</ele>
        <time>2017-06-22T13:50:22Z</time>
      </trkpt>
      <trkpt lat="66.278729969635606" lon="13.246259959414601">
        <ele>222.19999999999999</ele>
        <time>2017-06-22T13:50:23Z</time>
      </trkpt>
      <trkpt lat="66.278742039576173" lon="13.246523989364505">
        <ele>223.16</ele>
        <time>2017-06-22T13:50:24Z</time>
      </trkpt>
      <trkpt lat="66.278730975463986" lon="13.246828000992537">
        <ele>223.63999999999999</ele>
        <time>2017-06-22T13:50:25Z</time>
      </trkpt>
      <trkpt lat="66.278709014877677" lon="13.247143998742104">
        <ele>224.61000000000001</ele>
        <time>2017-06-22T13:50:26Z</time>
      </trkpt>
      <trkpt lat="66.278684958815575" lon="13.247477011755109">
        <ele>225.56999999999999</ele>
        <time>2017-06-22T13:50:27Z</time>
      </trkpt>
      <trkpt lat="66.278656041249633" lon="13.250248990952969">
        <ele>234.69999999999999</ele>
        <time>2017-06-22T13:50:34Z</time>
      </trkpt>
      <trkpt lat="66.278598038479686" lon="13.252472961321473">
        <ele>240.94999999999999</ele>
        <time>2017-06-22T13:50:39Z</time>
      </trkpt>
      <trkpt lat="66.278638020157814" lon="13.252909993752837">
        <ele>243.34999999999999</ele>
        <time>2017-06-22T13:50:40Z</time>
      </trkpt>
      <trkpt lat="66.278707003220916" lon="13.253314001485705">
        <ele>246.22999999999999</ele>
        <time>2017-06-22T13:50:41Z</time>
      </trkpt>
      <trkpt lat="66.278798030689359" lon="13.253695964813232">
        <ele>248.16</ele>
        <time>2017-06-22T13:50:42Z</time>
      </trkpt>
      <trkpt lat="66.278896015137434" lon="13.254078011959791">
        <ele>250.08000000000001</ele>
        <time>2017-06-22T13:50:43Z</time>
      </trkpt>
      <trkpt lat="66.279528010636568" lon="13.257005978375673">
        <ele>261.13999999999999</ele>
        <time>2017-06-22T13:50:50Z</time>
      </trkpt>
      <trkpt lat="66.27963999286294" lon="13.257396994158626">
        <ele>263.06</ele>
        <time>2017-06-22T13:50:51Z</time>
      </trkpt>
      <trkpt lat="66.279777036979795" lon="13.257773006334901">
        <ele>266.89999999999998</ele>
        <time>2017-06-22T13:50:52Z</time>
      </trkpt>
      <trkpt lat="66.279924977570772" lon="13.258112976327538">
        <ele>268.82999999999998</ele>
        <time>2017-06-22T13:50:53Z</time>
      </trkpt>
      <trkpt lat="66.280079958960414" lon="13.258448000997305">
        <ele>270.26999999999998</ele>
        <time>2017-06-22T13:50:54Z</time>
      </trkpt>
      <trkpt lat="66.281413016840816" lon="13.261672016233206">
        <ele>284.69</ele>
        <time>2017-06-22T13:51:03Z</time>
      </trkpt>
      <trkpt lat="66.281505972146988" lon="13.262103013694286">
        <ele>286.13</ele>
        <time>2017-06-22T13:51:04Z</time>
      </trkpt>
      <trkpt lat="66.281584007665515" lon="13.262528982013464">
        <ele>287.56999999999999</ele>
        <time>2017-06-22T13:51:05Z</time>
      </trkpt>
      <trkpt lat="66.281644022092223" lon="13.26294899918139">
        <ele>289.00999999999999</ele>
        <time>2017-06-22T13:51:06Z</time>
      </trkpt>
      <trkpt lat="66.281687021255493" lon="13.263338003307581">
        <ele>290.45999999999998</ele>
        <time>2017-06-22T13:51:07Z</time>
      </trkpt>
      <trkpt lat="66.281717028468847" lon="13.263705968856812">
        <ele>291.89999999999998</ele>
        <time>2017-06-22T13:51:08Z</time>
      </trkpt>
      <trkpt lat="66.281737983226776" lon="13.264053985476494">
        <ele>293.33999999999997</ele>
        <time>2017-06-22T13:51:09Z</time>
      </trkpt>
      <trkpt lat="66.281738989055157" lon="13.265468012541533">
        <ele>298.63</ele>
        <time>2017-06-22T13:51:13Z</time>
      </trkpt>
      <trkpt lat="66.281699007377028" lon="13.265846036374569">
        <ele>300.06999999999999</ele>
        <time>2017-06-22T13:51:14Z</time>
      </trkpt>
      <trkpt lat="66.28163899295032" lon="13.266205033287406">
        <ele>301.99000000000001</ele>
        <time>2017-06-22T13:51:15Z</time>
      </trkpt>
      <trkpt lat="66.281558023765683" lon="13.266535028815269">
        <ele>303.43000000000001</ele>
        <time>2017-06-22T13:51:16Z</time>
      </trkpt>
      <trkpt lat="66.281464984640479" lon="13.266834011301398">
        <ele>304.38999999999999</ele>
        <time>2017-06-22T13:51:17Z</time>
      </trkpt>
      <trkpt lat="66.281368006020784" lon="13.267112961038947">
        <ele>305.83999999999997</ele>
        <time>2017-06-22T13:51:18Z</time>
      </trkpt>
      <trkpt lat="66.280894009396434" lon="13.26879302971065">
        <ele>315.44999999999999</ele>
        <time>2017-06-22T13:51:24Z</time>
      </trkpt>
      <trkpt lat="66.2808439694345" lon="13.269107015803456">
        <ele>315.44999999999999</ele>
        <time>2017-06-22T13:51:25Z</time>
      </trkpt>
      <trkpt lat="66.280818991363049" lon="13.269431982189417">
        <ele>314.49000000000001</ele>
        <time>2017-06-22T13:51:26Z</time>
      </trkpt>
      <trkpt lat="66.280832989141345" lon="13.269768012687564">
        <ele>315.93000000000001</ele>
        <time>2017-06-22T13:51:27Z</time>
      </trkpt>
      <trkpt lat="66.280876994132996" lon="13.270109994336963">
        <ele>317.37</ele>
        <time>2017-06-22T13:51:28Z</time>
      </trkpt>
      <trkpt lat="66.280945977196097" lon="13.270458010956645">
        <ele>319.30000000000001</ele>
        <time>2017-06-22T13:51:29Z</time>
      </trkpt>
      <trkpt lat="66.281029963865876" lon="13.270803010091186">
        <ele>320.25999999999999</ele>
        <time>2017-06-22T13:51:30Z</time>
      </trkpt>
      <trkpt lat="66.281124008819461" lon="13.271119007840753">
        <ele>321.22000000000003</ele>
        <time>2017-06-22T13:51:31Z</time>
      </trkpt>
      <trkpt lat="66.281227022409439" lon="13.271424025297165">
        <ele>322.18000000000001</ele>
        <time>2017-06-22T13:51:32Z</time>
      </trkpt>
      <trkpt lat="66.282126987352967" lon="13.274076981469989">
        <ele>328.43000000000001</ele>
        <time>2017-06-22T13:51:39Z</time>
      </trkpt>
      <trkpt lat="66.283510001376271" lon="13.279006965458393">
        <ele>329.87</ele>
        <time>2017-06-22T13:51:50Z</time>
      </trkpt>
      <trkpt lat="66.285006003454328" lon="13.285516016185284">
        <ele>321.69999999999999</ele>
        <time>2017-06-22T13:52:04Z</time>
      </trkpt>
      <trkpt lat="66.285640010610223" lon="13.287621969357133">
        <ele>318.81</ele>
        <time>2017-06-22T13:52:11Z</time>
      </trkpt>
      <trkpt lat="66.285988027229905" lon="13.288198979571462">
        <ele>314.49000000000001</ele>
        <time>2017-06-22T13:52:14Z</time>
      </trkpt>
      <trkpt lat="66.286118030548096" lon="13.288335017859936">
        <ele>313.05000000000001</ele>
        <time>2017-06-22T13:52:15Z</time>
      </trkpt>
      <trkpt lat="66.286981031298637" lon="13.289299020543694">
        <ele>304.38999999999999</ele>
        <time>2017-06-22T13:52:23Z</time>
      </trkpt>
      <trkpt lat="66.287586037069559" lon="13.291153013706207">
        <ele>295.74000000000001</ele>
        <time>2017-06-22T13:52:30Z</time>
      </trkpt>
      <trkpt lat="66.287728026509285" lon="13.291945019736886">
        <ele>292.38</ele>
        <time>2017-06-22T13:52:32Z</time>
      </trkpt>
      <trkpt lat="66.287773037329316" lon="13.292389009147882">
        <ele>290.94</ele>
        <time>2017-06-22T13:52:33Z</time>
      </trkpt>
      <trkpt lat="66.287796003744006" lon="13.292852025479078">
        <ele>289.49000000000001</ele>
        <time>2017-06-22T13:52:34Z</time>
      </trkpt>
      <trkpt lat="66.287803966552019" lon="13.293315963819623">
        <ele>288.05000000000001</ele>
        <time>2017-06-22T13:52:35Z</time>
      </trkpt>
      <trkpt lat="66.287793992087245" lon="13.293785015121102">
        <ele>286.61000000000001</ele>
        <time>2017-06-22T13:52:36Z</time>
      </trkpt>
      <trkpt lat="66.287772031500936" lon="13.294252976775169">
        <ele>285.17000000000002</ele>
        <time>2017-06-22T13:52:37Z</time>
      </trkpt>
      <trkpt lat="66.287727020680904" lon="13.295583017170429">
        <ele>281.31999999999999</ele>
        <time>2017-06-22T13:52:40Z</time>
      </trkpt>
      <trkpt lat="66.28773900680244" lon="13.296016026288271">
        <ele>280.36000000000001</ele>
        <time>2017-06-22T13:52:41Z</time>
      </trkpt>
      <trkpt lat="66.287772031500936" lon="13.296440988779068">
        <ele>278.92000000000002</ele>
        <time>2017-06-22T13:52:42Z</time>
      </trkpt>
      <trkpt lat="66.287820981815457" lon="13.29687500372529">
        <ele>277.95999999999998</ele>
        <time>2017-06-22T13:52:43Z</time>
      </trkpt>
      <trkpt lat="66.287893988192081" lon="13.297309018671513">
        <ele>276.51999999999998</ele>
        <time>2017-06-22T13:52:44Z</time>
      </trkpt>
      <trkpt lat="66.287983004003763" lon="13.297730041667819">
        <ele>274.58999999999997</ele>
        <time>2017-06-22T13:52:45Z</time>
      </trkpt>
      <trkpt lat="66.288079982623458" lon="13.298130026087165">
        <ele>273.14999999999998</ele>
        <time>2017-06-22T13:52:46Z</time>
      </trkpt>
      <trkpt lat="66.28902998752892" lon="13.302098019048572">
        <ele>272.67000000000002</ele>
        <time>2017-06-22T13:52:56Z</time>
      </trkpt>
      <trkpt lat="66.290372014045715" lon="13.308000974357128">
        <ele>276.04000000000002</ele>
        <time>2017-06-22T13:53:08Z</time>
      </trkpt>
      <trkpt lat="66.291645979508758" lon="13.313754983246326">
        <ele>297.67000000000002</ele>
        <time>2017-06-22T13:53:20Z</time>
      </trkpt>
      <trkpt lat="66.291699036955833" lon="13.314253035932779">
        <ele>299.58999999999997</ele>
        <time>2017-06-22T13:53:21Z</time>
      </trkpt>
      <trkpt lat="66.291732983663678" lon="13.314756033942103">
        <ele>301.02999999999997</ele>
        <time>2017-06-22T13:53:22Z</time>
      </trkpt>
      <trkpt lat="66.291751004755497" lon="13.315268000587821">
        <ele>302.94999999999999</ele>
        <time>2017-06-22T13:53:23Z</time>
      </trkpt>
      <trkpt lat="66.291753016412258" lon="13.3157819788903">
        <ele>304.38999999999999</ele>
        <time>2017-06-22T13:53:24Z</time>
      </trkpt>
      <trkpt lat="66.291742958128452" lon="13.316290006041527">
        <ele>306.31999999999999</ele>
        <time>2017-06-22T13:53:25Z</time>
      </trkpt>
      <trkpt lat="66.291697025299072" lon="13.318288000300527">
        <ele>312.56999999999999</ele>
        <time>2017-06-22T13:53:29Z</time>
      </trkpt>
      <trkpt lat="66.291718985885382" lon="13.318782029673457">
        <ele>314.49000000000001</ele>
        <time>2017-06-22T13:53:30Z</time>
      </trkpt>
      <trkpt lat="66.291770031675696" lon="13.31926298327744">
        <ele>316.41000000000003</ele>
        <time>2017-06-22T13:53:31Z</time>
      </trkpt>
      <trkpt lat="66.292534964159131" lon="13.323800023645163">
        <ele>325.54000000000002</ele>
        <time>2017-06-22T13:53:40Z</time>
      </trkpt>
      <trkpt lat="66.293427972123027" lon="13.328619031235576">
        <ele>331.79000000000002</ele>
        <time>2017-06-22T13:53:49Z</time>
      </trkpt>
      <trkpt lat="66.294521978124976" lon="13.335083993151784">
        <ele>341.41000000000003</ele>
        <time>2017-06-22T13:54:01Z</time>
      </trkpt>
      <trkpt lat="66.295190015807748" lon="13.339838040992618">
        <ele>337.56</ele>
        <time>2017-06-22T13:54:11Z</time>
      </trkpt>
      <trkpt lat="66.295785969123244" lon="13.346074009314179">
        <ele>329.87</ele>
        <time>2017-06-22T13:54:23Z</time>
      </trkpt>
      <trkpt lat="66.296630026772618" lon="13.353866999968886">
        <ele>314.00999999999999</ele>
        <time>2017-06-22T13:54:38Z</time>
      </trkpt>
      <trkpt lat="66.297670975327492" lon="13.362180003896356">
        <ele>305.83999999999997</ele>
        <time>2017-06-22T13:54:54Z</time>
      </trkpt>
      <trkpt lat="66.297916984185576" lon="13.366208011284471">
        <ele>297.67000000000002</ele>
        <time>2017-06-22T13:55:02Z</time>
      </trkpt>
      <trkpt lat="66.297741970047355" lon="13.370813028886914">
        <ele>284.69</ele>
        <time>2017-06-22T13:55:11Z</time>
      </trkpt>
      <trkpt lat="66.297826040536165" lon="13.374873977154493">
        <ele>269.31</ele>
        <time>2017-06-22T13:55:18Z</time>
      </trkpt>
      <trkpt lat="66.297884965315461" lon="13.381541026756167">
        <ele>243.34999999999999</ele>
        <time>2017-06-22T13:55:29Z</time>
      </trkpt>
      <trkpt lat="66.297903992235661" lon="13.386560026556253">
        <ele>232.78</ele>
        <time>2017-06-22T13:55:38Z</time>
      </trkpt>
      <trkpt lat="66.29798898473382" lon="13.393067987635732">
        <ele>215.47</ele>
        <time>2017-06-22T13:55:49Z</time>
      </trkpt>
      <trkpt lat="66.298233987763524" lon="13.403402036055923">
        <ele>202.00999999999999</ele>
        <time>2017-06-22T13:56:07Z</time>
      </trkpt>
      <trkpt lat="66.298473961651325" lon="13.404913963750005">
        <ele>198.16999999999999</ele>
        <time>2017-06-22T13:56:10Z</time>
      </trkpt>
      <trkpt lat="66.298588961362839" lon="13.405399024486542">
        <ele>196.72999999999999</ele>
        <time>2017-06-22T13:56:11Z</time>
      </trkpt>
      <trkpt lat="66.298718964681029" lon="13.405864974483848">
        <ele>195.77000000000001</ele>
        <time>2017-06-22T13:56:12Z</time>
      </trkpt>
      <trkpt lat="66.299885977059603" lon="13.409938998520374">
        <ele>192.88</ele>
        <time>2017-06-22T13:56:21Z</time>
      </trkpt>
      <trkpt lat="66.300129974260926" lon="13.413167037069798">
        <ele>183.75</ele>
        <time>2017-06-22T13:56:27Z</time>
      </trkpt>
      <trkpt lat="66.299925036728382" lon="13.418778972700238">
        <ele>164.52000000000001</ele>
        <time>2017-06-22T13:56:37Z</time>
      </trkpt>
      <trkpt lat="66.299143005162477" lon="13.42393602244556">
        <ele>149.62</ele>
        <time>2017-06-22T13:56:47Z</time>
      </trkpt>
      <trkpt lat="66.299034962430596" lon="13.424405995756388">
        <ele>147.69999999999999</ele>
        <time>2017-06-22T13:56:48Z</time>
      </trkpt>
      <trkpt lat="66.298915017396212" lon="13.424833975732327">
        <ele>145.30000000000001</ele>
        <time>2017-06-22T13:56:49Z</time>
      </trkpt>
      <trkpt lat="66.298781996592879" lon="13.425225997343659">
        <ele>143.37</ele>
        <time>2017-06-22T13:56:50Z</time>
      </trkpt>
      <trkpt lat="66.298630032688379" lon="13.425578037276864">
        <ele>140.97</ele>
        <time>2017-06-22T13:56:51Z</time>
      </trkpt>
      <trkpt lat="66.29846197552979" lon="13.425869978964329">
        <ele>138.56999999999999</ele>
        <time>2017-06-22T13:56:52Z</time>
      </trkpt>
      <trkpt lat="66.298299031332135" lon="13.426135014742613">
        <ele>138.09</ele>
        <time>2017-06-22T13:56:53Z</time>
      </trkpt>
      <trkpt lat="66.298125023022294" lon="13.42634498141706">
        <ele>137.13</ele>
        <time>2017-06-22T13:56:54Z</time>
      </trkpt>
      <trkpt lat="66.297946991398931" lon="13.426508009433746">
        <ele>136.63999999999999</ele>
        <time>2017-06-22T13:56:55Z</time>
      </trkpt>
      <trkpt lat="66.297756973654032" lon="13.426614962518215">
        <ele>135.68000000000001</ele>
        <time>2017-06-22T13:56:56Z</time>
      </trkpt>
      <trkpt lat="66.297567039728165" lon="13.426686963066459">
        <ele>134.24000000000001</ele>
        <time>2017-06-22T13:56:57Z</time>
      </trkpt>
      <trkpt lat="66.297375010326505" lon="13.426730968058109">
        <ele>133.28</ele>
        <time>2017-06-22T13:56:58Z</time>
      </trkpt>
      <trkpt lat="66.296258037909865" lon="13.427150985226035">
        <ele>123.67</ele>
        <time>2017-06-22T13:57:04Z</time>
      </trkpt>
      <trkpt lat="66.296086041256785" lon="13.427330022677779">
        <ele>121.73999999999999</ele>
        <time>2017-06-22T13:57:05Z</time>
      </trkpt>
      <trkpt lat="66.295926030725241" lon="13.427548035979271">
        <ele>118.38</ele>
        <time>2017-06-22T13:57:06Z</time>
      </trkpt>
      <trkpt lat="66.29577599465847" lon="13.427793961018324">
        <ele>116.45999999999999</ele>
        <time>2017-06-22T13:57:07Z</time>
      </trkpt>
      <trkpt lat="66.295637022703886" lon="13.428069977089763">
        <ele>115.01000000000001</ele>
        <time>2017-06-22T13:57:08Z</time>
      </trkpt>
      <trkpt lat="66.295510958880186" lon="13.428393015637994">
        <ele>113.56999999999999</ele>
        <time>2017-06-22T13:57:09Z</time>
      </trkpt>
      <trkpt lat="66.295399982482195" lon="13.42872703447938">
        <ele>113.09</ele>
        <time>2017-06-22T13:57:10Z</time>
      </trkpt>
      <trkpt lat="66.295297974720597" lon="13.429079996421933">
        <ele>112.61</ele>
        <time>2017-06-22T13:57:11Z</time>
      </trkpt>
      <trkpt lat="66.295202001929283" lon="13.42943798750639">
        <ele>111.65000000000001</ele>
        <time>2017-06-22T13:57:12Z</time>
      </trkpt>
      <trkpt lat="66.296034995466471" lon="13.437596010044217">
        <ele>107.31999999999999</ele>
        <time>2017-06-22T13:57:35Z</time>
      </trkpt>
      <trkpt lat="66.296061985194683" lon="13.43803103081882">
        <ele>106.84</ele>
        <time>2017-06-22T13:57:36Z</time>
      </trkpt>
      <trkpt lat="66.296073971316218" lon="13.438495974987745">
        <ele>101.08</ele>
        <time>2017-06-22T13:57:37Z</time>
      </trkpt>
      <trkpt lat="66.29607698880136" lon="13.438938958570361">
        <ele>97.709999999999994</ele>
        <time>2017-06-22T13:57:38Z</time>
      </trkpt>
      <trkpt lat="66.296048993244767" lon="13.439360987395048">
        <ele>93.870000000000005</ele>
        <time>2017-06-22T13:57:39Z</time>
      </trkpt>
      <trkpt lat="66.296013034880161" lon="13.439842024818063">
        <ele>91.459999999999994</ele>
        <time>2017-06-22T13:57:40Z</time>
      </trkpt>
      <trkpt lat="66.295969029888511" lon="13.440290037542582">
        <ele>88.579999999999998</ele>
        <time>2017-06-22T13:57:41Z</time>
      </trkpt>
      <trkpt lat="66.295890994369984" lon="13.440722040832043">
        <ele>85.209999999999994</ele>
        <time>2017-06-22T13:57:42Z</time>
      </trkpt>
      <trkpt lat="66.29579896107316" lon="13.441172987222672">
        <ele>82.810000000000002</ele>
        <time>2017-06-22T13:57:43Z</time>
      </trkpt>
      <trkpt lat="66.295693013817072" lon="13.441599039360881">
        <ele>81.370000000000005</ele>
        <time>2017-06-22T13:57:44Z</time>
      </trkpt>
      <trkpt lat="66.295573990792036" lon="13.441992988809943">
        <ele>80.890000000000001</ele>
        <time>2017-06-22T13:57:45Z</time>
      </trkpt>
      <trkpt lat="66.295438958331943" lon="13.442401019856334">
        <ele>77.040000000000006</ele>
        <time>2017-06-22T13:57:46Z</time>
      </trkpt>
      <trkpt lat="66.29510804079473" lon="13.443600973114371">
        <ele>70.310000000000002</ele>
        <time>2017-06-22T13:57:49Z</time>
      </trkpt>
      <trkpt lat="66.295046014711261" lon="13.444027025252581">
        <ele>70.310000000000002</ele>
        <time>2017-06-22T13:57:50Z</time>
      </trkpt>
      <trkpt lat="66.295007960870862" lon="13.444474032148719">
        <ele>69.349999999999994</ele>
        <time>2017-06-22T13:57:51Z</time>
      </trkpt>
      <trkpt lat="66.294993963092566" lon="13.444919027388096">
        <ele>66.469999999999999</ele>
        <time>2017-06-22T13:57:52Z</time>
      </trkpt>
      <trkpt lat="66.295012990012765" lon="13.445365028455853">
        <ele>66.469999999999999</ele>
        <time>2017-06-22T13:57:53Z</time>
      </trkpt>
      <trkpt lat="66.295055989176035" lon="13.445802982896566">
        <ele>65.510000000000005</ele>
        <time>2017-06-22T13:57:54Z</time>
      </trkpt>
      <trkpt lat="66.29513000138104" lon="13.44621897675097">
        <ele>65.989999999999995</ele>
        <time>2017-06-22T13:57:55Z</time>
      </trkpt>
      <trkpt lat="66.295226980000734" lon="13.4466059692204">
        <ele>66.469999999999999</ele>
        <time>2017-06-22T13:57:56Z</time>
      </trkpt>
      <trkpt lat="66.295340973883867" lon="13.446965971961617">
        <ele>65.989999999999995</ele>
        <time>2017-06-22T13:57:57Z</time>
      </trkpt>
      <trkpt lat="66.295482041314244" lon="13.447284987196326">
        <ele>64.069999999999993</ele>
        <time>2017-06-22T13:57:58Z</time>
      </trkpt>
      <trkpt lat="66.295637022703886" lon="13.447590004652739">
        <ele>63.100000000000001</ele>
        <time>2017-06-22T13:57:59Z</time>
      </trkpt>
      <trkpt lat="66.295800972729921" lon="13.44787297770381">
        <ele>62.619999999999997</ele>
        <time>2017-06-22T13:58:00Z</time>
      </trkpt>
      <trkpt lat="66.296253008767962" lon="13.44881602562964">
        <ele>58.299999999999997</ele>
        <time>2017-06-22T13:58:03Z</time>
      </trkpt>
      <trkpt lat="66.296365996822715" lon="13.449198994785547">
        <ele>56.859999999999999</ele>
        <time>2017-06-22T13:58:04Z</time>
      </trkpt>
      <trkpt lat="66.296455012634397" lon="13.449628986418247">
        <ele>55.409999999999997</ele>
        <time>2017-06-22T13:58:05Z</time>
      </trkpt>
      <trkpt lat="66.296519972383976" lon="13.450079010799527">
        <ele>53.969999999999999</ele>
        <time>2017-06-22T13:58:06Z</time>
      </trkpt>
      <trkpt lat="66.296575041487813" lon="13.450550995767117">
        <ele>53.490000000000002</ele>
        <time>2017-06-22T13:58:07Z</time>
      </trkpt>
      <trkpt lat="66.296744020655751" lon="13.451938033103943">
        <ele>51.090000000000003</ele>
        <time>2017-06-22T13:58:10Z</time>
      </trkpt>
      <trkpt lat="66.296832030639052" lon="13.45234103500843">
        <ele>50.130000000000003</ele>
        <time>2017-06-22T13:58:11Z</time>
      </trkpt>
      <trkpt lat="66.296942001208663" lon="13.452710006386042">
        <ele>50.609999999999999</ele>
        <time>2017-06-22T13:58:12Z</time>
      </trkpt>
      <trkpt lat="66.297072004526854" lon="13.453038996085525">
        <ele>49.649999999999999</ele>
        <time>2017-06-22T13:58:13Z</time>
      </trkpt>
      <trkpt lat="66.29721499979496" lon="13.453318029642105">
        <ele>47.719999999999999</ele>
        <time>2017-06-22T13:58:14Z</time>
      </trkpt>
      <trkpt lat="66.297375010326505" lon="13.453551968559623">
        <ele>47.240000000000002</ele>
        <time>2017-06-22T13:58:15Z</time>
      </trkpt>
      <trkpt lat="66.297546001151204" lon="13.453732011839747">
        <ele>46.280000000000001</ele>
        <time>2017-06-22T13:58:16Z</time>
      </trkpt>
      <trkpt lat="66.297740964218974" lon="13.453840976580977">
        <ele>46.280000000000001</ele>
        <time>2017-06-22T13:58:17Z</time>
      </trkpt>
      <trkpt lat="66.297937016934156" lon="13.453900991007686">
        <ele>43.880000000000003</ele>
        <time>2017-06-22T13:58:18Z</time>
      </trkpt>
      <trkpt lat="66.298134997487068" lon="13.453934015706182">
        <ele>42.920000000000002</ele>
        <time>2017-06-22T13:58:19Z</time>
      </trkpt>
      <trkpt lat="66.298330966383219" lon="13.453946001827717">
        <ele>40.990000000000002</ele>
        <time>2017-06-22T13:58:20Z</time>
      </trkpt>
      <trkpt lat="66.299080979079008" lon="13.454014984890819">
        <ele>34.740000000000002</ele>
        <time>2017-06-22T13:58:24Z</time>
      </trkpt>
      <trkpt lat="66.29925599321723" lon="13.454139959067106">
        <ele>34.740000000000002</ele>
        <time>2017-06-22T13:58:25Z</time>
      </trkpt>
      <trkpt lat="66.299418015405536" lon="13.454323019832373">
        <ele>34.259999999999998</ele>
        <time>2017-06-22T13:58:26Z</time>
      </trkpt>
      <trkpt lat="66.299563022330403" lon="13.454568022862077">
        <ele>33.299999999999997</ele>
        <time>2017-06-22T13:58:27Z</time>
      </trkpt>
      <trkpt lat="66.299690008163452" lon="13.454865999519825">
        <ele>32.340000000000003</ele>
        <time>2017-06-22T13:58:28Z</time>
      </trkpt>
      <trkpt lat="66.299787992611527" lon="13.45522197894752">
        <ele>31.379999999999999</ele>
        <time>2017-06-22T13:58:29Z</time>
      </trkpt>
      <trkpt lat="66.299860998988152" lon="13.455611988902092">
        <ele>30.899999999999999</ele>
        <time>2017-06-22T13:58:30Z</time>
      </trkpt>
      <trkpt lat="66.299910033121705" lon="13.45603602938354">
        <ele>28.02</ele>
        <time>2017-06-22T13:58:31Z</time>
      </trkpt>
      <trkpt lat="66.299952026456594" lon="13.456472977995872">
        <ele>26.09</ele>
        <time>2017-06-22T13:58:32Z</time>
      </trkpt>
      <trkpt lat="66.300379000604153" lon="13.461806969717145">
        <ele>8.789999999999999</ele>
        <time>2017-06-22T13:58:44Z</time>
      </trkpt>
      <trkpt lat="66.300477990880609" lon="13.466142006218433">
        <ele>13.119999999999999</ele>
        <time>2017-06-22T13:58:53Z</time>
      </trkpt>
      <trkpt lat="66.301154997199774" lon="13.470651973038912">
        <ele>18.879999999999999</ele>
        <time>2017-06-22T13:59:03Z</time>
      </trkpt>
      <trkpt lat="66.302008023485541" lon="13.477852027863264">
        <ele>22.25</ele>
        <time>2017-06-22T13:59:18Z</time>
      </trkpt>
      <trkpt lat="66.302603976801038" lon="13.482174994423985">
        <ele>28.5</ele>
        <time>2017-06-22T13:59:27Z</time>
      </trkpt>
      <trkpt lat="66.303349966183305" lon="13.490613978356123">
        <ele>21.289999999999999</ele>
        <time>2017-06-22T13:59:43Z</time>
      </trkpt>
      <trkpt lat="66.304131997749209" lon="13.498620958998799">
        <ele>16.48</ele>
        <time>2017-06-22T13:59:58Z</time>
      </trkpt>
      <trkpt lat="66.304182037711143" lon="13.499607006087899">
        <ele>16.960000000000001</ele>
        <time>2017-06-22T14:00:00Z</time>
      </trkpt>
      <trkpt lat="66.304173991084099" lon="13.500058958306909">
        <ele>17.440000000000001</ele>
        <time>2017-06-22T14:00:01Z</time>
      </trkpt>
      <trkpt lat="66.304144989699125" lon="13.500482998788357">
        <ele>17.920000000000002</ele>
        <time>2017-06-22T14:00:02Z</time>
      </trkpt>
      <trkpt lat="66.304092016071081" lon="13.500895975157619">
        <ele>18.879999999999999</ele>
        <time>2017-06-22T14:00:03Z</time>
      </trkpt>
      <trkpt lat="66.304019009694457" lon="13.501295037567616">
        <ele>19.359999999999999</ele>
        <time>2017-06-22T14:00:04Z</time>
      </trkpt>
      <trkpt lat="66.303935023024678" lon="13.501698039472103">
        <ele>19.84</ele>
        <time>2017-06-22T14:00:05Z</time>
      </trkpt>
      <trkpt lat="66.303086020052433" lon="13.505923021584749">
        <ele>22.25</ele>
        <time>2017-06-22T14:00:14Z</time>
      </trkpt>
      <trkpt lat="66.302663991227746" lon="13.50985798984766">
        <ele>26.09</ele>
        <time>2017-06-22T14:00:21Z</time>
      </trkpt>
      <trkpt lat="66.301998971030116" lon="13.513533035293221">
        <ele>27.530000000000001</ele>
        <time>2017-06-22T14:00:28Z</time>
      </trkpt>
      <trkpt lat="66.301162960007787" lon="13.516005026176572">
        <ele>28.02</ele>
        <time>2017-06-22T14:00:34Z</time>
      </trkpt>
      <trkpt lat="66.299863010644913" lon="13.520009983330965">
        <ele>31.379999999999999</ele>
        <time>2017-06-22T14:00:43Z</time>
      </trkpt>
      <trkpt lat="66.298470022156835" lon="13.526249974966049">
        <ele>42.920000000000002</ele>
        <time>2017-06-22T14:00:56Z</time>
      </trkpt>
      <trkpt lat="66.298072971403599" lon="13.527816971763968">
        <ele>45.799999999999997</ele>
        <time>2017-06-22T14:01:00Z</time>
      </trkpt>
      <trkpt lat="66.298013962805271" lon="13.528228020295501">
        <ele>45.799999999999997</ele>
        <time>2017-06-22T14:01:01Z</time>
      </trkpt>
      <trkpt lat="66.297971969470382" lon="13.528651976957917">
        <ele>46.280000000000001</ele>
        <time>2017-06-22T14:01:02Z</time>
      </trkpt>
      <trkpt lat="66.297953026369214" lon="13.529097978025675">
        <ele>45.799999999999997</ele>
        <time>2017-06-22T14:01:03Z</time>
      </trkpt>
      <trkpt lat="66.297946991398931" lon="13.529568035155535">
        <ele>44.840000000000003</ele>
        <time>2017-06-22T14:01:04Z</time>
      </trkpt>
      <trkpt lat="66.297867028042674" lon="13.534834971651435">
        <ele>39.549999999999997</ele>
        <time>2017-06-22T14:01:14Z</time>
      </trkpt>
      <trkpt lat="66.297361012548208" lon="13.538879994302988">
        <ele>37.630000000000003</ele>
        <time>2017-06-22T14:01:22Z</time>
      </trkpt>
      <trkpt lat="66.296832030639052" lon="13.542912025004625">
        <ele>31.859999999999999</ele>
        <time>2017-06-22T14:01:32Z</time>
      </trkpt>
      <trkpt lat="66.296532964333892" lon="13.545164996758103">
        <ele>27.530000000000001</ele>
        <time>2017-06-22T14:01:39Z</time>
      </trkpt>
      <trkpt lat="66.296071037650108" lon="13.548628985881805">
        <ele>22.73</ele>
        <time>2017-06-22T14:01:49Z</time>
      </trkpt>
      <trkpt lat="66.296058967709541" lon="13.548825960606337">
        <ele>22.25</ele>
        <time>2017-06-22T14:01:50Z</time>
      </trkpt>
      <trkpt lat="66.296071959659457" lon="13.548980019986629">
        <ele>21.77</ele>
        <time>2017-06-22T14:01:51Z</time>
      </trkpt>
      <trkpt lat="66.296113030984998" lon="13.549127038568258">
        <ele>21.289999999999999</ele>
        <time>2017-06-22T14:01:52Z</time>
      </trkpt>
      <trkpt lat="66.296181008219719" lon="13.549194009974599">
        <ele>20.809999999999999</ele>
        <time>2017-06-22T14:01:53Z</time>
      </trkpt>
      <trkpt lat="66.296267006546259" lon="13.549229968339205">
        <ele>20.809999999999999</ele>
        <time>2017-06-22T14:01:54Z</time>
      </trkpt>
      <trkpt lat="66.296373037621379" lon="13.549244971945882">
        <ele>20.32</ele>
        <time>2017-06-22T14:01:55Z</time>
      </trkpt>
      <trkpt lat="66.296490970999002" lon="13.549250001087785">
        <ele>20.32</ele>
        <time>2017-06-22T14:01:56Z</time>
      </trkpt>
      <trkpt lat="66.297743981704116" lon="13.549342034384608">
        <ele>23.210000000000001</ele>
        <time>2017-06-22T14:02:04Z</time>
      </trkpt>
      <trkpt lat="66.299345009028912" lon="13.550297990441322">
        <ele>22.25</ele>
        <time>2017-06-22T14:02:13Z</time>
      </trkpt>
      <trkpt lat="66.301634022966027" lon="13.552846005186439">
        <ele>20.809999999999999</ele>
        <time>2017-06-22T14:02:25Z</time>
      </trkpt>
      <trkpt lat="66.303486004471779" lon="13.555177012458444">
        <ele>27.530000000000001</ele>
        <time>2017-06-22T14:02:36Z</time>
      </trkpt>
      <trkpt lat="66.303607961162925" lon="13.555481024086475">
        <ele>28.02</ele>
        <time>2017-06-22T14:02:37Z</time>
      </trkpt>
      <trkpt lat="66.303711980581284" lon="13.555828034877777">
        <ele>28.98</ele>
        <time>2017-06-22T14:02:38Z</time>
      </trkpt>
      <trkpt lat="66.303791021928191" lon="13.556209998205304">
        <ele>30.420000000000002</ele>
        <time>2017-06-22T14:02:39Z</time>
      </trkpt>
      <trkpt lat="66.303847013041377" lon="13.556614005938172">
        <ele>31.379999999999999</ele>
        <time>2017-06-22T14:02:40Z</time>
      </trkpt>
      <trkpt lat="66.303883977234364" lon="13.557028993964195">
        <ele>31.379999999999999</ele>
        <time>2017-06-22T14:02:41Z</time>
      </trkpt>
      <trkpt lat="66.303899986669421" lon="13.55746996589005">
        <ele>31.859999999999999</ele>
        <time>2017-06-22T14:02:42Z</time>
      </trkpt>
      <trkpt lat="66.303899986669421" lon="13.557925019413233">
        <ele>32.340000000000003</ele>
        <time>2017-06-22T14:02:43Z</time>
      </trkpt>
      <trkpt lat="66.303889006376266" lon="13.55839398689568">
        <ele>32.82</ele>
        <time>2017-06-22T14:02:44Z</time>
      </trkpt>
      <trkpt lat="66.303773000836372" lon="13.563952026888728">
        <ele>16.48</ele>
        <time>2017-06-22T14:02:55Z</time>
      </trkpt>
      <trkpt lat="66.303791021928191" lon="13.56486096046865">
        <ele>13.6</ele>
        <time>2017-06-22T14:02:57Z</time>
      </trkpt>
      <trkpt lat="66.303831003606319" lon="13.56528801843524">
        <ele>12.630000000000001</ele>
        <time>2017-06-22T14:02:58Z</time>
      </trkpt>
      <trkpt lat="66.303898980841041" lon="13.565688002854586">
        <ele>11.67</ele>
        <time>2017-06-22T14:02:59Z</time>
      </trkpt>
      <trkpt lat="66.303994031623006" lon="13.566068960353732">
        <ele>10.710000000000001</ele>
        <time>2017-06-22T14:03:00Z</time>
      </trkpt>
      <trkpt lat="66.304107019677758" lon="13.566423011943698">
        <ele>10.23</ele>
        <time>2017-06-22T14:03:01Z</time>
      </trkpt>
      <trkpt lat="66.30424196831882" lon="13.566716965287924">
        <ele>9.75</ele>
        <time>2017-06-22T14:03:02Z</time>
      </trkpt>
      <trkpt lat="66.304388986900449" lon="13.566960962489247">
        <ele>9.27</ele>
        <time>2017-06-22T14:03:03Z</time>
      </trkpt>
      <trkpt lat="66.304547991603613" lon="13.567145029082894">
        <ele>8.789999999999999</ele>
        <time>2017-06-22T14:03:04Z</time>
      </trkpt>
      <trkpt lat="66.304720994085073" lon="13.567246031016111">
        <ele>8.310000000000001</ele>
        <time>2017-06-22T14:03:05Z</time>
      </trkpt>
      <trkpt lat="66.304899025708437" lon="13.567289030179381">
        <ele>7.83</ele>
        <time>2017-06-22T14:03:06Z</time>
      </trkpt>
      <trkpt lat="66.305080996826291" lon="13.567268997430801">
        <ele>7.35</ele>
        <time>2017-06-22T14:03:07Z</time>
      </trkpt>
      <trkpt lat="66.305266991257668" lon="13.567187022417784">
        <ele>6.39</ele>
        <time>2017-06-22T14:03:08Z</time>
      </trkpt>
      <trkpt lat="66.305454997345805" lon="13.567060036584735">
        <ele>5.91</ele>
        <time>2017-06-22T14:03:09Z</time>
      </trkpt>
      <trkpt lat="66.305646020919085" lon="13.566905977204442">
        <ele>4.46</ele>
        <time>2017-06-22T14:03:10Z</time>
      </trkpt>
      <trkpt lat="66.307939980179071" lon="13.564717965200543">
        <ele>-2.75</ele>
        <time>2017-06-22T14:03:22Z</time>
      </trkpt>
      <trkpt lat="66.30810703150928" lon="13.564405990764499">
        <ele>-3.23</ele>
        <time>2017-06-22T14:03:23Z</time>
      </trkpt>
      <trkpt lat="66.308260001242161" lon="13.564054034650326">
        <ele>-4.19</ele>
        <time>2017-06-22T14:03:24Z</time>
      </trkpt>
      <trkpt lat="66.30840701982379" lon="13.563687996938825">
        <ele>-4.19</ele>
        <time>2017-06-22T14:03:25Z</time>
      </trkpt>
      <trkpt lat="66.308541968464851" lon="13.56329002417624">
        <ele>-4.67</ele>
        <time>2017-06-22T14:03:26Z</time>
      </trkpt>
      <trkpt lat="66.30866602063179" lon="13.562875036150217">
        <ele>-4.67</ele>
        <time>2017-06-22T14:03:27Z</time>
      </trkpt>
      <trkpt lat="66.308778002858162" lon="13.562434986233711">
        <ele>-4.19</ele>
        <time>2017-06-22T14:03:28Z</time>
      </trkpt>
      <trkpt lat="66.30888001061976" lon="13.561984039843082">
        <ele>-4.19</ele>
        <time>2017-06-22T14:03:29Z</time>
      </trkpt>
      <trkpt lat="66.308968020603061" lon="13.5615099593997">
        <ele>-4.19</ele>
        <time>2017-06-22T14:03:30Z</time>
      </trkpt>
      <trkpt lat="66.309042032808065" lon="13.561032023280859">
        <ele>-3.23</ele>
        <time>2017-06-22T14:03:31Z</time>
      </trkpt>
      <trkpt lat="66.309100035578012" lon="13.56054101139307">
        <ele>-2.75</ele>
        <time>2017-06-22T14:03:32Z</time>
      </trkpt>
      <trkpt lat="66.309144040569663" lon="13.560033990070224">
        <ele>-2.27</ele>
        <time>2017-06-22T14:03:33Z</time>
      </trkpt>
      <trkpt lat="66.309627005830407" lon="13.556232964619994">
        <ele>-1.3</ele>
        <time>2017-06-22T14:03:41Z</time>
      </trkpt>
      <trkpt lat="66.310581034049392" lon="13.552869977429509">
        <ele>-1.3</ele>
        <time>2017-06-22T14:03:49Z</time>
      </trkpt>
      <trkpt lat="66.311067016795278" lon="13.549274979159236">
        <ele>0.14</ele>
        <time>2017-06-22T14:03:56Z</time>
      </trkpt>
      <trkpt lat="66.311359964311123" lon="13.547407994046807">
        <ele>0.14</ele>
        <time>2017-06-22T14:04:00Z</time>
      </trkpt>
      <trkpt lat="66.311474964022636" lon="13.546999040991068">
        <ele>0.14</ele>
        <time>2017-06-22T14:04:01Z</time>
      </trkpt>
      <trkpt lat="66.311607984825969" lon="13.546624034643173">
        <ele>0.62</ele>
        <time>2017-06-22T14:04:02Z</time>
      </trkpt>
      <trkpt lat="66.313274977728724" lon="13.542681019753218">
        <ele>-0.82</ele>
        <time>2017-06-22T14:04:13Z</time>
      </trkpt>
      <trkpt lat="66.314100008457899" lon="13.539674011990428">
        <ele>-2.27</ele>
        <time>2017-06-22T14:04:20Z</time>
      </trkpt>
      <trkpt lat="66.314849015325308" lon="13.534160982817411">
        <ele>-0.82</ele>
        <time>2017-06-22T14:04:31Z</time>
      </trkpt>
      <trkpt lat="66.315425019711256" lon="13.530713003128767">
        <ele>1.58</ele>
        <time>2017-06-22T14:04:38Z</time>
      </trkpt>
      <trkpt lat="66.31625097244978" lon="13.526951959356666">
        <ele>8.789999999999999</ele>
        <time>2017-06-22T14:04:46Z</time>
      </trkpt>
      <trkpt lat="66.316402014344931" lon="13.526550969108939">
        <ele>9.75</ele>
        <time>2017-06-22T14:04:47Z</time>
      </trkpt>
      <trkpt lat="66.316566970199347" lon="13.526175040751696">
        <ele>11.19</ele>
        <time>2017-06-22T14:04:48Z</time>
      </trkpt>
      <trkpt lat="66.316742990165949" lon="13.525838004425168">
        <ele>12.630000000000001</ele>
        <time>2017-06-22T14:04:49Z</time>
      </trkpt>
      <trkpt lat="66.316933007910848" lon="13.525536004453897">
        <ele>13.6</ele>
        <time>2017-06-22T14:04:50Z</time>
      </trkpt>
      <trkpt lat="66.31713199429214" lon="13.525265017524362">
        <ele>15.52</ele>
        <time>2017-06-22T14:04:51Z</time>
      </trkpt>
      <trkpt lat="66.317332992330194" lon="13.525010962039232">
        <ele>16.48</ele>
        <time>2017-06-22T14:04:52Z</time>
      </trkpt>
      <trkpt lat="66.319326041266322" lon="13.522628992795944">
        <ele>28.98</ele>
        <time>2017-06-22T14:05:02Z</time>
      </trkpt>
      <trkpt lat="66.319489991292357" lon="13.522326992824674">
        <ele>30.420000000000002</ele>
        <time>2017-06-22T14:05:03Z</time>
      </trkpt>
      <trkpt lat="66.319640027359128" lon="13.521998003125191">
        <ele>30.420000000000002</ele>
        <time>2017-06-22T14:05:04Z</time>
      </trkpt>
      <trkpt lat="66.319773970171809" lon="13.521626014262438">
        <ele>30.899999999999999</ele>
        <time>2017-06-22T14:05:05Z</time>
      </trkpt>
      <trkpt lat="66.319880001246929" lon="13.521208008751273">
        <ele>30.899999999999999</ele>
        <time>2017-06-22T14:05:06Z</time>
      </trkpt>
      <trkpt lat="66.319964993745089" lon="13.520742980763316">
        <ele>30.899999999999999</ele>
        <time>2017-06-22T14:05:07Z</time>
      </trkpt>
      <trkpt lat="66.320021990686655" lon="13.520243000239134">
        <ele>30.420000000000002</ele>
        <time>2017-06-22T14:05:08Z</time>
      </trkpt>
      <trkpt lat="66.32005400955677" lon="13.519738996401429">
        <ele>29.460000000000001</ele>
        <time>2017-06-22T14:05:09Z</time>
      </trkpt>
      <trkpt lat="66.320043029263616" lon="13.519237004220486">
        <ele>27.050000000000001</ele>
        <time>2017-06-22T14:05:10Z</time>
      </trkpt>
      <trkpt lat="66.32003397680819" lon="13.518711039796472">
        <ele>26.57</ele>
        <time>2017-06-22T14:05:11Z</time>
      </trkpt>
      <trkpt lat="66.319984020665288" lon="13.518189014866948">
        <ele>24.170000000000002</ele>
        <time>2017-06-22T14:05:12Z</time>
      </trkpt>
      <trkpt lat="66.319934986531734" lon="13.517657015472651">
        <ele>23.210000000000001</ele>
        <time>2017-06-22T14:05:13Z</time>
      </trkpt>
      <trkpt lat="66.319740023463964" lon="13.515161974355578">
        <ele>15.52</ele>
        <time>2017-06-22T14:05:18Z</time>
      </trkpt>
      <trkpt lat="66.319751003757119" lon="13.514680014923215">
        <ele>14.56</ele>
        <time>2017-06-22T14:05:19Z</time>
      </trkpt>
      <trkpt lat="66.319791991263628" lon="13.514209035784006">
        <ele>13.6</ele>
        <time>2017-06-22T14:05:20Z</time>
      </trkpt>
      <trkpt lat="66.319870026782155" lon="13.513744007796049">
        <ele>13.119999999999999</ele>
        <time>2017-06-22T14:05:21Z</time>
      </trkpt>
      <trkpt lat="66.319962982088327" lon="13.513286020606756">
        <ele>13.119999999999999</ele>
        <time>2017-06-22T14:05:22Z</time>
      </trkpt>
      <trkpt lat="66.32007597014308" lon="13.51284597069025">
        <ele>13.6</ele>
        <time>2017-06-22T14:05:23Z</time>
      </trkpt>
      <trkpt lat="66.320194993168116" lon="13.512409022077918">
        <ele>14.08</ele>
        <time>2017-06-22T14:05:24Z</time>
      </trkpt>
      <trkpt lat="66.320307981222868" lon="13.511946005746722">
        <ele>14.56</ele>
        <time>2017-06-22T14:05:25Z</time>
      </trkpt>
      <trkpt lat="66.32039699703455" lon="13.511477038264275">
        <ele>14.56</ele>
        <time>2017-06-22T14:05:26Z</time>
      </trkpt>
      <trkpt lat="66.320456005632877" lon="13.510972028598189">
        <ele>14.56</ele>
        <time>2017-06-22T14:05:27Z</time>
      </trkpt>
      <trkpt lat="66.320501016452909" lon="13.510457966476679">
        <ele>14.56</ele>
        <time>2017-06-22T14:05:28Z</time>
      </trkpt>
      <trkpt lat="66.320553990080953" lon="13.509942982345819">
        <ele>14.08</ele>
        <time>2017-06-22T14:05:29Z</time>
      </trkpt>
      <trkpt lat="66.320618027821183" lon="13.509438978508115">
        <ele>13.119999999999999</ele>
        <time>2017-06-22T14:05:30Z</time>
      </trkpt>
      <trkpt lat="66.320700002834201" lon="13.508947966620326">
        <ele>12.630000000000001</ele>
        <time>2017-06-22T14:05:31Z</time>
      </trkpt>
      <trkpt lat="66.320789018645883" lon="13.508462989702821">
        <ele>11.67</ele>
        <time>2017-06-22T14:05:32Z</time>
      </trkpt>
      <trkpt lat="66.321024969220161" lon="13.506952989846468">
        <ele>9.75</ele>
        <time>2017-06-22T14:05:35Z</time>
      </trkpt>
      <trkpt lat="66.32106201723218" lon="13.506406992673874">
        <ele>9.75</ele>
        <time>2017-06-22T14:05:36Z</time>
      </trkpt>
      <trkpt lat="66.321080960333347" lon="13.505846997722983">
        <ele>9.75</ele>
        <time>2017-06-22T14:05:37Z</time>
      </trkpt>
      <trkpt lat="66.321080038323998" lon="13.50528197363019">
        <ele>9.75</ele>
        <time>2017-06-22T14:05:38Z</time>
      </trkpt>
      <trkpt lat="66.321076015010476" lon="13.504723990336061">
        <ele>9.75</ele>
        <time>2017-06-22T14:05:39Z</time>
      </trkpt>
      <trkpt lat="66.321190008893609" lon="13.500685002654791">
        <ele>14.08</ele>
        <time>2017-06-22T14:05:47Z</time>
      </trkpt>
      <trkpt lat="66.321521010249853" lon="13.499081963673234">
        <ele>16.48</ele>
        <time>2017-06-22T14:05:51Z</time>
      </trkpt>
      <trkpt lat="66.321636009961367" lon="13.498739982023835">
        <ele>16.48</ele>
        <time>2017-06-22T14:05:52Z</time>
      </trkpt>
      <trkpt lat="66.321759978309274" lon="13.498437982052565">
        <ele>16.960000000000001</ele>
        <time>2017-06-22T14:05:53Z</time>
      </trkpt>
      <trkpt lat="66.321885036304593" lon="13.498160960152745">
        <ele>17.440000000000001</ele>
        <time>2017-06-22T14:05:54Z</time>
      </trkpt>
      <trkpt lat="66.322025014087558" lon="13.497905982658267">
        <ele>17.440000000000001</ele>
        <time>2017-06-22T14:05:55Z</time>
      </trkpt>
      <trkpt lat="66.322175972163677" lon="13.497667014598846">
        <ele>17.440000000000001</ele>
        <time>2017-06-22T14:05:56Z</time>
      </trkpt>
      <trkpt lat="66.322317961603403" lon="13.497423017397523">
        <ele>18.399999999999999</ele>
        <time>2017-06-22T14:05:57Z</time>
      </trkpt>
      <trkpt lat="66.347277006134391" lon="13.492273008450866">
        <ele>38.590000000000003</ele>
        <time>2017-06-22T14:07:48Z</time>
      </trkpt>
      <trkpt lat="66.347366021946073" lon="13.491850979626179">
        <ele>37.630000000000003</ele>
        <time>2017-06-22T14:07:49Z</time>
      </trkpt>
      <trkpt lat="66.347411032766104" lon="13.491363991051912">
        <ele>39.07</ele>
        <time>2017-06-22T14:07:50Z</time>
      </trkpt>
      <trkpt lat="66.347449002787471" lon="13.490939028561115">
        <ele>39.07</ele>
        <time>2017-06-22T14:07:51Z</time>
      </trkpt>
      <trkpt lat="66.347451014444232" lon="13.490479029715061">
        <ele>37.630000000000003</ele>
        <time>2017-06-22T14:07:52Z</time>
      </trkpt>
      <trkpt lat="66.347442967817187" lon="13.490027999505401">
        <ele>38.590000000000003</ele>
        <time>2017-06-22T14:07:53Z</time>
      </trkpt>
      <trkpt lat="66.347421007230878" lon="13.48953003063798">
        <ele>37.149999999999999</ele>
        <time>2017-06-22T14:07:54Z</time>
      </trkpt>
      <trkpt lat="66.34736099280417" lon="13.489113030955195">
        <ele>37.149999999999999</ele>
        <time>2017-06-22T14:07:55Z</time>
      </trkpt>
      <trkpt lat="66.347301984205842" lon="13.488696031272411">
        <ele>38.109999999999999</ele>
        <time>2017-06-22T14:07:56Z</time>
      </trkpt>
      <trkpt lat="66.347240963950753" lon="13.488320019096136">
        <ele>37.149999999999999</ele>
        <time>2017-06-22T14:07:57Z</time>
      </trkpt>
      <trkpt lat="66.34693100117147" lon="13.485233969986439">
        <ele>32.340000000000003</ele>
        <time>2017-06-22T14:08:05Z</time>
      </trkpt>
      <trkpt lat="66.346892025321722" lon="13.483878029510379">
        <ele>28.5</ele>
        <time>2017-06-22T14:08:08Z</time>
      </trkpt>
      <trkpt lat="66.34684500284493" lon="13.483457006514072">
        <ele>26.09</ele>
        <time>2017-06-22T14:08:09Z</time>
      </trkpt>
      <trkpt lat="66.346779959276319" lon="13.483039001002908">
        <ele>24.649999999999999</ele>
        <time>2017-06-22T14:08:10Z</time>
      </trkpt>
      <trkpt lat="66.346704019233584" lon="13.482627030462027">
        <ele>23.690000000000001</ele>
        <time>2017-06-22T14:08:11Z</time>
      </trkpt>
      <trkpt lat="66.346617015078664" lon="13.482229979708791">
        <ele>23.210000000000001</ele>
        <time>2017-06-22T14:08:12Z</time>
      </trkpt>
      <trkpt lat="66.346529005095363" lon="13.481837958097458">
        <ele>22.73</ele>
        <time>2017-06-22T14:08:13Z</time>
      </trkpt>
      <trkpt lat="66.345327040180564" lon="13.478165008127689">
        <ele>15.52</ele>
        <time>2017-06-22T14:08:24Z</time>
      </trkpt>
      <trkpt lat="66.344275027513504" lon="13.475048029795289">
        <ele>9.75</ele>
        <time>2017-06-22T14:08:34Z</time>
      </trkpt>
      <trkpt lat="66.343700028955936" lon="13.471745979040861">
        <ele>7.35</ele>
        <time>2017-06-22T14:08:43Z</time>
      </trkpt>
      <trkpt lat="66.343147996813059" lon="13.468409981578588">
        <ele>4.46</ele>
        <time>2017-06-22T14:08:52Z</time>
      </trkpt>
      <trkpt lat="66.342919003218412" lon="13.465316975489259">
        <ele>3.5</ele>
        <time>2017-06-22T14:09:00Z</time>
      </trkpt>
      <trkpt lat="66.342948004603386" lon="13.46460803411901">
        <ele>3.98</ele>
        <time>2017-06-22T14:09:02Z</time>
      </trkpt>
      <trkpt lat="66.343696005642414" lon="13.461339008063078">
        <ele>5.91</ele>
        <time>2017-06-22T14:09:12Z</time>
      </trkpt>
      <trkpt lat="66.343857022002339" lon="13.461153013631701">
        <ele>5.91</ele>
        <time>2017-06-22T14:09:13Z</time>
      </trkpt>
      <trkpt lat="66.344005968421698" lon="13.460990991443396">
        <ele>5.91</ele>
        <time>2017-06-22T14:09:14Z</time>
      </trkpt>
      <trkpt lat="66.344136977568269" lon="13.460839027538896">
        <ele>6.39</ele>
        <time>2017-06-22T14:09:15Z</time>
      </trkpt>
      <trkpt lat="66.345010958611965" lon="13.459318969398737">
        <ele>6.39</ele>
        <time>2017-06-22T14:09:24Z</time>
      </trkpt>
      <trkpt lat="66.34508497081697" lon="13.459090981632471">
        <ele>6.87</ele>
        <time>2017-06-22T14:09:25Z</time>
      </trkpt>
      <trkpt lat="66.345150014385581" lon="13.458829969167709">
        <ele>6.87</ele>
        <time>2017-06-22T14:09:26Z</time>
      </trkpt>
      <trkpt lat="66.34521103464067" lon="13.458554036915302">
        <ele>7.35</ele>
        <time>2017-06-22T14:09:27Z</time>
      </trkpt>
      <trkpt lat="66.345614036545157" lon="13.45547603443265">
        <ele>3.98</ele>
        <time>2017-06-22T14:09:36Z</time>
      </trkpt>
      <trkpt lat="66.345627028495073" lon="13.455085018649697">
        <ele>3.98</ele>
        <time>2017-06-22T14:09:37Z</time>
      </trkpt>
      <trkpt lat="66.345614958554506" lon="13.45468302257359">
        <ele>3.5</ele>
        <time>2017-06-22T14:09:38Z</time>
      </trkpt>
      <trkpt lat="66.345594003796577" lon="13.454286977648735">
        <ele>3.5</ele>
        <time>2017-06-22T14:09:39Z</time>
      </trkpt>
      <trkpt lat="66.345554022118449" lon="13.453904008492827">
        <ele>3.98</ele>
        <time>2017-06-22T14:09:40Z</time>
      </trkpt>
      <trkpt lat="66.345500964671373" lon="13.453535959124565">
        <ele>4.46</ele>
        <time>2017-06-22T14:09:41Z</time>
      </trkpt>
      <trkpt lat="66.345440028235316" lon="13.453192971646786">
        <ele>4.94</ele>
        <time>2017-06-22T14:09:42Z</time>
      </trkpt>
      <trkpt lat="66.345375990495086" lon="13.452882003039122">
        <ele>5.42</ele>
        <time>2017-06-22T14:09:43Z</time>
      </trkpt>
      <trkpt lat="66.345107015222311" lon="13.450276991352439">
        <ele>6.87</ele>
        <time>2017-06-22T14:09:51Z</time>
      </trkpt>
      <trkpt lat="66.345380013808608" lon="13.446937976405025">
        <ele>6.87</ele>
        <time>2017-06-22T14:10:00Z</time>
      </trkpt>
      <trkpt lat="66.346038999035954" lon="13.444461040198803">
        <ele>3.5</ele>
        <time>2017-06-22T14:10:08Z</time>
      </trkpt>
      <trkpt lat="66.346594970673323" lon="13.441829960793257">
        <ele>2.06</ele>
        <time>2017-06-22T14:10:16Z</time>
      </trkpt>
      <trkpt lat="66.347344983369112" lon="13.439732976257801">
        <ele>1.58</ele>
        <time>2017-06-22T14:10:24Z</time>
      </trkpt>
      <trkpt lat="66.348717017099261" lon="13.438080986961722">
        <ele>0.62</ele>
        <time>2017-06-22T14:10:34Z</time>
      </trkpt>
      <trkpt lat="66.349530983716249" lon="13.436749018728733">
        <ele>1.58</ele>
        <time>2017-06-22T14:10:41Z</time>
      </trkpt>
      <trkpt lat="66.349622011184692" lon="13.436492029577494">
        <ele>2.06</ele>
        <time>2017-06-22T14:10:42Z</time>
      </trkpt>
      <trkpt lat="66.349708009511232" lon="13.43620696105063">
        <ele>2.54</ele>
        <time>2017-06-22T14:10:43Z</time>
      </trkpt>
      <trkpt lat="66.349785961210728" lon="13.435898004099727">
        <ele>3.5</ele>
        <time>2017-06-22T14:10:44Z</time>
      </trkpt>
      <trkpt lat="66.349855028092861" lon="13.435568008571863">
        <ele>3.98</ele>
        <time>2017-06-22T14:10:45Z</time>
      </trkpt>
      <trkpt lat="66.349912025034428" lon="13.435211023315787">
        <ele>4.46</ele>
        <time>2017-06-22T14:10:46Z</time>
      </trkpt>
      <trkpt lat="66.349960975348949" lon="13.434842973947525">
        <ele>5.42</ele>
        <time>2017-06-22T14:10:47Z</time>
      </trkpt>
      <trkpt lat="66.349998023360968" lon="13.43446696177125">
        <ele>5.91</ele>
        <time>2017-06-22T14:10:48Z</time>
      </trkpt>
      <trkpt lat="66.350026018917561" lon="13.434075023978949">
        <ele>6.87</ele>
        <time>2017-06-22T14:10:49Z</time>
      </trkpt>
      <trkpt lat="66.350035993382335" lon="13.433687025681138">
        <ele>7.35</ele>
        <time>2017-06-22T14:10:50Z</time>
      </trkpt>
      <trkpt lat="66.350030964240432" lon="13.433287963271141">
        <ele>7.83</ele>
        <time>2017-06-22T14:10:51Z</time>
      </trkpt>
      <trkpt lat="66.349865002557635" lon="13.430482037365437">
        <ele>8.310000000000001</ele>
        <time>2017-06-22T14:10:58Z</time>
      </trkpt>
      <trkpt lat="66.349814040586352" lon="13.430108036845922">
        <ele>7.83</ele>
        <time>2017-06-22T14:10:59Z</time>
      </trkpt>
      <trkpt lat="66.349743967875838" lon="13.42973898164928">
        <ele>6.87</ele>
        <time>2017-06-22T14:11:00Z</time>
      </trkpt>
      <trkpt lat="66.349657969549298" lon="13.429385013878345">
        <ele>6.39</ele>
        <time>2017-06-22T14:11:01Z</time>
      </trkpt>
      <trkpt lat="66.349570965394378" lon="13.429041020572186">
        <ele>5.42</ele>
        <time>2017-06-22T14:11:02Z</time>
      </trkpt>
      <trkpt lat="66.349474992603064" lon="13.428712030872703">
        <ele>4.46</ele>
        <time>2017-06-22T14:11:03Z</time>
      </trkpt>
      <trkpt lat="66.349362004548311" lon="13.428411036729813">
        <ele>3.5</ele>
        <time>2017-06-22T14:11:04Z</time>
      </trkpt>
      <trkpt lat="66.349248010665178" lon="13.428123034536839">
        <ele>3.02</ele>
        <time>2017-06-22T14:11:05Z</time>
      </trkpt>
      <trkpt lat="66.349123036488891" lon="13.427851041778922">
        <ele>2.54</ele>
        <time>2017-06-22T14:11:06Z</time>
      </trkpt>
      <trkpt lat="66.348984986543655" lon="13.427598997950554">
        <ele>1.58</ele>
        <time>2017-06-22T14:11:07Z</time>
      </trkpt>
      <trkpt lat="66.348826987668872" lon="13.427384002134204">
        <ele>-0.34</ele>
        <time>2017-06-22T14:11:08Z</time>
      </trkpt>
      <trkpt lat="66.348664965480566" lon="13.427189039066434">
        <ele>-1.79</ele>
        <time>2017-06-22T14:11:09Z</time>
      </trkpt>
      <trkpt lat="66.348491962999105" lon="13.427004972472787">
        <ele>-3.23</ele>
        <time>2017-06-22T14:11:10Z</time>
      </trkpt>
      <trkpt lat="66.346885990351439" lon="13.425268996506929">
        <ele>1.1</ele>
        <time>2017-06-22T14:11:19Z</time>
      </trkpt>
      <trkpt lat="66.344897970557213" lon="13.422955004498363">
        <ele>0.62</ele>
        <time>2017-06-22T14:11:30Z</time>
      </trkpt>
      <trkpt lat="66.343347989022732" lon="13.42019903473556">
        <ele>-1.3</ele>
        <time>2017-06-22T14:11:38Z</time>
      </trkpt>
      <trkpt lat="66.341268019750714" lon="13.415789986029267">
        <ele>-0.82</ele>
        <time>2017-06-22T14:11:50Z</time>
      </trkpt>
      <trkpt lat="66.3392189797014" lon="13.41050997376442">
        <ele>-1.79</ele>
        <time>2017-06-22T14:12:03Z</time>
      </trkpt>
      <trkpt lat="66.337497001513839" lon="13.407195014879107">
        <ele>2.54</ele>
        <time>2017-06-22T14:12:13Z</time>
      </trkpt>
      <trkpt lat="66.33677096106112" lon="13.404647000133991">
        <ele>2.54</ele>
        <time>2017-06-22T14:12:19Z</time>
      </trkpt>
      <trkpt lat="66.336707007139921" lon="13.404142996296287">
        <ele>2.54</ele>
        <time>2017-06-22T14:12:20Z</time>
      </trkpt>
      <trkpt lat="66.336109964177012" lon="13.397518023848534">
        <ele>7.83</ele>
        <time>2017-06-22T14:12:32Z</time>
      </trkpt>
      <trkpt lat="66.335690030828118" lon="13.391456985846162">
        <ele>12.15</ele>
        <time>2017-06-22T14:12:43Z</time>
      </trkpt>
      <trkpt lat="66.33571601472795" lon="13.390932027250528">
        <ele>11.67</ele>
        <time>2017-06-22T14:12:44Z</time>
      </trkpt>
      <trkpt lat="66.335753984749317" lon="13.390410002321005">
        <ele>11.19</ele>
        <time>2017-06-22T14:12:45Z</time>
      </trkpt>
      <trkpt lat="66.336267041042447" lon="13.386127017438412">
        <ele>6.39</ele>
        <time>2017-06-22T14:12:53Z</time>
      </trkpt>
      <trkpt lat="66.336597958579659" lon="13.383160997182131">
        <ele>4.94</ele>
        <time>2017-06-22T14:12:59Z</time>
      </trkpt>
      <trkpt lat="66.336624026298523" lon="13.378623034805059">
        <ele>0.14</ele>
        <time>2017-06-22T14:13:08Z</time>
      </trkpt>
      <trkpt lat="66.336497040465474" lon="13.375615021213889">
        <ele>1.1</ele>
        <time>2017-06-22T14:13:16Z</time>
      </trkpt>
      <trkpt lat="66.336476001888514" lon="13.371027018874884">
        <ele>-1.3</ele>
        <time>2017-06-22T14:13:27Z</time>
      </trkpt>
      <trkpt lat="66.336425039917231" lon="13.369475025683641">
        <ele>-0.82</ele>
        <time>2017-06-22T14:13:31Z</time>
      </trkpt>
      <trkpt lat="66.336374999955297" lon="13.369114017114043">
        <ele>-0.82</ele>
        <time>2017-06-22T14:13:32Z</time>
      </trkpt>
      <trkpt lat="66.336320014670491" lon="13.368762983009219">
        <ele>-0.34</ele>
        <time>2017-06-22T14:13:33Z</time>
      </trkpt>
      <trkpt lat="66.336258994415402" lon="13.368442039936781">
        <ele>-0.34</ele>
        <time>2017-06-22T14:13:34Z</time>
      </trkpt>
      <trkpt lat="66.336190011352301" lon="13.368136016651988">
        <ele>0.14</ele>
        <time>2017-06-22T14:13:35Z</time>
      </trkpt>
      <trkpt lat="66.336115999147296" lon="13.367842985317111">
        <ele>0.62</ele>
        <time>2017-06-22T14:13:36Z</time>
      </trkpt>
      <trkpt lat="66.336034024134278" lon="13.367565041407943">
        <ele>0.62</ele>
        <time>2017-06-22T14:13:37Z</time>
      </trkpt>
      <trkpt lat="66.335940985009074" lon="13.367297993972898">
        <ele>1.1</ele>
        <time>2017-06-22T14:13:38Z</time>
      </trkpt>
      <trkpt lat="66.335838977247477" lon="13.367041004821658">
        <ele>1.58</ele>
        <time>2017-06-22T14:13:39Z</time>
      </trkpt>
      <trkpt lat="66.335725989192724" lon="13.366800025105476">
        <ele>2.06</ele>
        <time>2017-06-22T14:13:40Z</time>
      </trkpt>
      <trkpt lat="66.335607971996069" lon="13.366569019854069">
        <ele>2.06</ele>
        <time>2017-06-22T14:13:41Z</time>
      </trkpt>
      <trkpt lat="66.33547998033464" lon="13.366360981017351">
        <ele>3.02</ele>
        <time>2017-06-22T14:13:42Z</time>
      </trkpt>
      <trkpt lat="66.335343020036817" lon="13.366179009899497">
        <ele>3.02</ele>
        <time>2017-06-22T14:13:43Z</time>
      </trkpt>
      <trkpt lat="66.335196001455188" lon="13.366022016853094">
        <ele>3.02</ele>
        <time>2017-06-22T14:13:44Z</time>
      </trkpt>
      <trkpt lat="66.333045959472656" lon="13.363997032865882">
        <ele>7.35</ele>
        <time>2017-06-22T14:13:59Z</time>
      </trkpt>
      <trkpt lat="66.330871023237705" lon="13.361538033932447">
        <ele>6.39</ele>
        <time>2017-06-22T14:14:14Z</time>
      </trkpt>
      <trkpt lat="66.329438975080848" lon="13.35840898565948">
        <ele>10.710000000000001</ele>
        <time>2017-06-22T14:14:26Z</time>
      </trkpt>
      <trkpt lat="66.328317979350686" lon="13.354812981560826">
        <ele>13.6</ele>
        <time>2017-06-22T14:14:37Z</time>
      </trkpt>
      <trkpt lat="66.327638039365411" lon="13.351271962746978">
        <ele>14.08</ele>
        <time>2017-06-22T14:14:45Z</time>
      </trkpt>
      <trkpt lat="66.32639299146831" lon="13.343993034213781">
        <ele>20.809999999999999</ele>
        <time>2017-06-22T14:15:00Z</time>
      </trkpt>
      <trkpt lat="66.324835969135165" lon="13.334909984841943">
        <ele>25.609999999999999</ele>
        <time>2017-06-22T14:15:18Z</time>
      </trkpt>
      <trkpt lat="66.323670968413353" lon="13.329716976732016">
        <ele>25.609999999999999</ele>
        <time>2017-06-22T14:15:29Z</time>
      </trkpt>
      <trkpt lat="66.322411000728607" lon="13.327076006680727">
        <ele>22.25</ele>
        <time>2017-06-22T14:15:37Z</time>
      </trkpt>
      <trkpt lat="66.321284975856543" lon="13.324047960340977">
        <ele>19.359999999999999</ele>
        <time>2017-06-22T14:15:45Z</time>
      </trkpt>
      <trkpt lat="66.320436978712678" lon="13.319548973813653">
        <ele>18.879999999999999</ele>
        <time>2017-06-22T14:15:54Z</time>
      </trkpt>
      <trkpt lat="66.319309026002884" lon="13.312486968934536">
        <ele>20.32</ele>
        <time>2017-06-22T14:16:08Z</time>
      </trkpt>
      <trkpt lat="66.318583991378546" lon="13.307196982204914">
        <ele>11.67</ele>
        <time>2017-06-22T14:16:18Z</time>
      </trkpt>
      <trkpt lat="66.317464001476765" lon="13.301060004159808">
        <ele>13.119999999999999</ele>
        <time>2017-06-22T14:16:31Z</time>
      </trkpt>
      <trkpt lat="66.316206967458129" lon="13.295974032953382">
        <ele>6.39</ele>
        <time>2017-06-22T14:16:42Z</time>
      </trkpt>
      <trkpt lat="66.315136011689901" lon="13.290380034595728">
        <ele>6.87</ele>
        <time>2017-06-22T14:16:54Z</time>
      </trkpt>
      <trkpt lat="66.314259013161063" lon="13.284929031506181">
        <ele>9.75</ele>
        <time>2017-06-22T14:17:05Z</time>
      </trkpt>
      <trkpt lat="66.313047995790839" lon="13.278502961620688">
        <ele>13.6</ele>
        <time>2017-06-22T14:17:19Z</time>
      </trkpt>
      <trkpt lat="66.311942003667355" lon="13.270385004580021">
        <ele>15.039999999999999</ele>
        <time>2017-06-22T14:17:35Z</time>
      </trkpt>
      <trkpt lat="66.310897031798959" lon="13.262697961181402">
        <ele>10.23</ele>
        <time>2017-06-22T14:17:49Z</time>
      </trkpt>
      <trkpt lat="66.309833033010364" lon="13.254974037408829">
        <ele>8.789999999999999</ele>
        <time>2017-06-22T14:18:04Z</time>
      </trkpt>
      <trkpt lat="66.308669038116932" lon="13.247023969888687">
        <ele>9.75</ele>
        <time>2017-06-22T14:18:20Z</time>
      </trkpt>
      <trkpt lat="66.307458020746708" lon="13.239068035036325">
        <ele>5.91</ele>
        <time>2017-06-22T14:18:36Z</time>
      </trkpt>
      <trkpt lat="66.306992992758751" lon="13.234657980501652">
        <ele>6.39</ele>
        <time>2017-06-22T14:18:43Z</time>
      </trkpt>
      <trkpt lat="66.306400978937745" lon="13.228386975824833">
        <ele>8.789999999999999</ele>
        <time>2017-06-22T14:18:54Z</time>
      </trkpt>
      <trkpt lat="66.306009963154793" lon="13.222084958106279">
        <ele>5.91</ele>
        <time>2017-06-22T14:19:05Z</time>
      </trkpt>
      <trkpt lat="66.305752974003553" lon="13.213353026658297">
        <ele>10.710000000000001</ele>
        <time>2017-06-22T14:19:20Z</time>
      </trkpt>
      <trkpt lat="66.305623976513743" lon="13.208087012171745">
        <ele>15.039999999999999</ele>
        <time>2017-06-22T14:19:30Z</time>
      </trkpt>
      <trkpt lat="66.305864034220576" lon="13.204807005822659">
        <ele>16</ele>
        <time>2017-06-22T14:19:37Z</time>
      </trkpt>
      <trkpt lat="66.325472993776202" lon="13.161933990195394">
        <ele>17.440000000000001</ele>
        <time>2017-06-22T14:21:33Z</time>
      </trkpt>
      <trkpt lat="66.325694024562836" lon="13.162129037082195">
        <ele>16</ele>
        <time>2017-06-22T14:21:34Z</time>
      </trkpt>
      <trkpt lat="66.325893010944128" lon="13.162348978221416">
        <ele>13.6</ele>
        <time>2017-06-22T14:21:35Z</time>
      </trkpt>
      <trkpt lat="66.326096020638943" lon="13.162598004564643">
        <ele>15.039999999999999</ele>
        <time>2017-06-22T14:21:36Z</time>
      </trkpt>
      <trkpt lat="66.326286038383842" lon="13.162853987887502">
        <ele>15.52</ele>
        <time>2017-06-22T14:21:37Z</time>
      </trkpt>
      <trkpt lat="66.326484018936753" lon="13.163146013393998">
        <ele>14.56</ele>
        <time>2017-06-22T14:21:38Z</time>
      </trkpt>
      <trkpt lat="66.32705801166594" lon="13.16396601498127">
        <ele>13.119999999999999</ele>
        <time>2017-06-22T14:21:41Z</time>
      </trkpt>
      <trkpt lat="66.327264960855246" lon="13.164127031341195">
        <ele>12.630000000000001</ele>
        <time>2017-06-22T14:21:42Z</time>
      </trkpt>
      <trkpt lat="66.32746797055006" lon="13.164233984425664">
        <ele>10.710000000000001</ele>
        <time>2017-06-22T14:21:43Z</time>
      </trkpt>
      <trkpt lat="66.327676009386778" lon="13.164292993023992">
        <ele>9.75</ele>
        <time>2017-06-22T14:21:44Z</time>
      </trkpt>
      <trkpt lat="66.327893016859889" lon="13.164305984973907">
        <ele>8.789999999999999</ele>
        <time>2017-06-22T14:21:45Z</time>
      </trkpt>
      <trkpt lat="66.32810901850462" lon="13.164258040487766">
        <ele>8.789999999999999</ele>
        <time>2017-06-22T14:21:46Z</time>
      </trkpt>
      <trkpt lat="66.328333988785744" lon="13.164148991927505">
        <ele>9.75</ele>
        <time>2017-06-22T14:21:47Z</time>
      </trkpt>
      <trkpt lat="66.328549990430474" lon="13.163991998881102">
        <ele>10.23</ele>
        <time>2017-06-22T14:21:48Z</time>
      </trkpt>
      <trkpt lat="66.328758029267192" lon="13.16377499140799">
        <ele>10.710000000000001</ele>
        <time>2017-06-22T14:21:49Z</time>
      </trkpt>
      <trkpt lat="66.328960033133626" lon="13.163499981164932">
        <ele>10.23</ele>
        <time>2017-06-22T14:21:50Z</time>
      </trkpt>
      <trkpt lat="66.329156002029777" lon="13.163177026435733">
        <ele>10.23</ele>
        <time>2017-06-22T14:21:51Z</time>
      </trkpt>
      <trkpt lat="66.329346019774675" lon="13.162821969017386">
        <ele>9.75</ele>
        <time>2017-06-22T14:21:52Z</time>
      </trkpt>
      <trkpt lat="66.332120010629296" lon="13.156997971236706">
        <ele>3.02</ele>
        <time>2017-06-22T14:22:07Z</time>
      </trkpt>
      <trkpt lat="66.333209993317723" lon="13.152955966070294">
        <ele>0.62</ele>
        <time>2017-06-22T14:22:15Z</time>
      </trkpt>
      <trkpt lat="66.333665968850255" lon="13.149457024410367">
        <ele>0.62</ele>
        <time>2017-06-22T14:22:21Z</time>
      </trkpt>
      <trkpt lat="66.333645014092326" lon="13.145881975069642">
        <ele>2.54</ele>
        <time>2017-06-22T14:22:27Z</time>
      </trkpt>
      <trkpt lat="66.333577958866954" lon="13.14531896263361">
        <ele>3.02</ele>
        <time>2017-06-22T14:22:28Z</time>
      </trkpt>
      <trkpt lat="66.333493972197175" lon="13.144782017916441">
        <ele>3.5</ele>
        <time>2017-06-22T14:22:29Z</time>
      </trkpt>
      <trkpt lat="66.333390036597848" lon="13.144277008250356">
        <ele>3.5</ele>
        <time>2017-06-22T14:22:30Z</time>
      </trkpt>
      <trkpt lat="66.333264978602529" lon="13.143812986090779">
        <ele>3.02</ele>
        <time>2017-06-22T14:22:31Z</time>
      </trkpt>
      <trkpt lat="66.333122989162803" lon="13.143373019993305">
        <ele>3.02</ele>
        <time>2017-06-22T14:22:32Z</time>
      </trkpt>
      <trkpt lat="66.3329659961164" lon="13.142962977290154">
        <ele>2.54</ele>
        <time>2017-06-22T14:22:33Z</time>
      </trkpt>
      <trkpt lat="66.332792993634939" lon="13.142574978992343">
        <ele>2.06</ele>
        <time>2017-06-22T14:22:34Z</time>
      </trkpt>
      <trkpt lat="66.332600964233279" lon="13.142216987907887">
        <ele>1.1</ele>
        <time>2017-06-22T14:22:35Z</time>
      </trkpt>
      <trkpt lat="66.332400972023606" lon="13.141869977116585">
        <ele>0.14</ele>
        <time>2017-06-22T14:22:36Z</time>
      </trkpt>
      <trkpt lat="66.329901991412044" lon="13.137105032801628">
        <ele>7.83</ele>
        <time>2017-06-22T14:22:49Z</time>
      </trkpt>
      <trkpt lat="66.327270995825529" lon="13.13101097010076">
        <ele>13.6</ele>
        <time>2017-06-22T14:23:03Z</time>
      </trkpt>
      <trkpt lat="66.325809024274349" lon="13.127093017101288">
        <ele>15.52</ele>
        <time>2017-06-22T14:23:12Z</time>
      </trkpt>
      <trkpt lat="66.325711961835623" lon="13.126596976071596">
        <ele>15.039999999999999</ele>
        <time>2017-06-22T14:23:13Z</time>
      </trkpt>
      <trkpt lat="66.325634010136127" lon="13.126071011647582">
        <ele>14.56</ele>
        <time>2017-06-22T14:23:14Z</time>
      </trkpt>
      <trkpt lat="66.325577013194561" lon="13.125521996989846">
        <ele>14.08</ele>
        <time>2017-06-22T14:23:15Z</time>
      </trkpt>
      <trkpt lat="66.325121037662029" lon="13.120739031583071">
        <ele>13.119999999999999</ele>
        <time>2017-06-22T14:23:23Z</time>
      </trkpt>
      <trkpt lat="66.324394997209311" lon="13.115742998197675">
        <ele>20.32</ele>
        <time>2017-06-22T14:23:32Z</time>
      </trkpt>
      <trkpt lat="66.324300030246377" lon="13.110575973987579">
        <ele>22.25</ele>
        <time>2017-06-22T14:23:41Z</time>
      </trkpt>
      <trkpt lat="66.324248984456062" lon="13.110037017613649">
        <ele>21.77</ele>
        <time>2017-06-22T14:23:42Z</time>
      </trkpt>
      <trkpt lat="66.324189975857735" lon="13.109503006562591">
        <ele>21.77</ele>
        <time>2017-06-22T14:23:43Z</time>
      </trkpt>
      <trkpt lat="66.324123004451394" lon="13.108978969976306">
        <ele>21.77</ele>
        <time>2017-06-22T14:23:44Z</time>
      </trkpt>
      <trkpt lat="66.324030971154571" lon="13.108465997502208">
        <ele>21.77</ele>
        <time>2017-06-22T14:23:45Z</time>
      </trkpt>
      <trkpt lat="66.323927035555243" lon="13.107971968129277">
        <ele>22.25</ele>
        <time>2017-06-22T14:23:46Z</time>
      </trkpt>
      <trkpt lat="66.323785968124866" lon="13.10750300064683">
        <ele>21.77</ele>
        <time>2017-06-22T14:23:47Z</time>
      </trkpt>
      <trkpt lat="66.323643978685141" lon="13.107061022892594">
        <ele>21.77</ele>
        <time>2017-06-22T14:23:48Z</time>
      </trkpt>
      <trkpt lat="66.321846982464194" lon="13.1011220254004">
        <ele>29.940000000000001</ele>
        <time>2017-06-22T14:24:01Z</time>
      </trkpt>
      <trkpt lat="66.320513002574444" lon="13.09473903849721">
        <ele>27.530000000000001</ele>
        <time>2017-06-22T14:24:13Z</time>
      </trkpt>
      <trkpt lat="66.318771997466683" lon="13.086273986846209">
        <ele>23.210000000000001</ele>
        <time>2017-06-22T14:24:29Z</time>
      </trkpt>
      <trkpt lat="66.318054003641009" lon="13.081974992528558">
        <ele>21.289999999999999</ele>
        <time>2017-06-22T14:24:38Z</time>
      </trkpt>
      <trkpt lat="66.318137990310788" lon="13.078838987275958">
        <ele>15.52</ele>
        <time>2017-06-22T14:24:44Z</time>
      </trkpt>
      <trkpt lat="66.318789012730122" lon="13.069624006748199">
        <ele>16</ele>
        <time>2017-06-22T14:25:00Z</time>
      </trkpt>
      <trkpt lat="66.319010965526104" lon="13.068105960264802">
        <ele>18.399999999999999</ele>
        <time>2017-06-22T14:25:03Z</time>
      </trkpt>
      <trkpt lat="66.319124959409237" lon="13.067647973075509">
        <ele>18.879999999999999</ele>
        <time>2017-06-22T14:25:04Z</time>
      </trkpt>
      <trkpt lat="66.319240964949131" lon="13.067214963957667">
        <ele>19.359999999999999</ele>
        <time>2017-06-22T14:25:05Z</time>
      </trkpt>
      <trkpt lat="66.319370968267322" lon="13.066801987588406">
        <ele>19.359999999999999</ele>
        <time>2017-06-22T14:25:06Z</time>
      </trkpt>
      <trkpt lat="66.319513041526079" lon="13.066409965977073">
        <ele>18.879999999999999</ele>
        <time>2017-06-22T14:25:07Z</time>
      </trkpt>
      <trkpt lat="66.319668022915721" lon="13.066039988771081">
        <ele>18.879999999999999</ele>
        <time>2017-06-22T14:25:08Z</time>
      </trkpt>
      <trkpt lat="66.319833984598517" lon="13.065691972151399">
        <ele>17.920000000000002</ele>
        <time>2017-06-22T14:25:09Z</time>
      </trkpt>
      <trkpt lat="66.32001000456512" lon="13.065365999937057">
        <ele>17.440000000000001</ele>
        <time>2017-06-22T14:25:10Z</time>
      </trkpt>
      <trkpt lat="66.322001963853836" lon="13.062218008562922">
        <ele>8.789999999999999</ele>
        <time>2017-06-22T14:25:21Z</time>
      </trkpt>
      <trkpt lat="66.322750970721245" lon="13.06146003305912">
        <ele>6.87</ele>
        <time>2017-06-22T14:25:25Z</time>
      </trkpt>
      <trkpt lat="66.322908969596028" lon="13.061178987845778">
        <ele>6.39</ele>
        <time>2017-06-22T14:25:26Z</time>
      </trkpt>
      <trkpt lat="66.323055988177657" lon="13.060823008418083">
        <ele>5.91</ele>
        <time>2017-06-22T14:25:27Z</time>
      </trkpt>
      <trkpt lat="66.323849000036716" lon="13.05830399505794">
        <ele>1.58</ele>
        <time>2017-06-22T14:25:33Z</time>
      </trkpt>
      <trkpt lat="66.323942961171269" lon="13.057817006483674">
        <ele>0.62</ele>
        <time>2017-06-22T14:25:34Z</time>
      </trkpt>
      <trkpt lat="66.324087968096137" lon="13.056776979938149">
        <ele>0.62</ele>
        <time>2017-06-22T14:25:36Z</time>
      </trkpt>
      <trkpt lat="66.324125016108155" lon="13.056210028007627">
        <ele>1.1</ele>
        <time>2017-06-22T14:25:37Z</time>
      </trkpt>
      <trkpt lat="66.324593983590603" lon="13.050339007750154">
        <ele>3.5</ele>
        <time>2017-06-22T14:25:48Z</time>
      </trkpt>
      <trkpt lat="66.324686016887426" lon="13.049860987812281">
        <ele>3.5</ele>
        <time>2017-06-22T14:25:49Z</time>
      </trkpt>
      <trkpt lat="66.324797999113798" lon="13.049394031986594">
        <ele>3.5</ele>
        <time>2017-06-22T14:25:50Z</time>
      </trkpt>
      <trkpt lat="66.324923979118466" lon="13.048949036747217">
        <ele>3.5</ele>
        <time>2017-06-22T14:25:51Z</time>
      </trkpt>
      <trkpt lat="66.325070997700095" lon="13.048512004315853">
        <ele>3.02</ele>
        <time>2017-06-22T14:25:52Z</time>
      </trkpt>
      <trkpt lat="66.32523201406002" lon="13.048085030168295">
        <ele>3.02</ele>
        <time>2017-06-22T14:25:53Z</time>
      </trkpt>
      <trkpt lat="66.327293962240219" lon="13.043080028146505">
        <ele>8.310000000000001</ele>
        <time>2017-06-22T14:26:06Z</time>
      </trkpt>
      <trkpt lat="66.328958021476865" lon="13.038434023037553">
        <ele>11.19</ele>
        <time>2017-06-22T14:26:17Z</time>
      </trkpt>
      <trkpt lat="66.330893989652395" lon="13.032896015793085">
        <ele>12.630000000000001</ele>
        <time>2017-06-22T14:26:30Z</time>
      </trkpt>
      <trkpt lat="66.332282032817602" lon="13.030945966020226">
        <ele>9.27</ele>
        <time>2017-06-22T14:26:37Z</time>
      </trkpt>
      <trkpt lat="66.33341995999217" lon="13.02858998067677">
        <ele>12.15</ele>
        <time>2017-06-22T14:26:44Z</time>
      </trkpt>
      <trkpt lat="66.33528602309525" lon="13.022373039275408">
        <ele>8.789999999999999</ele>
        <time>2017-06-22T14:26:58Z</time>
      </trkpt>
      <trkpt lat="66.337196007370949" lon="13.017172990366817">
        <ele>1.58</ele>
        <time>2017-06-22T14:27:11Z</time>
      </trkpt>
      <trkpt lat="66.33872302249074" lon="13.013261994346976">
        <ele>0.14</ele>
        <time>2017-06-22T14:27:22Z</time>
      </trkpt>
      <trkpt lat="66.339402040466666" lon="13.010652959346771">
        <ele>4.94</ele>
        <time>2017-06-22T14:27:28Z</time>
      </trkpt>
      <trkpt lat="66.339779980480671" lon="13.00828498788178">
        <ele>10.23</ele>
        <time>2017-06-22T14:27:34Z</time>
      </trkpt>
      <trkpt lat="66.339835971593857" lon="13.008009977638721">
        <ele>11.19</ele>
        <time>2017-06-22T14:27:35Z</time>
      </trkpt>
      <trkpt lat="66.339891040697694" lon="13.007780984044075">
        <ele>11.19</ele>
        <time>2017-06-22T14:27:36Z</time>
      </trkpt>
      <trkpt lat="66.339964969083667" lon="13.007584009319544">
        <ele>12.15</ele>
        <time>2017-06-22T14:27:37Z</time>
      </trkpt>
      <trkpt lat="66.340060019865632" lon="13.007430033758283">
        <ele>12.15</ele>
        <time>2017-06-22T14:27:38Z</time>
      </trkpt>
      <trkpt lat="66.340174013748765" lon="13.007326014339924">
        <ele>12.15</ele>
        <time>2017-06-22T14:27:39Z</time>
      </trkpt>
      <trkpt lat="66.340303011238575" lon="13.007244961336255">
        <ele>12.15</ele>
        <time>2017-06-22T14:27:40Z</time>
      </trkpt>
      <trkpt lat="66.340446006506681" lon="13.007172960788012">
        <ele>11.67</ele>
        <time>2017-06-22T14:27:41Z</time>
      </trkpt>
      <trkpt lat="66.341798007488251" lon="13.006188003346324">
        <ele>10.710000000000001</ele>
        <time>2017-06-22T14:27:49Z</time>
      </trkpt>
      <trkpt lat="66.343338014557958" lon="13.005214026197791">
        <ele>8.310000000000001</ele>
        <time>2017-06-22T14:27:57Z</time>
      </trkpt>
      <trkpt lat="66.343486960977316" lon="13.005063990131021">
        <ele>7.83</ele>
        <time>2017-06-22T14:27:58Z</time>
      </trkpt>
      <trkpt lat="66.343628028407693" lon="13.004875984042883">
        <ele>7.83</ele>
        <time>2017-06-22T14:27:59Z</time>
      </trkpt>
      <trkpt lat="66.343765994533896" lon="13.004652019590139">
        <ele>7.35</ele>
        <time>2017-06-22T14:28:00Z</time>
      </trkpt>
      <trkpt lat="66.345182033255696" lon="13.002079026773572">
        <ele>10.710000000000001</ele>
        <time>2017-06-22T14:28:10Z</time>
      </trkpt>
      <trkpt lat="66.345327962189913" lon="13.001932008191943">
        <ele>12.630000000000001</ele>
        <time>2017-06-22T14:28:11Z</time>
      </trkpt>
      <trkpt lat="66.345482021570206" lon="13.001824971288443">
        <ele>13.6</ele>
        <time>2017-06-22T14:28:12Z</time>
      </trkpt>
      <trkpt lat="66.345649994909763" lon="13.001751964911819">
        <ele>14.08</ele>
        <time>2017-06-22T14:28:13Z</time>
      </trkpt>
      <trkpt lat="66.345826014876366" lon="13.001701002940536">
        <ele>15.039999999999999</ele>
        <time>2017-06-22T14:28:14Z</time>
      </trkpt>
      <trkpt lat="66.347573976963758" lon="13.001678036525846">
        <ele>17.440000000000001</ele>
        <time>2017-06-22T14:28:23Z</time>
      </trkpt>
      <trkpt lat="66.350593976676464" lon="13.002425031736493">
        <ele>14.08</ele>
        <time>2017-06-22T14:28:37Z</time>
      </trkpt>
      <trkpt lat="66.353079965338111" lon="13.002972034737468">
        <ele>24.649999999999999</ele>
        <time>2017-06-22T14:28:49Z</time>
      </trkpt>
      <trkpt lat="66.354197021573782" lon="13.002257980406284">
        <ele>30.899999999999999</ele>
        <time>2017-06-22T14:28:56Z</time>
      </trkpt>
      <trkpt lat="66.355124982073903" lon="13.001810973510146">
        <ele>38.590000000000003</ele>
        <time>2017-06-22T14:29:02Z</time>
      </trkpt>
      <trkpt lat="66.35526898317039" lon="13.001831006258726">
        <ele>39.549999999999997</ele>
        <time>2017-06-22T14:29:03Z</time>
      </trkpt>
      <trkpt lat="66.355403009802103" lon="13.001897977665067">
        <ele>40.509999999999998</ele>
        <time>2017-06-22T14:29:04Z</time>
      </trkpt>
      <trkpt lat="66.355534018948674" lon="13.002004008740187">
        <ele>41.469999999999999</ele>
        <time>2017-06-22T14:29:05Z</time>
      </trkpt>
      <trkpt lat="66.355658993124962" lon="13.002147004008293">
        <ele>42.439999999999998</ele>
        <time>2017-06-22T14:29:06Z</time>
      </trkpt>
      <trkpt lat="66.35578396730125" lon="13.00231103785336">
        <ele>42.920000000000002</ele>
        <time>2017-06-22T14:29:07Z</time>
      </trkpt>
      <trkpt lat="66.356828017160296" lon="13.003960009664297">
        <ele>50.609999999999999</ele>
        <time>2017-06-22T14:29:15Z</time>
      </trkpt>
      <trkpt lat="66.356926001608372" lon="13.004216998815536">
        <ele>50.609999999999999</ele>
        <time>2017-06-22T14:29:16Z</time>
      </trkpt>
      <trkpt lat="66.35700898244977" lon="13.004487985745072">
        <ele>50.609999999999999</ele>
        <time>2017-06-22T14:29:17Z</time>
      </trkpt>
      <trkpt lat="66.357239987701178" lon="13.005355009809136">
        <ele>49.159999999999997</ele>
        <time>2017-06-22T14:29:22Z</time>
      </trkpt>
      <trkpt lat="66.357276029884815" lon="13.005435978993773">
        <ele>48.68</ele>
        <time>2017-06-22T14:29:23Z</time>
      </trkpt>
      <trkpt lat="66.357312994077802" lon="13.005486018955708">
        <ele>48.200000000000003</ele>
        <time>2017-06-22T14:29:24Z</time>
      </trkpt>
      <trkpt lat="66.357348030433059" lon="13.005501022562385">
        <ele>48.200000000000003</ele>
        <time>2017-06-22T14:29:25Z</time>
      </trkpt>
      <trkpt lat="66.357380971312523" lon="13.005505967885256">
        <ele>47.719999999999999</ele>
        <time>2017-06-22T14:29:26Z</time>
      </trkpt>
      <trkpt lat="66.357412990182638" lon="13.005504040047526">
        <ele>47.240000000000002</ele>
        <time>2017-06-22T14:29:27Z</time>
      </trkpt>
      <trkpt lat="66.357542993500829" lon="13.005522983148694">
        <ele>47.240000000000002</ele>
        <time>2017-06-22T14:29:38Z</time>
      </trkpt>
      <trkpt lat="66.357539976015687" lon="13.005518037825823">
        <ele>47.240000000000002</ele>
        <time>2017-06-22T14:31:46Z</time>
      </trkpt>
      <trkpt lat="66.357532013207674" lon="13.005518959835172">
        <ele>47.240000000000002</ele>
        <time>2017-06-22T14:32:49Z</time>
      </trkpt>
      <trkpt lat="66.35754500515759" lon="13.005571011453867">
        <ele>47.240000000000002</ele>
        <time>2017-06-22T14:32:50Z</time>
      </trkpt>
      <trkpt lat="66.357752038165927" lon="13.006311971694231">
        <ele>48.200000000000003</ele>
        <time>2017-06-22T14:32:57Z</time>
      </trkpt>
      <trkpt lat="66.357767963781953" lon="13.006409034132957">
        <ele>48.200000000000003</ele>
        <time>2017-06-22T14:32:58Z</time>
      </trkpt>
      <trkpt lat="66.357777016237378" lon="13.006512969732285">
        <ele>48.68</ele>
        <time>2017-06-22T14:32:59Z</time>
      </trkpt>
      <trkpt lat="66.357777016237378" lon="13.006610032171011">
        <ele>48.68</ele>
        <time>2017-06-22T14:33:00Z</time>
      </trkpt>
      <trkpt lat="66.357767963781953" lon="13.006702987477183">
        <ele>48.68</ele>
        <time>2017-06-22T14:33:01Z</time>
      </trkpt>
      <trkpt lat="66.357753966003656" lon="13.006788985803723">
        <ele>48.200000000000003</ele>
        <time>2017-06-22T14:33:02Z</time>
      </trkpt>
      <trkpt lat="66.357714990153909" lon="13.006915971636772">
        <ele>48.200000000000003</ele>
        <time>2017-06-22T14:33:04Z</time>
      </trkpt>
      <trkpt lat="66.357669979333878" lon="13.007170027121902">
        <ele>48.200000000000003</ele>
        <time>2017-06-22T14:33:09Z</time>
      </trkpt>
      <trkpt lat="66.357683977112174" lon="13.007306987419724">
        <ele>48.200000000000003</ele>
        <time>2017-06-22T14:33:10Z</time>
      </trkpt>
      <trkpt lat="66.35771700181067" lon="13.007475966587663">
        <ele>48.200000000000003</ele>
        <time>2017-06-22T14:33:11Z</time>
      </trkpt>
      <trkpt lat="66.358144981786609" lon="13.009258965030313">
        <ele>46.280000000000001</ele>
        <time>2017-06-22T14:33:18Z</time>
      </trkpt>
      <trkpt lat="66.358444970101118" lon="13.011683011427522">
        <ele>42.920000000000002</ele>
        <time>2017-06-22T14:33:25Z</time>
      </trkpt>
      <trkpt lat="66.358700031414628" lon="13.014821028336883">
        <ele>36.189999999999998</ele>
        <time>2017-06-22T14:33:32Z</time>
      </trkpt>
      <trkpt lat="66.35883598588407" lon="13.016696982085705">
        <ele>33.780000000000001</ele>
        <time>2017-06-22T14:33:37Z</time>
      </trkpt>
      <trkpt lat="66.358886025846004" lon="13.017060002312064">
        <ele>32.82</ele>
        <time>2017-06-22T14:33:38Z</time>
      </trkpt>
      <trkpt lat="66.358960960060358" lon="13.017420005053282">
        <ele>32.340000000000003</ele>
        <time>2017-06-22T14:33:39Z</time>
      </trkpt>
      <trkpt lat="66.359053999185562" lon="13.01778101362288">
        <ele>31.379999999999999</ele>
        <time>2017-06-22T14:33:40Z</time>
      </trkpt>
      <trkpt lat="66.35915701277554" lon="13.018134981393814">
        <ele>30.899999999999999</ele>
        <time>2017-06-22T14:33:41Z</time>
      </trkpt>
      <trkpt lat="66.360257975757122" lon="13.022212022915483">
        <ele>17.920000000000002</ele>
        <time>2017-06-22T14:33:52Z</time>
      </trkpt>
      <trkpt lat="66.360379010438919" lon="13.022505976259708">
        <ele>16.960000000000001</ele>
        <time>2017-06-22T14:33:53Z</time>
      </trkpt>
      <trkpt lat="66.360519994050264" lon="13.022759025916457">
        <ele>16.48</ele>
        <time>2017-06-22T14:33:54Z</time>
      </trkpt>
      <trkpt lat="66.360678998753428" lon="13.022995982319117">
        <ele>15.52</ele>
        <time>2017-06-22T14:33:55Z</time>
      </trkpt>
      <trkpt lat="66.360846972092986" lon="13.023184994235635">
        <ele>14.56</ele>
        <time>2017-06-22T14:33:56Z</time>
      </trkpt>
      <trkpt lat="66.361010000109673" lon="13.023362020030618">
        <ele>14.08</ele>
        <time>2017-06-22T14:33:57Z</time>
      </trkpt>
      <trkpt lat="66.361746015027165" lon="13.024139022454619">
        <ele>11.19</ele>
        <time>2017-06-22T14:34:03Z</time>
      </trkpt>
      <trkpt lat="66.361871995031834" lon="13.024245975539088">
        <ele>11.19</ele>
        <time>2017-06-22T14:34:05Z</time>
      </trkpt>
      <trkpt lat="66.361917005851865" lon="13.024267014116049">
        <ele>11.19</ele>
        <time>2017-06-22T14:34:06Z</time>
      </trkpt>
      <trkpt lat="66.361988000571728" lon="13.024298027157784">
        <ele>13.6</ele>
        <time>2017-06-22T14:34:14Z</time>
      </trkpt>
      <trkpt lat="66.361997975036502" lon="13.024306995794177">
        <ele>13.6</ele>
        <time>2017-06-22T14:34:37Z</time>
      </trkpt>
      <trkpt lat="66.362019013613462" lon="13.024353012442589">
        <ele>13.6</ele>
        <time>2017-06-22T14:34:38Z</time>
      </trkpt>
      <trkpt lat="66.362380022183061" lon="13.024968998506665">
        <ele>11.67</ele>
        <time>2017-06-22T14:34:43Z</time>
      </trkpt>
      <trkpt lat="66.363366991281509" lon="13.026659963652492">
        <ele>7.83</ele>
        <time>2017-06-22T14:34:51Z</time>
      </trkpt>
      <trkpt lat="66.364423027262092" lon="13.029222982004285">
        <ele>4.94</ele>
        <time>2017-06-22T14:34:59Z</time>
      </trkpt>
      <trkpt lat="66.365777039900422" lon="13.033802015706897">
        <ele>1.58</ele>
        <time>2017-06-22T14:35:09Z</time>
      </trkpt>
      <trkpt lat="66.367831025272608" lon="13.04045096039772">
        <ele>5.91</ele>
        <time>2017-06-22T14:35:23Z</time>
      </trkpt>
      <trkpt lat="66.369513021782041" lon="13.047653026878834">
        <ele>6.39</ele>
        <time>2017-06-22T14:35:37Z</time>
      </trkpt>
      <trkpt lat="66.37159701436758" lon="13.056578999385238">
        <ele>5.42</ele>
        <time>2017-06-22T14:35:55Z</time>
      </trkpt>
      <trkpt lat="66.373816961422563" lon="13.065996989607811">
        <ele>5.42</ele>
        <time>2017-06-22T14:36:14Z</time>
      </trkpt>
      <trkpt lat="66.374879032373428" lon="13.071561986580491">
        <ele>5.42</ele>
        <time>2017-06-22T14:36:25Z</time>
      </trkpt>
      <trkpt lat="66.37634402140975" lon="13.079280965030193">
        <ele>9.27</ele>
        <time>2017-06-22T14:36:40Z</time>
      </trkpt>
      <trkpt lat="66.377756958827376" lon="13.085335968062282">
        <ele>3.98</ele>
        <time>2017-06-22T14:36:53Z</time>
      </trkpt>
      <trkpt lat="66.378973005339503" lon="13.090180037543178">
        <ele>3.02</ele>
        <time>2017-06-22T14:37:06Z</time>
      </trkpt>
      <trkpt lat="66.380121996626258" lon="13.093672022223473">
        <ele>4.46</ele>
        <time>2017-06-22T14:37:17Z</time>
      </trkpt>
      <trkpt lat="66.381668038666248" lon="13.096421035006642">
        <ele>5.91</ele>
        <time>2017-06-22T14:37:28Z</time>
      </trkpt>
      <trkpt lat="66.383361015468836" lon="13.099335003644228">
        <ele>4.94</ele>
        <time>2017-06-22T14:37:41Z</time>
      </trkpt>
      <trkpt lat="66.384277995675802" lon="13.100896971300244">
        <ele>5.42</ele>
        <time>2017-06-22T14:37:50Z</time>
      </trkpt>
      <trkpt lat="66.385291032493114" lon="13.102893037721515">
        <ele>6.87</ele>
        <time>2017-06-22T14:38:00Z</time>
      </trkpt>
      <trkpt lat="66.385782966390252" lon="13.104993039742112">
        <ele>6.87</ele>
        <time>2017-06-22T14:38:07Z</time>
      </trkpt>
      <trkpt lat="66.38644102960825" lon="13.109365962445736">
        <ele>2.06</ele>
        <time>2017-06-22T14:38:20Z</time>
      </trkpt>
      <trkpt lat="66.386747974902391" lon="13.111635027453303">
        <ele>0.14</ele>
        <time>2017-06-22T14:38:26Z</time>
      </trkpt>
      <trkpt lat="66.387365972623229" lon="13.115128017961979">
        <ele>-0.82</ele>
        <time>2017-06-22T14:38:36Z</time>
      </trkpt>
      <trkpt lat="66.388580007478595" lon="13.119776034727693">
        <ele>0.14</ele>
        <time>2017-06-22T14:38:50Z</time>
      </trkpt>
      <trkpt lat="66.38964400626719" lon="13.121776962652802">
        <ele>0.14</ele>
        <time>2017-06-22T14:38:58Z</time>
      </trkpt>
      <trkpt lat="66.391839981079102" lon="13.12503601424396">
        <ele>0.14</ele>
        <time>2017-06-22T14:39:13Z</time>
      </trkpt>
      <trkpt lat="66.393646029755473" lon="13.127173986285925">
        <ele>-0.34</ele>
        <time>2017-06-22T14:39:25Z</time>
      </trkpt>
      <trkpt lat="66.395698003470898" lon="13.130092984065413">
        <ele>-0.82</ele>
        <time>2017-06-22T14:39:39Z</time>
      </trkpt>
      <trkpt lat="66.395918028429151" lon="13.130400013178587">
        <ele>-1.3</ele>
        <time>2017-06-22T14:39:43Z</time>
      </trkpt>
      <trkpt lat="66.395912999287248" lon="13.130398001521826">
        <ele>-1.3</ele>
        <time>2017-06-22T14:39:59Z</time>
      </trkpt>
      <trkpt lat="66.396146016195416" lon="13.130645016208291">
        <ele>-1.3</ele>
        <time>2017-06-22T14:40:32Z</time>
      </trkpt>
      <trkpt lat="66.396881025284529" lon="13.131640031933784">
        <ele>-0.82</ele>
        <time>2017-06-22T14:40:39Z</time>
      </trkpt>
      <trkpt lat="66.397770009934902" lon="13.133793007582426">
        <ele>-0.34</ele>
        <time>2017-06-22T14:40:47Z</time>
      </trkpt>
      <trkpt lat="66.397850979119539" lon="13.134140018373728">
        <ele>-0.34</ele>
        <time>2017-06-22T14:40:48Z</time>
      </trkpt>
      <trkpt lat="66.398520022630692" lon="13.138194009661674">
        <ele>-0.82</ele>
        <time>2017-06-22T14:40:58Z</time>
      </trkpt>
      <trkpt lat="66.399443037807941" lon="13.142407005652785">
        <ele>0.62</ele>
        <time>2017-06-22T14:41:08Z</time>
      </trkpt>
      <trkpt lat="66.400340991094708" lon="13.147259959951043">
        <ele>-0.82</ele>
        <time>2017-06-22T14:41:19Z</time>
      </trkpt>
      <trkpt lat="66.400393964722753" lon="13.14813201315701">
        <ele>-0.82</ele>
        <time>2017-06-22T14:41:21Z</time>
      </trkpt>
      <trkpt lat="66.400395976379514" lon="13.148578014224768">
        <ele>-1.3</ele>
        <time>2017-06-22T14:41:22Z</time>
      </trkpt>
      <trkpt lat="66.400454984977841" lon="13.151723993942142">
        <ele>-0.82</ele>
        <time>2017-06-22T14:41:29Z</time>
      </trkpt>
      <trkpt lat="66.400507958605886" lon="13.152146022766829">
        <ele>-0.34</ele>
        <time>2017-06-22T14:41:30Z</time>
      </trkpt>
      <trkpt lat="66.400571996346116" lon="13.15255899913609">
        <ele>-0.34</ele>
        <time>2017-06-22T14:41:31Z</time>
      </trkpt>
      <trkpt lat="66.401470033451915" lon="13.15651198849082">
        <ele>-1.3</ele>
        <time>2017-06-22T14:41:41Z</time>
      </trkpt>
      <trkpt lat="66.401717970147729" lon="13.157056979835033">
        <ele>-1.3</ele>
        <time>2017-06-22T14:41:43Z</time>
      </trkpt>
      <trkpt lat="66.401854008436203" lon="13.157280022278428">
        <ele>-1.3</ele>
        <time>2017-06-22T14:41:44Z</time>
      </trkpt>
      <trkpt lat="66.401999015361071" lon="13.157461993396282">
        <ele>-1.3</ele>
        <time>2017-06-22T14:41:45Z</time>
      </trkpt>
      <trkpt lat="66.402152990922332" lon="13.157603982836008">
        <ele>-1.3</ele>
        <time>2017-06-22T14:41:46Z</time>
      </trkpt>
      <trkpt lat="66.402319958433509" lon="13.15771403722465">
        <ele>-0.82</ele>
        <time>2017-06-22T14:41:47Z</time>
      </trkpt>
      <trkpt lat="66.402486003935337" lon="13.157815039157867">
        <ele>-0.82</ele>
        <time>2017-06-22T14:41:48Z</time>
      </trkpt>
      <trkpt lat="66.405284972861409" lon="13.159386981278658">
        <ele>0.62</ele>
        <time>2017-06-22T14:42:05Z</time>
      </trkpt>
      <trkpt lat="66.406978033483028" lon="13.160534966737032">
        <ele>0.62</ele>
        <time>2017-06-22T14:42:15Z</time>
      </trkpt>
      <trkpt lat="66.407158998772502" lon="13.160570003092289">
        <ele>1.1</ele>
        <time>2017-06-22T14:42:16Z</time>
      </trkpt>
      <trkpt lat="66.407338958233595" lon="13.160558016970754">
        <ele>1.58</ele>
        <time>2017-06-22T14:42:17Z</time>
      </trkpt>
      <trkpt lat="66.407512966543436" lon="13.160501020029187">
        <ele>1.58</ele>
        <time>2017-06-22T14:42:18Z</time>
      </trkpt>
      <trkpt lat="66.407675994560122" lon="13.160392977297306">
        <ele>1.58</ele>
        <time>2017-06-22T14:42:19Z</time>
      </trkpt>
      <trkpt lat="66.407822007313371" lon="13.160243025049567">
        <ele>1.58</ele>
        <time>2017-06-22T14:42:20Z</time>
      </trkpt>
      <trkpt lat="66.407954022288322" lon="13.160058036446571">
        <ele>1.58</ele>
        <time>2017-06-22T14:42:21Z</time>
      </trkpt>
      <trkpt lat="66.408075978979468" lon="13.159857960417867">
        <ele>2.06</ele>
        <time>2017-06-22T14:42:22Z</time>
      </trkpt>
      <trkpt lat="66.408631028607488" lon="13.158986996859312">
        <ele>3.5</ele>
        <time>2017-06-22T14:42:27Z</time>
      </trkpt>
      <trkpt lat="66.408743010833859" lon="13.158868979662657">
        <ele>3.5</ele>
        <time>2017-06-22T14:42:28Z</time>
      </trkpt>
      <trkpt lat="66.408862033858895" lon="13.158774012699723">
        <ele>3.5</ele>
        <time>2017-06-22T14:42:29Z</time>
      </trkpt>
      <trkpt lat="66.408992037177086" lon="13.158704023808241">
        <ele>2.54</ele>
        <time>2017-06-22T14:42:30Z</time>
      </trkpt>
      <trkpt lat="66.409135032445192" lon="13.158662030473351">
        <ele>2.06</ele>
        <time>2017-06-22T14:42:31Z</time>
      </trkpt>
      <trkpt lat="66.409298982471228" lon="13.158640991896391">
        <ele>1.1</ele>
        <time>2017-06-22T14:42:32Z</time>
      </trkpt>
      <trkpt lat="66.410723989829421" lon="13.158651972189546">
        <ele>-0.82</ele>
        <time>2017-06-22T14:42:40Z</time>
      </trkpt>
      <trkpt lat="66.411231011152267" lon="13.158653983846307">
        <ele>-0.82</ele>
        <time>2017-06-22T14:42:44Z</time>
      </trkpt>
      <trkpt lat="66.411351040005684" lon="13.15861601382494">
        <ele>-0.82</ele>
        <time>2017-06-22T14:42:45Z</time>
      </trkpt>
      <trkpt lat="66.411479031667113" lon="13.158543007448316">
        <ele>-0.82</ele>
        <time>2017-06-22T14:42:46Z</time>
      </trkpt>
      <trkpt lat="66.411615991964936" lon="13.158432031050324">
        <ele>-0.34</ele>
        <time>2017-06-22T14:42:47Z</time>
      </trkpt>
      <trkpt lat="66.411768039688468" lon="13.158278977498412">
        <ele>-0.34</ele>
        <time>2017-06-22T14:42:48Z</time>
      </trkpt>
      <trkpt lat="66.413044016808271" lon="13.15677098929882">
        <ele>0.14</ele>
        <time>2017-06-22T14:42:55Z</time>
      </trkpt>
      <trkpt lat="66.414345977827907" lon="13.154478035867214">
        <ele>2.06</ele>
        <time>2017-06-22T14:43:03Z</time>
      </trkpt>
      <trkpt lat="66.415323978289962" lon="13.153342958539724">
        <ele>2.06</ele>
        <time>2017-06-22T14:43:09Z</time>
      </trkpt>
      <trkpt lat="66.415483988821507" lon="13.153272969648242">
        <ele>2.06</ele>
        <time>2017-06-22T14:43:10Z</time>
      </trkpt>
      <trkpt lat="66.415651962161064" lon="13.153236005455256">
        <ele>1.58</ele>
        <time>2017-06-22T14:43:11Z</time>
      </trkpt>
      <trkpt lat="66.417298000305891" lon="13.1525360327214">
        <ele>3.02</ele>
        <time>2017-06-22T14:43:20Z</time>
      </trkpt>
      <trkpt lat="66.418955018743873" lon="13.151923986151814">
        <ele>3.98</ele>
        <time>2017-06-22T14:43:29Z</time>
      </trkpt>
      <trkpt lat="66.420170981436968" lon="13.151323003694415">
        <ele>6.39</ele>
        <time>2017-06-22T14:43:36Z</time>
      </trkpt>
      <trkpt lat="66.420353036373854" lon="13.151292996481061">
        <ele>6.39</ele>
        <time>2017-06-22T14:43:37Z</time>
      </trkpt>
      <trkpt lat="66.420542970299721" lon="13.151309005916119">
        <ele>5.42</ele>
        <time>2017-06-22T14:43:38Z</time>
      </trkpt>
      <trkpt lat="66.421075975522399" lon="13.151391986757517">
        <ele>5.42</ele>
        <time>2017-06-22T14:43:41Z</time>
      </trkpt>
      <trkpt lat="66.421235986053944" lon="13.15135502256453">
        <ele>5.42</ele>
        <time>2017-06-22T14:43:42Z</time>
      </trkpt>
      <trkpt lat="66.42137797549367" lon="13.151245974004269">
        <ele>5.42</ele>
        <time>2017-06-22T14:43:43Z</time>
      </trkpt>
      <trkpt lat="66.421505967155099" lon="13.151073977351189">
        <ele>4.94</ele>
        <time>2017-06-22T14:43:44Z</time>
      </trkpt>
      <trkpt lat="66.421635970473289" lon="13.150855964049697">
        <ele>4.46</ele>
        <time>2017-06-22T14:43:45Z</time>
      </trkpt>
      <trkpt lat="66.422124970704317" lon="13.150223968550563">
        <ele>3.98</ele>
        <time>2017-06-22T14:43:48Z</time>
      </trkpt>
      <trkpt lat="66.422685971483588" lon="13.149606976658106">
        <ele>3.5</ele>
        <time>2017-06-22T14:43:51Z</time>
      </trkpt>
      <trkpt lat="66.422864003106952" lon="13.149311011657119">
        <ele>3.98</ele>
        <time>2017-06-22T14:43:52Z</time>
      </trkpt>
      <trkpt lat="66.42399899661541" lon="13.147420976310968">
        <ele>8.789999999999999</ele>
        <time>2017-06-22T14:43:59Z</time>
      </trkpt>
      <trkpt lat="66.424153978005052" lon="13.14727102406323">
        <ele>9.27</ele>
        <time>2017-06-22T14:44:00Z</time>
      </trkpt>
      <trkpt lat="66.424324968829751" lon="13.147167004644871">
        <ele>9.75</ele>
        <time>2017-06-22T14:44:01Z</time>
      </trkpt>
      <trkpt lat="66.424499982967973" lon="13.147068014368415">
        <ele>9.75</ele>
        <time>2017-06-22T14:44:02Z</time>
      </trkpt>
      <trkpt lat="66.424666028469801" lon="13.146957037970424">
        <ele>9.27</ele>
        <time>2017-06-22T14:44:03Z</time>
      </trkpt>
      <trkpt lat="66.424809023737907" lon="13.146711029112339">
        <ele>10.710000000000001</ele>
        <time>2017-06-22T14:44:04Z</time>
      </trkpt>
      <trkpt lat="66.424946989864111" lon="13.146506007760763">
        <ele>11.19</ele>
        <time>2017-06-22T14:44:05Z</time>
      </trkpt>
      <trkpt lat="66.425229040905833" lon="13.146066041663289">
        <ele>12.15</ele>
        <time>2017-06-22T14:44:07Z</time>
      </trkpt>
      <trkpt lat="66.426673997193575" lon="13.144325958564878">
        <ele>15.52</ele>
        <time>2017-06-22T14:44:16Z</time>
      </trkpt>
      <trkpt lat="66.427592989057302" lon="13.143115025013685">
        <ele>16</ele>
        <time>2017-06-22T14:44:22Z</time>
      </trkpt>
      <trkpt lat="66.428973991423845" lon="13.142419997602701">
        <ele>15.039999999999999</ele>
        <time>2017-06-22T14:44:30Z</time>
      </trkpt>
      <trkpt lat="66.429480006918311" lon="13.142178012058139">
        <ele>16.960000000000001</ele>
        <time>2017-06-22T14:44:34Z</time>
      </trkpt>
      <trkpt lat="66.429586037993431" lon="13.142170971259475">
        <ele>17.440000000000001</ele>
        <time>2017-06-22T14:44:35Z</time>
      </trkpt>
      <trkpt lat="66.429687039926648" lon="13.142196033149958">
        <ele>17.920000000000002</ele>
        <time>2017-06-22T14:44:36Z</time>
      </trkpt>
      <trkpt lat="66.429782006889582" lon="13.142240038141608">
        <ele>17.920000000000002</ele>
        <time>2017-06-22T14:44:37Z</time>
      </trkpt>
      <trkpt lat="66.429871022701263" lon="13.14228898845613">
        <ele>17.920000000000002</ele>
        <time>2017-06-22T14:44:38Z</time>
      </trkpt>
      <trkpt lat="66.429958026856184" lon="13.142349002882838">
        <ele>18.399999999999999</ele>
        <time>2017-06-22T14:44:39Z</time>
      </trkpt>
      <trkpt lat="66.430747015401721" lon="13.14332096837461">
        <ele>13.6</ele>
        <time>2017-06-22T14:44:46Z</time>
      </trkpt>
      <trkpt lat="66.43186298198998" lon="13.144526034593582">
        <ele>13.119999999999999</ele>
        <time>2017-06-22T14:44:54Z</time>
      </trkpt>
      <trkpt lat="66.431988039985299" lon="13.144767014309764">
        <ele>12.15</ele>
        <time>2017-06-22T14:44:55Z</time>
      </trkpt>
      <trkpt lat="66.433097971603274" lon="13.147055022418499">
        <ele>3.98</ele>
        <time>2017-06-22T14:45:03Z</time>
      </trkpt>
      <trkpt lat="66.434048982337117" lon="13.148462008684874">
        <ele>2.54</ele>
        <time>2017-06-22T14:45:10Z</time>
      </trkpt>
      <trkpt lat="66.435176013037562" lon="13.149968991056085">
        <ele>6.39</ele>
        <time>2017-06-22T14:45:21Z</time>
      </trkpt>
      <trkpt lat="66.43676295876503" lon="13.152029011398554">
        <ele>14.08</ele>
        <time>2017-06-22T14:45:36Z</time>
      </trkpt>
      <trkpt lat="66.43807397224009" lon="13.153707990422845">
        <ele>24.649999999999999</ele>
        <time>2017-06-22T14:45:48Z</time>
      </trkpt>
      <trkpt lat="66.439630994573236" lon="13.155160993337631">
        <ele>38.109999999999999</ele>
        <time>2017-06-22T14:46:00Z</time>
      </trkpt>
      <trkpt lat="66.43976803869009" lon="13.155154958367348">
        <ele>38.590000000000003</ele>
        <time>2017-06-22T14:46:01Z</time>
      </trkpt>
      <trkpt lat="66.439903993159533" lon="13.155111037194729">
        <ele>39.07</ele>
        <time>2017-06-22T14:46:02Z</time>
      </trkpt>
      <trkpt lat="66.440041959285736" lon="13.155035013332963">
        <ele>39.549999999999997</ele>
        <time>2017-06-22T14:46:03Z</time>
      </trkpt>
      <trkpt lat="66.440181015059352" lon="13.154924958944321">
        <ele>39.549999999999997</ele>
        <time>2017-06-22T14:46:04Z</time>
      </trkpt>
      <trkpt lat="66.440318981185555" lon="13.15479202196002">
        <ele>40.030000000000001</ele>
        <time>2017-06-22T14:46:05Z</time>
      </trkpt>
      <trkpt lat="66.44045501947403" lon="13.154634023085237">
        <ele>40.990000000000002</ele>
        <time>2017-06-22T14:46:06Z</time>
      </trkpt>
      <trkpt lat="66.44058502279222" lon="13.15445096231997">
        <ele>41.469999999999999</ele>
        <time>2017-06-22T14:46:07Z</time>
      </trkpt>
      <trkpt lat="66.440712008625269" lon="13.154246024787426">
        <ele>42.439999999999998</ele>
        <time>2017-06-22T14:46:08Z</time>
      </trkpt>
      <trkpt lat="66.440830025821924" lon="13.154022982344031">
        <ele>43.399999999999999</ele>
        <time>2017-06-22T14:46:09Z</time>
      </trkpt>
      <trkpt lat="66.440946031361818" lon="13.153764987364411">
        <ele>43.880000000000003</ele>
        <time>2017-06-22T14:46:10Z</time>
      </trkpt>
      <trkpt lat="66.441062036901712" lon="13.153486037626863">
        <ele>45.32</ele>
        <time>2017-06-22T14:46:11Z</time>
      </trkpt>
      <trkpt lat="66.442451002076268" lon="13.150111986324191">
        <ele>59.259999999999998</ele>
        <time>2017-06-22T14:46:22Z</time>
      </trkpt>
      <trkpt lat="66.442708997055888" lon="13.149589961394668">
        <ele>61.18</ele>
        <time>2017-06-22T14:46:24Z</time>
      </trkpt>
      <trkpt lat="66.442837994545698" lon="13.149385023862123">
        <ele>61.659999999999997</ele>
        <time>2017-06-22T14:46:25Z</time>
      </trkpt>
      <trkpt lat="66.442980989813805" lon="13.149209003895521">
        <ele>62.140000000000001</ele>
        <time>2017-06-22T14:46:26Z</time>
      </trkpt>
      <trkpt lat="66.443129014223814" lon="13.149063996970654">
        <ele>62.619999999999997</ele>
        <time>2017-06-22T14:46:27Z</time>
      </trkpt>
      <trkpt lat="66.443285001441836" lon="13.14896903000772">
        <ele>63.100000000000001</ele>
        <time>2017-06-22T14:46:28Z</time>
      </trkpt>
      <trkpt lat="66.443438977003098" lon="13.148929970338941">
        <ele>63.579999999999998</ele>
        <time>2017-06-22T14:46:29Z</time>
      </trkpt>
      <trkpt lat="66.443583983927965" lon="13.148932987824082">
        <ele>63.579999999999998</ele>
        <time>2017-06-22T14:46:30Z</time>
      </trkpt>
      <trkpt lat="66.443723039701581" lon="13.148981016129255">
        <ele>63.579999999999998</ele>
        <time>2017-06-22T14:46:31Z</time>
      </trkpt>
      <trkpt lat="66.443852037191391" lon="13.149088975042105">
        <ele>63.100000000000001</ele>
        <time>2017-06-22T14:46:32Z</time>
      </trkpt>
      <trkpt lat="66.44398296251893" lon="13.149264995008707">
        <ele>63.100000000000001</ele>
        <time>2017-06-22T14:46:33Z</time>
      </trkpt>
      <trkpt lat="66.444113971665502" lon="13.149509998038411">
        <ele>63.100000000000001</ele>
        <time>2017-06-22T14:46:34Z</time>
      </trkpt>
      <trkpt lat="66.444234000518918" lon="13.149822978302836">
        <ele>63.579999999999998</ele>
        <time>2017-06-22T14:46:35Z</time>
      </trkpt>
      <trkpt lat="66.444355035200715" lon="13.15017300657928">
        <ele>65.030000000000001</ele>
        <time>2017-06-22T14:46:36Z</time>
      </trkpt>
      <trkpt lat="66.444470034912229" lon="13.150552958250046">
        <ele>65.510000000000005</ele>
        <time>2017-06-22T14:46:37Z</time>
      </trkpt>
      <trkpt lat="66.444957023486495" lon="13.152015013620257">
        <ele>64.549999999999997</ele>
        <time>2017-06-22T14:46:41Z</time>
      </trkpt>
      <trkpt lat="66.445107981562614" lon="13.152307961136103">
        <ele>64.069999999999993</ele>
        <time>2017-06-22T14:46:42Z</time>
      </trkpt>
      <trkpt lat="66.44625898450613" lon="13.154483987018466">
        <ele>63.100000000000001</ele>
        <time>2017-06-22T14:46:50Z</time>
      </trkpt>
      <trkpt lat="66.447157021611929" lon="13.15745503641665">
        <ele>64.069999999999993</ele>
        <time>2017-06-22T14:46:58Z</time>
      </trkpt>
      <trkpt lat="66.447765966877341" lon="13.159486977383494">
        <ele>65.510000000000005</ele>
        <time>2017-06-22T14:47:04Z</time>
      </trkpt>
      <trkpt lat="66.448091017082334" lon="13.160273032262921">
        <ele>65.510000000000005</ele>
        <time>2017-06-22T14:47:07Z</time>
      </trkpt>
      <trkpt lat="66.448173997923732" lon="13.160560028627515">
        <ele>65.510000000000005</ele>
        <time>2017-06-22T14:47:08Z</time>
      </trkpt>
      <trkpt lat="66.44823401235044" lon="13.160867979750037">
        <ele>65.510000000000005</ele>
        <time>2017-06-22T14:47:09Z</time>
      </trkpt>
      <trkpt lat="66.44827701151371" lon="13.161199986934662">
        <ele>65.510000000000005</ele>
        <time>2017-06-22T14:47:10Z</time>
      </trkpt>
      <trkpt lat="66.448297966271639" lon="13.161555966362357">
        <ele>65.989999999999995</ele>
        <time>2017-06-22T14:47:11Z</time>
      </trkpt>
      <trkpt lat="66.448305007070303" lon="13.161925021559">
        <ele>65.989999999999995</ele>
        <time>2017-06-22T14:47:12Z</time>
      </trkpt>
      <trkpt lat="66.448309030383825" lon="13.162290975451469">
        <ele>66.469999999999999</ele>
        <time>2017-06-22T14:47:13Z</time>
      </trkpt>
      <trkpt lat="66.448347000405192" lon="13.163332007825375">
        <ele>66.469999999999999</ele>
        <time>2017-06-22T14:47:16Z</time>
      </trkpt>
      <trkpt lat="66.448745978996158" lon="13.166731959208846">
        <ele>60.219999999999999</ele>
        <time>2017-06-22T14:47:26Z</time>
      </trkpt>
      <trkpt lat="66.448758970946074" lon="13.16708299331367">
        <ele>60.219999999999999</ele>
        <time>2017-06-22T14:47:27Z</time>
      </trkpt>
      <trkpt lat="66.448746984824538" lon="13.167438972741365">
        <ele>60.219999999999999</ele>
        <time>2017-06-22T14:47:28Z</time>
      </trkpt>
      <trkpt lat="66.448708008974791" lon="13.167779026553035">
        <ele>60.219999999999999</ele>
        <time>2017-06-22T14:47:29Z</time>
      </trkpt>
      <trkpt lat="66.44864397123456" lon="13.168100975453854">
        <ele>60.700000000000003</ele>
        <time>2017-06-22T14:47:30Z</time>
      </trkpt>
      <trkpt lat="66.448558978736401" lon="13.168401969596744">
        <ele>61.659999999999997</ele>
        <time>2017-06-22T14:47:31Z</time>
      </trkpt>
      <trkpt lat="66.448460994288325" lon="13.168691983446479">
        <ele>63.100000000000001</ele>
        <time>2017-06-22T14:47:32Z</time>
      </trkpt>
      <trkpt lat="66.448182966560125" lon="13.169636037200689">
        <ele>65.989999999999995</ele>
        <time>2017-06-22T14:47:35Z</time>
      </trkpt>
      <trkpt lat="66.448111971840262" lon="13.169999979436398">
        <ele>66.469999999999999</ele>
        <time>2017-06-22T14:47:36Z</time>
      </trkpt>
      <trkpt lat="66.448056986555457" lon="13.170381020754576">
        <ele>66.950000000000003</ele>
        <time>2017-06-22T14:47:37Z</time>
      </trkpt>
      <trkpt lat="66.448018010705709" lon="13.170747980475426">
        <ele>67.909999999999997</ele>
        <time>2017-06-22T14:47:38Z</time>
      </trkpt>
      <trkpt lat="66.447993032634258" lon="13.171083005145192">
        <ele>68.870000000000005</ele>
        <time>2017-06-22T14:47:39Z</time>
      </trkpt>
      <trkpt lat="66.44797601737082" lon="13.171389028429985">
        <ele>70.310000000000002</ele>
        <time>2017-06-22T14:47:40Z</time>
      </trkpt>
      <trkpt lat="66.447968976572156" lon="13.17378499545157">
        <ele>77.040000000000006</ele>
        <time>2017-06-22T14:47:50Z</time>
      </trkpt>
      <trkpt lat="66.447997977957129" lon="13.174148015677929">
        <ele>78</ele>
        <time>2017-06-22T14:47:52Z</time>
      </trkpt>
      <trkpt lat="66.448023039847612" lon="13.174323029816151">
        <ele>78.480000000000004</ele>
        <time>2017-06-22T14:47:53Z</time>
      </trkpt>
      <trkpt lat="66.448056986555457" lon="13.174489997327328">
        <ele>78.480000000000004</ele>
        <time>2017-06-22T14:47:54Z</time>
      </trkpt>
      <trkpt lat="66.448095962405205" lon="13.174649002030492">
        <ele>78.969999999999999</ele>
        <time>2017-06-22T14:47:55Z</time>
      </trkpt>
      <trkpt lat="66.448139967396855" lon="13.174794008955359">
        <ele>78.969999999999999</ele>
        <time>2017-06-22T14:47:56Z</time>
      </trkpt>
      <trkpt lat="66.448195036500692" lon="13.174942033365369">
        <ele>78.969999999999999</ele>
        <time>2017-06-22T14:47:57Z</time>
      </trkpt>
      <trkpt lat="66.448257984593511" lon="13.175087962299585">
        <ele>78.480000000000004</ele>
        <time>2017-06-22T14:47:58Z</time>
      </trkpt>
      <trkpt lat="66.448325039818883" lon="13.175231963396072">
        <ele>78</ele>
        <time>2017-06-22T14:47:59Z</time>
      </trkpt>
      <trkpt lat="66.449133977293968" lon="13.176766019314528">
        <ele>74.640000000000001</ele>
        <time>2017-06-22T14:48:07Z</time>
      </trkpt>
      <trkpt lat="66.449949033558369" lon="13.179096020758152">
        <ele>78</ele>
        <time>2017-06-22T14:48:14Z</time>
      </trkpt>
      <trkpt lat="66.450794013217092" lon="13.182564033195376">
        <ele>87.620000000000005</ele>
        <time>2017-06-22T14:48:23Z</time>
      </trkpt>
      <trkpt lat="66.450842041522264" lon="13.182951025664806">
        <ele>87.620000000000005</ele>
        <time>2017-06-22T14:48:24Z</time>
      </trkpt>
      <trkpt lat="66.450872970744967" lon="13.183356961235404">
        <ele>88.579999999999998</ele>
        <time>2017-06-22T14:48:25Z</time>
      </trkpt>
      <trkpt lat="66.450885962694883" lon="13.18377697840333">
        <ele>89.540000000000006</ele>
        <time>2017-06-22T14:48:26Z</time>
      </trkpt>
      <trkpt lat="66.450888980180025" lon="13.18420697003603">
        <ele>90.980000000000004</ele>
        <time>2017-06-22T14:48:27Z</time>
      </trkpt>
      <trkpt lat="66.451016971841455" lon="13.186806030571461">
        <ele>98.189999999999998</ele>
        <time>2017-06-22T14:48:34Z</time>
      </trkpt>
      <trkpt lat="66.45145702175796" lon="13.190080001950264">
        <ele>106.84</ele>
        <time>2017-06-22T14:48:43Z</time>
      </trkpt>
      <trkpt lat="66.452051969245076" lon="13.194372961297631">
        <ele>103.95999999999999</ele>
        <time>2017-06-22T14:48:55Z</time>
      </trkpt>
      <trkpt lat="66.452368972823024" lon="13.196248998865485">
        <ele>95.790000000000006</ele>
        <time>2017-06-22T14:49:01Z</time>
      </trkpt>
      <trkpt lat="66.452458994463086" lon="13.196825003251433">
        <ele>93.390000000000001</ele>
        <time>2017-06-22T14:49:08Z</time>
      </trkpt>
      <trkpt lat="66.452654963359237" lon="13.198082037270069">
        <ele>88.099999999999994</ele>
        <time>2017-06-22T14:49:20Z</time>
      </trkpt>
      <trkpt lat="66.452678013592958" lon="13.198226960375905">
        <ele>88.099999999999994</ele>
        <time>2017-06-22T14:49:29Z</time>
      </trkpt>
      <trkpt lat="66.452777003869414" lon="13.198740016669035">
        <ele>85.689999999999998</ele>
        <time>2017-06-22T14:50:02Z</time>
      </trkpt>
      <trkpt lat="66.453156033530831" lon="13.200712027028203">
        <ele>78.480000000000004</ele>
        <time>2017-06-22T14:50:09Z</time>
      </trkpt>
      <trkpt lat="66.453536991029978" lon="13.202853016555309">
        <ele>77.519999999999996</ele>
        <time>2017-06-22T14:50:15Z</time>
      </trkpt>
      <trkpt lat="66.453631035983562" lon="13.203165996819735">
        <ele>78</ele>
        <time>2017-06-22T14:50:16Z</time>
      </trkpt>
      <trkpt lat="66.453741006553173" lon="13.203458022326231">
        <ele>78.480000000000004</ele>
        <time>2017-06-22T14:50:17Z</time>
      </trkpt>
      <trkpt lat="66.453862963244319" lon="13.203719034790993">
        <ele>79.450000000000003</ele>
        <time>2017-06-22T14:50:18Z</time>
      </trkpt>
      <trkpt lat="66.453997995704412" lon="13.203944005072117">
        <ele>79.930000000000007</ele>
        <time>2017-06-22T14:50:19Z</time>
      </trkpt>
      <trkpt lat="66.454148031771183" lon="13.204133016988635">
        <ele>80.409999999999997</ele>
        <time>2017-06-22T14:50:20Z</time>
      </trkpt>
      <trkpt lat="66.454307958483696" lon="13.204300990328193">
        <ele>80.409999999999997</ele>
        <time>2017-06-22T14:50:21Z</time>
      </trkpt>
      <trkpt lat="66.456690011546016" lon="13.206619005650282">
        <ele>84.25</ele>
        <time>2017-06-22T14:50:35Z</time>
      </trkpt>
      <trkpt lat="66.457642028108239" lon="13.207416040822864">
        <ele>80.409999999999997</ele>
        <time>2017-06-22T14:50:41Z</time>
      </trkpt>
      <trkpt lat="66.457781000062823" lon="13.207441018894315">
        <ele>79.930000000000007</ele>
        <time>2017-06-22T14:50:42Z</time>
      </trkpt>
      <trkpt lat="66.458227001130581" lon="13.207490975037217">
        <ele>78.969999999999999</ele>
        <time>2017-06-22T14:50:46Z</time>
      </trkpt>
      <trkpt lat="66.458295984193683" lon="13.207548977807164">
        <ele>78.969999999999999</ele>
        <time>2017-06-22T14:50:47Z</time>
      </trkpt>
      <trkpt lat="66.458351975306869" lon="13.207649979740381">
        <ele>78.480000000000004</ele>
        <time>2017-06-22T14:50:48Z</time>
      </trkpt>
      <trkpt lat="66.458391034975648" lon="13.207792975008488">
        <ele>78</ele>
        <time>2017-06-22T14:50:49Z</time>
      </trkpt>
      <trkpt lat="66.458411989733577" lon="13.207978969439864">
        <ele>77.040000000000006</ele>
        <time>2017-06-22T14:50:50Z</time>
      </trkpt>
      <trkpt lat="66.458415007218719" lon="13.208197988569736">
        <ele>76.079999999999998</ele>
        <time>2017-06-22T14:50:51Z</time>
      </trkpt>
      <trkpt lat="66.458406038582325" lon="13.208451960235834">
        <ele>75.120000000000005</ele>
        <time>2017-06-22T14:50:52Z</time>
      </trkpt>
      <trkpt lat="66.458390029147267" lon="13.208744991570711">
        <ele>73.680000000000007</ele>
        <time>2017-06-22T14:50:53Z</time>
      </trkpt>
      <trkpt lat="66.458235969766974" lon="13.211875967681408">
        <ele>65.030000000000001</ele>
        <time>2017-06-22T14:51:01Z</time>
      </trkpt>
      <trkpt lat="66.458223983645439" lon="13.213056977838278">
        <ele>63.100000000000001</ele>
        <time>2017-06-22T14:51:04Z</time>
      </trkpt>
      <trkpt lat="66.458250973373652" lon="13.213431984186172">
        <ele>62.140000000000001</ele>
        <time>2017-06-22T14:51:05Z</time>
      </trkpt>
      <trkpt lat="66.458294978365302" lon="13.213805984705687">
        <ele>61.18</ele>
        <time>2017-06-22T14:51:06Z</time>
      </trkpt>
      <trkpt lat="66.45835398696363" lon="13.214174034073949">
        <ele>60.219999999999999</ele>
        <time>2017-06-22T14:51:07Z</time>
      </trkpt>
      <trkpt lat="66.458421964198351" lon="13.214548034593463">
        <ele>59.740000000000002</ele>
        <time>2017-06-22T14:51:08Z</time>
      </trkpt>
      <trkpt lat="66.459227968007326" lon="13.217457979917526">
        <ele>49.159999999999997</ele>
        <time>2017-06-22T14:51:16Z</time>
      </trkpt>
      <trkpt lat="66.460537975654006" lon="13.221552036702633">
        <ele>29.940000000000001</ele>
        <time>2017-06-22T14:51:29Z</time>
      </trkpt>
      <trkpt lat="66.461369963362813" lon="13.223558999598026">
        <ele>19.84</ele>
        <time>2017-06-22T14:51:37Z</time>
      </trkpt>
      <trkpt lat="66.462166998535395" lon="13.225751034915447">
        <ele>19.359999999999999</ele>
        <time>2017-06-22T14:51:45Z</time>
      </trkpt>
      <trkpt lat="66.462861020117998" lon="13.227878026664257">
        <ele>23.210000000000001</ele>
        <time>2017-06-22T14:51:53Z</time>
      </trkpt>
      <trkpt lat="66.462969984859228" lon="13.228053040802479">
        <ele>23.210000000000001</ele>
        <time>2017-06-22T14:51:54Z</time>
      </trkpt>
      <trkpt lat="66.463088002055883" lon="13.228215985000134">
        <ele>23.690000000000001</ele>
        <time>2017-06-22T14:51:55Z</time>
      </trkpt>
      <trkpt lat="66.463214987888932" lon="13.228355962783098">
        <ele>24.170000000000002</ele>
        <time>2017-06-22T14:51:56Z</time>
      </trkpt>
      <trkpt lat="66.463349014520645" lon="13.228453025221825">
        <ele>24.649999999999999</ele>
        <time>2017-06-22T14:51:57Z</time>
      </trkpt>
      <trkpt lat="66.463484968990088" lon="13.228532988578081">
        <ele>25.129999999999999</ele>
        <time>2017-06-22T14:51:58Z</time>
      </trkpt>
      <trkpt lat="66.463631987571716" lon="13.228585040196776">
        <ele>25.129999999999999</ele>
        <time>2017-06-22T14:51:59Z</time>
      </trkpt>
      <trkpt lat="66.463780011981726" lon="13.228595014661551">
        <ele>24.649999999999999</ele>
        <time>2017-06-22T14:52:00Z</time>
      </trkpt>
      <trkpt lat="66.463934993371367" lon="13.228596020489931">
        <ele>24.170000000000002</ele>
        <time>2017-06-22T14:52:01Z</time>
      </trkpt>
      <trkpt lat="66.464430028572679" lon="13.228731974959373">
        <ele>22.73</ele>
        <time>2017-06-22T14:52:04Z</time>
      </trkpt>
      <trkpt lat="66.464600013568997" lon="13.228860972449183">
        <ele>23.210000000000001</ele>
        <time>2017-06-22T14:52:05Z</time>
      </trkpt>
      <trkpt lat="66.464763963595033" lon="13.229031963273883">
        <ele>23.690000000000001</ele>
        <time>2017-06-22T14:52:06Z</time>
      </trkpt>
      <trkpt lat="66.464920034632087" lon="13.229230027645826">
        <ele>24.649999999999999</ele>
        <time>2017-06-22T14:52:07Z</time>
      </trkpt>
      <trkpt lat="66.465063029900193" lon="13.229445023462176">
        <ele>25.609999999999999</ele>
        <time>2017-06-22T14:52:08Z</time>
      </trkpt>
      <trkpt lat="66.465199990198016" lon="13.229670999571681">
        <ele>27.050000000000001</ele>
        <time>2017-06-22T14:52:09Z</time>
      </trkpt>
      <trkpt lat="66.466865977272391" lon="13.231851970776916">
        <ele>42.439999999999998</ele>
        <time>2017-06-22T14:52:20Z</time>
      </trkpt>
      <trkpt lat="66.468808986246586" lon="13.232880011200905">
        <ele>32.340000000000003</ele>
        <time>2017-06-22T14:52:31Z</time>
      </trkpt>
      <trkpt lat="66.470194011926651" lon="13.234794018790126">
        <ele>26.57</ele>
        <time>2017-06-22T14:52:39Z</time>
      </trkpt>
      <trkpt lat="66.472054040059447" lon="13.237714022397995">
        <ele>14.08</ele>
        <time>2017-06-22T14:52:50Z</time>
      </trkpt>
      <trkpt lat="66.472226958721876" lon="13.23783497326076">
        <ele>13.119999999999999</ele>
        <time>2017-06-22T14:52:51Z</time>
      </trkpt>
      <trkpt lat="66.47240499034524" lon="13.237905967980623">
        <ele>12.630000000000001</ele>
        <time>2017-06-22T14:52:52Z</time>
      </trkpt>
      <trkpt lat="66.472583021968603" lon="13.237915020436049">
        <ele>11.19</ele>
        <time>2017-06-22T14:52:53Z</time>
      </trkpt>
      <trkpt lat="66.472758036106825" lon="13.237889958545566">
        <ele>10.23</ele>
        <time>2017-06-22T14:52:54Z</time>
      </trkpt>
      <trkpt lat="66.472928021103144" lon="13.237844025716186">
        <ele>7.83</ele>
        <time>2017-06-22T14:52:55Z</time>
      </trkpt>
      <trkpt lat="66.473098006099463" lon="13.237819969654083">
        <ele>6.87</ele>
        <time>2017-06-22T14:52:56Z</time>
      </trkpt>
      <trkpt lat="66.473274026066065" lon="13.237848971039057">
        <ele>5.42</ele>
        <time>2017-06-22T14:52:57Z</time>
      </trkpt>
      <trkpt lat="66.473453985527158" lon="13.237958019599319">
        <ele>4.46</ele>
        <time>2017-06-22T14:52:58Z</time>
      </trkpt>
      <trkpt lat="66.473625982180238" lon="13.238120963796973">
        <ele>3.5</ele>
        <time>2017-06-22T14:52:59Z</time>
      </trkpt>
      <trkpt lat="66.47380200214684" lon="13.238335037603974">
        <ele>3.5</ele>
        <time>2017-06-22T14:53:00Z</time>
      </trkpt>
      <trkpt lat="66.473972992971539" lon="13.238570988178253">
        <ele>3.5</ele>
        <time>2017-06-22T14:53:01Z</time>
      </trkpt>
      <trkpt lat="66.475141011178493" lon="13.23974596336484">
        <ele>4.46</ele>
        <time>2017-06-22T14:53:08Z</time>
      </trkpt>
      <trkpt lat="66.476052962243557" lon="13.240128010511398">
        <ele>2.54</ele>
        <time>2017-06-22T14:53:13Z</time>
      </trkpt>
      <trkpt lat="66.476223031058908" lon="13.240296989679337">
        <ele>3.98</ele>
        <time>2017-06-22T14:53:14Z</time>
      </trkpt>
      <trkpt lat="66.47638002410531" lon="13.240499999374151">
        <ele>5.42</ele>
        <time>2017-06-22T14:53:15Z</time>
      </trkpt>
      <trkpt lat="66.476901965215802" lon="13.241199972108006">
        <ele>9.27</ele>
        <time>2017-06-22T14:53:19Z</time>
      </trkpt>
      <trkpt lat="66.477030962705612" lon="13.241303991526365">
        <ele>9.75</ele>
        <time>2017-06-22T14:53:20Z</time>
      </trkpt>
      <trkpt lat="66.477172030135989" lon="13.241393007338047">
        <ele>9.27</ele>
        <time>2017-06-22T14:53:21Z</time>
      </trkpt>
      <trkpt lat="66.477318964898586" lon="13.241461990401149">
        <ele>9.27</ele>
        <time>2017-06-22T14:53:22Z</time>
      </trkpt>
      <trkpt lat="66.477476041764021" lon="13.241498032584786">
        <ele>8.789999999999999</ele>
        <time>2017-06-22T14:53:23Z</time>
      </trkpt>
      <trkpt lat="66.477636974304914" lon="13.241510018706322">
        <ele>9.27</ele>
        <time>2017-06-22T14:53:24Z</time>
      </trkpt>
      <trkpt lat="66.479832027107477" lon="13.241370962932706">
        <ele>20.809999999999999</ele>
        <time>2017-06-22T14:53:37Z</time>
      </trkpt>
      <trkpt lat="66.479990025982261" lon="13.241472970694304">
        <ele>21.77</ele>
        <time>2017-06-22T14:53:38Z</time>
      </trkpt>
      <trkpt lat="66.480148024857044" lon="13.241623006761074">
        <ele>23.690000000000001</ele>
        <time>2017-06-22T14:53:39Z</time>
      </trkpt>
      <trkpt lat="66.480298982933164" lon="13.241809001192451">
        <ele>25.609999999999999</ele>
        <time>2017-06-22T14:53:40Z</time>
      </trkpt>
      <trkpt lat="66.48044197820127" lon="13.242014022544026">
        <ele>26.57</ele>
        <time>2017-06-22T14:53:41Z</time>
      </trkpt>
      <trkpt lat="66.48162298835814" lon="13.24361396022141">
        <ele>35.710000000000001</ele>
        <time>2017-06-22T14:53:50Z</time>
      </trkpt>
      <trkpt lat="66.482888991013169" lon="13.243877990171313">
        <ele>31.859999999999999</ele>
        <time>2017-06-22T14:53:58Z</time>
      </trkpt>
      <trkpt lat="66.483806977048516" lon="13.24365695938468">
        <ele>29.940000000000001</ele>
        <time>2017-06-22T14:54:04Z</time>
      </trkpt>
      <trkpt lat="66.483953995630145" lon="13.243509018793702">
        <ele>28.98</ele>
        <time>2017-06-22T14:54:05Z</time>
      </trkpt>
      <trkpt lat="66.484100008383393" lon="13.243314977735281">
        <ele>27.530000000000001</ele>
        <time>2017-06-22T14:54:06Z</time>
      </trkpt>
      <trkpt lat="66.484246021136642" lon="13.243094030767679">
        <ele>26.09</ele>
        <time>2017-06-22T14:54:07Z</time>
      </trkpt>
      <trkpt lat="66.484390022233129" lon="13.24283704161644">
        <ele>24.649999999999999</ele>
        <time>2017-06-22T14:54:08Z</time>
      </trkpt>
      <trkpt lat="66.484527988359332" lon="13.242544010281563">
        <ele>23.210000000000001</ele>
        <time>2017-06-22T14:54:09Z</time>
      </trkpt>
      <trkpt lat="66.48465002886951" lon="13.242219965904951">
        <ele>21.77</ele>
        <time>2017-06-22T14:54:10Z</time>
      </trkpt>
      <trkpt lat="66.484771985560656" lon="13.241878990083933">
        <ele>20.32</ele>
        <time>2017-06-22T14:54:11Z</time>
      </trkpt>
      <trkpt lat="66.485534990206361" lon="13.239989960566163">
        <ele>13.119999999999999</ele>
        <time>2017-06-22T14:54:17Z</time>
      </trkpt>
      <trkpt lat="66.485679997131228" lon="13.239768007770181">
        <ele>13.119999999999999</ele>
        <time>2017-06-22T14:54:18Z</time>
      </trkpt>
      <trkpt lat="66.485836990177631" lon="13.239575978368521">
        <ele>13.119999999999999</ele>
        <time>2017-06-22T14:54:19Z</time>
      </trkpt>
      <trkpt lat="66.486819013953209" lon="13.238517008721828">
        <ele>11.67</ele>
        <time>2017-06-22T14:54:26Z</time>
      </trkpt>
      <trkpt lat="66.48692898452282" lon="13.238321961835027">
        <ele>11.67</ele>
        <time>2017-06-22T14:54:27Z</time>
      </trkpt>
      <trkpt lat="66.487030992284417" lon="13.238091962412">
        <ele>11.67</ele>
        <time>2017-06-22T14:54:28Z</time>
      </trkpt>
      <trkpt lat="66.48712201975286" lon="13.237837990745902">
        <ele>11.67</ele>
        <time>2017-06-22T14:54:29Z</time>
      </trkpt>
      <trkpt lat="66.487214975059032" lon="13.23757303878665">
        <ele>11.67</ele>
        <time>2017-06-22T14:54:30Z</time>
      </trkpt>
      <trkpt lat="66.488156011328101" lon="13.234965009614825">
        <ele>14.56</ele>
        <time>2017-06-22T14:54:40Z</time>
      </trkpt>
      <trkpt lat="66.488224994391203" lon="13.234712965786457">
        <ele>15.52</ele>
        <time>2017-06-22T14:54:41Z</time>
      </trkpt>
      <trkpt lat="66.488278973847628" lon="13.234450025483966">
        <ele>16</ele>
        <time>2017-06-22T14:54:42Z</time>
      </trkpt>
      <trkpt lat="66.488318033516407" lon="13.234166968613863">
        <ele>16.48</ele>
        <time>2017-06-22T14:54:43Z</time>
      </trkpt>
      <trkpt lat="66.488344017416239" lon="13.233883995562792">
        <ele>16.960000000000001</ele>
        <time>2017-06-22T14:54:44Z</time>
      </trkpt>
      <trkpt lat="66.488361032679677" lon="13.233613008633256">
        <ele>17.440000000000001</ele>
        <time>2017-06-22T14:54:45Z</time>
      </trkpt>
      <trkpt lat="66.488367989659309" lon="13.233336992561817">
        <ele>17.920000000000002</ele>
        <time>2017-06-22T14:54:46Z</time>
      </trkpt>
      <trkpt lat="66.488361032679677" lon="13.233058964833617">
        <ele>16.960000000000001</ele>
        <time>2017-06-22T14:54:47Z</time>
      </trkpt>
      <trkpt lat="66.48834896273911" lon="13.232784038409591">
        <ele>16.48</ele>
        <time>2017-06-22T14:54:48Z</time>
      </trkpt>
      <trkpt lat="66.488323984667659" lon="13.232511039823294">
        <ele>16</ele>
        <time>2017-06-22T14:54:49Z</time>
      </trkpt>
      <trkpt lat="66.488279979676008" lon="13.232233012095094">
        <ele>14.08</ele>
        <time>2017-06-22T14:54:50Z</time>
      </trkpt>
      <trkpt lat="66.488224994391203" lon="13.231970993801951">
        <ele>13.119999999999999</ele>
        <time>2017-06-22T14:54:51Z</time>
      </trkpt>
      <trkpt lat="66.488160034641623" lon="13.231716016307473">
        <ele>12.15</ele>
        <time>2017-06-22T14:54:52Z</time>
      </trkpt>
      <trkpt lat="66.488084010779858" lon="13.231485011056066">
        <ele>11.19</ele>
        <time>2017-06-22T14:54:53Z</time>
      </trkpt>
      <trkpt lat="66.487993989139795" lon="13.231285018846393">
        <ele>9.75</ele>
        <time>2017-06-22T14:54:54Z</time>
      </trkpt>
      <trkpt lat="66.487910002470016" lon="13.231118973344564">
        <ele>8.789999999999999</ele>
        <time>2017-06-22T14:54:55Z</time>
      </trkpt>
      <trkpt lat="66.48783003911376" lon="13.230986036360264">
        <ele>7.83</ele>
        <time>2017-06-22T14:54:56Z</time>
      </trkpt>
      <trkpt lat="66.487747980281711" lon="13.23087397031486">
        <ele>6.87</ele>
        <time>2017-06-22T14:54:57Z</time>
      </trkpt>
      <trkpt lat="66.487648990005255" lon="13.230775985866785">
        <ele>5.91</ele>
        <time>2017-06-22T14:54:58Z</time>
      </trkpt>
      <trkpt lat="66.487542036920786" lon="13.230675989761949">
        <ele>5.42</ele>
        <time>2017-06-22T14:54:59Z</time>
      </trkpt>
      <trkpt lat="66.487212963402271" lon="13.230345994234085">
        <ele>1.1</ele>
        <time>2017-06-22T14:55:02Z</time>
      </trkpt>
      <trkpt lat="66.487111961469054" lon="13.230176009237766">
        <ele>0.14</ele>
        <time>2017-06-22T14:55:03Z</time>
      </trkpt>
      <trkpt lat="66.487012971192598" lon="13.229965958744287">
        <ele>-0.34</ele>
        <time>2017-06-22T14:55:04Z</time>
      </trkpt>
      <trkpt lat="66.486926972866058" lon="13.229735037311912">
        <ele>-0.34</ele>
        <time>2017-06-22T14:55:05Z</time>
      </trkpt>
      <trkpt lat="66.486854972317815" lon="13.229485005140305">
        <ele>-0.82</ele>
        <time>2017-06-22T14:55:06Z</time>
      </trkpt>
      <trkpt lat="66.486809039488435" lon="13.229235978797078">
        <ele>-0.34</ele>
        <time>2017-06-22T14:55:07Z</time>
      </trkpt>
      <trkpt lat="66.486776014789939" lon="13.228986030444503">
        <ele>-0.34</ele>
        <time>2017-06-22T14:55:08Z</time>
      </trkpt>
      <trkpt lat="66.48675799369812" lon="13.228733986616135">
        <ele>0.14</ele>
        <time>2017-06-22T14:55:09Z</time>
      </trkpt>
      <trkpt lat="66.486751036718488" lon="13.228484038263559">
        <ele>0.14</ele>
        <time>2017-06-22T14:55:10Z</time>
      </trkpt>
      <trkpt lat="66.486752964556217" lon="13.228236017748713">
        <ele>0.14</ele>
        <time>2017-06-22T14:55:11Z</time>
      </trkpt>
      <trkpt lat="66.486763022840023" lon="13.227995038032532">
        <ele>0.14</ele>
        <time>2017-06-22T14:55:12Z</time>
      </trkpt>
      <trkpt lat="66.486783977597952" lon="13.227778030559421">
        <ele>0.14</ele>
        <time>2017-06-22T14:55:13Z</time>
      </trkpt>
      <trkpt lat="66.486810967326164" lon="13.227568985894322">
        <ele>0.14</ele>
        <time>2017-06-22T14:55:14Z</time>
      </trkpt>
      <trkpt lat="66.486844997853041" lon="13.227364970371127">
        <ele>0.14</ele>
        <time>2017-06-22T14:55:15Z</time>
      </trkpt>
      <trkpt lat="66.48688699118793" lon="13.227163972333074">
        <ele>0.62</ele>
        <time>2017-06-22T14:55:16Z</time>
      </trkpt>
      <trkpt lat="66.486935019493103" lon="13.226965991780162">
        <ele>0.62</ele>
        <time>2017-06-22T14:55:17Z</time>
      </trkpt>
      <trkpt lat="66.486987993121147" lon="13.226781003177166">
        <ele>0.14</ele>
        <time>2017-06-22T14:55:18Z</time>
      </trkpt>
      <trkpt lat="66.487044990062714" lon="13.226611018180847">
        <ele>0.14</ele>
        <time>2017-06-22T14:55:19Z</time>
      </trkpt>
      <trkpt lat="66.487107016146183" lon="13.226468022912741">
        <ele>-0.34</ele>
        <time>2017-06-22T14:55:20Z</time>
      </trkpt>
      <trkpt lat="66.487168958410621" lon="13.226357968524098">
        <ele>-0.34</ele>
        <time>2017-06-22T14:55:21Z</time>
      </trkpt>
      <trkpt lat="66.487231990322471" lon="13.226289991289377">
        <ele>-0.82</ele>
        <time>2017-06-22T14:55:22Z</time>
      </trkpt>
      <trkpt lat="66.487301979213953" lon="13.226257972419262">
        <ele>-1.3</ele>
        <time>2017-06-22T14:55:23Z</time>
      </trkpt>
      <trkpt lat="66.487374985590577" lon="13.226258978247643">
        <ele>-1.3</ele>
        <time>2017-06-22T14:55:24Z</time>
      </trkpt>
      <trkpt lat="66.487452015280724" lon="13.226279010996222">
        <ele>-2.27</ele>
        <time>2017-06-22T14:55:25Z</time>
      </trkpt>
      <trkpt lat="66.487534996122122" lon="13.226324021816254">
        <ele>-2.27</ele>
        <time>2017-06-22T14:55:26Z</time>
      </trkpt>
      <trkpt lat="66.488061966374516" lon="13.226539017632604">
        <ele>-2.75</ele>
        <time>2017-06-22T14:55:35Z</time>
      </trkpt>
      <trkpt lat="66.488452982157469" lon="13.226740015670657">
        <ele>-2.75</ele>
        <time>2017-06-22T14:55:44Z</time>
      </trkpt>
      <trkpt lat="66.488492963835597" lon="13.226785026490688">
        <ele>-2.75</ele>
        <time>2017-06-22T14:55:45Z</time>
      </trkpt>
      <trkpt lat="66.488602012395859" lon="13.226911006495357">
        <ele>-3.23</ele>
        <time>2017-06-22T14:55:54Z</time>
      </trkpt>
    </trkseg>
  </trk>

  <trk>
    <name>Track vom: 22 JUN 2017 19:27</name>
    <extensions>
      <gpxx:TrackExtension>
        <gpxx:DisplayColor>DarkGray</gpxx:DisplayColor>
      </gpxx:TrackExtension>
    </extensions>
    <trkseg>
      <trkpt lat="66.564492015168071" lon="13.179353009909391">
        <ele>12.15</ele>
        <time>2017-06-22T17:27:48Z</time>
      </trkpt>
      <trkpt lat="66.565950969234109" lon="13.177552996203303">
        <ele>13.119999999999999</ele>
        <time>2017-06-22T17:28:16Z</time>
      </trkpt>
      <trkpt lat="66.567600024864078" lon="13.175638988614082">
        <ele>19.84</ele>
        <time>2017-06-22T17:28:47Z</time>
      </trkpt>
      <trkpt lat="66.568609960377216" lon="13.174661993980408">
        <ele>18.399999999999999</ele>
        <time>2017-06-22T17:29:05Z</time>
      </trkpt>
      <trkpt lat="66.569319991394877" lon="13.173850039020181">
        <ele>17.440000000000001</ele>
        <time>2017-06-22T17:29:19Z</time>
      </trkpt>
      <trkpt lat="66.623866986483335" lon="13.287600008770823">
        <ele>115.5</ele>
        <time>2017-06-22T17:56:53Z</time>
      </trkpt>
      <trkpt lat="66.62436998449266" lon="13.285189038142562">
        <ele>-38.799999999999997</ele>
        <time>2017-06-22T17:57:18Z</time>
      </trkpt>
      <trkpt lat="66.624353975057602" lon="13.285247962921858">
        <ele>-17.170000000000002</ele>
        <time>2017-06-22T17:57:21Z</time>
      </trkpt>
      <trkpt lat="66.624376019462943" lon="13.286481024697423">
        <ele>-2.75</ele>
        <time>2017-06-22T17:57:31Z</time>
      </trkpt>
      <trkpt lat="66.624357998371124" lon="13.286643968895078">
        <ele>-0.82</ele>
        <time>2017-06-22T17:57:40Z</time>
      </trkpt>
      <trkpt lat="66.624333020299673" lon="13.287111008539796">
        <ele>-1.79</ele>
        <time>2017-06-22T17:58:40Z</time>
      </trkpt>
      <trkpt lat="66.624292032793164" lon="13.288867017254233">
        <ele>-0.82</ele>
        <time>2017-06-22T17:58:50Z</time>
      </trkpt>
      <trkpt lat="66.624272000044584" lon="13.28903398476541">
        <ele>-0.82</ele>
        <time>2017-06-22T17:58:51Z</time>
      </trkpt>
      <trkpt lat="66.624238975346088" lon="13.289172034710646">
        <ele>-0.82</ele>
        <time>2017-06-22T17:58:52Z</time>
      </trkpt>
      <trkpt lat="66.624186001718044" lon="13.289256021380424">
        <ele>-0.82</ele>
        <time>2017-06-22T17:58:53Z</time>
      </trkpt>
      <trkpt lat="66.624120958149433" lon="13.289305977523327">
        <ele>-0.34</ele>
        <time>2017-06-22T17:58:54Z</time>
      </trkpt>
      <trkpt lat="66.624042000621557" lon="13.28933397307992">
        <ele>-0.82</ele>
        <time>2017-06-22T17:58:55Z</time>
      </trkpt>
      <trkpt lat="66.623956002295017" lon="13.289350988343358">
        <ele>-0.82</ele>
        <time>2017-06-22T17:58:56Z</time>
      </trkpt>
      <trkpt lat="66.622991999611259" lon="13.289862032979727">
        <ele>2.54</ele>
        <time>2017-06-22T17:59:05Z</time>
      </trkpt>
      <trkpt lat="66.621987009420991" lon="13.291712002828717">
        <ele>7.83</ele>
        <time>2017-06-22T17:59:14Z</time>
      </trkpt>
      <trkpt lat="66.620827037841082" lon="13.29395298846066">
        <ele>24.170000000000002</ele>
        <time>2017-06-22T17:59:24Z</time>
      </trkpt>
      <trkpt lat="66.620722012594342" lon="13.294226992875338">
        <ele>26.09</ele>
        <time>2017-06-22T17:59:25Z</time>
      </trkpt>
      <trkpt lat="66.620637020096183" lon="13.29453201033175">
        <ele>28.02</ele>
        <time>2017-06-22T17:59:26Z</time>
      </trkpt>
      <trkpt lat="66.620571976527572" lon="13.294871980324388">
        <ele>29.460000000000001</ele>
        <time>2017-06-22T17:59:27Z</time>
      </trkpt>
      <trkpt lat="66.620529983192682" lon="13.295232988893986">
        <ele>30.899999999999999</ele>
        <time>2017-06-22T17:59:28Z</time>
      </trkpt>
      <trkpt lat="66.620511040091515" lon="13.295610006898642">
        <ele>32.340000000000003</ele>
        <time>2017-06-22T17:59:29Z</time>
      </trkpt>
      <trkpt lat="66.620519002899528" lon="13.295992976054549">
        <ele>33.299999999999997</ele>
        <time>2017-06-22T17:59:30Z</time>
      </trkpt>
      <trkpt lat="66.620540963485837" lon="13.29638198018074">
        <ele>34.259999999999998</ele>
        <time>2017-06-22T17:59:31Z</time>
      </trkpt>
      <trkpt lat="66.620571976527572" lon="13.296769978478551">
        <ele>35.229999999999997</ele>
        <time>2017-06-22T17:59:32Z</time>
      </trkpt>
      <trkpt lat="66.620736010372639" lon="13.300071023404598">
        <ele>33.780000000000001</ele>
        <time>2017-06-22T17:59:40Z</time>
      </trkpt>
      <trkpt lat="66.620707008987665" lon="13.300478970631957">
        <ele>32.82</ele>
        <time>2017-06-22T17:59:41Z</time>
      </trkpt>
      <trkpt lat="66.620660992339253" lon="13.300862023606896">
        <ele>31.859999999999999</ele>
        <time>2017-06-22T17:59:42Z</time>
      </trkpt>
      <trkpt lat="66.620605001226068" lon="13.301225965842605">
        <ele>30.899999999999999</ele>
        <time>2017-06-22T17:59:43Z</time>
      </trkpt>
      <trkpt lat="66.620538029819727" lon="13.301570964977145">
        <ele>29.940000000000001</ele>
        <time>2017-06-22T17:59:44Z</time>
      </trkpt>
      <trkpt lat="66.620458988472819" lon="13.301900960505009">
        <ele>28.98</ele>
        <time>2017-06-22T17:59:45Z</time>
      </trkpt>
      <trkpt lat="66.620367038995028" lon="13.302217964082956">
        <ele>27.530000000000001</ele>
        <time>2017-06-22T17:59:46Z</time>
      </trkpt>
      <trkpt lat="66.620264025405049" lon="13.302520969882607">
        <ele>26.09</ele>
        <time>2017-06-22T17:59:47Z</time>
      </trkpt>
      <trkpt lat="66.619960013777018" lon="13.303445996716619">
        <ele>20.809999999999999</ele>
        <time>2017-06-22T17:59:50Z</time>
      </trkpt>
      <trkpt lat="66.619888013228774" lon="13.303787978366017">
        <ele>19.359999999999999</ele>
        <time>2017-06-22T17:59:51Z</time>
      </trkpt>
      <trkpt lat="66.619847025722265" lon="13.304150998592377">
        <ele>17.920000000000002</ele>
        <time>2017-06-22T17:59:52Z</time>
      </trkpt>
      <trkpt lat="66.61983503960073" lon="13.30454302020371">
        <ele>16.48</ele>
        <time>2017-06-22T17:59:53Z</time>
      </trkpt>
      <trkpt lat="66.619850965216756" lon="13.304949961602688">
        <ele>15.52</ele>
        <time>2017-06-22T17:59:54Z</time>
      </trkpt>
      <trkpt lat="66.619886001572013" lon="13.305352963507175">
        <ele>15.52</ele>
        <time>2017-06-22T17:59:55Z</time>
      </trkpt>
      <trkpt lat="66.619927994906902" lon="13.305742973461747">
        <ele>15.52</ele>
        <time>2017-06-22T17:59:56Z</time>
      </trkpt>
      <trkpt lat="66.620062021538615" lon="13.306879978626966">
        <ele>16.48</ele>
        <time>2017-06-22T17:59:59Z</time>
      </trkpt>
      <trkpt lat="66.620084987953305" lon="13.307268982753158">
        <ele>16.48</ele>
        <time>2017-06-22T18:00:00Z</time>
      </trkpt>
      <trkpt lat="66.620094040408731" lon="13.307651029899716">
        <ele>16.960000000000001</ele>
        <time>2017-06-22T18:00:01Z</time>
      </trkpt>
      <trkpt lat="66.620018016546965" lon="13.313093986362219">
        <ele>21.77</ele>
        <time>2017-06-22T18:00:15Z</time>
      </trkpt>
      <trkpt lat="66.620107032358646" lon="13.314124038442969">
        <ele>22.73</ele>
        <time>2017-06-22T18:00:18Z</time>
      </trkpt>
      <trkpt lat="66.620162017643452" lon="13.314440036192536">
        <ele>23.210000000000001</ele>
        <time>2017-06-22T18:00:19Z</time>
      </trkpt>
      <trkpt lat="66.620227983221412" lon="13.314754022285342">
        <ele>23.210000000000001</ele>
        <time>2017-06-22T18:00:20Z</time>
      </trkpt>
      <trkpt lat="66.620940025895834" lon="13.317538993433118">
        <ele>18.399999999999999</ele>
        <time>2017-06-22T18:00:28Z</time>
      </trkpt>
      <trkpt lat="66.622443990781903" lon="13.323332984000444">
        <ele>6.39</ele>
        <time>2017-06-22T18:00:42Z</time>
      </trkpt>
      <trkpt lat="66.623330963775516" lon="13.32534103654325">
        <ele>4.46</ele>
        <time>2017-06-22T18:00:48Z</time>
      </trkpt>
      <trkpt lat="66.624453971162438" lon="13.327134009450674">
        <ele>12.630000000000001</ele>
        <time>2017-06-22T18:00:55Z</time>
      </trkpt>
      <trkpt lat="66.624620016664267" lon="13.327289996668696">
        <ele>13.6</ele>
        <time>2017-06-22T18:00:56Z</time>
      </trkpt>
      <trkpt lat="66.624792013317347" lon="13.327395021915436">
        <ele>13.6</ele>
        <time>2017-06-22T18:00:57Z</time>
      </trkpt>
      <trkpt lat="66.624977001920342" lon="13.327444978058338">
        <ele>14.56</ele>
        <time>2017-06-22T18:00:58Z</time>
      </trkpt>
      <trkpt lat="66.625167019665241" lon="13.327461993321776">
        <ele>15.039999999999999</ele>
        <time>2017-06-22T18:00:59Z</time>
      </trkpt>
      <trkpt lat="66.626816997304559" lon="13.327441038563848">
        <ele>17.920000000000002</ele>
        <time>2017-06-22T18:01:08Z</time>
      </trkpt>
      <trkpt lat="66.626988993957639" lon="13.327308017760515">
        <ele>18.399999999999999</ele>
        <time>2017-06-22T18:01:09Z</time>
      </trkpt>
      <trkpt lat="66.627156967297196" lon="13.327122023329139">
        <ele>18.879999999999999</ele>
        <time>2017-06-22T18:01:10Z</time>
      </trkpt>
      <trkpt lat="66.627318989485502" lon="13.326899986714125">
        <ele>18.879999999999999</ele>
        <time>2017-06-22T18:01:11Z</time>
      </trkpt>
      <trkpt lat="66.627476988360286" lon="13.326645009219646">
        <ele>19.359999999999999</ele>
        <time>2017-06-22T18:01:12Z</time>
      </trkpt>
      <trkpt lat="66.628980031237006" lon="13.324670987203717">
        <ele>17.440000000000001</ele>
        <time>2017-06-22T18:01:21Z</time>
      </trkpt>
      <trkpt lat="66.630736039951444" lon="13.323872024193406">
        <ele>26.09</ele>
        <time>2017-06-22T18:01:31Z</time>
      </trkpt>
      <trkpt lat="66.630894960835576" lon="13.323885016143322">
        <ele>27.050000000000001</ele>
        <time>2017-06-22T18:01:32Z</time>
      </trkpt>
      <trkpt lat="66.631043991073966" lon="13.323932038620114">
        <ele>28.5</ele>
        <time>2017-06-22T18:01:33Z</time>
      </trkpt>
      <trkpt lat="66.631194027140737" lon="13.324021976441145">
        <ele>28.98</ele>
        <time>2017-06-22T18:01:34Z</time>
      </trkpt>
      <trkpt lat="66.631343979388475" lon="13.324149968102574">
        <ele>29.940000000000001</ele>
        <time>2017-06-22T18:01:35Z</time>
      </trkpt>
      <trkpt lat="66.631494015455246" lon="13.324306039139628">
        <ele>30.420000000000002</ele>
        <time>2017-06-22T18:01:36Z</time>
      </trkpt>
      <trkpt lat="66.631644973531365" lon="13.32448298111558">
        <ele>30.899999999999999</ele>
        <time>2017-06-22T18:01:37Z</time>
      </trkpt>
      <trkpt lat="66.632901001721621" lon="13.326246030628681">
        <ele>30.899999999999999</ele>
        <time>2017-06-22T18:01:45Z</time>
      </trkpt>
      <trkpt lat="66.633024970069528" lon="13.326573008671403">
        <ele>30.420000000000002</ele>
        <time>2017-06-22T18:01:46Z</time>
      </trkpt>
      <trkpt lat="66.633133012801409" lon="13.326928988099098">
        <ele>30.420000000000002</ele>
        <time>2017-06-22T18:01:47Z</time>
      </trkpt>
      <trkpt lat="66.633229991421103" lon="13.327312041074038">
        <ele>29.940000000000001</ele>
        <time>2017-06-22T18:01:48Z</time>
      </trkpt>
      <trkpt lat="66.633310038596392" lon="13.327719988301396">
        <ele>29.460000000000001</ele>
        <time>2017-06-22T18:01:49Z</time>
      </trkpt>
      <trkpt lat="66.633359994739294" lon="13.328155009075999">
        <ele>27.530000000000001</ele>
        <time>2017-06-22T18:01:50Z</time>
      </trkpt>
      <trkpt lat="66.633392013609409" lon="13.328607967123389">
        <ele>26.09</ele>
        <time>2017-06-22T18:01:51Z</time>
      </trkpt>
      <trkpt lat="66.633401988074183" lon="13.329067965969443">
        <ele>24.170000000000002</ele>
        <time>2017-06-22T18:01:52Z</time>
      </trkpt>
      <trkpt lat="66.633396958932281" lon="13.3295329939574">
        <ele>22.73</ele>
        <time>2017-06-22T18:01:53Z</time>
      </trkpt>
      <trkpt lat="66.633369969204068" lon="13.330017970874906">
        <ele>20.809999999999999</ele>
        <time>2017-06-22T18:01:54Z</time>
      </trkpt>
      <trkpt lat="66.633337028324604" lon="13.330506971105933">
        <ele>18.879999999999999</ele>
        <time>2017-06-22T18:01:55Z</time>
      </trkpt>
      <trkpt lat="66.632778961211443" lon="13.338832966983318">
        <ele>3.98</ele>
        <time>2017-06-22T18:02:12Z</time>
      </trkpt>
      <trkpt lat="66.632679970934987" lon="13.341035982593894">
        <ele>-1.3</ele>
        <time>2017-06-22T18:02:17Z</time>
      </trkpt>
      <trkpt lat="66.632706038653851" lon="13.341486006975174">
        <ele>-1.79</ele>
        <time>2017-06-22T18:02:18Z</time>
      </trkpt>
      <trkpt lat="66.632753983139992" lon="13.341912981122732">
        <ele>-1.79</ele>
        <time>2017-06-22T18:02:19Z</time>
      </trkpt>
      <trkpt lat="66.632825983688235" lon="13.342317994683981">
        <ele>-1.79</ele>
        <time>2017-06-22T18:02:20Z</time>
      </trkpt>
      <trkpt lat="66.632909970358014" lon="13.342705992981791">
        <ele>-1.3</ele>
        <time>2017-06-22T18:02:21Z</time>
      </trkpt>
      <trkpt lat="66.633004015311599" lon="13.343075970187783">
        <ele>-1.3</ele>
        <time>2017-06-22T18:02:22Z</time>
      </trkpt>
      <trkpt lat="66.633279025554657" lon="13.344113985076547">
        <ele>-1.3</ele>
        <time>2017-06-22T18:02:25Z</time>
      </trkpt>
      <trkpt lat="66.633349014446139" lon="13.344487985596061">
        <ele>-1.79</ele>
        <time>2017-06-22T18:02:26Z</time>
      </trkpt>
      <trkpt lat="66.633397964760661" lon="13.34489299915731">
        <ele>-1.79</ele>
        <time>2017-06-22T18:02:27Z</time>
      </trkpt>
      <trkpt lat="66.633425038307905" lon="13.345303041860461">
        <ele>-1.79</ele>
        <time>2017-06-22T18:02:28Z</time>
      </trkpt>
      <trkpt lat="66.633429983630776" lon="13.345707971602678">
        <ele>-1.79</ele>
        <time>2017-06-22T18:02:29Z</time>
      </trkpt>
      <trkpt lat="66.633416991680861" lon="13.346112985163927">
        <ele>-2.27</ele>
        <time>2017-06-22T18:02:30Z</time>
      </trkpt>
      <trkpt lat="66.633391007781029" lon="13.34650500677526">
        <ele>-1.79</ele>
        <time>2017-06-22T18:02:31Z</time>
      </trkpt>
      <trkpt lat="66.63335002027452" lon="13.346907002851367">
        <ele>-1.79</ele>
        <time>2017-06-22T18:02:32Z</time>
      </trkpt>
      <trkpt lat="66.633298974484205" lon="13.347308998927474">
        <ele>-1.79</ele>
        <time>2017-06-22T18:02:33Z</time>
      </trkpt>
      <trkpt lat="66.632652981206775" lon="13.351052021607757">
        <ele>-1.79</ele>
        <time>2017-06-22T18:02:42Z</time>
      </trkpt>
      <trkpt lat="66.632416024804115" lon="13.354716002941132">
        <ele>0.62</ele>
        <time>2017-06-22T18:02:50Z</time>
      </trkpt>
      <trkpt lat="66.632459023967385" lon="13.359586978331208">
        <ele>-0.34</ele>
        <time>2017-06-22T18:03:01Z</time>
      </trkpt>
      <trkpt lat="66.63268500007689" lon="13.36300796829164">
        <ele>0.62</ele>
        <time>2017-06-22T18:03:09Z</time>
      </trkpt>
      <trkpt lat="66.633407017216086" lon="13.367595970630646">
        <ele>4.46</ele>
        <time>2017-06-22T18:03:20Z</time>
      </trkpt>
      <trkpt lat="66.633853018283844" lon="13.369723968207836">
        <ele>7.83</ele>
        <time>2017-06-22T18:03:26Z</time>
      </trkpt>
      <trkpt lat="66.633885037153959" lon="13.370110960677266">
        <ele>8.789999999999999</ele>
        <time>2017-06-22T18:03:27Z</time>
      </trkpt>
      <trkpt lat="66.633897023275495" lon="13.370505999773741">
        <ele>9.27</ele>
        <time>2017-06-22T18:03:28Z</time>
      </trkpt>
      <trkpt lat="66.633885959163308" lon="13.370904978364706">
        <ele>10.23</ele>
        <time>2017-06-22T18:03:29Z</time>
      </trkpt>
      <trkpt lat="66.633857963606715" lon="13.371287025511265">
        <ele>10.710000000000001</ele>
        <time>2017-06-22T18:03:30Z</time>
      </trkpt>
      <trkpt lat="66.633809013292193" lon="13.371662031859159">
        <ele>11.19</ele>
        <time>2017-06-22T18:03:31Z</time>
      </trkpt>
      <trkpt lat="66.633742041885853" lon="13.372028991580009">
        <ele>11.19</ele>
        <time>2017-06-22T18:03:32Z</time>
      </trkpt>
      <trkpt lat="66.633657971397042" lon="13.372381031513214">
        <ele>11.19</ele>
        <time>2017-06-22T18:03:33Z</time>
      </trkpt>
      <trkpt lat="66.633559986948967" lon="13.372697029262781">
        <ele>10.710000000000001</ele>
        <time>2017-06-22T18:03:34Z</time>
      </trkpt>
      <trkpt lat="66.633448004722595" lon="13.372978996485472">
        <ele>10.23</ele>
        <time>2017-06-22T18:03:35Z</time>
      </trkpt>
      <trkpt lat="66.633325964212418" lon="13.373222993686795">
        <ele>9.27</ele>
        <time>2017-06-22T18:03:36Z</time>
      </trkpt>
      <trkpt lat="66.633197972550988" lon="13.373434972018003">
        <ele>8.789999999999999</ele>
        <time>2017-06-22T18:03:37Z</time>
      </trkpt>
      <trkpt lat="66.633064029738307" lon="13.373635970056057">
        <ele>7.83</ele>
        <time>2017-06-22T18:03:38Z</time>
      </trkpt>
      <trkpt lat="66.632573017850518" lon="13.37456502020359">
        <ele>3.98</ele>
        <time>2017-06-22T18:03:42Z</time>
      </trkpt>
      <trkpt lat="66.632478972896934" lon="13.374855034053326">
        <ele>2.54</ele>
        <time>2017-06-22T18:03:43Z</time>
      </trkpt>
      <trkpt lat="66.632407978177071" lon="13.375182012096047">
        <ele>2.06</ele>
        <time>2017-06-22T18:03:44Z</time>
      </trkpt>
      <trkpt lat="66.63236397318542" lon="13.37553396821022">
        <ele>1.58</ele>
        <time>2017-06-22T18:03:45Z</time>
      </trkpt>
      <trkpt lat="66.632346035912633" lon="13.375907968729734">
        <ele>1.1</ele>
        <time>2017-06-22T18:03:46Z</time>
      </trkpt>
      <trkpt lat="66.632348969578743" lon="13.376282975077629">
        <ele>1.1</ele>
        <time>2017-06-22T18:03:47Z</time>
      </trkpt>
      <trkpt lat="66.632370008155704" lon="13.376654963940382">
        <ele>1.58</ele>
        <time>2017-06-22T18:03:48Z</time>
      </trkpt>
      <trkpt lat="66.632404960691929" lon="13.377017984166741">
        <ele>2.06</ele>
        <time>2017-06-22T18:03:49Z</time>
      </trkpt>
      <trkpt lat="66.63244703784585" lon="13.377377986907959">
        <ele>2.06</ele>
        <time>2017-06-22T18:03:50Z</time>
      </trkpt>
      <trkpt lat="66.632493976503611" lon="13.377727009356022">
        <ele>2.06</ele>
        <time>2017-06-22T18:03:51Z</time>
      </trkpt>
      <trkpt lat="66.633080961182714" lon="13.379857018589973">
        <ele>0.14</ele>
        <time>2017-06-22T18:03:58Z</time>
      </trkpt>
      <trkpt lat="66.63419097661972" lon="13.381813019514084">
        <ele>2.06</ele>
        <time>2017-06-22T18:04:06Z</time>
      </trkpt>
      <trkpt lat="66.635093037039042" lon="13.38444896042347">
        <ele>4.94</ele>
        <time>2017-06-22T18:04:13Z</time>
      </trkpt>
      <trkpt lat="66.63552101701498" lon="13.387690996751189">
        <ele>11.19</ele>
        <time>2017-06-22T18:04:20Z</time>
      </trkpt>
      <trkpt lat="66.635426972061396" lon="13.39113000780344">
        <ele>16.48</ele>
        <time>2017-06-22T18:04:27Z</time>
      </trkpt>
      <trkpt lat="66.634910982102156" lon="13.3951919618994">
        <ele>20.32</ele>
        <time>2017-06-22T18:04:36Z</time>
      </trkpt>
      <trkpt lat="66.634407984092832" lon="13.39873599819839">
        <ele>20.32</ele>
        <time>2017-06-22T18:04:44Z</time>
      </trkpt>
      <trkpt lat="66.633293023332953" lon="13.402490001171827">
        <ele>29.940000000000001</ele>
        <time>2017-06-22T18:04:54Z</time>
      </trkpt>
      <trkpt lat="66.633153967559338" lon="13.40279895812273">
        <ele>30.899999999999999</ele>
        <time>2017-06-22T18:04:55Z</time>
      </trkpt>
      <trkpt lat="66.632999991998076" lon="13.403077991679311">
        <ele>31.859999999999999</ele>
        <time>2017-06-22T18:04:56Z</time>
      </trkpt>
      <trkpt lat="66.63283696398139" lon="13.403327018022537">
        <ele>32.340000000000003</ele>
        <time>2017-06-22T18:04:57Z</time>
      </trkpt>
      <trkpt lat="66.632671002298594" lon="13.40354603715241">
        <ele>33.299999999999997</ele>
        <time>2017-06-22T18:04:58Z</time>
      </trkpt>
      <trkpt lat="66.632491964846849" lon="13.403709987178445">
        <ele>33.299999999999997</ele>
        <time>2017-06-22T18:04:59Z</time>
      </trkpt>
      <trkpt lat="66.632308987900615" lon="13.403829010203481">
        <ele>34.259999999999998</ele>
        <time>2017-06-22T18:05:00Z</time>
      </trkpt>
      <trkpt lat="66.632122993469238" lon="13.40391400270164">
        <ele>34.740000000000002</ele>
        <time>2017-06-22T18:05:01Z</time>
      </trkpt>
      <trkpt lat="66.631931969895959" lon="13.403951972723007">
        <ele>35.710000000000001</ele>
        <time>2017-06-22T18:05:02Z</time>
      </trkpt>
      <trkpt lat="66.631734995171428" lon="13.403958007693291">
        <ele>36.670000000000002</ele>
        <time>2017-06-22T18:05:03Z</time>
      </trkpt>
      <trkpt lat="66.631535002961755" lon="13.403943004086614">
        <ele>37.630000000000003</ele>
        <time>2017-06-22T18:05:04Z</time>
      </trkpt>
      <trkpt lat="66.630535963922739" lon="13.404031014069915">
        <ele>39.549999999999997</ele>
        <time>2017-06-22T18:05:09Z</time>
      </trkpt>
      <trkpt lat="66.630347035825253" lon="13.404160011559725">
        <ele>40.509999999999998</ele>
        <time>2017-06-22T18:05:10Z</time>
      </trkpt>
      <trkpt lat="66.63017001003027" lon="13.404350029304624">
        <ele>41.469999999999999</ele>
        <time>2017-06-22T18:05:11Z</time>
      </trkpt>
      <trkpt lat="66.630000025033951" lon="13.404567036777735">
        <ele>42.439999999999998</ele>
        <time>2017-06-22T18:05:12Z</time>
      </trkpt>
      <trkpt lat="66.629843031987548" lon="13.404811033979058">
        <ele>43.399999999999999</ele>
        <time>2017-06-22T18:05:13Z</time>
      </trkpt>
      <trkpt lat="66.629696013405919" lon="13.405087972059846">
        <ele>44.359999999999999</ele>
        <time>2017-06-22T18:05:14Z</time>
      </trkpt>
      <trkpt lat="66.629554023966193" lon="13.405367005616426">
        <ele>45.32</ele>
        <time>2017-06-22T18:05:15Z</time>
      </trkpt>
      <trkpt lat="66.627602968364954" lon="13.417419008910656">
        <ele>67.430000000000007</ele>
        <time>2017-06-22T18:05:44Z</time>
      </trkpt>
      <trkpt lat="66.626839963719249" lon="13.420818038284779">
        <ele>67.430000000000007</ele>
        <time>2017-06-22T18:05:51Z</time>
      </trkpt>
      <trkpt lat="66.624936014413834" lon="13.428699960932136">
        <ele>71.269999999999996</ele>
        <time>2017-06-22T18:06:07Z</time>
      </trkpt>
      <trkpt lat="66.624529995024204" lon="13.432462010532618">
        <ele>71.760000000000005</ele>
        <time>2017-06-22T18:06:14Z</time>
      </trkpt>
      <trkpt lat="66.624212991446257" lon="13.441612031310797">
        <ele>67.909999999999997</ele>
        <time>2017-06-22T18:06:30Z</time>
      </trkpt>
      <trkpt lat="66.623780988156796" lon="13.445546999573708">
        <ele>72.719999999999999</ele>
        <time>2017-06-22T18:06:37Z</time>
      </trkpt>
      <trkpt lat="66.622095974162221" lon="13.453928986564279">
        <ele>89.540000000000006</ele>
        <time>2017-06-22T18:06:53Z</time>
      </trkpt>
      <trkpt lat="66.621886007487774" lon="13.456495022401214">
        <ele>89.540000000000006</ele>
        <time>2017-06-22T18:06:58Z</time>
      </trkpt>
      <trkpt lat="66.621896987780929" lon="13.456987962126732">
        <ele>89.540000000000006</ele>
        <time>2017-06-22T18:06:59Z</time>
      </trkpt>
      <trkpt lat="66.621929006651044" lon="13.457463970407844">
        <ele>89.540000000000006</ele>
        <time>2017-06-22T18:07:00Z</time>
      </trkpt>
      <trkpt lat="66.621978040784597" lon="13.45792799256742">
        <ele>90.019999999999996</ele>
        <time>2017-06-22T18:07:01Z</time>
      </trkpt>
      <trkpt lat="66.622043000534177" lon="13.458388997241855">
        <ele>90.019999999999996</ele>
        <time>2017-06-22T18:07:02Z</time>
      </trkpt>
      <trkpt lat="66.622123969718814" lon="13.458838015794754">
        <ele>90.019999999999996</ele>
        <time>2017-06-22T18:07:03Z</time>
      </trkpt>
      <trkpt lat="66.622214997187257" lon="13.45928200520575">
        <ele>90.5</ele>
        <time>2017-06-22T18:07:04Z</time>
      </trkpt>
      <trkpt lat="66.622325973585248" lon="13.459703028202057">
        <ele>90.5</ele>
        <time>2017-06-22T18:07:05Z</time>
      </trkpt>
      <trkpt lat="66.622456982731819" lon="13.460116004571319">
        <ele>90.980000000000004</ele>
        <time>2017-06-22T18:07:06Z</time>
      </trkpt>
      <trkpt lat="66.641263961791992" lon="13.521157968789339">
        <ele>29.460000000000001</ele>
        <time>2017-06-22T18:09:25Z</time>
      </trkpt>
      <trkpt lat="66.641568979248405" lon="13.52193002589047">
        <ele>31.859999999999999</ele>
        <time>2017-06-22T18:09:27Z</time>
      </trkpt>
      <trkpt lat="66.641743993386626" lon="13.522249963134527">
        <ele>31.379999999999999</ele>
        <time>2017-06-22T18:09:28Z</time>
      </trkpt>
      <trkpt lat="66.641936022788286" lon="13.522537965327501">
        <ele>33.299999999999997</ele>
        <time>2017-06-22T18:09:29Z</time>
      </trkpt>
      <trkpt lat="66.642135009169579" lon="13.522772993892431">
        <ele>33.780000000000001</ele>
        <time>2017-06-22T18:09:30Z</time>
      </trkpt>
      <trkpt lat="66.642341958358884" lon="13.522964017465711">
        <ele>34.259999999999998</ele>
        <time>2017-06-22T18:09:31Z</time>
      </trkpt>
      <trkpt lat="66.642553014680743" lon="13.523112963885069">
        <ele>35.710000000000001</ele>
        <time>2017-06-22T18:09:32Z</time>
      </trkpt>
      <trkpt lat="66.642768010497093" lon="13.523240033537149">
        <ele>37.149999999999999</ele>
        <time>2017-06-22T18:09:33Z</time>
      </trkpt>
      <trkpt lat="66.644826019182801" lon="13.524548029527068">
        <ele>40.990000000000002</ele>
        <time>2017-06-22T18:09:43Z</time>
      </trkpt>
      <trkpt lat="66.644997010007501" lon="13.524815998971462">
        <ele>40.990000000000002</ele>
        <time>2017-06-22T18:09:44Z</time>
      </trkpt>
      <trkpt lat="66.645163977518678" lon="13.525109030306339">
        <ele>40.990000000000002</ele>
        <time>2017-06-22T18:09:45Z</time>
      </trkpt>
      <trkpt lat="66.6453199647367" lon="13.525441959500313">
        <ele>40.990000000000002</ele>
        <time>2017-06-22T18:09:46Z</time>
      </trkpt>
      <trkpt lat="66.645460026338696" lon="13.525803973898292">
        <ele>40.990000000000002</ele>
        <time>2017-06-22T18:09:47Z</time>
      </trkpt>
      <trkpt lat="66.645587012171745" lon="13.526190966367722">
        <ele>40.509999999999998</ele>
        <time>2017-06-22T18:09:48Z</time>
      </trkpt>
      <trkpt lat="66.645695976912975" lon="13.526596985757351">
        <ele>40.030000000000001</ele>
        <time>2017-06-22T18:09:49Z</time>
      </trkpt>
      <trkpt lat="66.645793039351702" lon="13.527020020410419">
        <ele>39.549999999999997</ele>
        <time>2017-06-22T18:09:50Z</time>
      </trkpt>
      <trkpt lat="66.645880965515971" lon="13.527456969022751">
        <ele>39.549999999999997</ele>
        <time>2017-06-22T18:09:51Z</time>
      </trkpt>
      <trkpt lat="66.646539028733969" lon="13.53192301467061">
        <ele>36.670000000000002</ele>
        <time>2017-06-22T18:10:01Z</time>
      </trkpt>
      <trkpt lat="66.646536011248827" lon="13.534660041332245">
        <ele>33.780000000000001</ele>
        <time>2017-06-22T18:10:07Z</time>
      </trkpt>
      <trkpt lat="66.646483959630132" lon="13.535091038793325">
        <ele>33.299999999999997</ele>
        <time>2017-06-22T18:10:08Z</time>
      </trkpt>
      <trkpt lat="66.646416988223791" lon="13.535525975748897">
        <ele>32.82</ele>
        <time>2017-06-22T18:10:09Z</time>
      </trkpt>
      <trkpt lat="66.646330989897251" lon="13.535945992916822">
        <ele>32.340000000000003</ele>
        <time>2017-06-22T18:10:10Z</time>
      </trkpt>
      <trkpt lat="66.646234011277556" lon="13.536360980942845">
        <ele>31.379999999999999</ele>
        <time>2017-06-22T18:10:11Z</time>
      </trkpt>
      <trkpt lat="66.646118005737662" lon="13.536760965362191">
        <ele>30.899999999999999</ele>
        <time>2017-06-22T18:10:12Z</time>
      </trkpt>
      <trkpt lat="66.645992025732994" lon="13.537149969488382">
        <ele>30.420000000000002</ele>
        <time>2017-06-22T18:10:13Z</time>
      </trkpt>
      <trkpt lat="66.645851964130998" lon="13.537527993321419">
        <ele>28.98</ele>
        <time>2017-06-22T18:10:14Z</time>
      </trkpt>
      <trkpt lat="66.644877986982465" lon="13.540887041017413">
        <ele>18.399999999999999</ele>
        <time>2017-06-22T18:10:22Z</time>
      </trkpt>
      <trkpt lat="66.644483031705022" lon="13.544778004288673">
        <ele>10.710000000000001</ele>
        <time>2017-06-22T18:10:30Z</time>
      </trkpt>
      <trkpt lat="66.644513038918376" lon="13.549424009397626">
        <ele>6.87</ele>
        <time>2017-06-22T18:10:39Z</time>
      </trkpt>
      <trkpt lat="66.645090971142054" lon="13.554127011448145">
        <ele>4.46</ele>
        <time>2017-06-22T18:10:48Z</time>
      </trkpt>
      <trkpt lat="66.64641497656703" lon="13.562385030090809">
        <ele>-0.34</ele>
        <time>2017-06-22T18:11:05Z</time>
      </trkpt>
      <trkpt lat="66.646992992609739" lon="13.56569797731936">
        <ele>0.14</ele>
        <time>2017-06-22T18:11:13Z</time>
      </trkpt>
      <trkpt lat="66.647504037246108" lon="13.566821990534663">
        <ele>0.14</ele>
        <time>2017-06-22T18:11:17Z</time>
      </trkpt>
      <trkpt lat="66.647640997543931" lon="13.567006979137659">
        <ele>-0.82</ele>
        <time>2017-06-22T18:11:18Z</time>
      </trkpt>
      <trkpt lat="66.647778963670135" lon="13.567163972184062">
        <ele>-0.82</ele>
        <time>2017-06-22T18:11:19Z</time>
      </trkpt>
      <trkpt lat="66.647920031100512" lon="13.567284001037478">
        <ele>-0.82</ele>
        <time>2017-06-22T18:11:20Z</time>
      </trkpt>
      <trkpt lat="66.648063026368618" lon="13.567387014627457">
        <ele>-1.3</ele>
        <time>2017-06-22T18:11:21Z</time>
      </trkpt>
      <trkpt lat="66.648209961131215" lon="13.567463960498571">
        <ele>-1.79</ele>
        <time>2017-06-22T18:11:22Z</time>
      </trkpt>
      <trkpt lat="66.648362008854747" lon="13.567504025995731">
        <ele>-1.79</ele>
        <time>2017-06-22T18:11:23Z</time>
      </trkpt>
      <trkpt lat="66.648514978587627" lon="13.567517017945647">
        <ele>-1.79</ele>
        <time>2017-06-22T18:11:24Z</time>
      </trkpt>
      <trkpt lat="66.648669959977269" lon="13.567500002682209">
        <ele>-1.79</ele>
        <time>2017-06-22T18:11:25Z</time>
      </trkpt>
      <trkpt lat="66.648827958852053" lon="13.567448034882545">
        <ele>-1.3</ele>
        <time>2017-06-22T18:11:26Z</time>
      </trkpt>
      <trkpt lat="66.648975983262062" lon="13.567356001585722">
        <ele>-1.79</ele>
        <time>2017-06-22T18:11:27Z</time>
      </trkpt>
      <trkpt lat="66.649124007672071" lon="13.567230021581054">
        <ele>-1.79</ele>
        <time>2017-06-22T18:11:28Z</time>
      </trkpt>
      <trkpt lat="66.649265997111797" lon="13.567063976079226">
        <ele>-1.3</ele>
        <time>2017-06-22T18:11:29Z</time>
      </trkpt>
      <trkpt lat="66.649409998208284" lon="13.566865995526314">
        <ele>-1.3</ele>
        <time>2017-06-22T18:11:30Z</time>
      </trkpt>
      <trkpt lat="66.64955198764801" lon="13.566648988053203">
        <ele>-0.82</ele>
        <time>2017-06-22T18:11:31Z</time>
      </trkpt>
      <trkpt lat="66.650820001959801" lon="13.564286967739463">
        <ele>1.58</ele>
        <time>2017-06-22T18:11:40Z</time>
      </trkpt>
      <trkpt lat="66.650926033034921" lon="13.563949009403586">
        <ele>2.54</ele>
        <time>2017-06-22T18:11:41Z</time>
      </trkpt>
      <trkpt lat="66.651017982512712" lon="13.563595963642001">
        <ele>3.02</ele>
        <time>2017-06-22T18:11:42Z</time>
      </trkpt>
      <trkpt lat="66.651094006374478" lon="13.563210982829332">
        <ele>3.5</ele>
        <time>2017-06-22T18:11:43Z</time>
      </trkpt>
      <trkpt lat="66.651159971952438" lon="13.562814015895128">
        <ele>3.98</ele>
        <time>2017-06-22T18:11:44Z</time>
      </trkpt>
      <trkpt lat="66.651211017742753" lon="13.562388969585299">
        <ele>4.46</ele>
        <time>2017-06-22T18:11:45Z</time>
      </trkpt>
      <trkpt lat="66.651256028562784" lon="13.561960989609361">
        <ele>4.46</ele>
        <time>2017-06-22T18:11:46Z</time>
      </trkpt>
      <trkpt lat="66.651683002710342" lon="13.557742964476347">
        <ele>2.06</ele>
        <time>2017-06-22T18:11:55Z</time>
      </trkpt>
      <trkpt lat="66.652255989611149" lon="13.55463202111423">
        <ele>3.02</ele>
        <time>2017-06-22T18:12:02Z</time>
      </trkpt>
      <trkpt lat="66.653195014223456" lon="13.552129017189145">
        <ele>3.5</ele>
        <time>2017-06-22T18:12:09Z</time>
      </trkpt>
      <trkpt lat="66.655013971030712" lon="13.549205996096134">
        <ele>0.14</ele>
        <time>2017-06-22T18:12:19Z</time>
      </trkpt>
      <trkpt lat="66.65704800747335" lon="13.54552298784256">
        <ele>0.62</ele>
        <time>2017-06-22T18:12:31Z</time>
      </trkpt>
      <trkpt lat="66.658382993191481" lon="13.544208034873009">
        <ele>-1.3</ele>
        <time>2017-06-22T18:12:38Z</time>
      </trkpt>
      <trkpt lat="66.660599000751972" lon="13.542193025350571">
        <ele>-4.19</ele>
        <time>2017-06-22T18:12:49Z</time>
      </trkpt>
      <trkpt lat="66.662852978333831" lon="13.539489023387432">
        <ele>-7.07</ele>
        <time>2017-06-22T18:13:01Z</time>
      </trkpt>
      <trkpt lat="66.664105989038944" lon="13.539506960660219">
        <ele>-9.960000000000001</ele>
        <time>2017-06-22T18:13:07Z</time>
      </trkpt>
      <trkpt lat="66.665834002196789" lon="13.539903005585074">
        <ele>-11.4</ele>
        <time>2017-06-22T18:13:15Z</time>
      </trkpt>
      <trkpt lat="66.666043968871236" lon="13.539839973673224">
        <ele>-10.92</ele>
        <time>2017-06-22T18:13:16Z</time>
      </trkpt>
      <trkpt lat="66.667845994234085" lon="13.538595009595156">
        <ele>-8.51</ele>
        <time>2017-06-22T18:13:25Z</time>
      </trkpt>
      <trkpt lat="66.66961801238358" lon="13.53645502589643">
        <ele>-1.79</ele>
        <time>2017-06-22T18:13:35Z</time>
      </trkpt>
      <trkpt lat="66.670525018125772" lon="13.53443599306047">
        <ele>-5.63</ele>
        <time>2017-06-22T18:13:42Z</time>
      </trkpt>
      <trkpt lat="66.671526990830898" lon="13.531306022778153">
        <ele>-2.75</ele>
        <time>2017-06-22T18:13:52Z</time>
      </trkpt>
      <trkpt lat="66.672052033245564" lon="13.527853013947606">
        <ele>2.54</ele>
        <time>2017-06-22T18:14:01Z</time>
      </trkpt>
      <trkpt lat="66.672129984945059" lon="13.523679999634624">
        <ele>6.87</ele>
        <time>2017-06-22T18:14:11Z</time>
      </trkpt>
      <trkpt lat="66.67211196385324" lon="13.51864599622786">
        <ele>17.440000000000001</ele>
        <time>2017-06-22T18:14:22Z</time>
      </trkpt>
      <trkpt lat="66.672545978799462" lon="13.51492996327579">
        <ele>19.84</ele>
        <time>2017-06-22T18:14:30Z</time>
      </trkpt>
      <trkpt lat="66.672626025974751" lon="13.514521010220051">
        <ele>19.84</ele>
        <time>2017-06-22T18:14:31Z</time>
      </trkpt>
      <trkpt lat="66.672721998766065" lon="13.514138041064143">
        <ele>20.32</ele>
        <time>2017-06-22T18:14:32Z</time>
      </trkpt>
      <trkpt lat="66.672832975164056" lon="13.513780971989036">
        <ele>19.84</ele>
        <time>2017-06-22T18:14:33Z</time>
      </trkpt>
      <trkpt lat="66.674053966999054" lon="13.510810006409883">
        <ele>16.960000000000001</ele>
        <time>2017-06-22T18:14:42Z</time>
      </trkpt>
      <trkpt lat="66.674854019656777" lon="13.509529000148177">
        <ele>13.119999999999999</ele>
        <time>2017-06-22T18:14:47Z</time>
      </trkpt>
      <trkpt lat="66.674986034631729" lon="13.509197998791933">
        <ele>11.67</ele>
        <time>2017-06-22T18:14:48Z</time>
      </trkpt>
      <trkpt lat="66.675106985494494" lon="13.508842019364238">
        <ele>10.710000000000001</ele>
        <time>2017-06-22T18:14:49Z</time>
      </trkpt>
      <trkpt lat="66.675213016569614" lon="13.508434994146228">
        <ele>9.75</ele>
        <time>2017-06-22T18:14:50Z</time>
      </trkpt>
      <trkpt lat="66.675301026552916" lon="13.507989998906851">
        <ele>8.310000000000001</ele>
        <time>2017-06-22T18:14:51Z</time>
      </trkpt>
      <trkpt lat="66.676301993429661" lon="13.502711998298764">
        <ele>3.5</ele>
        <time>2017-06-22T18:15:03Z</time>
      </trkpt>
      <trkpt lat="66.676593013107777" lon="13.497176002711058">
        <ele>4.46</ele>
        <time>2017-06-22T18:15:14Z</time>
      </trkpt>
      <trkpt lat="66.677258033305407" lon="13.489383012056351">
        <ele>0.62</ele>
        <time>2017-06-22T18:15:29Z</time>
      </trkpt>
      <trkpt lat="66.677863961085677" lon="13.482267027720809">
        <ele>2.06</ele>
        <time>2017-06-22T18:15:43Z</time>
      </trkpt>
      <trkpt lat="66.677820961922407" lon="13.478841008618474">
        <ele>-0.82</ele>
        <time>2017-06-22T18:15:49Z</time>
      </trkpt>
      <trkpt lat="66.677426006644964" lon="13.474150998517871">
        <ele>3.98</ele>
        <time>2017-06-22T18:15:58Z</time>
      </trkpt>
      <trkpt lat="66.67739499360323" lon="13.473700974136591">
        <ele>5.91</ele>
        <time>2017-06-22T18:15:59Z</time>
      </trkpt>
      <trkpt lat="66.677382001653314" lon="13.473237035796046">
        <ele>7.35</ele>
        <time>2017-06-22T18:16:00Z</time>
      </trkpt>
      <trkpt lat="66.677393987774849" lon="13.472764967009425">
        <ele>9.27</ele>
        <time>2017-06-22T18:16:01Z</time>
      </trkpt>
      <trkpt lat="66.6774189658463" lon="13.472289964556694">
        <ele>10.710000000000001</ele>
        <time>2017-06-22T18:16:02Z</time>
      </trkpt>
      <trkpt lat="66.67746196500957" lon="13.471805993467569">
        <ele>12.15</ele>
        <time>2017-06-22T18:16:03Z</time>
      </trkpt>
      <trkpt lat="66.677510999143124" lon="13.471321016550064">
        <ele>13.6</ele>
        <time>2017-06-22T18:16:04Z</time>
      </trkpt>
      <trkpt lat="66.677586017176509" lon="13.470319965854287">
        <ele>16.48</ele>
        <time>2017-06-22T18:16:06Z</time>
      </trkpt>
      <trkpt lat="66.677596997469664" lon="13.469805987551808">
        <ele>18.399999999999999</ele>
        <time>2017-06-22T18:16:07Z</time>
      </trkpt>
      <trkpt lat="66.677629016339779" lon="13.468354996293783">
        <ele>22.73</ele>
        <time>2017-06-22T18:16:10Z</time>
      </trkpt>
      <trkpt lat="66.677666986361146" lon="13.467906983569264">
        <ele>24.170000000000002</ele>
        <time>2017-06-22T18:16:11Z</time>
      </trkpt>
      <trkpt lat="66.677724989131093" lon="13.467465005815029">
        <ele>26.09</ele>
        <time>2017-06-22T18:16:12Z</time>
      </trkpt>
      <trkpt lat="66.677795983850956" lon="13.467045994475484">
        <ele>27.530000000000001</ele>
        <time>2017-06-22T18:16:13Z</time>
      </trkpt>
      <trkpt lat="66.677876031026244" lon="13.466635029762983">
        <ele>28.98</ele>
        <time>2017-06-22T18:16:14Z</time>
      </trkpt>
      <trkpt lat="66.678305016830564" lon="13.464734014123678">
        <ele>34.259999999999998</ele>
        <time>2017-06-22T18:16:19Z</time>
      </trkpt>
      <trkpt lat="66.678409958258271" lon="13.464421033859253">
        <ele>34.259999999999998</ele>
        <time>2017-06-22T18:16:20Z</time>
      </trkpt>
      <trkpt lat="66.678525041788816" lon="13.464128002524376">
        <ele>34.740000000000002</ele>
        <time>2017-06-22T18:16:21Z</time>
      </trkpt>
      <trkpt lat="66.678652027621865" lon="13.463877970352769">
        <ele>35.229999999999997</ele>
        <time>2017-06-22T18:16:22Z</time>
      </trkpt>
      <trkpt lat="66.678784964606166" lon="13.463682001456618">
        <ele>34.740000000000002</ele>
        <time>2017-06-22T18:16:23Z</time>
      </trkpt>
      <trkpt lat="66.678931983187795" lon="13.46353598870337">
        <ele>34.259999999999998</ele>
        <time>2017-06-22T18:16:24Z</time>
      </trkpt>
      <trkpt lat="66.679085958749056" lon="13.463452002033591">
        <ele>33.780000000000001</ele>
        <time>2017-06-22T18:16:25Z</time>
      </trkpt>
      <trkpt lat="66.679249992594123" lon="13.463430963456631">
        <ele>32.82</ele>
        <time>2017-06-22T18:16:26Z</time>
      </trkpt>
      <trkpt lat="66.679418971762061" lon="13.463462982326746">
        <ele>31.379999999999999</ele>
        <time>2017-06-22T18:16:27Z</time>
      </trkpt>
      <trkpt lat="66.679600020870566" lon="13.46355602145195">
        <ele>28.98</ele>
        <time>2017-06-22T18:16:28Z</time>
      </trkpt>
      <trkpt lat="66.679790038615465" lon="13.463643025606871">
        <ele>27.050000000000001</ele>
        <time>2017-06-22T18:16:29Z</time>
      </trkpt>
      <trkpt lat="66.680363025516272" lon="13.463769005611539">
        <ele>23.210000000000001</ele>
        <time>2017-06-22T18:16:32Z</time>
      </trkpt>
      <trkpt lat="66.680557988584042" lon="13.463705973699689">
        <ele>23.210000000000001</ele>
        <time>2017-06-22T18:16:33Z</time>
      </trkpt>
      <trkpt lat="66.680743983015418" lon="13.463591979816556">
        <ele>22.73</ele>
        <time>2017-06-22T18:16:34Z</time>
      </trkpt>
      <trkpt lat="66.680914973840117" lon="13.463430041447282">
        <ele>23.690000000000001</ele>
        <time>2017-06-22T18:16:35Z</time>
      </trkpt>
      <trkpt lat="66.681070039048791" lon="13.463222002610564">
        <ele>24.649999999999999</ele>
        <time>2017-06-22T18:16:36Z</time>
      </trkpt>
      <trkpt lat="66.681212028488517" lon="13.462990997359157">
        <ele>25.609999999999999</ele>
        <time>2017-06-22T18:16:37Z</time>
      </trkpt>
      <trkpt lat="66.681344965472817" lon="13.46274096518755">
        <ele>27.050000000000001</ele>
        <time>2017-06-22T18:16:38Z</time>
      </trkpt>
      <trkpt lat="66.681975033134222" lon="13.461621981114149">
        <ele>33.299999999999997</ele>
        <time>2017-06-22T18:16:43Z</time>
      </trkpt>
      <trkpt lat="66.682124985381961" lon="13.461483009159565">
        <ele>34.259999999999998</ele>
        <time>2017-06-22T18:16:44Z</time>
      </trkpt>
      <trkpt lat="66.682283990085125" lon="13.461416037753224">
        <ele>34.259999999999998</ele>
        <time>2017-06-22T18:16:45Z</time>
      </trkpt>
      <trkpt lat="66.682446012273431" lon="13.461426012217999">
        <ele>34.259999999999998</ele>
        <time>2017-06-22T18:16:46Z</time>
      </trkpt>
      <trkpt lat="66.682599987834692" lon="13.461503041908145">
        <ele>33.299999999999997</ele>
        <time>2017-06-22T18:16:47Z</time>
      </trkpt>
      <trkpt lat="66.682747006416321" lon="13.46164402551949">
        <ele>32.82</ele>
        <time>2017-06-22T18:16:48Z</time>
      </trkpt>
      <trkpt lat="66.682880027219653" lon="13.461879976093769">
        <ele>30.420000000000002</ele>
        <time>2017-06-22T18:16:49Z</time>
      </trkpt>
      <trkpt lat="66.683006007224321" lon="13.46216001547873">
        <ele>29.460000000000001</ele>
        <time>2017-06-22T18:16:50Z</time>
      </trkpt>
      <trkpt lat="66.683127963915467" lon="13.462474001571536">
        <ele>28.98</ele>
        <time>2017-06-22T18:16:51Z</time>
      </trkpt>
      <trkpt lat="66.684041004627943" lon="13.465274982154369">
        <ele>26.57</ele>
        <time>2017-06-22T18:17:00Z</time>
      </trkpt>
      <trkpt lat="66.684403019025922" lon="13.466162960976362">
        <ele>26.57</ele>
        <time>2017-06-22T18:17:03Z</time>
      </trkpt>
      <trkpt lat="66.684539979323745" lon="13.466398995369673">
        <ele>26.09</ele>
        <time>2017-06-22T18:17:04Z</time>
      </trkpt>
      <trkpt lat="66.684683980420232" lon="13.466584989801049">
        <ele>26.09</ele>
        <time>2017-06-22T18:17:05Z</time>
      </trkpt>
      <trkpt lat="66.684833010658622" lon="13.46671599894762">
        <ele>26.09</ele>
        <time>2017-06-22T18:17:06Z</time>
      </trkpt>
      <trkpt lat="66.684982040897012" lon="13.46680199727416">
        <ele>26.09</ele>
        <time>2017-06-22T18:17:07Z</time>
      </trkpt>
      <trkpt lat="66.685121012851596" lon="13.46686502918601">
        <ele>25.609999999999999</ele>
        <time>2017-06-22T18:17:08Z</time>
      </trkpt>
      <trkpt lat="66.686465973034501" lon="13.467060998082161">
        <ele>27.530000000000001</ele>
        <time>2017-06-22T18:17:17Z</time>
      </trkpt>
      <trkpt lat="66.688505038619041" lon="13.467376995831728">
        <ele>34.259999999999998</ele>
        <time>2017-06-22T18:17:29Z</time>
      </trkpt>
      <trkpt lat="66.69024595990777" lon="13.468257011845708">
        <ele>47.719999999999999</ele>
        <time>2017-06-22T18:17:39Z</time>
      </trkpt>
      <trkpt lat="66.691281041130424" lon="13.468840979039669">
        <ele>52.530000000000001</ele>
        <time>2017-06-22T18:17:46Z</time>
      </trkpt>
      <trkpt lat="66.692336993291974" lon="13.468242008239031">
        <ele>48.200000000000003</ele>
        <time>2017-06-22T18:17:52Z</time>
      </trkpt>
      <trkpt lat="66.693712966516614" lon="13.467129981145263">
        <ele>45.32</ele>
        <time>2017-06-22T18:17:58Z</time>
      </trkpt>
      <trkpt lat="66.695322040468454" lon="13.465956011787057">
        <ele>46.759999999999998</ele>
        <time>2017-06-22T18:18:05Z</time>
      </trkpt>
      <trkpt lat="66.695698974654078" lon="13.465774962678552">
        <ele>47.719999999999999</ele>
        <time>2017-06-22T18:18:07Z</time>
      </trkpt>
      <trkpt lat="66.697519021108747" lon="13.465526020154357">
        <ele>40.030000000000001</ele>
        <time>2017-06-22T18:18:17Z</time>
      </trkpt>
      <trkpt lat="66.698683016002178" lon="13.465659040957689">
        <ele>31.859999999999999</ele>
        <time>2017-06-22T18:18:24Z</time>
      </trkpt>
      <trkpt lat="66.700232997536659" lon="13.466634023934603">
        <ele>16.960000000000001</ele>
        <time>2017-06-22T18:18:31Z</time>
      </trkpt>
      <trkpt lat="66.702143987640738" lon="13.467653011903167">
        <ele>15.52</ele>
        <time>2017-06-22T18:18:40Z</time>
      </trkpt>
      <trkpt lat="66.702321013435721" lon="13.467856021597981">
        <ele>15.52</ele>
        <time>2017-06-22T18:18:41Z</time>
      </trkpt>
      <trkpt lat="66.702494015917182" lon="13.468097001314163">
        <ele>16</ele>
        <time>2017-06-22T18:18:42Z</time>
      </trkpt>
      <trkpt lat="66.704055983573198" lon="13.470592964440584">
        <ele>16.960000000000001</ele>
        <time>2017-06-22T18:18:51Z</time>
      </trkpt>
      <trkpt lat="66.704240972176194" lon="13.470750041306019">
        <ele>17.440000000000001</ele>
        <time>2017-06-22T18:18:52Z</time>
      </trkpt>
      <trkpt lat="66.704429984092712" lon="13.470858000218868">
        <ele>17.440000000000001</ele>
        <time>2017-06-22T18:18:53Z</time>
      </trkpt>
      <trkpt lat="66.704616984352469" lon="13.470914997160435">
        <ele>16.960000000000001</ele>
        <time>2017-06-22T18:18:54Z</time>
      </trkpt>
      <trkpt lat="66.704815970733762" lon="13.470914997160435">
        <ele>16.48</ele>
        <time>2017-06-22T18:18:55Z</time>
      </trkpt>
      <trkpt lat="66.705014035105705" lon="13.470862023532391">
        <ele>16</ele>
        <time>2017-06-22T18:18:56Z</time>
      </trkpt>
      <trkpt lat="66.705208998173475" lon="13.470748029649258">
        <ele>16</ele>
        <time>2017-06-22T18:18:57Z</time>
      </trkpt>
      <trkpt lat="66.705403039231896" lon="13.470579972490668">
        <ele>15.039999999999999</ele>
        <time>2017-06-22T18:18:58Z</time>
      </trkpt>
      <trkpt lat="66.705587022006512" lon="13.470366988331079">
        <ele>15.039999999999999</ele>
        <time>2017-06-22T18:18:59Z</time>
      </trkpt>
      <trkpt lat="66.705762036144733" lon="13.47010899335146">
        <ele>15.039999999999999</ele>
        <time>2017-06-22T18:19:00Z</time>
      </trkpt>
      <trkpt lat="66.705922968685627" lon="13.469795007258654">
        <ele>15.039999999999999</ele>
        <time>2017-06-22T18:19:01Z</time>
      </trkpt>
      <trkpt lat="66.706075016409159" lon="13.46944397315383">
        <ele>15.039999999999999</ele>
        <time>2017-06-22T18:19:02Z</time>
      </trkpt>
      <trkpt lat="66.70620996505022" lon="13.469048012048006">
        <ele>15.52</ele>
        <time>2017-06-22T18:19:03Z</time>
      </trkpt>
      <trkpt lat="66.706334017217159" lon="13.468653978779912">
        <ele>16</ele>
        <time>2017-06-22T18:19:04Z</time>
      </trkpt>
      <trkpt lat="66.706448011100292" lon="13.468262040987611">
        <ele>16.48</ele>
        <time>2017-06-22T18:19:05Z</time>
      </trkpt>
      <trkpt lat="66.706677004694939" lon="13.467524014413357">
        <ele>16.48</ele>
        <time>2017-06-22T18:19:07Z</time>
      </trkpt>
      <trkpt lat="66.706807008013129" lon="13.467195024713874">
        <ele>16.48</ele>
        <time>2017-06-22T18:19:08Z</time>
      </trkpt>
      <trkpt lat="66.706954026594758" lon="13.466914985328913">
        <ele>16.48</ele>
        <time>2017-06-22T18:19:09Z</time>
      </trkpt>
      <trkpt lat="66.707114959135652" lon="13.466680040583014">
        <ele>16.960000000000001</ele>
        <time>2017-06-22T18:19:10Z</time>
      </trkpt>
      <trkpt lat="66.707279998809099" lon="13.466487005352974">
        <ele>16.960000000000001</ele>
        <time>2017-06-22T18:19:11Z</time>
      </trkpt>
      <trkpt lat="66.707458030432463" lon="13.466346021741629">
        <ele>16.48</ele>
        <time>2017-06-22T18:19:12Z</time>
      </trkpt>
      <trkpt lat="66.707640001550317" lon="13.466259017586708">
        <ele>16.48</ele>
        <time>2017-06-22T18:19:13Z</time>
      </trkpt>
      <trkpt lat="66.707822978496552" lon="13.466234961524606">
        <ele>16.48</ele>
        <time>2017-06-22T18:19:14Z</time>
      </trkpt>
      <trkpt lat="66.708006961271167" lon="13.466266980394721">
        <ele>16</ele>
        <time>2017-06-22T18:19:15Z</time>
      </trkpt>
      <trkpt lat="66.708193039521575" lon="13.466346021741629">
        <ele>15.52</ele>
        <time>2017-06-22T18:19:16Z</time>
      </trkpt>
      <trkpt lat="66.708382973447442" lon="13.466454986482859">
        <ele>15.039999999999999</ele>
        <time>2017-06-22T18:19:17Z</time>
      </trkpt>
      <trkpt lat="66.709905965253711" lon="13.466875003650784">
        <ele>16</ele>
        <time>2017-06-22T18:19:25Z</time>
      </trkpt>
      <trkpt lat="66.710090031847358" lon="13.466798979789019">
        <ele>16.48</ele>
        <time>2017-06-22T18:19:26Z</time>
      </trkpt>
      <trkpt lat="66.710814982652664" lon="13.466361025348306">
        <ele>14.56</ele>
        <time>2017-06-22T18:19:30Z</time>
      </trkpt>
      <trkpt lat="66.710996031761169" lon="13.466335963457823">
        <ele>14.08</ele>
        <time>2017-06-22T18:19:31Z</time>
      </trkpt>
      <trkpt lat="66.711184959858656" lon="13.46632900647819">
        <ele>12.630000000000001</ele>
        <time>2017-06-22T18:19:32Z</time>
      </trkpt>
      <trkpt lat="66.71271800994873" lon="13.466435959562659">
        <ele>11.19</ele>
        <time>2017-06-22T18:19:40Z</time>
      </trkpt>
      <trkpt lat="66.712895035743713" lon="13.466333029791713">
        <ele>11.67</ele>
        <time>2017-06-22T18:19:41Z</time>
      </trkpt>
      <trkpt lat="66.713756024837494" lon="13.465756019577384">
        <ele>15.039999999999999</ele>
        <time>2017-06-22T18:19:46Z</time>
      </trkpt>
      <trkpt lat="66.71392198652029" lon="13.465751996263862">
        <ele>16.48</ele>
        <time>2017-06-22T18:19:47Z</time>
      </trkpt>
      <trkpt lat="66.714080991223454" lon="13.465822990983725">
        <ele>17.920000000000002</ele>
        <time>2017-06-22T18:19:48Z</time>
      </trkpt>
      <trkpt lat="66.714220969006419" lon="13.465976966544986">
        <ele>19.359999999999999</ele>
        <time>2017-06-22T18:19:49Z</time>
      </trkpt>
      <trkpt lat="66.714348960667849" lon="13.466201014816761">
        <ele>20.32</ele>
        <time>2017-06-22T18:19:50Z</time>
      </trkpt>
      <trkpt lat="66.71445700339973" lon="13.466478958725929">
        <ele>20.809999999999999</ele>
        <time>2017-06-22T18:19:51Z</time>
      </trkpt>
      <trkpt lat="66.714554987847805" lon="13.466796968132257">
        <ele>22.25</ele>
        <time>2017-06-22T18:19:52Z</time>
      </trkpt>
      <trkpt lat="66.714636040851474" lon="13.467137021943927">
        <ele>23.210000000000001</ele>
        <time>2017-06-22T18:19:53Z</time>
      </trkpt>
      <trkpt lat="66.714709969237447" lon="13.467499958351254">
        <ele>24.170000000000002</ele>
        <time>2017-06-22T18:19:54Z</time>
      </trkpt>
      <trkpt lat="66.715384041890502" lon="13.469933979213238">
        <ele>26.57</ele>
        <time>2017-06-22T18:20:01Z</time>
      </trkpt>
      <trkpt lat="66.715529970824718" lon="13.470208989456296">
        <ele>25.609999999999999</ele>
        <time>2017-06-22T18:20:02Z</time>
      </trkpt>
      <trkpt lat="66.715685036033392" lon="13.470453992486">
        <ele>24.649999999999999</ele>
        <time>2017-06-22T18:20:03Z</time>
      </trkpt>
      <trkpt lat="66.717239962890744" lon="13.472331035882235">
        <ele>18.399999999999999</ele>
        <time>2017-06-22T18:20:13Z</time>
      </trkpt>
      <trkpt lat="66.717387987300754" lon="13.472412005066872">
        <ele>17.440000000000001</ele>
        <time>2017-06-22T18:20:14Z</time>
      </trkpt>
      <trkpt lat="66.717541040852666" lon="13.472434971481562">
        <ele>16.48</ele>
        <time>2017-06-22T18:20:15Z</time>
      </trkpt>
      <trkpt lat="66.717693004757166" lon="13.472420973703265">
        <ele>15.039999999999999</ele>
        <time>2017-06-22T18:20:16Z</time>
      </trkpt>
      <trkpt lat="66.717842034995556" lon="13.472359031438828">
        <ele>14.08</ele>
        <time>2017-06-22T18:20:17Z</time>
      </trkpt>
      <trkpt lat="66.717992993071675" lon="13.472251994535327">
        <ele>12.630000000000001</ele>
        <time>2017-06-22T18:20:18Z</time>
      </trkpt>
      <trkpt lat="66.718140011653304" lon="13.472099024802446">
        <ele>11.19</ele>
        <time>2017-06-22T18:20:19Z</time>
      </trkpt>
      <trkpt lat="66.718290969729424" lon="13.471917975693941">
        <ele>9.75</ele>
        <time>2017-06-22T18:20:20Z</time>
      </trkpt>
      <trkpt lat="66.718441005796194" lon="13.471718989312649">
        <ele>8.789999999999999</ele>
        <time>2017-06-22T18:20:21Z</time>
      </trkpt>
      <trkpt lat="66.719172997400165" lon="13.470746017992496">
        <ele>3.5</ele>
        <time>2017-06-22T18:20:27Z</time>
      </trkpt>
      <trkpt lat="66.719247009605169" lon="13.470721961930394">
        <ele>3.02</ele>
        <time>2017-06-22T18:20:28Z</time>
      </trkpt>
      <trkpt lat="66.719310041517019" lon="13.470761021599174">
        <ele>2.54</ele>
        <time>2017-06-22T18:20:29Z</time>
      </trkpt>
      <trkpt lat="66.719358991831541" lon="13.470869986340404">
        <ele>2.54</ele>
        <time>2017-06-22T18:20:30Z</time>
      </trkpt>
      <trkpt lat="66.719391010701656" lon="13.471034020185471">
        <ele>2.54</ele>
        <time>2017-06-22T18:20:31Z</time>
      </trkpt>
      <trkpt lat="66.719406014308333" lon="13.471253039315343">
        <ele>2.54</ele>
        <time>2017-06-22T18:20:32Z</time>
      </trkpt>
      <trkpt lat="66.719410037621856" lon="13.471502987667918">
        <ele>2.54</ele>
        <time>2017-06-22T18:20:33Z</time>
      </trkpt>
      <trkpt lat="66.719411965459585" lon="13.471772968769073">
        <ele>3.02</ele>
        <time>2017-06-22T18:20:34Z</time>
      </trkpt>
      <trkpt lat="66.719272993505001" lon="13.474698001518846">
        <ele>-2.27</ele>
        <time>2017-06-22T18:20:43Z</time>
      </trkpt>
      <trkpt lat="66.719254972413182" lon="13.47522103227675">
        <ele>-3.71</ele>
        <time>2017-06-22T18:20:45Z</time>
      </trkpt>
      <trkpt lat="66.719262013211846" lon="13.475432004779577">
        <ele>-4.67</ele>
        <time>2017-06-22T18:20:46Z</time>
      </trkpt>
      <trkpt lat="66.719279028475285" lon="13.475584974512458">
        <ele>-4.67</ele>
        <time>2017-06-22T18:20:47Z</time>
      </trkpt>
      <trkpt lat="66.719303000718355" lon="13.475710032507777">
        <ele>-4.67</ele>
        <time>2017-06-22T18:20:48Z</time>
      </trkpt>
      <trkpt lat="66.719328984618187" lon="13.475806005299091">
        <ele>-4.67</ele>
        <time>2017-06-22T18:20:49Z</time>
      </trkpt>
      <trkpt lat="66.719355974346399" lon="13.475895021110773">
        <ele>-4.67</ele>
        <time>2017-06-22T18:20:50Z</time>
      </trkpt>
      <trkpt lat="66.719395034015179" lon="13.475991999730468">
        <ele>-4.67</ele>
        <time>2017-06-22T18:20:51Z</time>
      </trkpt>
      <trkpt lat="66.719440966844559" lon="13.476089984178543">
        <ele>-4.67</ele>
        <time>2017-06-22T18:20:52Z</time>
      </trkpt>
      <trkpt lat="66.719492012634873" lon="13.476183023303747">
        <ele>-4.67</ele>
        <time>2017-06-22T18:20:53Z</time>
      </trkpt>
      <trkpt lat="66.719540040940046" lon="13.476260975003242">
        <ele>-4.67</ele>
        <time>2017-06-22T18:20:54Z</time>
      </trkpt>
      <trkpt lat="66.719591002911329" lon="13.476311014965177">
        <ele>-4.67</ele>
        <time>2017-06-22T18:20:55Z</time>
      </trkpt>
      <trkpt lat="66.719640959054232" lon="13.476358959451318">
        <ele>-4.67</ele>
        <time>2017-06-22T18:20:56Z</time>
      </trkpt>
      <trkpt lat="66.719782026484609" lon="13.476615026593208">
        <ele>-4.19</ele>
        <time>2017-06-22T18:21:04Z</time>
      </trkpt>
      <trkpt lat="66.719801975414157" lon="13.476647967472672">
        <ele>-4.19</ele>
        <time>2017-06-22T18:21:26Z</time>
      </trkpt>
      <trkpt lat="66.719793006777763" lon="13.47664000466466">
        <ele>-3.71</ele>
        <time>2017-06-22T18:21:47Z</time>
      </trkpt>
      <trkpt lat="66.719795018434525" lon="13.476629024371505">
        <ele>-3.71</ele>
        <time>2017-06-22T18:23:50Z</time>
      </trkpt>
      <trkpt lat="66.738508036360145" lon="13.513634959235787">
        <ele>-8.029999999999999</ele>
        <time>2017-06-22T19:12:06Z</time>
      </trkpt>
      <trkpt lat="66.73890701495111" lon="13.514708010479808">
        <ele>-2.27</ele>
        <time>2017-06-22T19:12:21Z</time>
      </trkpt>
      <trkpt lat="66.73895001411438" lon="13.514889981597662">
        <ele>-1.3</ele>
        <time>2017-06-22T19:12:22Z</time>
      </trkpt>
      <trkpt lat="66.738983038812876" lon="13.515087962150574">
        <ele>-0.82</ele>
        <time>2017-06-22T19:12:23Z</time>
      </trkpt>
      <trkpt lat="66.739009022712708" lon="13.515317039564252">
        <ele>0.14</ele>
        <time>2017-06-22T19:12:24Z</time>
      </trkpt>
      <trkpt lat="66.739022014662623" lon="13.515547960996628">
        <ele>0.62</ele>
        <time>2017-06-22T19:12:25Z</time>
      </trkpt>
      <trkpt lat="66.739024026319385" lon="13.515779972076416">
        <ele>2.06</ele>
        <time>2017-06-22T19:12:26Z</time>
      </trkpt>
      <trkpt lat="66.739020003005862" lon="13.516004020348191">
        <ele>3.5</ele>
        <time>2017-06-22T19:12:27Z</time>
      </trkpt>
      <trkpt lat="66.739008016884327" lon="13.516200995072722">
        <ele>3.98</ele>
        <time>2017-06-22T19:12:28Z</time>
      </trkpt>
      <trkpt lat="66.738986978307366" lon="13.516736011952162">
        <ele>5.91</ele>
        <time>2017-06-22T19:12:31Z</time>
      </trkpt>
      <trkpt lat="66.73899301327765" lon="13.516876995563507">
        <ele>6.87</ele>
        <time>2017-06-22T19:12:32Z</time>
      </trkpt>
      <trkpt lat="66.739001981914043" lon="13.517004987224936">
        <ele>7.35</ele>
        <time>2017-06-22T19:12:33Z</time>
      </trkpt>
      <trkpt lat="66.739024026319385" lon="13.517120992764831">
        <ele>7.35</ele>
        <time>2017-06-22T19:12:34Z</time>
      </trkpt>
      <trkpt lat="66.739056967198849" lon="13.517239009961486">
        <ele>7.83</ele>
        <time>2017-06-22T19:12:35Z</time>
      </trkpt>
      <trkpt lat="66.739099966362119" lon="13.517353003844619">
        <ele>7.83</ele>
        <time>2017-06-22T19:12:36Z</time>
      </trkpt>
      <trkpt lat="66.739139026030898" lon="13.517450988292694">
        <ele>8.310000000000001</ele>
        <time>2017-06-22T19:12:37Z</time>
      </trkpt>
      <trkpt lat="66.739211026579142" lon="13.517600018531084">
        <ele>7.35</ele>
        <time>2017-06-22T19:12:39Z</time>
      </trkpt>
      <trkpt lat="66.739248996600509" lon="13.517709989100695">
        <ele>7.83</ele>
        <time>2017-06-22T19:12:40Z</time>
      </trkpt>
      <trkpt lat="66.739282021299005" lon="13.517860025167465">
        <ele>7.35</ele>
        <time>2017-06-22T19:12:41Z</time>
      </trkpt>
      <trkpt lat="66.739312028512359" lon="13.518040990456939">
        <ele>7.35</ele>
        <time>2017-06-22T19:12:42Z</time>
      </trkpt>
      <trkpt lat="66.739334994927049" lon="13.518252968788147">
        <ele>7.35</ele>
        <time>2017-06-22T19:12:43Z</time>
      </trkpt>
      <trkpt lat="66.739353016018867" lon="13.518478022888303">
        <ele>7.35</ele>
        <time>2017-06-22T19:12:44Z</time>
      </trkpt>
      <trkpt lat="66.739581003785133" lon="13.521314961835742">
        <ele>6.39</ele>
        <time>2017-06-22T19:12:54Z</time>
      </trkpt>
      <trkpt lat="66.739832041785121" lon="13.525084974244237">
        <ele>5.42</ele>
        <time>2017-06-22T19:13:05Z</time>
      </trkpt>
      <trkpt lat="66.739567006006837" lon="13.52867896668613">
        <ele>10.710000000000001</ele>
        <time>2017-06-22T19:13:15Z</time>
      </trkpt>
      <trkpt lat="66.739247990772128" lon="13.533096984028816">
        <ele>12.630000000000001</ele>
        <time>2017-06-22T19:13:26Z</time>
      </trkpt>
      <trkpt lat="66.739256037399173" lon="13.533539967611432">
        <ele>12.630000000000001</ele>
        <time>2017-06-22T19:13:27Z</time>
      </trkpt>
      <trkpt lat="66.739592989906669" lon="13.537976006045938">
        <ele>11.67</ele>
        <time>2017-06-22T19:13:37Z</time>
      </trkpt>
      <trkpt lat="66.740259015932679" lon="13.541178982704878">
        <ele>10.23</ele>
        <time>2017-06-22T19:13:45Z</time>
      </trkpt>
      <trkpt lat="66.741365008056164" lon="13.544333009049296">
        <ele>5.42</ele>
        <time>2017-06-22T19:13:55Z</time>
      </trkpt>
      <trkpt lat="66.742407968267798" lon="13.547813007608056">
        <ele>4.94</ele>
        <time>2017-06-22T19:14:05Z</time>
      </trkpt>
      <trkpt lat="66.743087992072105" lon="13.551241038367152">
        <ele>4.46</ele>
        <time>2017-06-22T19:14:15Z</time>
      </trkpt>
      <trkpt lat="66.743124034255743" lon="13.551615038886666">
        <ele>4.94</ele>
        <time>2017-06-22T19:14:16Z</time>
      </trkpt>
      <trkpt lat="66.743501974269748" lon="13.558034989982843">
        <ele>2.54</ele>
        <time>2017-06-22T19:14:32Z</time>
      </trkpt>
      <trkpt lat="66.743543967604637" lon="13.561753034591675">
        <ele>11.67</ele>
        <time>2017-06-22T19:14:42Z</time>
      </trkpt>
      <trkpt lat="66.743474984541535" lon="13.565954966470599">
        <ele>24.170000000000002</ele>
        <time>2017-06-22T19:14:53Z</time>
      </trkpt>
      <trkpt lat="66.743257977068424" lon="13.569117961451411">
        <ele>33.299999999999997</ele>
        <time>2017-06-22T19:15:02Z</time>
      </trkpt>
      <trkpt lat="66.743238028138876" lon="13.569721039384604">
        <ele>35.229999999999997</ele>
        <time>2017-06-22T19:15:04Z</time>
      </trkpt>
      <trkpt lat="66.743240961804986" lon="13.570024967193604">
        <ele>35.710000000000001</ele>
        <time>2017-06-22T19:15:05Z</time>
      </trkpt>
      <trkpt lat="66.743257977068424" lon="13.570336019620299">
        <ele>36.670000000000002</ele>
        <time>2017-06-22T19:15:06Z</time>
      </trkpt>
      <trkpt lat="66.74369802698493" lon="13.574233017861843">
        <ele>40.990000000000002</ele>
        <time>2017-06-22T19:15:18Z</time>
      </trkpt>
      <trkpt lat="66.743920985609293" lon="13.576188012957573">
        <ele>42.920000000000002</ele>
        <time>2017-06-22T19:15:26Z</time>
      </trkpt>
      <trkpt lat="66.744232038035989" lon="13.578810961917043">
        <ele>47.240000000000002</ele>
        <time>2017-06-22T19:15:36Z</time>
      </trkpt>
      <trkpt lat="66.744812987744808" lon="13.583439029753208">
        <ele>55.890000000000001</ele>
        <time>2017-06-22T19:15:49Z</time>
      </trkpt>
      <trkpt lat="66.745712030678988" lon="13.587166965007782">
        <ele>65.030000000000001</ele>
        <time>2017-06-22T19:16:00Z</time>
      </trkpt>
      <trkpt lat="66.746332962065935" lon="13.589329998940229">
        <ele>70.790000000000006</ele>
        <time>2017-06-22T19:16:09Z</time>
      </trkpt>
      <trkpt lat="66.747290007770061" lon="13.592693991959095">
        <ele>78.969999999999999</ele>
        <time>2017-06-22T19:16:21Z</time>
      </trkpt>
      <trkpt lat="66.748776035383344" lon="13.597246035933495">
        <ele>90.5</ele>
        <time>2017-06-22T19:16:37Z</time>
      </trkpt>
      <trkpt lat="66.750060981139541" lon="13.59940798021853">
        <ele>88.099999999999994</ele>
        <time>2017-06-22T19:16:47Z</time>
      </trkpt>
      <trkpt lat="66.751437960192561" lon="13.60200896859169">
        <ele>79.450000000000003</ele>
        <time>2017-06-22T19:16:57Z</time>
      </trkpt>
      <trkpt lat="66.751721017062664" lon="13.603195007890463">
        <ele>79.930000000000007</ele>
        <time>2017-06-22T19:17:02Z</time>
      </trkpt>
      <trkpt lat="66.751755969598889" lon="13.60349097289145">
        <ele>78.969999999999999</ele>
        <time>2017-06-22T19:17:09Z</time>
      </trkpt>
      <trkpt lat="66.751750018447638" lon="13.603477980941534">
        <ele>78.969999999999999</ele>
        <time>2017-06-22T19:19:14Z</time>
      </trkpt>
      <trkpt lat="66.751854959875345" lon="13.60392197035253">
        <ele>78.480000000000004</ele>
        <time>2017-06-22T19:19:20Z</time>
      </trkpt>
      <trkpt lat="66.752065010368824" lon="13.605932034552097">
        <ele>77.519999999999996</ele>
        <time>2017-06-22T19:19:27Z</time>
      </trkpt>
      <trkpt lat="66.752388970926404" lon="13.61012801527977">
        <ele>78.480000000000004</ele>
        <time>2017-06-22T19:19:37Z</time>
      </trkpt>
      <trkpt lat="66.752974027767777" lon="13.617892004549503">
        <ele>82.810000000000002</ele>
        <time>2017-06-22T19:19:53Z</time>
      </trkpt>
      <trkpt lat="66.753908023238182" lon="13.630090020596981">
        <ele>87.620000000000005</ele>
        <time>2017-06-22T19:20:15Z</time>
      </trkpt>
      <trkpt lat="66.754665998741984" lon="13.640404036268592">
        <ele>99.629999999999995</ele>
        <time>2017-06-22T19:20:34Z</time>
      </trkpt>
      <trkpt lat="66.754975039511919" lon="13.646325012668967">
        <ele>83.769999999999996</ele>
        <time>2017-06-22T19:20:44Z</time>
      </trkpt>
      <trkpt lat="66.755268992856145" lon="13.651946000754833">
        <ele>75.599999999999994</ele>
        <time>2017-06-22T19:20:54Z</time>
      </trkpt>
      <trkpt lat="66.75570703111589" lon="13.660378027707338">
        <ele>84.25</ele>
        <time>2017-06-22T19:21:10Z</time>
      </trkpt>
      <trkpt lat="66.756113972514868" lon="13.667890978977084">
        <ele>103.95999999999999</ele>
        <time>2017-06-22T19:21:25Z</time>
      </trkpt>
      <trkpt lat="66.756217991933227" lon="13.671617992222309">
        <ele>110.20999999999999</ele>
        <time>2017-06-22T19:21:35Z</time>
      </trkpt>
      <trkpt lat="66.75611699000001" lon="13.673583967611194">
        <ele>104.44</ele>
        <time>2017-06-22T19:21:42Z</time>
      </trkpt>
      <trkpt lat="66.755777020007372" lon="13.675998961552978">
        <ele>95.790000000000006</ele>
        <time>2017-06-22T19:21:50Z</time>
      </trkpt>
      <trkpt lat="66.755737960338593" lon="13.678826009854674">
        <ele>85.209999999999994</ele>
        <time>2017-06-22T19:21:57Z</time>
      </trkpt>
      <trkpt lat="66.755709964782" lon="13.683769991621375">
        <ele>68.390000000000001</ele>
        <time>2017-06-22T19:22:09Z</time>
      </trkpt>
      <trkpt lat="66.755589013919234" lon="13.685087962076068">
        <ele>62.619999999999997</ele>
        <time>2017-06-22T19:22:15Z</time>
      </trkpt>
      <trkpt lat="66.755579961463809" lon="13.685193993151188">
        <ele>62.140000000000001</ele>
        <time>2017-06-22T19:22:26Z</time>
      </trkpt>
      <trkpt lat="66.755597982555628" lon="13.685162980109453">
        <ele>62.140000000000001</ele>
        <time>2017-06-22T19:22:41Z</time>
      </trkpt>
      <trkpt lat="66.75560100004077" lon="13.685106988996267">
        <ele>62.140000000000001</ele>
        <time>2017-06-22T19:22:42Z</time>
      </trkpt>
      <trkpt lat="66.755727985873818" lon="13.684635004028678">
        <ele>64.549999999999997</ele>
        <time>2017-06-22T19:22:49Z</time>
      </trkpt>
      <trkpt lat="66.755997966974974" lon="13.684472981840372">
        <ele>62.140000000000001</ele>
        <time>2017-06-22T19:23:00Z</time>
      </trkpt>
      <trkpt lat="66.756040966138244" lon="13.684374997392297">
        <ele>63.579999999999998</ele>
        <time>2017-06-22T19:23:19Z</time>
      </trkpt>
      <trkpt lat="66.756048006936908" lon="13.684364017099142">
        <ele>63.579999999999998</ele>
        <time>2017-06-22T19:26:17Z</time>
      </trkpt>
    </trkseg>
  </trk>

</gpx>